<?xml version='1.0' encoding='UTF-8'?>
<gpx version="1.1" xmlns="http://www.topografix.com/GPX/1/1" xmlns:xsi="http://www.w3.org/2001/XMLSchema-instance" xsi:schemaLocation="http://www.topografix.com/GPX/1/1 http://www.topografix.com/GPX/1/1/gpx.xsd">
  <metadata>
    <name>PDTB Aller v2025-06-25T12_05</name>
    <author>
      <link href="https://www.vcneuilly92.fr">
        <text>VCN92</text>
        <type>text/html</type>
      </link>
    </author>
  </metadata>
  <wpt lat="48.5594814263947" lon="1.0382194318771543">
    <name>CP1 - Château de Senonches</name>
    <cmt>viewpoint</cmt>
    <sym>Dot</sym>
    <type>overlook</type>
  </wpt>
  <wpt lat="48.45062157475659" lon="-0.14439444907378807">
    <name>CP2 : Mont des Avaloirs</name>
    <cmt>viewpoint</cmt>
    <sym>Dot</sym>
    <type>overlook</type>
  </wpt>
  <wpt lat="48.353926988820305" lon="-1.208169944774633">
    <name>CP3 : Château de Fougères</name>
    <cmt>viewpoint</cmt>
    <sym>Dot</sym>
    <type>overlook</type>
  </wpt>
  <wpt lat="48.01928365984734" lon="-2.1735191193962167">
    <name>CP4 : Étang et Abbaye de Paimpont (Brocéliande)</name>
    <cmt>viewpoint</cmt>
    <sym>Dot</sym>
    <type>overlook</type>
  </wpt>
  <trk>
    <name>PDTB Aller v2025-06-25T12_05</name>
    <trkseg>
      <trkpt lat="48.892309" lon="2.262379">
        <ele>28.202188</ele>
        <time>2025-06-25T10:08:49.954Z</time>
      </trkpt>
      <trkpt lat="48.892290" lon="2.262410">
        <ele>28.202188</ele>
        <time>2025-06-25T10:08:50.577Z</time>
      </trkpt>
      <trkpt lat="48.892131" lon="2.262743">
        <ele>28.202188</ele>
        <time>2025-06-25T10:08:56.715Z</time>
      </trkpt>
      <trkpt lat="48.892131" lon="2.262914">
        <ele>28.202188</ele>
        <time>2025-06-25T10:08:59.329Z</time>
      </trkpt>
      <trkpt lat="48.892569" lon="2.263671">
        <ele>28.387205</ele>
        <time>2025-06-25T10:09:15.428Z</time>
      </trkpt>
      <trkpt lat="48.892616" lon="2.263754">
        <ele>28.463545</ele>
        <time>2025-06-25T10:09:17.184Z</time>
      </trkpt>
      <trkpt lat="48.893033" lon="2.264481">
        <ele>29.135906</ele>
        <time>2025-06-25T10:09:32.976Z</time>
      </trkpt>
      <trkpt lat="48.893080" lon="2.264562">
        <ele>29.211195</ele>
        <time>2025-06-25T10:09:34.815Z</time>
      </trkpt>
      <trkpt lat="48.893456" lon="2.265256">
        <ele>29.837900</ele>
        <time>2025-06-25T10:09:49.217Z</time>
      </trkpt>
      <trkpt lat="48.893639" lon="2.265668">
        <ele>30.147060</ele>
        <time>2025-06-25T10:09:57.290Z</time>
      </trkpt>
      <trkpt lat="48.893903" lon="2.266268">
        <ele>30.401954</ele>
        <time>2025-06-25T10:10:08.379Z</time>
      </trkpt>
      <trkpt lat="48.893930" lon="2.266331">
        <ele>30.428504</ele>
        <time>2025-06-25T10:10:09.271Z</time>
      </trkpt>
      <trkpt lat="48.894112" lon="2.266787">
        <ele>30.616839</ele>
        <time>2025-06-25T10:10:15.908Z</time>
      </trkpt>
      <trkpt lat="48.894169" lon="2.266914">
        <ele>30.671128</ele>
        <time>2025-06-25T10:10:17.669Z</time>
      </trkpt>
      <trkpt lat="48.894095" lon="2.266998">
        <ele>30.720713</ele>
        <time>2025-06-25T10:10:19.230Z</time>
      </trkpt>
      <trkpt lat="48.894022" lon="2.267081">
        <ele>30.769655</ele>
        <time>2025-06-25T10:10:20.583Z</time>
      </trkpt>
      <trkpt lat="48.893957" lon="2.267111">
        <ele>30.806132</ele>
        <time>2025-06-25T10:10:21.586Z</time>
      </trkpt>
      <trkpt lat="48.893733" lon="2.267336">
        <ele>30.950282</ele>
        <time>2025-06-25T10:10:25.636Z</time>
      </trkpt>
      <trkpt lat="48.893624" lon="2.267426">
        <ele>31.016883</ele>
        <time>2025-06-25T10:10:27.600Z</time>
      </trkpt>
      <trkpt lat="48.893503" lon="2.267158">
        <ele>31.039905</ele>
        <time>2025-06-25T10:10:30.896Z</time>
      </trkpt>
      <trkpt lat="48.893448" lon="2.266972">
        <ele>30.996161</ele>
        <time>2025-06-25T10:10:32.816Z</time>
      </trkpt>
      <trkpt lat="48.892764" lon="2.265714">
        <ele>30.646017</ele>
        <time>2025-06-25T10:10:46.711Z</time>
      </trkpt>
      <trkpt lat="48.892350" lon="2.265014">
        <ele>30.512240</ele>
        <time>2025-06-25T10:10:55.394Z</time>
      </trkpt>
      <trkpt lat="48.892282" lon="2.264984">
        <ele>30.525147</ele>
        <time>2025-06-25T10:10:56.490Z</time>
      </trkpt>
      <trkpt lat="48.891764" lon="2.264025">
        <ele>30.673901</ele>
        <time>2025-06-25T10:11:09.138Z</time>
      </trkpt>
      <trkpt lat="48.891636" lon="2.263865">
        <ele>30.704104</ele>
        <time>2025-06-25T10:11:11.709Z</time>
      </trkpt>
      <trkpt lat="48.891039" lon="2.262509">
        <ele>30.868302</ele>
        <time>2025-06-25T10:11:29.944Z</time>
      </trkpt>
      <trkpt lat="48.890722" lon="2.261749">
        <ele>30.935863</ele>
        <time>2025-06-25T10:11:38.151Z</time>
      </trkpt>
      <trkpt lat="48.890694" lon="2.261686">
        <ele>30.941571</ele>
        <time>2025-06-25T10:11:38.907Z</time>
      </trkpt>
      <trkpt lat="48.890579" lon="2.261420">
        <ele>30.965468</ele>
        <time>2025-06-25T10:11:41.907Z</time>
      </trkpt>
      <trkpt lat="48.890449" lon="2.261119">
        <ele>30.992501</ele>
        <time>2025-06-25T10:11:45.579Z</time>
      </trkpt>
      <trkpt lat="48.890343" lon="2.260899">
        <ele>31.012975</ele>
        <time>2025-06-25T10:11:48.474Z</time>
      </trkpt>
      <trkpt lat="48.890240" lon="2.260694">
        <ele>31.002639</ele>
        <time>2025-06-25T10:11:51.100Z</time>
      </trkpt>
      <trkpt lat="48.890147" lon="2.260530">
        <ele>30.976210</ele>
        <time>2025-06-25T10:11:53.268Z</time>
      </trkpt>
      <trkpt lat="48.889996" lon="2.260344">
        <ele>30.940145</ele>
        <time>2025-06-25T10:11:56.059Z</time>
      </trkpt>
      <trkpt lat="48.889470" lon="2.259624">
        <ele>30.808800</ele>
        <time>2025-06-25T10:12:05.863Z</time>
      </trkpt>
      <trkpt lat="48.889434" lon="2.259580">
        <ele>30.800229</ele>
        <time>2025-06-25T10:12:06.520Z</time>
      </trkpt>
      <trkpt lat="48.889165" lon="2.259200">
        <ele>30.732087</ele>
        <time>2025-06-25T10:12:11.692Z</time>
      </trkpt>
      <trkpt lat="48.888908" lon="2.258797">
        <ele>30.675458</ele>
        <time>2025-06-25T10:12:16.871Z</time>
      </trkpt>
      <trkpt lat="48.888434" lon="2.258152">
        <ele>30.616793</ele>
        <time>2025-06-25T10:12:25.354Z</time>
      </trkpt>
      <trkpt lat="48.888094" lon="2.257704">
        <ele>30.575301</ele>
        <time>2025-06-25T10:12:31.206Z</time>
      </trkpt>
      <trkpt lat="48.887822" lon="2.257396">
        <ele>30.544023</ele>
        <time>2025-06-25T10:12:36.228Z</time>
      </trkpt>
      <trkpt lat="48.887496" lon="2.257030">
        <ele>30.569332</ele>
        <time>2025-06-25T10:12:43.760Z</time>
      </trkpt>
      <trkpt lat="48.887484" lon="2.256979">
        <ele>30.580101</ele>
        <time>2025-06-25T10:12:44.444Z</time>
      </trkpt>
      <trkpt lat="48.887297" lon="2.256772">
        <ele>30.650036</ele>
        <time>2025-06-25T10:12:49.304Z</time>
      </trkpt>
      <trkpt lat="48.886401" lon="2.256093">
        <ele>30.952732</ele>
        <time>2025-06-25T10:13:07.942Z</time>
      </trkpt>
      <trkpt lat="48.885997" lon="2.255811">
        <ele>30.983491</ele>
        <time>2025-06-25T10:13:13.215Z</time>
      </trkpt>
      <trkpt lat="48.885284" lon="2.255286">
        <ele>30.093793</ele>
        <time>2025-06-25T10:13:21.775Z</time>
      </trkpt>
      <trkpt lat="48.884970" lon="2.255091">
        <ele>29.712868</ele>
        <time>2025-06-25T10:13:25.453Z</time>
      </trkpt>
      <trkpt lat="48.884915" lon="2.255067">
        <ele>29.648605</ele>
        <time>2025-06-25T10:13:26.080Z</time>
      </trkpt>
      <trkpt lat="48.884244" lon="2.254743">
        <ele>29.250899</ele>
        <time>2025-06-25T10:13:36.515Z</time>
      </trkpt>
      <trkpt lat="48.883701" lon="2.254282">
        <ele>30.018879</ele>
        <time>2025-06-25T10:13:50.218Z</time>
      </trkpt>
      <trkpt lat="48.883398" lon="2.254010">
        <ele>30.453388</ele>
        <time>2025-06-25T10:13:58.537Z</time>
      </trkpt>
      <trkpt lat="48.882922" lon="2.253597">
        <ele>31.130156</ele>
        <time>2025-06-25T10:14:10.260Z</time>
      </trkpt>
      <trkpt lat="48.882390" lon="2.253145">
        <ele>31.214124</ele>
        <time>2025-06-25T10:14:19.916Z</time>
      </trkpt>
      <trkpt lat="48.881513" lon="2.252385">
        <ele>31.108694</ele>
        <time>2025-06-25T10:14:33.646Z</time>
      </trkpt>
      <trkpt lat="48.880676" lon="2.251519">
        <ele>30.978036</ele>
        <time>2025-06-25T10:14:46.638Z</time>
      </trkpt>
      <trkpt lat="48.880077" lon="2.250780">
        <ele>30.870862</ele>
        <time>2025-06-25T10:14:59.102Z</time>
      </trkpt>
      <trkpt lat="48.879423" lon="2.249955">
        <ele>30.505427</ele>
        <time>2025-06-25T10:15:11.698Z</time>
      </trkpt>
      <trkpt lat="48.878549" lon="2.248810">
        <ele>29.821316</ele>
        <time>2025-06-25T10:15:25.920Z</time>
      </trkpt>
      <trkpt lat="48.877929" lon="2.248079">
        <ele>29.566459</ele>
        <time>2025-06-25T10:15:35.898Z</time>
      </trkpt>
      <trkpt lat="48.877721" lon="2.247823">
        <ele>29.490037</ele>
        <time>2025-06-25T10:15:39.561Z</time>
      </trkpt>
      <trkpt lat="48.877716" lon="2.247737">
        <ele>29.473821</ele>
        <time>2025-06-25T10:15:40.297Z</time>
      </trkpt>
      <trkpt lat="48.877512" lon="2.247477">
        <ele>29.397803</ele>
        <time>2025-06-25T10:15:44.094Z</time>
      </trkpt>
      <trkpt lat="48.876977" lon="2.246945">
        <ele>29.343766</ele>
        <time>2025-06-25T10:15:54.385Z</time>
      </trkpt>
      <trkpt lat="48.876466" lon="2.246473">
        <ele>29.838167</ele>
        <time>2025-06-25T10:16:04.632Z</time>
      </trkpt>
      <trkpt lat="48.876393" lon="2.246442">
        <ele>29.900840</ele>
        <time>2025-06-25T10:16:05.998Z</time>
      </trkpt>
      <trkpt lat="48.876310" lon="2.246410">
        <ele>29.971644</ele>
        <time>2025-06-25T10:16:07.595Z</time>
      </trkpt>
      <trkpt lat="48.876230" lon="2.246423">
        <ele>30.038172</ele>
        <time>2025-06-25T10:16:09.113Z</time>
      </trkpt>
      <trkpt lat="48.876145" lon="2.246489">
        <ele>30.117093</ele>
        <time>2025-06-25T10:16:10.954Z</time>
      </trkpt>
      <trkpt lat="48.876105" lon="2.246531">
        <ele>30.157289</ele>
        <time>2025-06-25T10:16:11.873Z</time>
      </trkpt>
      <trkpt lat="48.876085" lon="2.246622">
        <ele>30.209469</ele>
        <time>2025-06-25T10:16:13.103Z</time>
      </trkpt>
      <trkpt lat="48.876053" lon="2.246929">
        <ele>30.378511</ele>
        <time>2025-06-25T10:16:17.077Z</time>
      </trkpt>
      <trkpt lat="48.876067" lon="2.247012">
        <ele>30.425111</ele>
        <time>2025-06-25T10:16:18.193Z</time>
      </trkpt>
      <trkpt lat="48.875882" lon="2.247867">
        <ele>30.804896</ele>
        <time>2025-06-25T10:16:29.947Z</time>
      </trkpt>
      <trkpt lat="48.875846" lon="2.248018">
        <ele>30.838732</ele>
        <time>2025-06-25T10:16:32.114Z</time>
      </trkpt>
      <trkpt lat="48.875539" lon="2.249250">
        <ele>31.116276</ele>
        <time>2025-06-25T10:16:46.438Z</time>
      </trkpt>
      <trkpt lat="48.875485" lon="2.249506">
        <ele>31.172912</ele>
        <time>2025-06-25T10:16:48.803Z</time>
      </trkpt>
      <trkpt lat="48.875456" lon="2.249640">
        <ele>31.202630</ele>
        <time>2025-06-25T10:16:50.030Z</time>
      </trkpt>
      <trkpt lat="48.875380" lon="2.249587">
        <ele>31.229412</ele>
        <time>2025-06-25T10:16:51.134Z</time>
      </trkpt>
      <trkpt lat="48.874965" lon="2.249211">
        <ele>31.286015</ele>
        <time>2025-06-25T10:16:57.683Z</time>
      </trkpt>
      <trkpt lat="48.874612" lon="2.248888">
        <ele>31.239370</ele>
        <time>2025-06-25T10:17:03.308Z</time>
      </trkpt>
      <trkpt lat="48.874518" lon="2.248804">
        <ele>31.227025</ele>
        <time>2025-06-25T10:17:04.772Z</time>
      </trkpt>
      <trkpt lat="48.874394" lon="2.248684">
        <ele>31.210383</ele>
        <time>2025-06-25T10:17:06.704Z</time>
      </trkpt>
      <trkpt lat="48.874268" lon="2.248561">
        <ele>31.193430</ele>
        <time>2025-06-25T10:17:08.728Z</time>
      </trkpt>
      <trkpt lat="48.874245" lon="2.248541">
        <ele>31.190430</ele>
        <time>2025-06-25T10:17:09.067Z</time>
      </trkpt>
      <trkpt lat="48.873298" lon="2.247574">
        <ele>31.223499</ele>
        <time>2025-06-25T10:17:27.133Z</time>
      </trkpt>
      <trkpt lat="48.872487" lon="2.246832">
        <ele>31.488371</ele>
        <time>2025-06-25T10:17:42.737Z</time>
      </trkpt>
      <trkpt lat="48.871272" lon="2.245847">
        <ele>31.581313</ele>
        <time>2025-06-25T10:18:03.700Z</time>
      </trkpt>
      <trkpt lat="48.871262" lon="2.245840">
        <ele>31.580960</ele>
        <time>2025-06-25T10:18:03.879Z</time>
      </trkpt>
      <trkpt lat="48.870498" lon="2.245273">
        <ele>31.553717</ele>
        <time>2025-06-25T10:18:16.164Z</time>
      </trkpt>
      <trkpt lat="48.869950" lon="2.244855">
        <ele>31.360547</ele>
        <time>2025-06-25T10:18:24.520Z</time>
      </trkpt>
      <trkpt lat="48.869051" lon="2.244123">
        <ele>31.039234</ele>
        <time>2025-06-25T10:18:38.452Z</time>
      </trkpt>
      <trkpt lat="48.868019" lon="2.243177">
        <ele>30.414607</ele>
        <time>2025-06-25T10:18:54.542Z</time>
      </trkpt>
      <trkpt lat="48.867419" lon="2.242602">
        <ele>30.024005</ele>
        <time>2025-06-25T10:19:03.652Z</time>
      </trkpt>
      <trkpt lat="48.867338" lon="2.242393">
        <ele>29.984780</ele>
        <time>2025-06-25T10:19:05.659Z</time>
      </trkpt>
      <trkpt lat="48.867179" lon="2.241672">
        <ele>29.931256</ele>
        <time>2025-06-25T10:19:12.151Z</time>
      </trkpt>
      <trkpt lat="48.867077" lon="2.241036">
        <ele>29.885179</ele>
        <time>2025-06-25T10:19:18.098Z</time>
      </trkpt>
      <trkpt lat="48.867016" lon="2.240387">
        <ele>29.839034</ele>
        <time>2025-06-25T10:19:24.432Z</time>
      </trkpt>
      <trkpt lat="48.866953" lon="2.239768">
        <ele>29.839319</ele>
        <time>2025-06-25T10:19:31.430Z</time>
      </trkpt>
      <trkpt lat="48.866889" lon="2.238885">
        <ele>30.081386</ele>
        <time>2025-06-25T10:19:42.586Z</time>
      </trkpt>
      <trkpt lat="48.866812" lon="2.238460">
        <ele>30.201507</ele>
        <time>2025-06-25T10:19:48.122Z</time>
      </trkpt>
      <trkpt lat="48.866764" lon="2.238193">
        <ele>30.276931</ele>
        <time>2025-06-25T10:19:51.314Z</time>
      </trkpt>
      <trkpt lat="48.866682" lon="2.237821">
        <ele>30.383839</ele>
        <time>2025-06-25T10:19:55.429Z</time>
      </trkpt>
      <trkpt lat="48.866441" lon="2.237024">
        <ele>30.435281</ele>
        <time>2025-06-25T10:20:03.277Z</time>
      </trkpt>
      <trkpt lat="48.866151" lon="2.236304">
        <ele>30.080075</ele>
        <time>2025-06-25T10:20:10.283Z</time>
      </trkpt>
      <trkpt lat="48.866023" lon="2.236007">
        <ele>29.930685</ele>
        <time>2025-06-25T10:20:13.100Z</time>
      </trkpt>
      <trkpt lat="48.865764" lon="2.235526">
        <ele>29.669155</ele>
        <time>2025-06-25T10:20:18.121Z</time>
      </trkpt>
      <trkpt lat="48.865174" lon="2.234598">
        <ele>29.597869</ele>
        <time>2025-06-25T10:20:29.556Z</time>
      </trkpt>
      <trkpt lat="48.865083" lon="2.234494">
        <ele>29.651070</ele>
        <time>2025-06-25T10:20:31.300Z</time>
      </trkpt>
      <trkpt lat="48.865153" lon="2.234359">
        <ele>29.703912</ele>
        <time>2025-06-25T10:20:33.100Z</time>
      </trkpt>
      <trkpt lat="48.865672" lon="2.233237">
        <ele>30.125550</ele>
        <time>2025-06-25T10:20:49.484Z</time>
      </trkpt>
      <trkpt lat="48.865962" lon="2.232592">
        <ele>30.469918</ele>
        <time>2025-06-25T10:20:59.907Z</time>
      </trkpt>
      <trkpt lat="48.866258" lon="2.231749">
        <ele>31.005664</ele>
        <time>2025-06-25T10:21:10.980Z</time>
      </trkpt>
      <trkpt lat="48.866370" lon="2.231378">
        <ele>31.234524</ele>
        <time>2025-06-25T10:21:15.803Z</time>
      </trkpt>
      <trkpt lat="48.866436" lon="2.231145">
        <ele>31.376752</ele>
        <time>2025-06-25T10:21:18.722Z</time>
      </trkpt>
      <trkpt lat="48.866504" lon="2.230901">
        <ele>31.525320</ele>
        <time>2025-06-25T10:21:21.731Z</time>
      </trkpt>
      <trkpt lat="48.867111" lon="2.228587">
        <ele>33.037969</ele>
        <time>2025-06-25T10:21:51.538Z</time>
      </trkpt>
      <trkpt lat="48.867218" lon="2.228372">
        <ele>33.204362</ele>
        <time>2025-06-25T10:21:55.362Z</time>
      </trkpt>
      <trkpt lat="48.867373" lon="2.227808">
        <ele>33.755235</ele>
        <time>2025-06-25T10:22:03.621Z</time>
      </trkpt>
      <trkpt lat="48.867404" lon="2.227682">
        <ele>33.956567</ele>
        <time>2025-06-25T10:22:05.210Z</time>
      </trkpt>
      <trkpt lat="48.867497" lon="2.227190">
        <ele>34.722701</ele>
        <time>2025-06-25T10:22:10.672Z</time>
      </trkpt>
      <trkpt lat="48.867545" lon="2.226838">
        <ele>35.260709</ele>
        <time>2025-06-25T10:22:15.237Z</time>
      </trkpt>
      <trkpt lat="48.867701" lon="2.226314">
        <ele>36.121512</ele>
        <time>2025-06-25T10:22:24.470Z</time>
      </trkpt>
      <trkpt lat="48.867838" lon="2.225904">
        <ele>36.809750</ele>
        <time>2025-06-25T10:22:33.424Z</time>
      </trkpt>
      <trkpt lat="48.868026" lon="2.225342">
        <ele>37.933637</ele>
        <time>2025-06-25T10:22:45.722Z</time>
      </trkpt>
      <trkpt lat="48.868067" lon="2.225220">
        <ele>38.322239</ele>
        <time>2025-06-25T10:22:48.378Z</time>
      </trkpt>
      <trkpt lat="48.868223" lon="2.224771">
        <ele>39.762569</ele>
        <time>2025-06-25T10:22:58.419Z</time>
      </trkpt>
      <trkpt lat="48.868453" lon="2.223942">
        <ele>42.314626</ele>
        <time>2025-06-25T10:23:20.037Z</time>
      </trkpt>
      <trkpt lat="48.868470" lon="2.223727">
        <ele>42.928861</ele>
        <time>2025-06-25T10:23:25.288Z</time>
      </trkpt>
      <trkpt lat="48.868462" lon="2.223528">
        <ele>43.494375</ele>
        <time>2025-06-25T10:23:30.022Z</time>
      </trkpt>
      <trkpt lat="48.868431" lon="2.223351">
        <ele>44.013925</ele>
        <time>2025-06-25T10:23:34.008Z</time>
      </trkpt>
      <trkpt lat="48.868362" lon="2.223119">
        <ele>44.736130</ele>
        <time>2025-06-25T10:23:38.876Z</time>
      </trkpt>
      <trkpt lat="48.868310" lon="2.222969">
        <ele>45.217075</ele>
        <time>2025-06-25T10:23:41.649Z</time>
      </trkpt>
      <trkpt lat="48.868295" lon="2.222919">
        <ele>45.354019</ele>
        <time>2025-06-25T10:23:42.533Z</time>
      </trkpt>
      <trkpt lat="48.868259" lon="2.222790">
        <ele>45.635616</ele>
        <time>2025-06-25T10:23:44.882Z</time>
      </trkpt>
      <trkpt lat="48.868094" lon="2.222403">
        <ele>46.562388</ele>
        <time>2025-06-25T10:23:52.998Z</time>
      </trkpt>
      <trkpt lat="48.867798" lon="2.221885">
        <ele>47.941268</ele>
        <time>2025-06-25T10:24:05.207Z</time>
      </trkpt>
      <trkpt lat="48.867706" lon="2.221761">
        <ele>48.316886</ele>
        <time>2025-06-25T10:24:08.570Z</time>
      </trkpt>
      <trkpt lat="48.867671" lon="2.221722">
        <ele>48.449458</ele>
        <time>2025-06-25T10:24:09.821Z</time>
      </trkpt>
      <trkpt lat="48.867588" lon="2.221615">
        <ele>48.781920</ele>
        <time>2025-06-25T10:24:12.702Z</time>
      </trkpt>
      <trkpt lat="48.867549" lon="2.221556">
        <ele>48.950007</ele>
        <time>2025-06-25T10:24:14.187Z</time>
      </trkpt>
      <trkpt lat="48.867300" lon="2.221360">
        <ele>49.806626</ele>
        <time>2025-06-25T10:24:21.367Z</time>
      </trkpt>
      <trkpt lat="48.867207" lon="2.221268">
        <ele>50.145599</ele>
        <time>2025-06-25T10:24:24.062Z</time>
      </trkpt>
      <trkpt lat="48.866696" lon="2.220898">
        <ele>51.846580</ele>
        <time>2025-06-25T10:24:38.601Z</time>
      </trkpt>
      <trkpt lat="48.866407" lon="2.220647">
        <ele>52.836697</ele>
        <time>2025-06-25T10:24:48.367Z</time>
      </trkpt>
      <trkpt lat="48.866139" lon="2.220350">
        <ele>53.823283</ele>
        <time>2025-06-25T10:24:57.420Z</time>
      </trkpt>
      <trkpt lat="48.865792" lon="2.219882">
        <ele>55.203217</ele>
        <time>2025-06-25T10:25:09.955Z</time>
      </trkpt>
      <trkpt lat="48.865568" lon="2.219615">
        <ele>56.049977</ele>
        <time>2025-06-25T10:25:17.545Z</time>
      </trkpt>
      <trkpt lat="48.865070" lon="2.219150">
        <ele>57.538564</ele>
        <time>2025-06-25T10:25:32.450Z</time>
      </trkpt>
      <trkpt lat="48.864818" lon="2.218973">
        <ele>58.238108</ele>
        <time>2025-06-25T10:25:38.635Z</time>
      </trkpt>
      <trkpt lat="48.864456" lon="2.218777">
        <ele>59.206475</ele>
        <time>2025-06-25T10:25:47.288Z</time>
      </trkpt>
      <trkpt lat="48.864028" lon="2.218620">
        <ele>60.315983</ele>
        <time>2025-06-25T10:25:57.609Z</time>
      </trkpt>
      <trkpt lat="48.863926" lon="2.218595">
        <ele>60.576340</ele>
        <time>2025-06-25T10:26:00.146Z</time>
      </trkpt>
      <trkpt lat="48.863254" lon="2.218462">
        <ele>63.423687</ele>
        <time>2025-06-25T10:26:20.414Z</time>
      </trkpt>
      <trkpt lat="48.863036" lon="2.218290">
        <ele>64.483998</ele>
        <time>2025-06-25T10:26:28.985Z</time>
      </trkpt>
      <trkpt lat="48.862858" lon="2.218033">
        <ele>65.543796</ele>
        <time>2025-06-25T10:26:37.411Z</time>
      </trkpt>
      <trkpt lat="48.862746" lon="2.217766">
        <ele>66.443097</ele>
        <time>2025-06-25T10:26:44.537Z</time>
      </trkpt>
      <trkpt lat="48.862725" lon="2.217689">
        <ele>66.679822</ele>
        <time>2025-06-25T10:26:46.360Z</time>
      </trkpt>
      <trkpt lat="48.862664" lon="2.217364">
        <ele>67.639642</ele>
        <time>2025-06-25T10:26:54.147Z</time>
      </trkpt>
      <trkpt lat="48.862622" lon="2.217145">
        <ele>68.287485</ele>
        <time>2025-06-25T10:26:59.408Z</time>
      </trkpt>
      <trkpt lat="48.862574" lon="2.216915">
        <ele>68.946178</ele>
        <time>2025-06-25T10:27:04.995Z</time>
      </trkpt>
      <trkpt lat="48.862514" lon="2.216714">
        <ele>69.541123</ele>
        <time>2025-06-25T10:27:10.107Z</time>
      </trkpt>
      <trkpt lat="48.862475" lon="2.216636">
        <ele>69.805198</ele>
        <time>2025-06-25T10:27:12.247Z</time>
      </trkpt>
      <trkpt lat="48.862342" lon="2.216439">
        <ele>70.566059</ele>
        <time>2025-06-25T10:27:18.589Z</time>
      </trkpt>
      <trkpt lat="48.860651" lon="2.215293">
        <ele>77.828885</ele>
        <time>2025-06-25T10:28:13.676Z</time>
      </trkpt>
      <trkpt lat="48.860088" lon="2.214858">
        <ele>80.058118</ele>
        <time>2025-06-25T10:28:30.388Z</time>
      </trkpt>
      <trkpt lat="48.859917" lon="2.214614">
        <ele>80.885986</ele>
        <time>2025-06-25T10:28:37.010Z</time>
      </trkpt>
      <trkpt lat="48.859759" lon="2.214288">
        <ele>81.826269</ele>
        <time>2025-06-25T10:28:45.115Z</time>
      </trkpt>
      <trkpt lat="48.859612" lon="2.213796">
        <ele>83.200314</ele>
        <time>2025-06-25T10:28:56.326Z</time>
      </trkpt>
      <trkpt lat="48.859577" lon="2.213668">
        <ele>83.564265</ele>
        <time>2025-06-25T10:28:59.273Z</time>
      </trkpt>
      <trkpt lat="48.859539" lon="2.213538">
        <ele>83.937770</ele>
        <time>2025-06-25T10:29:02.372Z</time>
      </trkpt>
      <trkpt lat="48.859501" lon="2.213401">
        <ele>84.328143</ele>
        <time>2025-06-25T10:29:05.622Z</time>
      </trkpt>
      <trkpt lat="48.859397" lon="2.213061">
        <ele>85.312628</ele>
        <time>2025-06-25T10:29:13.695Z</time>
      </trkpt>
      <trkpt lat="48.859349" lon="2.212904">
        <ele>85.767189</ele>
        <time>2025-06-25T10:29:17.385Z</time>
      </trkpt>
      <trkpt lat="48.859268" lon="2.212627">
        <ele>86.563096</ele>
        <time>2025-06-25T10:29:23.612Z</time>
      </trkpt>
      <trkpt lat="48.859225" lon="2.212494">
        <ele>86.952194</ele>
        <time>2025-06-25T10:29:26.726Z</time>
      </trkpt>
      <trkpt lat="48.859170" lon="2.212354">
        <ele>87.380333</ele>
        <time>2025-06-25T10:29:30.141Z</time>
      </trkpt>
      <trkpt lat="48.859042" lon="2.211893">
        <ele>88.694137</ele>
        <time>2025-06-25T10:29:40.727Z</time>
      </trkpt>
      <trkpt lat="48.859006" lon="2.211727">
        <ele>89.153065</ele>
        <time>2025-06-25T10:29:44.171Z</time>
      </trkpt>
      <trkpt lat="48.858977" lon="2.211639">
        <ele>89.383462</ele>
        <time>2025-06-25T10:29:46.046Z</time>
      </trkpt>
      <trkpt lat="48.858940" lon="2.211571">
        <ele>89.514726</ele>
        <time>2025-06-25T10:29:47.641Z</time>
      </trkpt>
      <trkpt lat="48.858897" lon="2.211496">
        <ele>89.662710</ele>
        <time>2025-06-25T10:29:49.421Z</time>
      </trkpt>
      <trkpt lat="48.858814" lon="2.211381">
        <ele>89.916642</ele>
        <time>2025-06-25T10:29:52.245Z</time>
      </trkpt>
      <trkpt lat="48.858589" lon="2.211198">
        <ele>90.493620</ele>
        <time>2025-06-25T10:29:58.394Z</time>
      </trkpt>
      <trkpt lat="48.858090" lon="2.210910">
        <ele>91.700458</ele>
        <time>2025-06-25T10:30:10.488Z</time>
      </trkpt>
      <trkpt lat="48.858062" lon="2.210714">
        <ele>91.998816</ele>
        <time>2025-06-25T10:30:13.332Z</time>
      </trkpt>
      <trkpt lat="48.857949" lon="2.210519">
        <ele>92.385365</ele>
        <time>2025-06-25T10:30:17.020Z</time>
      </trkpt>
      <trkpt lat="48.857792" lon="2.210389">
        <ele>92.789600</ele>
        <time>2025-06-25T10:30:20.998Z</time>
      </trkpt>
      <trkpt lat="48.856949" lon="2.209762">
        <ele>94.800002</ele>
        <time>2025-06-25T10:30:41.563Z</time>
      </trkpt>
      <trkpt lat="48.856855" lon="2.209665">
        <ele>95.037755</ele>
        <time>2025-06-25T10:30:44.156Z</time>
      </trkpt>
      <trkpt lat="48.855519" lon="2.208007">
        <ele>99.103921</ele>
        <time>2025-06-25T10:31:25.947Z</time>
      </trkpt>
      <trkpt lat="48.854475" lon="2.206703">
        <ele>103.243081</ele>
        <time>2025-06-25T10:32:01.389Z</time>
      </trkpt>
      <trkpt lat="48.854298" lon="2.206574">
        <ele>104.114314</ele>
        <time>2025-06-25T10:32:07.078Z</time>
      </trkpt>
      <trkpt lat="48.852899" lon="2.205842">
        <ele>110.897320</ele>
        <time>2025-06-25T10:32:57.452Z</time>
      </trkpt>
      <trkpt lat="48.852830" lon="2.205820">
        <ele>111.325457</ele>
        <time>2025-06-25T10:33:00.125Z</time>
      </trkpt>
      <trkpt lat="48.852160" lon="2.205630">
        <ele>115.464376</ele>
        <time>2025-06-25T10:33:27.392Z</time>
      </trkpt>
      <trkpt lat="48.852083" lon="2.205602">
        <ele>115.945171</ele>
        <time>2025-06-25T10:33:30.631Z</time>
      </trkpt>
      <trkpt lat="48.851961" lon="2.205509">
        <ele>116.774014</ele>
        <time>2025-06-25T10:33:36.240Z</time>
      </trkpt>
      <trkpt lat="48.851830" lon="2.205478">
        <ele>117.579121</ele>
        <time>2025-06-25T10:33:41.719Z</time>
      </trkpt>
      <trkpt lat="48.851717" lon="2.205346">
        <ele>118.444625</ele>
        <time>2025-06-25T10:33:47.588Z</time>
      </trkpt>
      <trkpt lat="48.851256" lon="2.205101">
        <ele>121.355940</ele>
        <time>2025-06-25T10:34:07.168Z</time>
      </trkpt>
      <trkpt lat="48.851035" lon="2.204928">
        <ele>122.656826</ele>
        <time>2025-06-25T10:34:16.884Z</time>
      </trkpt>
      <trkpt lat="48.850943" lon="2.204811">
        <ele>123.284586</ele>
        <time>2025-06-25T10:34:21.586Z</time>
      </trkpt>
      <trkpt lat="48.850752" lon="2.204383">
        <ele>125.065309</ele>
        <time>2025-06-25T10:34:34.854Z</time>
      </trkpt>
      <trkpt lat="48.850643" lon="2.204245">
        <ele>125.807704</ele>
        <time>2025-06-25T10:34:39.997Z</time>
      </trkpt>
      <trkpt lat="48.850360" lon="2.203743">
        <ele>128.083918</ele>
        <time>2025-06-25T10:34:54.664Z</time>
      </trkpt>
      <trkpt lat="48.850099" lon="2.203088">
        <ele>130.565086</ele>
        <time>2025-06-25T10:35:10.810Z</time>
      </trkpt>
      <trkpt lat="48.850001" lon="2.202875">
        <ele>130.982784</ele>
        <time>2025-06-25T10:35:16.202Z</time>
      </trkpt>
      <trkpt lat="48.849754" lon="2.202300">
        <ele>132.086367</ele>
        <time>2025-06-25T10:35:29.588Z</time>
      </trkpt>
      <trkpt lat="48.849436" lon="2.201621">
        <ele>133.425787</ele>
        <time>2025-06-25T10:35:43.009Z</time>
      </trkpt>
      <trkpt lat="48.849297" lon="2.201406">
        <ele>133.910191</ele>
        <time>2025-06-25T10:35:47.323Z</time>
      </trkpt>
      <trkpt lat="48.849009" lon="2.201078">
        <ele>134.789197</ele>
        <time>2025-06-25T10:35:54.689Z</time>
      </trkpt>
      <trkpt lat="48.848948" lon="2.200985">
        <ele>134.726831</ele>
        <time>2025-06-25T10:35:56.350Z</time>
      </trkpt>
      <trkpt lat="48.848114" lon="2.199449">
        <ele>133.022802</ele>
        <time>2025-06-25T10:36:12.290Z</time>
      </trkpt>
      <trkpt lat="48.847941" lon="2.199019">
        <ele>132.591522</ele>
        <time>2025-06-25T10:36:15.685Z</time>
      </trkpt>
      <trkpt lat="48.847832" lon="2.198742">
        <ele>132.078164</ele>
        <time>2025-06-25T10:36:17.809Z</time>
      </trkpt>
      <trkpt lat="48.847519" lon="2.198093">
        <ele>130.415147</ele>
        <time>2025-06-25T10:36:22.998Z</time>
      </trkpt>
      <trkpt lat="48.847483" lon="2.198021">
        <ele>130.228255</ele>
        <time>2025-06-25T10:36:23.569Z</time>
      </trkpt>
      <trkpt lat="48.847363" lon="2.197853">
        <ele>129.715800</ele>
        <time>2025-06-25T10:36:25.154Z</time>
      </trkpt>
      <trkpt lat="48.847351" lon="2.197679">
        <ele>129.354204</ele>
        <time>2025-06-25T10:36:26.281Z</time>
      </trkpt>
      <trkpt lat="48.847215" lon="2.197234">
        <ele>128.340122</ele>
        <time>2025-06-25T10:36:29.506Z</time>
      </trkpt>
      <trkpt lat="48.847201" lon="2.197183">
        <ele>128.225911</ele>
        <time>2025-06-25T10:36:29.881Z</time>
      </trkpt>
      <trkpt lat="48.847143" lon="2.196943">
        <ele>127.697482</ele>
        <time>2025-06-25T10:36:31.617Z</time>
      </trkpt>
      <trkpt lat="48.847110" lon="2.196815">
        <ele>127.413350</ele>
        <time>2025-06-25T10:36:32.555Z</time>
      </trkpt>
      <trkpt lat="48.847005" lon="2.196397">
        <ele>126.697819</ele>
        <time>2025-06-25T10:36:35.765Z</time>
      </trkpt>
      <trkpt lat="48.846978" lon="2.196254">
        <ele>126.576659</ele>
        <time>2025-06-25T10:36:36.925Z</time>
      </trkpt>
      <trkpt lat="48.846962" lon="2.196179">
        <ele>126.512449</ele>
        <time>2025-06-25T10:36:37.527Z</time>
      </trkpt>
      <trkpt lat="48.846885" lon="2.195418">
        <ele>125.885399</ele>
        <time>2025-06-25T10:36:43.979Z</time>
      </trkpt>
      <trkpt lat="48.846880" lon="2.195218">
        <ele>125.722399</ele>
        <time>2025-06-25T10:36:45.755Z</time>
      </trkpt>
      <trkpt lat="48.846886" lon="2.195093">
        <ele>125.620327</ele>
        <time>2025-06-25T10:36:46.943Z</time>
      </trkpt>
      <trkpt lat="48.846901" lon="2.194899">
        <ele>125.461244</ele>
        <time>2025-06-25T10:36:48.648Z</time>
      </trkpt>
      <trkpt lat="48.846933" lon="2.194678">
        <ele>125.276954</ele>
        <time>2025-06-25T10:36:50.533Z</time>
      </trkpt>
      <trkpt lat="48.846966" lon="2.194450">
        <ele>125.086830</ele>
        <time>2025-06-25T10:36:52.392Z</time>
      </trkpt>
      <trkpt lat="48.846967" lon="2.194226">
        <ele>124.904398</ele>
        <time>2025-06-25T10:36:54.104Z</time>
      </trkpt>
      <trkpt lat="48.846951" lon="2.193995">
        <ele>124.715229</ele>
        <time>2025-06-25T10:36:55.843Z</time>
      </trkpt>
      <trkpt lat="48.846886" lon="2.193748">
        <ele>124.588483</ele>
        <time>2025-06-25T10:36:57.784Z</time>
      </trkpt>
      <trkpt lat="48.846826" lon="2.193516">
        <ele>124.552408</ele>
        <time>2025-06-25T10:36:59.620Z</time>
      </trkpt>
      <trkpt lat="48.846633" lon="2.192773">
        <ele>124.436806</ele>
        <time>2025-06-25T10:37:05.685Z</time>
      </trkpt>
      <trkpt lat="48.846476" lon="2.192193">
        <ele>124.346043</ele>
        <time>2025-06-25T10:37:11.002Z</time>
      </trkpt>
      <trkpt lat="48.846123" lon="2.190560">
        <ele>125.418470</ele>
        <time>2025-06-25T10:37:34.689Z</time>
      </trkpt>
      <trkpt lat="48.846019" lon="2.190045">
        <ele>126.235627</ele>
        <time>2025-06-25T10:37:44.145Z</time>
      </trkpt>
      <trkpt lat="48.845867" lon="2.189268">
        <ele>127.465234</ele>
        <time>2025-06-25T10:37:58.320Z</time>
      </trkpt>
      <trkpt lat="48.845772" lon="2.188909">
        <ele>128.052181</ele>
        <time>2025-06-25T10:38:05.178Z</time>
      </trkpt>
      <trkpt lat="48.845656" lon="2.188443">
        <ele>128.329561</ele>
        <time>2025-06-25T10:38:13.319Z</time>
      </trkpt>
      <trkpt lat="48.845666" lon="2.188360">
        <ele>128.321388</ele>
        <time>2025-06-25T10:38:14.560Z</time>
      </trkpt>
      <trkpt lat="48.845788" lon="2.188098">
        <ele>128.290301</ele>
        <time>2025-06-25T10:38:18.911Z</time>
      </trkpt>
      <trkpt lat="48.845876" lon="2.187818">
        <ele>128.260246</ele>
        <time>2025-06-25T10:38:22.732Z</time>
      </trkpt>
      <trkpt lat="48.845874" lon="2.187624">
        <ele>128.241453</ele>
        <time>2025-06-25T10:38:24.817Z</time>
      </trkpt>
      <trkpt lat="48.845845" lon="2.187531">
        <ele>128.231485</ele>
        <time>2025-06-25T10:38:25.912Z</time>
      </trkpt>
      <trkpt lat="48.845728" lon="2.187390">
        <ele>128.209506</ele>
        <time>2025-06-25T10:38:28.110Z</time>
      </trkpt>
      <trkpt lat="48.845013" lon="2.186727">
        <ele>127.987823</ele>
        <time>2025-06-25T10:38:37.641Z</time>
      </trkpt>
      <trkpt lat="48.844924" lon="2.186796">
        <ele>127.775439</ele>
        <time>2025-06-25T10:38:38.652Z</time>
      </trkpt>
      <trkpt lat="48.844837" lon="2.186931">
        <ele>127.511122</ele>
        <time>2025-06-25T10:38:39.890Z</time>
      </trkpt>
      <trkpt lat="48.844809" lon="2.186967">
        <ele>127.433157</ele>
        <time>2025-06-25T10:38:40.247Z</time>
      </trkpt>
      <trkpt lat="48.844696" lon="2.186940">
        <ele>127.190007</ele>
        <time>2025-06-25T10:38:41.353Z</time>
      </trkpt>
      <trkpt lat="48.844612" lon="2.186820">
        <ele>126.944933</ele>
        <time>2025-06-25T10:38:42.480Z</time>
      </trkpt>
      <trkpt lat="48.844580" lon="2.186641">
        <ele>126.685457</ele>
        <time>2025-06-25T10:38:43.684Z</time>
      </trkpt>
      <trkpt lat="48.844292" lon="2.185730">
        <ele>125.271645</ele>
        <time>2025-06-25T10:38:50.645Z</time>
      </trkpt>
      <trkpt lat="48.844217" lon="2.185588">
        <ele>125.016938</ele>
        <time>2025-06-25T10:38:52.047Z</time>
      </trkpt>
      <trkpt lat="48.844129" lon="2.185429">
        <ele>124.726311</ele>
        <time>2025-06-25T10:38:53.696Z</time>
      </trkpt>
      <trkpt lat="48.844023" lon="2.185257">
        <ele>124.396671</ele>
        <time>2025-06-25T10:38:55.665Z</time>
      </trkpt>
      <trkpt lat="48.843680" lon="2.184951">
        <ele>124.761211</ele>
        <time>2025-06-25T10:39:01.405Z</time>
      </trkpt>
      <trkpt lat="48.843390" lon="2.184683">
        <ele>125.253819</ele>
        <time>2025-06-25T10:39:07.837Z</time>
      </trkpt>
      <trkpt lat="48.842973" lon="2.184215">
        <ele>126.006200</ele>
        <time>2025-06-25T10:39:19.928Z</time>
      </trkpt>
      <trkpt lat="48.842908" lon="2.184138">
        <ele>126.125816</ele>
        <time>2025-06-25T10:39:21.962Z</time>
      </trkpt>
      <trkpt lat="48.842506" lon="2.183653">
        <ele>126.870789</ele>
        <time>2025-06-25T10:39:35.055Z</time>
      </trkpt>
      <trkpt lat="48.842348" lon="2.183459">
        <ele>127.287093</ele>
        <time>2025-06-25T10:39:40.055Z</time>
      </trkpt>
      <trkpt lat="48.842219" lon="2.183296">
        <ele>127.634399</ele>
        <time>2025-06-25T10:39:44.062Z</time>
      </trkpt>
      <trkpt lat="48.841845" lon="2.182774">
        <ele>128.685650</ele>
        <time>2025-06-25T10:39:56.894Z</time>
      </trkpt>
      <trkpt lat="48.841654" lon="2.182441">
        <ele>129.287434</ele>
        <time>2025-06-25T10:40:03.888Z</time>
      </trkpt>
      <trkpt lat="48.841453" lon="2.182095">
        <ele>129.916184</ele>
        <time>2025-06-25T10:40:10.749Z</time>
      </trkpt>
      <trkpt lat="48.841285" lon="2.181899">
        <ele>130.354643</ele>
        <time>2025-06-25T10:40:15.357Z</time>
      </trkpt>
      <trkpt lat="48.841098" lon="2.181676">
        <ele>130.467329</ele>
        <time>2025-06-25T10:40:20.089Z</time>
      </trkpt>
      <trkpt lat="48.840612" lon="2.181210">
        <ele>129.798085</ele>
        <time>2025-06-25T10:40:29.227Z</time>
      </trkpt>
      <trkpt lat="48.840509" lon="2.181182">
        <ele>129.676233</ele>
        <time>2025-06-25T10:40:30.660Z</time>
      </trkpt>
      <trkpt lat="48.840098" lon="2.180767">
        <ele>129.101551</ele>
        <time>2025-06-25T10:40:36.425Z</time>
      </trkpt>
      <trkpt lat="48.839557" lon="2.180061">
        <ele>127.805667</ele>
        <time>2025-06-25T10:40:43.572Z</time>
      </trkpt>
      <trkpt lat="48.839189" lon="2.179561">
        <ele>126.107890</ele>
        <time>2025-06-25T10:40:48.313Z</time>
      </trkpt>
      <trkpt lat="48.838294" lon="2.178588">
        <ele>122.323851</ele>
        <time>2025-06-25T10:40:59.194Z</time>
      </trkpt>
      <trkpt lat="48.838202" lon="2.178540">
        <ele>122.369505</ele>
        <time>2025-06-25T10:41:00.271Z</time>
      </trkpt>
      <trkpt lat="48.838198" lon="2.178314">
        <ele>122.439344</ele>
        <time>2025-06-25T10:41:01.992Z</time>
      </trkpt>
      <trkpt lat="48.838090" lon="2.178322">
        <ele>122.490092</ele>
        <time>2025-06-25T10:41:03.854Z</time>
      </trkpt>
      <trkpt lat="48.838076" lon="2.177903">
        <ele>122.619693</ele>
        <time>2025-06-25T10:41:07.545Z</time>
      </trkpt>
      <trkpt lat="48.838085" lon="2.177573">
        <ele>122.721721</ele>
        <time>2025-06-25T10:41:11.134Z</time>
      </trkpt>
      <trkpt lat="48.838063" lon="2.176376">
        <ele>123.091633</ele>
        <time>2025-06-25T10:41:29.290Z</time>
      </trkpt>
      <trkpt lat="48.838171" lon="2.174982">
        <ele>124.131374</ele>
        <time>2025-06-25T10:41:50.866Z</time>
      </trkpt>
      <trkpt lat="48.838170" lon="2.174642">
        <ele>124.414591</ele>
        <time>2025-06-25T10:41:55.568Z</time>
      </trkpt>
      <trkpt lat="48.838183" lon="2.174396">
        <ele>124.620164</ele>
        <time>2025-06-25T10:41:58.822Z</time>
      </trkpt>
      <trkpt lat="48.838357" lon="2.171957">
        <ele>126.434533</ele>
        <time>2025-06-25T10:42:24.220Z</time>
      </trkpt>
      <trkpt lat="48.838349" lon="2.171654">
        <ele>126.639660</ele>
        <time>2025-06-25T10:42:27.950Z</time>
      </trkpt>
      <trkpt lat="48.838296" lon="2.171133">
        <ele>126.996270</ele>
        <time>2025-06-25T10:42:35.538Z</time>
      </trkpt>
      <trkpt lat="48.838211" lon="2.170638">
        <ele>127.330807</ele>
        <time>2025-06-25T10:42:44.192Z</time>
      </trkpt>
      <trkpt lat="48.838194" lon="2.170540">
        <ele>127.383435</ele>
        <time>2025-06-25T10:42:46.056Z</time>
      </trkpt>
      <trkpt lat="48.838174" lon="2.170423">
        <ele>127.446209</ele>
        <time>2025-06-25T10:42:48.103Z</time>
      </trkpt>
      <trkpt lat="48.837995" lon="2.169372">
        <ele>128.009965</ele>
        <time>2025-06-25T10:43:03.778Z</time>
      </trkpt>
      <trkpt lat="48.837937" lon="2.169197">
        <ele>128.111713</ele>
        <time>2025-06-25T10:43:05.990Z</time>
      </trkpt>
      <trkpt lat="48.837896" lon="2.168954">
        <ele>128.241983</ele>
        <time>2025-06-25T10:43:08.497Z</time>
      </trkpt>
      <trkpt lat="48.837845" lon="2.169046">
        <ele>128.304446</ele>
        <time>2025-06-25T10:43:09.583Z</time>
      </trkpt>
      <trkpt lat="48.837759" lon="2.169141">
        <ele>128.388337</ele>
        <time>2025-06-25T10:43:11.097Z</time>
      </trkpt>
      <trkpt lat="48.837713" lon="2.169182">
        <ele>128.430414</ele>
        <time>2025-06-25T10:43:11.823Z</time>
      </trkpt>
      <trkpt lat="48.836873" lon="2.169522">
        <ele>129.136377</ele>
        <time>2025-06-25T10:43:22.193Z</time>
      </trkpt>
      <trkpt lat="48.835998" lon="2.169875">
        <ele>129.886168</ele>
        <time>2025-06-25T10:43:37.080Z</time>
      </trkpt>
      <trkpt lat="48.835432" lon="2.170099">
        <ele>130.922767</ele>
        <time>2025-06-25T10:43:54.350Z</time>
      </trkpt>
      <trkpt lat="48.835143" lon="2.170215">
        <ele>131.978869</ele>
        <time>2025-06-25T10:44:03.846Z</time>
      </trkpt>
      <trkpt lat="48.835092" lon="2.170234">
        <ele>132.164395</ele>
        <time>2025-06-25T10:44:05.525Z</time>
      </trkpt>
      <trkpt lat="48.834853" lon="2.170334">
        <ele>133.040246</ele>
        <time>2025-06-25T10:44:13.474Z</time>
      </trkpt>
      <trkpt lat="48.834788" lon="2.170357">
        <ele>133.276045</ele>
        <time>2025-06-25T10:44:15.666Z</time>
      </trkpt>
      <trkpt lat="48.834633" lon="2.170424">
        <ele>133.845411</ele>
        <time>2025-06-25T10:44:20.741Z</time>
      </trkpt>
      <trkpt lat="48.834389" lon="2.170515">
        <ele>134.733084</ele>
        <time>2025-06-25T10:44:28.487Z</time>
      </trkpt>
      <trkpt lat="48.834293" lon="2.170552">
        <ele>135.083007</ele>
        <time>2025-06-25T10:44:31.491Z</time>
      </trkpt>
      <trkpt lat="48.832133" lon="2.171427">
        <ele>140.895068</ele>
        <time>2025-06-25T10:45:28.333Z</time>
      </trkpt>
      <trkpt lat="48.832048" lon="2.171475">
        <ele>140.896808</ele>
        <time>2025-06-25T10:45:29.967Z</time>
      </trkpt>
      <trkpt lat="48.831955" lon="2.171574">
        <ele>140.898987</ele>
        <time>2025-06-25T10:45:31.889Z</time>
      </trkpt>
      <trkpt lat="48.831870" lon="2.171736">
        <ele>140.901603</ele>
        <time>2025-06-25T10:45:34.061Z</time>
      </trkpt>
      <trkpt lat="48.831790" lon="2.172152">
        <ele>140.907077</ele>
        <time>2025-06-25T10:45:38.101Z</time>
      </trkpt>
      <trkpt lat="48.831553" lon="2.174026">
        <ele>141.204698</ele>
        <time>2025-06-25T10:45:53.744Z</time>
      </trkpt>
      <trkpt lat="48.831551" lon="2.174031">
        <ele>141.214974</ele>
        <time>2025-06-25T10:45:53.802Z</time>
      </trkpt>
      <trkpt lat="48.831522" lon="2.174130">
        <ele>141.405288</ele>
        <time>2025-06-25T10:45:54.956Z</time>
      </trkpt>
      <trkpt lat="48.831418" lon="2.174284">
        <ele>141.792780</ele>
        <time>2025-06-25T10:45:57.477Z</time>
      </trkpt>
      <trkpt lat="48.831347" lon="2.174325">
        <ele>141.995437</ele>
        <time>2025-06-25T10:45:58.862Z</time>
      </trkpt>
      <trkpt lat="48.831012" lon="2.174389">
        <ele>142.896277</ele>
        <time>2025-06-25T10:46:05.909Z</time>
      </trkpt>
      <trkpt lat="48.830055" lon="2.174515">
        <ele>145.459182</ele>
        <time>2025-06-25T10:46:34.345Z</time>
      </trkpt>
      <trkpt lat="48.829964" lon="2.174368">
        <ele>145.905738</ele>
        <time>2025-06-25T10:46:39.285Z</time>
      </trkpt>
      <trkpt lat="48.829860" lon="2.174333">
        <ele>146.496188</ele>
        <time>2025-06-25T10:46:43.348Z</time>
      </trkpt>
      <trkpt lat="48.829603" lon="2.174399">
        <ele>147.940956</ele>
        <time>2025-06-25T10:46:53.662Z</time>
      </trkpt>
      <trkpt lat="48.828387" lon="2.174875">
        <ele>154.901459</ele>
        <time>2025-06-25T10:47:43.198Z</time>
      </trkpt>
      <trkpt lat="48.828274" lon="2.174919">
        <ele>155.548070</ele>
        <time>2025-06-25T10:47:47.283Z</time>
      </trkpt>
      <trkpt lat="48.827866" lon="2.175078">
        <ele>156.815875</ele>
        <time>2025-06-25T10:48:00.734Z</time>
      </trkpt>
      <trkpt lat="48.827736" lon="2.175126">
        <ele>157.195301</ele>
        <time>2025-06-25T10:48:04.645Z</time>
      </trkpt>
      <trkpt lat="48.827380" lon="2.174839">
        <ele>158.338330</ele>
        <time>2025-06-25T10:48:15.196Z</time>
      </trkpt>
      <trkpt lat="48.826957" lon="2.174505">
        <ele>159.690392</ele>
        <time>2025-06-25T10:48:25.757Z</time>
      </trkpt>
      <trkpt lat="48.826861" lon="2.174427">
        <ele>159.999158</ele>
        <time>2025-06-25T10:48:28.115Z</time>
      </trkpt>
      <trkpt lat="48.824590" lon="2.172589">
        <ele>163.267221</ele>
        <time>2025-06-25T10:49:19.562Z</time>
      </trkpt>
      <trkpt lat="48.824378" lon="2.172313">
        <ele>163.357772</ele>
        <time>2025-06-25T10:49:23.582Z</time>
      </trkpt>
      <trkpt lat="48.824220" lon="2.172033">
        <ele>163.436510</ele>
        <time>2025-06-25T10:49:26.988Z</time>
      </trkpt>
      <trkpt lat="48.823986" lon="2.171470">
        <ele>163.578667</ele>
        <time>2025-06-25T10:49:32.996Z</time>
      </trkpt>
      <trkpt lat="48.823943" lon="2.171206">
        <ele>163.636734</ele>
        <time>2025-06-25T10:49:35.424Z</time>
      </trkpt>
      <trkpt lat="48.823352" lon="2.167034">
        <ele>164.481747</ele>
        <time>2025-06-25T10:50:21.949Z</time>
      </trkpt>
      <trkpt lat="48.823246" lon="2.165876">
        <ele>164.612155</ele>
        <time>2025-06-25T10:50:32.381Z</time>
      </trkpt>
      <trkpt lat="48.823131" lon="2.164824">
        <ele>165.757198</ele>
        <time>2025-06-25T10:50:43.926Z</time>
      </trkpt>
      <trkpt lat="48.823156" lon="2.164343">
        <ele>166.440885</ele>
        <time>2025-06-25T10:50:50.693Z</time>
      </trkpt>
      <trkpt lat="48.823530" lon="2.162635">
        <ele>169.217440</ele>
        <time>2025-06-25T10:51:24.194Z</time>
      </trkpt>
      <trkpt lat="48.823603" lon="2.162411">
        <ele>169.739428</ele>
        <time>2025-06-25T10:51:29.152Z</time>
      </trkpt>
      <trkpt lat="48.823656" lon="2.162144">
        <ele>170.321837</ele>
        <time>2025-06-25T10:51:34.572Z</time>
      </trkpt>
      <trkpt lat="48.823709" lon="2.162111">
        <ele>170.503537</ele>
        <time>2025-06-25T10:51:36.305Z</time>
      </trkpt>
      <trkpt lat="48.823692" lon="2.161804">
        <ele>171.146955</ele>
        <time>2025-06-25T10:51:42.132Z</time>
      </trkpt>
      <trkpt lat="48.823607" lon="2.161461">
        <ele>171.912357</ele>
        <time>2025-06-25T10:51:48.981Z</time>
      </trkpt>
      <trkpt lat="48.823445" lon="2.160809">
        <ele>173.367771</ele>
        <time>2025-06-25T10:52:01.632Z</time>
      </trkpt>
      <trkpt lat="48.823172" lon="2.160097">
        <ele>174.497594</ele>
        <time>2025-06-25T10:52:14.860Z</time>
      </trkpt>
      <trkpt lat="48.822887" lon="2.159467">
        <ele>175.007850</ele>
        <time>2025-06-25T10:52:26.104Z</time>
      </trkpt>
      <trkpt lat="48.822476" lon="2.158823">
        <ele>175.606567</ele>
        <time>2025-06-25T10:52:36.939Z</time>
      </trkpt>
      <trkpt lat="48.822356" lon="2.158464">
        <ele>175.875333</ele>
        <time>2025-06-25T10:52:40.710Z</time>
      </trkpt>
      <trkpt lat="48.822229" lon="2.157966">
        <ele>175.771872</ele>
        <time>2025-06-25T10:52:45.080Z</time>
      </trkpt>
      <trkpt lat="48.822178" lon="2.157596">
        <ele>175.407539</ele>
        <time>2025-06-25T10:52:47.983Z</time>
      </trkpt>
      <trkpt lat="48.822148" lon="2.157353">
        <ele>175.169256</ele>
        <time>2025-06-25T10:52:49.827Z</time>
      </trkpt>
      <trkpt lat="48.822116" lon="2.157099">
        <ele>174.920012</ele>
        <time>2025-06-25T10:52:51.729Z</time>
      </trkpt>
      <trkpt lat="48.821918" lon="2.155238">
        <ele>173.110688</ele>
        <time>2025-06-25T10:53:05.612Z</time>
      </trkpt>
      <trkpt lat="48.821757" lon="2.153721">
        <ele>171.666144</ele>
        <time>2025-06-25T10:53:17.292Z</time>
      </trkpt>
      <trkpt lat="48.821720" lon="2.153529">
        <ele>171.478071</ele>
        <time>2025-06-25T10:53:18.800Z</time>
      </trkpt>
      <trkpt lat="48.821571" lon="2.153088">
        <ele>171.012083</ele>
        <time>2025-06-25T10:53:22.572Z</time>
      </trkpt>
      <trkpt lat="48.821214" lon="2.152400">
        <ele>171.145986</ele>
        <time>2025-06-25T10:53:29.698Z</time>
      </trkpt>
      <trkpt lat="48.820980" lon="2.152097">
        <ele>171.349756</ele>
        <time>2025-06-25T10:53:34.065Z</time>
      </trkpt>
      <trkpt lat="48.820616" lon="2.151821">
        <ele>171.619358</ele>
        <time>2025-06-25T10:53:41.096Z</time>
      </trkpt>
      <trkpt lat="48.820076" lon="2.151368">
        <ele>172.028157</ele>
        <time>2025-06-25T10:53:54.922Z</time>
      </trkpt>
      <trkpt lat="48.819725" lon="2.151041">
        <ele>172.712624</ele>
        <time>2025-06-25T10:54:06.573Z</time>
      </trkpt>
      <trkpt lat="48.819579" lon="2.150941">
        <ele>172.982599</ele>
        <time>2025-06-25T10:54:11.193Z</time>
      </trkpt>
      <trkpt lat="48.819163" lon="2.150879">
        <ele>173.687199</ele>
        <time>2025-06-25T10:54:22.269Z</time>
      </trkpt>
      <trkpt lat="48.819125" lon="2.150824">
        <ele>173.775683</ele>
        <time>2025-06-25T10:54:23.512Z</time>
      </trkpt>
      <trkpt lat="48.819120" lon="2.150686">
        <ele>173.929081</ele>
        <time>2025-06-25T10:54:25.594Z</time>
      </trkpt>
      <trkpt lat="48.819156" lon="2.150560">
        <ele>174.081527</ele>
        <time>2025-06-25T10:54:27.578Z</time>
      </trkpt>
      <trkpt lat="48.819180" lon="2.150372">
        <ele>174.294073</ele>
        <time>2025-06-25T10:54:30.146Z</time>
      </trkpt>
      <trkpt lat="48.819192" lon="2.150258">
        <ele>174.422208</ele>
        <time>2025-06-25T10:54:31.632Z</time>
      </trkpt>
      <trkpt lat="48.819098" lon="2.150106">
        <ele>174.653656</ele>
        <time>2025-06-25T10:54:34.098Z</time>
      </trkpt>
      <trkpt lat="48.818983" lon="2.150094">
        <ele>174.847963</ele>
        <time>2025-06-25T10:54:36.018Z</time>
      </trkpt>
      <trkpt lat="48.818993" lon="2.149963">
        <ele>174.994334</ele>
        <time>2025-06-25T10:54:37.301Z</time>
      </trkpt>
      <trkpt lat="48.819012" lon="2.149750">
        <ele>174.640917</ele>
        <time>2025-06-25T10:54:39.235Z</time>
      </trkpt>
      <trkpt lat="48.819039" lon="2.149475">
        <ele>173.853036</ele>
        <time>2025-06-25T10:54:41.427Z</time>
      </trkpt>
      <trkpt lat="48.819089" lon="2.148934">
        <ele>172.304981</ele>
        <time>2025-06-25T10:54:45.066Z</time>
      </trkpt>
      <trkpt lat="48.819067" lon="2.148461">
        <ele>170.961306</ele>
        <time>2025-06-25T10:54:47.985Z</time>
      </trkpt>
      <trkpt lat="48.818975" lon="2.148093">
        <ele>169.845872</ele>
        <time>2025-06-25T10:54:50.329Z</time>
      </trkpt>
      <trkpt lat="48.818881" lon="2.147854">
        <ele>169.056994</ele>
        <time>2025-06-25T10:54:51.977Z</time>
      </trkpt>
      <trkpt lat="48.818676" lon="2.147526">
        <ele>167.775492</ele>
        <time>2025-06-25T10:54:54.678Z</time>
      </trkpt>
      <trkpt lat="48.818432" lon="2.147311">
        <ele>166.706307</ele>
        <time>2025-06-25T10:54:57.268Z</time>
      </trkpt>
      <trkpt lat="48.818316" lon="2.147237">
        <ele>166.267476</ele>
        <time>2025-06-25T10:54:58.434Z</time>
      </trkpt>
      <trkpt lat="48.818115" lon="2.147185">
        <ele>165.556324</ele>
        <time>2025-06-25T10:55:00.349Z</time>
      </trkpt>
      <trkpt lat="48.818011" lon="2.147191">
        <ele>165.193328</ele>
        <time>2025-06-25T10:55:01.340Z</time>
      </trkpt>
      <trkpt lat="48.817826" lon="2.147277">
        <ele>164.518529</ele>
        <time>2025-06-25T10:55:03.222Z</time>
      </trkpt>
      <trkpt lat="48.817677" lon="2.147433">
        <ele>163.887317</ele>
        <time>2025-06-25T10:55:05.089Z</time>
      </trkpt>
      <trkpt lat="48.817381" lon="2.148110">
        <ele>162.020977</ele>
        <time>2025-06-25T10:55:11.312Z</time>
      </trkpt>
      <trkpt lat="48.817317" lon="2.148207">
        <ele>161.705613</ele>
        <time>2025-06-25T10:55:12.459Z</time>
      </trkpt>
      <trkpt lat="48.817125" lon="2.148351">
        <ele>160.906270</ele>
        <time>2025-06-25T10:55:15.014Z</time>
      </trkpt>
      <trkpt lat="48.816900" lon="2.148388">
        <ele>159.673786</ele>
        <time>2025-06-25T10:55:17.483Z</time>
      </trkpt>
      <trkpt lat="48.816805" lon="2.148366">
        <ele>159.150448</ele>
        <time>2025-06-25T10:55:18.474Z</time>
      </trkpt>
      <trkpt lat="48.816520" lon="2.148209">
        <ele>157.499420</ele>
        <time>2025-06-25T10:55:21.461Z</time>
      </trkpt>
      <trkpt lat="48.816446" lon="2.148132">
        <ele>157.010906</ele>
        <time>2025-06-25T10:55:22.321Z</time>
      </trkpt>
      <trkpt lat="48.816333" lon="2.147932">
        <ele>156.065885</ele>
        <time>2025-06-25T10:55:23.934Z</time>
      </trkpt>
      <trkpt lat="48.815857" lon="2.146627">
        <ele>150.626275</ele>
        <time>2025-06-25T10:55:32.664Z</time>
      </trkpt>
      <trkpt lat="48.815675" lon="2.146112">
        <ele>148.181928</ele>
        <time>2025-06-25T10:55:36.036Z</time>
      </trkpt>
      <trkpt lat="48.815529" lon="2.145683">
        <ele>146.162356</ele>
        <time>2025-06-25T10:55:38.867Z</time>
      </trkpt>
      <trkpt lat="48.815333" lon="2.145158">
        <ele>143.638421</ele>
        <time>2025-06-25T10:55:42.476Z</time>
      </trkpt>
      <trkpt lat="48.814642" lon="2.143200">
        <ele>136.725731</ele>
        <time>2025-06-25T10:55:56.550Z</time>
      </trkpt>
      <trkpt lat="48.814586" lon="2.143041">
        <ele>136.298495</ele>
        <time>2025-06-25T10:55:57.754Z</time>
      </trkpt>
      <trkpt lat="48.814522" lon="2.142864">
        <ele>135.820045</ele>
        <time>2025-06-25T10:55:59.110Z</time>
      </trkpt>
      <trkpt lat="48.814011" lon="2.141451">
        <ele>132.561413</ele>
        <time>2025-06-25T10:56:10.204Z</time>
      </trkpt>
      <trkpt lat="48.813902" lon="2.141133">
        <ele>132.062011</ele>
        <time>2025-06-25T10:56:12.696Z</time>
      </trkpt>
      <trkpt lat="48.813890" lon="2.141097">
        <ele>132.005803</ele>
        <time>2025-06-25T10:56:12.982Z</time>
      </trkpt>
      <trkpt lat="48.813827" lon="2.140904">
        <ele>131.705729</ele>
        <time>2025-06-25T10:56:14.498Z</time>
      </trkpt>
      <trkpt lat="48.813795" lon="2.140819">
        <ele>131.569336</ele>
        <time>2025-06-25T10:56:15.193Z</time>
      </trkpt>
      <trkpt lat="48.813391" lon="2.139711">
        <ele>129.805035</ele>
        <time>2025-06-25T10:56:24.408Z</time>
      </trkpt>
      <trkpt lat="48.813357" lon="2.139532">
        <ele>129.551113</ele>
        <time>2025-06-25T10:56:25.785Z</time>
      </trkpt>
      <trkpt lat="48.813359" lon="2.139397">
        <ele>129.455509</ele>
        <time>2025-06-25T10:56:26.801Z</time>
      </trkpt>
      <trkpt lat="48.813598" lon="2.136662">
        <ele>127.509842</ele>
        <time>2025-06-25T10:56:49.194Z</time>
      </trkpt>
      <trkpt lat="48.813617" lon="2.136486">
        <ele>127.391591</ele>
        <time>2025-06-25T10:56:50.678Z</time>
      </trkpt>
      <trkpt lat="48.813688" lon="2.136305">
        <ele>127.251903</ele>
        <time>2025-06-25T10:56:52.440Z</time>
      </trkpt>
      <trkpt lat="48.813651" lon="2.136059">
        <ele>127.084596</ele>
        <time>2025-06-25T10:56:54.483Z</time>
      </trkpt>
      <trkpt lat="48.813653" lon="2.136001">
        <ele>127.046088</ele>
        <time>2025-06-25T10:56:54.968Z</time>
      </trkpt>
      <trkpt lat="48.812954" lon="2.135892">
        <ele>126.338586</ele>
        <time>2025-06-25T10:57:03.618Z</time>
      </trkpt>
      <trkpt lat="48.812873" lon="2.135842">
        <ele>126.250549</ele>
        <time>2025-06-25T10:57:05.078Z</time>
      </trkpt>
      <trkpt lat="48.812526" lon="2.135635">
        <ele>125.875173</ele>
        <time>2025-06-25T10:57:11.264Z</time>
      </trkpt>
      <trkpt lat="48.812467" lon="2.135599">
        <ele>125.811125</ele>
        <time>2025-06-25T10:57:12.045Z</time>
      </trkpt>
      <trkpt lat="48.812424" lon="2.135573">
        <ele>125.763187</ele>
        <time>2025-06-25T10:57:12.585Z</time>
      </trkpt>
      <trkpt lat="48.812232" lon="2.135454">
        <ele>125.548397</ele>
        <time>2025-06-25T10:57:16.212Z</time>
      </trkpt>
      <trkpt lat="48.811941" lon="2.135273">
        <ele>125.222690</ele>
        <time>2025-06-25T10:57:21.608Z</time>
      </trkpt>
      <trkpt lat="48.811897" lon="2.135246">
        <ele>125.173537</ele>
        <time>2025-06-25T10:57:22.174Z</time>
      </trkpt>
      <trkpt lat="48.811834" lon="2.135207">
        <ele>125.103071</ele>
        <time>2025-06-25T10:57:22.980Z</time>
      </trkpt>
      <trkpt lat="48.811704" lon="2.135127">
        <ele>124.957787</ele>
        <time>2025-06-25T10:57:24.635Z</time>
      </trkpt>
      <trkpt lat="48.811533" lon="2.135020">
        <ele>124.766226</ele>
        <time>2025-06-25T10:57:26.855Z</time>
      </trkpt>
      <trkpt lat="48.811456" lon="2.134973">
        <ele>124.680272</ele>
        <time>2025-06-25T10:57:27.838Z</time>
      </trkpt>
      <trkpt lat="48.811383" lon="2.134929">
        <ele>124.598924</ele>
        <time>2025-06-25T10:57:28.811Z</time>
      </trkpt>
      <trkpt lat="48.811276" lon="2.134864">
        <ele>124.479559</ele>
        <time>2025-06-25T10:57:30.176Z</time>
      </trkpt>
      <trkpt lat="48.811207" lon="2.134823">
        <ele>124.402816</ele>
        <time>2025-06-25T10:57:31.058Z</time>
      </trkpt>
      <trkpt lat="48.810873" lon="2.134620">
        <ele>124.030194</ele>
        <time>2025-06-25T10:57:36.975Z</time>
      </trkpt>
      <trkpt lat="48.810856" lon="2.134609">
        <ele>124.011055</ele>
        <time>2025-06-25T10:57:37.196Z</time>
      </trkpt>
      <trkpt lat="48.810800" lon="2.134575">
        <ele>123.949303</ele>
        <time>2025-06-25T10:57:37.918Z</time>
      </trkpt>
      <trkpt lat="48.810751" lon="2.134545">
        <ele>123.963460</ele>
        <time>2025-06-25T10:57:38.641Z</time>
      </trkpt>
      <trkpt lat="48.810164" lon="2.134178">
        <ele>124.133567</ele>
        <time>2025-06-25T10:57:52.295Z</time>
      </trkpt>
      <trkpt lat="48.810135" lon="2.134162">
        <ele>124.141835</ele>
        <time>2025-06-25T10:57:52.843Z</time>
      </trkpt>
      <trkpt lat="48.810086" lon="2.134134">
        <ele>124.155864</ele>
        <time>2025-06-25T10:57:53.534Z</time>
      </trkpt>
      <trkpt lat="48.810018" lon="2.134094">
        <ele>124.175405</ele>
        <time>2025-06-25T10:57:54.535Z</time>
      </trkpt>
      <trkpt lat="48.809923" lon="2.134040">
        <ele>124.202587</ele>
        <time>2025-06-25T10:57:56.044Z</time>
      </trkpt>
      <trkpt lat="48.809820" lon="2.133977">
        <ele>124.232343</ele>
        <time>2025-06-25T10:57:57.820Z</time>
      </trkpt>
      <trkpt lat="48.809775" lon="2.133950">
        <ele>124.245308</ele>
        <time>2025-06-25T10:57:58.718Z</time>
      </trkpt>
      <trkpt lat="48.809747" lon="2.133933">
        <ele>124.253389</ele>
        <time>2025-06-25T10:57:59.253Z</time>
      </trkpt>
      <trkpt lat="48.809691" lon="2.133899">
        <ele>124.269550</ele>
        <time>2025-06-25T10:58:00.185Z</time>
      </trkpt>
      <trkpt lat="48.809632" lon="2.133864">
        <ele>124.286524</ele>
        <time>2025-06-25T10:58:01.337Z</time>
      </trkpt>
      <trkpt lat="48.809620" lon="2.133856">
        <ele>124.290036</ele>
        <time>2025-06-25T10:58:01.585Z</time>
      </trkpt>
      <trkpt lat="48.809605" lon="2.133847">
        <ele>124.294357</ele>
        <time>2025-06-25T10:58:01.847Z</time>
      </trkpt>
      <trkpt lat="48.809596" lon="2.133841">
        <ele>124.296991</ele>
        <time>2025-06-25T10:58:01.992Z</time>
      </trkpt>
      <trkpt lat="48.809467" lon="2.133765">
        <ele>124.334070</ele>
        <time>2025-06-25T10:58:05.057Z</time>
      </trkpt>
      <trkpt lat="48.809443" lon="2.133750">
        <ele>124.341024</ele>
        <time>2025-06-25T10:58:05.570Z</time>
      </trkpt>
      <trkpt lat="48.809345" lon="2.133692">
        <ele>124.369209</ele>
        <time>2025-06-25T10:58:07.895Z</time>
      </trkpt>
      <trkpt lat="48.809225" lon="2.133619">
        <ele>124.403849</ele>
        <time>2025-06-25T10:58:10.640Z</time>
      </trkpt>
      <trkpt lat="48.809107" lon="2.133549">
        <ele>124.468891</ele>
        <time>2025-06-25T10:58:13.474Z</time>
      </trkpt>
      <trkpt lat="48.809064" lon="2.133524">
        <ele>124.538777</ele>
        <time>2025-06-25T10:58:14.406Z</time>
      </trkpt>
      <trkpt lat="48.809014" lon="2.133490">
        <ele>124.621930</ele>
        <time>2025-06-25T10:58:15.419Z</time>
      </trkpt>
      <trkpt lat="48.808919" lon="2.133430">
        <ele>124.778097</ele>
        <time>2025-06-25T10:58:17.700Z</time>
      </trkpt>
      <trkpt lat="48.808829" lon="2.133379">
        <ele>124.923901</ele>
        <time>2025-06-25T10:58:19.917Z</time>
      </trkpt>
      <trkpt lat="48.808777" lon="2.133348">
        <ele>125.008692</ele>
        <time>2025-06-25T10:58:21.431Z</time>
      </trkpt>
      <trkpt lat="48.808763" lon="2.133341">
        <ele>125.031064</ele>
        <time>2025-06-25T10:58:21.818Z</time>
      </trkpt>
      <trkpt lat="48.808398" lon="2.133131">
        <ele>125.623497</ele>
        <time>2025-06-25T10:58:33.457Z</time>
      </trkpt>
      <trkpt lat="48.808228" lon="2.133029">
        <ele>125.900938</ele>
        <time>2025-06-25T10:58:38.151Z</time>
      </trkpt>
      <trkpt lat="48.808035" lon="2.132913">
        <ele>126.215988</ele>
        <time>2025-06-25T10:58:43.083Z</time>
      </trkpt>
      <trkpt lat="48.807721" lon="2.132723">
        <ele>126.729027</ele>
        <time>2025-06-25T10:58:51.291Z</time>
      </trkpt>
      <trkpt lat="48.807676" lon="2.132695">
        <ele>126.802840</ele>
        <time>2025-06-25T10:58:52.389Z</time>
      </trkpt>
      <trkpt lat="48.807617" lon="2.132660">
        <ele>126.898982</ele>
        <time>2025-06-25T10:58:53.827Z</time>
      </trkpt>
      <trkpt lat="48.807555" lon="2.132623">
        <ele>127.000093</ele>
        <time>2025-06-25T10:58:54.961Z</time>
      </trkpt>
      <trkpt lat="48.807459" lon="2.132564">
        <ele>127.157286</ele>
        <time>2025-06-25T10:58:56.853Z</time>
      </trkpt>
      <trkpt lat="48.807370" lon="2.132511">
        <ele>127.361044</ele>
        <time>2025-06-25T10:58:58.904Z</time>
      </trkpt>
      <trkpt lat="48.807226" lon="2.132424">
        <ele>127.693942</ele>
        <time>2025-06-25T10:59:02.529Z</time>
      </trkpt>
      <trkpt lat="48.807156" lon="2.132382">
        <ele>127.855615</ele>
        <time>2025-06-25T10:59:04.466Z</time>
      </trkpt>
      <trkpt lat="48.807108" lon="2.132350">
        <ele>127.968219</ele>
        <time>2025-06-25T10:59:06.116Z</time>
      </trkpt>
      <trkpt lat="48.807007" lon="2.132284">
        <ele>128.204404</ele>
        <time>2025-06-25T10:59:09.497Z</time>
      </trkpt>
      <trkpt lat="48.806742" lon="2.132122">
        <ele>128.818025</ele>
        <time>2025-06-25T10:59:17.814Z</time>
      </trkpt>
      <trkpt lat="48.806600" lon="2.132037">
        <ele>129.145887</ele>
        <time>2025-06-25T10:59:21.605Z</time>
      </trkpt>
      <trkpt lat="48.806459" lon="2.131952">
        <ele>129.471751</ele>
        <time>2025-06-25T10:59:24.689Z</time>
      </trkpt>
      <trkpt lat="48.806190" lon="2.131784">
        <ele>130.096531</ele>
        <time>2025-06-25T10:59:30.011Z</time>
      </trkpt>
      <trkpt lat="48.806093" lon="2.131724">
        <ele>130.321513</ele>
        <time>2025-06-25T10:59:32.076Z</time>
      </trkpt>
      <trkpt lat="48.806047" lon="2.131696">
        <ele>130.427964</ele>
        <time>2025-06-25T10:59:33.085Z</time>
      </trkpt>
      <trkpt lat="48.806006" lon="2.131671">
        <ele>130.522868</ele>
        <time>2025-06-25T10:59:34.205Z</time>
      </trkpt>
      <trkpt lat="48.805689" lon="2.131480">
        <ele>131.166007</ele>
        <time>2025-06-25T10:59:42.656Z</time>
      </trkpt>
      <trkpt lat="48.805360" lon="2.131276">
        <ele>131.633640</ele>
        <time>2025-06-25T10:59:52.024Z</time>
      </trkpt>
      <trkpt lat="48.805301" lon="2.131241">
        <ele>131.716993</ele>
        <time>2025-06-25T10:59:53.769Z</time>
      </trkpt>
      <trkpt lat="48.805258" lon="2.131215">
        <ele>131.777897</ele>
        <time>2025-06-25T10:59:54.876Z</time>
      </trkpt>
      <trkpt lat="48.805186" lon="2.131182">
        <ele>131.876863</ele>
        <time>2025-06-25T10:59:56.628Z</time>
      </trkpt>
      <trkpt lat="48.805106" lon="2.131085">
        <ele>132.011582</ele>
        <time>2025-06-25T10:59:59.140Z</time>
      </trkpt>
      <trkpt lat="48.805041" lon="2.131060">
        <ele>132.099816</ele>
        <time>2025-06-25T11:00:00.598Z</time>
      </trkpt>
      <trkpt lat="48.804974" lon="2.131035">
        <ele>132.190603</ele>
        <time>2025-06-25T11:00:01.961Z</time>
      </trkpt>
      <trkpt lat="48.804891" lon="2.131012">
        <ele>132.301625</ele>
        <time>2025-06-25T11:00:03.305Z</time>
      </trkpt>
      <trkpt lat="48.804800" lon="2.130991">
        <ele>132.422745</ele>
        <time>2025-06-25T11:00:04.816Z</time>
      </trkpt>
      <trkpt lat="48.804698" lon="2.131013">
        <ele>132.558313</ele>
        <time>2025-06-25T11:00:06.474Z</time>
      </trkpt>
      <trkpt lat="48.804663" lon="2.131008">
        <ele>132.604572</ele>
        <time>2025-06-25T11:00:07.007Z</time>
      </trkpt>
      <trkpt lat="48.804262" lon="2.130866">
        <ele>133.146401</ele>
        <time>2025-06-25T11:00:13.510Z</time>
      </trkpt>
      <trkpt lat="48.804164" lon="2.130792">
        <ele>133.290425</ele>
        <time>2025-06-25T11:00:15.415Z</time>
      </trkpt>
      <trkpt lat="48.804075" lon="2.130805">
        <ele>133.382153</ele>
        <time>2025-06-25T11:00:17.179Z</time>
      </trkpt>
      <trkpt lat="48.803949" lon="2.130737">
        <ele>133.284855</ele>
        <time>2025-06-25T11:00:19.807Z</time>
      </trkpt>
      <trkpt lat="48.803306" lon="2.130353">
        <ele>132.782113</ele>
        <time>2025-06-25T11:00:30.601Z</time>
      </trkpt>
      <trkpt lat="48.802642" lon="2.129946">
        <ele>132.261096</ele>
        <time>2025-06-25T11:00:38.784Z</time>
      </trkpt>
      <trkpt lat="48.802587" lon="2.129912">
        <ele>132.217887</ele>
        <time>2025-06-25T11:00:39.433Z</time>
      </trkpt>
      <trkpt lat="48.802573" lon="2.129842">
        <ele>132.182828</ele>
        <time>2025-06-25T11:00:39.968Z</time>
      </trkpt>
      <trkpt lat="48.802520" lon="2.129807">
        <ele>132.140775</ele>
        <time>2025-06-25T11:00:40.615Z</time>
      </trkpt>
      <trkpt lat="48.802471" lon="2.129776">
        <ele>132.102151</ele>
        <time>2025-06-25T11:00:41.199Z</time>
      </trkpt>
      <trkpt lat="48.802375" lon="2.129716">
        <ele>131.946686</ele>
        <time>2025-06-25T11:00:42.354Z</time>
      </trkpt>
      <trkpt lat="48.802245" lon="2.129635">
        <ele>131.698687</ele>
        <time>2025-06-25T11:00:43.924Z</time>
      </trkpt>
      <trkpt lat="48.802069" lon="2.129529">
        <ele>131.364527</ele>
        <time>2025-06-25T11:00:46.021Z</time>
      </trkpt>
      <trkpt lat="48.802035" lon="2.129506">
        <ele>131.298835</ele>
        <time>2025-06-25T11:00:46.433Z</time>
      </trkpt>
      <trkpt lat="48.801955" lon="2.129455">
        <ele>131.145706</ele>
        <time>2025-06-25T11:00:47.401Z</time>
      </trkpt>
      <trkpt lat="48.801858" lon="2.129415">
        <ele>130.968314</ele>
        <time>2025-06-25T11:00:48.512Z</time>
      </trkpt>
      <trkpt lat="48.801156" lon="2.128972">
        <ele>129.626630</ele>
        <time>2025-06-25T11:00:56.793Z</time>
      </trkpt>
      <trkpt lat="48.800824" lon="2.128775">
        <ele>128.997539</ele>
        <time>2025-06-25T11:01:00.873Z</time>
      </trkpt>
      <trkpt lat="48.800584" lon="2.128591">
        <ele>128.951066</ele>
        <time>2025-06-25T11:01:04.078Z</time>
      </trkpt>
      <trkpt lat="48.800465" lon="2.128520">
        <ele>128.976078</ele>
        <time>2025-06-25T11:01:05.615Z</time>
      </trkpt>
      <trkpt lat="48.800269" lon="2.128395">
        <ele>129.017667</ele>
        <time>2025-06-25T11:01:08.362Z</time>
      </trkpt>
      <trkpt lat="48.799952" lon="2.128226">
        <ele>129.083392</ele>
        <time>2025-06-25T11:01:13.688Z</time>
      </trkpt>
      <trkpt lat="48.799848" lon="2.128146">
        <ele>129.106200</ele>
        <time>2025-06-25T11:01:15.753Z</time>
      </trkpt>
      <trkpt lat="48.799783" lon="2.128097">
        <ele>129.120397</ele>
        <time>2025-06-25T11:01:17.057Z</time>
      </trkpt>
      <trkpt lat="48.799684" lon="2.128038">
        <ele>129.141202</ele>
        <time>2025-06-25T11:01:19.156Z</time>
      </trkpt>
      <trkpt lat="48.799612" lon="2.128003">
        <ele>129.155992</ele>
        <time>2025-06-25T11:01:20.633Z</time>
      </trkpt>
      <trkpt lat="48.799509" lon="2.127937">
        <ele>129.177862</ele>
        <time>2025-06-25T11:01:22.860Z</time>
      </trkpt>
      <trkpt lat="48.799333" lon="2.127822">
        <ele>129.215346</ele>
        <time>2025-06-25T11:01:26.720Z</time>
      </trkpt>
      <trkpt lat="48.799204" lon="2.127771">
        <ele>129.241423</ele>
        <time>2025-06-25T11:01:29.428Z</time>
      </trkpt>
      <trkpt lat="48.799115" lon="2.127744">
        <ele>129.259178</ele>
        <time>2025-06-25T11:01:31.271Z</time>
      </trkpt>
      <trkpt lat="48.799107" lon="2.127739">
        <ele>129.260726</ele>
        <time>2025-06-25T11:01:31.458Z</time>
      </trkpt>
      <trkpt lat="48.798798" lon="2.127533">
        <ele>129.312259</ele>
        <time>2025-06-25T11:01:37.883Z</time>
      </trkpt>
      <trkpt lat="48.798781" lon="2.127522">
        <ele>129.315081</ele>
        <time>2025-06-25T11:01:38.214Z</time>
      </trkpt>
      <trkpt lat="48.798847" lon="2.127287">
        <ele>129.340777</ele>
        <time>2025-06-25T11:01:41.207Z</time>
      </trkpt>
      <trkpt lat="48.799255" lon="2.125864">
        <ele>129.496878</ele>
        <time>2025-06-25T11:01:57.385Z</time>
      </trkpt>
      <trkpt lat="48.799282" lon="2.125769">
        <ele>129.507285</ele>
        <time>2025-06-25T11:01:58.239Z</time>
      </trkpt>
      <trkpt lat="48.799479" lon="2.125049">
        <ele>129.143304</ele>
        <time>2025-06-25T11:02:03.986Z</time>
      </trkpt>
      <trkpt lat="48.799648" lon="2.124440">
        <ele>128.631363</ele>
        <time>2025-06-25T11:02:09.301Z</time>
      </trkpt>
      <trkpt lat="48.799014" lon="2.124019">
        <ele>127.817514</ele>
        <time>2025-06-25T11:02:17.367Z</time>
      </trkpt>
      <trkpt lat="48.798814" lon="2.123893">
        <ele>127.562847</ele>
        <time>2025-06-25T11:02:19.965Z</time>
      </trkpt>
      <trkpt lat="48.798491" lon="2.123666">
        <ele>127.494584</ele>
        <time>2025-06-25T11:02:24.040Z</time>
      </trkpt>
      <trkpt lat="48.797880" lon="2.123263">
        <ele>127.708300</ele>
        <time>2025-06-25T11:02:33.696Z</time>
      </trkpt>
      <trkpt lat="48.796728" lon="2.122486">
        <ele>128.919856</ele>
        <time>2025-06-25T11:02:58.086Z</time>
      </trkpt>
      <trkpt lat="48.796105" lon="2.122060">
        <ele>130.661881</ele>
        <time>2025-06-25T11:03:14.719Z</time>
      </trkpt>
      <trkpt lat="48.795793" lon="2.121854">
        <ele>131.529302</ele>
        <time>2025-06-25T11:03:24.179Z</time>
      </trkpt>
      <trkpt lat="48.795495" lon="2.121662">
        <ele>132.354648</ele>
        <time>2025-06-25T11:03:33.451Z</time>
      </trkpt>
      <trkpt lat="48.795175" lon="2.121451">
        <ele>133.671337</ele>
        <time>2025-06-25T11:03:43.816Z</time>
      </trkpt>
      <trkpt lat="48.794878" lon="2.121246">
        <ele>135.039941</ele>
        <time>2025-06-25T11:03:54.050Z</time>
      </trkpt>
      <trkpt lat="48.794760" lon="2.121165">
        <ele>135.583185</ele>
        <time>2025-06-25T11:03:58.252Z</time>
      </trkpt>
      <trkpt lat="48.794485" lon="2.120976">
        <ele>136.849482</ele>
        <time>2025-06-25T11:04:08.348Z</time>
      </trkpt>
      <trkpt lat="48.794264" lon="2.120832">
        <ele>137.858331</ele>
        <time>2025-06-25T11:04:16.502Z</time>
      </trkpt>
      <trkpt lat="48.794132" lon="2.120749">
        <ele>138.457671</ele>
        <time>2025-06-25T11:04:21.258Z</time>
      </trkpt>
      <trkpt lat="48.793685" lon="2.120440">
        <ele>140.503469</ele>
        <time>2025-06-25T11:04:36.819Z</time>
      </trkpt>
      <trkpt lat="48.793639" lon="2.120367">
        <ele>140.772229</ele>
        <time>2025-06-25T11:04:38.834Z</time>
      </trkpt>
      <trkpt lat="48.793571" lon="2.120319">
        <ele>141.075093</ele>
        <time>2025-06-25T11:04:41.145Z</time>
      </trkpt>
      <trkpt lat="48.793520" lon="2.120274">
        <ele>141.313328</ele>
        <time>2025-06-25T11:04:42.900Z</time>
      </trkpt>
      <trkpt lat="48.793309" lon="2.120089">
        <ele>142.297400</ele>
        <time>2025-06-25T11:04:50.137Z</time>
      </trkpt>
      <trkpt lat="48.793072" lon="2.119511">
        <ele>144.108726</ele>
        <time>2025-06-25T11:05:02.987Z</time>
      </trkpt>
      <trkpt lat="48.792874" lon="2.118966">
        <ele>145.764595</ele>
        <time>2025-06-25T11:05:15.806Z</time>
      </trkpt>
      <trkpt lat="48.792736" lon="2.118611">
        <ele>146.861263</ele>
        <time>2025-06-25T11:05:24.552Z</time>
      </trkpt>
      <trkpt lat="48.792666" lon="2.118551">
        <ele>147.185920</ele>
        <time>2025-06-25T11:05:27.056Z</time>
      </trkpt>
      <trkpt lat="48.792487" lon="2.118063">
        <ele>148.865103</ele>
        <time>2025-06-25T11:05:39.238Z</time>
      </trkpt>
      <trkpt lat="48.792455" lon="2.117965">
        <ele>149.199990</ele>
        <time>2025-06-25T11:05:41.514Z</time>
      </trkpt>
      <trkpt lat="48.792426" lon="2.117798">
        <ele>149.728768</ele>
        <time>2025-06-25T11:05:45.395Z</time>
      </trkpt>
      <trkpt lat="48.792380" lon="2.117674">
        <ele>150.164480</ele>
        <time>2025-06-25T11:05:48.658Z</time>
      </trkpt>
      <trkpt lat="48.791058" lon="2.114098">
        <ele>163.233457</ele>
        <time>2025-06-25T11:07:19.829Z</time>
      </trkpt>
      <trkpt lat="48.790993" lon="2.113744">
        <ele>164.441631</ele>
        <time>2025-06-25T11:07:29.332Z</time>
      </trkpt>
      <trkpt lat="48.790963" lon="2.113366">
        <ele>165.700018</ele>
        <time>2025-06-25T11:07:39.462Z</time>
      </trkpt>
      <trkpt lat="48.790979" lon="2.110932">
        <ele>173.757759</ele>
        <time>2025-06-25T11:08:38.463Z</time>
      </trkpt>
      <trkpt lat="48.791021" lon="2.110585">
        <ele>173.997432</ele>
        <time>2025-06-25T11:08:43.759Z</time>
      </trkpt>
      <trkpt lat="48.791299" lon="2.109424">
        <ele>174.819886</ele>
        <time>2025-06-25T11:08:57.900Z</time>
      </trkpt>
      <trkpt lat="48.791347" lon="2.109092">
        <ele>175.046188</ele>
        <time>2025-06-25T11:09:00.756Z</time>
      </trkpt>
      <trkpt lat="48.791349" lon="2.108872">
        <ele>175.192675</ele>
        <time>2025-06-25T11:09:02.658Z</time>
      </trkpt>
      <trkpt lat="48.791313" lon="2.108256">
        <ele>175.589798</ele>
        <time>2025-06-25T11:09:08.609Z</time>
      </trkpt>
      <trkpt lat="48.791263" lon="2.107920">
        <ele>175.673194</ele>
        <time>2025-06-25T11:09:12.254Z</time>
      </trkpt>
      <trkpt lat="48.791173" lon="2.107679">
        <ele>175.740264</ele>
        <time>2025-06-25T11:09:15.404Z</time>
      </trkpt>
      <trkpt lat="48.791037" lon="2.107456">
        <ele>175.813835</ele>
        <time>2025-06-25T11:09:19.138Z</time>
      </trkpt>
      <trkpt lat="48.790761" lon="2.107158">
        <ele>175.938306</ele>
        <time>2025-06-25T11:09:25.468Z</time>
      </trkpt>
      <trkpt lat="48.790109" lon="2.106776">
        <ele>176.195140</ele>
        <time>2025-06-25T11:09:37.352Z</time>
      </trkpt>
      <trkpt lat="48.789545" lon="2.106412">
        <ele>175.586441</ele>
        <time>2025-06-25T11:09:45.847Z</time>
      </trkpt>
      <trkpt lat="48.788350" lon="2.105719">
        <ele>173.853216</ele>
        <time>2025-06-25T11:10:00.227Z</time>
      </trkpt>
      <trkpt lat="48.788040" lon="2.105573">
        <ele>173.014308</ele>
        <time>2025-06-25T11:10:03.618Z</time>
      </trkpt>
      <trkpt lat="48.787928" lon="2.105487">
        <ele>172.671113</ele>
        <time>2025-06-25T11:10:04.921Z</time>
      </trkpt>
      <trkpt lat="48.787688" lon="2.105389">
        <ele>171.991557</ele>
        <time>2025-06-25T11:10:07.495Z</time>
      </trkpt>
      <trkpt lat="48.787292" lon="2.105279">
        <ele>170.890806</ele>
        <time>2025-06-25T11:10:11.656Z</time>
      </trkpt>
      <trkpt lat="48.786600" lon="2.105214">
        <ele>168.995077</ele>
        <time>2025-06-25T11:10:18.711Z</time>
      </trkpt>
      <trkpt lat="48.786512" lon="2.105192">
        <ele>168.799083</ele>
        <time>2025-06-25T11:10:19.636Z</time>
      </trkpt>
      <trkpt lat="48.786436" lon="2.105064">
        <ele>168.597663</ele>
        <time>2025-06-25T11:10:20.818Z</time>
      </trkpt>
      <trkpt lat="48.786334" lon="2.104986">
        <ele>168.395021</ele>
        <time>2025-06-25T11:10:22.008Z</time>
      </trkpt>
      <trkpt lat="48.786182" lon="2.104978">
        <ele>168.125179</ele>
        <time>2025-06-25T11:10:23.629Z</time>
      </trkpt>
      <trkpt lat="48.786045" lon="2.105081">
        <ele>167.853925</ele>
        <time>2025-06-25T11:10:25.274Z</time>
      </trkpt>
      <trkpt lat="48.785998" lon="2.105156">
        <ele>167.732928</ele>
        <time>2025-06-25T11:10:26.023Z</time>
      </trkpt>
      <trkpt lat="48.785938" lon="2.105187">
        <ele>167.620476</ele>
        <time>2025-06-25T11:10:26.711Z</time>
      </trkpt>
      <trkpt lat="48.785236" lon="2.105308">
        <ele>166.366974</ele>
        <time>2025-06-25T11:10:34.840Z</time>
      </trkpt>
      <trkpt lat="48.785005" lon="2.105381">
        <ele>165.948342</ele>
        <time>2025-06-25T11:10:37.621Z</time>
      </trkpt>
      <trkpt lat="48.784571" lon="2.105608">
        <ele>165.519708</ele>
        <time>2025-06-25T11:10:43.409Z</time>
      </trkpt>
      <trkpt lat="48.784315" lon="2.105824">
        <ele>165.356494</ele>
        <time>2025-06-25T11:10:47.277Z</time>
      </trkpt>
      <trkpt lat="48.783977" lon="2.106068">
        <ele>165.147929</ele>
        <time>2025-06-25T11:10:52.432Z</time>
      </trkpt>
      <trkpt lat="48.783716" lon="2.106206">
        <ele>164.993919</ele>
        <time>2025-06-25T11:10:56.341Z</time>
      </trkpt>
      <trkpt lat="48.783430" lon="2.106306">
        <ele>164.830376</ele>
        <time>2025-06-25T11:11:00.434Z</time>
      </trkpt>
      <trkpt lat="48.782978" lon="2.106370">
        <ele>164.298374</ele>
        <time>2025-06-25T11:11:06.413Z</time>
      </trkpt>
      <trkpt lat="48.782775" lon="2.106344">
        <ele>163.913401</ele>
        <time>2025-06-25T11:11:09.008Z</time>
      </trkpt>
      <trkpt lat="48.782457" lon="2.106256">
        <ele>163.302567</ele>
        <time>2025-06-25T11:11:12.927Z</time>
      </trkpt>
      <trkpt lat="48.782043" lon="2.106080">
        <ele>162.490116</ele>
        <time>2025-06-25T11:11:17.686Z</time>
      </trkpt>
      <trkpt lat="48.781435" lon="2.105762">
        <ele>161.268293</ele>
        <time>2025-06-25T11:11:24.231Z</time>
      </trkpt>
      <trkpt lat="48.780997" lon="2.105477">
        <ele>160.077163</ele>
        <time>2025-06-25T11:11:28.954Z</time>
      </trkpt>
      <trkpt lat="48.780511" lon="2.105080">
        <ele>158.697650</ele>
        <time>2025-06-25T11:11:34.602Z</time>
      </trkpt>
      <trkpt lat="48.780269" lon="2.104845">
        <ele>157.979558</ele>
        <time>2025-06-25T11:11:37.741Z</time>
      </trkpt>
      <trkpt lat="48.780020" lon="2.104540">
        <ele>157.179767</ele>
        <time>2025-06-25T11:11:41.448Z</time>
      </trkpt>
      <trkpt lat="48.779771" lon="2.104170">
        <ele>156.360735</ele>
        <time>2025-06-25T11:11:45.688Z</time>
      </trkpt>
      <trkpt lat="48.779546" lon="2.103766">
        <ele>155.581798</ele>
        <time>2025-06-25T11:11:49.925Z</time>
      </trkpt>
      <trkpt lat="48.779343" lon="2.103325">
        <ele>154.789635</ele>
        <time>2025-06-25T11:11:53.940Z</time>
      </trkpt>
      <trkpt lat="48.779173" lon="2.102866">
        <ele>154.014274</ele>
        <time>2025-06-25T11:11:57.550Z</time>
      </trkpt>
      <trkpt lat="48.779086" lon="2.102505">
        <ele>153.448234</ele>
        <time>2025-06-25T11:12:00.118Z</time>
      </trkpt>
      <trkpt lat="48.779052" lon="2.102179">
        <ele>152.962195</ele>
        <time>2025-06-25T11:12:02.311Z</time>
      </trkpt>
      <trkpt lat="48.779080" lon="2.101589">
        <ele>151.630681</ele>
        <time>2025-06-25T11:12:06.248Z</time>
      </trkpt>
      <trkpt lat="48.779143" lon="2.101304">
        <ele>150.892227</ele>
        <time>2025-06-25T11:12:08.233Z</time>
      </trkpt>
      <trkpt lat="48.779240" lon="2.101027">
        <ele>150.121654</ele>
        <time>2025-06-25T11:12:10.314Z</time>
      </trkpt>
      <trkpt lat="48.779371" lon="2.100762">
        <ele>149.307859</ele>
        <time>2025-06-25T11:12:12.510Z</time>
      </trkpt>
      <trkpt lat="48.779590" lon="2.100480">
        <ele>148.237157</ele>
        <time>2025-06-25T11:12:15.384Z</time>
      </trkpt>
      <trkpt lat="48.779666" lon="2.100404">
        <ele>147.897857</ele>
        <time>2025-06-25T11:12:16.273Z</time>
      </trkpt>
      <trkpt lat="48.780289" lon="2.100005">
        <ele>145.036423</ele>
        <time>2025-06-25T11:12:22.774Z</time>
      </trkpt>
      <trkpt lat="48.780582" lon="2.099738">
        <ele>143.140689</ele>
        <time>2025-06-25T11:12:25.998Z</time>
      </trkpt>
      <trkpt lat="48.780793" lon="2.099467">
        <ele>141.607402</ele>
        <time>2025-06-25T11:12:28.555Z</time>
      </trkpt>
      <trkpt lat="48.781059" lon="2.099020">
        <ele>139.405953</ele>
        <time>2025-06-25T11:12:32.186Z</time>
      </trkpt>
      <trkpt lat="48.781157" lon="2.098789">
        <ele>138.401778</ele>
        <time>2025-06-25T11:12:33.826Z</time>
      </trkpt>
      <trkpt lat="48.781220" lon="2.098460">
        <ele>137.149519</ele>
        <time>2025-06-25T11:12:35.875Z</time>
      </trkpt>
      <trkpt lat="48.781226" lon="2.098166">
        <ele>136.078004</ele>
        <time>2025-06-25T11:12:37.653Z</time>
      </trkpt>
      <trkpt lat="48.781124" lon="2.096975">
        <ele>132.349486</ele>
        <time>2025-06-25T11:12:45.061Z</time>
      </trkpt>
      <trkpt lat="48.781074" lon="2.096653">
        <ele>131.322466</ele>
        <time>2025-06-25T11:12:47.095Z</time>
      </trkpt>
      <trkpt lat="48.780932" lon="2.096351">
        <ele>130.170695</ele>
        <time>2025-06-25T11:12:49.401Z</time>
      </trkpt>
      <trkpt lat="48.780751" lon="2.096174">
        <ele>129.156236</ele>
        <time>2025-06-25T11:12:51.481Z</time>
      </trkpt>
      <trkpt lat="48.780472" lon="2.096098">
        <ele>127.820768</ele>
        <time>2025-06-25T11:12:54.300Z</time>
      </trkpt>
      <trkpt lat="48.780108" lon="2.096149">
        <ele>127.605226</ele>
        <time>2025-06-25T11:12:58.108Z</time>
      </trkpt>
      <trkpt lat="48.779878" lon="2.096175">
        <ele>127.591702</ele>
        <time>2025-06-25T11:13:00.662Z</time>
      </trkpt>
      <trkpt lat="48.779314" lon="2.096248">
        <ele>127.558511</ele>
        <time>2025-06-25T11:13:07.992Z</time>
      </trkpt>
      <trkpt lat="48.778970" lon="2.096231">
        <ele>127.538329</ele>
        <time>2025-06-25T11:13:14.787Z</time>
      </trkpt>
      <trkpt lat="48.778635" lon="2.096142">
        <ele>127.559211</ele>
        <time>2025-06-25T11:13:23.490Z</time>
      </trkpt>
      <trkpt lat="48.778343" lon="2.096029">
        <ele>129.542612</ele>
        <time>2025-06-25T11:13:32.771Z</time>
      </trkpt>
      <trkpt lat="48.777914" lon="2.095751">
        <ele>132.612888</ele>
        <time>2025-06-25T11:13:50.300Z</time>
      </trkpt>
      <trkpt lat="48.777437" lon="2.095334">
        <ele>136.236132</ele>
        <time>2025-06-25T11:14:15.293Z</time>
      </trkpt>
      <trkpt lat="48.776762" lon="2.094802">
        <ele>141.589369</ele>
        <time>2025-06-25T11:14:54.392Z</time>
      </trkpt>
      <trkpt lat="48.776559" lon="2.094571">
        <ele>143.566820</ele>
        <time>2025-06-25T11:15:07.686Z</time>
      </trkpt>
      <trkpt lat="48.775807" lon="2.093530">
        <ele>151.499668</ele>
        <time>2025-06-25T11:15:54.804Z</time>
      </trkpt>
      <trkpt lat="48.775720" lon="2.093372">
        <ele>152.557110</ele>
        <time>2025-06-25T11:16:00.329Z</time>
      </trkpt>
      <trkpt lat="48.775610" lon="2.093081">
        <ele>153.836777</ele>
        <time>2025-06-25T11:16:08.893Z</time>
      </trkpt>
      <trkpt lat="48.775448" lon="2.092069">
        <ele>156.567225</ele>
        <time>2025-06-25T11:16:32.580Z</time>
      </trkpt>
      <trkpt lat="48.775368" lon="2.091770">
        <ele>157.413300</ele>
        <time>2025-06-25T11:16:38.874Z</time>
      </trkpt>
      <trkpt lat="48.775257" lon="2.091495">
        <ele>158.258797</ele>
        <time>2025-06-25T11:16:44.686Z</time>
      </trkpt>
      <trkpt lat="48.774917" lon="2.090640">
        <ele>160.615592</ele>
        <time>2025-06-25T11:17:01.044Z</time>
      </trkpt>
      <trkpt lat="48.774784" lon="2.090319">
        <ele>160.860232</ele>
        <time>2025-06-25T11:17:06.438Z</time>
      </trkpt>
      <trkpt lat="48.774693" lon="2.090084">
        <ele>161.036092</ele>
        <time>2025-06-25T11:17:10.016Z</time>
      </trkpt>
      <trkpt lat="48.774541" lon="2.089587">
        <ele>161.389604</ele>
        <time>2025-06-25T11:17:16.767Z</time>
      </trkpt>
      <trkpt lat="48.773679" lon="2.085471">
        <ele>162.715480</ele>
        <time>2025-06-25T11:18:02.572Z</time>
      </trkpt>
      <trkpt lat="48.773495" lon="2.084780">
        <ele>162.498848</ele>
        <time>2025-06-25T11:18:09.718Z</time>
      </trkpt>
      <trkpt lat="48.773345" lon="2.084345">
        <ele>162.356142</ele>
        <time>2025-06-25T11:18:14.099Z</time>
      </trkpt>
      <trkpt lat="48.773205" lon="2.084044">
        <ele>162.249053</ele>
        <time>2025-06-25T11:18:17.263Z</time>
      </trkpt>
      <trkpt lat="48.773055" lon="2.083789">
        <ele>162.149700</ele>
        <time>2025-06-25T11:18:20.116Z</time>
      </trkpt>
      <trkpt lat="48.772877" lon="2.083554">
        <ele>162.045633</ele>
        <time>2025-06-25T11:18:23.044Z</time>
      </trkpt>
      <trkpt lat="48.772791" lon="2.083440">
        <ele>161.995266</ele>
        <time>2025-06-25T11:18:24.450Z</time>
      </trkpt>
      <trkpt lat="48.772492" lon="2.083158">
        <ele>161.640581</ele>
        <time>2025-06-25T11:18:28.715Z</time>
      </trkpt>
      <trkpt lat="48.772278" lon="2.083010">
        <ele>161.387028</ele>
        <time>2025-06-25T11:18:31.538Z</time>
      </trkpt>
      <trkpt lat="48.771344" lon="2.082585">
        <ele>160.335756</ele>
        <time>2025-06-25T11:18:43.143Z</time>
      </trkpt>
      <trkpt lat="48.771274" lon="2.082538">
        <ele>160.253229</ele>
        <time>2025-06-25T11:18:44.085Z</time>
      </trkpt>
      <trkpt lat="48.771227" lon="2.082447">
        <ele>160.171079</ele>
        <time>2025-06-25T11:18:45.015Z</time>
      </trkpt>
      <trkpt lat="48.771201" lon="2.082308">
        <ele>160.068411</ele>
        <time>2025-06-25T11:18:46.205Z</time>
      </trkpt>
      <trkpt lat="48.771130" lon="2.082164">
        <ele>160.002617</ele>
        <time>2025-06-25T11:18:47.680Z</time>
      </trkpt>
      <trkpt lat="48.771028" lon="2.082083">
        <ele>159.956797</ele>
        <time>2025-06-25T11:18:49.121Z</time>
      </trkpt>
      <trkpt lat="48.770897" lon="2.082062">
        <ele>159.904370</ele>
        <time>2025-06-25T11:18:50.794Z</time>
      </trkpt>
      <trkpt lat="48.770735" lon="2.082183">
        <ele>159.832506</ele>
        <time>2025-06-25T11:18:53.098Z</time>
      </trkpt>
      <trkpt lat="48.770579" lon="2.082202">
        <ele>159.770219</ele>
        <time>2025-06-25T11:18:55.124Z</time>
      </trkpt>
      <trkpt lat="48.770498" lon="2.082187">
        <ele>159.737742</ele>
        <time>2025-06-25T11:18:56.192Z</time>
      </trkpt>
      <trkpt lat="48.770328" lon="2.082102">
        <ele>159.666504</ele>
        <time>2025-06-25T11:18:58.547Z</time>
      </trkpt>
      <trkpt lat="48.768983" lon="2.081536">
        <ele>159.545500</ele>
        <time>2025-06-25T11:19:18.944Z</time>
      </trkpt>
      <trkpt lat="48.766780" lon="2.080590">
        <ele>160.589986</ele>
        <time>2025-06-25T11:19:58.511Z</time>
      </trkpt>
      <trkpt lat="48.766463" lon="2.080454">
        <ele>160.756023</ele>
        <time>2025-06-25T11:20:04.020Z</time>
      </trkpt>
      <trkpt lat="48.766295" lon="2.080321">
        <ele>160.851531</ele>
        <time>2025-06-25T11:20:07.152Z</time>
      </trkpt>
      <trkpt lat="48.766241" lon="2.080095">
        <ele>160.931391</ele>
        <time>2025-06-25T11:20:09.754Z</time>
      </trkpt>
      <trkpt lat="48.766140" lon="2.079969">
        <ele>160.993579</ele>
        <time>2025-06-25T11:20:11.896Z</time>
      </trkpt>
      <trkpt lat="48.766078" lon="2.079936">
        <ele>161.019336</ele>
        <time>2025-06-25T11:20:12.963Z</time>
      </trkpt>
      <trkpt lat="48.765960" lon="2.079930">
        <ele>161.065619</ele>
        <time>2025-06-25T11:20:14.891Z</time>
      </trkpt>
      <trkpt lat="48.765801" lon="2.079783">
        <ele>161.138609</ele>
        <time>2025-06-25T11:20:17.892Z</time>
      </trkpt>
      <trkpt lat="48.763872" lon="2.076106">
        <ele>162.528013</ele>
        <time>2025-06-25T11:21:08.757Z</time>
      </trkpt>
      <trkpt lat="48.763239" lon="2.074954">
        <ele>163.210781</ele>
        <time>2025-06-25T11:21:27.226Z</time>
      </trkpt>
      <trkpt lat="48.762676" lon="2.073773">
        <ele>163.863979</ele>
        <time>2025-06-25T11:21:44.179Z</time>
      </trkpt>
      <trkpt lat="48.762531" lon="2.073445">
        <ele>163.901916</ele>
        <time>2025-06-25T11:21:48.256Z</time>
      </trkpt>
      <trkpt lat="48.762220" lon="2.072757">
        <ele>163.982051</ele>
        <time>2025-06-25T11:21:56.703Z</time>
      </trkpt>
      <trkpt lat="48.762181" lon="2.072668">
        <ele>163.992317</ele>
        <time>2025-06-25T11:21:57.779Z</time>
      </trkpt>
      <trkpt lat="48.762222" lon="2.072497">
        <ele>164.009797</ele>
        <time>2025-06-25T11:21:59.554Z</time>
      </trkpt>
      <trkpt lat="48.762228" lon="2.072360">
        <ele>164.022986</ele>
        <time>2025-06-25T11:22:00.888Z</time>
      </trkpt>
      <trkpt lat="48.762174" lon="2.072099">
        <ele>164.049263</ele>
        <time>2025-06-25T11:22:03.529Z</time>
      </trkpt>
      <trkpt lat="48.762085" lon="2.071957">
        <ele>164.068086</ele>
        <time>2025-06-25T11:22:05.400Z</time>
      </trkpt>
      <trkpt lat="48.761990" lon="2.071875">
        <ele>164.084014</ele>
        <time>2025-06-25T11:22:06.995Z</time>
      </trkpt>
      <trkpt lat="48.761990" lon="2.071875">
        <ele>164.084014</ele>
        <time>2025-06-25T11:22:06.999Z</time>
      </trkpt>
      <trkpt lat="48.761901" lon="2.071845">
        <ele>164.097300</ele>
        <time>2025-06-25T11:22:08.324Z</time>
      </trkpt>
      <trkpt lat="48.761790" lon="2.071859">
        <ele>164.113531</ele>
        <time>2025-06-25T11:22:09.968Z</time>
      </trkpt>
      <trkpt lat="48.761693" lon="2.071768">
        <ele>164.106756</ele>
        <time>2025-06-25T11:22:11.653Z</time>
      </trkpt>
      <trkpt lat="48.761312" lon="2.071059">
        <ele>164.022746</ele>
        <time>2025-06-25T11:22:20.613Z</time>
      </trkpt>
      <trkpt lat="48.761151" lon="2.070599">
        <ele>163.974914</ele>
        <time>2025-06-25T11:22:25.617Z</time>
      </trkpt>
      <trkpt lat="48.761065" lon="2.069926">
        <ele>163.911954</ele>
        <time>2025-06-25T11:22:32.027Z</time>
      </trkpt>
      <trkpt lat="48.761067" lon="2.069437">
        <ele>163.865513</ele>
        <time>2025-06-25T11:22:36.463Z</time>
      </trkpt>
      <trkpt lat="48.761100" lon="2.069066">
        <ele>163.736704</ele>
        <time>2025-06-25T11:22:39.781Z</time>
      </trkpt>
      <trkpt lat="48.761173" lon="2.068655">
        <ele>163.590245</ele>
        <time>2025-06-25T11:22:43.506Z</time>
      </trkpt>
      <trkpt lat="48.761579" lon="2.067242">
        <ele>163.059889</ele>
        <time>2025-06-25T11:22:56.931Z</time>
      </trkpt>
      <trkpt lat="48.762198" lon="2.065116">
        <ele>162.092155</ele>
        <time>2025-06-25T11:23:16.655Z</time>
      </trkpt>
      <trkpt lat="48.762266" lon="2.064768">
        <ele>161.935876</ele>
        <time>2025-06-25T11:23:19.729Z</time>
      </trkpt>
      <trkpt lat="48.762266" lon="2.064766">
        <ele>161.935015</ele>
        <time>2025-06-25T11:23:19.744Z</time>
      </trkpt>
      <trkpt lat="48.762346" lon="2.063963">
        <ele>161.595938</ele>
        <time>2025-06-25T11:23:26.547Z</time>
      </trkpt>
      <trkpt lat="48.762360" lon="2.063783">
        <ele>161.522801</ele>
        <time>2025-06-25T11:23:28.065Z</time>
      </trkpt>
      <trkpt lat="48.762431" lon="2.063677">
        <ele>161.461822</ele>
        <time>2025-06-25T11:23:29.333Z</time>
      </trkpt>
      <trkpt lat="48.762463" lon="2.063522">
        <ele>161.396281</ele>
        <time>2025-06-25T11:23:30.687Z</time>
      </trkpt>
      <trkpt lat="48.762442" lon="2.063363">
        <ele>161.330847</ele>
        <time>2025-06-25T11:23:32.041Z</time>
      </trkpt>
      <trkpt lat="48.762406" lon="2.063283">
        <ele>161.291761</ele>
        <time>2025-06-25T11:23:32.854Z</time>
      </trkpt>
      <trkpt lat="48.762297" lon="2.063188">
        <ele>161.214809</ele>
        <time>2025-06-25T11:23:34.456Z</time>
      </trkpt>
      <trkpt lat="48.762247" lon="2.063015">
        <ele>161.138585</ele>
        <time>2025-06-25T11:23:36.042Z</time>
      </trkpt>
      <trkpt lat="48.762074" lon="2.062385">
        <ele>160.863192</ele>
        <time>2025-06-25T11:23:41.889Z</time>
      </trkpt>
      <trkpt lat="48.761735" lon="2.061632">
        <ele>160.687304</ele>
        <time>2025-06-25T11:23:49.919Z</time>
      </trkpt>
      <trkpt lat="48.761345" lon="2.060872">
        <ele>160.772047</ele>
        <time>2025-06-25T11:23:59.310Z</time>
      </trkpt>
      <trkpt lat="48.761132" lon="2.060458">
        <ele>160.818256</ele>
        <time>2025-06-25T11:24:04.861Z</time>
      </trkpt>
      <trkpt lat="48.761065" lon="2.060329">
        <ele>160.832706</ele>
        <time>2025-06-25T11:24:06.644Z</time>
      </trkpt>
      <trkpt lat="48.761011" lon="2.060220">
        <ele>160.844703</ele>
        <time>2025-06-25T11:24:08.173Z</time>
      </trkpt>
      <trkpt lat="48.760922" lon="2.060035">
        <ele>160.864855</ele>
        <time>2025-06-25T11:24:10.736Z</time>
      </trkpt>
      <trkpt lat="48.759467" lon="2.057164">
        <ele>162.232717</ele>
        <time>2025-06-25T11:24:52.309Z</time>
      </trkpt>
      <trkpt lat="48.759313" lon="2.056859">
        <ele>162.368399</ele>
        <time>2025-06-25T11:24:56.559Z</time>
      </trkpt>
      <trkpt lat="48.759253" lon="2.056745">
        <ele>162.419919</ele>
        <time>2025-06-25T11:24:58.161Z</time>
      </trkpt>
      <trkpt lat="48.759183" lon="2.056515">
        <ele>162.509387</ele>
        <time>2025-06-25T11:25:00.931Z</time>
      </trkpt>
      <trkpt lat="48.759120" lon="2.056325">
        <ele>162.584499</ele>
        <time>2025-06-25T11:25:03.231Z</time>
      </trkpt>
      <trkpt lat="48.759006" lon="2.055899">
        <ele>162.746874</ele>
        <time>2025-06-25T11:25:08.200Z</time>
      </trkpt>
      <trkpt lat="48.758970" lon="2.055802">
        <ele>162.786187</ele>
        <time>2025-06-25T11:25:09.449Z</time>
      </trkpt>
      <trkpt lat="48.758980" lon="2.055668">
        <ele>162.833814</ele>
        <time>2025-06-25T11:25:10.940Z</time>
      </trkpt>
      <trkpt lat="48.758934" lon="2.055599">
        <ele>162.868472</ele>
        <time>2025-06-25T11:25:12.051Z</time>
      </trkpt>
      <trkpt lat="48.758879" lon="2.055449">
        <ele>162.929091</ele>
        <time>2025-06-25T11:25:13.997Z</time>
      </trkpt>
      <trkpt lat="48.758735" lon="2.054879">
        <ele>163.161706</ele>
        <time>2025-06-25T11:25:21.056Z</time>
      </trkpt>
      <trkpt lat="48.758747" lon="2.054865">
        <ele>163.170733</ele>
        <time>2025-06-25T11:25:21.305Z</time>
      </trkpt>
      <trkpt lat="48.758756" lon="2.054780">
        <ele>163.204572</ele>
        <time>2025-06-25T11:25:22.296Z</time>
      </trkpt>
      <trkpt lat="48.758720" lon="2.054738">
        <ele>163.231652</ele>
        <time>2025-06-25T11:25:23.079Z</time>
      </trkpt>
      <trkpt lat="48.758676" lon="2.054756">
        <ele>163.258825</ele>
        <time>2025-06-25T11:25:23.833Z</time>
      </trkpt>
      <trkpt lat="48.758617" lon="2.054616">
        <ele>163.324140</ele>
        <time>2025-06-25T11:25:25.745Z</time>
      </trkpt>
      <trkpt lat="48.758581" lon="2.054436">
        <ele>163.398078</ele>
        <time>2025-06-25T11:25:27.882Z</time>
      </trkpt>
      <trkpt lat="48.758575" lon="2.054357">
        <ele>163.429337</ele>
        <time>2025-06-25T11:25:28.773Z</time>
      </trkpt>
      <trkpt lat="48.758533" lon="2.053710">
        <ele>163.684888</ele>
        <time>2025-06-25T11:25:36.086Z</time>
      </trkpt>
      <trkpt lat="48.758495" lon="2.053106">
        <ele>163.923386</ele>
        <time>2025-06-25T11:25:42.913Z</time>
      </trkpt>
      <trkpt lat="48.758471" lon="2.052801">
        <ele>164.044126</ele>
        <time>2025-06-25T11:25:46.421Z</time>
      </trkpt>
      <trkpt lat="48.758401" lon="2.051752">
        <ele>164.438862</ele>
        <time>2025-06-25T11:25:58.429Z</time>
      </trkpt>
      <trkpt lat="48.758385" lon="2.051515">
        <ele>164.527802</ele>
        <time>2025-06-25T11:26:01.231Z</time>
      </trkpt>
      <trkpt lat="48.758373" lon="2.051414">
        <ele>164.566115</ele>
        <time>2025-06-25T11:26:02.451Z</time>
      </trkpt>
      <trkpt lat="48.758067" lon="2.050219">
        <ele>165.044710</ele>
        <time>2025-06-25T11:26:16.894Z</time>
      </trkpt>
      <trkpt lat="48.758037" lon="2.050070">
        <ele>165.096668</ele>
        <time>2025-06-25T11:26:18.478Z</time>
      </trkpt>
      <trkpt lat="48.758005" lon="2.049916">
        <ele>165.136059</ele>
        <time>2025-06-25T11:26:20.083Z</time>
      </trkpt>
      <trkpt lat="48.757978" lon="2.049834">
        <ele>165.158419</ele>
        <time>2025-06-25T11:26:21.094Z</time>
      </trkpt>
      <trkpt lat="48.757914" lon="2.049761">
        <ele>165.188051</ele>
        <time>2025-06-25T11:26:22.407Z</time>
      </trkpt>
      <trkpt lat="48.757053" lon="2.049199">
        <ele>165.534908</ele>
        <time>2025-06-25T11:26:38.436Z</time>
      </trkpt>
      <trkpt lat="48.756766" lon="2.049003">
        <ele>165.651379</ele>
        <time>2025-06-25T11:26:43.312Z</time>
      </trkpt>
      <trkpt lat="48.756683" lon="2.048819">
        <ele>165.705769</ele>
        <time>2025-06-25T11:26:45.553Z</time>
      </trkpt>
      <trkpt lat="48.756587" lon="2.048273">
        <ele>165.669334</ele>
        <time>2025-06-25T11:26:51.412Z</time>
      </trkpt>
      <trkpt lat="48.756094" lon="2.045454">
        <ele>164.995441</ele>
        <time>2025-06-25T11:27:17.004Z</time>
      </trkpt>
      <trkpt lat="48.755601" lon="2.044290">
        <ele>164.572262</ele>
        <time>2025-06-25T11:27:29.215Z</time>
      </trkpt>
      <trkpt lat="48.755545" lon="2.044158">
        <ele>164.524250</ele>
        <time>2025-06-25T11:27:30.648Z</time>
      </trkpt>
      <trkpt lat="48.755515" lon="2.044088">
        <ele>164.498712</ele>
        <time>2025-06-25T11:27:31.411Z</time>
      </trkpt>
      <trkpt lat="48.755357" lon="2.043726">
        <ele>164.365918</ele>
        <time>2025-06-25T11:27:35.411Z</time>
      </trkpt>
      <trkpt lat="48.755266" lon="2.043518">
        <ele>164.149210</ele>
        <time>2025-06-25T11:27:37.674Z</time>
      </trkpt>
      <trkpt lat="48.754805" lon="2.042438">
        <ele>162.545699</ele>
        <time>2025-06-25T11:27:48.624Z</time>
      </trkpt>
      <trkpt lat="48.754780" lon="2.042077">
        <ele>162.093302</ele>
        <time>2025-06-25T11:27:51.409Z</time>
      </trkpt>
      <trkpt lat="48.754715" lon="2.042085">
        <ele>161.970021</ele>
        <time>2025-06-25T11:27:52.126Z</time>
      </trkpt>
      <trkpt lat="48.754662" lon="2.042084">
        <ele>161.869821</ele>
        <time>2025-06-25T11:27:52.712Z</time>
      </trkpt>
      <trkpt lat="48.754508" lon="2.041757">
        <ele>161.368973</ele>
        <time>2025-06-25T11:27:55.436Z</time>
      </trkpt>
      <trkpt lat="48.754336" lon="2.041527">
        <ele>160.935504</ele>
        <time>2025-06-25T11:27:57.651Z</time>
      </trkpt>
      <trkpt lat="48.754215" lon="2.041235">
        <ele>159.733825</ele>
        <time>2025-06-25T11:27:59.753Z</time>
      </trkpt>
      <trkpt lat="48.754206" lon="2.041088">
        <ele>159.219065</ele>
        <time>2025-06-25T11:28:00.656Z</time>
      </trkpt>
      <trkpt lat="48.754166" lon="2.040965">
        <ele>158.740857</ele>
        <time>2025-06-25T11:28:01.479Z</time>
      </trkpt>
      <trkpt lat="48.754133" lon="2.040865">
        <ele>158.350940</ele>
        <time>2025-06-25T11:28:02.159Z</time>
      </trkpt>
      <trkpt lat="48.754111" lon="2.040760">
        <ele>157.966786</ele>
        <time>2025-06-25T11:28:02.823Z</time>
      </trkpt>
      <trkpt lat="48.754095" lon="2.040684">
        <ele>157.688608</ele>
        <time>2025-06-25T11:28:03.314Z</time>
      </trkpt>
      <trkpt lat="48.754025" lon="2.040233">
        <ele>156.073083</ele>
        <time>2025-06-25T11:28:06.114Z</time>
      </trkpt>
      <trkpt lat="48.754055" lon="2.039691">
        <ele>154.176601</ele>
        <time>2025-06-25T11:28:09.383Z</time>
      </trkpt>
      <trkpt lat="48.754102" lon="2.039392">
        <ele>153.104833</ele>
        <time>2025-06-25T11:28:11.211Z</time>
      </trkpt>
      <trkpt lat="48.754241" lon="2.038664">
        <ele>151.406687</ele>
        <time>2025-06-25T11:28:15.892Z</time>
      </trkpt>
      <trkpt lat="48.754249" lon="2.038486">
        <ele>151.396377</ele>
        <time>2025-06-25T11:28:17.081Z</time>
      </trkpt>
      <trkpt lat="48.754213" lon="2.038252">
        <ele>151.382491</ele>
        <time>2025-06-25T11:28:18.788Z</time>
      </trkpt>
      <trkpt lat="48.754053" lon="2.037883">
        <ele>151.356969</ele>
        <time>2025-06-25T11:28:22.536Z</time>
      </trkpt>
      <trkpt lat="48.752696" lon="2.035219">
        <ele>153.535584</ele>
        <time>2025-06-25T11:29:15.104Z</time>
      </trkpt>
      <trkpt lat="48.752386" lon="2.034609">
        <ele>154.521296</ele>
        <time>2025-06-25T11:29:26.284Z</time>
      </trkpt>
      <trkpt lat="48.747867" lon="2.025645">
        <ele>161.624988</ele>
        <time>2025-06-25T11:31:43.754Z</time>
      </trkpt>
      <trkpt lat="48.747769" lon="2.025396">
        <ele>161.776255</ele>
        <time>2025-06-25T11:31:47.548Z</time>
      </trkpt>
      <trkpt lat="48.747760" lon="2.025370">
        <ele>161.791573</ele>
        <time>2025-06-25T11:31:47.965Z</time>
      </trkpt>
      <trkpt lat="48.747777" lon="2.025326">
        <ele>161.818176</ele>
        <time>2025-06-25T11:31:48.568Z</time>
      </trkpt>
      <trkpt lat="48.747786" lon="2.025266">
        <ele>161.850274</ele>
        <time>2025-06-25T11:31:49.341Z</time>
      </trkpt>
      <trkpt lat="48.747765" lon="2.025153">
        <ele>161.911516</ele>
        <time>2025-06-25T11:31:50.930Z</time>
      </trkpt>
      <trkpt lat="48.747708" lon="2.025082">
        <ele>161.969869</ele>
        <time>2025-06-25T11:31:52.315Z</time>
      </trkpt>
      <trkpt lat="48.747626" lon="2.025079">
        <ele>162.034760</ele>
        <time>2025-06-25T11:31:54.015Z</time>
      </trkpt>
      <trkpt lat="48.747518" lon="2.024963">
        <ele>162.139458</ele>
        <time>2025-06-25T11:31:56.583Z</time>
      </trkpt>
      <trkpt lat="48.746732" lon="2.023456">
        <ele>162.339832</ele>
        <time>2025-06-25T11:32:19.194Z</time>
      </trkpt>
      <trkpt lat="48.746523" lon="2.022963">
        <ele>161.369804</ele>
        <time>2025-06-25T11:32:24.165Z</time>
      </trkpt>
      <trkpt lat="48.746336" lon="2.022356">
        <ele>160.260942</ele>
        <time>2025-06-25T11:32:29.081Z</time>
      </trkpt>
      <trkpt lat="48.746183" lon="2.021760">
        <ele>159.202403</ele>
        <time>2025-06-25T11:32:33.276Z</time>
      </trkpt>
      <trkpt lat="48.745879" lon="2.021075">
        <ele>156.445410</ele>
        <time>2025-06-25T11:32:38.339Z</time>
      </trkpt>
      <trkpt lat="48.744989" lon="2.019299">
        <ele>144.186631</ele>
        <time>2025-06-25T11:32:51.147Z</time>
      </trkpt>
      <trkpt lat="48.744888" lon="2.019156">
        <ele>143.076429</ele>
        <time>2025-06-25T11:32:52.332Z</time>
      </trkpt>
      <trkpt lat="48.744636" lon="2.018912">
        <ele>140.836215</ele>
        <time>2025-06-25T11:32:54.903Z</time>
      </trkpt>
      <trkpt lat="48.744444" lon="2.018812">
        <ele>139.315128</ele>
        <time>2025-06-25T11:32:56.663Z</time>
      </trkpt>
      <trkpt lat="48.744265" lon="2.018816">
        <ele>137.973782</ele>
        <time>2025-06-25T11:32:58.217Z</time>
      </trkpt>
      <trkpt lat="48.744098" lon="2.018869">
        <ele>136.695388</ele>
        <time>2025-06-25T11:32:59.718Z</time>
      </trkpt>
      <trkpt lat="48.743721" lon="2.019152">
        <ele>133.543491</ele>
        <time>2025-06-25T11:33:03.472Z</time>
      </trkpt>
      <trkpt lat="48.742921" lon="2.019909">
        <ele>127.837002</ele>
        <time>2025-06-25T11:33:12.520Z</time>
      </trkpt>
      <trkpt lat="48.742369" lon="2.020217">
        <ele>125.145907</ele>
        <time>2025-06-25T11:33:18.299Z</time>
      </trkpt>
      <trkpt lat="48.742169" lon="2.020482">
        <ele>123.930752</ele>
        <time>2025-06-25T11:33:20.830Z</time>
      </trkpt>
      <trkpt lat="48.741991" lon="2.020906">
        <ele>122.414241</ele>
        <time>2025-06-25T11:33:23.944Z</time>
      </trkpt>
      <trkpt lat="48.741884" lon="2.021057">
        <ele>121.745488</ele>
        <time>2025-06-25T11:33:25.316Z</time>
      </trkpt>
      <trkpt lat="48.741251" lon="2.021553">
        <ele>118.234916</ele>
        <time>2025-06-25T11:33:32.005Z</time>
      </trkpt>
      <trkpt lat="48.741056" lon="2.021775">
        <ele>117.033334</ele>
        <time>2025-06-25T11:33:34.320Z</time>
      </trkpt>
      <trkpt lat="48.740552" lon="2.022873">
        <ele>112.695001</ele>
        <time>2025-06-25T11:33:42.753Z</time>
      </trkpt>
      <trkpt lat="48.740436" lon="2.022978">
        <ele>112.061087</ele>
        <time>2025-06-25T11:33:44.019Z</time>
      </trkpt>
      <trkpt lat="48.740243" lon="2.023028">
        <ele>111.142343</ele>
        <time>2025-06-25T11:33:45.837Z</time>
      </trkpt>
      <trkpt lat="48.740142" lon="2.022994">
        <ele>110.656878</ele>
        <time>2025-06-25T11:33:46.800Z</time>
      </trkpt>
      <trkpt lat="48.740043" lon="2.022910">
        <ele>110.124556</ele>
        <time>2025-06-25T11:33:47.838Z</time>
      </trkpt>
      <trkpt lat="48.739916" lon="2.022665">
        <ele>109.160231</ele>
        <time>2025-06-25T11:33:49.736Z</time>
      </trkpt>
      <trkpt lat="48.739557" lon="2.021556">
        <ele>105.337271</ele>
        <time>2025-06-25T11:33:57.343Z</time>
      </trkpt>
      <trkpt lat="48.739506" lon="2.021394">
        <ele>104.781768</ele>
        <time>2025-06-25T11:33:58.493Z</time>
      </trkpt>
      <trkpt lat="48.739454" lon="2.021237">
        <ele>104.484864</ele>
        <time>2025-06-25T11:33:59.645Z</time>
      </trkpt>
      <trkpt lat="48.739103" lon="2.020193">
        <ele>105.385883</ele>
        <time>2025-06-25T11:34:09.581Z</time>
      </trkpt>
      <trkpt lat="48.738641" lon="2.018827">
        <ele>106.707358</ele>
        <time>2025-06-25T11:34:37.463Z</time>
      </trkpt>
      <trkpt lat="48.738172" lon="2.017441">
        <ele>112.952940</ele>
        <time>2025-06-25T11:35:15.729Z</time>
      </trkpt>
      <trkpt lat="48.737969" lon="2.016894">
        <ele>115.469391</ele>
        <time>2025-06-25T11:35:33.941Z</time>
      </trkpt>
      <trkpt lat="48.737971" lon="2.016743">
        <ele>116.074914</ele>
        <time>2025-06-25T11:35:38.492Z</time>
      </trkpt>
      <trkpt lat="48.737898" lon="2.016641">
        <ele>116.678389</ele>
        <time>2025-06-25T11:35:42.942Z</time>
      </trkpt>
      <trkpt lat="48.737847" lon="2.016514">
        <ele>117.274534</ele>
        <time>2025-06-25T11:35:47.407Z</time>
      </trkpt>
      <trkpt lat="48.737724" lon="2.016109">
        <ele>119.294660</ele>
        <time>2025-06-25T11:36:01.068Z</time>
      </trkpt>
      <trkpt lat="48.737693" lon="2.015994">
        <ele>119.865351</ele>
        <time>2025-06-25T11:36:04.915Z</time>
      </trkpt>
      <trkpt lat="48.737652" lon="2.015852">
        <ele>120.577419</ele>
        <time>2025-06-25T11:36:09.739Z</time>
      </trkpt>
      <trkpt lat="48.736775" lon="2.013256">
        <ele>133.935355</ele>
        <time>2025-06-25T11:37:29.581Z</time>
      </trkpt>
      <trkpt lat="48.736547" lon="2.012659">
        <ele>137.072024</ele>
        <time>2025-06-25T11:37:48.279Z</time>
      </trkpt>
      <trkpt lat="48.736445" lon="2.012451">
        <ele>138.250530</ele>
        <time>2025-06-25T11:37:55.562Z</time>
      </trkpt>
      <trkpt lat="48.736159" lon="2.012059">
        <ele>140.908403</ele>
        <time>2025-06-25T11:38:12.444Z</time>
      </trkpt>
      <trkpt lat="48.735411" lon="2.011383">
        <ele>146.436330</ele>
        <time>2025-06-25T11:38:51.455Z</time>
      </trkpt>
      <trkpt lat="48.734995" lon="2.010854">
        <ele>149.785452</ele>
        <time>2025-06-25T11:39:13.928Z</time>
      </trkpt>
      <trkpt lat="48.734635" lon="2.010257">
        <ele>153.076427</ele>
        <time>2025-06-25T11:39:33.196Z</time>
      </trkpt>
      <trkpt lat="48.734144" lon="2.009323">
        <ele>154.971649</ele>
        <time>2025-06-25T11:39:55.150Z</time>
      </trkpt>
      <trkpt lat="48.732428" lon="2.006219">
        <ele>158.296089</ele>
        <time>2025-06-25T11:40:43.576Z</time>
      </trkpt>
      <trkpt lat="48.732411" lon="2.006188">
        <ele>158.314585</ele>
        <time>2025-06-25T11:40:43.980Z</time>
      </trkpt>
      <trkpt lat="48.731150" lon="2.003889">
        <ele>159.126105</ele>
        <time>2025-06-25T11:41:14.668Z</time>
      </trkpt>
      <trkpt lat="48.730866" lon="2.003538">
        <ele>159.848385</ele>
        <time>2025-06-25T11:41:21.951Z</time>
      </trkpt>
      <trkpt lat="48.730534" lon="2.003351">
        <ele>160.554453</ele>
        <time>2025-06-25T11:41:29.931Z</time>
      </trkpt>
      <trkpt lat="48.730357" lon="2.003305">
        <ele>160.912462</ele>
        <time>2025-06-25T11:41:34.199Z</time>
      </trkpt>
      <trkpt lat="48.729448" lon="2.003223">
        <ele>162.725146</ele>
        <time>2025-06-25T11:41:57.329Z</time>
      </trkpt>
      <trkpt lat="48.728927" lon="2.003194">
        <ele>163.566342</ele>
        <time>2025-06-25T11:42:10.385Z</time>
      </trkpt>
      <trkpt lat="48.727830" lon="2.003094">
        <ele>165.339541</ele>
        <time>2025-06-25T11:42:33.350Z</time>
      </trkpt>
      <trkpt lat="48.727624" lon="2.003024">
        <ele>165.592674</ele>
        <time>2025-06-25T11:42:36.919Z</time>
      </trkpt>
      <trkpt lat="48.727354" lon="2.002998">
        <ele>165.435149</ele>
        <time>2025-06-25T11:42:41.126Z</time>
      </trkpt>
      <trkpt lat="48.727191" lon="2.002985">
        <ele>165.340111</ele>
        <time>2025-06-25T11:42:43.454Z</time>
      </trkpt>
      <trkpt lat="48.726731" lon="2.002999">
        <ele>165.072221</ele>
        <time>2025-06-25T11:42:49.493Z</time>
      </trkpt>
      <trkpt lat="48.726149" lon="2.002935">
        <ele>164.732460</ele>
        <time>2025-06-25T11:42:56.440Z</time>
      </trkpt>
      <trkpt lat="48.721021" lon="2.002522">
        <ele>158.136450</ele>
        <time>2025-06-25T11:43:55.992Z</time>
      </trkpt>
      <trkpt lat="48.720427" lon="2.002250">
        <ele>157.624149</ele>
        <time>2025-06-25T11:44:04.437Z</time>
      </trkpt>
      <trkpt lat="48.720309" lon="2.002141">
        <ele>157.690137</ele>
        <time>2025-06-25T11:44:06.552Z</time>
      </trkpt>
      <trkpt lat="48.720235" lon="2.001931">
        <ele>157.765142</ele>
        <time>2025-06-25T11:44:09.086Z</time>
      </trkpt>
      <trkpt lat="48.720181" lon="2.001882">
        <ele>157.795196</ele>
        <time>2025-06-25T11:44:10.142Z</time>
      </trkpt>
      <trkpt lat="48.720080" lon="2.001855">
        <ele>157.844171</ele>
        <time>2025-06-25T11:44:11.841Z</time>
      </trkpt>
      <trkpt lat="48.719994" lon="2.001891">
        <ele>157.886777</ele>
        <time>2025-06-25T11:44:13.357Z</time>
      </trkpt>
      <trkpt lat="48.719930" lon="2.001969">
        <ele>157.925993</ele>
        <time>2025-06-25T11:44:14.754Z</time>
      </trkpt>
      <trkpt lat="48.719887" lon="2.002079">
        <ele>157.966274</ele>
        <time>2025-06-25T11:44:16.170Z</time>
      </trkpt>
      <trkpt lat="48.719762" lon="2.002193">
        <ele>158.035938</ele>
        <time>2025-06-25T11:44:18.649Z</time>
      </trkpt>
      <trkpt lat="48.719232" lon="2.002352">
        <ele>158.293939</ele>
        <time>2025-06-25T11:44:28.058Z</time>
      </trkpt>
      <trkpt lat="48.718827" lon="2.002342">
        <ele>158.527155</ele>
        <time>2025-06-25T11:44:35.577Z</time>
      </trkpt>
      <trkpt lat="48.713093" lon="2.001869">
        <ele>163.800400</ele>
        <time>2025-06-25T11:46:22.532Z</time>
      </trkpt>
      <trkpt lat="48.710281" lon="2.001642">
        <ele>164.668698</ele>
        <time>2025-06-25T11:47:11.873Z</time>
      </trkpt>
      <trkpt lat="48.709475" lon="2.001604">
        <ele>161.646367</ele>
        <time>2025-06-25T11:47:20.625Z</time>
      </trkpt>
      <trkpt lat="48.709063" lon="2.001551">
        <ele>158.956995</ele>
        <time>2025-06-25T11:47:24.425Z</time>
      </trkpt>
      <trkpt lat="48.708439" lon="2.001505">
        <ele>154.893569</ele>
        <time>2025-06-25T11:47:29.879Z</time>
      </trkpt>
      <trkpt lat="48.707914" lon="2.001426">
        <ele>151.028511</ele>
        <time>2025-06-25T11:47:34.426Z</time>
      </trkpt>
      <trkpt lat="48.707790" lon="2.001287">
        <ele>149.729729</ele>
        <time>2025-06-25T11:47:35.744Z</time>
      </trkpt>
      <trkpt lat="48.707754" lon="2.001102">
        <ele>148.657967</ele>
        <time>2025-06-25T11:47:36.832Z</time>
      </trkpt>
      <trkpt lat="48.707761" lon="2.000936">
        <ele>147.733666</ele>
        <time>2025-06-25T11:47:37.770Z</time>
      </trkpt>
      <trkpt lat="48.707897" lon="2.000443">
        <ele>144.764460</ele>
        <time>2025-06-25T11:47:40.806Z</time>
      </trkpt>
      <trkpt lat="48.708173" lon="1.999867">
        <ele>140.809005</ele>
        <time>2025-06-25T11:47:44.958Z</time>
      </trkpt>
      <trkpt lat="48.708220" lon="1.999708">
        <ele>139.840899</ele>
        <time>2025-06-25T11:47:46.001Z</time>
      </trkpt>
      <trkpt lat="48.708370" lon="1.998873">
        <ele>136.598865</ele>
        <time>2025-06-25T11:47:51.423Z</time>
      </trkpt>
      <trkpt lat="48.708425" lon="1.998721">
        <ele>136.183229</ele>
        <time>2025-06-25T11:47:52.511Z</time>
      </trkpt>
      <trkpt lat="48.708500" lon="1.998639">
        <ele>135.847203</ele>
        <time>2025-06-25T11:47:53.401Z</time>
      </trkpt>
      <trkpt lat="48.708723" lon="1.998556">
        <ele>135.012874</ele>
        <time>2025-06-25T11:47:55.608Z</time>
      </trkpt>
      <trkpt lat="48.708832" lon="1.998471">
        <ele>134.567473</ele>
        <time>2025-06-25T11:47:56.806Z</time>
      </trkpt>
      <trkpt lat="48.709053" lon="1.997919">
        <ele>133.019441</ele>
        <time>2025-06-25T11:48:01.105Z</time>
      </trkpt>
      <trkpt lat="48.709090" lon="1.997778">
        <ele>132.655628</ele>
        <time>2025-06-25T11:48:02.351Z</time>
      </trkpt>
      <trkpt lat="48.709130" lon="1.997271">
        <ele>131.431379</ele>
        <time>2025-06-25T11:48:07.015Z</time>
      </trkpt>
      <trkpt lat="48.709187" lon="1.996900">
        <ele>130.160431</ele>
        <time>2025-06-25T11:48:09.794Z</time>
      </trkpt>
      <trkpt lat="48.709251" lon="1.996767">
        <ele>129.573641</ele>
        <time>2025-06-25T11:48:10.900Z</time>
      </trkpt>
      <trkpt lat="48.709327" lon="1.996689">
        <ele>129.077780</ele>
        <time>2025-06-25T11:48:11.811Z</time>
      </trkpt>
      <trkpt lat="48.709589" lon="1.996519">
        <ele>127.538130</ele>
        <time>2025-06-25T11:48:14.524Z</time>
      </trkpt>
      <trkpt lat="48.709716" lon="1.996444">
        <ele>126.801801</ele>
        <time>2025-06-25T11:48:15.772Z</time>
      </trkpt>
      <trkpt lat="48.709879" lon="1.996255">
        <ele>125.693063</ele>
        <time>2025-06-25T11:48:17.631Z</time>
      </trkpt>
      <trkpt lat="48.709921" lon="1.996028">
        <ele>124.852659</ele>
        <time>2025-06-25T11:48:19.031Z</time>
      </trkpt>
      <trkpt lat="48.709909" lon="1.995604">
        <ele>123.339819</ele>
        <time>2025-06-25T11:48:21.558Z</time>
      </trkpt>
      <trkpt lat="48.709942" lon="1.995360">
        <ele>122.451940</ele>
        <time>2025-06-25T11:48:23.031Z</time>
      </trkpt>
      <trkpt lat="48.710040" lon="1.995153">
        <ele>121.543769</ele>
        <time>2025-06-25T11:48:24.519Z</time>
      </trkpt>
      <trkpt lat="48.710267" lon="1.994865">
        <ele>119.532419</ele>
        <time>2025-06-25T11:48:27.130Z</time>
      </trkpt>
      <trkpt lat="48.710362" lon="1.994685">
        <ele>118.498080</ele>
        <time>2025-06-25T11:48:28.475Z</time>
      </trkpt>
      <trkpt lat="48.710458" lon="1.994050">
        <ele>115.574683</ele>
        <time>2025-06-25T11:48:32.306Z</time>
      </trkpt>
      <trkpt lat="48.710509" lon="1.993907">
        <ele>114.845240</ele>
        <time>2025-06-25T11:48:33.264Z</time>
      </trkpt>
      <trkpt lat="48.710783" lon="1.993555">
        <ele>112.402437</ele>
        <time>2025-06-25T11:48:36.520Z</time>
      </trkpt>
      <trkpt lat="48.710876" lon="1.993241">
        <ele>110.857941</ele>
        <time>2025-06-25T11:48:38.612Z</time>
      </trkpt>
      <trkpt lat="48.710925" lon="1.992784">
        <ele>108.806381</ele>
        <time>2025-06-25T11:48:41.468Z</time>
      </trkpt>
      <trkpt lat="48.711199" lon="1.992242">
        <ele>105.895102</ele>
        <time>2025-06-25T11:48:45.744Z</time>
      </trkpt>
      <trkpt lat="48.711223" lon="1.991971">
        <ele>104.729239</ele>
        <time>2025-06-25T11:48:47.362Z</time>
      </trkpt>
      <trkpt lat="48.711134" lon="1.991412">
        <ele>102.277349</ele>
        <time>2025-06-25T11:48:50.724Z</time>
      </trkpt>
      <trkpt lat="48.711151" lon="1.991301">
        <ele>101.791481</ele>
        <time>2025-06-25T11:48:51.392Z</time>
      </trkpt>
      <trkpt lat="48.711323" lon="1.990897">
        <ele>99.741458</ele>
        <time>2025-06-25T11:48:54.222Z</time>
      </trkpt>
      <trkpt lat="48.711341" lon="1.990803">
        <ele>99.324121</ele>
        <time>2025-06-25T11:48:54.802Z</time>
      </trkpt>
      <trkpt lat="48.711315" lon="1.990622">
        <ele>98.534292</ele>
        <time>2025-06-25T11:48:55.900Z</time>
      </trkpt>
      <trkpt lat="48.711274" lon="1.990506">
        <ele>97.973200</ele>
        <time>2025-06-25T11:48:56.690Z</time>
      </trkpt>
      <trkpt lat="48.711147" lon="1.990328">
        <ele>97.281305</ele>
        <time>2025-06-25T11:48:58.271Z</time>
      </trkpt>
      <trkpt lat="48.710816" lon="1.990072">
        <ele>96.117633</ele>
        <time>2025-06-25T11:49:01.739Z</time>
      </trkpt>
      <trkpt lat="48.710717" lon="1.990005">
        <ele>95.778116</ele>
        <time>2025-06-25T11:49:02.759Z</time>
      </trkpt>
      <trkpt lat="48.710428" lon="1.989843">
        <ele>94.813214</ele>
        <time>2025-06-25T11:49:05.694Z</time>
      </trkpt>
      <trkpt lat="48.710130" lon="1.989745">
        <ele>93.858335</ele>
        <time>2025-06-25T11:49:08.776Z</time>
      </trkpt>
      <trkpt lat="48.709250" lon="1.989575">
        <ele>92.553750</ele>
        <time>2025-06-25T11:49:22.898Z</time>
      </trkpt>
      <trkpt lat="48.708371" lon="1.989406">
        <ele>93.997513</ele>
        <time>2025-06-25T11:49:44.935Z</time>
      </trkpt>
      <trkpt lat="48.707071" lon="1.989118">
        <ele>96.563240</ele>
        <time>2025-06-25T11:50:13.166Z</time>
      </trkpt>
      <trkpt lat="48.706919" lon="1.989118">
        <ele>96.901798</ele>
        <time>2025-06-25T11:50:15.655Z</time>
      </trkpt>
      <trkpt lat="48.706858" lon="1.988986">
        <ele>97.138662</ele>
        <time>2025-06-25T11:50:17.649Z</time>
      </trkpt>
      <trkpt lat="48.706658" lon="1.988391">
        <ele>98.120147</ele>
        <time>2025-06-25T11:50:27.383Z</time>
      </trkpt>
      <trkpt lat="48.706380" lon="1.987703">
        <ele>99.782871</ele>
        <time>2025-06-25T11:50:42.645Z</time>
      </trkpt>
      <trkpt lat="48.706510" lon="1.987564">
        <ele>100.666362</ele>
        <time>2025-06-25T11:50:48.127Z</time>
      </trkpt>
      <trkpt lat="48.706602" lon="1.987516">
        <ele>101.206663</ele>
        <time>2025-06-25T11:50:51.602Z</time>
      </trkpt>
      <trkpt lat="48.707296" lon="1.987302">
        <ele>105.139362</ele>
        <time>2025-06-25T11:51:19.997Z</time>
      </trkpt>
      <trkpt lat="48.707498" lon="1.987156">
        <ele>106.382106</ele>
        <time>2025-06-25T11:51:29.870Z</time>
      </trkpt>
      <trkpt lat="48.707860" lon="1.986485">
        <ele>109.340101</ele>
        <time>2025-06-25T11:51:53.022Z</time>
      </trkpt>
      <trkpt lat="48.708235" lon="1.985666">
        <ele>111.629453</ele>
        <time>2025-06-25T11:52:13.632Z</time>
      </trkpt>
      <trkpt lat="48.708299" lon="1.985440">
        <ele>112.194258</ele>
        <time>2025-06-25T11:52:17.925Z</time>
      </trkpt>
      <trkpt lat="48.708547" lon="1.984323">
        <ele>114.900853</ele>
        <time>2025-06-25T11:52:36.888Z</time>
      </trkpt>
      <trkpt lat="48.708607" lon="1.984052">
        <ele>115.477020</ele>
        <time>2025-06-25T11:52:41.160Z</time>
      </trkpt>
      <trkpt lat="48.708726" lon="1.983720">
        <ele>116.129242</ele>
        <time>2025-06-25T11:52:46.455Z</time>
      </trkpt>
      <trkpt lat="48.708679" lon="1.983635">
        <ele>116.320682</ele>
        <time>2025-06-25T11:52:48.601Z</time>
      </trkpt>
      <trkpt lat="48.708694" lon="1.983438">
        <ele>116.663019</ele>
        <time>2025-06-25T11:52:52.291Z</time>
      </trkpt>
      <trkpt lat="48.709007" lon="1.982233">
        <ele>118.898559</ele>
        <time>2025-06-25T11:53:18.878Z</time>
      </trkpt>
      <trkpt lat="48.709191" lon="1.981412">
        <ele>120.752799</ele>
        <time>2025-06-25T11:53:37.352Z</time>
      </trkpt>
      <trkpt lat="48.709364" lon="1.980414">
        <ele>123.930153</ele>
        <time>2025-06-25T11:54:00.859Z</time>
      </trkpt>
      <trkpt lat="48.709389" lon="1.980060">
        <ele>125.026429</ele>
        <time>2025-06-25T11:54:09.927Z</time>
      </trkpt>
      <trkpt lat="48.709361" lon="1.979781">
        <ele>125.895416</ele>
        <time>2025-06-25T11:54:17.417Z</time>
      </trkpt>
      <trkpt lat="48.709265" lon="1.979481">
        <ele>126.922078</ele>
        <time>2025-06-25T11:54:26.706Z</time>
      </trkpt>
      <trkpt lat="48.709102" lon="1.979186">
        <ele>128.106855</ele>
        <time>2025-06-25T11:54:38.186Z</time>
      </trkpt>
      <trkpt lat="48.708559" lon="1.978421">
        <ele>133.186786</ele>
        <time>2025-06-25T11:55:15.395Z</time>
      </trkpt>
      <trkpt lat="48.708190" lon="1.977753">
        <ele>137.213248</ele>
        <time>2025-06-25T11:55:45.814Z</time>
      </trkpt>
      <trkpt lat="48.706693" lon="1.974229">
        <ele>153.107984</ele>
        <time>2025-06-25T11:57:48.436Z</time>
      </trkpt>
      <trkpt lat="48.705751" lon="1.971893">
        <ele>157.718812</ele>
        <time>2025-06-25T11:58:42.610Z</time>
      </trkpt>
      <trkpt lat="48.705280" lon="1.970762">
        <ele>157.839251</ele>
        <time>2025-06-25T11:58:59.463Z</time>
      </trkpt>
      <trkpt lat="48.704885" lon="1.968857">
        <ele>157.462234</ele>
        <time>2025-06-25T11:59:21.373Z</time>
      </trkpt>
      <trkpt lat="48.704874" lon="1.968721">
        <ele>157.415055</ele>
        <time>2025-06-25T11:59:22.940Z</time>
      </trkpt>
      <trkpt lat="48.704600" lon="1.965290">
        <ele>158.144980</ele>
        <time>2025-06-25T12:00:11.848Z</time>
      </trkpt>
      <trkpt lat="48.704596" lon="1.964986">
        <ele>158.311872</ele>
        <time>2025-06-25T12:00:17.524Z</time>
      </trkpt>
      <trkpt lat="48.704593" lon="1.964825">
        <ele>158.400277</ele>
        <time>2025-06-25T12:00:20.606Z</time>
      </trkpt>
      <trkpt lat="48.704580" lon="1.963922">
        <ele>159.682158</ele>
        <time>2025-06-25T12:00:39.000Z</time>
      </trkpt>
      <trkpt lat="48.704730" lon="1.962558">
        <ele>161.813076</ele>
        <time>2025-06-25T12:01:07.492Z</time>
      </trkpt>
      <trkpt lat="48.705430" lon="1.958387">
        <ele>166.611777</ele>
        <time>2025-06-25T12:02:24.880Z</time>
      </trkpt>
      <trkpt lat="48.705773" lon="1.957436">
        <ele>167.363322</ele>
        <time>2025-06-25T12:02:42.728Z</time>
      </trkpt>
      <trkpt lat="48.706450" lon="1.955397">
        <ele>167.545071</ele>
        <time>2025-06-25T12:03:11.894Z</time>
      </trkpt>
      <trkpt lat="48.706680" lon="1.953337">
        <ele>166.861574</ele>
        <time>2025-06-25T12:03:38.293Z</time>
      </trkpt>
      <trkpt lat="48.706600" lon="1.951830">
        <ele>166.086870</ele>
        <time>2025-06-25T12:03:56.082Z</time>
      </trkpt>
      <trkpt lat="48.706600" lon="1.951827">
        <ele>166.085333</ele>
        <time>2025-06-25T12:03:56.115Z</time>
      </trkpt>
      <trkpt lat="48.706560" lon="1.949012">
        <ele>163.198799</ele>
        <time>2025-06-25T12:04:25.676Z</time>
      </trkpt>
      <trkpt lat="48.706372" lon="1.948063">
        <ele>163.179930</ele>
        <time>2025-06-25T12:04:37.202Z</time>
      </trkpt>
      <trkpt lat="48.706037" lon="1.947038">
        <ele>163.274362</ele>
        <time>2025-06-25T12:04:53.825Z</time>
      </trkpt>
      <trkpt lat="48.705923" lon="1.946633">
        <ele>163.310713</ele>
        <time>2025-06-25T12:05:00.927Z</time>
      </trkpt>
      <trkpt lat="48.705875" lon="1.946464">
        <ele>163.325903</ele>
        <time>2025-06-25T12:05:03.971Z</time>
      </trkpt>
      <trkpt lat="48.705806" lon="1.945822">
        <ele>163.869518</ele>
        <time>2025-06-25T12:05:15.011Z</time>
      </trkpt>
      <trkpt lat="48.705428" lon="1.940091">
        <ele>169.067671</ele>
        <time>2025-06-25T12:06:53.694Z</time>
      </trkpt>
      <trkpt lat="48.705570" lon="1.939379">
        <ele>169.656082</ele>
        <time>2025-06-25T12:07:06.232Z</time>
      </trkpt>
      <trkpt lat="48.705930" lon="1.938063">
        <ele>170.577639</ele>
        <time>2025-06-25T12:07:29.066Z</time>
      </trkpt>
      <trkpt lat="48.705869" lon="1.937432">
        <ele>170.704777</ele>
        <time>2025-06-25T12:07:38.433Z</time>
      </trkpt>
      <trkpt lat="48.705112" lon="1.934273">
        <ele>171.231847</ele>
        <time>2025-06-25T12:08:23.390Z</time>
      </trkpt>
      <trkpt lat="48.705091" lon="1.933955">
        <ele>171.267365</ele>
        <time>2025-06-25T12:08:27.887Z</time>
      </trkpt>
      <trkpt lat="48.705098" lon="1.933677">
        <ele>171.298282</ele>
        <time>2025-06-25T12:08:31.844Z</time>
      </trkpt>
      <trkpt lat="48.705156" lon="1.933350">
        <ele>171.335913</ele>
        <time>2025-06-25T12:08:36.714Z</time>
      </trkpt>
      <trkpt lat="48.705344" lon="1.932639">
        <ele>171.534408</ele>
        <time>2025-06-25T12:08:47.994Z</time>
      </trkpt>
      <trkpt lat="48.706092" lon="1.929746">
        <ele>172.259000</ele>
        <time>2025-06-25T12:09:33.432Z</time>
      </trkpt>
      <trkpt lat="48.706723" lon="1.927647">
        <ele>172.309166</ele>
        <time>2025-06-25T12:10:03.700Z</time>
      </trkpt>
      <trkpt lat="48.706746" lon="1.927547">
        <ele>172.290336</ele>
        <time>2025-06-25T12:10:05.044Z</time>
      </trkpt>
      <trkpt lat="48.706704" lon="1.927264">
        <ele>172.238758</ele>
        <time>2025-06-25T12:10:08.730Z</time>
      </trkpt>
      <trkpt lat="48.706872" lon="1.927096">
        <ele>172.184522</ele>
        <time>2025-06-25T12:10:11.491Z</time>
      </trkpt>
      <trkpt lat="48.707041" lon="1.926766">
        <ele>172.110247</ele>
        <time>2025-06-25T12:10:15.268Z</time>
      </trkpt>
      <trkpt lat="48.707479" lon="1.925616">
        <ele>171.950755</ele>
        <time>2025-06-25T12:10:27.114Z</time>
      </trkpt>
      <trkpt lat="48.707534" lon="1.925332">
        <ele>171.978957</ele>
        <time>2025-06-25T12:10:29.740Z</time>
      </trkpt>
      <trkpt lat="48.707560" lon="1.925075">
        <ele>172.003731</ele>
        <time>2025-06-25T12:10:32.105Z</time>
      </trkpt>
      <trkpt lat="48.707537" lon="1.924573">
        <ele>172.051679</ele>
        <time>2025-06-25T12:10:36.863Z</time>
      </trkpt>
      <trkpt lat="48.707488" lon="1.924320">
        <ele>172.076803</ele>
        <time>2025-06-25T12:10:39.478Z</time>
      </trkpt>
      <trkpt lat="48.707377" lon="1.923944">
        <ele>172.116051</ele>
        <time>2025-06-25T12:10:43.721Z</time>
      </trkpt>
      <trkpt lat="48.706630" lon="1.921415">
        <ele>173.524607</ele>
        <time>2025-06-25T12:11:17.518Z</time>
      </trkpt>
      <trkpt lat="48.706584" lon="1.920931">
        <ele>173.842831</ele>
        <time>2025-06-25T12:11:24.035Z</time>
      </trkpt>
      <trkpt lat="48.706632" lon="1.920510">
        <ele>174.107412</ele>
        <time>2025-06-25T12:11:29.663Z</time>
      </trkpt>
      <trkpt lat="48.706721" lon="1.920177">
        <ele>174.321968</ele>
        <time>2025-06-25T12:11:34.404Z</time>
      </trkpt>
      <trkpt lat="48.707734" lon="1.917250">
        <ele>175.484550</ele>
        <time>2025-06-25T12:12:13.756Z</time>
      </trkpt>
      <trkpt lat="48.707813" lon="1.916930">
        <ele>175.455663</ele>
        <time>2025-06-25T12:12:16.956Z</time>
      </trkpt>
      <trkpt lat="48.708010" lon="1.915833">
        <ele>175.359538</ele>
        <time>2025-06-25T12:12:26.314Z</time>
      </trkpt>
      <trkpt lat="48.708138" lon="1.915211">
        <ele>174.777965</ele>
        <time>2025-06-25T12:12:31.267Z</time>
      </trkpt>
      <trkpt lat="48.708306" lon="1.914766">
        <ele>174.280488</ele>
        <time>2025-06-25T12:12:35.055Z</time>
      </trkpt>
      <trkpt lat="48.708417" lon="1.914567">
        <ele>174.027647</ele>
        <time>2025-06-25T12:12:36.927Z</time>
      </trkpt>
      <trkpt lat="48.709222" lon="1.913446">
        <ele>172.602865</ele>
        <time>2025-06-25T12:12:49.477Z</time>
      </trkpt>
      <trkpt lat="48.709503" lon="1.912898">
        <ele>172.354253</ele>
        <time>2025-06-25T12:12:55.272Z</time>
      </trkpt>
      <trkpt lat="48.709830" lon="1.911905">
        <ele>171.956698</ele>
        <time>2025-06-25T12:13:05.408Z</time>
      </trkpt>
      <trkpt lat="48.710835" lon="1.907443">
        <ele>172.045693</ele>
        <time>2025-06-25T12:13:51.637Z</time>
      </trkpt>
      <trkpt lat="48.710996" lon="1.905936">
        <ele>172.401318</ele>
        <time>2025-06-25T12:14:08.839Z</time>
      </trkpt>
      <trkpt lat="48.711013" lon="1.905264">
        <ele>172.732812</ele>
        <time>2025-06-25T12:14:17.134Z</time>
      </trkpt>
      <trkpt lat="48.711103" lon="1.904526">
        <ele>173.102756</ele>
        <time>2025-06-25T12:14:26.263Z</time>
      </trkpt>
      <trkpt lat="48.711265" lon="1.904052">
        <ele>173.365886</ele>
        <time>2025-06-25T12:14:32.650Z</time>
      </trkpt>
      <trkpt lat="48.711934" lon="1.902870">
        <ele>173.881348</ele>
        <time>2025-06-25T12:14:49.811Z</time>
      </trkpt>
      <trkpt lat="48.712285" lon="1.901953">
        <ele>174.123946</ele>
        <time>2025-06-25T12:15:01.258Z</time>
      </trkpt>
      <trkpt lat="48.712444" lon="1.901010">
        <ele>174.252763</ele>
        <time>2025-06-25T12:15:11.499Z</time>
      </trkpt>
      <trkpt lat="48.712494" lon="1.900598">
        <ele>174.198686</ele>
        <time>2025-06-25T12:15:15.609Z</time>
      </trkpt>
      <trkpt lat="48.712767" lon="1.898380">
        <ele>173.747725</ele>
        <time>2025-06-25T12:15:36.117Z</time>
      </trkpt>
      <trkpt lat="48.712987" lon="1.897089">
        <ele>172.569529</ele>
        <time>2025-06-25T12:15:47.142Z</time>
      </trkpt>
      <trkpt lat="48.713099" lon="1.896754">
        <ele>172.237685</ele>
        <time>2025-06-25T12:15:49.833Z</time>
      </trkpt>
      <trkpt lat="48.713256" lon="1.896503">
        <ele>171.932078</ele>
        <time>2025-06-25T12:15:52.289Z</time>
      </trkpt>
      <trkpt lat="48.713628" lon="1.896011">
        <ele>171.277956</ele>
        <time>2025-06-25T12:15:57.699Z</time>
      </trkpt>
      <trkpt lat="48.713699" lon="1.896106">
        <ele>171.154636</ele>
        <time>2025-06-25T12:15:58.712Z</time>
      </trkpt>
      <trkpt lat="48.713793" lon="1.896123">
        <ele>171.031374</ele>
        <time>2025-06-25T12:15:59.725Z</time>
      </trkpt>
      <trkpt lat="48.713839" lon="1.896098">
        <ele>170.967744</ele>
        <time>2025-06-25T12:16:00.228Z</time>
      </trkpt>
      <trkpt lat="48.713902" lon="1.896002">
        <ele>170.851420</ele>
        <time>2025-06-25T12:16:01.179Z</time>
      </trkpt>
      <trkpt lat="48.713920" lon="1.895868">
        <ele>170.733935</ele>
        <time>2025-06-25T12:16:02.117Z</time>
      </trkpt>
      <trkpt lat="48.713857" lon="1.895698">
        <ele>170.566423</ele>
        <time>2025-06-25T12:16:03.495Z</time>
      </trkpt>
      <trkpt lat="48.713730" lon="1.895657">
        <ele>170.397351</ele>
        <time>2025-06-25T12:16:04.899Z</time>
      </trkpt>
      <trkpt lat="48.713642" lon="1.895026">
        <ele>169.843261</ele>
        <time>2025-06-25T12:16:09.774Z</time>
      </trkpt>
      <trkpt lat="48.713554" lon="1.894383">
        <ele>169.279080</ele>
        <time>2025-06-25T12:16:16.076Z</time>
      </trkpt>
      <trkpt lat="48.713365" lon="1.893778">
        <ele>169.648740</ele>
        <time>2025-06-25T12:16:23.949Z</time>
      </trkpt>
      <trkpt lat="48.713046" lon="1.893296">
        <ele>170.216343</ele>
        <time>2025-06-25T12:16:32.582Z</time>
      </trkpt>
      <trkpt lat="48.711828" lon="1.892314">
        <ele>171.968682</ele>
        <time>2025-06-25T12:17:03.012Z</time>
      </trkpt>
      <trkpt lat="48.711530" lon="1.891888">
        <ele>172.499119</ele>
        <time>2025-06-25T12:17:11.700Z</time>
      </trkpt>
      <trkpt lat="48.711337" lon="1.891407">
        <ele>172.980101</ele>
        <time>2025-06-25T12:17:19.238Z</time>
      </trkpt>
      <trkpt lat="48.711246" lon="1.890847">
        <ele>173.472861</ele>
        <time>2025-06-25T12:17:26.436Z</time>
      </trkpt>
      <trkpt lat="48.711312" lon="1.890389">
        <ele>173.770160</ele>
        <time>2025-06-25T12:17:31.920Z</time>
      </trkpt>
      <trkpt lat="48.711140" lon="1.890337">
        <ele>173.747668</ele>
        <time>2025-06-25T12:17:34.899Z</time>
      </trkpt>
      <trkpt lat="48.710972" lon="1.890285">
        <ele>173.725679</ele>
        <time>2025-06-25T12:17:37.728Z</time>
      </trkpt>
      <trkpt lat="48.710295" lon="1.890246">
        <ele>173.638799</ele>
        <time>2025-06-25T12:17:48.093Z</time>
      </trkpt>
      <trkpt lat="48.707004" lon="1.890243">
        <ele>168.739070</ele>
        <time>2025-06-25T12:18:28.746Z</time>
      </trkpt>
      <trkpt lat="48.706837" lon="1.890224">
        <ele>168.067813</ele>
        <time>2025-06-25T12:18:30.355Z</time>
      </trkpt>
      <trkpt lat="48.706675" lon="1.890162">
        <ele>167.398091</ele>
        <time>2025-06-25T12:18:31.939Z</time>
      </trkpt>
      <trkpt lat="48.706517" lon="1.890044">
        <ele>166.692055</ele>
        <time>2025-06-25T12:18:33.570Z</time>
      </trkpt>
      <trkpt lat="48.706373" lon="1.889877">
        <ele>165.965235</ele>
        <time>2025-06-25T12:18:35.220Z</time>
      </trkpt>
      <trkpt lat="48.705941" lon="1.888734">
        <ele>161.283865</ele>
        <time>2025-06-25T12:18:42.891Z</time>
      </trkpt>
      <trkpt lat="48.705708" lon="1.888327">
        <ele>159.089177</ele>
        <time>2025-06-25T12:18:46.068Z</time>
      </trkpt>
      <trkpt lat="48.705553" lon="1.888148">
        <ele>157.886302</ele>
        <time>2025-06-25T12:18:47.843Z</time>
      </trkpt>
      <trkpt lat="48.705469" lon="1.888009">
        <ele>157.118588</ele>
        <time>2025-06-25T12:18:48.982Z</time>
      </trkpt>
      <trkpt lat="48.705358" lon="1.887642">
        <ele>155.474162</ele>
        <time>2025-06-25T12:18:51.476Z</time>
      </trkpt>
      <trkpt lat="48.705299" lon="1.886904">
        <ele>153.059344</ele>
        <time>2025-06-25T12:18:56.286Z</time>
      </trkpt>
      <trkpt lat="48.705269" lon="1.886113">
        <ele>151.551956</ele>
        <time>2025-06-25T12:19:01.726Z</time>
      </trkpt>
      <trkpt lat="48.705210" lon="1.885847">
        <ele>151.018062</ele>
        <time>2025-06-25T12:19:03.628Z</time>
      </trkpt>
      <trkpt lat="48.705138" lon="1.885696">
        <ele>150.663636</ele>
        <time>2025-06-25T12:19:04.871Z</time>
      </trkpt>
      <trkpt lat="48.704957" lon="1.885478">
        <ele>149.997073</ele>
        <time>2025-06-25T12:19:07.236Z</time>
      </trkpt>
      <trkpt lat="48.704917" lon="1.885429">
        <ele>149.848787</ele>
        <time>2025-06-25T12:19:07.752Z</time>
      </trkpt>
      <trkpt lat="48.704674" lon="1.885370">
        <ele>149.139300</ele>
        <time>2025-06-25T12:19:10.339Z</time>
      </trkpt>
      <trkpt lat="48.704467" lon="1.885357">
        <ele>148.542023</ele>
        <time>2025-06-25T12:19:12.554Z</time>
      </trkpt>
      <trkpt lat="48.704013" lon="1.885329">
        <ele>148.310226</ele>
        <time>2025-06-25T12:19:17.659Z</time>
      </trkpt>
      <trkpt lat="48.702522" lon="1.885264">
        <ele>147.955374</ele>
        <time>2025-06-25T12:19:42.043Z</time>
      </trkpt>
      <trkpt lat="48.702383" lon="1.885018">
        <ele>147.932466</ele>
        <time>2025-06-25T12:19:46.102Z</time>
      </trkpt>
      <trkpt lat="48.702080" lon="1.884870">
        <ele>147.898342</ele>
        <time>2025-06-25T12:19:51.746Z</time>
      </trkpt>
      <trkpt lat="48.701374" lon="1.884454">
        <ele>147.817148</ele>
        <time>2025-06-25T12:20:02.476Z</time>
      </trkpt>
      <trkpt lat="48.701309" lon="1.884428">
        <ele>147.809942</ele>
        <time>2025-06-25T12:20:03.308Z</time>
      </trkpt>
      <trkpt lat="48.701219" lon="1.884400">
        <ele>147.800094</ele>
        <time>2025-06-25T12:20:04.474Z</time>
      </trkpt>
      <trkpt lat="48.701187" lon="1.884410">
        <ele>147.796592</ele>
        <time>2025-06-25T12:20:04.874Z</time>
      </trkpt>
      <trkpt lat="48.701121" lon="1.884430">
        <ele>147.789378</ele>
        <time>2025-06-25T12:20:05.690Z</time>
      </trkpt>
      <trkpt lat="48.700969" lon="1.884572">
        <ele>147.742620</ele>
        <time>2025-06-25T12:20:07.887Z</time>
      </trkpt>
      <trkpt lat="48.700754" lon="1.884005">
        <ele>147.307674</ele>
        <time>2025-06-25T12:20:15.253Z</time>
      </trkpt>
      <trkpt lat="48.700573" lon="1.883603">
        <ele>146.983993</ele>
        <time>2025-06-25T12:20:20.760Z</time>
      </trkpt>
      <trkpt lat="48.700150" lon="1.882058">
        <ele>146.026385</ele>
        <time>2025-06-25T12:20:39.670Z</time>
      </trkpt>
      <trkpt lat="48.700000" lon="1.881544">
        <ele>146.300329</ele>
        <time>2025-06-25T12:20:46.322Z</time>
      </trkpt>
      <trkpt lat="48.699938" lon="1.881171">
        <ele>146.487823</ele>
        <time>2025-06-25T12:20:50.962Z</time>
      </trkpt>
      <trkpt lat="48.699869" lon="1.880287">
        <ele>146.921726</ele>
        <time>2025-06-25T12:21:03.898Z</time>
      </trkpt>
      <trkpt lat="48.699898" lon="1.879465">
        <ele>147.501869</ele>
        <time>2025-06-25T12:21:19.622Z</time>
      </trkpt>
      <trkpt lat="48.699841" lon="1.877999">
        <ele>152.013185</ele>
        <time>2025-06-25T12:21:57.696Z</time>
      </trkpt>
      <trkpt lat="48.699780" lon="1.877094">
        <ele>154.807782</ele>
        <time>2025-06-25T12:22:23.791Z</time>
      </trkpt>
      <trkpt lat="48.699624" lon="1.876184">
        <ele>157.671061</ele>
        <time>2025-06-25T12:22:48.749Z</time>
      </trkpt>
      <trkpt lat="48.699347" lon="1.875106">
        <ele>161.181169</ele>
        <time>2025-06-25T12:23:17.502Z</time>
      </trkpt>
      <trkpt lat="48.699044" lon="1.873313">
        <ele>166.123796</ele>
        <time>2025-06-25T12:24:03.688Z</time>
      </trkpt>
      <trkpt lat="48.698870" lon="1.872023">
        <ele>169.180689</ele>
        <time>2025-06-25T12:24:34.043Z</time>
      </trkpt>
      <trkpt lat="48.698821" lon="1.871310">
        <ele>170.402425</ele>
        <time>2025-06-25T12:24:47.922Z</time>
      </trkpt>
      <trkpt lat="48.698702" lon="1.870241">
        <ele>171.025118</ele>
        <time>2025-06-25T12:25:05.025Z</time>
      </trkpt>
      <trkpt lat="48.698681" lon="1.868113">
        <ele>172.132421</ele>
        <time>2025-06-25T12:25:34.439Z</time>
      </trkpt>
      <trkpt lat="48.698681" lon="1.868110">
        <ele>172.133677</ele>
        <time>2025-06-25T12:25:34.482Z</time>
      </trkpt>
      <trkpt lat="48.698439" lon="1.866618">
        <ele>172.777281</ele>
        <time>2025-06-25T12:25:58.452Z</time>
      </trkpt>
      <trkpt lat="48.698424" lon="1.866361">
        <ele>172.885361</ele>
        <time>2025-06-25T12:26:02.623Z</time>
      </trkpt>
      <trkpt lat="48.698433" lon="1.866108">
        <ele>172.987250</ele>
        <time>2025-06-25T12:26:06.690Z</time>
      </trkpt>
      <trkpt lat="48.698675" lon="1.864023">
        <ele>173.738067</ele>
        <time>2025-06-25T12:26:38.347Z</time>
      </trkpt>
      <trkpt lat="48.698849" lon="1.863879">
        <ele>173.844605</ele>
        <time>2025-06-25T12:26:42.503Z</time>
      </trkpt>
      <trkpt lat="48.701017" lon="1.862079">
        <ele>174.045887</ele>
        <time>2025-06-25T12:27:32.833Z</time>
      </trkpt>
      <trkpt lat="48.701151" lon="1.861851">
        <ele>174.033481</ele>
        <time>2025-06-25T12:27:35.849Z</time>
      </trkpt>
      <trkpt lat="48.701265" lon="1.861639">
        <ele>174.022368</ele>
        <time>2025-06-25T12:27:39.504Z</time>
      </trkpt>
      <trkpt lat="48.700954" lon="1.861242">
        <ele>173.997330</ele>
        <time>2025-06-25T12:27:45.516Z</time>
      </trkpt>
      <trkpt lat="48.699712" lon="1.859654">
        <ele>173.574815</ele>
        <time>2025-06-25T12:28:08.241Z</time>
      </trkpt>
      <trkpt lat="48.697677" lon="1.857078">
        <ele>172.538939</ele>
        <time>2025-06-25T12:28:43.197Z</time>
      </trkpt>
      <trkpt lat="48.697450" lon="1.856783">
        <ele>172.646707</ele>
        <time>2025-06-25T12:28:47.570Z</time>
      </trkpt>
      <trkpt lat="48.697474" lon="1.856715">
        <ele>172.665047</ele>
        <time>2025-06-25T12:28:48.338Z</time>
      </trkpt>
      <trkpt lat="48.697452" lon="1.856564">
        <ele>172.701826</ele>
        <time>2025-06-25T12:28:49.879Z</time>
      </trkpt>
      <trkpt lat="48.697357" lon="1.856502">
        <ele>172.739099</ele>
        <time>2025-06-25T12:28:51.486Z</time>
      </trkpt>
      <trkpt lat="48.697269" lon="1.856583">
        <ele>172.776203</ele>
        <time>2025-06-25T12:28:53.105Z</time>
      </trkpt>
      <trkpt lat="48.696558" lon="1.855860">
        <ele>173.084768</ele>
        <time>2025-06-25T12:29:08.145Z</time>
      </trkpt>
      <trkpt lat="48.696425" lon="1.855728">
        <ele>173.190560</ele>
        <time>2025-06-25T12:29:11.116Z</time>
      </trkpt>
      <trkpt lat="48.696343" lon="1.855651">
        <ele>173.304986</ele>
        <time>2025-06-25T12:29:12.975Z</time>
      </trkpt>
      <trkpt lat="48.695253" lon="1.854535">
        <ele>174.865370</ele>
        <time>2025-06-25T12:29:39.487Z</time>
      </trkpt>
      <trkpt lat="48.694894" lon="1.854236">
        <ele>175.289738</ele>
        <time>2025-06-25T12:29:47.630Z</time>
      </trkpt>
      <trkpt lat="48.694709" lon="1.854112">
        <ele>175.377488</ele>
        <time>2025-06-25T12:29:51.474Z</time>
      </trkpt>
      <trkpt lat="48.694348" lon="1.853929">
        <ele>175.542612</ele>
        <time>2025-06-25T12:29:58.471Z</time>
      </trkpt>
      <trkpt lat="48.694266" lon="1.853900">
        <ele>175.579137</ele>
        <time>2025-06-25T12:30:00.048Z</time>
      </trkpt>
      <trkpt lat="48.693528" lon="1.853695">
        <ele>175.904594</ele>
        <time>2025-06-25T12:30:12.592Z</time>
      </trkpt>
      <trkpt lat="48.693215" lon="1.853573">
        <ele>176.006506</ele>
        <time>2025-06-25T12:30:16.900Z</time>
      </trkpt>
      <trkpt lat="48.692902" lon="1.853406">
        <ele>175.617414</ele>
        <time>2025-06-25T12:30:20.930Z</time>
      </trkpt>
      <trkpt lat="48.692053" lon="1.852974">
        <ele>174.567298</ele>
        <time>2025-06-25T12:30:31.344Z</time>
      </trkpt>
      <trkpt lat="48.691518" lon="1.852723">
        <ele>173.923501</ele>
        <time>2025-06-25T12:30:37.622Z</time>
      </trkpt>
      <trkpt lat="48.691151" lon="1.852558">
        <ele>173.862835</ele>
        <time>2025-06-25T12:30:42.318Z</time>
      </trkpt>
      <trkpt lat="48.690809" lon="1.852413">
        <ele>173.806556</ele>
        <time>2025-06-25T12:30:47.211Z</time>
      </trkpt>
      <trkpt lat="48.691214" lon="1.851318">
        <ele>173.675254</ele>
        <time>2025-06-25T12:31:00.063Z</time>
      </trkpt>
      <trkpt lat="48.691487" lon="1.850771">
        <ele>173.838688</ele>
        <time>2025-06-25T12:31:08.454Z</time>
      </trkpt>
      <trkpt lat="48.693068" lon="1.848036">
        <ele>175.595750</ele>
        <time>2025-06-25T12:31:52.550Z</time>
      </trkpt>
      <trkpt lat="48.693134" lon="1.847942">
        <ele>175.642101</ele>
        <time>2025-06-25T12:31:54.029Z</time>
      </trkpt>
      <trkpt lat="48.693538" lon="1.847063">
        <ele>176.003863</ele>
        <time>2025-06-25T12:32:05.414Z</time>
      </trkpt>
      <trkpt lat="48.693890" lon="1.846272">
        <ele>176.050619</ele>
        <time>2025-06-25T12:32:14.868Z</time>
      </trkpt>
      <trkpt lat="48.694131" lon="1.845599">
        <ele>176.008588</ele>
        <time>2025-06-25T12:32:22.172Z</time>
      </trkpt>
      <trkpt lat="48.694392" lon="1.844875">
        <ele>175.963303</ele>
        <time>2025-06-25T12:32:30.060Z</time>
      </trkpt>
      <trkpt lat="48.694402" lon="1.844846">
        <ele>175.961507</ele>
        <time>2025-06-25T12:32:30.358Z</time>
      </trkpt>
      <trkpt lat="48.694923" lon="1.843258">
        <ele>175.562795</ele>
        <time>2025-06-25T12:32:46.221Z</time>
      </trkpt>
      <trkpt lat="48.695395" lon="1.840706">
        <ele>174.895628</ele>
        <time>2025-06-25T12:33:09.611Z</time>
      </trkpt>
      <trkpt lat="48.695586" lon="1.840158">
        <ele>174.754209</ele>
        <time>2025-06-25T12:33:15.096Z</time>
      </trkpt>
      <trkpt lat="48.695726" lon="1.839877">
        <ele>174.673868</ele>
        <time>2025-06-25T12:33:18.231Z</time>
      </trkpt>
      <trkpt lat="48.695924" lon="1.839598">
        <ele>174.580382</ele>
        <time>2025-06-25T12:33:21.929Z</time>
      </trkpt>
      <trkpt lat="48.696748" lon="1.838851">
        <ele>174.918751</ele>
        <time>2025-06-25T12:33:36.815Z</time>
      </trkpt>
      <trkpt lat="48.696146" lon="1.837630">
        <ele>175.348187</ele>
        <time>2025-06-25T12:34:00.008Z</time>
      </trkpt>
      <trkpt lat="48.695893" lon="1.836950">
        <ele>175.737742</ele>
        <time>2025-06-25T12:34:12.349Z</time>
      </trkpt>
      <trkpt lat="48.694665" lon="1.832114">
        <ele>178.129430</ele>
        <time>2025-06-25T12:35:31.172Z</time>
      </trkpt>
      <trkpt lat="48.694620" lon="1.831820">
        <ele>178.235210</ele>
        <time>2025-06-25T12:35:35.751Z</time>
      </trkpt>
      <trkpt lat="48.694615" lon="1.831617">
        <ele>178.306410</ele>
        <time>2025-06-25T12:35:38.819Z</time>
      </trkpt>
      <trkpt lat="48.694875" lon="1.830583">
        <ele>178.694228</ele>
        <time>2025-06-25T12:35:55.119Z</time>
      </trkpt>
      <trkpt lat="48.695077" lon="1.829249">
        <ele>178.905368</ele>
        <time>2025-06-25T12:36:14.071Z</time>
      </trkpt>
      <trkpt lat="48.695171" lon="1.828442">
        <ele>178.967158</ele>
        <time>2025-06-25T12:36:24.934Z</time>
      </trkpt>
      <trkpt lat="48.695169" lon="1.828271">
        <ele>178.980053</ele>
        <time>2025-06-25T12:36:27.197Z</time>
      </trkpt>
      <trkpt lat="48.695556" lon="1.826133">
        <ele>179.052810</ele>
        <time>2025-06-25T12:36:57.279Z</time>
      </trkpt>
      <trkpt lat="48.695721" lon="1.824517">
        <ele>179.017467</ele>
        <time>2025-06-25T12:37:19.090Z</time>
      </trkpt>
      <trkpt lat="48.696164" lon="1.822467">
        <ele>178.731785</ele>
        <time>2025-06-25T12:37:46.313Z</time>
      </trkpt>
      <trkpt lat="48.696523" lon="1.820333">
        <ele>178.480070</ele>
        <time>2025-06-25T12:38:14.934Z</time>
      </trkpt>
      <trkpt lat="48.696935" lon="1.818208">
        <ele>178.003894</ele>
        <time>2025-06-25T12:38:43.635Z</time>
      </trkpt>
      <trkpt lat="48.697820" lon="1.815182">
        <ele>177.154092</ele>
        <time>2025-06-25T12:39:23.130Z</time>
      </trkpt>
      <trkpt lat="48.698361" lon="1.813404">
        <ele>176.848353</ele>
        <time>2025-06-25T12:39:50.897Z</time>
      </trkpt>
      <trkpt lat="48.698757" lon="1.812524">
        <ele>176.732518</ele>
        <time>2025-06-25T12:40:04.308Z</time>
      </trkpt>
      <trkpt lat="48.699243" lon="1.811837">
        <ele>176.528575</ele>
        <time>2025-06-25T12:40:16.086Z</time>
      </trkpt>
      <trkpt lat="48.699579" lon="1.811295">
        <ele>176.340935</ele>
        <time>2025-06-25T12:40:24.989Z</time>
      </trkpt>
      <trkpt lat="48.699720" lon="1.810891">
        <ele>176.225613</ele>
        <time>2025-06-25T12:40:30.663Z</time>
      </trkpt>
      <trkpt lat="48.699970" lon="1.810147">
        <ele>176.014940</ele>
        <time>2025-06-25T12:40:41.646Z</time>
      </trkpt>
      <trkpt lat="48.700145" lon="1.809839">
        <ele>175.951040</ele>
        <time>2025-06-25T12:40:47.249Z</time>
      </trkpt>
      <trkpt lat="48.700607" lon="1.809268">
        <ele>175.816385</ele>
        <time>2025-06-25T12:40:59.876Z</time>
      </trkpt>
      <trkpt lat="48.700646" lon="1.809297">
        <ele>175.806573</ele>
        <time>2025-06-25T12:41:00.787Z</time>
      </trkpt>
      <trkpt lat="48.700683" lon="1.809262">
        <ele>175.796721</ele>
        <time>2025-06-25T12:41:01.658Z</time>
      </trkpt>
      <trkpt lat="48.700681" lon="1.809187">
        <ele>175.785533</ele>
        <time>2025-06-25T12:41:02.636Z</time>
      </trkpt>
      <trkpt lat="48.700639" lon="1.809158">
        <ele>175.775108</ele>
        <time>2025-06-25T12:41:03.556Z</time>
      </trkpt>
      <trkpt lat="48.700602" lon="1.809200">
        <ele>175.764667</ele>
        <time>2025-06-25T12:41:04.443Z</time>
      </trkpt>
      <trkpt lat="48.699818" lon="1.808582">
        <ele>175.521524</ele>
        <time>2025-06-25T12:41:20.380Z</time>
      </trkpt>
      <trkpt lat="48.699324" lon="1.808140">
        <ele>175.233157</ele>
        <time>2025-06-25T12:41:30.681Z</time>
      </trkpt>
      <trkpt lat="48.698071" lon="1.807033">
        <ele>174.723053</ele>
        <time>2025-06-25T12:41:58.013Z</time>
      </trkpt>
      <trkpt lat="48.697987" lon="1.806912">
        <ele>174.731082</ele>
        <time>2025-06-25T12:42:00.333Z</time>
      </trkpt>
      <trkpt lat="48.697398" lon="1.805344">
        <ele>174.813563</ele>
        <time>2025-06-25T12:42:25.199Z</time>
      </trkpt>
      <trkpt lat="48.697028" lon="1.804320">
        <ele>175.179517</ele>
        <time>2025-06-25T12:42:42.533Z</time>
      </trkpt>
      <trkpt lat="48.696883" lon="1.803535">
        <ele>175.471051</ele>
        <time>2025-06-25T12:42:55.104Z</time>
      </trkpt>
      <trkpt lat="48.695843" lon="1.798669">
        <ele>177.071732</ele>
        <time>2025-06-25T12:44:10.227Z</time>
      </trkpt>
      <trkpt lat="48.695797" lon="1.798434">
        <ele>177.131987</ele>
        <time>2025-06-25T12:44:13.644Z</time>
      </trkpt>
      <trkpt lat="48.695747" lon="1.798147">
        <ele>177.204954</ele>
        <time>2025-06-25T12:44:17.780Z</time>
      </trkpt>
      <trkpt lat="48.695596" lon="1.797600">
        <ele>177.350706</ele>
        <time>2025-06-25T12:44:25.946Z</time>
      </trkpt>
      <trkpt lat="48.692546" lon="1.789949">
        <ele>177.467883</ele>
        <time>2025-06-25T12:46:27.335Z</time>
      </trkpt>
      <trkpt lat="48.692102" lon="1.788926">
        <ele>176.850544</ele>
        <time>2025-06-25T12:46:41.414Z</time>
      </trkpt>
      <trkpt lat="48.691704" lon="1.787135">
        <ele>175.723065</ele>
        <time>2025-06-25T12:47:02.543Z</time>
      </trkpt>
      <trkpt lat="48.691621" lon="1.785961">
        <ele>174.930336</ele>
        <time>2025-06-25T12:47:16.065Z</time>
      </trkpt>
      <trkpt lat="48.691406" lon="1.785213">
        <ele>174.470253</ele>
        <time>2025-06-25T12:47:25.592Z</time>
      </trkpt>
      <trkpt lat="48.691170" lon="1.784638">
        <ele>174.203356</ele>
        <time>2025-06-25T12:47:33.796Z</time>
      </trkpt>
      <trkpt lat="48.690695" lon="1.782782">
        <ele>173.270181</ele>
        <time>2025-06-25T12:47:58.525Z</time>
      </trkpt>
      <trkpt lat="48.690356" lon="1.780958">
        <ele>171.437631</ele>
        <time>2025-06-25T12:48:19.430Z</time>
      </trkpt>
      <trkpt lat="48.690050" lon="1.779356">
        <ele>168.721488</ele>
        <time>2025-06-25T12:48:36.147Z</time>
      </trkpt>
      <trkpt lat="48.689915" lon="1.778187">
        <ele>166.380358</ele>
        <time>2025-06-25T12:48:47.553Z</time>
      </trkpt>
      <trkpt lat="48.689781" lon="1.777475">
        <ele>164.728565</ele>
        <time>2025-06-25T12:48:54.546Z</time>
      </trkpt>
      <trkpt lat="48.689620" lon="1.777032">
        <ele>163.408146</ele>
        <time>2025-06-25T12:48:59.284Z</time>
      </trkpt>
      <trkpt lat="48.689324" lon="1.776468">
        <ele>161.526801</ele>
        <time>2025-06-25T12:49:05.930Z</time>
      </trkpt>
      <trkpt lat="48.689177" lon="1.776238">
        <ele>160.690897</ele>
        <time>2025-06-25T12:49:08.870Z</time>
      </trkpt>
      <trkpt lat="48.688962" lon="1.775904">
        <ele>159.472798</ele>
        <time>2025-06-25T12:49:13.140Z</time>
      </trkpt>
      <trkpt lat="48.688765" lon="1.775471">
        <ele>158.112818</ele>
        <time>2025-06-25T12:49:17.970Z</time>
      </trkpt>
      <trkpt lat="48.688608" lon="1.775037">
        <ele>156.877789</ele>
        <time>2025-06-25T12:49:22.566Z</time>
      </trkpt>
      <trkpt lat="48.688423" lon="1.774447">
        <ele>155.247753</ele>
        <time>2025-06-25T12:49:28.661Z</time>
      </trkpt>
      <trkpt lat="48.688120" lon="1.773037">
        <ele>151.568552</ele>
        <time>2025-06-25T12:49:42.563Z</time>
      </trkpt>
      <trkpt lat="48.688061" lon="1.772850">
        <ele>151.272175</ele>
        <time>2025-06-25T12:49:44.516Z</time>
      </trkpt>
      <trkpt lat="48.687293" lon="1.771567">
        <ele>148.795575</ele>
        <time>2025-06-25T12:50:01.438Z</time>
      </trkpt>
      <trkpt lat="48.687137" lon="1.771237">
        <ele>148.215163</ele>
        <time>2025-06-25T12:50:06.018Z</time>
      </trkpt>
      <trkpt lat="48.687091" lon="1.771069">
        <ele>147.955077</ele>
        <time>2025-06-25T12:50:08.237Z</time>
      </trkpt>
      <trkpt lat="48.687062" lon="1.770901">
        <ele>147.706759</ele>
        <time>2025-06-25T12:50:10.468Z</time>
      </trkpt>
      <trkpt lat="48.687080" lon="1.770429">
        <ele>148.179996</ele>
        <time>2025-06-25T12:50:17.372Z</time>
      </trkpt>
      <trkpt lat="48.687331" lon="1.766694">
        <ele>151.174041</ele>
        <time>2025-06-25T12:51:28.498Z</time>
      </trkpt>
      <trkpt lat="48.687309" lon="1.766598">
        <ele>151.220804</ele>
        <time>2025-06-25T12:51:29.858Z</time>
      </trkpt>
      <trkpt lat="48.686952" lon="1.766370">
        <ele>151.490871</ele>
        <time>2025-06-25T12:51:35.023Z</time>
      </trkpt>
      <trkpt lat="48.686464" lon="1.766008">
        <ele>151.409574</ele>
        <time>2025-06-25T12:51:41.394Z</time>
      </trkpt>
      <trkpt lat="48.686297" lon="1.765903">
        <ele>151.094483</ele>
        <time>2025-06-25T12:51:43.358Z</time>
      </trkpt>
      <trkpt lat="48.685862" lon="1.765436">
        <ele>150.165361</ele>
        <time>2025-06-25T12:51:49.080Z</time>
      </trkpt>
      <trkpt lat="48.684373" lon="1.763074">
        <ele>146.868936</ele>
        <time>2025-06-25T12:52:13.540Z</time>
      </trkpt>
      <trkpt lat="48.683940" lon="1.762400">
        <ele>146.122664</ele>
        <time>2025-06-25T12:52:21.168Z</time>
      </trkpt>
      <trkpt lat="48.683713" lon="1.761988">
        <ele>146.102543</ele>
        <time>2025-06-25T12:52:25.815Z</time>
      </trkpt>
      <trkpt lat="48.681853" lon="1.758555">
        <ele>146.447425</ele>
        <time>2025-06-25T12:53:12.030Z</time>
      </trkpt>
      <trkpt lat="48.681170" lon="1.757486">
        <ele>146.247941</ele>
        <time>2025-06-25T12:53:28.197Z</time>
      </trkpt>
      <trkpt lat="48.680745" lon="1.756805">
        <ele>146.033637</ele>
        <time>2025-06-25T12:53:36.277Z</time>
      </trkpt>
      <trkpt lat="48.680569" lon="1.756394">
        <ele>145.921605</ele>
        <time>2025-06-25T12:53:40.120Z</time>
      </trkpt>
      <trkpt lat="48.680481" lon="1.756122">
        <ele>145.792699</ele>
        <time>2025-06-25T12:53:42.473Z</time>
      </trkpt>
      <trkpt lat="48.680343" lon="1.755667">
        <ele>145.474891</ele>
        <time>2025-06-25T12:53:46.394Z</time>
      </trkpt>
      <trkpt lat="48.680129" lon="1.755042">
        <ele>145.028023</ele>
        <time>2025-06-25T12:53:51.679Z</time>
      </trkpt>
      <trkpt lat="48.679828" lon="1.754571">
        <ele>144.611970</ele>
        <time>2025-06-25T12:53:56.573Z</time>
      </trkpt>
      <trkpt lat="48.679744" lon="1.754474">
        <ele>144.510425</ele>
        <time>2025-06-25T12:53:57.925Z</time>
      </trkpt>
      <trkpt lat="48.679474" lon="1.754321">
        <ele>144.233298</ele>
        <time>2025-06-25T12:54:02.052Z</time>
      </trkpt>
      <trkpt lat="48.678971" lon="1.754272">
        <ele>144.464421</ele>
        <time>2025-06-25T12:54:10.977Z</time>
      </trkpt>
      <trkpt lat="48.678581" lon="1.754232">
        <ele>144.747615</ele>
        <time>2025-06-25T12:54:18.523Z</time>
      </trkpt>
      <trkpt lat="48.678334" lon="1.754156">
        <ele>144.930217</ele>
        <time>2025-06-25T12:54:23.285Z</time>
      </trkpt>
      <trkpt lat="48.677819" lon="1.753832">
        <ele>145.334235</ele>
        <time>2025-06-25T12:54:34.508Z</time>
      </trkpt>
      <trkpt lat="48.677672" lon="1.753690">
        <ele>145.459580</ele>
        <time>2025-06-25T12:54:37.714Z</time>
      </trkpt>
      <trkpt lat="48.677524" lon="1.753417">
        <ele>145.360595</ele>
        <time>2025-06-25T12:54:41.395Z</time>
      </trkpt>
      <trkpt lat="48.677341" lon="1.752614">
        <ele>145.122543</ele>
        <time>2025-06-25T12:54:48.739Z</time>
      </trkpt>
      <trkpt lat="48.677262" lon="1.752440">
        <ele>145.063368</ele>
        <time>2025-06-25T12:54:50.420Z</time>
      </trkpt>
      <trkpt lat="48.677113" lon="1.752382">
        <ele>144.998077</ele>
        <time>2025-06-25T12:54:52.245Z</time>
      </trkpt>
      <trkpt lat="48.676833" lon="1.752460">
        <ele>144.877250</ele>
        <time>2025-06-25T12:54:55.678Z</time>
      </trkpt>
      <trkpt lat="48.676699" lon="1.752524">
        <ele>144.817619</ele>
        <time>2025-06-25T12:54:57.417Z</time>
      </trkpt>
      <trkpt lat="48.676288" lon="1.752744">
        <ele>144.731357</ele>
        <time>2025-06-25T12:55:03.079Z</time>
      </trkpt>
      <trkpt lat="48.676057" lon="1.752732">
        <ele>144.784664</ele>
        <time>2025-06-25T12:55:06.369Z</time>
      </trkpt>
      <trkpt lat="48.675806" lon="1.752649">
        <ele>144.843917</ele>
        <time>2025-06-25T12:55:10.354Z</time>
      </trkpt>
      <trkpt lat="48.675646" lon="1.752508">
        <ele>144.886612</ele>
        <time>2025-06-25T12:55:13.316Z</time>
      </trkpt>
      <trkpt lat="48.674775" lon="1.751994">
        <ele>145.102206</ele>
        <time>2025-06-25T12:55:29.390Z</time>
      </trkpt>
      <trkpt lat="48.674259" lon="1.751396">
        <ele>145.247252</ele>
        <time>2025-06-25T12:55:40.612Z</time>
      </trkpt>
      <trkpt lat="48.673994" lon="1.751038">
        <ele>145.326353</ele>
        <time>2025-06-25T12:55:46.597Z</time>
      </trkpt>
      <trkpt lat="48.673654" lon="1.750340">
        <ele>145.453931</ele>
        <time>2025-06-25T12:55:55.474Z</time>
      </trkpt>
      <trkpt lat="48.673296" lon="1.749484">
        <ele>145.285827</ele>
        <time>2025-06-25T12:56:04.445Z</time>
      </trkpt>
      <trkpt lat="48.673139" lon="1.749217">
        <ele>145.154968</ele>
        <time>2025-06-25T12:56:07.497Z</time>
      </trkpt>
      <trkpt lat="48.672989" lon="1.749027">
        <ele>145.046574</ele>
        <time>2025-06-25T12:56:10.025Z</time>
      </trkpt>
      <trkpt lat="48.672897" lon="1.748910">
        <ele>144.979982</ele>
        <time>2025-06-25T12:56:11.610Z</time>
      </trkpt>
      <trkpt lat="48.672803" lon="1.748606">
        <ele>144.857115</ele>
        <time>2025-06-25T12:56:14.534Z</time>
      </trkpt>
      <trkpt lat="48.672571" lon="1.747617">
        <ele>144.460032</ele>
        <time>2025-06-25T12:56:23.359Z</time>
      </trkpt>
      <trkpt lat="48.672488" lon="1.746987">
        <ele>144.152807</ele>
        <time>2025-06-25T12:56:28.651Z</time>
      </trkpt>
      <trkpt lat="48.672318" lon="1.745042">
        <ele>143.214525</ele>
        <time>2025-06-25T12:56:44.917Z</time>
      </trkpt>
      <trkpt lat="48.672303" lon="1.744666">
        <ele>143.231315</ele>
        <time>2025-06-25T12:56:48.193Z</time>
      </trkpt>
      <trkpt lat="48.672302" lon="1.744556">
        <ele>143.236870</ele>
        <time>2025-06-25T12:56:49.196Z</time>
      </trkpt>
      <trkpt lat="48.672259" lon="1.742952">
        <ele>143.317929</ele>
        <time>2025-06-25T12:57:05.950Z</time>
      </trkpt>
      <trkpt lat="48.672283" lon="1.742500">
        <ele>143.340825</ele>
        <time>2025-06-25T12:57:10.934Z</time>
      </trkpt>
      <trkpt lat="48.672759" lon="1.738315">
        <ele>143.980563</ele>
        <time>2025-06-25T12:57:56.535Z</time>
      </trkpt>
      <trkpt lat="48.672830" lon="1.737965">
        <ele>143.979540</ele>
        <time>2025-06-25T12:57:59.894Z</time>
      </trkpt>
      <trkpt lat="48.673070" lon="1.737065">
        <ele>143.976829</ele>
        <time>2025-06-25T12:58:08.541Z</time>
      </trkpt>
      <trkpt lat="48.673115" lon="1.736904">
        <ele>143.948365</ele>
        <time>2025-06-25T12:58:10.151Z</time>
      </trkpt>
      <trkpt lat="48.673244" lon="1.736400">
        <ele>143.828984</ele>
        <time>2025-06-25T12:58:15.075Z</time>
      </trkpt>
      <trkpt lat="48.673288" lon="1.736037">
        <ele>143.747475</ele>
        <time>2025-06-25T12:58:18.361Z</time>
      </trkpt>
      <trkpt lat="48.673287" lon="1.735872">
        <ele>143.711032</ele>
        <time>2025-06-25T12:58:19.836Z</time>
      </trkpt>
      <trkpt lat="48.673161" lon="1.735326">
        <ele>143.583293</ele>
        <time>2025-06-25T12:58:25.038Z</time>
      </trkpt>
      <trkpt lat="48.672451" lon="1.733027">
        <ele>142.843025</ele>
        <time>2025-06-25T12:58:47.958Z</time>
      </trkpt>
      <trkpt lat="48.672299" lon="1.732661">
        <ele>142.698828</ele>
        <time>2025-06-25T12:58:51.671Z</time>
      </trkpt>
      <trkpt lat="48.672202" lon="1.732502">
        <ele>142.626635</ele>
        <time>2025-06-25T12:58:53.502Z</time>
      </trkpt>
      <trkpt lat="48.671913" lon="1.732152">
        <ele>142.402961</ele>
        <time>2025-06-25T12:58:58.260Z</time>
      </trkpt>
      <trkpt lat="48.671628" lon="1.731861">
        <ele>141.992993</ele>
        <time>2025-06-25T12:59:02.614Z</time>
      </trkpt>
      <trkpt lat="48.671444" lon="1.731650">
        <ele>141.717714</ele>
        <time>2025-06-25T12:59:05.438Z</time>
      </trkpt>
      <trkpt lat="48.671009" lon="1.731192">
        <ele>141.085811</ele>
        <time>2025-06-25T12:59:11.754Z</time>
      </trkpt>
      <trkpt lat="48.670146" lon="1.730223">
        <ele>139.576293</ele>
        <time>2025-06-25T12:59:24.073Z</time>
      </trkpt>
      <trkpt lat="48.669878" lon="1.729703">
        <ele>138.827545</ele>
        <time>2025-06-25T12:59:28.890Z</time>
      </trkpt>
      <trkpt lat="48.669799" lon="1.729452">
        <ele>138.511921</ele>
        <time>2025-06-25T12:59:30.903Z</time>
      </trkpt>
      <trkpt lat="48.669739" lon="1.729111">
        <ele>138.111335</ele>
        <time>2025-06-25T12:59:33.458Z</time>
      </trkpt>
      <trkpt lat="48.669553" lon="1.727634">
        <ele>136.847859</ele>
        <time>2025-06-25T12:59:44.718Z</time>
      </trkpt>
      <trkpt lat="48.669449" lon="1.726826">
        <ele>136.415332</ele>
        <time>2025-06-25T12:59:51.549Z</time>
      </trkpt>
      <trkpt lat="48.669385" lon="1.726502">
        <ele>136.237644</ele>
        <time>2025-06-25T12:59:54.580Z</time>
      </trkpt>
      <trkpt lat="48.669320" lon="1.726278">
        <ele>136.109089</ele>
        <time>2025-06-25T12:59:56.844Z</time>
      </trkpt>
      <trkpt lat="48.668995" lon="1.725488">
        <ele>135.755833</ele>
        <time>2025-06-25T13:00:05.943Z</time>
      </trkpt>
      <trkpt lat="48.667832" lon="1.722682">
        <ele>135.633198</ele>
        <time>2025-06-25T13:00:36.465Z</time>
      </trkpt>
      <trkpt lat="48.667605" lon="1.721991">
        <ele>135.781653</ele>
        <time>2025-06-25T13:00:45.075Z</time>
      </trkpt>
      <trkpt lat="48.666893" lon="1.719878">
        <ele>136.206918</ele>
        <time>2025-06-25T13:01:12.585Z</time>
      </trkpt>
      <trkpt lat="48.666461" lon="1.718580">
        <ele>136.411802</ele>
        <time>2025-06-25T13:01:26.334Z</time>
      </trkpt>
      <trkpt lat="48.666408" lon="1.718212">
        <ele>136.281624</ele>
        <time>2025-06-25T13:01:29.657Z</time>
      </trkpt>
      <trkpt lat="48.666389" lon="1.717860">
        <ele>136.159560</ele>
        <time>2025-06-25T13:01:32.762Z</time>
      </trkpt>
      <trkpt lat="48.666385" lon="1.717016">
        <ele>135.867847</ele>
        <time>2025-06-25T13:01:40.263Z</time>
      </trkpt>
      <trkpt lat="48.666358" lon="1.714022">
        <ele>134.502493</ele>
        <time>2025-06-25T13:02:05.430Z</time>
      </trkpt>
      <trkpt lat="48.666331" lon="1.713439">
        <ele>134.200167</ele>
        <time>2025-06-25T13:02:10.123Z</time>
      </trkpt>
      <trkpt lat="48.666223" lon="1.712875">
        <ele>133.914833</ele>
        <time>2025-06-25T13:02:14.898Z</time>
      </trkpt>
      <trkpt lat="48.665426" lon="1.709502">
        <ele>132.210901</ele>
        <time>2025-06-25T13:02:45.539Z</time>
      </trkpt>
      <trkpt lat="48.665155" lon="1.708363">
        <ele>131.617164</ele>
        <time>2025-06-25T13:02:55.303Z</time>
      </trkpt>
      <trkpt lat="48.665082" lon="1.708146">
        <ele>131.497731</ele>
        <time>2025-06-25T13:02:57.330Z</time>
      </trkpt>
      <trkpt lat="48.664924" lon="1.707829">
        <ele>131.550388</ele>
        <time>2025-06-25T13:03:00.681Z</time>
      </trkpt>
      <trkpt lat="48.664800" lon="1.707645">
        <ele>131.602053</ele>
        <time>2025-06-25T13:03:03.028Z</time>
      </trkpt>
      <trkpt lat="48.664608" lon="1.707429">
        <ele>131.673233</ele>
        <time>2025-06-25T13:03:06.550Z</time>
      </trkpt>
      <trkpt lat="48.661961" lon="1.704880">
        <ele>133.615592</ele>
        <time>2025-06-25T13:04:02.926Z</time>
      </trkpt>
      <trkpt lat="48.661363" lon="1.704266">
        <ele>134.306178</ele>
        <time>2025-06-25T13:04:15.865Z</time>
      </trkpt>
      <trkpt lat="48.661186" lon="1.704009">
        <ele>134.540573</ele>
        <time>2025-06-25T13:04:20.614Z</time>
      </trkpt>
      <trkpt lat="48.661023" lon="1.703703">
        <ele>134.788741</ele>
        <time>2025-06-25T13:04:25.669Z</time>
      </trkpt>
      <trkpt lat="48.660788" lon="1.702975">
        <ele>135.280694</ele>
        <time>2025-06-25T13:04:36.397Z</time>
      </trkpt>
      <trkpt lat="48.660613" lon="1.700916">
        <ele>136.417451</ele>
        <time>2025-06-25T13:05:01.910Z</time>
      </trkpt>
      <trkpt lat="48.660591" lon="1.700557">
        <ele>136.614876</ele>
        <time>2025-06-25T13:05:05.550Z</time>
      </trkpt>
      <trkpt lat="48.660527" lon="1.699903">
        <ele>136.872506</ele>
        <time>2025-06-25T13:05:12.270Z</time>
      </trkpt>
      <trkpt lat="48.660485" lon="1.699704">
        <ele>136.951056</ele>
        <time>2025-06-25T13:05:14.409Z</time>
      </trkpt>
      <trkpt lat="48.660229" lon="1.699073">
        <ele>137.229489</ele>
        <time>2025-06-25T13:05:22.098Z</time>
      </trkpt>
      <trkpt lat="48.659459" lon="1.696934">
        <ele>137.718239</ele>
        <time>2025-06-25T13:05:52.199Z</time>
      </trkpt>
      <trkpt lat="48.658939" lon="1.695677">
        <ele>137.743255</ele>
        <time>2025-06-25T13:06:05.292Z</time>
      </trkpt>
      <trkpt lat="48.658648" lon="1.695017">
        <ele>136.901954</ele>
        <time>2025-06-25T13:06:11.112Z</time>
      </trkpt>
      <trkpt lat="48.658401" lon="1.694440">
        <ele>136.172981</ele>
        <time>2025-06-25T13:06:16.085Z</time>
      </trkpt>
      <trkpt lat="48.657994" lon="1.693586">
        <ele>135.056493</ele>
        <time>2025-06-25T13:06:23.762Z</time>
      </trkpt>
      <trkpt lat="48.657272" lon="1.691772">
        <ele>133.988024</ele>
        <time>2025-06-25T13:06:41.260Z</time>
      </trkpt>
      <trkpt lat="48.657204" lon="1.691623">
        <ele>133.904759</ele>
        <time>2025-06-25T13:06:42.986Z</time>
      </trkpt>
      <trkpt lat="48.657099" lon="1.691433">
        <ele>133.790864</ele>
        <time>2025-06-25T13:06:45.369Z</time>
      </trkpt>
      <trkpt lat="48.656409" lon="1.690486">
        <ele>133.452467</ele>
        <time>2025-06-25T13:06:59.222Z</time>
      </trkpt>
      <trkpt lat="48.655999" lon="1.690025">
        <ele>133.319658</ele>
        <time>2025-06-25T13:07:06.713Z</time>
      </trkpt>
      <trkpt lat="48.655879" lon="1.689926">
        <ele>133.284120</ele>
        <time>2025-06-25T13:07:08.565Z</time>
      </trkpt>
      <trkpt lat="48.655411" lon="1.689716">
        <ele>133.136391</ele>
        <time>2025-06-25T13:07:14.791Z</time>
      </trkpt>
      <trkpt lat="48.654479" lon="1.689418">
        <ele>132.472202</ele>
        <time>2025-06-25T13:07:26.763Z</time>
      </trkpt>
      <trkpt lat="48.653743" lon="1.689391">
        <ele>131.958864</ele>
        <time>2025-06-25T13:07:36.175Z</time>
      </trkpt>
      <trkpt lat="48.652883" lon="1.689493">
        <ele>131.914944</ele>
        <time>2025-06-25T13:07:47.784Z</time>
      </trkpt>
      <trkpt lat="48.652880" lon="1.689493">
        <ele>131.914942</ele>
        <time>2025-06-25T13:07:47.824Z</time>
      </trkpt>
      <trkpt lat="48.652476" lon="1.689484">
        <ele>131.914700</ele>
        <time>2025-06-25T13:07:54.228Z</time>
      </trkpt>
      <trkpt lat="48.652097" lon="1.689393">
        <ele>131.914471</ele>
        <time>2025-06-25T13:07:59.968Z</time>
      </trkpt>
      <trkpt lat="48.651754" lon="1.689211">
        <ele>132.328911</ele>
        <time>2025-06-25T13:08:05.457Z</time>
      </trkpt>
      <trkpt lat="48.650906" lon="1.688702">
        <ele>134.754147</ele>
        <time>2025-06-25T13:08:25.643Z</time>
      </trkpt>
      <trkpt lat="48.650740" lon="1.688648">
        <ele>135.205544</ele>
        <time>2025-06-25T13:08:30.235Z</time>
      </trkpt>
      <trkpt lat="48.650867" lon="1.688211">
        <ele>136.044057</ele>
        <time>2025-06-25T13:08:39.222Z</time>
      </trkpt>
      <trkpt lat="48.651644" lon="1.685677">
        <ele>145.537731</ele>
        <time>2025-06-25T13:09:50.361Z</time>
      </trkpt>
      <trkpt lat="48.652159" lon="1.684856">
        <ele>148.622673</ele>
        <time>2025-06-25T13:10:15.830Z</time>
      </trkpt>
      <trkpt lat="48.653462" lon="1.681262">
        <ele>157.025597</ele>
        <time>2025-06-25T13:11:27.838Z</time>
      </trkpt>
      <trkpt lat="48.654092" lon="1.679527">
        <ele>159.416266</ele>
        <time>2025-06-25T13:11:56.907Z</time>
      </trkpt>
      <trkpt lat="48.654401" lon="1.678674">
        <ele>160.403501</ele>
        <time>2025-06-25T13:12:09.706Z</time>
      </trkpt>
      <trkpt lat="48.654623" lon="1.678155">
        <ele>160.654176</ele>
        <time>2025-06-25T13:12:17.139Z</time>
      </trkpt>
      <trkpt lat="48.654829" lon="1.677803">
        <ele>160.601720</ele>
        <time>2025-06-25T13:12:22.361Z</time>
      </trkpt>
      <trkpt lat="48.655012" lon="1.677534">
        <ele>160.558649</ele>
        <time>2025-06-25T13:12:26.097Z</time>
      </trkpt>
      <trkpt lat="48.655634" lon="1.676791">
        <ele>160.424860</ele>
        <time>2025-06-25T13:12:36.150Z</time>
      </trkpt>
      <trkpt lat="48.656406" lon="1.675889">
        <ele>160.401783</ele>
        <time>2025-06-25T13:12:48.710Z</time>
      </trkpt>
      <trkpt lat="48.659646" lon="1.672085">
        <ele>161.212558</ele>
        <time>2025-06-25T13:13:52.821Z</time>
      </trkpt>
      <trkpt lat="48.660488" lon="1.671108">
        <ele>162.095463</ele>
        <time>2025-06-25T13:14:14.696Z</time>
      </trkpt>
      <trkpt lat="48.662308" lon="1.668964">
        <ele>164.036965</ele>
        <time>2025-06-25T13:14:57.537Z</time>
      </trkpt>
      <trkpt lat="48.669238" lon="1.660845">
        <ele>164.617278</ele>
        <time>2025-06-25T13:17:10.405Z</time>
      </trkpt>
      <trkpt lat="48.669656" lon="1.660218">
        <ele>164.242931</ele>
        <time>2025-06-25T13:17:17.853Z</time>
      </trkpt>
      <trkpt lat="48.670119" lon="1.659015">
        <ele>162.717559</ele>
        <time>2025-06-25T13:17:28.358Z</time>
      </trkpt>
      <trkpt lat="48.673128" lon="1.651203">
        <ele>147.545292</ele>
        <time>2025-06-25T13:18:31.025Z</time>
      </trkpt>
      <trkpt lat="48.673561" lon="1.648842">
        <ele>143.256779</ele>
        <time>2025-06-25T13:18:47.650Z</time>
      </trkpt>
      <trkpt lat="48.673721" lon="1.648352">
        <ele>142.330060</ele>
        <time>2025-06-25T13:18:51.431Z</time>
      </trkpt>
      <trkpt lat="48.673926" lon="1.647909">
        <ele>141.412982</ele>
        <time>2025-06-25T13:18:55.261Z</time>
      </trkpt>
      <trkpt lat="48.673885" lon="1.647874">
        <ele>141.292150</ele>
        <time>2025-06-25T13:18:55.772Z</time>
      </trkpt>
      <trkpt lat="48.673855" lon="1.647816">
        <ele>141.167248</ele>
        <time>2025-06-25T13:18:56.310Z</time>
      </trkpt>
      <trkpt lat="48.672942" lon="1.647180">
        <ele>139.637152</ele>
        <time>2025-06-25T13:19:08.010Z</time>
      </trkpt>
      <trkpt lat="48.672105" lon="1.646681">
        <ele>138.344279</ele>
        <time>2025-06-25T13:19:18.916Z</time>
      </trkpt>
      <trkpt lat="48.671037" lon="1.645920">
        <ele>136.283407</ele>
        <time>2025-06-25T13:19:31.772Z</time>
      </trkpt>
      <trkpt lat="48.670245" lon="1.645410">
        <ele>135.379569</ele>
        <time>2025-06-25T13:19:41.370Z</time>
      </trkpt>
      <trkpt lat="48.669778" lon="1.644807">
        <ele>135.691542</ele>
        <time>2025-06-25T13:19:51.258Z</time>
      </trkpt>
      <trkpt lat="48.669358" lon="1.644694">
        <ele>135.908380</ele>
        <time>2025-06-25T13:19:59.992Z</time>
      </trkpt>
      <trkpt lat="48.668910" lon="1.644569">
        <ele>136.139942</ele>
        <time>2025-06-25T13:20:10.344Z</time>
      </trkpt>
      <trkpt lat="48.668765" lon="1.644376">
        <ele>136.328238</ele>
        <time>2025-06-25T13:20:14.768Z</time>
      </trkpt>
      <trkpt lat="48.667466" lon="1.642086">
        <ele>137.849144</ele>
        <time>2025-06-25T13:20:52.411Z</time>
      </trkpt>
      <trkpt lat="48.667281" lon="1.641761">
        <ele>137.635864</ele>
        <time>2025-06-25T13:20:56.289Z</time>
      </trkpt>
      <trkpt lat="48.666474" lon="1.640189">
        <ele>136.552697</ele>
        <time>2025-06-25T13:21:11.482Z</time>
      </trkpt>
      <trkpt lat="48.666063" lon="1.639304">
        <ele>135.571575</ele>
        <time>2025-06-25T13:21:19.415Z</time>
      </trkpt>
      <trkpt lat="48.665205" lon="1.637148">
        <ele>133.524511</ele>
        <time>2025-06-25T13:21:39.584Z</time>
      </trkpt>
      <trkpt lat="48.665126" lon="1.636876">
        <ele>133.318487</ele>
        <time>2025-06-25T13:21:42.061Z</time>
      </trkpt>
      <trkpt lat="48.665012" lon="1.636325">
        <ele>132.918139</ele>
        <time>2025-06-25T13:21:46.833Z</time>
      </trkpt>
      <trkpt lat="48.664880" lon="1.635512">
        <ele>132.302293</ele>
        <time>2025-06-25T13:21:53.619Z</time>
      </trkpt>
      <trkpt lat="48.664624" lon="1.634297">
        <ele>130.928430</ele>
        <time>2025-06-25T13:22:03.152Z</time>
      </trkpt>
      <trkpt lat="48.664423" lon="1.633088">
        <ele>129.585385</ele>
        <time>2025-06-25T13:22:12.225Z</time>
      </trkpt>
      <trkpt lat="48.664342" lon="1.632665">
        <ele>129.156791</ele>
        <time>2025-06-25T13:22:15.475Z</time>
      </trkpt>
      <trkpt lat="48.663966" lon="1.630946">
        <ele>127.456712</ele>
        <time>2025-06-25T13:22:29.579Z</time>
      </trkpt>
      <trkpt lat="48.663779" lon="1.630235">
        <ele>126.778594</ele>
        <time>2025-06-25T13:22:35.540Z</time>
      </trkpt>
      <trkpt lat="48.663634" lon="1.629892">
        <ele>126.485577</ele>
        <time>2025-06-25T13:22:38.663Z</time>
      </trkpt>
      <trkpt lat="48.663306" lon="1.629323">
        <ele>125.942171</ele>
        <time>2025-06-25T13:22:44.488Z</time>
      </trkpt>
      <trkpt lat="48.663193" lon="1.629074">
        <ele>125.724794</ele>
        <time>2025-06-25T13:22:46.855Z</time>
      </trkpt>
      <trkpt lat="48.663124" lon="1.628768">
        <ele>125.492142</ele>
        <time>2025-06-25T13:22:49.400Z</time>
      </trkpt>
      <trkpt lat="48.663107" lon="1.628564">
        <ele>125.344196</ele>
        <time>2025-06-25T13:22:51.036Z</time>
      </trkpt>
      <trkpt lat="48.663048" lon="1.628063">
        <ele>124.978029</ele>
        <time>2025-06-25T13:22:55.237Z</time>
      </trkpt>
      <trkpt lat="48.663054" lon="1.627846">
        <ele>124.980234</ele>
        <time>2025-06-25T13:22:57.141Z</time>
      </trkpt>
      <trkpt lat="48.663170" lon="1.627036">
        <ele>125.111461</ele>
        <time>2025-06-25T13:23:05.203Z</time>
      </trkpt>
      <trkpt lat="48.663448" lon="1.624947">
        <ele>125.613460</ele>
        <time>2025-06-25T13:23:29.411Z</time>
      </trkpt>
      <trkpt lat="48.664071" lon="1.622702">
        <ele>126.953411</ele>
        <time>2025-06-25T13:23:59.098Z</time>
      </trkpt>
      <trkpt lat="48.664396" lon="1.621612">
        <ele>127.553955</ele>
        <time>2025-06-25T13:24:13.313Z</time>
      </trkpt>
      <trkpt lat="48.664452" lon="1.621372">
        <ele>127.681772</ele>
        <time>2025-06-25T13:24:16.269Z</time>
      </trkpt>
      <trkpt lat="48.664448" lon="1.621058">
        <ele>127.839479</ele>
        <time>2025-06-25T13:24:19.887Z</time>
      </trkpt>
      <trkpt lat="48.664354" lon="1.620618">
        <ele>128.071699</ele>
        <time>2025-06-25T13:24:25.188Z</time>
      </trkpt>
      <trkpt lat="48.664201" lon="1.620363">
        <ele>128.244698</ele>
        <time>2025-06-25T13:24:29.179Z</time>
      </trkpt>
      <trkpt lat="48.663351" lon="1.619647">
        <ele>129.594341</ele>
        <time>2025-06-25T13:24:47.259Z</time>
      </trkpt>
      <trkpt lat="48.663176" lon="1.619466">
        <ele>129.890501</ele>
        <time>2025-06-25T13:24:51.492Z</time>
      </trkpt>
      <trkpt lat="48.662979" lon="1.619186">
        <ele>130.268085</ele>
        <time>2025-06-25T13:24:57.152Z</time>
      </trkpt>
      <trkpt lat="48.662861" lon="1.618922">
        <ele>130.562299</ele>
        <time>2025-06-25T13:25:01.828Z</time>
      </trkpt>
      <trkpt lat="48.662769" lon="1.618616">
        <ele>130.990536</ele>
        <time>2025-06-25T13:25:07.112Z</time>
      </trkpt>
      <trkpt lat="48.662727" lon="1.618020">
        <ele>132.176994</ele>
        <time>2025-06-25T13:25:17.544Z</time>
      </trkpt>
      <trkpt lat="48.662732" lon="1.617398">
        <ele>133.408314</ele>
        <time>2025-06-25T13:25:29.362Z</time>
      </trkpt>
      <trkpt lat="48.662794" lon="1.616548">
        <ele>135.101089</ele>
        <time>2025-06-25T13:25:45.324Z</time>
      </trkpt>
      <trkpt lat="48.662653" lon="1.616503">
        <ele>135.532948</ele>
        <time>2025-06-25T13:25:49.299Z</time>
      </trkpt>
      <trkpt lat="48.662489" lon="1.616518">
        <ele>136.025346</ele>
        <time>2025-06-25T13:25:53.739Z</time>
      </trkpt>
      <trkpt lat="48.661747" lon="1.617052">
        <ele>138.187215</ele>
        <time>2025-06-25T13:26:14.920Z</time>
      </trkpt>
      <trkpt lat="48.661463" lon="1.617125">
        <ele>138.939134</ele>
        <time>2025-06-25T13:26:21.807Z</time>
      </trkpt>
      <trkpt lat="48.661142" lon="1.617146">
        <ele>139.777807</ele>
        <time>2025-06-25T13:26:29.548Z</time>
      </trkpt>
      <trkpt lat="48.660865" lon="1.617109">
        <ele>140.503655</ele>
        <time>2025-06-25T13:26:36.610Z</time>
      </trkpt>
      <trkpt lat="48.660412" lon="1.616868">
        <ele>141.387478</ele>
        <time>2025-06-25T13:26:48.740Z</time>
      </trkpt>
      <trkpt lat="48.660199" lon="1.616588">
        <ele>141.822170</ele>
        <time>2025-06-25T13:26:55.756Z</time>
      </trkpt>
      <trkpt lat="48.660037" lon="1.616267">
        <ele>142.233353</ele>
        <time>2025-06-25T13:27:02.202Z</time>
      </trkpt>
      <trkpt lat="48.658017" lon="1.614830">
        <ele>143.466499</ele>
        <time>2025-06-25T13:27:40.546Z</time>
      </trkpt>
      <trkpt lat="48.657286" lon="1.614528">
        <ele>142.785470</ele>
        <time>2025-06-25T13:27:49.112Z</time>
      </trkpt>
      <trkpt lat="48.657197" lon="1.614429">
        <ele>142.545109</ele>
        <time>2025-06-25T13:27:50.300Z</time>
      </trkpt>
      <trkpt lat="48.657188" lon="1.614377">
        <ele>142.467830</ele>
        <time>2025-06-25T13:27:50.687Z</time>
      </trkpt>
      <trkpt lat="48.657074" lon="1.613209">
        <ele>140.770470</ele>
        <time>2025-06-25T13:27:58.914Z</time>
      </trkpt>
      <trkpt lat="48.657067" lon="1.612040">
        <ele>139.157395</ele>
        <time>2025-06-25T13:28:07.190Z</time>
      </trkpt>
      <trkpt lat="48.657132" lon="1.610798">
        <ele>137.664779</ele>
        <time>2025-06-25T13:28:16.247Z</time>
      </trkpt>
      <trkpt lat="48.657145" lon="1.610105">
        <ele>136.834210</ele>
        <time>2025-06-25T13:28:21.425Z</time>
      </trkpt>
      <trkpt lat="48.657033" lon="1.609122">
        <ele>135.935365</ele>
        <time>2025-06-25T13:28:29.115Z</time>
      </trkpt>
      <trkpt lat="48.656723" lon="1.607892">
        <ele>135.144687</ele>
        <time>2025-06-25T13:28:39.904Z</time>
      </trkpt>
      <trkpt lat="48.656322" lon="1.606741">
        <ele>134.413052</ele>
        <time>2025-06-25T13:28:51.019Z</time>
      </trkpt>
      <trkpt lat="48.656210" lon="1.606333">
        <ele>134.204133</ele>
        <time>2025-06-25T13:28:54.842Z</time>
      </trkpt>
      <trkpt lat="48.656091" lon="1.605835">
        <ele>133.953719</ele>
        <time>2025-06-25T13:28:59.434Z</time>
      </trkpt>
      <trkpt lat="48.655872" lon="1.604618">
        <ele>133.357284</ele>
        <time>2025-06-25T13:29:10.229Z</time>
      </trkpt>
      <trkpt lat="48.655650" lon="1.603683">
        <ele>132.188597</ele>
        <time>2025-06-25T13:29:18.044Z</time>
      </trkpt>
      <trkpt lat="48.655579" lon="1.602899">
        <ele>131.195907</ele>
        <time>2025-06-25T13:29:23.867Z</time>
      </trkpt>
      <trkpt lat="48.655569" lon="1.599500">
        <ele>125.897779</ele>
        <time>2025-06-25T13:29:47.233Z</time>
      </trkpt>
      <trkpt lat="48.655537" lon="1.598683">
        <ele>124.975799</ele>
        <time>2025-06-25T13:29:53.132Z</time>
      </trkpt>
      <trkpt lat="48.655421" lon="1.597294">
        <ele>124.024071</ele>
        <time>2025-06-25T13:30:04.189Z</time>
      </trkpt>
      <trkpt lat="48.655303" lon="1.595796">
        <ele>123.721684</ele>
        <time>2025-06-25T13:30:18.691Z</time>
      </trkpt>
      <trkpt lat="48.655215" lon="1.595112">
        <ele>124.031416</ele>
        <time>2025-06-25T13:30:26.782Z</time>
      </trkpt>
      <trkpt lat="48.654885" lon="1.593265">
        <ele>125.011165</ele>
        <time>2025-06-25T13:30:50.899Z</time>
      </trkpt>
      <trkpt lat="48.654834" lon="1.592858">
        <ele>125.296237</ele>
        <time>2025-06-25T13:30:56.072Z</time>
      </trkpt>
      <trkpt lat="48.654814" lon="1.592460">
        <ele>125.570913</ele>
        <time>2025-06-25T13:31:01.065Z</time>
      </trkpt>
      <trkpt lat="48.654839" lon="1.591676">
        <ele>126.111054</ele>
        <time>2025-06-25T13:31:10.976Z</time>
      </trkpt>
      <trkpt lat="48.654846" lon="1.591179">
        <ele>126.453144</ele>
        <time>2025-06-25T13:31:17.332Z</time>
      </trkpt>
      <trkpt lat="48.654760" lon="1.589543">
        <ele>127.002846</ele>
        <time>2025-06-25T13:31:37.384Z</time>
      </trkpt>
      <trkpt lat="48.654717" lon="1.589002">
        <ele>127.173309</ele>
        <time>2025-06-25T13:31:43.351Z</time>
      </trkpt>
      <trkpt lat="48.654586" lon="1.587890">
        <ele>126.875052</ele>
        <time>2025-06-25T13:31:53.668Z</time>
      </trkpt>
      <trkpt lat="48.654537" lon="1.587203">
        <ele>126.183727</ele>
        <time>2025-06-25T13:31:59.222Z</time>
      </trkpt>
      <trkpt lat="48.654537" lon="1.585513">
        <ele>124.345462</ele>
        <time>2025-06-25T13:32:11.405Z</time>
      </trkpt>
      <trkpt lat="48.654359" lon="1.584627">
        <ele>122.534559</ele>
        <time>2025-06-25T13:32:17.656Z</time>
      </trkpt>
      <trkpt lat="48.654264" lon="1.584425">
        <ele>122.049675</ele>
        <time>2025-06-25T13:32:19.311Z</time>
      </trkpt>
      <trkpt lat="48.654026" lon="1.584059">
        <ele>121.045391</ele>
        <time>2025-06-25T13:32:22.715Z</time>
      </trkpt>
      <trkpt lat="48.653899" lon="1.583715">
        <ele>120.274779</ele>
        <time>2025-06-25T13:32:25.337Z</time>
      </trkpt>
      <trkpt lat="48.653828" lon="1.583189">
        <ele>119.270163</ele>
        <time>2025-06-25T13:32:28.977Z</time>
      </trkpt>
      <trkpt lat="48.653852" lon="1.582399">
        <ele>118.436051</ele>
        <time>2025-06-25T13:32:34.367Z</time>
      </trkpt>
      <trkpt lat="48.653913" lon="1.581797">
        <ele>117.793682</ele>
        <time>2025-06-25T13:32:38.689Z</time>
      </trkpt>
      <trkpt lat="48.653565" lon="1.581710">
        <ele>117.230539</ele>
        <time>2025-06-25T13:32:42.724Z</time>
      </trkpt>
      <trkpt lat="48.653284" lon="1.581778">
        <ele>116.776199</ele>
        <time>2025-06-25T13:32:46.463Z</time>
      </trkpt>
      <trkpt lat="48.653186" lon="1.581782">
        <ele>116.619675</ele>
        <time>2025-06-25T13:32:47.963Z</time>
      </trkpt>
      <trkpt lat="48.653119" lon="1.581742">
        <ele>116.504684</ele>
        <time>2025-06-25T13:32:49.094Z</time>
      </trkpt>
      <trkpt lat="48.653053" lon="1.581702">
        <ele>116.550396</ele>
        <time>2025-06-25T13:32:50.299Z</time>
      </trkpt>
      <trkpt lat="48.652690" lon="1.581364">
        <ele>117.668546</ele>
        <time>2025-06-25T13:32:58.378Z</time>
      </trkpt>
      <trkpt lat="48.652648" lon="1.581165">
        <ele>118.030638</ele>
        <time>2025-06-25T13:33:01.494Z</time>
      </trkpt>
      <trkpt lat="48.652542" lon="1.580919">
        <ele>118.539702</ele>
        <time>2025-06-25T13:33:06.382Z</time>
      </trkpt>
      <trkpt lat="48.651215" lon="1.579109">
        <ele>123.460887</ele>
        <time>2025-06-25T13:34:00.682Z</time>
      </trkpt>
      <trkpt lat="48.650972" lon="1.578721">
        <ele>124.493340</ele>
        <time>2025-06-25T13:34:10.021Z</time>
      </trkpt>
      <trkpt lat="48.650791" lon="1.578344">
        <ele>125.393320</ele>
        <time>2025-06-25T13:34:17.515Z</time>
      </trkpt>
      <trkpt lat="48.650685" lon="1.577777">
        <ele>126.469825</ele>
        <time>2025-06-25T13:34:26.156Z</time>
      </trkpt>
      <trkpt lat="48.650374" lon="1.574484">
        <ele>129.000326</ele>
        <time>2025-06-25T13:35:07.948Z</time>
      </trkpt>
      <trkpt lat="48.650334" lon="1.573862">
        <ele>129.423482</ele>
        <time>2025-06-25T13:35:15.966Z</time>
      </trkpt>
      <trkpt lat="48.650309" lon="1.572510">
        <ele>130.339302</ele>
        <time>2025-06-25T13:35:32.828Z</time>
      </trkpt>
      <trkpt lat="48.650365" lon="1.571318">
        <ele>131.178591</ele>
        <time>2025-06-25T13:35:47.125Z</time>
      </trkpt>
      <trkpt lat="48.650356" lon="1.570806">
        <ele>131.539333</ele>
        <time>2025-06-25T13:35:53.376Z</time>
      </trkpt>
      <trkpt lat="48.650285" lon="1.569962">
        <ele>132.138583</ele>
        <time>2025-06-25T13:36:04.232Z</time>
      </trkpt>
      <trkpt lat="48.650036" lon="1.567279">
        <ele>134.645433</ele>
        <time>2025-06-25T13:36:41.740Z</time>
      </trkpt>
      <trkpt lat="48.649971" lon="1.566799">
        <ele>135.072266</ele>
        <time>2025-06-25T13:36:48.273Z</time>
      </trkpt>
      <trkpt lat="48.649621" lon="1.565135">
        <ele>136.435036</ele>
        <time>2025-06-25T13:37:10.519Z</time>
      </trkpt>
      <trkpt lat="48.649591" lon="1.564846">
        <ele>136.663333</ele>
        <time>2025-06-25T13:37:14.186Z</time>
      </trkpt>
      <trkpt lat="48.649602" lon="1.564331">
        <ele>137.067376</ele>
        <time>2025-06-25T13:37:20.746Z</time>
      </trkpt>
      <trkpt lat="48.649737" lon="1.563476">
        <ele>137.783674</ele>
        <time>2025-06-25T13:37:32.279Z</time>
      </trkpt>
      <trkpt lat="48.649889" lon="1.563001">
        <ele>138.213728</ele>
        <time>2025-06-25T13:37:39.418Z</time>
      </trkpt>
      <trkpt lat="48.650104" lon="1.562664">
        <ele>138.595458</ele>
        <time>2025-06-25T13:37:45.753Z</time>
      </trkpt>
      <trkpt lat="48.650683" lon="1.562152">
        <ele>139.217211</ele>
        <time>2025-06-25T13:37:59.024Z</time>
      </trkpt>
      <trkpt lat="48.650801" lon="1.562031">
        <ele>139.195352</ele>
        <time>2025-06-25T13:38:01.661Z</time>
      </trkpt>
      <trkpt lat="48.650926" lon="1.561842">
        <ele>139.168255</ele>
        <time>2025-06-25T13:38:04.852Z</time>
      </trkpt>
      <trkpt lat="48.651106" lon="1.561450">
        <ele>139.119886</ele>
        <time>2025-06-25T13:38:10.157Z</time>
      </trkpt>
      <trkpt lat="48.651284" lon="1.560866">
        <ele>139.054721</ele>
        <time>2025-06-25T13:38:16.264Z</time>
      </trkpt>
      <trkpt lat="48.650787" lon="1.560571">
        <ele>138.972846</ele>
        <time>2025-06-25T13:38:22.711Z</time>
      </trkpt>
      <trkpt lat="48.650205" lon="1.560327">
        <ele>137.554411</ele>
        <time>2025-06-25T13:38:29.315Z</time>
      </trkpt>
      <trkpt lat="48.650109" lon="1.560213">
        <ele>137.239757</ele>
        <time>2025-06-25T13:38:30.611Z</time>
      </trkpt>
      <trkpt lat="48.650049" lon="1.560095">
        <ele>136.986075</ele>
        <time>2025-06-25T13:38:31.652Z</time>
      </trkpt>
      <trkpt lat="48.650013" lon="1.559921">
        <ele>136.675439</ele>
        <time>2025-06-25T13:38:32.913Z</time>
      </trkpt>
      <trkpt lat="48.650079" lon="1.559705">
        <ele>136.269993</ele>
        <time>2025-06-25T13:38:34.547Z</time>
      </trkpt>
      <trkpt lat="48.650079" lon="1.559585">
        <ele>136.065552</ele>
        <time>2025-06-25T13:38:35.367Z</time>
      </trkpt>
      <trkpt lat="48.650038" lon="1.559426">
        <ele>135.774766</ele>
        <time>2025-06-25T13:38:36.516Z</time>
      </trkpt>
      <trkpt lat="48.649945" lon="1.559281">
        <ele>135.430468</ele>
        <time>2025-06-25T13:38:37.882Z</time>
      </trkpt>
      <trkpt lat="48.649784" lon="1.559224">
        <ele>135.004082</ele>
        <time>2025-06-25T13:38:39.554Z</time>
      </trkpt>
      <trkpt lat="48.649696" lon="1.559256">
        <ele>134.770694</ele>
        <time>2025-06-25T13:38:40.473Z</time>
      </trkpt>
      <trkpt lat="48.649620" lon="1.559328">
        <ele>134.539486</ele>
        <time>2025-06-25T13:38:41.386Z</time>
      </trkpt>
      <trkpt lat="48.649463" lon="1.559289">
        <ele>134.035929</ele>
        <time>2025-06-25T13:38:42.985Z</time>
      </trkpt>
      <trkpt lat="48.648558" lon="1.558605">
        <ele>130.189701</ele>
        <time>2025-06-25T13:38:52.965Z</time>
      </trkpt>
      <trkpt lat="48.647908" lon="1.557990">
        <ele>127.259015</ele>
        <time>2025-06-25T13:39:00.422Z</time>
      </trkpt>
      <trkpt lat="48.647593" lon="1.557608">
        <ele>125.608012</ele>
        <time>2025-06-25T13:39:04.366Z</time>
      </trkpt>
      <trkpt lat="48.647270" lon="1.557160">
        <ele>123.816005</ele>
        <time>2025-06-25T13:39:08.683Z</time>
      </trkpt>
      <trkpt lat="48.647004" lon="1.556729">
        <ele>122.222120</ele>
        <time>2025-06-25T13:39:12.562Z</time>
      </trkpt>
      <trkpt lat="48.646481" lon="1.555686">
        <ele>117.892892</ele>
        <time>2025-06-25T13:39:20.879Z</time>
      </trkpt>
      <trkpt lat="48.646211" lon="1.555023">
        <ele>114.637377</ele>
        <time>2025-06-25T13:39:25.593Z</time>
      </trkpt>
      <trkpt lat="48.645968" lon="1.554279">
        <ele>111.168172</ele>
        <time>2025-06-25T13:39:30.492Z</time>
      </trkpt>
      <trkpt lat="48.645303" lon="1.551918">
        <ele>100.582785</ele>
        <time>2025-06-25T13:39:45.610Z</time>
      </trkpt>
      <trkpt lat="48.645293" lon="1.551754">
        <ele>99.906192</ele>
        <time>2025-06-25T13:39:46.653Z</time>
      </trkpt>
      <trkpt lat="48.645343" lon="1.551568">
        <ele>99.081261</ele>
        <time>2025-06-25T13:39:47.948Z</time>
      </trkpt>
      <trkpt lat="48.645313" lon="1.551406">
        <ele>98.390101</ele>
        <time>2025-06-25T13:39:49.046Z</time>
      </trkpt>
      <trkpt lat="48.645232" lon="1.551298">
        <ele>97.718914</ele>
        <time>2025-06-25T13:39:50.117Z</time>
      </trkpt>
      <trkpt lat="48.645125" lon="1.551272">
        <ele>97.394399</ele>
        <time>2025-06-25T13:39:51.210Z</time>
      </trkpt>
      <trkpt lat="48.645020" lon="1.551345">
        <ele>97.156722</ele>
        <time>2025-06-25T13:39:52.406Z</time>
      </trkpt>
      <trkpt lat="48.644981" lon="1.551419">
        <ele>97.028076</ele>
        <time>2025-06-25T13:39:53.049Z</time>
      </trkpt>
      <trkpt lat="48.644959" lon="1.551550">
        <ele>96.844376</ele>
        <time>2025-06-25T13:39:54.000Z</time>
      </trkpt>
      <trkpt lat="48.644867" lon="1.551683">
        <ele>96.582681</ele>
        <time>2025-06-25T13:39:55.369Z</time>
      </trkpt>
      <trkpt lat="48.644635" lon="1.551921">
        <ele>96.006176</ele>
        <time>2025-06-25T13:39:58.481Z</time>
      </trkpt>
      <trkpt lat="48.644544" lon="1.551998">
        <ele>95.791726</ele>
        <time>2025-06-25T13:39:59.638Z</time>
      </trkpt>
      <trkpt lat="48.644503" lon="1.551996">
        <ele>95.707347</ele>
        <time>2025-06-25T13:40:00.104Z</time>
      </trkpt>
      <trkpt lat="48.644467" lon="1.551956">
        <ele>95.615484</ele>
        <time>2025-06-25T13:40:00.600Z</time>
      </trkpt>
      <trkpt lat="48.643989" lon="1.550714">
        <ele>93.800890</ele>
        <time>2025-06-25T13:40:11.746Z</time>
      </trkpt>
      <trkpt lat="48.643831" lon="1.550403">
        <ele>93.628291</ele>
        <time>2025-06-25T13:40:14.756Z</time>
      </trkpt>
      <trkpt lat="48.643622" lon="1.549918">
        <ele>93.373537</ele>
        <time>2025-06-25T13:40:19.417Z</time>
      </trkpt>
      <trkpt lat="48.643405" lon="1.549786">
        <ele>93.217809</ele>
        <time>2025-06-25T13:40:22.434Z</time>
      </trkpt>
      <trkpt lat="48.643225" lon="1.549631">
        <ele>93.079910</ele>
        <time>2025-06-25T13:40:25.282Z</time>
      </trkpt>
      <trkpt lat="48.642344" lon="1.547734">
        <ele>92.634208</ele>
        <time>2025-06-25T13:40:47.590Z</time>
      </trkpt>
      <trkpt lat="48.642335" lon="1.547589">
        <ele>92.630478</ele>
        <time>2025-06-25T13:40:48.995Z</time>
      </trkpt>
      <trkpt lat="48.642364" lon="1.547399">
        <ele>92.625485</ele>
        <time>2025-06-25T13:40:50.877Z</time>
      </trkpt>
      <trkpt lat="48.642507" lon="1.547078">
        <ele>92.615572</ele>
        <time>2025-06-25T13:40:54.626Z</time>
      </trkpt>
      <trkpt lat="48.642746" lon="1.546728">
        <ele>92.602684</ele>
        <time>2025-06-25T13:40:59.549Z</time>
      </trkpt>
      <trkpt lat="48.643467" lon="1.545885">
        <ele>92.554364</ele>
        <time>2025-06-25T13:41:13.021Z</time>
      </trkpt>
      <trkpt lat="48.643759" lon="1.545392">
        <ele>92.530650</ele>
        <time>2025-06-25T13:41:19.351Z</time>
      </trkpt>
      <trkpt lat="48.644049" lon="1.544807">
        <ele>92.504456</ele>
        <time>2025-06-25T13:41:26.229Z</time>
      </trkpt>
      <trkpt lat="48.644450" lon="1.544319">
        <ele>92.629073</ele>
        <time>2025-06-25T13:41:33.500Z</time>
      </trkpt>
      <trkpt lat="48.645183" lon="1.543601">
        <ele>92.859995</ele>
        <time>2025-06-25T13:41:47.046Z</time>
      </trkpt>
      <trkpt lat="48.645668" lon="1.543290">
        <ele>93.052520</ele>
        <time>2025-06-25T13:41:56.660Z</time>
      </trkpt>
      <trkpt lat="48.645745" lon="1.543186">
        <ele>93.148661</ele>
        <time>2025-06-25T13:41:58.578Z</time>
      </trkpt>
      <trkpt lat="48.645786" lon="1.543060">
        <ele>93.235110</ele>
        <time>2025-06-25T13:42:00.345Z</time>
      </trkpt>
      <trkpt lat="48.645799" lon="1.542889">
        <ele>93.341055</ele>
        <time>2025-06-25T13:42:02.483Z</time>
      </trkpt>
      <trkpt lat="48.645799" lon="1.542740">
        <ele>93.432766</ele>
        <time>2025-06-25T13:42:04.344Z</time>
      </trkpt>
      <trkpt lat="48.645803" lon="1.542272">
        <ele>93.720846</ele>
        <time>2025-06-25T13:42:10.241Z</time>
      </trkpt>
      <trkpt lat="48.645861" lon="1.541937">
        <ele>93.934001</ele>
        <time>2025-06-25T13:42:14.748Z</time>
      </trkpt>
      <trkpt lat="48.645991" lon="1.541362">
        <ele>94.308062</ele>
        <time>2025-06-25T13:42:22.593Z</time>
      </trkpt>
      <trkpt lat="48.646110" lon="1.541047">
        <ele>94.531401</ele>
        <time>2025-06-25T13:42:27.025Z</time>
      </trkpt>
      <trkpt lat="48.646148" lon="1.541084">
        <ele>94.573493</ele>
        <time>2025-06-25T13:42:27.805Z</time>
      </trkpt>
      <trkpt lat="48.646178" lon="1.541074">
        <ele>94.602110</ele>
        <time>2025-06-25T13:42:28.338Z</time>
      </trkpt>
      <trkpt lat="48.646202" lon="1.540995">
        <ele>94.653959</ele>
        <time>2025-06-25T13:42:29.355Z</time>
      </trkpt>
      <trkpt lat="48.646170" lon="1.540938">
        <ele>94.658357</ele>
        <time>2025-06-25T13:42:30.210Z</time>
      </trkpt>
      <trkpt lat="48.646136" lon="1.540938">
        <ele>94.661383</ele>
        <time>2025-06-25T13:42:30.775Z</time>
      </trkpt>
      <trkpt lat="48.646083" lon="1.540805">
        <ele>94.670515</ele>
        <time>2025-06-25T13:42:33.077Z</time>
      </trkpt>
      <trkpt lat="48.645848" lon="1.540492">
        <ele>94.698373</ele>
        <time>2025-06-25T13:42:39.714Z</time>
      </trkpt>
      <trkpt lat="48.645917" lon="1.540379">
        <ele>94.707420</ele>
        <time>2025-06-25T13:42:41.814Z</time>
      </trkpt>
      <trkpt lat="48.646742" lon="1.539027">
        <ele>94.811073</ele>
        <time>2025-06-25T13:43:05.988Z</time>
      </trkpt>
      <trkpt lat="48.646874" lon="1.538864">
        <ele>94.787485</ele>
        <time>2025-06-25T13:43:09.191Z</time>
      </trkpt>
      <trkpt lat="48.647173" lon="1.538426">
        <ele>94.729868</ele>
        <time>2025-06-25T13:43:16.945Z</time>
      </trkpt>
      <trkpt lat="48.647689" lon="1.537410">
        <ele>94.612635</ele>
        <time>2025-06-25T13:43:33.429Z</time>
      </trkpt>
      <trkpt lat="48.647799" lon="1.537167">
        <ele>94.585687</ele>
        <time>2025-06-25T13:43:37.452Z</time>
      </trkpt>
      <trkpt lat="48.647990" lon="1.536620">
        <ele>94.709437</ele>
        <time>2025-06-25T13:43:46.193Z</time>
      </trkpt>
      <trkpt lat="48.647934" lon="1.536560">
        <ele>94.747915</ele>
        <time>2025-06-25T13:43:47.338Z</time>
      </trkpt>
      <trkpt lat="48.647909" lon="1.536420">
        <ele>94.801650</ele>
        <time>2025-06-25T13:43:48.948Z</time>
      </trkpt>
      <trkpt lat="48.648006" lon="1.535584">
        <ele>95.116146</ele>
        <time>2025-06-25T13:43:58.208Z</time>
      </trkpt>
      <trkpt lat="48.648037" lon="1.534816">
        <ele>95.401236</ele>
        <time>2025-06-25T13:44:07.503Z</time>
      </trkpt>
      <trkpt lat="48.648074" lon="1.534581">
        <ele>95.490747</ele>
        <time>2025-06-25T13:44:10.423Z</time>
      </trkpt>
      <trkpt lat="48.648105" lon="1.534365">
        <ele>95.572646</ele>
        <time>2025-06-25T13:44:13.093Z</time>
      </trkpt>
      <trkpt lat="48.648118" lon="1.534261">
        <ele>95.588848</ele>
        <time>2025-06-25T13:44:14.368Z</time>
      </trkpt>
      <trkpt lat="48.648177" lon="1.533824">
        <ele>95.654951</ele>
        <time>2025-06-25T13:44:19.905Z</time>
      </trkpt>
      <trkpt lat="48.648220" lon="1.533428">
        <ele>95.714426</ele>
        <time>2025-06-25T13:44:24.638Z</time>
      </trkpt>
      <trkpt lat="48.648204" lon="1.533208">
        <ele>95.747228</ele>
        <time>2025-06-25T13:44:27.095Z</time>
      </trkpt>
      <trkpt lat="48.648160" lon="1.533112">
        <ele>95.764543</ele>
        <time>2025-06-25T13:44:28.310Z</time>
      </trkpt>
      <trkpt lat="48.648018" lon="1.532973">
        <ele>95.802477</ele>
        <time>2025-06-25T13:44:31.029Z</time>
      </trkpt>
      <trkpt lat="48.647989" lon="1.532897">
        <ele>95.815484</ele>
        <time>2025-06-25T13:44:31.973Z</time>
      </trkpt>
      <trkpt lat="48.648089" lon="1.532536">
        <ele>95.873498</ele>
        <time>2025-06-25T13:44:36.045Z</time>
      </trkpt>
      <trkpt lat="48.648141" lon="1.532344">
        <ele>95.904251</ele>
        <time>2025-06-25T13:44:38.066Z</time>
      </trkpt>
      <trkpt lat="48.648353" lon="1.531177">
        <ele>95.535487</ele>
        <time>2025-06-25T13:44:48.028Z</time>
      </trkpt>
      <trkpt lat="48.648420" lon="1.530751">
        <ele>95.266835</ele>
        <time>2025-06-25T13:44:51.339Z</time>
      </trkpt>
      <trkpt lat="48.648499" lon="1.530842">
        <ele>95.174650</ele>
        <time>2025-06-25T13:44:52.961Z</time>
      </trkpt>
      <trkpt lat="48.648671" lon="1.530542">
        <ele>94.930964</ele>
        <time>2025-06-25T13:44:57.286Z</time>
      </trkpt>
      <trkpt lat="48.648832" lon="1.530199">
        <ele>94.672835</ele>
        <time>2025-06-25T13:45:01.953Z</time>
      </trkpt>
      <trkpt lat="48.649096" lon="1.529248">
        <ele>94.717969</ele>
        <time>2025-06-25T13:45:14.639Z</time>
      </trkpt>
      <trkpt lat="48.649168" lon="1.528898">
        <ele>95.064582</ele>
        <time>2025-06-25T13:45:19.851Z</time>
      </trkpt>
      <trkpt lat="48.649198" lon="1.528418">
        <ele>95.520471</ele>
        <time>2025-06-25T13:45:27.554Z</time>
      </trkpt>
      <trkpt lat="48.649156" lon="1.528366">
        <ele>95.598129</ele>
        <time>2025-06-25T13:45:28.640Z</time>
      </trkpt>
      <trkpt lat="48.649032" lon="1.528040">
        <ele>95.953815</ele>
        <time>2025-06-25T13:45:33.968Z</time>
      </trkpt>
      <trkpt lat="48.648995" lon="1.527946">
        <ele>96.057275</ele>
        <time>2025-06-25T13:45:35.590Z</time>
      </trkpt>
      <trkpt lat="48.648984" lon="1.527825">
        <ele>96.172765</ele>
        <time>2025-06-25T13:45:37.447Z</time>
      </trkpt>
      <trkpt lat="48.648880" lon="1.527794">
        <ele>96.324468</ele>
        <time>2025-06-25T13:45:39.996Z</time>
      </trkpt>
      <trkpt lat="48.648856" lon="1.527638">
        <ele>96.475921</ele>
        <time>2025-06-25T13:45:42.650Z</time>
      </trkpt>
      <trkpt lat="48.648311" lon="1.526521">
        <ele>99.947738</ele>
        <time>2025-06-25T13:46:09.725Z</time>
      </trkpt>
      <trkpt lat="48.648214" lon="1.526191">
        <ele>101.101338</ele>
        <time>2025-06-25T13:46:17.483Z</time>
      </trkpt>
      <trkpt lat="48.648114" lon="1.525739">
        <ele>102.623784</ele>
        <time>2025-06-25T13:46:28.285Z</time>
      </trkpt>
      <trkpt lat="48.647973" lon="1.525272">
        <ele>104.263722</ele>
        <time>2025-06-25T13:46:41.123Z</time>
      </trkpt>
      <trkpt lat="48.647827" lon="1.524993">
        <ele>105.400489</ele>
        <time>2025-06-25T13:46:50.925Z</time>
      </trkpt>
      <trkpt lat="48.647664" lon="1.524768">
        <ele>106.539927</ele>
        <time>2025-06-25T13:47:00.455Z</time>
      </trkpt>
      <trkpt lat="48.647421" lon="1.524523">
        <ele>108.067039</ele>
        <time>2025-06-25T13:47:13.021Z</time>
      </trkpt>
      <trkpt lat="48.646845" lon="1.524017">
        <ele>111.550322</ele>
        <time>2025-06-25T13:47:39.225Z</time>
      </trkpt>
      <trkpt lat="48.646529" lon="1.523621">
        <ele>113.696064</ele>
        <time>2025-06-25T13:47:53.246Z</time>
      </trkpt>
      <trkpt lat="48.645959" lon="1.522612">
        <ele>116.053738</ele>
        <time>2025-06-25T13:48:13.794Z</time>
      </trkpt>
      <trkpt lat="48.645552" lon="1.522064">
        <ele>116.977723</ele>
        <time>2025-06-25T13:48:22.812Z</time>
      </trkpt>
      <trkpt lat="48.645361" lon="1.521907">
        <ele>117.346391</ele>
        <time>2025-06-25T13:48:26.888Z</time>
      </trkpt>
      <trkpt lat="48.645271" lon="1.521826">
        <ele>117.523999</ele>
        <time>2025-06-25T13:48:29.029Z</time>
      </trkpt>
      <trkpt lat="48.645099" lon="1.521699">
        <ele>117.848610</ele>
        <time>2025-06-25T13:48:33.107Z</time>
      </trkpt>
      <trkpt lat="48.644564" lon="1.521406">
        <ele>119.173981</ele>
        <time>2025-06-25T13:48:46.080Z</time>
      </trkpt>
      <trkpt lat="48.644221" lon="1.521268">
        <ele>120.054327</ele>
        <time>2025-06-25T13:48:55.314Z</time>
      </trkpt>
      <trkpt lat="48.643848" lon="1.521171">
        <ele>120.993095</ele>
        <time>2025-06-25T13:49:05.425Z</time>
      </trkpt>
      <trkpt lat="48.643689" lon="1.521134">
        <ele>121.392123</ele>
        <time>2025-06-25T13:49:09.716Z</time>
      </trkpt>
      <trkpt lat="48.643540" lon="1.521099">
        <ele>121.766136</ele>
        <time>2025-06-25T13:49:13.735Z</time>
      </trkpt>
      <trkpt lat="48.643174" lon="1.521061">
        <ele>122.644845</ele>
        <time>2025-06-25T13:49:23.166Z</time>
      </trkpt>
      <trkpt lat="48.643010" lon="1.521083">
        <ele>122.982405</ele>
        <time>2025-06-25T13:49:27.043Z</time>
      </trkpt>
      <trkpt lat="48.642402" lon="1.521064">
        <ele>124.229227</ele>
        <time>2025-06-25T13:49:41.409Z</time>
      </trkpt>
      <trkpt lat="48.641702" lon="1.521044">
        <ele>125.664663</ele>
        <time>2025-06-25T13:49:56.649Z</time>
      </trkpt>
      <trkpt lat="48.641645" lon="1.521080">
        <ele>125.791296</ele>
        <time>2025-06-25T13:49:58.026Z</time>
      </trkpt>
      <trkpt lat="48.641576" lon="1.521143">
        <ele>125.956516</ele>
        <time>2025-06-25T13:49:59.824Z</time>
      </trkpt>
      <trkpt lat="48.641289" lon="1.520602">
        <ele>126.796536</ele>
        <time>2025-06-25T13:50:09.903Z</time>
      </trkpt>
      <trkpt lat="48.640901" lon="1.519917">
        <ele>127.847595</ele>
        <time>2025-06-25T13:50:23.117Z</time>
      </trkpt>
      <trkpt lat="48.640248" lon="1.518765">
        <ele>129.522752</ele>
        <time>2025-06-25T13:50:45.055Z</time>
      </trkpt>
      <trkpt lat="48.640273" lon="1.518673">
        <ele>129.597373</ele>
        <time>2025-06-25T13:50:46.426Z</time>
      </trkpt>
      <trkpt lat="48.640253" lon="1.518612">
        <ele>129.648455</ele>
        <time>2025-06-25T13:50:47.356Z</time>
      </trkpt>
      <trkpt lat="48.640217" lon="1.518584">
        <ele>129.694405</ele>
        <time>2025-06-25T13:50:48.200Z</time>
      </trkpt>
      <trkpt lat="48.640160" lon="1.518609">
        <ele>129.761776</ele>
        <time>2025-06-25T13:50:49.406Z</time>
      </trkpt>
      <trkpt lat="48.639673" lon="1.517721">
        <ele>130.627446</ele>
        <time>2025-06-25T13:51:04.358Z</time>
      </trkpt>
      <trkpt lat="48.639500" lon="1.517348">
        <ele>130.969298</ele>
        <time>2025-06-25T13:51:09.978Z</time>
      </trkpt>
      <trkpt lat="48.638964" lon="1.515812">
        <ele>131.769185</ele>
        <time>2025-06-25T13:51:30.005Z</time>
      </trkpt>
      <trkpt lat="48.638861" lon="1.515424">
        <ele>131.902675</ele>
        <time>2025-06-25T13:51:34.557Z</time>
      </trkpt>
      <trkpt lat="48.638854" lon="1.515047">
        <ele>132.023080</ele>
        <time>2025-06-25T13:51:38.660Z</time>
      </trkpt>
      <trkpt lat="48.638876" lon="1.514857">
        <ele>132.084662</ele>
        <time>2025-06-25T13:51:40.749Z</time>
      </trkpt>
      <trkpt lat="48.638933" lon="1.514756">
        <ele>132.127065</ele>
        <time>2025-06-25T13:51:42.169Z</time>
      </trkpt>
      <trkpt lat="48.638944" lon="1.514578">
        <ele>132.184140</ele>
        <time>2025-06-25T13:51:44.083Z</time>
      </trkpt>
      <trkpt lat="48.638863" lon="1.514420">
        <ele>132.247982</ele>
        <time>2025-06-25T13:51:46.210Z</time>
      </trkpt>
      <trkpt lat="48.638761" lon="1.514388">
        <ele>132.282673</ele>
        <time>2025-06-25T13:51:47.886Z</time>
      </trkpt>
      <trkpt lat="48.638602" lon="1.513980">
        <ele>132.362086</ele>
        <time>2025-06-25T13:51:52.850Z</time>
      </trkpt>
      <trkpt lat="48.638405" lon="1.513300">
        <ele>132.486567</ele>
        <time>2025-06-25T13:52:00.590Z</time>
      </trkpt>
      <trkpt lat="48.638175" lon="1.512729">
        <ele>132.598683</ele>
        <time>2025-06-25T13:52:07.650Z</time>
      </trkpt>
      <trkpt lat="48.637382" lon="1.511346">
        <ele>132.741350</ele>
        <time>2025-06-25T13:52:26.247Z</time>
      </trkpt>
      <trkpt lat="48.636889" lon="1.510087">
        <ele>132.767528</ele>
        <time>2025-06-25T13:52:40.667Z</time>
      </trkpt>
      <trkpt lat="48.636438" lon="1.508819">
        <ele>132.680884</ele>
        <time>2025-06-25T13:52:54.397Z</time>
      </trkpt>
      <trkpt lat="48.636138" lon="1.507871">
        <ele>132.607297</ele>
        <time>2025-06-25T13:53:04.285Z</time>
      </trkpt>
      <trkpt lat="48.635766" lon="1.506432">
        <ele>132.480746</ele>
        <time>2025-06-25T13:53:19.090Z</time>
      </trkpt>
      <trkpt lat="48.635441" lon="1.505041">
        <ele>132.353949</ele>
        <time>2025-06-25T13:53:32.998Z</time>
      </trkpt>
      <trkpt lat="48.635143" lon="1.503534">
        <ele>131.701342</ele>
        <time>2025-06-25T13:53:47.321Z</time>
      </trkpt>
      <trkpt lat="48.635079" lon="1.503004">
        <ele>131.466673</ele>
        <time>2025-06-25T13:53:51.706Z</time>
      </trkpt>
      <trkpt lat="48.635082" lon="1.502759">
        <ele>131.359942</ele>
        <time>2025-06-25T13:53:53.645Z</time>
      </trkpt>
      <trkpt lat="48.635123" lon="1.502701">
        <ele>131.322950</ele>
        <time>2025-06-25T13:53:54.316Z</time>
      </trkpt>
      <trkpt lat="48.635173" lon="1.502551">
        <ele>131.249775</ele>
        <time>2025-06-25T13:53:55.639Z</time>
      </trkpt>
      <trkpt lat="48.635178" lon="1.502431">
        <ele>131.197404</ele>
        <time>2025-06-25T13:53:56.573Z</time>
      </trkpt>
      <trkpt lat="48.635155" lon="1.502315">
        <ele>131.151019</ele>
        <time>2025-06-25T13:53:57.519Z</time>
      </trkpt>
      <trkpt lat="48.635110" lon="1.502220">
        <ele>131.120581</ele>
        <time>2025-06-25T13:53:58.421Z</time>
      </trkpt>
      <trkpt lat="48.634973" lon="1.502119">
        <ele>131.060530</ele>
        <time>2025-06-25T13:54:00.232Z</time>
      </trkpt>
      <trkpt lat="48.634746" lon="1.501536">
        <ele>130.884317</ele>
        <time>2025-06-25T13:54:05.709Z</time>
      </trkpt>
      <trkpt lat="48.634502" lon="1.500846">
        <ele>130.680524</ele>
        <time>2025-06-25T13:54:12.439Z</time>
      </trkpt>
      <trkpt lat="48.634200" lon="1.500024">
        <ele>130.482146</ele>
        <time>2025-06-25T13:54:22.397Z</time>
      </trkpt>
      <trkpt lat="48.634075" lon="1.499556">
        <ele>130.730361</ele>
        <time>2025-06-25T13:54:28.584Z</time>
      </trkpt>
      <trkpt lat="48.633978" lon="1.499089">
        <ele>130.971076</ele>
        <time>2025-06-25T13:54:34.893Z</time>
      </trkpt>
      <trkpt lat="48.633744" lon="1.497654">
        <ele>131.697879</ele>
        <time>2025-06-25T13:54:52.709Z</time>
      </trkpt>
      <trkpt lat="48.633183" lon="1.495012">
        <ele>132.609671</ele>
        <time>2025-06-25T13:55:22.964Z</time>
      </trkpt>
      <trkpt lat="48.633024" lon="1.494442">
        <ele>132.810497</ele>
        <time>2025-06-25T13:55:29.790Z</time>
      </trkpt>
      <trkpt lat="48.632822" lon="1.493892">
        <ele>133.016106</ele>
        <time>2025-06-25T13:55:36.787Z</time>
      </trkpt>
      <trkpt lat="48.632218" lon="1.492552">
        <ele>133.546973</ele>
        <time>2025-06-25T13:55:54.984Z</time>
      </trkpt>
      <trkpt lat="48.632177" lon="1.492457">
        <ele>133.590802</ele>
        <time>2025-06-25T13:55:56.250Z</time>
      </trkpt>
      <trkpt lat="48.631567" lon="1.491081">
        <ele>134.230843</ele>
        <time>2025-06-25T13:56:14.972Z</time>
      </trkpt>
      <trkpt lat="48.630151" lon="1.487337">
        <ele>135.932321</ele>
        <time>2025-06-25T13:57:04.536Z</time>
      </trkpt>
      <trkpt lat="48.629173" lon="1.485183">
        <ele>136.714993</ele>
        <time>2025-06-25T13:57:33.108Z</time>
      </trkpt>
      <trkpt lat="48.627336" lon="1.481318">
        <ele>137.388899</ele>
        <time>2025-06-25T13:58:22.786Z</time>
      </trkpt>
      <trkpt lat="48.627055" lon="1.480610">
        <ele>137.469917</ele>
        <time>2025-06-25T13:58:30.436Z</time>
      </trkpt>
      <trkpt lat="48.626944" lon="1.480213">
        <ele>137.511702</ele>
        <time>2025-06-25T13:58:34.466Z</time>
      </trkpt>
      <trkpt lat="48.626877" lon="1.479821">
        <ele>137.550950</ele>
        <time>2025-06-25T13:58:38.279Z</time>
      </trkpt>
      <trkpt lat="48.626834" lon="1.479378">
        <ele>137.594354</ele>
        <time>2025-06-25T13:58:42.612Z</time>
      </trkpt>
      <trkpt lat="48.626536" lon="1.471159">
        <ele>140.958584</ele>
        <time>2025-06-25T14:00:18.276Z</time>
      </trkpt>
      <trkpt lat="48.626560" lon="1.470581">
        <ele>141.207164</ele>
        <time>2025-06-25T14:00:24.903Z</time>
      </trkpt>
      <trkpt lat="48.626662" lon="1.470423">
        <ele>141.291470</ele>
        <time>2025-06-25T14:00:27.330Z</time>
      </trkpt>
      <trkpt lat="48.626677" lon="1.470203">
        <ele>141.367232</ele>
        <time>2025-06-25T14:00:29.755Z</time>
      </trkpt>
      <trkpt lat="48.626643" lon="1.470089">
        <ele>141.410074</ele>
        <time>2025-06-25T14:00:31.106Z</time>
      </trkpt>
      <trkpt lat="48.626584" lon="1.470003">
        <ele>141.452534</ele>
        <time>2025-06-25T14:00:32.489Z</time>
      </trkpt>
      <trkpt lat="48.626472" lon="1.469947">
        <ele>141.513667</ele>
        <time>2025-06-25T14:00:34.433Z</time>
      </trkpt>
      <trkpt lat="48.626357" lon="1.469986">
        <ele>141.574747</ele>
        <time>2025-06-25T14:00:36.374Z</time>
      </trkpt>
      <trkpt lat="48.625991" lon="1.469689">
        <ele>141.789993</ele>
        <time>2025-06-25T14:00:43.054Z</time>
      </trkpt>
      <trkpt lat="48.619537" lon="1.462040">
        <ele>146.846464</ele>
        <time>2025-06-25T14:03:05.422Z</time>
      </trkpt>
      <trkpt lat="48.619239" lon="1.461632">
        <ele>146.989538</ele>
        <time>2025-06-25T14:03:12.701Z</time>
      </trkpt>
      <trkpt lat="48.619012" lon="1.461235">
        <ele>147.113056</ele>
        <time>2025-06-25T14:03:18.668Z</time>
      </trkpt>
      <trkpt lat="48.618798" lon="1.460727">
        <ele>147.254805</ele>
        <time>2025-06-25T14:03:25.190Z</time>
      </trkpt>
      <trkpt lat="48.618288" lon="1.458510">
        <ele>146.595199</ele>
        <time>2025-06-25T14:03:46.149Z</time>
      </trkpt>
      <trkpt lat="48.618173" lon="1.457866">
        <ele>146.286466</ele>
        <time>2025-06-25T14:03:51.478Z</time>
      </trkpt>
      <trkpt lat="48.618104" lon="1.457180">
        <ele>145.746793</ele>
        <time>2025-06-25T14:03:56.866Z</time>
      </trkpt>
      <trkpt lat="48.618149" lon="1.455436">
        <ele>143.925285</ele>
        <time>2025-06-25T14:04:09.873Z</time>
      </trkpt>
      <trkpt lat="48.618130" lon="1.454809">
        <ele>143.287145</ele>
        <time>2025-06-25T14:04:14.491Z</time>
      </trkpt>
      <trkpt lat="48.617952" lon="1.453644">
        <ele>142.750508</ele>
        <time>2025-06-25T14:04:23.749Z</time>
      </trkpt>
      <trkpt lat="48.617856" lon="1.453120">
        <ele>142.506472</ele>
        <time>2025-06-25T14:04:28.281Z</time>
      </trkpt>
      <trkpt lat="48.616926" lon="1.447668">
        <ele>143.593727</ele>
        <time>2025-06-25T14:05:29.203Z</time>
      </trkpt>
      <trkpt lat="48.616836" lon="1.447245">
        <ele>143.778807</ele>
        <time>2025-06-25T14:05:34.781Z</time>
      </trkpt>
      <trkpt lat="48.615466" lon="1.442893">
        <ele>147.347786</ele>
        <time>2025-06-25T14:06:37.668Z</time>
      </trkpt>
      <trkpt lat="48.615212" lon="1.442305">
        <ele>147.856035</ele>
        <time>2025-06-25T14:06:46.268Z</time>
      </trkpt>
      <trkpt lat="48.613613" lon="1.439302">
        <ele>150.313559</ele>
        <time>2025-06-25T14:07:32.937Z</time>
      </trkpt>
      <trkpt lat="48.611572" lon="1.435167">
        <ele>155.140461</ele>
        <time>2025-06-25T14:08:42.351Z</time>
      </trkpt>
      <trkpt lat="48.611266" lon="1.434485">
        <ele>156.288838</ele>
        <time>2025-06-25T14:08:54.878Z</time>
      </trkpt>
      <trkpt lat="48.610696" lon="1.432845">
        <ele>159.179328</ele>
        <time>2025-06-25T14:09:25.404Z</time>
      </trkpt>
      <trkpt lat="48.610492" lon="1.432309">
        <ele>160.374580</ele>
        <time>2025-06-25T14:09:36.082Z</time>
      </trkpt>
      <trkpt lat="48.610142" lon="1.431530">
        <ele>162.194810</ele>
        <time>2025-06-25T14:09:52.778Z</time>
      </trkpt>
      <trkpt lat="48.609887" lon="1.430856">
        <ele>163.730933</ele>
        <time>2025-06-25T14:10:07.021Z</time>
      </trkpt>
      <trkpt lat="48.609709" lon="1.430457">
        <ele>164.750989</ele>
        <time>2025-06-25T14:10:15.997Z</time>
      </trkpt>
      <trkpt lat="48.608772" lon="1.428751">
        <ele>169.318531</ele>
        <time>2025-06-25T14:10:56.918Z</time>
      </trkpt>
      <trkpt lat="48.608432" lon="1.427995">
        <ele>170.535387</ele>
        <time>2025-06-25T14:11:11.928Z</time>
      </trkpt>
      <trkpt lat="48.608271" lon="1.427441">
        <ele>171.340788</ele>
        <time>2025-06-25T14:11:21.037Z</time>
      </trkpt>
      <trkpt lat="48.607733" lon="1.424943">
        <ele>173.522574</ele>
        <time>2025-06-25T14:11:55.187Z</time>
      </trkpt>
      <trkpt lat="48.607429" lon="1.423925">
        <ele>174.088228</ele>
        <time>2025-06-25T14:12:07.172Z</time>
      </trkpt>
      <trkpt lat="48.606929" lon="1.422426">
        <ele>173.991901</ele>
        <time>2025-06-25T14:12:22.863Z</time>
      </trkpt>
      <trkpt lat="48.606742" lon="1.421655">
        <ele>173.942391</ele>
        <time>2025-06-25T14:12:30.486Z</time>
      </trkpt>
      <trkpt lat="48.606606" lon="1.421050">
        <ele>173.951087</ele>
        <time>2025-06-25T14:12:36.828Z</time>
      </trkpt>
      <trkpt lat="48.606470" lon="1.420426">
        <ele>173.987083</ele>
        <time>2025-06-25T14:12:43.417Z</time>
      </trkpt>
      <trkpt lat="48.606319" lon="1.419780">
        <ele>174.024622</ele>
        <time>2025-06-25T14:12:50.133Z</time>
      </trkpt>
      <trkpt lat="48.606134" lon="1.418803">
        <ele>174.101855</ele>
        <time>2025-06-25T14:13:00.278Z</time>
      </trkpt>
      <trkpt lat="48.605864" lon="1.416847">
        <ele>175.096385</ele>
        <time>2025-06-25T14:13:22.642Z</time>
      </trkpt>
      <trkpt lat="48.605704" lon="1.416104">
        <ele>175.532757</ele>
        <time>2025-06-25T14:13:33.210Z</time>
      </trkpt>
      <trkpt lat="48.605485" lon="1.415477">
        <ele>176.196909</ele>
        <time>2025-06-25T14:13:43.513Z</time>
      </trkpt>
      <trkpt lat="48.605301" lon="1.415058">
        <ele>176.668013</ele>
        <time>2025-06-25T14:13:51.102Z</time>
      </trkpt>
      <trkpt lat="48.604643" lon="1.413833">
        <ele>178.076738</ele>
        <time>2025-06-25T14:14:11.599Z</time>
      </trkpt>
      <trkpt lat="48.604579" lon="1.413726">
        <ele>178.155649</ele>
        <time>2025-06-25T14:14:13.381Z</time>
      </trkpt>
      <trkpt lat="48.603214" lon="1.411457">
        <ele>179.682176</ele>
        <time>2025-06-25T14:14:49.803Z</time>
      </trkpt>
      <trkpt lat="48.602945" lon="1.410884">
        <ele>179.907940</ele>
        <time>2025-06-25T14:14:57.811Z</time>
      </trkpt>
      <trkpt lat="48.602552" lon="1.409787">
        <ele>180.308779</ele>
        <time>2025-06-25T14:15:11.142Z</time>
      </trkpt>
      <trkpt lat="48.602409" lon="1.409467">
        <ele>180.379633</ele>
        <time>2025-06-25T14:15:14.983Z</time>
      </trkpt>
      <trkpt lat="48.601548" lon="1.408047">
        <ele>180.640863</ele>
        <time>2025-06-25T14:15:34.185Z</time>
      </trkpt>
      <trkpt lat="48.601408" lon="1.407777">
        <ele>180.687386</ele>
        <time>2025-06-25T14:15:37.800Z</time>
      </trkpt>
      <trkpt lat="48.601260" lon="1.407426">
        <ele>180.856851</ele>
        <time>2025-06-25T14:15:42.374Z</time>
      </trkpt>
      <trkpt lat="48.600991" lon="1.406441">
        <ele>181.478011</ele>
        <time>2025-06-25T14:15:55.107Z</time>
      </trkpt>
      <trkpt lat="48.600702" lon="1.405318">
        <ele>182.180396</ele>
        <time>2025-06-25T14:16:10.315Z</time>
      </trkpt>
      <trkpt lat="48.600012" lon="1.401724">
        <ele>185.313966</ele>
        <time>2025-06-25T14:16:59.690Z</time>
      </trkpt>
      <trkpt lat="48.599842" lon="1.400300">
        <ele>186.571764</ele>
        <time>2025-06-25T14:17:19.243Z</time>
      </trkpt>
      <trkpt lat="48.599584" lon="1.397799">
        <ele>188.536089</ele>
        <time>2025-06-25T14:17:52.602Z</time>
      </trkpt>
      <trkpt lat="48.599487" lon="1.397190">
        <ele>189.009697</ele>
        <time>2025-06-25T14:18:00.238Z</time>
      </trkpt>
      <trkpt lat="48.599313" lon="1.396585">
        <ele>189.179831</ele>
        <time>2025-06-25T14:18:07.907Z</time>
      </trkpt>
      <trkpt lat="48.599015" lon="1.395920">
        <ele>189.381564</ele>
        <time>2025-06-25T14:18:16.737Z</time>
      </trkpt>
      <trkpt lat="48.597714" lon="1.393573">
        <ele>189.400751</ele>
        <time>2025-06-25T14:18:46.973Z</time>
      </trkpt>
      <trkpt lat="48.597456" lon="1.393059">
        <ele>189.293505</ele>
        <time>2025-06-25T14:18:52.462Z</time>
      </trkpt>
      <trkpt lat="48.597084" lon="1.392189">
        <ele>189.202127</ele>
        <time>2025-06-25T14:19:01.091Z</time>
      </trkpt>
      <trkpt lat="48.597256" lon="1.391926">
        <ele>189.180060</ele>
        <time>2025-06-25T14:19:04.236Z</time>
      </trkpt>
      <trkpt lat="48.597686" lon="1.391097">
        <ele>189.117204</ele>
        <time>2025-06-25T14:19:14.374Z</time>
      </trkpt>
      <trkpt lat="48.597830" lon="1.390883">
        <ele>189.098990</ele>
        <time>2025-06-25T14:19:17.872Z</time>
      </trkpt>
      <trkpt lat="48.598244" lon="1.390224">
        <ele>189.576837</ele>
        <time>2025-06-25T14:19:29.063Z</time>
      </trkpt>
      <trkpt lat="48.598491" lon="1.389901">
        <ele>189.935773</ele>
        <time>2025-06-25T14:19:35.544Z</time>
      </trkpt>
      <trkpt lat="48.598913" lon="1.389234">
        <ele>190.606762</ele>
        <time>2025-06-25T14:19:47.965Z</time>
      </trkpt>
      <trkpt lat="48.598970" lon="1.389026">
        <ele>190.770425</ele>
        <time>2025-06-25T14:19:50.949Z</time>
      </trkpt>
      <trkpt lat="48.598938" lon="1.388787">
        <ele>190.947679</ele>
        <time>2025-06-25T14:19:54.157Z</time>
      </trkpt>
      <trkpt lat="48.598404" lon="1.387569">
        <ele>191.823822</ele>
        <time>2025-06-25T14:20:12.278Z</time>
      </trkpt>
      <trkpt lat="48.597605" lon="1.385774">
        <ele>192.889918</ele>
        <time>2025-06-25T14:20:37.654Z</time>
      </trkpt>
      <trkpt lat="48.597544" lon="1.385476">
        <ele>192.989610</ele>
        <time>2025-06-25T14:20:41.273Z</time>
      </trkpt>
      <trkpt lat="48.597520" lon="1.385194">
        <ele>193.080474</ele>
        <time>2025-06-25T14:20:44.559Z</time>
      </trkpt>
      <trkpt lat="48.597472" lon="1.384060">
        <ele>193.443617</ele>
        <time>2025-06-25T14:20:57.015Z</time>
      </trkpt>
      <trkpt lat="48.597435" lon="1.383682">
        <ele>193.495555</ele>
        <time>2025-06-25T14:21:02.305Z</time>
      </trkpt>
      <trkpt lat="48.597390" lon="1.382250">
        <ele>193.249853</ele>
        <time>2025-06-25T14:21:20.883Z</time>
      </trkpt>
      <trkpt lat="48.597447" lon="1.382025">
        <ele>193.208559</ele>
        <time>2025-06-25T14:21:23.865Z</time>
      </trkpt>
      <trkpt lat="48.597660" lon="1.381451">
        <ele>193.095756</ele>
        <time>2025-06-25T14:21:31.881Z</time>
      </trkpt>
      <trkpt lat="48.597861" lon="1.380988">
        <ele>192.927208</ele>
        <time>2025-06-25T14:21:38.569Z</time>
      </trkpt>
      <trkpt lat="48.597969" lon="1.380708">
        <ele>192.794632</ele>
        <time>2025-06-25T14:21:42.457Z</time>
      </trkpt>
      <trkpt lat="48.598311" lon="1.380142">
        <ele>192.481061</ele>
        <time>2025-06-25T14:21:51.697Z</time>
      </trkpt>
      <trkpt lat="48.599079" lon="1.378871">
        <ele>191.932103</ele>
        <time>2025-06-25T14:22:12.265Z</time>
      </trkpt>
      <trkpt lat="48.599358" lon="1.378414">
        <ele>191.917480</ele>
        <time>2025-06-25T14:22:20.113Z</time>
      </trkpt>
      <trkpt lat="48.599623" lon="1.377967">
        <ele>191.903366</ele>
        <time>2025-06-25T14:22:28.189Z</time>
      </trkpt>
      <trkpt lat="48.599654" lon="1.377903">
        <ele>191.901501</ele>
        <time>2025-06-25T14:22:29.264Z</time>
      </trkpt>
      <trkpt lat="48.599507" lon="1.377794">
        <ele>191.895680</ele>
        <time>2025-06-25T14:22:31.859Z</time>
      </trkpt>
      <trkpt lat="48.599292" lon="1.377560">
        <ele>191.886263</ele>
        <time>2025-06-25T14:22:36.185Z</time>
      </trkpt>
      <trkpt lat="48.598872" lon="1.376705">
        <ele>192.136403</ele>
        <time>2025-06-25T14:22:48.213Z</time>
      </trkpt>
      <trkpt lat="48.597907" lon="1.374555">
        <ele>193.107044</ele>
        <time>2025-06-25T14:23:17.615Z</time>
      </trkpt>
      <trkpt lat="48.597321" lon="1.373311">
        <ele>193.691533</ele>
        <time>2025-06-25T14:23:35.153Z</time>
      </trkpt>
      <trkpt lat="48.596635" lon="1.372030">
        <ele>194.213591</ele>
        <time>2025-06-25T14:23:53.134Z</time>
      </trkpt>
      <trkpt lat="48.596206" lon="1.370892">
        <ele>194.576891</ele>
        <time>2025-06-25T14:24:07.056Z</time>
      </trkpt>
      <trkpt lat="48.596078" lon="1.370616">
        <ele>194.670385</ele>
        <time>2025-06-25T14:24:10.736Z</time>
      </trkpt>
      <trkpt lat="48.594695" lon="1.367803">
        <ele>196.184091</ele>
        <time>2025-06-25T14:24:51.450Z</time>
      </trkpt>
      <trkpt lat="48.594236" lon="1.366954">
        <ele>196.661294</ele>
        <time>2025-06-25T14:25:04.218Z</time>
      </trkpt>
      <trkpt lat="48.594029" lon="1.366511">
        <ele>196.897342</ele>
        <time>2025-06-25T14:25:10.496Z</time>
      </trkpt>
      <trkpt lat="48.593200" lon="1.364439">
        <ele>197.934428</ele>
        <time>2025-06-25T14:25:38.315Z</time>
      </trkpt>
      <trkpt lat="48.592794" lon="1.363498">
        <ele>198.483697</ele>
        <time>2025-06-25T14:25:51.310Z</time>
      </trkpt>
      <trkpt lat="48.592204" lon="1.362257">
        <ele>199.352764</ele>
        <time>2025-06-25T14:26:09.633Z</time>
      </trkpt>
      <trkpt lat="48.591482" lon="1.360931">
        <ele>200.302202</ele>
        <time>2025-06-25T14:26:30.981Z</time>
      </trkpt>
      <trkpt lat="48.590870" lon="1.359626">
        <ele>201.169069</ele>
        <time>2025-06-25T14:26:50.250Z</time>
      </trkpt>
      <trkpt lat="48.590227" lon="1.358131">
        <ele>201.274421</ele>
        <time>2025-06-25T14:27:09.385Z</time>
      </trkpt>
      <trkpt lat="48.589948" lon="1.357425">
        <ele>201.298680</ele>
        <time>2025-06-25T14:27:16.992Z</time>
      </trkpt>
      <trkpt lat="48.589849" lon="1.357108">
        <ele>201.206368</ele>
        <time>2025-06-25T14:27:20.074Z</time>
      </trkpt>
      <trkpt lat="48.589196" lon="1.353910">
        <ele>197.988439</ele>
        <time>2025-06-25T14:27:46.490Z</time>
      </trkpt>
      <trkpt lat="48.588464" lon="1.350387">
        <ele>191.266959</ele>
        <time>2025-06-25T14:28:11.182Z</time>
      </trkpt>
      <trkpt lat="48.588210" lon="1.349524">
        <ele>189.445933</ele>
        <time>2025-06-25T14:28:17.601Z</time>
      </trkpt>
      <trkpt lat="48.587295" lon="1.347184">
        <ele>187.383140</ele>
        <time>2025-06-25T14:28:39.010Z</time>
      </trkpt>
      <trkpt lat="48.587210" lon="1.346900">
        <ele>187.555786</ele>
        <time>2025-06-25T14:28:42.483Z</time>
      </trkpt>
      <trkpt lat="48.587132" lon="1.346529">
        <ele>187.846340</ele>
        <time>2025-06-25T14:28:47.121Z</time>
      </trkpt>
      <trkpt lat="48.586887" lon="1.344665">
        <ele>189.264780</ele>
        <time>2025-06-25T14:29:14.089Z</time>
      </trkpt>
      <trkpt lat="48.586781" lon="1.343306">
        <ele>190.282124</ele>
        <time>2025-06-25T14:29:33.371Z</time>
      </trkpt>
      <trkpt lat="48.586421" lon="1.341676">
        <ele>191.390000</ele>
        <time>2025-06-25T14:29:54.097Z</time>
      </trkpt>
      <trkpt lat="48.586386" lon="1.341397">
        <ele>191.372168</ele>
        <time>2025-06-25T14:29:56.991Z</time>
      </trkpt>
      <trkpt lat="48.586383" lon="1.340155">
        <ele>191.294174</ele>
        <time>2025-06-25T14:30:08.262Z</time>
      </trkpt>
      <trkpt lat="48.586264" lon="1.339051">
        <ele>191.248933</ele>
        <time>2025-06-25T14:30:18.177Z</time>
      </trkpt>
      <trkpt lat="48.586203" lon="1.338736">
        <ele>191.288997</ele>
        <time>2025-06-25T14:30:21.248Z</time>
      </trkpt>
      <trkpt lat="48.585704" lon="1.336957">
        <ele>191.524864</ele>
        <time>2025-06-25T14:30:41.637Z</time>
      </trkpt>
      <trkpt lat="48.585613" lon="1.336467">
        <ele>191.635527</ele>
        <time>2025-06-25T14:30:47.410Z</time>
      </trkpt>
      <trkpt lat="48.585483" lon="1.335357">
        <ele>192.067810</ele>
        <time>2025-06-25T14:30:59.871Z</time>
      </trkpt>
      <trkpt lat="48.585429" lon="1.335108">
        <ele>192.168297</ele>
        <time>2025-06-25T14:31:02.751Z</time>
      </trkpt>
      <trkpt lat="48.585121" lon="1.334152">
        <ele>192.576075</ele>
        <time>2025-06-25T14:31:14.849Z</time>
      </trkpt>
      <trkpt lat="48.584569" lon="1.332439">
        <ele>193.586514</ele>
        <time>2025-06-25T14:31:37.841Z</time>
      </trkpt>
      <trkpt lat="48.584136" lon="1.331216">
        <ele>194.195059</ele>
        <time>2025-06-25T14:31:54.673Z</time>
      </trkpt>
      <trkpt lat="48.583358" lon="1.329279">
        <ele>194.762186</ele>
        <time>2025-06-25T14:32:19.218Z</time>
      </trkpt>
      <trkpt lat="48.583253" lon="1.328931">
        <ele>194.634908</ele>
        <time>2025-06-25T14:32:22.853Z</time>
      </trkpt>
      <trkpt lat="48.582874" lon="1.327616">
        <ele>194.157598</ele>
        <time>2025-06-25T14:32:35.580Z</time>
      </trkpt>
      <trkpt lat="48.582753" lon="1.327287">
        <ele>194.032336</ele>
        <time>2025-06-25T14:32:38.696Z</time>
      </trkpt>
      <trkpt lat="48.582728" lon="1.327234">
        <ele>194.010676</ele>
        <time>2025-06-25T14:32:39.224Z</time>
      </trkpt>
      <trkpt lat="48.582674" lon="1.327115">
        <ele>193.962655</ele>
        <time>2025-06-25T14:32:40.400Z</time>
      </trkpt>
      <trkpt lat="48.581044" lon="1.323480">
        <ele>190.865103</ele>
        <time>2025-06-25T14:33:14.643Z</time>
      </trkpt>
      <trkpt lat="48.580929" lon="1.323104">
        <ele>190.644618</ele>
        <time>2025-06-25T14:33:18.075Z</time>
      </trkpt>
      <trkpt lat="48.580877" lon="1.322775">
        <ele>190.464574</ele>
        <time>2025-06-25T14:33:20.950Z</time>
      </trkpt>
      <trkpt lat="48.580721" lon="1.320680">
        <ele>190.813574</ele>
        <time>2025-06-25T14:33:42.899Z</time>
      </trkpt>
      <trkpt lat="48.580665" lon="1.320148">
        <ele>191.042022</ele>
        <time>2025-06-25T14:33:49.660Z</time>
      </trkpt>
      <trkpt lat="48.580475" lon="1.318844">
        <ele>192.060946</ele>
        <time>2025-06-25T14:34:07.663Z</time>
      </trkpt>
      <trkpt lat="48.580394" lon="1.318059">
        <ele>192.916493</ele>
        <time>2025-06-25T14:34:19.044Z</time>
      </trkpt>
      <trkpt lat="48.580394" lon="1.317704">
        <ele>193.298775</ele>
        <time>2025-06-25T14:34:24.154Z</time>
      </trkpt>
      <trkpt lat="48.580447" lon="1.316732">
        <ele>194.328103</ele>
        <time>2025-06-25T14:34:38.275Z</time>
      </trkpt>
      <trkpt lat="48.580459" lon="1.315544">
        <ele>195.357735</ele>
        <time>2025-06-25T14:34:55.012Z</time>
      </trkpt>
      <trkpt lat="48.580506" lon="1.314698">
        <ele>196.093452</ele>
        <time>2025-06-25T14:35:06.045Z</time>
      </trkpt>
      <trkpt lat="48.580525" lon="1.314140">
        <ele>196.577649</ele>
        <time>2025-06-25T14:35:12.868Z</time>
      </trkpt>
      <trkpt lat="48.580497" lon="1.313792">
        <ele>196.694080</ele>
        <time>2025-06-25T14:35:17.011Z</time>
      </trkpt>
      <trkpt lat="48.580364" lon="1.312932">
        <ele>196.953623</ele>
        <time>2025-06-25T14:35:27.062Z</time>
      </trkpt>
      <trkpt lat="48.580056" lon="1.310929">
        <ele>197.402612</ele>
        <time>2025-06-25T14:35:48.582Z</time>
      </trkpt>
      <trkpt lat="48.579591" lon="1.308838">
        <ele>197.429746</ele>
        <time>2025-06-25T14:36:09.614Z</time>
      </trkpt>
      <trkpt lat="48.579365" lon="1.308045">
        <ele>197.540727</ele>
        <time>2025-06-25T14:36:18.240Z</time>
      </trkpt>
      <trkpt lat="48.578911" lon="1.306453">
        <ele>197.763552</ele>
        <time>2025-06-25T14:36:36.738Z</time>
      </trkpt>
      <trkpt lat="48.578197" lon="1.304026">
        <ele>197.902383</ele>
        <time>2025-06-25T14:37:04.127Z</time>
      </trkpt>
      <trkpt lat="48.576649" lon="1.298762">
        <ele>195.573647</ele>
        <time>2025-06-25T14:37:53.787Z</time>
      </trkpt>
      <trkpt lat="48.576622" lon="1.298676">
        <ele>195.522698</ele>
        <time>2025-06-25T14:37:54.467Z</time>
      </trkpt>
      <trkpt lat="48.576416" lon="1.297930">
        <ele>195.090035</ele>
        <time>2025-06-25T14:38:00.218Z</time>
      </trkpt>
      <trkpt lat="48.576151" lon="1.296783">
        <ele>194.439770</ele>
        <time>2025-06-25T14:38:09.705Z</time>
      </trkpt>
      <trkpt lat="48.576118" lon="1.296627">
        <ele>194.352110</ele>
        <time>2025-06-25T14:38:11.236Z</time>
      </trkpt>
      <trkpt lat="48.575781" lon="1.295040">
        <ele>196.170119</ele>
        <time>2025-06-25T14:38:35.885Z</time>
      </trkpt>
      <trkpt lat="48.575650" lon="1.294060">
        <ele>197.563673</ele>
        <time>2025-06-25T14:38:54.532Z</time>
      </trkpt>
      <trkpt lat="48.575622" lon="1.293501">
        <ele>198.140417</ele>
        <time>2025-06-25T14:39:03.797Z</time>
      </trkpt>
      <trkpt lat="48.575625" lon="1.292912">
        <ele>198.472963</ele>
        <time>2025-06-25T14:39:12.303Z</time>
      </trkpt>
      <trkpt lat="48.575677" lon="1.292163">
        <ele>198.898154</ele>
        <time>2025-06-25T14:39:21.131Z</time>
      </trkpt>
      <trkpt lat="48.575915" lon="1.290345">
        <ele>199.587060</ele>
        <time>2025-06-25T14:39:38.314Z</time>
      </trkpt>
      <trkpt lat="48.576322" lon="1.287353">
        <ele>200.010656</ele>
        <time>2025-06-25T14:40:10.173Z</time>
      </trkpt>
      <trkpt lat="48.576346" lon="1.286967">
        <ele>200.114033</ele>
        <time>2025-06-25T14:40:14.346Z</time>
      </trkpt>
      <trkpt lat="48.576304" lon="1.286506">
        <ele>200.238114</ele>
        <time>2025-06-25T14:40:19.335Z</time>
      </trkpt>
      <trkpt lat="48.575865" lon="1.283995">
        <ele>201.693038</ele>
        <time>2025-06-25T14:40:49.208Z</time>
      </trkpt>
      <trkpt lat="48.575736" lon="1.283504">
        <ele>202.058742</ele>
        <time>2025-06-25T14:40:56.620Z</time>
      </trkpt>
      <trkpt lat="48.575496" lon="1.282638">
        <ele>202.595737</ele>
        <time>2025-06-25T14:41:10.699Z</time>
      </trkpt>
      <trkpt lat="48.575264" lon="1.281788">
        <ele>203.039954</ele>
        <time>2025-06-25T14:41:23.653Z</time>
      </trkpt>
      <trkpt lat="48.575139" lon="1.280968">
        <ele>203.446489</ele>
        <time>2025-06-25T14:41:33.191Z</time>
      </trkpt>
      <trkpt lat="48.574643" lon="1.276125">
        <ele>199.976408</ele>
        <time>2025-06-25T14:42:10.349Z</time>
      </trkpt>
      <trkpt lat="48.574532" lon="1.275455">
        <ele>199.536447</ele>
        <time>2025-06-25T14:42:16.310Z</time>
      </trkpt>
      <trkpt lat="48.573504" lon="1.270377">
        <ele>202.079370</ele>
        <time>2025-06-25T14:43:19.465Z</time>
      </trkpt>
      <trkpt lat="48.573280" lon="1.269153">
        <ele>203.125559</ele>
        <time>2025-06-25T14:43:37.614Z</time>
      </trkpt>
      <trkpt lat="48.573256" lon="1.268809">
        <ele>203.437530</ele>
        <time>2025-06-25T14:43:42.621Z</time>
      </trkpt>
      <trkpt lat="48.573271" lon="1.268415">
        <ele>203.793462</ele>
        <time>2025-06-25T14:43:48.354Z</time>
      </trkpt>
      <trkpt lat="48.573951" lon="1.262470">
        <ele>206.979108</ele>
        <time>2025-06-25T14:45:02.643Z</time>
      </trkpt>
      <trkpt lat="48.573993" lon="1.262137">
        <ele>207.051845</ele>
        <time>2025-06-25T14:45:05.343Z</time>
      </trkpt>
      <trkpt lat="48.574134" lon="1.261531">
        <ele>206.531788</ele>
        <time>2025-06-25T14:45:10.134Z</time>
      </trkpt>
      <trkpt lat="48.574747" lon="1.259950">
        <ele>204.415908</ele>
        <time>2025-06-25T14:45:23.004Z</time>
      </trkpt>
      <trkpt lat="48.574883" lon="1.259618">
        <ele>203.965038</ele>
        <time>2025-06-25T14:45:26.009Z</time>
      </trkpt>
      <trkpt lat="48.575166" lon="1.258915">
        <ele>204.296085</ele>
        <time>2025-06-25T14:45:33.255Z</time>
      </trkpt>
      <trkpt lat="48.576489" lon="1.255585">
        <ele>206.807948</ele>
        <time>2025-06-25T14:46:26.204Z</time>
      </trkpt>
      <trkpt lat="48.576623" lon="1.255169">
        <ele>207.203656</ele>
        <time>2025-06-25T14:46:32.164Z</time>
      </trkpt>
      <trkpt lat="48.576725" lon="1.254532">
        <ele>207.541317</ele>
        <time>2025-06-25T14:46:40.279Z</time>
      </trkpt>
      <trkpt lat="48.576937" lon="1.252014">
        <ele>208.021482</ele>
        <time>2025-06-25T14:47:07.634Z</time>
      </trkpt>
      <trkpt lat="48.576974" lon="1.251797">
        <ele>207.876197</ele>
        <time>2025-06-25T14:47:09.577Z</time>
      </trkpt>
      <trkpt lat="48.577111" lon="1.251333">
        <ele>207.546776</ele>
        <time>2025-06-25T14:47:13.791Z</time>
      </trkpt>
      <trkpt lat="48.577602" lon="1.250233">
        <ele>206.686490</ele>
        <time>2025-06-25T14:47:23.849Z</time>
      </trkpt>
      <trkpt lat="48.578402" lon="1.248474">
        <ele>206.205155</ele>
        <time>2025-06-25T14:47:40.814Z</time>
      </trkpt>
      <trkpt lat="48.578516" lon="1.248224">
        <ele>206.172595</ele>
        <time>2025-06-25T14:47:44.259Z</time>
      </trkpt>
      <trkpt lat="48.578702" lon="1.247763">
        <ele>206.114691</ele>
        <time>2025-06-25T14:47:51.185Z</time>
      </trkpt>
      <trkpt lat="48.578770" lon="1.247140">
        <ele>206.690661</ele>
        <time>2025-06-25T14:48:00.503Z</time>
      </trkpt>
      <trkpt lat="48.578787" lon="1.246019">
        <ele>208.271175</ele>
        <time>2025-06-25T14:48:18.703Z</time>
      </trkpt>
      <trkpt lat="48.578604" lon="1.245732">
        <ele>208.833016</ele>
        <time>2025-06-25T14:48:26.415Z</time>
      </trkpt>
      <trkpt lat="48.578276" lon="1.244716">
        <ele>210.302192</ele>
        <time>2025-06-25T14:48:48.279Z</time>
      </trkpt>
      <trkpt lat="48.578113" lon="1.244771">
        <ele>210.569879</ele>
        <time>2025-06-25T14:48:52.334Z</time>
      </trkpt>
      <trkpt lat="48.577669" lon="1.243215">
        <ele>212.366810</ele>
        <time>2025-06-25T14:49:16.409Z</time>
      </trkpt>
      <trkpt lat="48.577566" lon="1.242678">
        <ele>212.894616</ele>
        <time>2025-06-25T14:49:23.137Z</time>
      </trkpt>
      <trkpt lat="48.577543" lon="1.242561">
        <ele>212.968719</ele>
        <time>2025-06-25T14:49:24.567Z</time>
      </trkpt>
      <trkpt lat="48.577666" lon="1.242490">
        <ele>213.089542</ele>
        <time>2025-06-25T14:49:27.544Z</time>
      </trkpt>
      <trkpt lat="48.577672" lon="1.242302">
        <ele>213.203814</ele>
        <time>2025-06-25T14:49:30.349Z</time>
      </trkpt>
      <trkpt lat="48.577713" lon="1.242254">
        <ele>213.251404</ele>
        <time>2025-06-25T14:49:31.517Z</time>
      </trkpt>
      <trkpt lat="48.578003" lon="1.241911">
        <ele>213.589316</ele>
        <time>2025-06-25T14:49:39.517Z</time>
      </trkpt>
      <trkpt lat="48.578057" lon="1.241843">
        <ele>213.653813</ele>
        <time>2025-06-25T14:49:41.015Z</time>
      </trkpt>
      <trkpt lat="48.578124" lon="1.241773">
        <ele>213.728555</ele>
        <time>2025-06-25T14:49:42.817Z</time>
      </trkpt>
      <trkpt lat="48.578143" lon="1.241750">
        <ele>213.750892</ele>
        <time>2025-06-25T14:49:43.370Z</time>
      </trkpt>
      <trkpt lat="48.578665" lon="1.241121">
        <ele>214.363497</ele>
        <time>2025-06-25T14:49:59.569Z</time>
      </trkpt>
      <trkpt lat="48.578848" lon="1.240684">
        <ele>214.795739</ele>
        <time>2025-06-25T14:50:08.584Z</time>
      </trkpt>
      <trkpt lat="48.578855" lon="1.240590">
        <ele>214.884105</ele>
        <time>2025-06-25T14:50:10.297Z</time>
      </trkpt>
      <trkpt lat="48.578895" lon="1.240182">
        <ele>215.269407</ele>
        <time>2025-06-25T14:50:16.162Z</time>
      </trkpt>
      <trkpt lat="48.578813" lon="1.239444">
        <ele>215.968476</ele>
        <time>2025-06-25T14:50:26.736Z</time>
      </trkpt>
      <trkpt lat="48.578921" lon="1.238717">
        <ele>216.664525</ele>
        <time>2025-06-25T14:50:36.979Z</time>
      </trkpt>
      <trkpt lat="48.578934" lon="1.238452">
        <ele>216.912759</ele>
        <time>2025-06-25T14:50:40.415Z</time>
      </trkpt>
      <trkpt lat="48.578863" lon="1.237600">
        <ele>217.202459</ele>
        <time>2025-06-25T14:50:51.152Z</time>
      </trkpt>
      <trkpt lat="48.578789" lon="1.237204">
        <ele>217.312211</ele>
        <time>2025-06-25T14:50:56.054Z</time>
      </trkpt>
      <trkpt lat="48.578684" lon="1.236814">
        <ele>217.424513</ele>
        <time>2025-06-25T14:51:00.803Z</time>
      </trkpt>
      <trkpt lat="48.578518" lon="1.236326">
        <ele>217.570867</ele>
        <time>2025-06-25T14:51:06.521Z</time>
      </trkpt>
      <trkpt lat="48.578493" lon="1.236206">
        <ele>217.604422</ele>
        <time>2025-06-25T14:51:07.724Z</time>
      </trkpt>
      <trkpt lat="48.578496" lon="1.236069">
        <ele>217.640982</ele>
        <time>2025-06-25T14:51:09.004Z</time>
      </trkpt>
      <trkpt lat="48.578507" lon="1.235843">
        <ele>217.701423</ele>
        <time>2025-06-25T14:51:11.012Z</time>
      </trkpt>
      <trkpt lat="48.578749" lon="1.234638">
        <ele>216.934172</ele>
        <time>2025-06-25T14:51:21.324Z</time>
      </trkpt>
      <trkpt lat="48.578815" lon="1.234008">
        <ele>216.507620</ele>
        <time>2025-06-25T14:51:26.169Z</time>
      </trkpt>
      <trkpt lat="48.578821" lon="1.233953">
        <ele>216.470343</ele>
        <time>2025-06-25T14:51:26.587Z</time>
      </trkpt>
      <trkpt lat="48.578937" lon="1.232193">
        <ele>215.520113</ele>
        <time>2025-06-25T14:51:40.649Z</time>
      </trkpt>
      <trkpt lat="48.579044" lon="1.231038">
        <ele>215.034093</ele>
        <time>2025-06-25T14:51:51.689Z</time>
      </trkpt>
      <trkpt lat="48.579195" lon="1.230407">
        <ele>214.740579</ele>
        <time>2025-06-25T14:51:57.814Z</time>
      </trkpt>
      <trkpt lat="48.579252" lon="1.230266">
        <ele>214.616404</ele>
        <time>2025-06-25T14:51:59.259Z</time>
      </trkpt>
      <trkpt lat="48.579622" lon="1.229362">
        <ele>213.817571</ele>
        <time>2025-06-25T14:52:07.797Z</time>
      </trkpt>
      <trkpt lat="48.580464" lon="1.227298">
        <ele>213.193522</ele>
        <time>2025-06-25T14:52:26.296Z</time>
      </trkpt>
      <trkpt lat="48.579273" lon="1.222366">
        <ele>218.131672</ele>
        <time>2025-06-25T14:53:45.584Z</time>
      </trkpt>
      <trkpt lat="48.578060" lon="1.217029">
        <ele>221.308448</ele>
        <time>2025-06-25T14:54:49.867Z</time>
      </trkpt>
      <trkpt lat="48.577299" lon="1.213803">
        <ele>223.162526</ele>
        <time>2025-06-25T14:55:37.298Z</time>
      </trkpt>
      <trkpt lat="48.575852" lon="1.207717">
        <ele>218.958889</ele>
        <time>2025-06-25T14:56:27.523Z</time>
      </trkpt>
      <trkpt lat="48.575879" lon="1.207539">
        <ele>218.957279</ele>
        <time>2025-06-25T14:56:29.131Z</time>
      </trkpt>
      <trkpt lat="48.575867" lon="1.207276">
        <ele>218.954955</ele>
        <time>2025-06-25T14:56:31.529Z</time>
      </trkpt>
      <trkpt lat="48.575782" lon="1.206920">
        <ele>218.951618</ele>
        <time>2025-06-25T14:56:35.095Z</time>
      </trkpt>
      <trkpt lat="48.575671" lon="1.206596">
        <ele>218.948402</ele>
        <time>2025-06-25T14:56:38.772Z</time>
      </trkpt>
      <trkpt lat="48.575648" lon="1.206531">
        <ele>218.947752</ele>
        <time>2025-06-25T14:56:39.517Z</time>
      </trkpt>
      <trkpt lat="48.575159" lon="1.201851">
        <ele>219.591831</ele>
        <time>2025-06-25T14:57:30.402Z</time>
      </trkpt>
      <trkpt lat="48.574561" lon="1.195852">
        <ele>220.097476</ele>
        <time>2025-06-25T14:58:30.562Z</time>
      </trkpt>
      <trkpt lat="48.574051" lon="1.191319">
        <ele>221.062283</ele>
        <time>2025-06-25T14:59:21.845Z</time>
      </trkpt>
      <trkpt lat="48.573775" lon="1.188869">
        <ele>220.274358</ele>
        <time>2025-06-25T14:59:43.837Z</time>
      </trkpt>
      <trkpt lat="48.572905" lon="1.181144">
        <ele>211.524101</ele>
        <time>2025-06-25T15:00:42.183Z</time>
      </trkpt>
      <trkpt lat="48.572798" lon="1.180196">
        <ele>209.773027</ele>
        <time>2025-06-25T15:00:49.044Z</time>
      </trkpt>
      <trkpt lat="48.572514" lon="1.177770">
        <ele>204.776748</ele>
        <time>2025-06-25T15:01:05.428Z</time>
      </trkpt>
      <trkpt lat="48.572513" lon="1.177553">
        <ele>204.287659</ele>
        <time>2025-06-25T15:01:06.842Z</time>
      </trkpt>
      <trkpt lat="48.572772" lon="1.176201">
        <ele>201.115370</ele>
        <time>2025-06-25T15:01:16.133Z</time>
      </trkpt>
      <trkpt lat="48.572951" lon="1.175685">
        <ele>199.809595</ele>
        <time>2025-06-25T15:01:20.000Z</time>
      </trkpt>
      <trkpt lat="48.572603" lon="1.175312">
        <ele>198.782724</ele>
        <time>2025-06-25T15:01:24.361Z</time>
      </trkpt>
      <trkpt lat="48.572318" lon="1.175074">
        <ele>197.998998</ele>
        <time>2025-06-25T15:01:27.748Z</time>
      </trkpt>
      <trkpt lat="48.572077" lon="1.174798">
        <ele>197.271199</ele>
        <time>2025-06-25T15:01:30.965Z</time>
      </trkpt>
      <trkpt lat="48.572036" lon="1.174700">
        <ele>197.086543</ele>
        <time>2025-06-25T15:01:31.785Z</time>
      </trkpt>
      <trkpt lat="48.572008" lon="1.174365">
        <ele>196.548780</ele>
        <time>2025-06-25T15:01:34.204Z</time>
      </trkpt>
      <trkpt lat="48.572001" lon="1.173847">
        <ele>195.723637</ele>
        <time>2025-06-25T15:01:37.994Z</time>
      </trkpt>
      <trkpt lat="48.572130" lon="1.172364">
        <ele>194.911873</ele>
        <time>2025-06-25T15:01:49.985Z</time>
      </trkpt>
      <trkpt lat="48.572140" lon="1.172237">
        <ele>194.856509</ele>
        <time>2025-06-25T15:01:51.110Z</time>
      </trkpt>
      <trkpt lat="48.572228" lon="1.171308">
        <ele>194.450262</ele>
        <time>2025-06-25T15:02:00.060Z</time>
      </trkpt>
      <trkpt lat="48.572384" lon="1.170626">
        <ele>194.474769</ele>
        <time>2025-06-25T15:02:07.179Z</time>
      </trkpt>
      <trkpt lat="48.572458" lon="1.170167">
        <ele>194.645821</ele>
        <time>2025-06-25T15:02:12.091Z</time>
      </trkpt>
      <trkpt lat="48.572598" lon="1.168951">
        <ele>195.092712</ele>
        <time>2025-06-25T15:02:26.340Z</time>
      </trkpt>
      <trkpt lat="48.572628" lon="1.168638">
        <ele>195.207222</ele>
        <time>2025-06-25T15:02:30.166Z</time>
      </trkpt>
      <trkpt lat="48.572646" lon="1.167714">
        <ele>195.831031</ele>
        <time>2025-06-25T15:02:41.742Z</time>
      </trkpt>
      <trkpt lat="48.572634" lon="1.167296">
        <ele>196.167815</ele>
        <time>2025-06-25T15:02:47.302Z</time>
      </trkpt>
      <trkpt lat="48.572574" lon="1.166990">
        <ele>196.424716</ele>
        <time>2025-06-25T15:02:51.640Z</time>
      </trkpt>
      <trkpt lat="48.571809" lon="1.164827">
        <ele>198.690976</ele>
        <time>2025-06-25T15:03:24.255Z</time>
      </trkpt>
      <trkpt lat="48.571403" lon="1.163471">
        <ele>200.275536</ele>
        <time>2025-06-25T15:03:45.595Z</time>
      </trkpt>
      <trkpt lat="48.571389" lon="1.163353">
        <ele>200.407338</ele>
        <time>2025-06-25T15:03:47.367Z</time>
      </trkpt>
      <trkpt lat="48.571251" lon="1.161726">
        <ele>202.623093</ele>
        <time>2025-06-25T15:04:12.422Z</time>
      </trkpt>
      <trkpt lat="48.571608" lon="1.158863">
        <ele>206.143195</ele>
        <time>2025-06-25T15:04:57.166Z</time>
      </trkpt>
      <trkpt lat="48.571575" lon="1.158335">
        <ele>206.740528</ele>
        <time>2025-06-25T15:05:04.193Z</time>
      </trkpt>
      <trkpt lat="48.571605" lon="1.157969">
        <ele>207.127103</ele>
        <time>2025-06-25T15:05:08.776Z</time>
      </trkpt>
      <trkpt lat="48.571693" lon="1.157519">
        <ele>207.217992</ele>
        <time>2025-06-25T15:05:14.245Z</time>
      </trkpt>
      <trkpt lat="48.571886" lon="1.156639">
        <ele>207.397560</ele>
        <time>2025-06-25T15:05:23.986Z</time>
      </trkpt>
      <trkpt lat="48.572142" lon="1.154206">
        <ele>207.546226</ele>
        <time>2025-06-25T15:05:47.969Z</time>
      </trkpt>
      <trkpt lat="48.572209" lon="1.153866">
        <ele>207.515543</ele>
        <time>2025-06-25T15:05:51.283Z</time>
      </trkpt>
      <trkpt lat="48.572299" lon="1.153552">
        <ele>207.485947</ele>
        <time>2025-06-25T15:05:54.424Z</time>
      </trkpt>
      <trkpt lat="48.572736" lon="1.152912">
        <ele>207.419498</ele>
        <time>2025-06-25T15:06:02.922Z</time>
      </trkpt>
      <trkpt lat="48.572858" lon="1.152667">
        <ele>207.449695</ele>
        <time>2025-06-25T15:06:05.831Z</time>
      </trkpt>
      <trkpt lat="48.572872" lon="1.152069">
        <ele>207.508623</ele>
        <time>2025-06-25T15:06:11.603Z</time>
      </trkpt>
      <trkpt lat="48.572817" lon="1.149419">
        <ele>207.506074</ele>
        <time>2025-06-25T15:06:39.753Z</time>
      </trkpt>
      <trkpt lat="48.572949" lon="1.148792">
        <ele>207.379976</ele>
        <time>2025-06-25T15:06:46.016Z</time>
      </trkpt>
      <trkpt lat="48.573245" lon="1.147700">
        <ele>207.136323</ele>
        <time>2025-06-25T15:06:56.069Z</time>
      </trkpt>
      <trkpt lat="48.574024" lon="1.145908">
        <ele>205.406331</ele>
        <time>2025-06-25T15:07:12.739Z</time>
      </trkpt>
      <trkpt lat="48.574312" lon="1.145366">
        <ele>204.785249</ele>
        <time>2025-06-25T15:07:18.152Z</time>
      </trkpt>
      <trkpt lat="48.574755" lon="1.144664">
        <ele>203.611406</ele>
        <time>2025-06-25T15:07:25.807Z</time>
      </trkpt>
      <trkpt lat="48.574931" lon="1.144288">
        <ele>203.054096</ele>
        <time>2025-06-25T15:07:29.307Z</time>
      </trkpt>
      <trkpt lat="48.575147" lon="1.143593">
        <ele>202.124982</ele>
        <time>2025-06-25T15:07:34.872Z</time>
      </trkpt>
      <trkpt lat="48.575369" lon="1.142767">
        <ele>200.410203</ele>
        <time>2025-06-25T15:07:40.968Z</time>
      </trkpt>
      <trkpt lat="48.576614" lon="1.141023">
        <ele>194.508161</ele>
        <time>2025-06-25T15:07:57.480Z</time>
      </trkpt>
      <trkpt lat="48.576510" lon="1.139658">
        <ele>192.416482</ele>
        <time>2025-06-25T15:08:06.940Z</time>
      </trkpt>
      <trkpt lat="48.576457" lon="1.138319">
        <ele>190.730666</ele>
        <time>2025-06-25T15:08:17.841Z</time>
      </trkpt>
      <trkpt lat="48.576476" lon="1.136440">
        <ele>189.704032</ele>
        <time>2025-06-25T15:08:35.343Z</time>
      </trkpt>
      <trkpt lat="48.576393" lon="1.135158">
        <ele>187.611695</ele>
        <time>2025-06-25T15:08:44.738Z</time>
      </trkpt>
      <trkpt lat="48.576349" lon="1.134468">
        <ele>186.050096</ele>
        <time>2025-06-25T15:08:49.232Z</time>
      </trkpt>
      <trkpt lat="48.576300" lon="1.133704">
        <ele>184.320928</ele>
        <time>2025-06-25T15:08:54.027Z</time>
      </trkpt>
      <trkpt lat="48.576266" lon="1.133179">
        <ele>183.229065</ele>
        <time>2025-06-25T15:08:57.366Z</time>
      </trkpt>
      <trkpt lat="48.576239" lon="1.132858">
        <ele>182.873986</ele>
        <time>2025-06-25T15:08:59.469Z</time>
      </trkpt>
      <trkpt lat="48.576219" lon="1.132610">
        <ele>182.599833</ele>
        <time>2025-06-25T15:09:01.138Z</time>
      </trkpt>
      <trkpt lat="48.576200" lon="1.132381">
        <ele>182.346575</ele>
        <time>2025-06-25T15:09:02.738Z</time>
      </trkpt>
      <trkpt lat="48.575974" lon="1.131119">
        <ele>180.911906</ele>
        <time>2025-06-25T15:09:13.520Z</time>
      </trkpt>
      <trkpt lat="48.575905" lon="1.130211">
        <ele>180.016981</ele>
        <time>2025-06-25T15:09:23.351Z</time>
      </trkpt>
      <trkpt lat="48.575932" lon="1.129437">
        <ele>179.380802</ele>
        <time>2025-06-25T15:09:30.238Z</time>
      </trkpt>
      <trkpt lat="48.575980" lon="1.129234">
        <ele>179.203859</ele>
        <time>2025-06-25T15:09:31.946Z</time>
      </trkpt>
      <trkpt lat="48.576073" lon="1.129019">
        <ele>178.993021</ele>
        <time>2025-06-25T15:09:33.884Z</time>
      </trkpt>
      <trkpt lat="48.576292" lon="1.128846">
        <ele>178.686465</ele>
        <time>2025-06-25T15:09:36.559Z</time>
      </trkpt>
      <trkpt lat="48.576534" lon="1.128714">
        <ele>178.367295</ele>
        <time>2025-06-25T15:09:39.231Z</time>
      </trkpt>
      <trkpt lat="48.576718" lon="1.128530">
        <ele>178.100503</ele>
        <time>2025-06-25T15:09:41.542Z</time>
      </trkpt>
      <trkpt lat="48.577194" lon="1.127872">
        <ele>177.738429</ele>
        <time>2025-06-25T15:09:48.663Z</time>
      </trkpt>
      <trkpt lat="48.577235" lon="1.127816">
        <ele>177.707411</ele>
        <time>2025-06-25T15:09:49.331Z</time>
      </trkpt>
      <trkpt lat="48.577331" lon="1.127682">
        <ele>177.634063</ele>
        <time>2025-06-25T15:09:50.938Z</time>
      </trkpt>
      <trkpt lat="48.577412" lon="1.127576">
        <ele>177.573924</ele>
        <time>2025-06-25T15:09:52.294Z</time>
      </trkpt>
      <trkpt lat="48.577754" lon="1.127076">
        <ele>177.306850</ele>
        <time>2025-06-25T15:09:59.233Z</time>
      </trkpt>
      <trkpt lat="48.577870" lon="1.126865">
        <ele>177.204971</ele>
        <time>2025-06-25T15:10:02.502Z</time>
      </trkpt>
      <trkpt lat="48.578054" lon="1.126346">
        <ele>177.538638</ele>
        <time>2025-06-25T15:10:10.676Z</time>
      </trkpt>
      <trkpt lat="48.578131" lon="1.125999">
        <ele>178.083211</ele>
        <time>2025-06-25T15:10:16.303Z</time>
      </trkpt>
      <trkpt lat="48.578171" lon="1.125686">
        <ele>178.557535</ele>
        <time>2025-06-25T15:10:21.232Z</time>
      </trkpt>
      <trkpt lat="48.578141" lon="1.124749">
        <ele>179.953338</ele>
        <time>2025-06-25T15:10:36.510Z</time>
      </trkpt>
      <trkpt lat="48.578157" lon="1.124353">
        <ele>180.543648</ele>
        <time>2025-06-25T15:10:43.246Z</time>
      </trkpt>
      <trkpt lat="48.578072" lon="1.124220">
        <ele>180.818792</ele>
        <time>2025-06-25T15:10:46.424Z</time>
      </trkpt>
      <trkpt lat="48.578027" lon="1.124089">
        <ele>181.038416</ele>
        <time>2025-06-25T15:10:48.993Z</time>
      </trkpt>
      <trkpt lat="48.577961" lon="1.122788">
        <ele>183.059497</ele>
        <time>2025-06-25T15:11:11.824Z</time>
      </trkpt>
      <trkpt lat="48.577959" lon="1.121876">
        <ele>184.475262</ele>
        <time>2025-06-25T15:11:26.328Z</time>
      </trkpt>
      <trkpt lat="48.577907" lon="1.121192">
        <ele>185.490524</ele>
        <time>2025-06-25T15:11:35.868Z</time>
      </trkpt>
      <trkpt lat="48.577807" lon="1.120316">
        <ele>186.464645</ele>
        <time>2025-06-25T15:11:47.740Z</time>
      </trkpt>
      <trkpt lat="48.577726" lon="1.119845">
        <ele>186.997928</ele>
        <time>2025-06-25T15:11:54.187Z</time>
      </trkpt>
      <trkpt lat="48.577576" lon="1.118866">
        <ele>188.099130</ele>
        <time>2025-06-25T15:12:08.568Z</time>
      </trkpt>
      <trkpt lat="48.577523" lon="1.117703">
        <ele>189.618997</ele>
        <time>2025-06-25T15:12:27.210Z</time>
      </trkpt>
      <trkpt lat="48.577291" lon="1.115527">
        <ele>192.439786</ele>
        <time>2025-06-25T15:13:00.366Z</time>
      </trkpt>
      <trkpt lat="48.577301" lon="1.115056">
        <ele>192.901991</ele>
        <time>2025-06-25T15:13:07.382Z</time>
      </trkpt>
      <trkpt lat="48.577387" lon="1.114489">
        <ele>193.472544</ele>
        <time>2025-06-25T15:13:15.732Z</time>
      </trkpt>
      <trkpt lat="48.577611" lon="1.113829">
        <ele>194.200090</ele>
        <time>2025-06-25T15:13:25.536Z</time>
      </trkpt>
      <trkpt lat="48.577795" lon="1.113184">
        <ele>194.766868</ele>
        <time>2025-06-25T15:13:34.095Z</time>
      </trkpt>
      <trkpt lat="48.577932" lon="1.112419">
        <ele>195.080850</ele>
        <time>2025-06-25T15:13:43.309Z</time>
      </trkpt>
      <trkpt lat="48.577967" lon="1.111965">
        <ele>195.261931</ele>
        <time>2025-06-25T15:13:48.244Z</time>
      </trkpt>
      <trkpt lat="48.577952" lon="1.111853">
        <ele>195.307203</ele>
        <time>2025-06-25T15:13:49.462Z</time>
      </trkpt>
      <trkpt lat="48.577778" lon="1.110508">
        <ele>195.846677</ele>
        <time>2025-06-25T15:14:04.387Z</time>
      </trkpt>
      <trkpt lat="48.577410" lon="1.108575">
        <ele>196.612456</ele>
        <time>2025-06-25T15:14:27.600Z</time>
      </trkpt>
      <trkpt lat="48.577036" lon="1.105663">
        <ele>197.666704</ele>
        <time>2025-06-25T15:15:01.554Z</time>
      </trkpt>
      <trkpt lat="48.576769" lon="1.104854">
        <ele>197.829492</ele>
        <time>2025-06-25T15:15:10.720Z</time>
      </trkpt>
      <trkpt lat="48.576657" lon="1.104424">
        <ele>197.885084</ele>
        <time>2025-06-25T15:15:15.226Z</time>
      </trkpt>
      <trkpt lat="48.575891" lon="1.101008">
        <ele>198.664122</ele>
        <time>2025-06-25T15:15:52.345Z</time>
      </trkpt>
      <trkpt lat="48.575461" lon="1.100044">
        <ele>199.298123</ele>
        <time>2025-06-25T15:16:06.674Z</time>
      </trkpt>
      <trkpt lat="48.575215" lon="1.099300">
        <ele>200.070096</ele>
        <time>2025-06-25T15:16:18.083Z</time>
      </trkpt>
      <trkpt lat="48.574901" lon="1.097719">
        <ele>201.540118</ele>
        <time>2025-06-25T15:16:41.492Z</time>
      </trkpt>
      <trkpt lat="48.574506" lon="1.096146">
        <ele>202.643242</ele>
        <time>2025-06-25T15:17:03.578Z</time>
      </trkpt>
      <trkpt lat="48.573630" lon="1.094430">
        <ele>203.155577</ele>
        <time>2025-06-25T15:17:26.287Z</time>
      </trkpt>
      <trkpt lat="48.572315" lon="1.090786">
        <ele>202.773663</ele>
        <time>2025-06-25T15:18:04.208Z</time>
      </trkpt>
      <trkpt lat="48.572167" lon="1.090307">
        <ele>203.053502</ele>
        <time>2025-06-25T15:18:09.428Z</time>
      </trkpt>
      <trkpt lat="48.568911" lon="1.079872">
        <ele>209.260272</ele>
        <time>2025-06-25T15:20:29.706Z</time>
      </trkpt>
      <trkpt lat="48.566873" lon="1.073387">
        <ele>212.873037</ele>
        <time>2025-06-25T15:21:52.957Z</time>
      </trkpt>
      <trkpt lat="48.565504" lon="1.069025">
        <ele>217.574659</ele>
        <time>2025-06-25T15:23:00.622Z</time>
      </trkpt>
      <trkpt lat="48.565287" lon="1.068275">
        <ele>218.205473</ele>
        <time>2025-06-25T15:23:11.359Z</time>
      </trkpt>
      <trkpt lat="48.565201" lon="1.067416">
        <ele>218.746416</ele>
        <time>2025-06-25T15:23:22.186Z</time>
      </trkpt>
      <trkpt lat="48.564281" lon="1.063114">
        <ele>221.229288</ele>
        <time>2025-06-25T15:24:15.696Z</time>
      </trkpt>
      <trkpt lat="48.563699" lon="1.061607">
        <ele>222.192159</ele>
        <time>2025-06-25T15:24:36.600Z</time>
      </trkpt>
      <trkpt lat="48.563623" lon="1.060994">
        <ele>222.537677</ele>
        <time>2025-06-25T15:24:44.094Z</time>
      </trkpt>
      <trkpt lat="48.563546" lon="1.060556">
        <ele>222.793576</ele>
        <time>2025-06-25T15:24:49.546Z</time>
      </trkpt>
      <trkpt lat="48.562546" lon="1.057749">
        <ele>224.311996</ele>
        <time>2025-06-25T15:25:28.036Z</time>
      </trkpt>
      <trkpt lat="48.562140" lon="1.056700">
        <ele>224.665521</ele>
        <time>2025-06-25T15:25:41.391Z</time>
      </trkpt>
      <trkpt lat="48.561873" lon="1.055859">
        <ele>224.673353</ele>
        <time>2025-06-25T15:25:50.414Z</time>
      </trkpt>
      <trkpt lat="48.561415" lon="1.054035">
        <ele>224.120994</ele>
        <time>2025-06-25T15:26:07.229Z</time>
      </trkpt>
      <trkpt lat="48.561413" lon="1.054028">
        <ele>224.118835</ele>
        <time>2025-06-25T15:26:07.292Z</time>
      </trkpt>
      <trkpt lat="48.561180" lon="1.053231">
        <ele>223.927582</ele>
        <time>2025-06-25T15:26:14.737Z</time>
      </trkpt>
      <trkpt lat="48.559755" lon="1.049010">
        <ele>223.337013</ele>
        <time>2025-06-25T15:26:59.292Z</time>
      </trkpt>
      <trkpt lat="48.559615" lon="1.048386">
        <ele>223.315128</ele>
        <time>2025-06-25T15:27:06.494Z</time>
      </trkpt>
      <trkpt lat="48.559417" lon="1.046693">
        <ele>223.274479</ele>
        <time>2025-06-25T15:27:23.623Z</time>
      </trkpt>
      <trkpt lat="48.559373" lon="1.046557">
        <ele>223.270900</ele>
        <time>2025-06-25T15:27:24.974Z</time>
      </trkpt>
      <trkpt lat="48.559413" lon="1.046431">
        <ele>223.267596</ele>
        <time>2025-06-25T15:27:26.211Z</time>
      </trkpt>
      <trkpt lat="48.559373" lon="1.046305">
        <ele>223.264292</ele>
        <time>2025-06-25T15:27:27.453Z</time>
      </trkpt>
      <trkpt lat="48.559467" lon="1.046087">
        <ele>223.174060</ele>
        <time>2025-06-25T15:27:29.728Z</time>
      </trkpt>
      <trkpt lat="48.559574" lon="1.045578">
        <ele>222.962472</ele>
        <time>2025-06-25T15:27:34.334Z</time>
      </trkpt>
      <trkpt lat="48.559523" lon="1.045392">
        <ele>222.882707</ele>
        <time>2025-06-25T15:27:36.040Z</time>
      </trkpt>
      <trkpt lat="48.559409" lon="1.044590">
        <ele>222.557718</ele>
        <time>2025-06-25T15:27:42.935Z</time>
      </trkpt>
      <trkpt lat="48.559340" lon="1.044314">
        <ele>222.440828</ele>
        <time>2025-06-25T15:27:45.534Z</time>
      </trkpt>
      <trkpt lat="48.558741" lon="1.042645">
        <ele>220.619232</ele>
        <time>2025-06-25T15:28:01.687Z</time>
      </trkpt>
      <trkpt lat="48.558659" lon="1.042424">
        <ele>220.303370</ele>
        <time>2025-06-25T15:28:03.585Z</time>
      </trkpt>
      <trkpt lat="48.558444" lon="1.041855">
        <ele>219.486535</ele>
        <time>2025-06-25T15:28:08.156Z</time>
      </trkpt>
      <trkpt lat="48.558205" lon="1.041041">
        <ele>218.328489</ele>
        <time>2025-06-25T15:28:13.999Z</time>
      </trkpt>
      <trkpt lat="48.558118" lon="1.040641">
        <ele>217.744105</ele>
        <time>2025-06-25T15:28:16.752Z</time>
      </trkpt>
      <trkpt lat="48.558143" lon="1.040466">
        <ele>217.495622</ele>
        <time>2025-06-25T15:28:17.930Z</time>
      </trkpt>
      <trkpt lat="48.558180" lon="1.040376">
        <ele>217.348572</ele>
        <time>2025-06-25T15:28:18.626Z</time>
      </trkpt>
      <trkpt lat="48.558258" lon="1.040258">
        <ele>217.117104</ele>
        <time>2025-06-25T15:28:19.740Z</time>
      </trkpt>
      <trkpt lat="48.558900" lon="1.039259">
        <ele>215.184492</ele>
        <time>2025-06-25T15:28:30.058Z</time>
      </trkpt>
      <trkpt lat="48.559235" lon="1.038791">
        <ele>215.509642</ele>
        <time>2025-06-25T15:28:38.781Z</time>
      </trkpt>
      <trkpt lat="48.559343" lon="1.038596">
        <ele>215.722764</ele>
        <time>2025-06-25T15:28:42.354Z</time>
      </trkpt>
      <trkpt lat="48.559552" lon="1.038198">
        <ele>216.148604</ele>
        <time>2025-06-25T15:28:51.629Z</time>
      </trkpt>
      <trkpt lat="48.559683" lon="1.037761">
        <ele>216.550703</ele>
        <time>2025-06-25T15:29:00.661Z</time>
      </trkpt>
      <trkpt lat="48.559728" lon="1.037401">
        <ele>216.857777</ele>
        <time>2025-06-25T15:29:07.447Z</time>
      </trkpt>
      <trkpt lat="48.559698" lon="1.037145">
        <ele>217.075685</ele>
        <time>2025-06-25T15:29:12.123Z</time>
      </trkpt>
      <trkpt lat="48.559509" lon="1.036674">
        <ele>217.420303</ele>
        <time>2025-06-25T15:29:21.675Z</time>
      </trkpt>
      <trkpt lat="48.559865" lon="1.036768">
        <ele>217.647617</ele>
        <time>2025-06-25T15:29:30.476Z</time>
      </trkpt>
      <trkpt lat="48.560057" lon="1.036843">
        <ele>217.772353</ele>
        <time>2025-06-25T15:29:35.091Z</time>
      </trkpt>
      <trkpt lat="48.560216" lon="1.035503">
        <ele>218.339071</ele>
        <time>2025-06-25T15:29:49.639Z</time>
      </trkpt>
      <trkpt lat="48.560174" lon="1.035153">
        <ele>218.402465</ele>
        <time>2025-06-25T15:29:53.150Z</time>
      </trkpt>
      <trkpt lat="48.560154" lon="1.034528">
        <ele>218.230583</ele>
        <time>2025-06-25T15:29:59.168Z</time>
      </trkpt>
      <trkpt lat="48.560300" lon="1.034033">
        <ele>218.081720</ele>
        <time>2025-06-25T15:30:04.201Z</time>
      </trkpt>
      <trkpt lat="48.560328" lon="1.033946">
        <ele>218.055146</ele>
        <time>2025-06-25T15:30:05.092Z</time>
      </trkpt>
      <trkpt lat="48.560564" lon="1.033089">
        <ele>217.800172</ele>
        <time>2025-06-25T15:30:13.116Z</time>
      </trkpt>
      <trkpt lat="48.560792" lon="1.032458">
        <ele>217.658385</ele>
        <time>2025-06-25T15:30:29.240Z</time>
      </trkpt>
      <trkpt lat="48.561267" lon="1.032672">
        <ele>217.584473</ele>
        <time>2025-06-25T15:30:35.070Z</time>
      </trkpt>
      <trkpt lat="48.561270" lon="1.032671">
        <ele>217.584015</ele>
        <time>2025-06-25T15:30:35.109Z</time>
      </trkpt>
      <trkpt lat="48.561724" lon="1.032606">
        <ele>217.516014</ele>
        <time>2025-06-25T15:30:41.181Z</time>
      </trkpt>
      <trkpt lat="48.562012" lon="1.032609">
        <ele>217.473068</ele>
        <time>2025-06-25T15:30:45.768Z</time>
      </trkpt>
      <trkpt lat="48.562131" lon="1.032446">
        <ele>217.449117</ele>
        <time>2025-06-25T15:30:48.699Z</time>
      </trkpt>
      <trkpt lat="48.561973" lon="1.030380">
        <ele>218.983401</ele>
        <time>2025-06-25T15:31:18.452Z</time>
      </trkpt>
      <trkpt lat="48.561962" lon="1.029838">
        <ele>219.454230</ele>
        <time>2025-06-25T15:31:25.482Z</time>
      </trkpt>
      <trkpt lat="48.561963" lon="1.029810">
        <ele>219.478577</ele>
        <time>2025-06-25T15:31:25.824Z</time>
      </trkpt>
      <trkpt lat="48.561962" lon="1.029661">
        <ele>219.607958</ele>
        <time>2025-06-25T15:31:27.685Z</time>
      </trkpt>
      <trkpt lat="48.561957" lon="1.029351">
        <ele>219.845195</ele>
        <time>2025-06-25T15:31:31.234Z</time>
      </trkpt>
      <trkpt lat="48.561928" lon="1.028648">
        <ele>220.252886</ele>
        <time>2025-06-25T15:31:38.979Z</time>
      </trkpt>
      <trkpt lat="48.561808" lon="1.028007">
        <ele>220.638459</ele>
        <time>2025-06-25T15:31:46.550Z</time>
      </trkpt>
      <trkpt lat="48.561817" lon="1.027767">
        <ele>220.777596</ele>
        <time>2025-06-25T15:31:49.510Z</time>
      </trkpt>
      <trkpt lat="48.561993" lon="1.027111">
        <ele>221.187308</ele>
        <time>2025-06-25T15:31:58.811Z</time>
      </trkpt>
      <trkpt lat="48.562869" lon="1.023743">
        <ele>223.546757</ele>
        <time>2025-06-25T15:32:43.936Z</time>
      </trkpt>
      <trkpt lat="48.562978" lon="1.022777">
        <ele>224.136558</ele>
        <time>2025-06-25T15:32:55.674Z</time>
      </trkpt>
      <trkpt lat="48.563008" lon="1.021877">
        <ele>224.678931</ele>
        <time>2025-06-25T15:33:06.851Z</time>
      </trkpt>
      <trkpt lat="48.563018" lon="1.020663">
        <ele>225.561134</ele>
        <time>2025-06-25T15:33:21.628Z</time>
      </trkpt>
      <trkpt lat="48.563011" lon="1.020391">
        <ele>225.766619</ele>
        <time>2025-06-25T15:33:25.097Z</time>
      </trkpt>
      <trkpt lat="48.562993" lon="1.019583">
        <ele>226.376915</ele>
        <time>2025-06-25T15:33:35.700Z</time>
      </trkpt>
      <trkpt lat="48.562960" lon="1.018273">
        <ele>227.542377</ele>
        <time>2025-06-25T15:33:53.315Z</time>
      </trkpt>
      <trkpt lat="48.562820" lon="1.015870">
        <ele>229.944336</ele>
        <time>2025-06-25T15:34:27.548Z</time>
      </trkpt>
      <trkpt lat="48.562612" lon="1.013852">
        <ele>231.695486</ele>
        <time>2025-06-25T15:34:54.166Z</time>
      </trkpt>
      <trkpt lat="48.562527" lon="1.013059">
        <ele>232.299045</ele>
        <time>2025-06-25T15:35:04.676Z</time>
      </trkpt>
      <trkpt lat="48.562420" lon="1.012046">
        <ele>232.998703</ele>
        <time>2025-06-25T15:35:17.604Z</time>
      </trkpt>
      <trkpt lat="48.562145" lon="1.010539">
        <ele>234.122714</ele>
        <time>2025-06-25T15:35:36.632Z</time>
      </trkpt>
      <trkpt lat="48.561815" lon="1.009104">
        <ele>235.404632</ele>
        <time>2025-06-25T15:35:56.024Z</time>
      </trkpt>
      <trkpt lat="48.561540" lon="1.008340">
        <ele>236.148965</ele>
        <time>2025-06-25T15:36:08.324Z</time>
      </trkpt>
      <trkpt lat="48.559458" lon="1.003895">
        <ele>242.797343</ele>
        <time>2025-06-25T15:37:28.472Z</time>
      </trkpt>
      <trkpt lat="48.559316" lon="1.003589">
        <ele>243.250402</ele>
        <time>2025-06-25T15:37:34.077Z</time>
      </trkpt>
      <trkpt lat="48.559101" lon="1.003124">
        <ele>243.938053</ele>
        <time>2025-06-25T15:37:42.543Z</time>
      </trkpt>
      <trkpt lat="48.558584" lon="1.002318">
        <ele>245.298760</ele>
        <time>2025-06-25T15:37:58.887Z</time>
      </trkpt>
      <trkpt lat="48.558262" lon="1.001791">
        <ele>246.150055</ele>
        <time>2025-06-25T15:38:09.591Z</time>
      </trkpt>
      <trkpt lat="48.557828" lon="1.000959">
        <ele>247.244414</ele>
        <time>2025-06-25T15:38:24.617Z</time>
      </trkpt>
      <trkpt lat="48.557598" lon="1.000519">
        <ele>247.823629</ele>
        <time>2025-06-25T15:38:32.314Z</time>
      </trkpt>
      <trkpt lat="48.556698" lon="0.998790">
        <ele>250.025152</ele>
        <time>2025-06-25T15:39:02.196Z</time>
      </trkpt>
      <trkpt lat="48.555722" lon="0.996744">
        <ele>252.407330</ele>
        <time>2025-06-25T15:39:37.078Z</time>
      </trkpt>
      <trkpt lat="48.555234" lon="0.995869">
        <ele>253.437169</ele>
        <time>2025-06-25T15:39:52.448Z</time>
      </trkpt>
      <trkpt lat="48.553996" lon="0.993948">
        <ele>255.412251</ele>
        <time>2025-06-25T15:40:26.232Z</time>
      </trkpt>
      <trkpt lat="48.553767" lon="0.993544">
        <ele>255.780875</ele>
        <time>2025-06-25T15:40:32.853Z</time>
      </trkpt>
      <trkpt lat="48.553666" lon="0.993314">
        <ele>255.945750</ele>
        <time>2025-06-25T15:40:36.290Z</time>
      </trkpt>
      <trkpt lat="48.553543" lon="0.992924">
        <ele>256.189949</ele>
        <time>2025-06-25T15:40:41.687Z</time>
      </trkpt>
      <trkpt lat="48.553111" lon="0.991216">
        <ele>257.223513</ele>
        <time>2025-06-25T15:41:03.886Z</time>
      </trkpt>
      <trkpt lat="48.552974" lon="0.990665">
        <ele>257.451548</ele>
        <time>2025-06-25T15:41:10.651Z</time>
      </trkpt>
      <trkpt lat="48.551648" lon="0.983444">
        <ele>259.307342</ele>
        <time>2025-06-25T15:42:31.036Z</time>
      </trkpt>
      <trkpt lat="48.549359" lon="0.970733">
        <ele>262.384615</ele>
        <time>2025-06-25T15:44:53.171Z</time>
      </trkpt>
      <trkpt lat="48.549227" lon="0.970138">
        <ele>262.500576</ele>
        <time>2025-06-25T15:44:59.383Z</time>
      </trkpt>
      <trkpt lat="48.549078" lon="0.969663">
        <ele>262.608313</ele>
        <time>2025-06-25T15:45:04.563Z</time>
      </trkpt>
      <trkpt lat="48.546448" lon="0.963491">
        <ele>264.311850</ele>
        <time>2025-06-25T15:46:23.184Z</time>
      </trkpt>
      <trkpt lat="48.545903" lon="0.961975">
        <ele>264.822827</ele>
        <time>2025-06-25T15:46:43.473Z</time>
      </trkpt>
      <trkpt lat="48.545727" lon="0.961508">
        <ele>264.984592</ele>
        <time>2025-06-25T15:46:49.718Z</time>
      </trkpt>
      <trkpt lat="48.544293" lon="0.957328">
        <ele>264.305652</ele>
        <time>2025-06-25T15:47:36.861Z</time>
      </trkpt>
      <trkpt lat="48.544144" lon="0.957005">
        <ele>263.923693</ele>
        <time>2025-06-25T15:47:39.865Z</time>
      </trkpt>
      <trkpt lat="48.544008" lon="0.956712">
        <ele>263.576505</ele>
        <time>2025-06-25T15:47:42.466Z</time>
      </trkpt>
      <trkpt lat="48.543773" lon="0.956313">
        <ele>263.058358</ele>
        <time>2025-06-25T15:47:46.178Z</time>
      </trkpt>
      <trkpt lat="48.543347" lon="0.955713">
        <ele>261.103548</ele>
        <time>2025-06-25T15:47:51.973Z</time>
      </trkpt>
      <trkpt lat="48.540938" lon="0.952177">
        <ele>246.348935</ele>
        <time>2025-06-25T15:48:24.050Z</time>
      </trkpt>
      <trkpt lat="48.540686" lon="0.951786">
        <ele>245.142733</ele>
        <time>2025-06-25T15:48:27.526Z</time>
      </trkpt>
      <trkpt lat="48.540531" lon="0.951437">
        <ele>244.213764</ele>
        <time>2025-06-25T15:48:30.220Z</time>
      </trkpt>
      <trkpt lat="48.537829" lon="0.942799">
        <ele>223.595802</ele>
        <time>2025-06-25T15:49:34.499Z</time>
      </trkpt>
      <trkpt lat="48.537644" lon="0.942361">
        <ele>222.765682</ele>
        <time>2025-06-25T15:49:38.094Z</time>
      </trkpt>
      <trkpt lat="48.535505" lon="0.938777">
        <ele>215.820182</ele>
        <time>2025-06-25T15:50:12.936Z</time>
      </trkpt>
      <trkpt lat="48.533739" lon="0.935833">
        <ele>210.206065</ele>
        <time>2025-06-25T15:50:41.084Z</time>
      </trkpt>
      <trkpt lat="48.533585" lon="0.935516">
        <ele>209.777384</ele>
        <time>2025-06-25T15:50:44.043Z</time>
      </trkpt>
      <trkpt lat="48.533439" lon="0.935241">
        <ele>209.393065</ele>
        <time>2025-06-25T15:50:46.736Z</time>
      </trkpt>
      <trkpt lat="48.533513" lon="0.934673">
        <ele>208.761874</ele>
        <time>2025-06-25T15:50:51.294Z</time>
      </trkpt>
      <trkpt lat="48.533554" lon="0.934495">
        <ele>208.556386</ele>
        <time>2025-06-25T15:50:52.809Z</time>
      </trkpt>
      <trkpt lat="48.533654" lon="0.934179">
        <ele>208.352141</ele>
        <time>2025-06-25T15:50:55.685Z</time>
      </trkpt>
      <trkpt lat="48.534186" lon="0.932876">
        <ele>208.020463</ele>
        <time>2025-06-25T15:51:09.339Z</time>
      </trkpt>
      <trkpt lat="48.535229" lon="0.930324">
        <ele>208.105350</ele>
        <time>2025-06-25T15:51:40.053Z</time>
      </trkpt>
      <trkpt lat="48.535476" lon="0.929474">
        <ele>208.245828</ele>
        <time>2025-06-25T15:51:50.150Z</time>
      </trkpt>
      <trkpt lat="48.535694" lon="0.928365">
        <ele>208.434089</ele>
        <time>2025-06-25T15:52:02.376Z</time>
      </trkpt>
      <trkpt lat="48.535776" lon="0.928043">
        <ele>208.490232</ele>
        <time>2025-06-25T15:52:05.960Z</time>
      </trkpt>
      <trkpt lat="48.535938" lon="0.927584">
        <ele>208.574876</ele>
        <time>2025-06-25T15:52:11.326Z</time>
      </trkpt>
      <trkpt lat="48.536122" lon="0.927175">
        <ele>208.651376</ele>
        <time>2025-06-25T15:52:16.336Z</time>
      </trkpt>
      <trkpt lat="48.537405" lon="0.924694">
        <ele>208.768565</ele>
        <time>2025-06-25T15:52:47.506Z</time>
      </trkpt>
      <trkpt lat="48.537695" lon="0.924018">
        <ele>208.856639</ele>
        <time>2025-06-25T15:52:55.505Z</time>
      </trkpt>
      <trkpt lat="48.537809" lon="0.923689">
        <ele>208.897241</ele>
        <time>2025-06-25T15:52:59.226Z</time>
      </trkpt>
      <trkpt lat="48.538569" lon="0.920865">
        <ele>209.509145</ele>
        <time>2025-06-25T15:53:31.833Z</time>
      </trkpt>
      <trkpt lat="48.538682" lon="0.920334">
        <ele>209.649042</ele>
        <time>2025-06-25T15:53:38.205Z</time>
      </trkpt>
      <trkpt lat="48.538787" lon="0.919685">
        <ele>209.785046</ele>
        <time>2025-06-25T15:53:45.735Z</time>
      </trkpt>
      <trkpt lat="48.539303" lon="0.916021">
        <ele>210.471151</ele>
        <time>2025-06-25T15:54:24.551Z</time>
      </trkpt>
      <trkpt lat="48.539466" lon="0.914936">
        <ele>210.672153</ele>
        <time>2025-06-25T15:54:36.760Z</time>
      </trkpt>
      <trkpt lat="48.540171" lon="0.911671">
        <ele>211.050778</ele>
        <time>2025-06-25T15:55:12.854Z</time>
      </trkpt>
      <trkpt lat="48.540203" lon="0.911402">
        <ele>211.003931</ele>
        <time>2025-06-25T15:55:15.297Z</time>
      </trkpt>
      <trkpt lat="48.540215" lon="0.910927">
        <ele>210.922452</ele>
        <time>2025-06-25T15:55:19.480Z</time>
      </trkpt>
      <trkpt lat="48.540223" lon="0.910281">
        <ele>210.811702</ele>
        <time>2025-06-25T15:55:25.039Z</time>
      </trkpt>
      <trkpt lat="48.540268" lon="0.909743">
        <ele>210.718751</ele>
        <time>2025-06-25T15:55:29.667Z</time>
      </trkpt>
      <trkpt lat="48.540365" lon="0.909041">
        <ele>210.867998</ele>
        <time>2025-06-25T15:55:36.208Z</time>
      </trkpt>
      <trkpt lat="48.540469" lon="0.908558">
        <ele>211.028166</ele>
        <time>2025-06-25T15:55:41.304Z</time>
      </trkpt>
      <trkpt lat="48.540751" lon="0.907528">
        <ele>211.379654</ele>
        <time>2025-06-25T15:55:54.127Z</time>
      </trkpt>
      <trkpt lat="48.541202" lon="0.906034">
        <ele>212.468037</ele>
        <time>2025-06-25T15:56:16.228Z</time>
      </trkpt>
      <trkpt lat="48.541394" lon="0.905230">
        <ele>213.178117</ele>
        <time>2025-06-25T15:56:28.228Z</time>
      </trkpt>
      <trkpt lat="48.541503" lon="0.904742">
        <ele>213.605993</ele>
        <time>2025-06-25T15:56:35.203Z</time>
      </trkpt>
      <trkpt lat="48.541584" lon="0.904351">
        <ele>213.810423</ele>
        <time>2025-06-25T15:56:40.282Z</time>
      </trkpt>
      <trkpt lat="48.541683" lon="0.903377">
        <ele>213.839919</ele>
        <time>2025-06-25T15:56:50.777Z</time>
      </trkpt>
      <trkpt lat="48.541774" lon="0.901528">
        <ele>214.007559</ele>
        <time>2025-06-25T15:57:07.065Z</time>
      </trkpt>
      <trkpt lat="48.541806" lon="0.900956">
        <ele>214.244762</ele>
        <time>2025-06-25T15:57:12.740Z</time>
      </trkpt>
      <trkpt lat="48.541876" lon="0.899680">
        <ele>214.773835</ele>
        <time>2025-06-25T15:57:28.073Z</time>
      </trkpt>
      <trkpt lat="48.541962" lon="0.898059">
        <ele>216.020168</ele>
        <time>2025-06-25T15:57:50.291Z</time>
      </trkpt>
      <trkpt lat="48.542020" lon="0.896847">
        <ele>217.182907</ele>
        <time>2025-06-25T15:58:06.760Z</time>
      </trkpt>
      <trkpt lat="48.542033" lon="0.896149">
        <ele>217.863607</ele>
        <time>2025-06-25T15:58:16.500Z</time>
      </trkpt>
      <trkpt lat="48.542053" lon="0.894585">
        <ele>219.437917</ele>
        <time>2025-06-25T15:58:39.190Z</time>
      </trkpt>
      <trkpt lat="48.542067" lon="0.893023">
        <ele>220.331139</ele>
        <time>2025-06-25T15:58:59.746Z</time>
      </trkpt>
      <trkpt lat="48.542088" lon="0.890871">
        <ele>220.177910</ele>
        <time>2025-06-25T15:59:19.682Z</time>
      </trkpt>
      <trkpt lat="48.542096" lon="0.889921">
        <ele>219.049509</ele>
        <time>2025-06-25T15:59:26.635Z</time>
      </trkpt>
      <trkpt lat="48.542063" lon="0.889354">
        <ele>218.373489</ele>
        <time>2025-06-25T15:59:30.561Z</time>
      </trkpt>
      <trkpt lat="48.541980" lon="0.888957">
        <ele>217.879024</ele>
        <time>2025-06-25T15:59:33.405Z</time>
      </trkpt>
      <trkpt lat="48.541671" lon="0.887845">
        <ele>217.307266</ele>
        <time>2025-06-25T15:59:42.354Z</time>
      </trkpt>
      <trkpt lat="48.541611" lon="0.887636">
        <ele>217.411265</ele>
        <time>2025-06-25T15:59:44.325Z</time>
      </trkpt>
      <trkpt lat="48.540820" lon="0.884961">
        <ele>219.001027</ele>
        <time>2025-06-25T16:00:26.395Z</time>
      </trkpt>
      <trkpt lat="48.540627" lon="0.884161">
        <ele>219.612515</ele>
        <time>2025-06-25T16:00:37.953Z</time>
      </trkpt>
      <trkpt lat="48.540540" lon="0.883696">
        <ele>219.959542</ele>
        <time>2025-06-25T16:00:43.666Z</time>
      </trkpt>
      <trkpt lat="48.539584" lon="0.877465">
        <ele>219.534338</ele>
        <time>2025-06-25T16:01:41.679Z</time>
      </trkpt>
      <trkpt lat="48.539523" lon="0.876967">
        <ele>219.771604</ele>
        <time>2025-06-25T16:01:47.279Z</time>
      </trkpt>
      <trkpt lat="48.539433" lon="0.875714">
        <ele>220.362062</ele>
        <time>2025-06-25T16:02:03.077Z</time>
      </trkpt>
      <trkpt lat="48.539399" lon="0.873311">
        <ele>222.478224</ele>
        <time>2025-06-25T16:02:36.470Z</time>
      </trkpt>
      <trkpt lat="48.539244" lon="0.869487">
        <ele>225.985880</ele>
        <time>2025-06-25T16:03:28.263Z</time>
      </trkpt>
      <trkpt lat="48.539178" lon="0.868318">
        <ele>226.837822</ele>
        <time>2025-06-25T16:03:43.500Z</time>
      </trkpt>
      <trkpt lat="48.539148" lon="0.867810">
        <ele>227.208167</ele>
        <time>2025-06-25T16:03:49.834Z</time>
      </trkpt>
      <trkpt lat="48.539030" lon="0.866799">
        <ele>227.898862</ele>
        <time>2025-06-25T16:04:02.146Z</time>
      </trkpt>
      <trkpt lat="48.538333" lon="0.862133">
        <ele>230.667429</ele>
        <time>2025-06-25T16:05:00.467Z</time>
      </trkpt>
      <trkpt lat="48.537884" lon="0.857680">
        <ele>232.945942</ele>
        <time>2025-06-25T16:05:53.842Z</time>
      </trkpt>
      <trkpt lat="48.537683" lon="0.855678">
        <ele>233.561063</ele>
        <time>2025-06-25T16:06:17.306Z</time>
      </trkpt>
      <trkpt lat="48.537555" lon="0.854718">
        <ele>233.620150</ele>
        <time>2025-06-25T16:06:27.204Z</time>
      </trkpt>
      <trkpt lat="48.536712" lon="0.849019">
        <ele>231.988854</ele>
        <time>2025-06-25T16:07:18.182Z</time>
      </trkpt>
      <trkpt lat="48.535833" lon="0.843124">
        <ele>229.860212</ele>
        <time>2025-06-25T16:08:10.919Z</time>
      </trkpt>
      <trkpt lat="48.535772" lon="0.842813">
        <ele>229.789933</ele>
        <time>2025-06-25T16:08:13.779Z</time>
      </trkpt>
      <trkpt lat="48.535707" lon="0.842610">
        <ele>229.741075</ele>
        <time>2025-06-25T16:08:15.790Z</time>
      </trkpt>
      <trkpt lat="48.535544" lon="0.842272">
        <ele>229.650474</ele>
        <time>2025-06-25T16:08:19.569Z</time>
      </trkpt>
      <trkpt lat="48.535269" lon="0.841989">
        <ele>229.541581</ele>
        <time>2025-06-25T16:08:24.191Z</time>
      </trkpt>
      <trkpt lat="48.533910" lon="0.841087">
        <ele>229.132059</ele>
        <time>2025-06-25T16:08:44.704Z</time>
      </trkpt>
      <trkpt lat="48.533411" lon="0.840641">
        <ele>229.002341</ele>
        <time>2025-06-25T16:08:52.502Z</time>
      </trkpt>
      <trkpt lat="48.533105" lon="0.840226">
        <ele>228.910332</ele>
        <time>2025-06-25T16:08:58.366Z</time>
      </trkpt>
      <trkpt lat="48.532964" lon="0.839982">
        <ele>229.029776</ele>
        <time>2025-06-25T16:09:01.573Z</time>
      </trkpt>
      <trkpt lat="48.532750" lon="0.839472">
        <ele>229.407202</ele>
        <time>2025-06-25T16:09:08.210Z</time>
      </trkpt>
      <trkpt lat="48.532577" lon="0.838832">
        <ele>229.839326</ele>
        <time>2025-06-25T16:09:16.836Z</time>
      </trkpt>
      <trkpt lat="48.532308" lon="0.837604">
        <ele>230.696604</ele>
        <time>2025-06-25T16:09:34.522Z</time>
      </trkpt>
      <trkpt lat="48.531864" lon="0.835859">
        <ele>232.890736</ele>
        <time>2025-06-25T16:10:01.477Z</time>
      </trkpt>
      <trkpt lat="48.531626" lon="0.835176">
        <ele>233.793405</ele>
        <time>2025-06-25T16:10:13.208Z</time>
      </trkpt>
      <trkpt lat="48.531459" lon="0.834832">
        <ele>234.195146</ele>
        <time>2025-06-25T16:10:19.719Z</time>
      </trkpt>
      <trkpt lat="48.530909" lon="0.833761">
        <ele>235.471671</ele>
        <time>2025-06-25T16:10:38.882Z</time>
      </trkpt>
      <trkpt lat="48.530248" lon="0.832626">
        <ele>236.541570</ele>
        <time>2025-06-25T16:10:56.873Z</time>
      </trkpt>
      <trkpt lat="48.528826" lon="0.830567">
        <ele>237.467823</ele>
        <time>2025-06-25T16:11:29.330Z</time>
      </trkpt>
      <trkpt lat="48.528652" lon="0.830281">
        <ele>237.557631</ele>
        <time>2025-06-25T16:11:33.728Z</time>
      </trkpt>
      <trkpt lat="48.528445" lon="0.829896">
        <ele>237.672308</ele>
        <time>2025-06-25T16:11:39.248Z</time>
      </trkpt>
      <trkpt lat="48.528254" lon="0.829432">
        <ele>237.798645</ele>
        <time>2025-06-25T16:11:45.237Z</time>
      </trkpt>
      <trkpt lat="48.527809" lon="0.827820">
        <ele>237.741288</ele>
        <time>2025-06-25T16:12:02.598Z</time>
      </trkpt>
      <trkpt lat="48.526680" lon="0.823909">
        <ele>236.620445</ele>
        <time>2025-06-25T16:12:40.458Z</time>
      </trkpt>
      <trkpt lat="48.526336" lon="0.822903">
        <ele>235.947885</ele>
        <time>2025-06-25T16:12:49.973Z</time>
      </trkpt>
      <trkpt lat="48.525360" lon="0.819718">
        <ele>233.895844</ele>
        <time>2025-06-25T16:13:17.818Z</time>
      </trkpt>
      <trkpt lat="48.525227" lon="0.819398">
        <ele>233.677381</ele>
        <time>2025-06-25T16:13:21.111Z</time>
      </trkpt>
      <trkpt lat="48.524726" lon="0.818546">
        <ele>233.802261</ele>
        <time>2025-06-25T16:13:32.376Z</time>
      </trkpt>
      <trkpt lat="48.524380" lon="0.818038">
        <ele>234.035317</ele>
        <time>2025-06-25T16:13:40.931Z</time>
      </trkpt>
      <trkpt lat="48.524194" lon="0.817687">
        <ele>234.179088</ele>
        <time>2025-06-25T16:13:46.431Z</time>
      </trkpt>
      <trkpt lat="48.524003" lon="0.817213">
        <ele>234.356542</ele>
        <time>2025-06-25T16:13:53.293Z</time>
      </trkpt>
      <trkpt lat="48.523840" lon="0.816660">
        <ele>234.624071</ele>
        <time>2025-06-25T16:14:00.760Z</time>
      </trkpt>
      <trkpt lat="48.521961" lon="0.810933">
        <ele>237.005114</ele>
        <time>2025-06-25T16:15:14.812Z</time>
      </trkpt>
      <trkpt lat="48.521702" lon="0.810207">
        <ele>237.042152</ele>
        <time>2025-06-25T16:15:22.843Z</time>
      </trkpt>
      <trkpt lat="48.521241" lon="0.809081">
        <ele>235.206158</ele>
        <time>2025-06-25T16:15:33.525Z</time>
      </trkpt>
      <trkpt lat="48.520854" lon="0.808266">
        <ele>233.110197</ele>
        <time>2025-06-25T16:15:40.301Z</time>
      </trkpt>
      <trkpt lat="48.520619" lon="0.807849">
        <ele>231.965833</ele>
        <time>2025-06-25T16:15:43.739Z</time>
      </trkpt>
      <trkpt lat="48.520294" lon="0.807327">
        <ele>229.362310</ele>
        <time>2025-06-25T16:15:48.084Z</time>
      </trkpt>
      <trkpt lat="48.519882" lon="0.806764">
        <ele>225.494591</ele>
        <time>2025-06-25T16:15:53.055Z</time>
      </trkpt>
      <trkpt lat="48.519768" lon="0.806527">
        <ele>224.144291</ele>
        <time>2025-06-25T16:15:54.779Z</time>
      </trkpt>
      <trkpt lat="48.519719" lon="0.806327">
        <ele>223.161222</ele>
        <time>2025-06-25T16:15:56.033Z</time>
      </trkpt>
      <trkpt lat="48.519684" lon="0.806137">
        <ele>222.252062</ele>
        <time>2025-06-25T16:15:57.195Z</time>
      </trkpt>
      <trkpt lat="48.519674" lon="0.805712">
        <ele>220.291537</ele>
        <time>2025-06-25T16:15:59.696Z</time>
      </trkpt>
      <trkpt lat="48.519703" lon="0.805370">
        <ele>218.718776</ele>
        <time>2025-06-25T16:16:01.731Z</time>
      </trkpt>
      <trkpt lat="48.519809" lon="0.804635">
        <ele>215.602684</ele>
        <time>2025-06-25T16:16:06.217Z</time>
      </trkpt>
      <trkpt lat="48.519819" lon="0.804164">
        <ele>213.650555</ele>
        <time>2025-06-25T16:16:09.055Z</time>
      </trkpt>
      <trkpt lat="48.519752" lon="0.803730">
        <ele>211.804514</ele>
        <time>2025-06-25T16:16:11.758Z</time>
      </trkpt>
      <trkpt lat="48.519697" lon="0.803534">
        <ele>210.922720</ele>
        <time>2025-06-25T16:16:13.059Z</time>
      </trkpt>
      <trkpt lat="48.519377" lon="0.802623">
        <ele>207.017703</ele>
        <time>2025-06-25T16:16:19.371Z</time>
      </trkpt>
      <trkpt lat="48.519230" lon="0.802072">
        <ele>205.489857</ele>
        <time>2025-06-25T16:16:23.084Z</time>
      </trkpt>
      <trkpt lat="48.519179" lon="0.801638">
        <ele>204.356148</ele>
        <time>2025-06-25T16:16:25.903Z</time>
      </trkpt>
      <trkpt lat="48.519179" lon="0.801077">
        <ele>202.913217</ele>
        <time>2025-06-25T16:16:29.601Z</time>
      </trkpt>
      <trkpt lat="48.519232" lon="0.800307">
        <ele>200.922059</ele>
        <time>2025-06-25T16:16:34.914Z</time>
      </trkpt>
      <trkpt lat="48.519297" lon="0.799226">
        <ele>199.495437</ele>
        <time>2025-06-25T16:16:42.816Z</time>
      </trkpt>
      <trkpt lat="48.519255" lon="0.798653">
        <ele>198.821208</ele>
        <time>2025-06-25T16:16:47.124Z</time>
      </trkpt>
      <trkpt lat="48.519150" lon="0.798134">
        <ele>198.186540</ele>
        <time>2025-06-25T16:16:51.230Z</time>
      </trkpt>
      <trkpt lat="48.518967" lon="0.797421">
        <ele>197.439398</ele>
        <time>2025-06-25T16:16:57.106Z</time>
      </trkpt>
      <trkpt lat="48.518871" lon="0.796977">
        <ele>197.378032</ele>
        <time>2025-06-25T16:17:00.854Z</time>
      </trkpt>
      <trkpt lat="48.518749" lon="0.796029">
        <ele>197.251146</ele>
        <time>2025-06-25T16:17:09.397Z</time>
      </trkpt>
      <trkpt lat="48.518606" lon="0.792577">
        <ele>198.601479</ele>
        <time>2025-06-25T16:17:49.257Z</time>
      </trkpt>
      <trkpt lat="48.518604" lon="0.792226">
        <ele>198.828677</ele>
        <time>2025-06-25T16:17:54.359Z</time>
      </trkpt>
      <trkpt lat="48.518649" lon="0.791566">
        <ele>200.035425</ele>
        <time>2025-06-25T16:18:04.784Z</time>
      </trkpt>
      <trkpt lat="48.518900" lon="0.789729">
        <ele>203.612912</ele>
        <time>2025-06-25T16:18:38.690Z</time>
      </trkpt>
      <trkpt lat="48.518917" lon="0.789442">
        <ele>204.218620</ele>
        <time>2025-06-25T16:18:44.355Z</time>
      </trkpt>
      <trkpt lat="48.518852" lon="0.789179">
        <ele>204.995468</ele>
        <time>2025-06-25T16:18:49.948Z</time>
      </trkpt>
      <trkpt lat="48.518801" lon="0.789073">
        <ele>205.358037</ele>
        <time>2025-06-25T16:18:52.547Z</time>
      </trkpt>
      <trkpt lat="48.520431" lon="0.786248">
        <ele>214.462233</ele>
        <time>2025-06-25T16:20:12.526Z</time>
      </trkpt>
      <trkpt lat="48.520790" lon="0.785628">
        <ele>216.050969</ele>
        <time>2025-06-25T16:20:25.840Z</time>
      </trkpt>
      <trkpt lat="48.520853" lon="0.785516">
        <ele>216.334445</ele>
        <time>2025-06-25T16:20:27.754Z</time>
      </trkpt>
      <trkpt lat="48.521066" lon="0.785004">
        <ele>216.427414</ele>
        <time>2025-06-25T16:20:33.813Z</time>
      </trkpt>
      <trkpt lat="48.521214" lon="0.784495">
        <ele>215.876489</ele>
        <time>2025-06-25T16:20:38.046Z</time>
      </trkpt>
      <trkpt lat="48.521302" lon="0.783968">
        <ele>215.337852</ele>
        <time>2025-06-25T16:20:41.910Z</time>
      </trkpt>
      <trkpt lat="48.521327" lon="0.783536">
        <ele>214.908078</ele>
        <time>2025-06-25T16:20:44.937Z</time>
      </trkpt>
      <trkpt lat="48.521321" lon="0.783086">
        <ele>214.462006</ele>
        <time>2025-06-25T16:20:48.103Z</time>
      </trkpt>
      <trkpt lat="48.521151" lon="0.781270">
        <ele>211.741121</ele>
        <time>2025-06-25T16:21:01.584Z</time>
      </trkpt>
      <trkpt lat="48.521101" lon="0.780467">
        <ele>210.445936</ele>
        <time>2025-06-25T16:21:07.276Z</time>
      </trkpt>
      <trkpt lat="48.521139" lon="0.779782">
        <ele>209.047425</ele>
        <time>2025-06-25T16:21:11.833Z</time>
      </trkpt>
      <trkpt lat="48.521266" lon="0.778826">
        <ele>206.321028</ele>
        <time>2025-06-25T16:21:18.143Z</time>
      </trkpt>
      <trkpt lat="48.521285" lon="0.778733">
        <ele>206.048893</ele>
        <time>2025-06-25T16:21:18.769Z</time>
      </trkpt>
      <trkpt lat="48.521464" lon="0.777526">
        <ele>202.590335</ele>
        <time>2025-06-25T16:21:26.684Z</time>
      </trkpt>
      <trkpt lat="48.521546" lon="0.777132">
        <ele>201.203058</ele>
        <time>2025-06-25T16:21:29.225Z</time>
      </trkpt>
      <trkpt lat="48.521768" lon="0.776494">
        <ele>198.528790</ele>
        <time>2025-06-25T16:21:33.612Z</time>
      </trkpt>
      <trkpt lat="48.522052" lon="0.775978">
        <ele>196.039255</ele>
        <time>2025-06-25T16:21:37.665Z</time>
      </trkpt>
      <trkpt lat="48.522159" lon="0.775794">
        <ele>195.130668</ele>
        <time>2025-06-25T16:21:39.140Z</time>
      </trkpt>
      <trkpt lat="48.522221" lon="0.775711">
        <ele>194.666436</ele>
        <time>2025-06-25T16:21:39.888Z</time>
      </trkpt>
      <trkpt lat="48.524481" lon="0.772936">
        <ele>180.977440</ele>
        <time>2025-06-25T16:22:07.372Z</time>
      </trkpt>
      <trkpt lat="48.524750" lon="0.772556">
        <ele>179.790889</ele>
        <time>2025-06-25T16:22:11.184Z</time>
      </trkpt>
      <trkpt lat="48.524910" lon="0.772280">
        <ele>179.008412</ele>
        <time>2025-06-25T16:22:13.754Z</time>
      </trkpt>
      <trkpt lat="48.525148" lon="0.771721">
        <ele>177.590759</ele>
        <time>2025-06-25T16:22:18.616Z</time>
      </trkpt>
      <trkpt lat="48.525314" lon="0.771175">
        <ele>176.994044</ele>
        <time>2025-06-25T16:22:23.197Z</time>
      </trkpt>
      <trkpt lat="48.525643" lon="0.769545">
        <ele>175.922760</ele>
        <time>2025-06-25T16:22:37.007Z</time>
      </trkpt>
      <trkpt lat="48.525970" lon="0.768294">
        <ele>175.448164</ele>
        <time>2025-06-25T16:22:50.016Z</time>
      </trkpt>
      <trkpt lat="48.526864" lon="0.765759">
        <ele>174.594731</ele>
        <time>2025-06-25T16:23:16.503Z</time>
      </trkpt>
      <trkpt lat="48.527416" lon="0.764329">
        <ele>173.633421</ele>
        <time>2025-06-25T16:23:29.383Z</time>
      </trkpt>
      <trkpt lat="48.527559" lon="0.763796">
        <ele>173.269658</ele>
        <time>2025-06-25T16:23:34.003Z</time>
      </trkpt>
      <trkpt lat="48.527616" lon="0.763495">
        <ele>173.067527</ele>
        <time>2025-06-25T16:23:36.585Z</time>
      </trkpt>
      <trkpt lat="48.527754" lon="0.762240">
        <ele>172.246139</ele>
        <time>2025-06-25T16:23:46.872Z</time>
      </trkpt>
      <trkpt lat="48.527839" lon="0.761771">
        <ele>171.932194</ele>
        <time>2025-06-25T16:23:50.980Z</time>
      </trkpt>
      <trkpt lat="48.528041" lon="0.761011">
        <ele>171.489105</ele>
        <time>2025-06-25T16:23:57.864Z</time>
      </trkpt>
      <trkpt lat="48.528159" lon="0.760678">
        <ele>171.296334</ele>
        <time>2025-06-25T16:24:00.994Z</time>
      </trkpt>
      <trkpt lat="48.528457" lon="0.759765">
        <ele>170.776796</ele>
        <time>2025-06-25T16:24:09.520Z</time>
      </trkpt>
      <trkpt lat="48.528893" lon="0.757636">
        <ele>169.580343</ele>
        <time>2025-06-25T16:24:28.162Z</time>
      </trkpt>
      <trkpt lat="48.528986" lon="0.757295">
        <ele>169.377993</ele>
        <time>2025-06-25T16:24:31.243Z</time>
      </trkpt>
      <trkpt lat="48.529115" lon="0.757010">
        <ele>169.188579</ele>
        <time>2025-06-25T16:24:34.393Z</time>
      </trkpt>
      <trkpt lat="48.529204" lon="0.756881">
        <ele>169.086366</ele>
        <time>2025-06-25T16:24:35.969Z</time>
      </trkpt>
      <trkpt lat="48.529362" lon="0.756764">
        <ele>168.940563</ele>
        <time>2025-06-25T16:24:38.122Z</time>
      </trkpt>
      <trkpt lat="48.529556" lon="0.756697">
        <ele>168.735170</ele>
        <time>2025-06-25T16:24:40.496Z</time>
      </trkpt>
      <trkpt lat="48.530033" lon="0.756621">
        <ele>168.237275</ele>
        <time>2025-06-25T16:24:46.077Z</time>
      </trkpt>
      <trkpt lat="48.530104" lon="0.756605">
        <ele>168.162758</ele>
        <time>2025-06-25T16:24:46.903Z</time>
      </trkpt>
      <trkpt lat="48.530205" lon="0.756485">
        <ele>168.029354</ele>
        <time>2025-06-25T16:24:48.390Z</time>
      </trkpt>
      <trkpt lat="48.530236" lon="0.756418">
        <ele>167.973169</ele>
        <time>2025-06-25T16:24:48.993Z</time>
      </trkpt>
      <trkpt lat="48.530307" lon="0.756213">
        <ele>167.814140</ele>
        <time>2025-06-25T16:24:50.864Z</time>
      </trkpt>
      <trkpt lat="48.530347" lon="0.756097">
        <ele>167.724236</ele>
        <time>2025-06-25T16:24:52.035Z</time>
      </trkpt>
      <trkpt lat="48.530639" lon="0.755192">
        <ele>167.065521</ele>
        <time>2025-06-25T16:25:00.294Z</time>
      </trkpt>
      <trkpt lat="48.530712" lon="0.754958">
        <ele>167.049591</ele>
        <time>2025-06-25T16:25:02.307Z</time>
      </trkpt>
      <trkpt lat="48.530846" lon="0.754514">
        <ele>167.019541</ele>
        <time>2025-06-25T16:25:06.647Z</time>
      </trkpt>
      <trkpt lat="48.530895" lon="0.754240">
        <ele>167.002063</ele>
        <time>2025-06-25T16:25:09.334Z</time>
      </trkpt>
      <trkpt lat="48.530978" lon="0.753487">
        <ele>166.955051</ele>
        <time>2025-06-25T16:25:17.119Z</time>
      </trkpt>
      <trkpt lat="48.531045" lon="0.753127">
        <ele>166.932022</ele>
        <time>2025-06-25T16:25:21.206Z</time>
      </trkpt>
      <trkpt lat="48.531095" lon="0.753011">
        <ele>166.923498</ele>
        <time>2025-06-25T16:25:22.731Z</time>
      </trkpt>
      <trkpt lat="48.531351" lon="0.752541">
        <ele>167.092004</ele>
        <time>2025-06-25T16:25:29.295Z</time>
      </trkpt>
      <trkpt lat="48.531322" lon="0.752404">
        <ele>167.200798</ele>
        <time>2025-06-25T16:25:30.804Z</time>
      </trkpt>
      <trkpt lat="48.531281" lon="0.752314">
        <ele>167.283428</ele>
        <time>2025-06-25T16:25:31.949Z</time>
      </trkpt>
      <trkpt lat="48.531224" lon="0.752277">
        <ele>167.354296</ele>
        <time>2025-06-25T16:25:32.913Z</time>
      </trkpt>
      <trkpt lat="48.531180" lon="0.752262">
        <ele>167.405820</ele>
        <time>2025-06-25T16:25:33.631Z</time>
      </trkpt>
      <trkpt lat="48.530876" lon="0.751837">
        <ele>167.879026</ele>
        <time>2025-06-25T16:25:40.282Z</time>
      </trkpt>
      <trkpt lat="48.530560" lon="0.751580">
        <ele>168.288997</ele>
        <time>2025-06-25T16:25:46.923Z</time>
      </trkpt>
      <trkpt lat="48.530213" lon="0.751382">
        <ele>168.712710</ele>
        <time>2025-06-25T16:25:54.843Z</time>
      </trkpt>
      <trkpt lat="48.530342" lon="0.750907">
        <ele>169.623369</ele>
        <time>2025-06-25T16:26:03.369Z</time>
      </trkpt>
      <trkpt lat="48.530335" lon="0.750857">
        <ele>169.801249</ele>
        <time>2025-06-25T16:26:04.269Z</time>
      </trkpt>
      <trkpt lat="48.530090" lon="0.750425">
        <ele>171.780951</ele>
        <time>2025-06-25T16:26:14.785Z</time>
      </trkpt>
      <trkpt lat="48.529961" lon="0.750366">
        <ele>172.489397</ele>
        <time>2025-06-25T16:26:19.076Z</time>
      </trkpt>
      <trkpt lat="48.529843" lon="0.750275">
        <ele>173.185810</ele>
        <time>2025-06-25T16:26:23.631Z</time>
      </trkpt>
      <trkpt lat="48.529670" lon="0.750034">
        <ele>174.422939</ele>
        <time>2025-06-25T16:26:32.423Z</time>
      </trkpt>
      <trkpt lat="48.529751" lon="0.749925">
        <ele>174.993199</ele>
        <time>2025-06-25T16:26:36.709Z</time>
      </trkpt>
      <trkpt lat="48.529812" lon="0.749892">
        <ele>175.333771</ele>
        <time>2025-06-25T16:26:39.320Z</time>
      </trkpt>
      <trkpt lat="48.529922" lon="0.749845">
        <ele>175.934634</ele>
        <time>2025-06-25T16:26:44.017Z</time>
      </trkpt>
      <trkpt lat="48.530023" lon="0.749750">
        <ele>176.560056</ele>
        <time>2025-06-25T16:26:48.959Z</time>
      </trkpt>
      <trkpt lat="48.530136" lon="0.749281">
        <ele>178.297187</ele>
        <time>2025-06-25T16:27:03.381Z</time>
      </trkpt>
      <trkpt lat="48.530225" lon="0.748898">
        <ele>180.464970</ele>
        <time>2025-06-25T16:27:16.543Z</time>
      </trkpt>
      <trkpt lat="48.530276" lon="0.748468">
        <ele>182.868378</ele>
        <time>2025-06-25T16:27:31.126Z</time>
      </trkpt>
      <trkpt lat="48.530191" lon="0.747988">
        <ele>185.602021</ele>
        <time>2025-06-25T16:27:48.006Z</time>
      </trkpt>
      <trkpt lat="48.530174" lon="0.747909">
        <ele>186.059034</ele>
        <time>2025-06-25T16:27:50.808Z</time>
      </trkpt>
      <trkpt lat="48.530123" lon="0.747637">
        <ele>187.614348</ele>
        <time>2025-06-25T16:28:00.287Z</time>
      </trkpt>
      <trkpt lat="48.530095" lon="0.747320">
        <ele>189.373862</ele>
        <time>2025-06-25T16:28:10.703Z</time>
      </trkpt>
      <trkpt lat="48.530110" lon="0.747054">
        <ele>190.842635</ele>
        <time>2025-06-25T16:28:19.150Z</time>
      </trkpt>
      <trkpt lat="48.530181" lon="0.746672">
        <ele>193.025528</ele>
        <time>2025-06-25T16:28:31.485Z</time>
      </trkpt>
      <trkpt lat="48.530442" lon="0.745721">
        <ele>198.084934</ele>
        <time>2025-06-25T16:29:01.987Z</time>
      </trkpt>
      <trkpt lat="48.530616" lon="0.744924">
        <ele>202.179115</ele>
        <time>2025-06-25T16:29:25.660Z</time>
      </trkpt>
      <trkpt lat="48.530685" lon="0.744151">
        <ele>205.984448</ele>
        <time>2025-06-25T16:29:48.507Z</time>
      </trkpt>
      <trkpt lat="48.530705" lon="0.743482">
        <ele>208.625187</ele>
        <time>2025-06-25T16:30:08.327Z</time>
      </trkpt>
      <trkpt lat="48.530682" lon="0.743016">
        <ele>210.365593</ele>
        <time>2025-06-25T16:30:21.911Z</time>
      </trkpt>
      <trkpt lat="48.530446" lon="0.741798">
        <ele>215.092173</ele>
        <time>2025-06-25T16:30:53.622Z</time>
      </trkpt>
      <trkpt lat="48.530337" lon="0.740760">
        <ele>217.154831</ele>
        <time>2025-06-25T16:31:11.813Z</time>
      </trkpt>
      <trkpt lat="48.530235" lon="0.739297">
        <ele>218.197227</ele>
        <time>2025-06-25T16:31:28.169Z</time>
      </trkpt>
      <trkpt lat="48.530006" lon="0.737880">
        <ele>218.865073</ele>
        <time>2025-06-25T16:31:41.622Z</time>
      </trkpt>
      <trkpt lat="48.529904" lon="0.736325">
        <ele>219.281823</ele>
        <time>2025-06-25T16:31:58.609Z</time>
      </trkpt>
      <trkpt lat="48.529855" lon="0.735660">
        <ele>219.680147</ele>
        <time>2025-06-25T16:32:07.192Z</time>
      </trkpt>
      <trkpt lat="48.529749" lon="0.734844">
        <ele>220.434603</ele>
        <time>2025-06-25T16:32:18.657Z</time>
      </trkpt>
      <trkpt lat="48.529488" lon="0.733314">
        <ele>221.844500</ele>
        <time>2025-06-25T16:32:40.976Z</time>
      </trkpt>
      <trkpt lat="48.529422" lon="0.732753">
        <ele>222.014361</ele>
        <time>2025-06-25T16:32:48.372Z</time>
      </trkpt>
      <trkpt lat="48.529387" lon="0.732155">
        <ele>222.193329</ele>
        <time>2025-06-25T16:32:55.513Z</time>
      </trkpt>
      <trkpt lat="48.529384" lon="0.731678">
        <ele>222.335537</ele>
        <time>2025-06-25T16:33:00.692Z</time>
      </trkpt>
      <trkpt lat="48.529546" lon="0.729202">
        <ele>222.227800</ele>
        <time>2025-06-25T16:33:23.056Z</time>
      </trkpt>
      <trkpt lat="48.529561" lon="0.728204">
        <ele>221.943737</ele>
        <time>2025-06-25T16:33:31.737Z</time>
      </trkpt>
      <trkpt lat="48.529542" lon="0.727796">
        <ele>221.824864</ele>
        <time>2025-06-25T16:33:35.427Z</time>
      </trkpt>
      <trkpt lat="48.529418" lon="0.726603">
        <ele>221.461091</ele>
        <time>2025-06-25T16:33:46.411Z</time>
      </trkpt>
      <trkpt lat="48.529377" lon="0.725884">
        <ele>221.243702</ele>
        <time>2025-06-25T16:33:52.773Z</time>
      </trkpt>
      <trkpt lat="48.529376" lon="0.723750">
        <ele>221.005486</ele>
        <time>2025-06-25T16:34:11.209Z</time>
      </trkpt>
      <trkpt lat="48.529272" lon="0.722006">
        <ele>221.355224</ele>
        <time>2025-06-25T16:34:30.815Z</time>
      </trkpt>
      <trkpt lat="48.529193" lon="0.721181">
        <ele>221.962826</ele>
        <time>2025-06-25T16:34:41.417Z</time>
      </trkpt>
      <trkpt lat="48.529107" lon="0.720729">
        <ele>222.305620</ele>
        <time>2025-06-25T16:34:47.506Z</time>
      </trkpt>
      <trkpt lat="48.529001" lon="0.720345">
        <ele>222.608864</ele>
        <time>2025-06-25T16:34:52.991Z</time>
      </trkpt>
      <trkpt lat="48.528240" lon="0.718118">
        <ele>225.117698</ele>
        <time>2025-06-25T16:35:28.408Z</time>
      </trkpt>
      <trkpt lat="48.526926" lon="0.714489">
        <ele>229.250202</ele>
        <time>2025-06-25T16:36:26.939Z</time>
      </trkpt>
      <trkpt lat="48.526428" lon="0.713532">
        <ele>230.051846</ele>
        <time>2025-06-25T16:36:42.237Z</time>
      </trkpt>
      <trkpt lat="48.526068" lon="0.712775">
        <ele>230.431665</ele>
        <time>2025-06-25T16:36:52.661Z</time>
      </trkpt>
      <trkpt lat="48.525943" lon="0.712390">
        <ele>230.152065</ele>
        <time>2025-06-25T16:36:57.106Z</time>
      </trkpt>
      <trkpt lat="48.525836" lon="0.711921">
        <ele>229.828597</ele>
        <time>2025-06-25T16:37:01.717Z</time>
      </trkpt>
      <trkpt lat="48.525739" lon="0.711387">
        <ele>229.467520</ele>
        <time>2025-06-25T16:37:06.359Z</time>
      </trkpt>
      <trkpt lat="48.525469" lon="0.710279">
        <ele>228.488921</ele>
        <time>2025-06-25T16:37:15.022Z</time>
      </trkpt>
      <trkpt lat="48.524905" lon="0.708339">
        <ele>223.479138</ele>
        <time>2025-06-25T16:37:28.898Z</time>
      </trkpt>
      <trkpt lat="48.524883" lon="0.708257">
        <ele>223.269936</ele>
        <time>2025-06-25T16:37:29.456Z</time>
      </trkpt>
      <trkpt lat="48.524356" lon="0.706463">
        <ele>217.659054</ele>
        <time>2025-06-25T16:37:41.990Z</time>
      </trkpt>
      <trkpt lat="48.524217" lon="0.706060">
        <ele>216.304867</ele>
        <time>2025-06-25T16:37:44.904Z</time>
      </trkpt>
      <trkpt lat="48.524009" lon="0.705692">
        <ele>214.863003</ele>
        <time>2025-06-25T16:37:47.991Z</time>
      </trkpt>
      <trkpt lat="48.523820" lon="0.705489">
        <ele>213.589195</ele>
        <time>2025-06-25T16:37:50.193Z</time>
      </trkpt>
      <trkpt lat="48.523226" lon="0.705105">
        <ele>209.169132</ele>
        <time>2025-06-25T16:37:56.113Z</time>
      </trkpt>
      <trkpt lat="48.522988" lon="0.704891">
        <ele>207.274252</ele>
        <time>2025-06-25T16:37:58.586Z</time>
      </trkpt>
      <trkpt lat="48.522577" lon="0.704421">
        <ele>203.747401</ele>
        <time>2025-06-25T16:38:03.134Z</time>
      </trkpt>
      <trkpt lat="48.522240" lon="0.704084">
        <ele>201.083742</ele>
        <time>2025-06-25T16:38:06.701Z</time>
      </trkpt>
      <trkpt lat="48.522040" lon="0.703959">
        <ele>199.756926</ele>
        <time>2025-06-25T16:38:08.611Z</time>
      </trkpt>
      <trkpt lat="48.521730" lon="0.703909">
        <ele>197.845924</ele>
        <time>2025-06-25T16:38:11.400Z</time>
      </trkpt>
      <trkpt lat="48.520718" lon="0.703907">
        <ele>191.642718</ele>
        <time>2025-06-25T16:38:20.866Z</time>
      </trkpt>
      <trkpt lat="48.519934" lon="0.703953">
        <ele>187.398480</ele>
        <time>2025-06-25T16:38:28.339Z</time>
      </trkpt>
      <trkpt lat="48.519230" lon="0.703900">
        <ele>183.673368</ele>
        <time>2025-06-25T16:38:34.910Z</time>
      </trkpt>
      <trkpt lat="48.518533" lon="0.703752">
        <ele>179.903582</ele>
        <time>2025-06-25T16:38:41.409Z</time>
      </trkpt>
      <trkpt lat="48.517885" lon="0.703688">
        <ele>176.355206</ele>
        <time>2025-06-25T16:38:47.432Z</time>
      </trkpt>
      <trkpt lat="48.516622" lon="0.703961">
        <ele>169.375096</ele>
        <time>2025-06-25T16:38:59.368Z</time>
      </trkpt>
      <trkpt lat="48.516131" lon="0.703995">
        <ele>166.679123</ele>
        <time>2025-06-25T16:39:03.911Z</time>
      </trkpt>
      <trkpt lat="48.515835" lon="0.703956">
        <ele>165.049388</ele>
        <time>2025-06-25T16:39:06.650Z</time>
      </trkpt>
      <trkpt lat="48.515634" lon="0.703893">
        <ele>163.923389</ele>
        <time>2025-06-25T16:39:08.539Z</time>
      </trkpt>
      <trkpt lat="48.515120" lon="0.703660">
        <ele>161.374044</ele>
        <time>2025-06-25T16:39:13.518Z</time>
      </trkpt>
      <trkpt lat="48.514860" lon="0.703485">
        <ele>160.629223</ele>
        <time>2025-06-25T16:39:16.202Z</time>
      </trkpt>
      <trkpt lat="48.514497" lon="0.703163">
        <ele>159.527634</ele>
        <time>2025-06-25T16:39:20.292Z</time>
      </trkpt>
      <trkpt lat="48.514201" lon="0.702816">
        <ele>158.547078</ele>
        <time>2025-06-25T16:39:24.229Z</time>
      </trkpt>
      <trkpt lat="48.513942" lon="0.702439">
        <ele>157.605714</ele>
        <time>2025-06-25T16:39:28.608Z</time>
      </trkpt>
      <trkpt lat="48.513784" lon="0.702105">
        <ele>157.266103</ele>
        <time>2025-06-25T16:39:32.926Z</time>
      </trkpt>
      <trkpt lat="48.513714" lon="0.701959">
        <ele>157.824649</ele>
        <time>2025-06-25T16:39:35.387Z</time>
      </trkpt>
      <trkpt lat="48.513522" lon="0.701511">
        <ele>159.478279</ele>
        <time>2025-06-25T16:39:44.477Z</time>
      </trkpt>
      <trkpt lat="48.513403" lon="0.701068">
        <ele>160.959774</ele>
        <time>2025-06-25T16:39:54.820Z</time>
      </trkpt>
      <trkpt lat="48.513345" lon="0.700654">
        <ele>162.271192</ele>
        <time>2025-06-25T16:40:05.629Z</time>
      </trkpt>
      <trkpt lat="48.513329" lon="0.700338">
        <ele>163.253374</ele>
        <time>2025-06-25T16:40:14.204Z</time>
      </trkpt>
      <trkpt lat="48.513339" lon="0.699877">
        <ele>164.682840</ele>
        <time>2025-06-25T16:40:27.451Z</time>
      </trkpt>
      <trkpt lat="48.513369" lon="0.699584">
        <ele>165.675970</ele>
        <time>2025-06-25T16:40:36.341Z</time>
      </trkpt>
      <trkpt lat="48.513427" lon="0.699304">
        <ele>167.009122</ele>
        <time>2025-06-25T16:40:45.320Z</time>
      </trkpt>
      <trkpt lat="48.513499" lon="0.698992">
        <ele>168.510500</ele>
        <time>2025-06-25T16:40:55.569Z</time>
      </trkpt>
      <trkpt lat="48.513845" lon="0.698074">
        <ele>173.310078</ele>
        <time>2025-06-25T16:41:26.010Z</time>
      </trkpt>
      <trkpt lat="48.514446" lon="0.696936">
        <ele>180.131353</ele>
        <time>2025-06-25T16:42:02.710Z</time>
      </trkpt>
      <trkpt lat="48.514762" lon="0.696278">
        <ele>184.182435</ele>
        <time>2025-06-25T16:42:26.197Z</time>
      </trkpt>
      <trkpt lat="48.514910" lon="0.695860">
        <ele>186.544921</ele>
        <time>2025-06-25T16:42:41.182Z</time>
      </trkpt>
      <trkpt lat="48.514978" lon="0.695686">
        <ele>187.551914</ele>
        <time>2025-06-25T16:42:47.757Z</time>
      </trkpt>
      <trkpt lat="48.515261" lon="0.694638">
        <ele>193.090142</ele>
        <time>2025-06-25T16:43:25.294Z</time>
      </trkpt>
      <trkpt lat="48.515688" lon="0.692806">
        <ele>202.240059</ele>
        <time>2025-06-25T16:44:21.365Z</time>
      </trkpt>
      <trkpt lat="48.515753" lon="0.692555">
        <ele>203.509759</ele>
        <time>2025-06-25T16:44:27.918Z</time>
      </trkpt>
      <trkpt lat="48.515828" lon="0.692375">
        <ele>204.431695</ele>
        <time>2025-06-25T16:44:32.999Z</time>
      </trkpt>
      <trkpt lat="48.515934" lon="0.692191">
        <ele>205.353316</ele>
        <time>2025-06-25T16:44:38.807Z</time>
      </trkpt>
      <trkpt lat="48.516122" lon="0.691950">
        <ele>206.760522</ele>
        <time>2025-06-25T16:44:47.601Z</time>
      </trkpt>
      <trkpt lat="48.516773" lon="0.691430">
        <ele>210.962756</ele>
        <time>2025-06-25T16:45:14.139Z</time>
      </trkpt>
      <trkpt lat="48.517036" lon="0.691014">
        <ele>213.136143</ele>
        <time>2025-06-25T16:45:28.739Z</time>
      </trkpt>
      <trkpt lat="48.517115" lon="0.690781">
        <ele>214.125392</ele>
        <time>2025-06-25T16:45:35.679Z</time>
      </trkpt>
      <trkpt lat="48.517173" lon="0.690492">
        <ele>215.268239</ele>
        <time>2025-06-25T16:45:43.820Z</time>
      </trkpt>
      <trkpt lat="48.517207" lon="0.690141">
        <ele>216.611266</ele>
        <time>2025-06-25T16:45:53.383Z</time>
      </trkpt>
      <trkpt lat="48.517145" lon="0.688819">
        <ele>221.628912</ele>
        <time>2025-06-25T16:46:28.568Z</time>
      </trkpt>
      <trkpt lat="48.516993" lon="0.685622">
        <ele>230.867597</ele>
        <time>2025-06-25T16:47:38.807Z</time>
      </trkpt>
      <trkpt lat="48.516711" lon="0.682333">
        <ele>233.964470</ele>
        <time>2025-06-25T16:48:18.458Z</time>
      </trkpt>
      <trkpt lat="48.516676" lon="0.681603">
        <ele>234.679985</ele>
        <time>2025-06-25T16:48:27.814Z</time>
      </trkpt>
      <trkpt lat="48.516670" lon="0.680570">
        <ele>235.689884</ele>
        <time>2025-06-25T16:48:42.314Z</time>
      </trkpt>
      <trkpt lat="48.516722" lon="0.679583">
        <ele>236.819968</ele>
        <time>2025-06-25T16:48:57.202Z</time>
      </trkpt>
      <trkpt lat="48.516735" lon="0.679341">
        <ele>237.175669</ele>
        <time>2025-06-25T16:49:00.975Z</time>
      </trkpt>
      <trkpt lat="48.516917" lon="0.678584">
        <ele>238.355483</ele>
        <time>2025-06-25T16:49:13.833Z</time>
      </trkpt>
      <trkpt lat="48.517201" lon="0.677979">
        <ele>239.441820</ele>
        <time>2025-06-25T16:49:25.799Z</time>
      </trkpt>
      <trkpt lat="48.517779" lon="0.677178">
        <ele>240.796614</ele>
        <time>2025-06-25T16:49:44.767Z</time>
      </trkpt>
      <trkpt lat="48.518787" lon="0.676002">
        <ele>242.376824</ele>
        <time>2025-06-25T16:50:09.643Z</time>
      </trkpt>
      <trkpt lat="48.519359" lon="0.675397">
        <ele>242.178361</ele>
        <time>2025-06-25T16:50:19.765Z</time>
      </trkpt>
      <trkpt lat="48.520444" lon="0.673972">
        <ele>240.667069</ele>
        <time>2025-06-25T16:50:37.572Z</time>
      </trkpt>
      <trkpt lat="48.520828" lon="0.673144">
        <ele>238.318549</ele>
        <time>2025-06-25T16:50:44.656Z</time>
      </trkpt>
      <trkpt lat="48.520981" lon="0.672690">
        <ele>237.135020</ele>
        <time>2025-06-25T16:50:47.977Z</time>
      </trkpt>
      <trkpt lat="48.521046" lon="0.672147">
        <ele>235.852958</ele>
        <time>2025-06-25T16:50:51.434Z</time>
      </trkpt>
      <trkpt lat="48.521052" lon="0.671542">
        <ele>233.793364</ele>
        <time>2025-06-25T16:50:55.126Z</time>
      </trkpt>
      <trkpt lat="48.520869" lon="0.670642">
        <ele>229.333141</ele>
        <time>2025-06-25T16:51:00.727Z</time>
      </trkpt>
      <trkpt lat="48.520645" lon="0.669316">
        <ele>222.849974</ele>
        <time>2025-06-25T16:51:08.772Z</time>
      </trkpt>
      <trkpt lat="48.520651" lon="0.668960">
        <ele>221.162200</ele>
        <time>2025-06-25T16:51:10.855Z</time>
      </trkpt>
      <trkpt lat="48.520888" lon="0.668353">
        <ele>217.821984</ele>
        <time>2025-06-25T16:51:14.970Z</time>
      </trkpt>
      <trkpt lat="48.521063" lon="0.667980">
        <ele>215.655135</ele>
        <time>2025-06-25T16:51:17.654Z</time>
      </trkpt>
      <trkpt lat="48.521146" lon="0.667642">
        <ele>213.946288</ele>
        <time>2025-06-25T16:51:19.786Z</time>
      </trkpt>
      <trkpt lat="48.521158" lon="0.667241">
        <ele>212.043430</ele>
        <time>2025-06-25T16:51:22.169Z</time>
      </trkpt>
      <trkpt lat="48.521099" lon="0.666814">
        <ele>209.975682</ele>
        <time>2025-06-25T16:51:24.783Z</time>
      </trkpt>
      <trkpt lat="48.520412" lon="0.664455">
        <ele>201.710174</ele>
        <time>2025-06-25T16:51:40.981Z</time>
      </trkpt>
      <trkpt lat="48.520025" lon="0.663217">
        <ele>198.925746</ele>
        <time>2025-06-25T16:51:50.186Z</time>
      </trkpt>
      <trkpt lat="48.519911" lon="0.662907">
        <ele>198.300781</ele>
        <time>2025-06-25T16:51:52.642Z</time>
      </trkpt>
      <trkpt lat="48.519804" lon="0.662704">
        <ele>197.843509</ele>
        <time>2025-06-25T16:51:54.452Z</time>
      </trkpt>
      <trkpt lat="48.519772" lon="0.662642">
        <ele>197.704969</ele>
        <time>2025-06-25T16:51:54.985Z</time>
      </trkpt>
      <trkpt lat="48.519560" lon="0.662168">
        <ele>196.696868</ele>
        <time>2025-06-25T16:51:59.079Z</time>
      </trkpt>
      <trkpt lat="48.519486" lon="0.661898">
        <ele>196.181835</ele>
        <time>2025-06-25T16:52:01.253Z</time>
      </trkpt>
      <trkpt lat="48.519318" lon="0.661045">
        <ele>195.975627</ele>
        <time>2025-06-25T16:52:08.295Z</time>
      </trkpt>
      <trkpt lat="48.519285" lon="0.660942">
        <ele>195.962438</ele>
        <time>2025-06-25T16:52:09.337Z</time>
      </trkpt>
      <trkpt lat="48.519126" lon="0.660473">
        <ele>195.901708</ele>
        <time>2025-06-25T16:52:14.713Z</time>
      </trkpt>
      <trkpt lat="48.518961" lon="0.660155">
        <ele>195.855145</ele>
        <time>2025-06-25T16:52:19.416Z</time>
      </trkpt>
      <trkpt lat="48.518641" lon="0.659814">
        <ele>195.786982</ele>
        <time>2025-06-25T16:52:26.520Z</time>
      </trkpt>
      <trkpt lat="48.518505" lon="0.659721">
        <ele>195.761001</ele>
        <time>2025-06-25T16:52:29.246Z</time>
      </trkpt>
      <trkpt lat="48.518003" lon="0.659504">
        <ele>195.469836</ele>
        <time>2025-06-25T16:52:38.149Z</time>
      </trkpt>
      <trkpt lat="48.515778" lon="0.658684">
        <ele>192.576450</ele>
        <time>2025-06-25T16:53:05.675Z</time>
      </trkpt>
      <trkpt lat="48.515265" lon="0.658457">
        <ele>191.420395</ele>
        <time>2025-06-25T16:53:11.302Z</time>
      </trkpt>
      <trkpt lat="48.514982" lon="0.658219">
        <ele>190.557112</ele>
        <time>2025-06-25T16:53:14.493Z</time>
      </trkpt>
      <trkpt lat="48.514815" lon="0.658019">
        <ele>189.479015</ele>
        <time>2025-06-25T16:53:16.525Z</time>
      </trkpt>
      <trkpt lat="48.514671" lon="0.657806">
        <ele>188.459408</ele>
        <time>2025-06-25T16:53:18.432Z</time>
      </trkpt>
      <trkpt lat="48.514442" lon="0.657319">
        <ele>186.458584</ele>
        <time>2025-06-25T16:53:22.118Z</time>
      </trkpt>
      <trkpt lat="48.514366" lon="0.657086">
        <ele>185.588483</ele>
        <time>2025-06-25T16:53:23.709Z</time>
      </trkpt>
      <trkpt lat="48.514306" lon="0.656783">
        <ele>184.528980</ele>
        <time>2025-06-25T16:53:25.646Z</time>
      </trkpt>
      <trkpt lat="48.514236" lon="0.656216">
        <ele>182.596691</ele>
        <time>2025-06-25T16:53:29.156Z</time>
      </trkpt>
      <trkpt lat="48.513886" lon="0.652619">
        <ele>171.654191</ele>
        <time>2025-06-25T16:53:51.968Z</time>
      </trkpt>
      <trkpt lat="48.513868" lon="0.652359">
        <ele>171.143590</ele>
        <time>2025-06-25T16:53:53.682Z</time>
      </trkpt>
      <trkpt lat="48.513599" lon="0.649687">
        <ele>167.671884</ele>
        <time>2025-06-25T16:54:13.177Z</time>
      </trkpt>
      <trkpt lat="48.513587" lon="0.649554">
        <ele>167.674807</ele>
        <time>2025-06-25T16:54:14.400Z</time>
      </trkpt>
      <trkpt lat="48.513311" lon="0.646844">
        <ele>169.479047</ele>
        <time>2025-06-25T16:54:50.398Z</time>
      </trkpt>
      <trkpt lat="48.513226" lon="0.646237">
        <ele>170.498494</ele>
        <time>2025-06-25T16:55:01.134Z</time>
      </trkpt>
      <trkpt lat="48.512952" lon="0.644998">
        <ele>172.943324</ele>
        <time>2025-06-25T16:55:26.297Z</time>
      </trkpt>
      <trkpt lat="48.512680" lon="0.644032">
        <ele>175.758100</ele>
        <time>2025-06-25T16:55:47.412Z</time>
      </trkpt>
      <trkpt lat="48.512643" lon="0.643908">
        <ele>176.122802</ele>
        <time>2025-06-25T16:55:50.221Z</time>
      </trkpt>
      <trkpt lat="48.512373" lon="0.642990">
        <ele>178.816303</ele>
        <time>2025-06-25T16:56:11.402Z</time>
      </trkpt>
      <trkpt lat="48.511747" lon="0.640842">
        <ele>185.185190</ele>
        <time>2025-06-25T16:57:02.484Z</time>
      </trkpt>
      <trkpt lat="48.510559" lon="0.636791">
        <ele>193.915252</ele>
        <time>2025-06-25T16:58:22.130Z</time>
      </trkpt>
      <trkpt lat="48.510450" lon="0.636420">
        <ele>194.456934</ele>
        <time>2025-06-25T16:58:27.718Z</time>
      </trkpt>
      <trkpt lat="48.510178" lon="0.635499">
        <ele>195.802807</ele>
        <time>2025-06-25T16:58:40.792Z</time>
      </trkpt>
      <trkpt lat="48.510148" lon="0.635403">
        <ele>195.944479</ele>
        <time>2025-06-25T16:58:42.082Z</time>
      </trkpt>
      <trkpt lat="48.510029" lon="0.635021">
        <ele>196.462973</ele>
        <time>2025-06-25T16:58:47.163Z</time>
      </trkpt>
      <trkpt lat="48.509919" lon="0.634596">
        <ele>197.011082</ele>
        <time>2025-06-25T16:58:53.455Z</time>
      </trkpt>
      <trkpt lat="48.509854" lon="0.634073">
        <ele>197.650294</ele>
        <time>2025-06-25T16:59:01.356Z</time>
      </trkpt>
      <trkpt lat="48.509814" lon="0.633517">
        <ele>198.322115</ele>
        <time>2025-06-25T16:59:09.752Z</time>
      </trkpt>
      <trkpt lat="48.509864" lon="0.633119">
        <ele>198.808732</ele>
        <time>2025-06-25T16:59:16.033Z</time>
      </trkpt>
      <trkpt lat="48.509828" lon="0.632775">
        <ele>199.227086</ele>
        <time>2025-06-25T16:59:21.322Z</time>
      </trkpt>
      <trkpt lat="48.509844" lon="0.632418">
        <ele>199.950737</ele>
        <time>2025-06-25T16:59:27.005Z</time>
      </trkpt>
      <trkpt lat="48.509838" lon="0.632265">
        <ele>200.295435</ele>
        <time>2025-06-25T16:59:29.452Z</time>
      </trkpt>
      <trkpt lat="48.509643" lon="0.631298">
        <ele>202.568727</ele>
        <time>2025-06-25T16:59:46.803Z</time>
      </trkpt>
      <trkpt lat="48.509625" lon="0.631077">
        <ele>203.069498</ele>
        <time>2025-06-25T16:59:50.928Z</time>
      </trkpt>
      <trkpt lat="48.509628" lon="0.630866">
        <ele>203.544146</ele>
        <time>2025-06-25T16:59:55.033Z</time>
      </trkpt>
      <trkpt lat="48.509693" lon="0.630372">
        <ele>204.676850</ele>
        <time>2025-06-25T17:00:05.409Z</time>
      </trkpt>
      <trkpt lat="48.509835" lon="0.629354">
        <ele>208.044035</ele>
        <time>2025-06-25T17:00:29.540Z</time>
      </trkpt>
      <trkpt lat="48.510022" lon="0.628019">
        <ele>213.095264</ele>
        <time>2025-06-25T17:01:06.221Z</time>
      </trkpt>
      <trkpt lat="48.510176" lon="0.626669">
        <ele>216.094705</ele>
        <time>2025-06-25T17:01:39.281Z</time>
      </trkpt>
      <trkpt lat="48.510211" lon="0.625800">
        <ele>216.835522</ele>
        <time>2025-06-25T17:01:52.836Z</time>
      </trkpt>
      <trkpt lat="48.510197" lon="0.625350">
        <ele>217.218860</ele>
        <time>2025-06-25T17:01:56.865Z</time>
      </trkpt>
      <trkpt lat="48.510107" lon="0.624027">
        <ele>216.230837</ele>
        <time>2025-06-25T17:02:05.832Z</time>
      </trkpt>
      <trkpt lat="48.510016" lon="0.623127">
        <ele>214.093500</ele>
        <time>2025-06-25T17:02:11.640Z</time>
      </trkpt>
      <trkpt lat="48.509906" lon="0.622004">
        <ele>211.428441</ele>
        <time>2025-06-25T17:02:19.128Z</time>
      </trkpt>
      <trkpt lat="48.509683" lon="0.619649">
        <ele>206.091057</ele>
        <time>2025-06-25T17:02:35.200Z</time>
      </trkpt>
      <trkpt lat="48.509672" lon="0.619531">
        <ele>205.823738</ele>
        <time>2025-06-25T17:02:35.979Z</time>
      </trkpt>
      <trkpt lat="48.509623" lon="0.619034">
        <ele>204.362548</ele>
        <time>2025-06-25T17:02:39.204Z</time>
      </trkpt>
      <trkpt lat="48.509627" lon="0.618446">
        <ele>202.339412</ele>
        <time>2025-06-25T17:02:42.911Z</time>
      </trkpt>
      <trkpt lat="48.509659" lon="0.618257">
        <ele>201.668253</ele>
        <time>2025-06-25T17:02:44.124Z</time>
      </trkpt>
      <trkpt lat="48.509794" lon="0.617923">
        <ele>200.322132</ele>
        <time>2025-06-25T17:02:46.555Z</time>
      </trkpt>
      <trkpt lat="48.509921" lon="0.617750">
        <ele>199.433720</ele>
        <time>2025-06-25T17:02:48.145Z</time>
      </trkpt>
      <trkpt lat="48.510077" lon="0.617602">
        <ele>198.476835</ele>
        <time>2025-06-25T17:02:49.833Z</time>
      </trkpt>
      <trkpt lat="48.510958" lon="0.617106">
        <ele>193.388325</ele>
        <time>2025-06-25T17:02:58.444Z</time>
      </trkpt>
      <trkpt lat="48.511168" lon="0.616956">
        <ele>192.078038</ele>
        <time>2025-06-25T17:03:00.593Z</time>
      </trkpt>
      <trkpt lat="48.511525" lon="0.616605">
        <ele>189.675163</ele>
        <time>2025-06-25T17:03:04.546Z</time>
      </trkpt>
      <trkpt lat="48.511700" lon="0.616390">
        <ele>188.402600</ele>
        <time>2025-06-25T17:03:06.648Z</time>
      </trkpt>
      <trkpt lat="48.511834" lon="0.616165">
        <ele>187.272178</ele>
        <time>2025-06-25T17:03:08.522Z</time>
      </trkpt>
      <trkpt lat="48.512009" lon="0.615807">
        <ele>185.648231</ele>
        <time>2025-06-25T17:03:11.271Z</time>
      </trkpt>
      <trkpt lat="48.512378" lon="0.614843">
        <ele>182.189957</ele>
        <time>2025-06-25T17:03:18.160Z</time>
      </trkpt>
      <trkpt lat="48.512772" lon="0.613828">
        <ele>178.535826</ele>
        <time>2025-06-25T17:03:25.596Z</time>
      </trkpt>
      <trkpt lat="48.513071" lon="0.612963">
        <ele>176.761787</ele>
        <time>2025-06-25T17:03:32.016Z</time>
      </trkpt>
      <trkpt lat="48.513158" lon="0.612426">
        <ele>176.181153</ele>
        <time>2025-06-25T17:03:35.894Z</time>
      </trkpt>
      <trkpt lat="48.513171" lon="0.612167">
        <ele>175.908345</ele>
        <time>2025-06-25T17:03:37.869Z</time>
      </trkpt>
      <trkpt lat="48.513154" lon="0.611867">
        <ele>175.592104</ele>
        <time>2025-06-25T17:03:40.301Z</time>
      </trkpt>
      <trkpt lat="48.513067" lon="0.611341">
        <ele>175.022685</ele>
        <time>2025-06-25T17:03:45.113Z</time>
      </trkpt>
      <trkpt lat="48.512976" lon="0.610956">
        <ele>174.593349</ele>
        <time>2025-06-25T17:03:49.344Z</time>
      </trkpt>
      <trkpt lat="48.512952" lon="0.610861">
        <ele>174.627104</ele>
        <time>2025-06-25T17:03:50.485Z</time>
      </trkpt>
      <trkpt lat="48.512800" lon="0.610164">
        <ele>175.511060</ele>
        <time>2025-06-25T17:03:59.719Z</time>
      </trkpt>
      <trkpt lat="48.512768" lon="0.609749">
        <ele>176.014359</ele>
        <time>2025-06-25T17:04:05.596Z</time>
      </trkpt>
      <trkpt lat="48.512738" lon="0.607484">
        <ele>179.519019</ele>
        <time>2025-06-25T17:04:43.309Z</time>
      </trkpt>
      <trkpt lat="48.512722" lon="0.605799">
        <ele>183.259269</ele>
        <time>2025-06-25T17:05:15.510Z</time>
      </trkpt>
      <trkpt lat="48.512695" lon="0.605255">
        <ele>184.618231</ele>
        <time>2025-06-25T17:05:26.915Z</time>
      </trkpt>
      <trkpt lat="48.512483" lon="0.603641">
        <ele>189.141511</ele>
        <time>2025-06-25T17:06:01.948Z</time>
      </trkpt>
      <trkpt lat="48.512411" lon="0.603000">
        <ele>190.928783</ele>
        <time>2025-06-25T17:06:15.557Z</time>
      </trkpt>
      <trkpt lat="48.512389" lon="0.602555">
        <ele>191.832752</ele>
        <time>2025-06-25T17:06:24.709Z</time>
      </trkpt>
      <trkpt lat="48.512370" lon="0.601690">
        <ele>193.300665</ele>
        <time>2025-06-25T17:06:41.686Z</time>
      </trkpt>
      <trkpt lat="48.512419" lon="0.600879">
        <ele>194.681892</ele>
        <time>2025-06-25T17:06:55.166Z</time>
      </trkpt>
      <trkpt lat="48.512473" lon="0.600407">
        <ele>195.494289</ele>
        <time>2025-06-25T17:07:02.026Z</time>
      </trkpt>
      <trkpt lat="48.512818" lon="0.597888">
        <ele>195.553505</ele>
        <time>2025-06-25T17:07:26.059Z</time>
      </trkpt>
      <trkpt lat="48.513285" lon="0.595798">
        <ele>193.130579</ele>
        <time>2025-06-25T17:07:43.462Z</time>
      </trkpt>
      <trkpt lat="48.513333" lon="0.595240">
        <ele>192.397751</ele>
        <time>2025-06-25T17:07:47.386Z</time>
      </trkpt>
      <trkpt lat="48.513376" lon="0.593824">
        <ele>188.603427</ele>
        <time>2025-06-25T17:07:56.441Z</time>
      </trkpt>
      <trkpt lat="48.513434" lon="0.592930">
        <ele>185.810279</ele>
        <time>2025-06-25T17:08:01.946Z</time>
      </trkpt>
      <trkpt lat="48.513586" lon="0.591818">
        <ele>182.873840</ele>
        <time>2025-06-25T17:08:09.023Z</time>
      </trkpt>
      <trkpt lat="48.513715" lon="0.591114">
        <ele>181.696644</ele>
        <time>2025-06-25T17:08:13.819Z</time>
      </trkpt>
      <trkpt lat="48.514001" lon="0.590017">
        <ele>179.796695</ele>
        <time>2025-06-25T17:08:22.557Z</time>
      </trkpt>
      <trkpt lat="48.514206" lon="0.589323">
        <ele>179.630391</ele>
        <time>2025-06-25T17:08:29.983Z</time>
      </trkpt>
      <trkpt lat="48.514394" lon="0.588765">
        <ele>180.510765</ele>
        <time>2025-06-25T17:08:37.935Z</time>
      </trkpt>
      <trkpt lat="48.514606" lon="0.588225">
        <ele>181.393507</ele>
        <time>2025-06-25T17:08:47.435Z</time>
      </trkpt>
      <trkpt lat="48.516007" lon="0.585080">
        <ele>190.238423</ele>
        <time>2025-06-25T17:10:03.582Z</time>
      </trkpt>
      <trkpt lat="48.517441" lon="0.581939">
        <ele>201.065872</ele>
        <time>2025-06-25T17:11:39.154Z</time>
      </trkpt>
      <trkpt lat="48.517668" lon="0.581487">
        <ele>201.523064</ele>
        <time>2025-06-25T17:11:46.376Z</time>
      </trkpt>
      <trkpt lat="48.517872" lon="0.580997">
        <ele>201.989541</ele>
        <time>2025-06-25T17:11:50.881Z</time>
      </trkpt>
      <trkpt lat="48.518096" lon="0.580322">
        <ele>201.726710</ele>
        <time>2025-06-25T17:11:55.818Z</time>
      </trkpt>
      <trkpt lat="48.518216" lon="0.579819">
        <ele>200.286277</ele>
        <time>2025-06-25T17:11:59.065Z</time>
      </trkpt>
      <trkpt lat="48.518448" lon="0.578265">
        <ele>195.994385</ele>
        <time>2025-06-25T17:12:08.983Z</time>
      </trkpt>
      <trkpt lat="48.519034" lon="0.573429">
        <ele>192.034757</ele>
        <time>2025-06-25T17:12:48.449Z</time>
      </trkpt>
      <trkpt lat="48.519073" lon="0.572528">
        <ele>191.701378</ele>
        <time>2025-06-25T17:12:59.369Z</time>
      </trkpt>
      <trkpt lat="48.519065" lon="0.571620">
        <ele>191.075035</ele>
        <time>2025-06-25T17:13:08.250Z</time>
      </trkpt>
      <trkpt lat="48.519035" lon="0.571200">
        <ele>190.783663</ele>
        <time>2025-06-25T17:13:11.763Z</time>
      </trkpt>
      <trkpt lat="48.518873" lon="0.570054">
        <ele>189.975415</ele>
        <time>2025-06-25T17:13:20.330Z</time>
      </trkpt>
      <trkpt lat="48.518577" lon="0.568637">
        <ele>188.514792</ele>
        <time>2025-06-25T17:13:31.111Z</time>
      </trkpt>
      <trkpt lat="48.518562" lon="0.568269">
        <ele>188.138948</ele>
        <time>2025-06-25T17:13:34.220Z</time>
      </trkpt>
      <trkpt lat="48.518579" lon="0.568099">
        <ele>187.963689</ele>
        <time>2025-06-25T17:13:35.655Z</time>
      </trkpt>
      <trkpt lat="48.518674" lon="0.567701">
        <ele>187.532435</ele>
        <time>2025-06-25T17:13:39.053Z</time>
      </trkpt>
      <trkpt lat="48.518939" lon="0.567345">
        <ele>186.983996</ele>
        <time>2025-06-25T17:13:43.202Z</time>
      </trkpt>
      <trkpt lat="48.519052" lon="0.567209">
        <ele>186.756388</ele>
        <time>2025-06-25T17:13:44.850Z</time>
      </trkpt>
      <trkpt lat="48.519179" lon="0.566980">
        <ele>186.444805</ele>
        <time>2025-06-25T17:13:47.098Z</time>
      </trkpt>
      <trkpt lat="48.519488" lon="0.566326">
        <ele>185.606741</ele>
        <time>2025-06-25T17:13:53.028Z</time>
      </trkpt>
      <trkpt lat="48.519663" lon="0.565811">
        <ele>185.002903</ele>
        <time>2025-06-25T17:13:57.154Z</time>
      </trkpt>
      <trkpt lat="48.519775" lon="0.565364">
        <ele>184.504332</ele>
        <time>2025-06-25T17:14:00.589Z</time>
      </trkpt>
      <trkpt lat="48.519857" lon="0.564921">
        <ele>184.528022</ele>
        <time>2025-06-25T17:14:04.246Z</time>
      </trkpt>
      <trkpt lat="48.519952" lon="0.563997">
        <ele>185.624604</ele>
        <time>2025-06-25T17:14:14.529Z</time>
      </trkpt>
      <trkpt lat="48.520110" lon="0.562054">
        <ele>188.724391</ele>
        <time>2025-06-25T17:14:50.258Z</time>
      </trkpt>
      <trkpt lat="48.520391" lon="0.558809">
        <ele>199.931348</ele>
        <time>2025-06-25T17:16:07.494Z</time>
      </trkpt>
      <trkpt lat="48.520441" lon="0.558307">
        <ele>201.991109</ele>
        <time>2025-06-25T17:16:20.562Z</time>
      </trkpt>
      <trkpt lat="48.520527" lon="0.557787">
        <ele>204.165779</ele>
        <time>2025-06-25T17:16:34.941Z</time>
      </trkpt>
      <trkpt lat="48.520815" lon="0.556796">
        <ele>208.803921</ele>
        <time>2025-06-25T17:17:05.942Z</time>
      </trkpt>
      <trkpt lat="48.520984" lon="0.556389">
        <ele>211.072382</ele>
        <time>2025-06-25T17:17:20.214Z</time>
      </trkpt>
      <trkpt lat="48.521103" lon="0.556132">
        <ele>212.553184</ele>
        <time>2025-06-25T17:17:29.808Z</time>
      </trkpt>
      <trkpt lat="48.521907" lon="0.554685">
        <ele>220.955089</ele>
        <time>2025-06-25T17:18:24.196Z</time>
      </trkpt>
      <trkpt lat="48.521999" lon="0.554381">
        <ele>222.023182</ele>
        <time>2025-06-25T17:18:32.596Z</time>
      </trkpt>
      <trkpt lat="48.522076" lon="0.553956">
        <ele>223.431239</ele>
        <time>2025-06-25T17:18:43.142Z</time>
      </trkpt>
      <trkpt lat="48.522110" lon="0.553599">
        <ele>224.583827</ele>
        <time>2025-06-25T17:18:51.210Z</time>
      </trkpt>
      <trkpt lat="48.522201" lon="0.552685">
        <ele>227.537480</ele>
        <time>2025-06-25T17:19:10.274Z</time>
      </trkpt>
      <trkpt lat="48.522288" lon="0.552137">
        <ele>229.134827</ele>
        <time>2025-06-25T17:19:20.375Z</time>
      </trkpt>
      <trkpt lat="48.522315" lon="0.551951">
        <ele>229.586154</ele>
        <time>2025-06-25T17:19:23.507Z</time>
      </trkpt>
      <trkpt lat="48.522395" lon="0.551404">
        <ele>230.913902</ele>
        <time>2025-06-25T17:19:32.563Z</time>
      </trkpt>
      <trkpt lat="48.522567" lon="0.550446">
        <ele>233.266525</ele>
        <time>2025-06-25T17:19:50.924Z</time>
      </trkpt>
      <trkpt lat="48.522674" lon="0.550049">
        <ele>234.282428</ele>
        <time>2025-06-25T17:20:00.174Z</time>
      </trkpt>
      <trkpt lat="48.522685" lon="0.549918">
        <ele>234.595411</ele>
        <time>2025-06-25T17:20:03.056Z</time>
      </trkpt>
      <trkpt lat="48.522586" lon="0.549753">
        <ele>235.180230</ele>
        <time>2025-06-25T17:20:08.125Z</time>
      </trkpt>
      <trkpt lat="48.522359" lon="0.549514">
        <ele>236.586857</ele>
        <time>2025-06-25T17:20:17.636Z</time>
      </trkpt>
      <trkpt lat="48.522213" lon="0.549220">
        <ele>237.823906</ele>
        <time>2025-06-25T17:20:26.149Z</time>
      </trkpt>
      <trkpt lat="48.521952" lon="0.548498">
        <ele>240.592976</ele>
        <time>2025-06-25T17:20:46.339Z</time>
      </trkpt>
      <trkpt lat="48.522241" lon="0.548148">
        <ele>242.476079</ele>
        <time>2025-06-25T17:21:02.307Z</time>
      </trkpt>
      <trkpt lat="48.522604" lon="0.547601">
        <ele>244.906030</ele>
        <time>2025-06-25T17:21:22.867Z</time>
      </trkpt>
      <trkpt lat="48.522503" lon="0.547349">
        <ele>245.713740</ele>
        <time>2025-06-25T17:21:30.022Z</time>
      </trkpt>
      <trkpt lat="48.522448" lon="0.547132">
        <ele>246.350883</ele>
        <time>2025-06-25T17:21:35.364Z</time>
      </trkpt>
      <trkpt lat="48.522448" lon="0.546919">
        <ele>246.934975</ele>
        <time>2025-06-25T17:21:40.395Z</time>
      </trkpt>
      <trkpt lat="48.522517" lon="0.546845">
        <ele>247.285389</ele>
        <time>2025-06-25T17:21:43.484Z</time>
      </trkpt>
      <trkpt lat="48.522262" lon="0.546501">
        <ele>248.701196</ele>
        <time>2025-06-25T17:21:56.583Z</time>
      </trkpt>
      <trkpt lat="48.521856" lon="0.545829">
        <ele>251.195479</ele>
        <time>2025-06-25T17:22:15.719Z</time>
      </trkpt>
      <trkpt lat="48.521779" lon="0.545685">
        <ele>251.596777</ele>
        <time>2025-06-25T17:22:19.109Z</time>
      </trkpt>
      <trkpt lat="48.521611" lon="0.545378">
        <ele>251.773831</ele>
        <time>2025-06-25T17:22:27.576Z</time>
      </trkpt>
      <trkpt lat="48.521563" lon="0.545290">
        <ele>251.824516</ele>
        <time>2025-06-25T17:22:29.886Z</time>
      </trkpt>
      <trkpt lat="48.521300" lon="0.544857">
        <ele>252.085722</ele>
        <time>2025-06-25T17:22:40.684Z</time>
      </trkpt>
      <trkpt lat="48.521120" lon="0.544418">
        <ele>252.315277</ele>
        <time>2025-06-25T17:22:49.094Z</time>
      </trkpt>
      <trkpt lat="48.521279" lon="0.544199">
        <ele>252.459750</ele>
        <time>2025-06-25T17:22:52.282Z</time>
      </trkpt>
      <trkpt lat="48.521195" lon="0.543995">
        <ele>252.566548</ele>
        <time>2025-06-25T17:22:54.208Z</time>
      </trkpt>
      <trkpt lat="48.521122" lon="0.543876">
        <ele>252.638662</ele>
        <time>2025-06-25T17:22:55.412Z</time>
      </trkpt>
      <trkpt lat="48.520604" lon="0.543131">
        <ele>250.642317</ele>
        <time>2025-06-25T17:23:02.823Z</time>
      </trkpt>
      <trkpt lat="48.520479" lon="0.542933">
        <ele>249.865669</ele>
        <time>2025-06-25T17:23:04.600Z</time>
      </trkpt>
      <trkpt lat="48.519597" lon="0.541767">
        <ele>244.682398</ele>
        <time>2025-06-25T17:23:15.684Z</time>
      </trkpt>
      <trkpt lat="48.519363" lon="0.541540">
        <ele>242.683303</ele>
        <time>2025-06-25T17:23:18.191Z</time>
      </trkpt>
      <trkpt lat="48.519184" lon="0.541528">
        <ele>241.395507</ele>
        <time>2025-06-25T17:23:19.792Z</time>
      </trkpt>
      <trkpt lat="48.518559" lon="0.542017">
        <ele>236.336046</ele>
        <time>2025-06-25T17:23:26.039Z</time>
      </trkpt>
      <trkpt lat="48.518319" lon="0.542103">
        <ele>234.563169</ele>
        <time>2025-06-25T17:23:28.212Z</time>
      </trkpt>
      <trkpt lat="48.517901" lon="0.542069">
        <ele>231.667833</ele>
        <time>2025-06-25T17:23:31.902Z</time>
      </trkpt>
      <trkpt lat="48.517771" lon="0.542013">
        <ele>230.882380</ele>
        <time>2025-06-25T17:23:33.106Z</time>
      </trkpt>
      <trkpt lat="48.517060" lon="0.541704">
        <ele>226.583667</ele>
        <time>2025-06-25T17:23:39.863Z</time>
      </trkpt>
      <trkpt lat="48.514930" lon="0.540767">
        <ele>215.279645</ele>
        <time>2025-06-25T17:24:01.021Z</time>
      </trkpt>
      <trkpt lat="48.514667" lon="0.540666">
        <ele>214.015454</ele>
        <time>2025-06-25T17:24:03.608Z</time>
      </trkpt>
      <trkpt lat="48.513924" lon="0.540475">
        <ele>210.621002</ele>
        <time>2025-06-25T17:24:10.773Z</time>
      </trkpt>
      <trkpt lat="48.513647" lon="0.540421">
        <ele>209.373839</ele>
        <time>2025-06-25T17:24:13.456Z</time>
      </trkpt>
      <trkpt lat="48.512836" lon="0.540248">
        <ele>205.716491</ele>
        <time>2025-06-25T17:24:21.329Z</time>
      </trkpt>
      <trkpt lat="48.512749" lon="0.540230">
        <ele>205.324377</ele>
        <time>2025-06-25T17:24:22.181Z</time>
      </trkpt>
      <trkpt lat="48.511835" lon="0.539998">
        <ele>201.809757</ele>
        <time>2025-06-25T17:24:31.261Z</time>
      </trkpt>
      <trkpt lat="48.511423" lon="0.539802">
        <ele>200.174443</ele>
        <time>2025-06-25T17:24:35.528Z</time>
      </trkpt>
      <trkpt lat="48.511224" lon="0.539653">
        <ele>199.333512</ele>
        <time>2025-06-25T17:24:37.742Z</time>
      </trkpt>
      <trkpt lat="48.510790" lon="0.539151">
        <ele>197.194931</ele>
        <time>2025-06-25T17:24:43.247Z</time>
      </trkpt>
      <trkpt lat="48.510593" lon="0.538771">
        <ele>195.916235</ele>
        <time>2025-06-25T17:24:46.472Z</time>
      </trkpt>
      <trkpt lat="48.510156" lon="0.537688">
        <ele>192.555783</ele>
        <time>2025-06-25T17:24:54.694Z</time>
      </trkpt>
      <trkpt lat="48.509124" lon="0.535075">
        <ele>183.288320</ele>
        <time>2025-06-25T17:25:13.672Z</time>
      </trkpt>
      <trkpt lat="48.509091" lon="0.534987">
        <ele>182.972741</ele>
        <time>2025-06-25T17:25:14.312Z</time>
      </trkpt>
      <trkpt lat="48.509014" lon="0.534780">
        <ele>182.447890</ele>
        <time>2025-06-25T17:25:15.844Z</time>
      </trkpt>
      <trkpt lat="48.507207" lon="0.530233">
        <ele>172.826091</ele>
        <time>2025-06-25T17:25:52.675Z</time>
      </trkpt>
      <trkpt lat="48.507027" lon="0.529616">
        <ele>172.091083</ele>
        <time>2025-06-25T17:25:57.497Z</time>
      </trkpt>
      <trkpt lat="48.507068" lon="0.529425">
        <ele>171.872189</ele>
        <time>2025-06-25T17:25:58.973Z</time>
      </trkpt>
      <trkpt lat="48.507056" lon="0.529348">
        <ele>171.785949</ele>
        <time>2025-06-25T17:25:59.568Z</time>
      </trkpt>
      <trkpt lat="48.506988" lon="0.529227">
        <ele>171.612962</ele>
        <time>2025-06-25T17:26:00.737Z</time>
      </trkpt>
      <trkpt lat="48.506890" lon="0.529188">
        <ele>171.446183</ele>
        <time>2025-06-25T17:26:01.887Z</time>
      </trkpt>
      <trkpt lat="48.506839" lon="0.529204">
        <ele>171.360465</ele>
        <time>2025-06-25T17:26:02.466Z</time>
      </trkpt>
      <trkpt lat="48.506577" lon="0.528981">
        <ele>170.865495</ele>
        <time>2025-06-25T17:26:05.912Z</time>
      </trkpt>
      <trkpt lat="48.506217" lon="0.528442">
        <ele>170.031059</ele>
        <time>2025-06-25T17:26:11.945Z</time>
      </trkpt>
      <trkpt lat="48.505111" lon="0.526811">
        <ele>169.463974</ele>
        <time>2025-06-25T17:26:32.611Z</time>
      </trkpt>
      <trkpt lat="48.504856" lon="0.526435">
        <ele>169.405264</ele>
        <time>2025-06-25T17:26:38.382Z</time>
      </trkpt>
      <trkpt lat="48.504826" lon="0.525938">
        <ele>169.718943</ele>
        <time>2025-06-25T17:26:44.045Z</time>
      </trkpt>
      <trkpt lat="48.505700" lon="0.524453">
        <ele>170.967401</ele>
        <time>2025-06-25T17:27:09.504Z</time>
      </trkpt>
      <trkpt lat="48.505824" lon="0.524138">
        <ele>171.269852</ele>
        <time>2025-06-25T17:27:14.274Z</time>
      </trkpt>
      <trkpt lat="48.505909" lon="0.523690">
        <ele>171.730576</ele>
        <time>2025-06-25T17:27:20.436Z</time>
      </trkpt>
      <trkpt lat="48.505972" lon="0.523076">
        <ele>172.344851</ele>
        <time>2025-06-25T17:27:28.827Z</time>
      </trkpt>
      <trkpt lat="48.505999" lon="0.522236">
        <ele>173.176303</ele>
        <time>2025-06-25T17:27:40.328Z</time>
      </trkpt>
      <trkpt lat="48.505892" lon="0.520139">
        <ele>176.324133</ele>
        <time>2025-06-25T17:28:11.531Z</time>
      </trkpt>
      <trkpt lat="48.505773" lon="0.519349">
        <ele>177.695685</ele>
        <time>2025-06-25T17:28:26.342Z</time>
      </trkpt>
      <trkpt lat="48.505340" lon="0.517642">
        <ele>181.333742</ele>
        <time>2025-06-25T17:29:02.713Z</time>
      </trkpt>
      <trkpt lat="48.504428" lon="0.513826">
        <ele>187.992494</ele>
        <time>2025-06-25T17:30:08.944Z</time>
      </trkpt>
      <trkpt lat="48.504402" lon="0.513714">
        <ele>188.055632</ele>
        <time>2025-06-25T17:30:10.268Z</time>
      </trkpt>
      <trkpt lat="48.504138" lon="0.512492">
        <ele>188.739449</ele>
        <time>2025-06-25T17:30:23.420Z</time>
      </trkpt>
      <trkpt lat="48.503938" lon="0.511247">
        <ele>189.411768</ele>
        <time>2025-06-25T17:30:37.999Z</time>
      </trkpt>
      <trkpt lat="48.503596" lon="0.510032">
        <ele>189.793037</ele>
        <time>2025-06-25T17:30:56.451Z</time>
      </trkpt>
      <trkpt lat="48.503410" lon="0.509161">
        <ele>190.057343</ele>
        <time>2025-06-25T17:31:07.228Z</time>
      </trkpt>
      <trkpt lat="48.503109" lon="0.508189">
        <ele>188.264718</ele>
        <time>2025-06-25T17:31:15.433Z</time>
      </trkpt>
      <trkpt lat="48.503058" lon="0.507856">
        <ele>187.225518</ele>
        <time>2025-06-25T17:31:17.669Z</time>
      </trkpt>
      <trkpt lat="48.503016" lon="0.507226">
        <ele>185.300297</ele>
        <time>2025-06-25T17:31:21.576Z</time>
      </trkpt>
      <trkpt lat="48.502890" lon="0.506581">
        <ele>183.255676</ele>
        <time>2025-06-25T17:31:25.589Z</time>
      </trkpt>
      <trkpt lat="48.502739" lon="0.506142">
        <ele>181.846290</ele>
        <time>2025-06-25T17:31:28.530Z</time>
      </trkpt>
      <trkpt lat="48.502519" lon="0.505636">
        <ele>180.977125</ele>
        <time>2025-06-25T17:31:32.174Z</time>
      </trkpt>
      <trkpt lat="48.502347" lon="0.505381">
        <ele>180.454539</ele>
        <time>2025-06-25T17:31:34.427Z</time>
      </trkpt>
      <trkpt lat="48.502239" lon="0.505264">
        <ele>180.166389</ele>
        <time>2025-06-25T17:31:35.722Z</time>
      </trkpt>
      <trkpt lat="48.502087" lon="0.505158">
        <ele>179.803464</ele>
        <time>2025-06-25T17:31:37.420Z</time>
      </trkpt>
      <trkpt lat="48.501787" lon="0.505073">
        <ele>179.141864</ele>
        <time>2025-06-25T17:31:41.064Z</time>
      </trkpt>
      <trkpt lat="48.501337" lon="0.505038">
        <ele>178.165210</ele>
        <time>2025-06-25T17:31:51.060Z</time>
      </trkpt>
      <trkpt lat="48.501057" lon="0.504863">
        <ele>179.150480</ele>
        <time>2025-06-25T17:32:00.836Z</time>
      </trkpt>
      <trkpt lat="48.500836" lon="0.504581">
        <ele>180.488631</ele>
        <time>2025-06-25T17:32:11.368Z</time>
      </trkpt>
      <trkpt lat="48.500613" lon="0.504085">
        <ele>182.325054</ele>
        <time>2025-06-25T17:32:26.556Z</time>
      </trkpt>
      <trkpt lat="48.500410" lon="0.503497">
        <ele>184.356418</ele>
        <time>2025-06-25T17:32:43.078Z</time>
      </trkpt>
      <trkpt lat="48.500182" lon="0.502516">
        <ele>187.055165</ele>
        <time>2025-06-25T17:33:05.609Z</time>
      </trkpt>
      <trkpt lat="48.499867" lon="0.501584">
        <ele>188.953344</ele>
        <time>2025-06-25T17:33:23.285Z</time>
      </trkpt>
      <trkpt lat="48.499710" lon="0.500975">
        <ele>190.138930</ele>
        <time>2025-06-25T17:33:32.999Z</time>
      </trkpt>
      <trkpt lat="48.498807" lon="0.497838">
        <ele>195.734314</ele>
        <time>2025-06-25T17:34:25.360Z</time>
      </trkpt>
      <trkpt lat="48.498636" lon="0.497129">
        <ele>198.171624</ele>
        <time>2025-06-25T17:34:41.367Z</time>
      </trkpt>
      <trkpt lat="48.498482" lon="0.496646">
        <ele>199.903111</ele>
        <time>2025-06-25T17:34:53.880Z</time>
      </trkpt>
      <trkpt lat="48.498243" lon="0.496017">
        <ele>202.245363</ele>
        <time>2025-06-25T17:35:12.172Z</time>
      </trkpt>
      <trkpt lat="48.497509" lon="0.494684">
        <ele>207.774979</ele>
        <time>2025-06-25T17:35:55.719Z</time>
      </trkpt>
      <trkpt lat="48.497217" lon="0.494336">
        <ele>209.554007</ele>
        <time>2025-06-25T17:36:08.369Z</time>
      </trkpt>
      <trkpt lat="48.495686" lon="0.493061">
        <ele>215.561216</ele>
        <time>2025-06-25T17:37:00.246Z</time>
      </trkpt>
      <trkpt lat="48.495438" lon="0.492844">
        <ele>216.295799</ele>
        <time>2025-06-25T17:37:06.864Z</time>
      </trkpt>
      <trkpt lat="48.494669" lon="0.492346">
        <ele>217.545000</ele>
        <time>2025-06-25T17:37:21.047Z</time>
      </trkpt>
      <trkpt lat="48.494405" lon="0.492228">
        <ele>217.611408</ele>
        <time>2025-06-25T17:37:24.706Z</time>
      </trkpt>
      <trkpt lat="48.493867" lon="0.492095">
        <ele>217.742896</ele>
        <time>2025-06-25T17:37:32.269Z</time>
      </trkpt>
      <trkpt lat="48.493480" lon="0.491945">
        <ele>217.839265</ele>
        <time>2025-06-25T17:37:38.522Z</time>
      </trkpt>
      <trkpt lat="48.493227" lon="0.491768">
        <ele>217.916147</ele>
        <time>2025-06-25T17:37:43.472Z</time>
      </trkpt>
      <trkpt lat="48.492426" lon="0.491064">
        <ele>218.243548</ele>
        <time>2025-06-25T17:38:01.138Z</time>
      </trkpt>
      <trkpt lat="48.490583" lon="0.489858">
        <ele>217.798934</ele>
        <time>2025-06-25T17:38:28.617Z</time>
      </trkpt>
      <trkpt lat="48.490140" lon="0.489540">
        <ele>217.509282</ele>
        <time>2025-06-25T17:38:34.579Z</time>
      </trkpt>
      <trkpt lat="48.489758" lon="0.489220">
        <ele>217.061420</ele>
        <time>2025-06-25T17:38:39.850Z</time>
      </trkpt>
      <trkpt lat="48.486527" lon="0.485502">
        <ele>212.593868</ele>
        <time>2025-06-25T17:39:28.568Z</time>
      </trkpt>
      <trkpt lat="48.484622" lon="0.483422">
        <ele>210.558315</ele>
        <time>2025-06-25T17:39:58.464Z</time>
      </trkpt>
      <trkpt lat="48.484239" lon="0.482906">
        <ele>210.123397</ele>
        <time>2025-06-25T17:40:04.638Z</time>
      </trkpt>
      <trkpt lat="48.484041" lon="0.482569">
        <ele>209.839761</ele>
        <time>2025-06-25T17:40:08.203Z</time>
      </trkpt>
      <trkpt lat="48.483459" lon="0.481698">
        <ele>209.060794</ele>
        <time>2025-06-25T17:40:18.262Z</time>
      </trkpt>
      <trkpt lat="48.483205" lon="0.481249">
        <ele>208.689003</ele>
        <time>2025-06-25T17:40:23.239Z</time>
      </trkpt>
      <trkpt lat="48.482887" lon="0.480455">
        <ele>207.885898</ele>
        <time>2025-06-25T17:40:31.025Z</time>
      </trkpt>
      <trkpt lat="48.482364" lon="0.479154">
        <ele>206.391421</ele>
        <time>2025-06-25T17:40:42.765Z</time>
      </trkpt>
      <trkpt lat="48.481679" lon="0.477621">
        <ele>204.092515</ele>
        <time>2025-06-25T17:40:55.839Z</time>
      </trkpt>
      <trkpt lat="48.481505" lon="0.477441">
        <ele>203.659581</ele>
        <time>2025-06-25T17:40:58.081Z</time>
      </trkpt>
      <trkpt lat="48.480650" lon="0.476770">
        <ele>201.976104</ele>
        <time>2025-06-25T17:41:08.785Z</time>
      </trkpt>
      <trkpt lat="48.480090" lon="0.476283">
        <ele>201.501986</ele>
        <time>2025-06-25T17:41:16.702Z</time>
      </trkpt>
      <trkpt lat="48.479707" lon="0.476002">
        <ele>201.189596</ele>
        <time>2025-06-25T17:41:22.454Z</time>
      </trkpt>
      <trkpt lat="48.479332" lon="0.475808">
        <ele>200.898812</ele>
        <time>2025-06-25T17:41:28.367Z</time>
      </trkpt>
      <trkpt lat="48.478284" lon="0.475387">
        <ele>200.357012</ele>
        <time>2025-06-25T17:41:44.381Z</time>
      </trkpt>
      <trkpt lat="48.478147" lon="0.475308">
        <ele>200.287487</ele>
        <time>2025-06-25T17:41:46.332Z</time>
      </trkpt>
      <trkpt lat="48.477948" lon="0.475123">
        <ele>200.176682</ele>
        <time>2025-06-25T17:41:49.288Z</time>
      </trkpt>
      <trkpt lat="48.477797" lon="0.474850">
        <ele>200.064956</ele>
        <time>2025-06-25T17:41:52.159Z</time>
      </trkpt>
      <trkpt lat="48.477718" lon="0.474530">
        <ele>199.965089</ele>
        <time>2025-06-25T17:41:54.838Z</time>
      </trkpt>
      <trkpt lat="48.477636" lon="0.473632">
        <ele>199.887404</ele>
        <time>2025-06-25T17:42:01.868Z</time>
      </trkpt>
      <trkpt lat="48.477551" lon="0.473389">
        <ele>199.863857</ele>
        <time>2025-06-25T17:42:04.126Z</time>
      </trkpt>
      <trkpt lat="48.477421" lon="0.473178">
        <ele>199.839171</ele>
        <time>2025-06-25T17:42:06.788Z</time>
      </trkpt>
      <trkpt lat="48.477000" lon="0.472631">
        <ele>199.767339</ele>
        <time>2025-06-25T17:42:16.607Z</time>
      </trkpt>
      <trkpt lat="48.476808" lon="0.472243">
        <ele>199.749562</ele>
        <time>2025-06-25T17:42:22.829Z</time>
      </trkpt>
      <trkpt lat="48.476568" lon="0.471647">
        <ele>199.838881</ele>
        <time>2025-06-25T17:42:32.173Z</time>
      </trkpt>
      <trkpt lat="48.476124" lon="0.470339">
        <ele>200.027102</ele>
        <time>2025-06-25T17:42:49.138Z</time>
      </trkpt>
      <trkpt lat="48.476011" lon="0.469945">
        <ele>200.082088</ele>
        <time>2025-06-25T17:42:52.373Z</time>
      </trkpt>
      <trkpt lat="48.475922" lon="0.469408">
        <ele>199.093296</ele>
        <time>2025-06-25T17:42:56.319Z</time>
      </trkpt>
      <trkpt lat="48.475762" lon="0.468752">
        <ele>197.829733</ele>
        <time>2025-06-25T17:43:01.087Z</time>
      </trkpt>
      <trkpt lat="48.475650" lon="0.468358">
        <ele>197.054781</ele>
        <time>2025-06-25T17:43:03.917Z</time>
      </trkpt>
      <trkpt lat="48.475635" lon="0.468206">
        <ele>196.776982</ele>
        <time>2025-06-25T17:43:04.937Z</time>
      </trkpt>
      <trkpt lat="48.475724" lon="0.467524">
        <ele>195.520468</ele>
        <time>2025-06-25T17:43:09.586Z</time>
      </trkpt>
      <trkpt lat="48.475739" lon="0.466951">
        <ele>194.159501</ele>
        <time>2025-06-25T17:43:13.521Z</time>
      </trkpt>
      <trkpt lat="48.475721" lon="0.466663">
        <ele>193.392344</ele>
        <time>2025-06-25T17:43:15.537Z</time>
      </trkpt>
      <trkpt lat="48.475647" lon="0.466196">
        <ele>192.118981</ele>
        <time>2025-06-25T17:43:18.737Z</time>
      </trkpt>
      <trkpt lat="48.475932" lon="0.465864">
        <ele>190.678484</ele>
        <time>2025-06-25T17:43:22.252Z</time>
      </trkpt>
      <trkpt lat="48.476052" lon="0.465762">
        <ele>190.127476</ele>
        <time>2025-06-25T17:43:23.582Z</time>
      </trkpt>
      <trkpt lat="48.476225" lon="0.465676">
        <ele>189.398804</ele>
        <time>2025-06-25T17:43:25.338Z</time>
      </trkpt>
      <trkpt lat="48.476441" lon="0.465575">
        <ele>188.494167</ele>
        <time>2025-06-25T17:43:27.471Z</time>
      </trkpt>
      <trkpt lat="48.476677" lon="0.465413">
        <ele>187.370139</ele>
        <time>2025-06-25T17:43:29.875Z</time>
      </trkpt>
      <trkpt lat="48.477573" lon="0.464555">
        <ele>182.424339</ele>
        <time>2025-06-25T17:43:39.682Z</time>
      </trkpt>
      <trkpt lat="48.478139" lon="0.464075">
        <ele>179.523905</ele>
        <time>2025-06-25T17:43:46.177Z</time>
      </trkpt>
      <trkpt lat="48.478746" lon="0.463706">
        <ele>178.362319</ele>
        <time>2025-06-25T17:43:53.308Z</time>
      </trkpt>
      <trkpt lat="48.478991" lon="0.463602">
        <ele>177.910568</ele>
        <time>2025-06-25T17:43:56.307Z</time>
      </trkpt>
      <trkpt lat="48.479576" lon="0.463477">
        <ele>176.861858</ele>
        <time>2025-06-25T17:44:03.474Z</time>
      </trkpt>
      <trkpt lat="48.479586" lon="0.462962">
        <ele>176.285699</ele>
        <time>2025-06-25T17:44:07.539Z</time>
      </trkpt>
      <trkpt lat="48.479530" lon="0.462110">
        <ele>175.476220</ele>
        <time>2025-06-25T17:44:14.099Z</time>
      </trkpt>
      <trkpt lat="48.479295" lon="0.460732">
        <ele>174.130954</ele>
        <time>2025-06-25T17:44:24.897Z</time>
      </trkpt>
      <trkpt lat="48.479158" lon="0.460257">
        <ele>173.769129</ele>
        <time>2025-06-25T17:44:28.827Z</time>
      </trkpt>
      <trkpt lat="48.478914" lon="0.459624">
        <ele>173.515178</ele>
        <time>2025-06-25T17:44:34.671Z</time>
      </trkpt>
      <trkpt lat="48.478243" lon="0.458631">
        <ele>173.023402</ele>
        <time>2025-06-25T17:44:47.920Z</time>
      </trkpt>
      <trkpt lat="48.478054" lon="0.458330">
        <ele>172.890166</ele>
        <time>2025-06-25T17:44:52.287Z</time>
      </trkpt>
      <trkpt lat="48.477935" lon="0.458079">
        <ele>172.833082</ele>
        <time>2025-06-25T17:44:55.505Z</time>
      </trkpt>
      <trkpt lat="48.477744" lon="0.457543">
        <ele>172.720511</ele>
        <time>2025-06-25T17:45:01.649Z</time>
      </trkpt>
      <trkpt lat="48.477661" lon="0.456968">
        <ele>172.611650</ele>
        <time>2025-06-25T17:45:07.336Z</time>
      </trkpt>
      <trkpt lat="48.477892" lon="0.455133">
        <ele>172.271528</ele>
        <time>2025-06-25T17:45:23.222Z</time>
      </trkpt>
      <trkpt lat="48.478184" lon="0.453913">
        <ele>172.041237</ele>
        <time>2025-06-25T17:45:34.020Z</time>
      </trkpt>
      <trkpt lat="48.478299" lon="0.453142">
        <ele>172.118938</ele>
        <time>2025-06-25T17:45:42.164Z</time>
      </trkpt>
      <trkpt lat="48.478370" lon="0.452418">
        <ele>173.593619</ele>
        <time>2025-06-25T17:45:53.220Z</time>
      </trkpt>
      <trkpt lat="48.478373" lon="0.452151">
        <ele>174.131681</ele>
        <time>2025-06-25T17:45:58.176Z</time>
      </trkpt>
      <trkpt lat="48.478306" lon="0.451691">
        <ele>175.080655</ele>
        <time>2025-06-25T17:46:07.507Z</time>
      </trkpt>
      <trkpt lat="48.477913" lon="0.450599">
        <ele>177.557316</ele>
        <time>2025-06-25T17:46:33.674Z</time>
      </trkpt>
      <trkpt lat="48.477582" lon="0.449930">
        <ele>179.010844</ele>
        <time>2025-06-25T17:46:51.056Z</time>
      </trkpt>
      <trkpt lat="48.477452" lon="0.449748">
        <ele>179.476695</ele>
        <time>2025-06-25T17:46:56.079Z</time>
      </trkpt>
      <trkpt lat="48.476734" lon="0.448974">
        <ele>181.794638</ele>
        <time>2025-06-25T17:47:16.286Z</time>
      </trkpt>
      <trkpt lat="48.476100" lon="0.448042">
        <ele>181.236735</ele>
        <time>2025-06-25T17:47:30.483Z</time>
      </trkpt>
      <trkpt lat="48.475608" lon="0.447071">
        <ele>180.312226</ele>
        <time>2025-06-25T17:47:39.389Z</time>
      </trkpt>
      <trkpt lat="48.475341" lon="0.446435">
        <ele>179.325827</ele>
        <time>2025-06-25T17:47:44.407Z</time>
      </trkpt>
      <trkpt lat="48.475026" lon="0.445387">
        <ele>177.302367</ele>
        <time>2025-06-25T17:47:52.052Z</time>
      </trkpt>
      <trkpt lat="48.474822" lon="0.444761">
        <ele>176.075744</ele>
        <time>2025-06-25T17:47:56.877Z</time>
      </trkpt>
      <trkpt lat="48.474716" lon="0.444520">
        <ele>175.567157</ele>
        <time>2025-06-25T17:47:58.945Z</time>
      </trkpt>
      <trkpt lat="48.473748" lon="0.443169">
        <ele>174.278855</ele>
        <time>2025-06-25T17:48:15.569Z</time>
      </trkpt>
      <trkpt lat="48.473231" lon="0.442291">
        <ele>173.624651</ele>
        <time>2025-06-25T17:48:26.427Z</time>
      </trkpt>
      <trkpt lat="48.473075" lon="0.441914">
        <ele>173.368522</ele>
        <time>2025-06-25T17:48:30.239Z</time>
      </trkpt>
      <trkpt lat="48.472898" lon="0.441197">
        <ele>172.927567</ele>
        <time>2025-06-25T17:48:36.400Z</time>
      </trkpt>
      <trkpt lat="48.472810" lon="0.440269">
        <ele>172.387276</ele>
        <time>2025-06-25T17:48:43.655Z</time>
      </trkpt>
      <trkpt lat="48.472754" lon="0.439944">
        <ele>172.257159</ele>
        <time>2025-06-25T17:48:46.331Z</time>
      </trkpt>
      <trkpt lat="48.472619" lon="0.439459">
        <ele>172.503508</ele>
        <time>2025-06-25T17:48:50.696Z</time>
      </trkpt>
      <trkpt lat="48.471989" lon="0.438055">
        <ele>173.297500</ele>
        <time>2025-06-25T17:49:10.305Z</time>
      </trkpt>
      <trkpt lat="48.471869" lon="0.437722">
        <ele>173.475006</ele>
        <time>2025-06-25T17:49:16.344Z</time>
      </trkpt>
      <trkpt lat="48.471761" lon="0.437323">
        <ele>174.445293</ele>
        <time>2025-06-25T17:49:23.726Z</time>
      </trkpt>
      <trkpt lat="48.471705" lon="0.437116">
        <ele>175.003199</ele>
        <time>2025-06-25T17:49:27.923Z</time>
      </trkpt>
      <trkpt lat="48.471543" lon="0.436169">
        <ele>177.443787</ele>
        <time>2025-06-25T17:49:48.858Z</time>
      </trkpt>
      <trkpt lat="48.471474" lon="0.435911">
        <ele>178.138023</ele>
        <time>2025-06-25T17:49:55.164Z</time>
      </trkpt>
      <trkpt lat="48.471218" lon="0.435271">
        <ele>180.003277</ele>
        <time>2025-06-25T17:50:11.746Z</time>
      </trkpt>
      <trkpt lat="48.471066" lon="0.434661">
        <ele>180.637292</ele>
        <time>2025-06-25T17:50:24.407Z</time>
      </trkpt>
      <trkpt lat="48.470875" lon="0.434040">
        <ele>181.099506</ele>
        <time>2025-06-25T17:50:35.633Z</time>
      </trkpt>
      <trkpt lat="48.469852" lon="0.431697">
        <ele>180.454114</ele>
        <time>2025-06-25T17:50:58.624Z</time>
      </trkpt>
      <trkpt lat="48.469722" lon="0.431320">
        <ele>179.924820</ele>
        <time>2025-06-25T17:51:01.585Z</time>
      </trkpt>
      <trkpt lat="48.469212" lon="0.429593">
        <ele>177.307617</ele>
        <time>2025-06-25T17:51:14.500Z</time>
      </trkpt>
      <trkpt lat="48.468528" lon="0.427719">
        <ele>174.432685</ele>
        <time>2025-06-25T17:51:29.961Z</time>
      </trkpt>
      <trkpt lat="48.468465" lon="0.427324">
        <ele>174.269956</ele>
        <time>2025-06-25T17:51:33.115Z</time>
      </trkpt>
      <trkpt lat="48.468471" lon="0.427000">
        <ele>174.140128</ele>
        <time>2025-06-25T17:51:35.710Z</time>
      </trkpt>
      <trkpt lat="48.468665" lon="0.425874">
        <ele>173.674134</ele>
        <time>2025-06-25T17:51:46.036Z</time>
      </trkpt>
      <trkpt lat="48.468675" lon="0.425531">
        <ele>173.536613</ele>
        <time>2025-06-25T17:51:49.891Z</time>
      </trkpt>
      <trkpt lat="48.468648" lon="0.425046">
        <ele>173.859117</ele>
        <time>2025-06-25T17:51:56.052Z</time>
      </trkpt>
      <trkpt lat="48.468570" lon="0.424474">
        <ele>174.459201</ele>
        <time>2025-06-25T17:52:04.147Z</time>
      </trkpt>
      <trkpt lat="48.468362" lon="0.423379">
        <ele>175.629683</ele>
        <time>2025-06-25T17:52:20.824Z</time>
      </trkpt>
      <trkpt lat="48.468143" lon="0.422669">
        <ele>176.446380</ele>
        <time>2025-06-25T17:52:32.626Z</time>
      </trkpt>
      <trkpt lat="48.468085" lon="0.422614">
        <ele>176.560538</ele>
        <time>2025-06-25T17:52:34.171Z</time>
      </trkpt>
      <trkpt lat="48.467982" lon="0.422167">
        <ele>177.083354</ele>
        <time>2025-06-25T17:52:41.093Z</time>
      </trkpt>
      <trkpt lat="48.466281" lon="0.417036">
        <ele>182.097033</ele>
        <time>2025-06-25T17:54:01.560Z</time>
      </trkpt>
      <trkpt lat="48.466139" lon="0.416513">
        <ele>182.104422</ele>
        <time>2025-06-25T17:54:06.444Z</time>
      </trkpt>
      <trkpt lat="48.466117" lon="0.416386">
        <ele>182.106138</ele>
        <time>2025-06-25T17:54:07.591Z</time>
      </trkpt>
      <trkpt lat="48.466069" lon="0.416375">
        <ele>182.107096</ele>
        <time>2025-06-25T17:54:08.156Z</time>
      </trkpt>
      <trkpt lat="48.465673" lon="0.416003">
        <ele>182.116295</ele>
        <time>2025-06-25T17:54:13.671Z</time>
      </trkpt>
      <trkpt lat="48.461520" lon="0.411979">
        <ele>176.195405</ele>
        <time>2025-06-25T17:55:11.928Z</time>
      </trkpt>
      <trkpt lat="48.461357" lon="0.411767">
        <ele>175.955479</ele>
        <time>2025-06-25T17:55:14.550Z</time>
      </trkpt>
      <trkpt lat="48.461176" lon="0.411457">
        <ele>175.650181</ele>
        <time>2025-06-25T17:55:17.960Z</time>
      </trkpt>
      <trkpt lat="48.461017" lon="0.411052">
        <ele>175.497329</ele>
        <time>2025-06-25T17:55:21.978Z</time>
      </trkpt>
      <trkpt lat="48.460777" lon="0.410285">
        <ele>175.388579</ele>
        <time>2025-06-25T17:55:29.720Z</time>
      </trkpt>
      <trkpt lat="48.460662" lon="0.410017">
        <ele>175.347647</ele>
        <time>2025-06-25T17:55:32.882Z</time>
      </trkpt>
      <trkpt lat="48.460543" lon="0.409834">
        <ele>175.314782</ele>
        <time>2025-06-25T17:55:35.533Z</time>
      </trkpt>
      <trkpt lat="48.459133" lon="0.408069">
        <ele>174.426266</ele>
        <time>2025-06-25T17:56:03.079Z</time>
      </trkpt>
      <trkpt lat="48.457797" lon="0.405083">
        <ele>171.270435</ele>
        <time>2025-06-25T17:56:29.607Z</time>
      </trkpt>
      <trkpt lat="48.456630" lon="0.402407">
        <ele>171.276476</ele>
        <time>2025-06-25T17:57:02.631Z</time>
      </trkpt>
      <trkpt lat="48.456282" lon="0.401685">
        <ele>171.443666</ele>
        <time>2025-06-25T17:57:12.930Z</time>
      </trkpt>
      <trkpt lat="48.455943" lon="0.401311">
        <ele>171.562310</ele>
        <time>2025-06-25T17:57:19.869Z</time>
      </trkpt>
      <trkpt lat="48.455588" lon="0.401052">
        <ele>171.673701</ele>
        <time>2025-06-25T17:57:25.995Z</time>
      </trkpt>
      <trkpt lat="48.455306" lon="0.400954">
        <ele>171.669350</ele>
        <time>2025-06-25T17:57:30.202Z</time>
      </trkpt>
      <trkpt lat="48.454592" lon="0.400826">
        <ele>171.568261</ele>
        <time>2025-06-25T17:57:40.080Z</time>
      </trkpt>
      <trkpt lat="48.454397" lon="0.400735">
        <ele>171.539563</ele>
        <time>2025-06-25T17:57:42.854Z</time>
      </trkpt>
      <trkpt lat="48.454307" lon="0.400660">
        <ele>171.525106</ele>
        <time>2025-06-25T17:57:44.252Z</time>
      </trkpt>
      <trkpt lat="48.453868" lon="0.400053">
        <ele>171.454568</ele>
        <time>2025-06-25T17:57:52.665Z</time>
      </trkpt>
      <trkpt lat="48.452183" lon="0.397346">
        <ele>172.202241</ele>
        <time>2025-06-25T17:58:33.437Z</time>
      </trkpt>
      <trkpt lat="48.452759" lon="0.395365">
        <ele>171.638191</ele>
        <time>2025-06-25T17:58:55.917Z</time>
      </trkpt>
      <trkpt lat="48.455520" lon="0.385856">
        <ele>155.596980</ele>
        <time>2025-06-25T18:00:08.686Z</time>
      </trkpt>
      <trkpt lat="48.455953" lon="0.384498">
        <ele>153.783066</ele>
        <time>2025-06-25T18:00:19.586Z</time>
      </trkpt>
      <trkpt lat="48.456359" lon="0.383476">
        <ele>152.354565</ele>
        <time>2025-06-25T18:00:28.780Z</time>
      </trkpt>
      <trkpt lat="48.456882" lon="0.382458">
        <ele>151.527387</ele>
        <time>2025-06-25T18:00:38.997Z</time>
      </trkpt>
      <trkpt lat="48.457354" lon="0.381663">
        <ele>150.841975</ele>
        <time>2025-06-25T18:00:47.619Z</time>
      </trkpt>
      <trkpt lat="48.458040" lon="0.380648">
        <ele>150.802144</ele>
        <time>2025-06-25T18:01:00.861Z</time>
      </trkpt>
      <trkpt lat="48.458620" lon="0.379869">
        <ele>150.996956</ele>
        <time>2025-06-25T18:01:14.340Z</time>
      </trkpt>
      <trkpt lat="48.458703" lon="0.379743">
        <ele>151.026496</ele>
        <time>2025-06-25T18:01:16.527Z</time>
      </trkpt>
      <trkpt lat="48.459634" lon="0.378392">
        <ele>151.993561</ele>
        <time>2025-06-25T18:01:40.616Z</time>
      </trkpt>
      <trkpt lat="48.459793" lon="0.378124">
        <ele>152.190442</ele>
        <time>2025-06-25T18:01:44.956Z</time>
      </trkpt>
      <trkpt lat="48.460166" lon="0.377263">
        <ele>152.571178</ele>
        <time>2025-06-25T18:01:56.955Z</time>
      </trkpt>
      <trkpt lat="48.460344" lon="0.376616">
        <ele>152.602479</ele>
        <time>2025-06-25T18:02:04.564Z</time>
      </trkpt>
      <trkpt lat="48.460429" lon="0.376165">
        <ele>152.623430</ele>
        <time>2025-06-25T18:02:09.386Z</time>
      </trkpt>
      <trkpt lat="48.460504" lon="0.375517">
        <ele>152.652824</ele>
        <time>2025-06-25T18:02:15.662Z</time>
      </trkpt>
      <trkpt lat="48.460743" lon="0.368513">
        <ele>150.034250</ele>
        <time>2025-06-25T18:03:16.591Z</time>
      </trkpt>
      <trkpt lat="48.460744" lon="0.368481">
        <ele>150.014502</ele>
        <time>2025-06-25T18:03:16.864Z</time>
      </trkpt>
      <trkpt lat="48.460799" lon="0.367068">
        <ele>149.141950</ele>
        <time>2025-06-25T18:03:28.118Z</time>
      </trkpt>
      <trkpt lat="48.460853" lon="0.365635">
        <ele>148.030326</ele>
        <time>2025-06-25T18:03:39.354Z</time>
      </trkpt>
      <trkpt lat="48.460891" lon="0.364605">
        <ele>147.205161</ele>
        <time>2025-06-25T18:03:47.429Z</time>
      </trkpt>
      <trkpt lat="48.460990" lon="0.361934">
        <ele>145.447389</ele>
        <time>2025-06-25T18:04:08.736Z</time>
      </trkpt>
      <trkpt lat="48.461189" lon="0.356282">
        <ele>144.396282</ele>
        <time>2025-06-25T18:05:02.022Z</time>
      </trkpt>
      <trkpt lat="48.461177" lon="0.355595">
        <ele>144.196630</ele>
        <time>2025-06-25T18:05:08.057Z</time>
      </trkpt>
      <trkpt lat="48.461125" lon="0.354734">
        <ele>143.876702</ele>
        <time>2025-06-25T18:05:15.428Z</time>
      </trkpt>
      <trkpt lat="48.460901" lon="0.353488">
        <ele>143.398982</ele>
        <time>2025-06-25T18:05:26.506Z</time>
      </trkpt>
      <trkpt lat="48.460673" lon="0.352590">
        <ele>143.244786</ele>
        <time>2025-06-25T18:05:35.076Z</time>
      </trkpt>
      <trkpt lat="48.459627" lon="0.349245">
        <ele>143.130539</ele>
        <time>2025-06-25T18:06:10.664Z</time>
      </trkpt>
      <trkpt lat="48.459287" lon="0.348095">
        <ele>143.297198</ele>
        <time>2025-06-25T18:06:24.631Z</time>
      </trkpt>
      <trkpt lat="48.459212" lon="0.347755">
        <ele>143.395126</ele>
        <time>2025-06-25T18:06:28.628Z</time>
      </trkpt>
      <trkpt lat="48.459134" lon="0.347760">
        <ele>143.427301</ele>
        <time>2025-06-25T18:06:29.983Z</time>
      </trkpt>
      <trkpt lat="48.459104" lon="0.347762">
        <ele>143.439677</ele>
        <time>2025-06-25T18:06:30.498Z</time>
      </trkpt>
      <trkpt lat="48.459078" lon="0.347763">
        <ele>143.450395</ele>
        <time>2025-06-25T18:06:30.940Z</time>
      </trkpt>
      <trkpt lat="48.458602" lon="0.347777">
        <ele>143.646604</ele>
        <time>2025-06-25T18:06:38.919Z</time>
      </trkpt>
      <trkpt lat="48.458540" lon="0.347779">
        <ele>143.672162</ele>
        <time>2025-06-25T18:06:39.963Z</time>
      </trkpt>
      <trkpt lat="48.457802" lon="0.347784">
        <ele>143.934149</ele>
        <time>2025-06-25T18:06:51.894Z</time>
      </trkpt>
      <trkpt lat="48.457516" lon="0.347692">
        <ele>143.931618</ele>
        <time>2025-06-25T18:06:56.604Z</time>
      </trkpt>
      <trkpt lat="48.456732" lon="0.347252">
        <ele>143.924379</ele>
        <time>2025-06-25T18:07:09.481Z</time>
      </trkpt>
      <trkpt lat="48.456992" lon="0.346349">
        <ele>143.860209</ele>
        <time>2025-06-25T18:07:18.522Z</time>
      </trkpt>
      <trkpt lat="48.457010" lon="0.346287">
        <ele>143.828325</ele>
        <time>2025-06-25T18:07:19.119Z</time>
      </trkpt>
      <trkpt lat="48.457271" lon="0.345374">
        <ele>143.359965</ele>
        <time>2025-06-25T18:07:27.336Z</time>
      </trkpt>
      <trkpt lat="48.457799" lon="0.342961">
        <ele>142.871812</ele>
        <time>2025-06-25T18:07:48.634Z</time>
      </trkpt>
      <trkpt lat="48.457840" lon="0.342575">
        <ele>142.960276</ele>
        <time>2025-06-25T18:07:53.128Z</time>
      </trkpt>
      <trkpt lat="48.457822" lon="0.342191">
        <ele>143.047391</ele>
        <time>2025-06-25T18:07:57.823Z</time>
      </trkpt>
      <trkpt lat="48.457731" lon="0.341425">
        <ele>143.223495</ele>
        <time>2025-06-25T18:08:07.883Z</time>
      </trkpt>
      <trkpt lat="48.457735" lon="0.341190">
        <ele>143.308029</ele>
        <time>2025-06-25T18:08:11.033Z</time>
      </trkpt>
      <trkpt lat="48.457755" lon="0.340980">
        <ele>143.427209</ele>
        <time>2025-06-25T18:08:13.891Z</time>
      </trkpt>
      <trkpt lat="48.458017" lon="0.339845">
        <ele>144.102328</ele>
        <time>2025-06-25T18:08:29.694Z</time>
      </trkpt>
      <trkpt lat="48.458054" lon="0.339431">
        <ele>144.336999</ele>
        <time>2025-06-25T18:08:34.542Z</time>
      </trkpt>
      <trkpt lat="48.458091" lon="0.338409">
        <ele>144.858474</ele>
        <time>2025-06-25T18:08:44.988Z</time>
      </trkpt>
      <trkpt lat="48.458213" lon="0.337008">
        <ele>145.332534</ele>
        <time>2025-06-25T18:09:00.270Z</time>
      </trkpt>
      <trkpt lat="48.458204" lon="0.336693">
        <ele>145.438312</ele>
        <time>2025-06-25T18:09:03.785Z</time>
      </trkpt>
      <trkpt lat="48.458168" lon="0.336457">
        <ele>145.519556</ele>
        <time>2025-06-25T18:09:06.531Z</time>
      </trkpt>
      <trkpt lat="48.457793" lon="0.334953">
        <ele>146.215594</ele>
        <time>2025-06-25T18:09:26.542Z</time>
      </trkpt>
      <trkpt lat="48.457750" lon="0.334612">
        <ele>146.381513</ele>
        <time>2025-06-25T18:09:30.849Z</time>
      </trkpt>
      <trkpt lat="48.457761" lon="0.334332">
        <ele>146.515588</ele>
        <time>2025-06-25T18:09:34.251Z</time>
      </trkpt>
      <trkpt lat="48.457821" lon="0.334005">
        <ele>146.677767</ele>
        <time>2025-06-25T18:09:38.247Z</time>
      </trkpt>
      <trkpt lat="48.458303" lon="0.332785">
        <ele>146.847795</ele>
        <time>2025-06-25T18:09:53.231Z</time>
      </trkpt>
      <trkpt lat="48.458712" lon="0.331642">
        <ele>146.617403</ele>
        <time>2025-06-25T18:10:04.876Z</time>
      </trkpt>
      <trkpt lat="48.459460" lon="0.329956">
        <ele>146.008782</ele>
        <time>2025-06-25T18:10:22.178Z</time>
      </trkpt>
      <trkpt lat="48.459893" lon="0.329060">
        <ele>145.613881</ele>
        <time>2025-06-25T18:10:31.841Z</time>
      </trkpt>
      <trkpt lat="48.460168" lon="0.328587">
        <ele>145.495201</ele>
        <time>2025-06-25T18:10:37.578Z</time>
      </trkpt>
      <trkpt lat="48.460387" lon="0.328317">
        <ele>145.451110</ele>
        <time>2025-06-25T18:10:41.595Z</time>
      </trkpt>
      <trkpt lat="48.461429" lon="0.327231">
        <ele>145.247085</ele>
        <time>2025-06-25T18:11:00.188Z</time>
      </trkpt>
      <trkpt lat="48.461753" lon="0.326858">
        <ele>145.084905</ele>
        <time>2025-06-25T18:11:06.017Z</time>
      </trkpt>
      <trkpt lat="48.462488" lon="0.325814">
        <ele>144.683179</ele>
        <time>2025-06-25T18:11:19.664Z</time>
      </trkpt>
      <trkpt lat="48.462848" lon="0.325204">
        <ele>144.403273</ele>
        <time>2025-06-25T18:11:26.586Z</time>
      </trkpt>
      <trkpt lat="48.463289" lon="0.324235">
        <ele>143.825205</ele>
        <time>2025-06-25T18:11:36.324Z</time>
      </trkpt>
      <trkpt lat="48.463431" lon="0.323871">
        <ele>143.617484</ele>
        <time>2025-06-25T18:11:39.821Z</time>
      </trkpt>
      <trkpt lat="48.463558" lon="0.323418">
        <ele>143.375577</ele>
        <time>2025-06-25T18:11:43.876Z</time>
      </trkpt>
      <trkpt lat="48.463639" lon="0.322897">
        <ele>143.163892</ele>
        <time>2025-06-25T18:11:48.321Z</time>
      </trkpt>
      <trkpt lat="48.463931" lon="0.321225">
        <ele>142.770862</ele>
        <time>2025-06-25T18:12:04.281Z</time>
      </trkpt>
      <trkpt lat="48.463974" lon="0.320785">
        <ele>142.669764</ele>
        <time>2025-06-25T18:12:08.489Z</time>
      </trkpt>
      <trkpt lat="48.464089" lon="0.319495">
        <ele>142.289281</ele>
        <time>2025-06-25T18:12:20.802Z</time>
      </trkpt>
      <trkpt lat="48.464145" lon="0.319180">
        <ele>142.186334</ele>
        <time>2025-06-25T18:12:23.765Z</time>
      </trkpt>
      <trkpt lat="48.464371" lon="0.318440">
        <ele>141.929155</ele>
        <time>2025-06-25T18:12:30.642Z</time>
      </trkpt>
      <trkpt lat="48.464430" lon="0.318064">
        <ele>141.807186</ele>
        <time>2025-06-25T18:12:33.867Z</time>
      </trkpt>
      <trkpt lat="48.464424" lon="0.317482">
        <ele>141.595329</ele>
        <time>2025-06-25T18:12:38.772Z</time>
      </trkpt>
      <trkpt lat="48.464402" lon="0.317323">
        <ele>141.531171</ele>
        <time>2025-06-25T18:12:40.159Z</time>
      </trkpt>
      <trkpt lat="48.464354" lon="0.317179">
        <ele>141.467507</ele>
        <time>2025-06-25T18:12:41.550Z</time>
      </trkpt>
      <trkpt lat="48.464222" lon="0.316882">
        <ele>141.326275</ele>
        <time>2025-06-25T18:12:44.642Z</time>
      </trkpt>
      <trkpt lat="48.464162" lon="0.316686">
        <ele>141.241002</ele>
        <time>2025-06-25T18:12:46.537Z</time>
      </trkpt>
      <trkpt lat="48.464134" lon="0.316558">
        <ele>141.187761</ele>
        <time>2025-06-25T18:12:47.730Z</time>
      </trkpt>
      <trkpt lat="48.464105" lon="0.316100">
        <ele>141.006024</ele>
        <time>2025-06-25T18:12:51.708Z</time>
      </trkpt>
      <trkpt lat="48.464109" lon="0.315883">
        <ele>140.920275</ele>
        <time>2025-06-25T18:12:53.548Z</time>
      </trkpt>
      <trkpt lat="48.464178" lon="0.315369">
        <ele>140.713122</ele>
        <time>2025-06-25T18:12:57.971Z</time>
      </trkpt>
      <trkpt lat="48.464294" lon="0.314914">
        <ele>140.593481</ele>
        <time>2025-06-25T18:13:02.252Z</time>
      </trkpt>
      <trkpt lat="48.464500" lon="0.314033">
        <ele>140.412256</ele>
        <time>2025-06-25T18:13:10.724Z</time>
      </trkpt>
      <trkpt lat="48.464557" lon="0.313634">
        <ele>140.333075</ele>
        <time>2025-06-25T18:13:14.455Z</time>
      </trkpt>
      <trkpt lat="48.464549" lon="0.313394">
        <ele>140.286458</ele>
        <time>2025-06-25T18:13:16.656Z</time>
      </trkpt>
      <trkpt lat="48.464456" lon="0.312959">
        <ele>140.197791</ele>
        <time>2025-06-25T18:13:20.887Z</time>
      </trkpt>
      <trkpt lat="48.463619" lon="0.309751">
        <ele>140.236966</ele>
        <time>2025-06-25T18:13:55.371Z</time>
      </trkpt>
      <trkpt lat="48.463451" lon="0.309029">
        <ele>140.334109</ele>
        <time>2025-06-25T18:14:02.944Z</time>
      </trkpt>
      <trkpt lat="48.463324" lon="0.308310">
        <ele>140.428574</ele>
        <time>2025-06-25T18:14:10.355Z</time>
      </trkpt>
      <trkpt lat="48.463278" lon="0.307911">
        <ele>140.479990</ele>
        <time>2025-06-25T18:14:14.652Z</time>
      </trkpt>
      <trkpt lat="48.463219" lon="0.306979">
        <ele>140.824768</ele>
        <time>2025-06-25T18:14:25.346Z</time>
      </trkpt>
      <trkpt lat="48.463223" lon="0.305986">
        <ele>141.349493</ele>
        <time>2025-06-25T18:14:37.729Z</time>
      </trkpt>
      <trkpt lat="48.463312" lon="0.305046">
        <ele>141.851239</ele>
        <time>2025-06-25T18:14:49.730Z</time>
      </trkpt>
      <trkpt lat="48.463405" lon="0.304452">
        <ele>142.009761</ele>
        <time>2025-06-25T18:14:56.733Z</time>
      </trkpt>
      <trkpt lat="48.463484" lon="0.303717">
        <ele>142.100342</ele>
        <time>2025-06-25T18:15:04.247Z</time>
      </trkpt>
      <trkpt lat="48.463481" lon="0.303068">
        <ele>142.179295</ele>
        <time>2025-06-25T18:15:10.460Z</time>
      </trkpt>
      <trkpt lat="48.463411" lon="0.302512">
        <ele>142.248141</ele>
        <time>2025-06-25T18:15:15.872Z</time>
      </trkpt>
      <trkpt lat="48.463267" lon="0.302064">
        <ele>142.315710</ele>
        <time>2025-06-25T18:15:20.856Z</time>
      </trkpt>
      <trkpt lat="48.463585" lon="0.301328">
        <ele>142.464127</ele>
        <time>2025-06-25T18:15:33.291Z</time>
      </trkpt>
      <trkpt lat="48.463800" lon="0.300574">
        <ele>142.602796</ele>
        <time>2025-06-25T18:15:45.524Z</time>
      </trkpt>
      <trkpt lat="48.464216" lon="0.297856">
        <ele>142.655390</ele>
        <time>2025-06-25T18:16:23.459Z</time>
      </trkpt>
      <trkpt lat="48.464277" lon="0.297043">
        <ele>142.614325</ele>
        <time>2025-06-25T18:16:33.622Z</time>
      </trkpt>
      <trkpt lat="48.464257" lon="0.296597">
        <ele>142.573553</ele>
        <time>2025-06-25T18:16:39.134Z</time>
      </trkpt>
      <trkpt lat="48.464151" lon="0.296070">
        <ele>142.523324</ele>
        <time>2025-06-25T18:16:45.915Z</time>
      </trkpt>
      <trkpt lat="48.463749" lon="0.294944">
        <ele>142.406684</ele>
        <time>2025-06-25T18:17:02.733Z</time>
      </trkpt>
      <trkpt lat="48.463716" lon="0.294582">
        <ele>142.373356</ele>
        <time>2025-06-25T18:17:07.919Z</time>
      </trkpt>
      <trkpt lat="48.463638" lon="0.292392">
        <ele>143.035760</ele>
        <time>2025-06-25T18:17:39.651Z</time>
      </trkpt>
      <trkpt lat="48.463630" lon="0.291593">
        <ele>143.430962</ele>
        <time>2025-06-25T18:17:51.697Z</time>
      </trkpt>
      <trkpt lat="48.463704" lon="0.290991">
        <ele>143.999176</ele>
        <time>2025-06-25T18:18:01.476Z</time>
      </trkpt>
      <trkpt lat="48.464355" lon="0.287905">
        <ele>146.744224</ele>
        <time>2025-06-25T18:18:59.816Z</time>
      </trkpt>
      <trkpt lat="48.464619" lon="0.286919">
        <ele>147.530034</ele>
        <time>2025-06-25T18:19:15.890Z</time>
      </trkpt>
      <trkpt lat="48.465025" lon="0.285549">
        <ele>147.915592</ele>
        <time>2025-06-25T18:19:36.683Z</time>
      </trkpt>
      <trkpt lat="48.465454" lon="0.284144">
        <ele>148.129745</ele>
        <time>2025-06-25T18:19:58.572Z</time>
      </trkpt>
      <trkpt lat="48.465689" lon="0.283729">
        <ele>148.053387</ele>
        <time>2025-06-25T18:20:05.972Z</time>
      </trkpt>
      <trkpt lat="48.466805" lon="0.282185">
        <ele>147.709042</ele>
        <time>2025-06-25T18:20:34.712Z</time>
      </trkpt>
      <trkpt lat="48.466961" lon="0.281858">
        <ele>147.597244</ele>
        <time>2025-06-25T18:20:39.820Z</time>
      </trkpt>
      <trkpt lat="48.467126" lon="0.281315">
        <ele>147.431479</ele>
        <time>2025-06-25T18:20:47.435Z</time>
      </trkpt>
      <trkpt lat="48.468034" lon="0.278188">
        <ele>146.493765</ele>
        <time>2025-06-25T18:21:29.542Z</time>
      </trkpt>
      <trkpt lat="48.468203" lon="0.277693">
        <ele>146.342110</ele>
        <time>2025-06-25T18:21:36.449Z</time>
      </trkpt>
      <trkpt lat="48.468662" lon="0.276803">
        <ele>146.148849</ele>
        <time>2025-06-25T18:21:50.893Z</time>
      </trkpt>
      <trkpt lat="48.469038" lon="0.275995">
        <ele>146.011760</ele>
        <time>2025-06-25T18:22:04.219Z</time>
      </trkpt>
      <trkpt lat="48.469213" lon="0.275563">
        <ele>145.941455</ele>
        <time>2025-06-25T18:22:10.840Z</time>
      </trkpt>
      <trkpt lat="48.469415" lon="0.274969">
        <ele>145.755831</ele>
        <time>2025-06-25T18:22:19.323Z</time>
      </trkpt>
      <trkpt lat="48.470183" lon="0.272761">
        <ele>144.653525</ele>
        <time>2025-06-25T18:22:48.585Z</time>
      </trkpt>
      <trkpt lat="48.470303" lon="0.272558">
        <ele>144.576982</ele>
        <time>2025-06-25T18:22:51.782Z</time>
      </trkpt>
      <trkpt lat="48.472900" lon="0.268945">
        <ele>142.962726</ele>
        <time>2025-06-25T18:23:59.205Z</time>
      </trkpt>
      <trkpt lat="48.473063" lon="0.268704">
        <ele>142.710506</ele>
        <time>2025-06-25T18:24:02.932Z</time>
      </trkpt>
      <trkpt lat="48.473154" lon="0.268516">
        <ele>142.539976</ele>
        <time>2025-06-25T18:24:05.428Z</time>
      </trkpt>
      <trkpt lat="48.473215" lon="0.268317">
        <ele>142.379360</ele>
        <time>2025-06-25T18:24:07.768Z</time>
      </trkpt>
      <trkpt lat="48.473241" lon="0.267955">
        <ele>142.112609</ele>
        <time>2025-06-25T18:24:11.672Z</time>
      </trkpt>
      <trkpt lat="48.473191" lon="0.267635">
        <ele>141.871756</ele>
        <time>2025-06-25T18:24:15.209Z</time>
      </trkpt>
      <trkpt lat="48.473129" lon="0.267467">
        <ele>141.730896</ele>
        <time>2025-06-25T18:24:17.280Z</time>
      </trkpt>
      <trkpt lat="48.473046" lon="0.267108">
        <ele>141.452361</ele>
        <time>2025-06-25T18:24:21.411Z</time>
      </trkpt>
      <trkpt lat="48.472924" lon="0.264324">
        <ele>141.344438</ele>
        <time>2025-06-25T18:24:58.278Z</time>
      </trkpt>
      <trkpt lat="48.472865" lon="0.263722">
        <ele>141.592263</ele>
        <time>2025-06-25T18:25:08.485Z</time>
      </trkpt>
      <trkpt lat="48.472694" lon="0.262755">
        <ele>142.362072</ele>
        <time>2025-06-25T18:25:25.801Z</time>
      </trkpt>
      <trkpt lat="48.471662" lon="0.258881">
        <ele>145.366607</ele>
        <time>2025-06-25T18:26:34.164Z</time>
      </trkpt>
      <trkpt lat="48.471431" lon="0.258403">
        <ele>145.562793</ele>
        <time>2025-06-25T18:26:43.066Z</time>
      </trkpt>
      <trkpt lat="48.471245" lon="0.258106">
        <ele>145.698299</ele>
        <time>2025-06-25T18:26:49.154Z</time>
      </trkpt>
      <trkpt lat="48.471056" lon="0.257643">
        <ele>145.878638</ele>
        <time>2025-06-25T18:26:57.186Z</time>
      </trkpt>
      <trkpt lat="48.471030" lon="0.257529">
        <ele>145.918623</ele>
        <time>2025-06-25T18:26:58.943Z</time>
      </trkpt>
      <trkpt lat="48.471012" lon="0.257125">
        <ele>146.052923</ele>
        <time>2025-06-25T18:27:04.846Z</time>
      </trkpt>
      <trkpt lat="48.471100" lon="0.256387">
        <ele>146.202356</ele>
        <time>2025-06-25T18:27:15.630Z</time>
      </trkpt>
      <trkpt lat="48.471222" lon="0.255619">
        <ele>145.931199</ele>
        <time>2025-06-25T18:27:25.852Z</time>
      </trkpt>
      <trkpt lat="48.471286" lon="0.254982">
        <ele>145.709987</ele>
        <time>2025-06-25T18:27:33.678Z</time>
      </trkpt>
      <trkpt lat="48.471297" lon="0.254526">
        <ele>145.553316</ele>
        <time>2025-06-25T18:27:39.021Z</time>
      </trkpt>
      <trkpt lat="48.471281" lon="0.254267">
        <ele>145.464003</ele>
        <time>2025-06-25T18:27:42.024Z</time>
      </trkpt>
      <trkpt lat="48.471145" lon="0.253487">
        <ele>145.100271</ele>
        <time>2025-06-25T18:27:51.179Z</time>
      </trkpt>
      <trkpt lat="48.470419" lon="0.251220">
        <ele>143.635155</ele>
        <time>2025-06-25T18:28:20.951Z</time>
      </trkpt>
      <trkpt lat="48.470184" lon="0.250387">
        <ele>142.929831</ele>
        <time>2025-06-25T18:28:31.457Z</time>
      </trkpt>
      <trkpt lat="48.470151" lon="0.250345">
        <ele>142.879090</ele>
        <time>2025-06-25T18:28:32.191Z</time>
      </trkpt>
      <trkpt lat="48.470121" lon="0.250308">
        <ele>142.833550</ele>
        <time>2025-06-25T18:28:32.857Z</time>
      </trkpt>
      <trkpt lat="48.470044" lon="0.249880">
        <ele>142.488023</ele>
        <time>2025-06-25T18:28:37.815Z</time>
      </trkpt>
      <trkpt lat="48.469902" lon="0.248605">
        <ele>141.562653</ele>
        <time>2025-06-25T18:28:51.783Z</time>
      </trkpt>
      <trkpt lat="48.469710" lon="0.247402">
        <ele>141.007109</ele>
        <time>2025-06-25T18:29:05.625Z</time>
      </trkpt>
      <trkpt lat="48.469680" lon="0.246669">
        <ele>140.677384</ele>
        <time>2025-06-25T18:29:15.134Z</time>
      </trkpt>
      <trkpt lat="48.469632" lon="0.246267">
        <ele>140.493992</ele>
        <time>2025-06-25T18:29:20.986Z</time>
      </trkpt>
      <trkpt lat="48.469360" lon="0.245296">
        <ele>140.534460</ele>
        <time>2025-06-25T18:29:36.887Z</time>
      </trkpt>
      <trkpt lat="48.469279" lon="0.244854">
        <ele>140.571519</ele>
        <time>2025-06-25T18:29:43.680Z</time>
      </trkpt>
      <trkpt lat="48.469170" lon="0.243438">
        <ele>140.665366</ele>
        <time>2025-06-25T18:30:02.096Z</time>
      </trkpt>
      <trkpt lat="48.468990" lon="0.242143">
        <ele>140.571871</ele>
        <time>2025-06-25T18:30:18.450Z</time>
      </trkpt>
      <trkpt lat="48.468982" lon="0.241765">
        <ele>140.545148</ele>
        <time>2025-06-25T18:30:23.510Z</time>
      </trkpt>
      <trkpt lat="48.469007" lon="0.241135">
        <ele>140.500552</ele>
        <time>2025-06-25T18:30:32.340Z</time>
      </trkpt>
      <trkpt lat="48.468993" lon="0.240410">
        <ele>140.449098</ele>
        <time>2025-06-25T18:30:42.718Z</time>
      </trkpt>
      <trkpt lat="48.468942" lon="0.239848">
        <ele>140.408780</ele>
        <time>2025-06-25T18:30:50.763Z</time>
      </trkpt>
      <trkpt lat="48.468832" lon="0.239239">
        <ele>140.363916</ele>
        <time>2025-06-25T18:30:59.159Z</time>
      </trkpt>
      <trkpt lat="48.468401" lon="0.237293">
        <ele>139.942985</ele>
        <time>2025-06-25T18:31:24.021Z</time>
      </trkpt>
      <trkpt lat="48.468052" lon="0.236479">
        <ele>139.613492</ele>
        <time>2025-06-25T18:31:35.789Z</time>
      </trkpt>
      <trkpt lat="48.467983" lon="0.236268">
        <ele>139.533522</ele>
        <time>2025-06-25T18:31:38.675Z</time>
      </trkpt>
      <trkpt lat="48.467846" lon="0.235647">
        <ele>139.384461</ele>
        <time>2025-06-25T18:31:46.963Z</time>
      </trkpt>
      <trkpt lat="48.467666" lon="0.235197">
        <ele>139.433154</ele>
        <time>2025-06-25T18:31:53.786Z</time>
      </trkpt>
      <trkpt lat="48.467632" lon="0.235047">
        <ele>139.447841</ele>
        <time>2025-06-25T18:31:55.852Z</time>
      </trkpt>
      <trkpt lat="48.467593" lon="0.234568">
        <ele>139.492554</ele>
        <time>2025-06-25T18:32:02.261Z</time>
      </trkpt>
      <trkpt lat="48.467581" lon="0.233280">
        <ele>139.611901</ele>
        <time>2025-06-25T18:32:20.701Z</time>
      </trkpt>
      <trkpt lat="48.467460" lon="0.232453">
        <ele>140.029158</ele>
        <time>2025-06-25T18:32:33.745Z</time>
      </trkpt>
      <trkpt lat="48.467440" lon="0.232103">
        <ele>140.218581</ele>
        <time>2025-06-25T18:32:39.349Z</time>
      </trkpt>
      <trkpt lat="48.467491" lon="0.231505">
        <ele>140.543685</ele>
        <time>2025-06-25T18:32:49.081Z</time>
      </trkpt>
      <trkpt lat="48.467613" lon="0.230790">
        <ele>140.941782</ele>
        <time>2025-06-25T18:33:00.857Z</time>
      </trkpt>
      <trkpt lat="48.467629" lon="0.230582">
        <ele>141.054690</ele>
        <time>2025-06-25T18:33:04.131Z</time>
      </trkpt>
      <trkpt lat="48.467626" lon="0.230424">
        <ele>141.106145</ele>
        <time>2025-06-25T18:33:06.604Z</time>
      </trkpt>
      <trkpt lat="48.467541" lon="0.230123">
        <ele>141.178259</ele>
        <time>2025-06-25T18:33:11.630Z</time>
      </trkpt>
      <trkpt lat="48.467234" lon="0.229616">
        <ele>141.329604</ele>
        <time>2025-06-25T18:33:21.903Z</time>
      </trkpt>
      <trkpt lat="48.467146" lon="0.229424">
        <ele>141.381052</ele>
        <time>2025-06-25T18:33:25.281Z</time>
      </trkpt>
      <trkpt lat="48.466556" lon="0.227743">
        <ele>141.571141</ele>
        <time>2025-06-25T18:33:50.822Z</time>
      </trkpt>
      <trkpt lat="48.466319" lon="0.227283">
        <ele>141.453442</ele>
        <time>2025-06-25T18:33:58.291Z</time>
      </trkpt>
      <trkpt lat="48.466235" lon="0.227054">
        <ele>141.400567</ele>
        <time>2025-06-25T18:34:01.624Z</time>
      </trkpt>
      <trkpt lat="48.465916" lon="0.226015">
        <ele>141.169231</ele>
        <time>2025-06-25T18:34:15.915Z</time>
      </trkpt>
      <trkpt lat="48.465800" lon="0.225534">
        <ele>140.869729</ele>
        <time>2025-06-25T18:34:22.154Z</time>
      </trkpt>
      <trkpt lat="48.465696" lon="0.224014">
        <ele>139.655308</ele>
        <time>2025-06-25T18:34:39.658Z</time>
      </trkpt>
      <trkpt lat="48.465641" lon="0.223699">
        <ele>139.396431</ele>
        <time>2025-06-25T18:34:43.185Z</time>
      </trkpt>
      <trkpt lat="48.465260" lon="0.222153">
        <ele>137.868984</ele>
        <time>2025-06-25T18:35:00.597Z</time>
      </trkpt>
      <trkpt lat="48.464966" lon="0.221123">
        <ele>136.761114</ele>
        <time>2025-06-25T18:35:12.741Z</time>
      </trkpt>
      <trkpt lat="48.464803" lon="0.220749">
        <ele>136.318949</ele>
        <time>2025-06-25T18:35:17.812Z</time>
      </trkpt>
      <trkpt lat="48.463992" lon="0.219255">
        <ele>135.782868</ele>
        <time>2025-06-25T18:35:41.692Z</time>
      </trkpt>
      <trkpt lat="48.463871" lon="0.218984">
        <ele>135.694864</ele>
        <time>2025-06-25T18:35:46.018Z</time>
      </trkpt>
      <trkpt lat="48.463678" lon="0.218441">
        <ele>135.602707</ele>
        <time>2025-06-25T18:35:54.327Z</time>
      </trkpt>
      <trkpt lat="48.463693" lon="0.217796">
        <ele>135.772027</ele>
        <time>2025-06-25T18:36:03.284Z</time>
      </trkpt>
      <trkpt lat="48.463800" lon="0.216665">
        <ele>136.071748</ele>
        <time>2025-06-25T18:36:19.664Z</time>
      </trkpt>
      <trkpt lat="48.463854" lon="0.213873">
        <ele>137.748745</ele>
        <time>2025-06-25T18:37:02.280Z</time>
      </trkpt>
      <trkpt lat="48.463786" lon="0.213382">
        <ele>138.116279</ele>
        <time>2025-06-25T18:37:11.197Z</time>
      </trkpt>
      <trkpt lat="48.463691" lon="0.212943">
        <ele>138.597543</ele>
        <time>2025-06-25T18:37:20.154Z</time>
      </trkpt>
      <trkpt lat="48.463589" lon="0.212518">
        <ele>139.178871</ele>
        <time>2025-06-25T18:37:29.605Z</time>
      </trkpt>
      <trkpt lat="48.463447" lon="0.212056">
        <ele>139.833818</ele>
        <time>2025-06-25T18:37:40.230Z</time>
      </trkpt>
      <trkpt lat="48.463337" lon="0.211554">
        <ele>140.513822</ele>
        <time>2025-06-25T18:37:50.856Z</time>
      </trkpt>
      <trkpt lat="48.463331" lon="0.211311">
        <ele>140.826582</ele>
        <time>2025-06-25T18:37:55.556Z</time>
      </trkpt>
      <trkpt lat="48.463358" lon="0.210956">
        <ele>141.286172</ele>
        <time>2025-06-25T18:38:02.207Z</time>
      </trkpt>
      <trkpt lat="48.463640" lon="0.209356">
        <ele>141.766732</ele>
        <time>2025-06-25T18:38:25.459Z</time>
      </trkpt>
      <trkpt lat="48.463681" lon="0.208976">
        <ele>141.770465</ele>
        <time>2025-06-25T18:38:29.816Z</time>
      </trkpt>
      <trkpt lat="48.463696" lon="0.208502">
        <ele>141.775065</ele>
        <time>2025-06-25T18:38:35.422Z</time>
      </trkpt>
      <trkpt lat="48.463684" lon="0.208271">
        <ele>141.777311</ele>
        <time>2025-06-25T18:38:38.277Z</time>
      </trkpt>
      <trkpt lat="48.463599" lon="0.207757">
        <ele>141.903587</ele>
        <time>2025-06-25T18:38:45.133Z</time>
      </trkpt>
      <trkpt lat="48.463218" lon="0.205957">
        <ele>143.065502</ele>
        <time>2025-06-25T18:39:15.321Z</time>
      </trkpt>
      <trkpt lat="48.462989" lon="0.205294">
        <ele>143.613801</ele>
        <time>2025-06-25T18:39:28.601Z</time>
      </trkpt>
      <trkpt lat="48.462436" lon="0.204162">
        <ele>145.477371</ele>
        <time>2025-06-25T18:39:54.204Z</time>
      </trkpt>
      <trkpt lat="48.461891" lon="0.203367">
        <ele>146.992958</ele>
        <time>2025-06-25T18:40:16.521Z</time>
      </trkpt>
      <trkpt lat="48.461620" lon="0.202860">
        <ele>147.753145</ele>
        <time>2025-06-25T18:40:29.585Z</time>
      </trkpt>
      <trkpt lat="48.461442" lon="0.202029">
        <ele>148.763966</ele>
        <time>2025-06-25T18:40:46.285Z</time>
      </trkpt>
      <trkpt lat="48.461290" lon="0.201634">
        <ele>149.292588</ele>
        <time>2025-06-25T18:40:54.542Z</time>
      </trkpt>
      <trkpt lat="48.461243" lon="0.201415">
        <ele>149.559028</ele>
        <time>2025-06-25T18:40:58.517Z</time>
      </trkpt>
      <trkpt lat="48.461230" lon="0.201160">
        <ele>149.855064</ele>
        <time>2025-06-25T18:41:02.742Z</time>
      </trkpt>
      <trkpt lat="48.461265" lon="0.200647">
        <ele>150.111728</ele>
        <time>2025-06-25T18:41:10.712Z</time>
      </trkpt>
      <trkpt lat="48.461240" lon="0.200395">
        <ele>150.033251</ele>
        <time>2025-06-25T18:41:14.410Z</time>
      </trkpt>
      <trkpt lat="48.461192" lon="0.200240">
        <ele>149.980563</ele>
        <time>2025-06-25T18:41:16.793Z</time>
      </trkpt>
      <trkpt lat="48.461135" lon="0.200086">
        <ele>149.926244</ele>
        <time>2025-06-25T18:41:19.191Z</time>
      </trkpt>
      <trkpt lat="48.460980" lon="0.199797">
        <ele>149.811766</ele>
        <time>2025-06-25T18:41:23.943Z</time>
      </trkpt>
      <trkpt lat="48.460373" lon="0.199134">
        <ele>149.463659</ele>
        <time>2025-06-25T18:41:37.315Z</time>
      </trkpt>
      <trkpt lat="48.458440" lon="0.196160">
        <ele>144.657780</ele>
        <time>2025-06-25T18:42:20.902Z</time>
      </trkpt>
      <trkpt lat="48.457889" lon="0.195387">
        <ele>143.325318</ele>
        <time>2025-06-25T18:42:32.747Z</time>
      </trkpt>
      <trkpt lat="48.457657" lon="0.195202">
        <ele>142.860662</ele>
        <time>2025-06-25T18:42:37.027Z</time>
      </trkpt>
      <trkpt lat="48.457451" lon="0.194848">
        <ele>142.838404</ele>
        <time>2025-06-25T18:42:42.343Z</time>
      </trkpt>
      <trkpt lat="48.457198" lon="0.194290">
        <ele>143.026696</ele>
        <time>2025-06-25T18:42:50.961Z</time>
      </trkpt>
      <trkpt lat="48.457012" lon="0.193692">
        <ele>143.210688</ele>
        <time>2025-06-25T18:43:01.199Z</time>
      </trkpt>
      <trkpt lat="48.456967" lon="0.193038">
        <ele>143.393847</ele>
        <time>2025-06-25T18:43:12.044Z</time>
      </trkpt>
      <trkpt lat="48.457086" lon="0.191624">
        <ele>145.341589</ele>
        <time>2025-06-25T18:43:38.531Z</time>
      </trkpt>
      <trkpt lat="48.457209" lon="0.190975">
        <ele>146.505562</ele>
        <time>2025-06-25T18:43:52.690Z</time>
      </trkpt>
      <trkpt lat="48.457400" lon="0.190480">
        <ele>147.493135</ele>
        <time>2025-06-25T18:44:05.306Z</time>
      </trkpt>
      <trkpt lat="48.457555" lon="0.190252">
        <ele>148.056188</ele>
        <time>2025-06-25T18:44:12.700Z</time>
      </trkpt>
      <trkpt lat="48.457896" lon="0.190018">
        <ele>148.827973</ele>
        <time>2025-06-25T18:44:25.266Z</time>
      </trkpt>
      <trkpt lat="48.458178" lon="0.189696">
        <ele>149.531601</ele>
        <time>2025-06-25T18:44:36.593Z</time>
      </trkpt>
      <trkpt lat="48.458332" lon="0.189380">
        <ele>150.048909</ele>
        <time>2025-06-25T18:44:44.406Z</time>
      </trkpt>
      <trkpt lat="48.458390" lon="0.189186">
        <ele>150.329628</ele>
        <time>2025-06-25T18:44:48.418Z</time>
      </trkpt>
      <trkpt lat="48.458390" lon="0.188945">
        <ele>150.647544</ele>
        <time>2025-06-25T18:44:52.760Z</time>
      </trkpt>
      <trkpt lat="48.458304" lon="0.188288">
        <ele>151.530950</ele>
        <time>2025-06-25T18:45:03.679Z</time>
      </trkpt>
      <trkpt lat="48.458080" lon="0.187607">
        <ele>151.268339</ele>
        <time>2025-06-25T18:45:14.204Z</time>
      </trkpt>
      <trkpt lat="48.457749" lon="0.186216">
        <ele>150.082468</ele>
        <time>2025-06-25T18:45:30.819Z</time>
      </trkpt>
      <trkpt lat="48.457612" lon="0.185885">
        <ele>149.769374</ele>
        <time>2025-06-25T18:45:34.777Z</time>
      </trkpt>
      <trkpt lat="48.457249" lon="0.185316">
        <ele>148.400108</ele>
        <time>2025-06-25T18:45:42.471Z</time>
      </trkpt>
      <trkpt lat="48.457082" lon="0.185147">
        <ele>147.744936</ele>
        <time>2025-06-25T18:45:45.349Z</time>
      </trkpt>
      <trkpt lat="48.456963" lon="0.185087">
        <ele>147.336187</ele>
        <time>2025-06-25T18:45:47.123Z</time>
      </trkpt>
      <trkpt lat="48.456885" lon="0.185084">
        <ele>147.082013</ele>
        <time>2025-06-25T18:45:48.211Z</time>
      </trkpt>
      <trkpt lat="48.455724" lon="0.185428">
        <ele>143.498483</ele>
        <time>2025-06-25T18:46:05.093Z</time>
      </trkpt>
      <trkpt lat="48.455552" lon="0.185413">
        <ele>143.251493</ele>
        <time>2025-06-25T18:46:07.741Z</time>
      </trkpt>
      <trkpt lat="48.455496" lon="0.185369">
        <ele>143.160966</ele>
        <time>2025-06-25T18:46:08.723Z</time>
      </trkpt>
      <trkpt lat="48.455428" lon="0.185203">
        <ele>142.975461</ele>
        <time>2025-06-25T18:46:10.777Z</time>
      </trkpt>
      <trkpt lat="48.455272" lon="0.184103">
        <ele>141.905978</ele>
        <time>2025-06-25T18:46:23.617Z</time>
      </trkpt>
      <trkpt lat="48.454940" lon="0.183050">
        <ele>140.978922</ele>
        <time>2025-06-25T18:46:38.261Z</time>
      </trkpt>
      <trkpt lat="48.454786" lon="0.182922">
        <ele>140.863234</ele>
        <time>2025-06-25T18:46:41.585Z</time>
      </trkpt>
      <trkpt lat="48.454361" lon="0.182731">
        <ele>140.571476</ele>
        <time>2025-06-25T18:46:49.945Z</time>
      </trkpt>
      <trkpt lat="48.454265" lon="0.182666">
        <ele>140.502243</ele>
        <time>2025-06-25T18:46:51.865Z</time>
      </trkpt>
      <trkpt lat="48.454102" lon="0.182488">
        <ele>140.369837</ele>
        <time>2025-06-25T18:46:55.526Z</time>
      </trkpt>
      <trkpt lat="48.453971" lon="0.182264">
        <ele>140.239529</ele>
        <time>2025-06-25T18:46:59.044Z</time>
      </trkpt>
      <trkpt lat="48.453499" lon="0.180861">
        <ele>138.898384</ele>
        <time>2025-06-25T18:47:17.054Z</time>
      </trkpt>
      <trkpt lat="48.453251" lon="0.180429">
        <ele>138.237346</ele>
        <time>2025-06-25T18:47:23.152Z</time>
      </trkpt>
      <trkpt lat="48.452920" lon="0.180209">
        <ele>137.606323</ele>
        <time>2025-06-25T18:47:28.753Z</time>
      </trkpt>
      <trkpt lat="48.452526" lon="0.179797">
        <ele>136.785644</ele>
        <time>2025-06-25T18:47:36.054Z</time>
      </trkpt>
      <trkpt lat="48.452162" lon="0.179563">
        <ele>136.354199</ele>
        <time>2025-06-25T18:47:42.138Z</time>
      </trkpt>
      <trkpt lat="48.451991" lon="0.179386">
        <ele>136.128046</ele>
        <time>2025-06-25T18:47:45.401Z</time>
      </trkpt>
      <trkpt lat="48.451859" lon="0.179182">
        <ele>135.921948</ele>
        <time>2025-06-25T18:47:48.431Z</time>
      </trkpt>
      <trkpt lat="48.451705" lon="0.178814">
        <ele>135.607283</ele>
        <time>2025-06-25T18:47:53.260Z</time>
      </trkpt>
      <trkpt lat="48.451507" lon="0.178340">
        <ele>135.202189</ele>
        <time>2025-06-25T18:48:00.104Z</time>
      </trkpt>
      <trkpt lat="48.451357" lon="0.178147">
        <ele>134.987183</ele>
        <time>2025-06-25T18:48:04.255Z</time>
      </trkpt>
      <trkpt lat="48.450986" lon="0.177857">
        <ele>135.185760</ele>
        <time>2025-06-25T18:48:14.282Z</time>
      </trkpt>
      <trkpt lat="48.450439" lon="0.177401">
        <ele>135.900762</ele>
        <time>2025-06-25T18:48:30.771Z</time>
      </trkpt>
      <trkpt lat="48.450116" lon="0.177026">
        <ele>136.367101</ele>
        <time>2025-06-25T18:48:41.494Z</time>
      </trkpt>
      <trkpt lat="48.449952" lon="0.176742">
        <ele>136.652803</ele>
        <time>2025-06-25T18:48:47.878Z</time>
      </trkpt>
      <trkpt lat="48.449888" lon="0.176683">
        <ele>136.738615</ele>
        <time>2025-06-25T18:48:49.736Z</time>
      </trkpt>
      <trkpt lat="48.449699" lon="0.176843">
        <ele>136.950459</ele>
        <time>2025-06-25T18:48:54.956Z</time>
      </trkpt>
      <trkpt lat="48.449091" lon="0.177047">
        <ele>137.334258</ele>
        <time>2025-06-25T18:49:09.416Z</time>
      </trkpt>
      <trkpt lat="48.448749" lon="0.177237">
        <ele>137.558842</ele>
        <time>2025-06-25T18:49:17.197Z</time>
      </trkpt>
      <trkpt lat="48.448638" lon="0.177268">
        <ele>137.628401</ele>
        <time>2025-06-25T18:49:19.581Z</time>
      </trkpt>
      <trkpt lat="48.448478" lon="0.176600">
        <ele>137.918670</ele>
        <time>2025-06-25T18:49:27.194Z</time>
      </trkpt>
      <trkpt lat="48.448225" lon="0.175996">
        <ele>138.357071</ele>
        <time>2025-06-25T18:49:35.458Z</time>
      </trkpt>
      <trkpt lat="48.448112" lon="0.175785">
        <ele>138.551550</ele>
        <time>2025-06-25T18:49:38.856Z</time>
      </trkpt>
      <trkpt lat="48.447512" lon="0.174973">
        <ele>139.423274</ele>
        <time>2025-06-25T18:49:54.589Z</time>
      </trkpt>
      <trkpt lat="48.447397" lon="0.174785">
        <ele>139.606676</ele>
        <time>2025-06-25T18:49:58.026Z</time>
      </trkpt>
      <trkpt lat="48.447291" lon="0.174526">
        <ele>139.824927</ele>
        <time>2025-06-25T18:50:02.168Z</time>
      </trkpt>
      <trkpt lat="48.447200" lon="0.174121">
        <ele>140.137251</ele>
        <time>2025-06-25T18:50:07.999Z</time>
      </trkpt>
      <trkpt lat="48.447025" lon="0.172662">
        <ele>141.235916</ele>
        <time>2025-06-25T18:50:27.392Z</time>
      </trkpt>
      <trkpt lat="48.446955" lon="0.172322">
        <ele>141.499717</ele>
        <time>2025-06-25T18:50:31.775Z</time>
      </trkpt>
      <trkpt lat="48.446839" lon="0.171955">
        <ele>141.800965</ele>
        <time>2025-06-25T18:50:36.712Z</time>
      </trkpt>
      <trkpt lat="48.444501" lon="0.165930">
        <ele>146.827413</ele>
        <time>2025-06-25T18:52:03.247Z</time>
      </trkpt>
      <trkpt lat="48.443987" lon="0.164713">
        <ele>148.285996</ele>
        <time>2025-06-25T18:52:26.111Z</time>
      </trkpt>
      <trkpt lat="48.443682" lon="0.164101">
        <ele>148.514560</ele>
        <time>2025-06-25T18:52:37.207Z</time>
      </trkpt>
      <trkpt lat="48.443515" lon="0.163874">
        <ele>148.615778</ele>
        <time>2025-06-25T18:52:41.376Z</time>
      </trkpt>
      <trkpt lat="48.443290" lon="0.163633">
        <ele>148.740019</ele>
        <time>2025-06-25T18:52:45.854Z</time>
      </trkpt>
      <trkpt lat="48.442989" lon="0.163464">
        <ele>148.884600</ele>
        <time>2025-06-25T18:52:50.238Z</time>
      </trkpt>
      <trkpt lat="48.441658" lon="0.162973">
        <ele>148.666848</ele>
        <time>2025-06-25T18:53:06.825Z</time>
      </trkpt>
      <trkpt lat="48.441423" lon="0.162830">
        <ele>148.556165</ele>
        <time>2025-06-25T18:53:10.295Z</time>
      </trkpt>
      <trkpt lat="48.441229" lon="0.162659">
        <ele>148.458015</ele>
        <time>2025-06-25T18:53:13.606Z</time>
      </trkpt>
      <trkpt lat="48.441066" lon="0.162460">
        <ele>148.366406</ele>
        <time>2025-06-25T18:53:16.900Z</time>
      </trkpt>
      <trkpt lat="48.440888" lon="0.162193">
        <ele>148.341998</ele>
        <time>2025-06-25T18:53:21.133Z</time>
      </trkpt>
      <trkpt lat="48.440154" lon="0.160899">
        <ele>149.032032</ele>
        <time>2025-06-25T18:53:42.020Z</time>
      </trkpt>
      <trkpt lat="48.439396" lon="0.159834">
        <ele>149.398615</ele>
        <time>2025-06-25T18:53:58.904Z</time>
      </trkpt>
      <trkpt lat="48.439160" lon="0.159441">
        <ele>149.404472</ele>
        <time>2025-06-25T18:54:04.099Z</time>
      </trkpt>
      <trkpt lat="48.438552" lon="0.157928">
        <ele>149.357371</ele>
        <time>2025-06-25T18:54:20.813Z</time>
      </trkpt>
      <trkpt lat="48.438376" lon="0.157492">
        <ele>149.234050</ele>
        <time>2025-06-25T18:54:25.556Z</time>
      </trkpt>
      <trkpt lat="48.438236" lon="0.157200">
        <ele>149.146997</ele>
        <time>2025-06-25T18:54:28.884Z</time>
      </trkpt>
      <trkpt lat="48.437653" lon="0.156204">
        <ele>148.826046</ele>
        <time>2025-06-25T18:54:40.669Z</time>
      </trkpt>
      <trkpt lat="48.437501" lon="0.155852">
        <ele>148.722539</ele>
        <time>2025-06-25T18:54:44.277Z</time>
      </trkpt>
      <trkpt lat="48.437222" lon="0.154910">
        <ele>148.461108</ele>
        <time>2025-06-25T18:54:53.110Z</time>
      </trkpt>
      <trkpt lat="48.436516" lon="0.152421">
        <ele>148.137867</ele>
        <time>2025-06-25T18:55:18.560Z</time>
      </trkpt>
      <trkpt lat="48.435871" lon="0.150640">
        <ele>148.091077</ele>
        <time>2025-06-25T18:55:40.346Z</time>
      </trkpt>
      <trkpt lat="48.435792" lon="0.150162">
        <ele>147.975691</ele>
        <time>2025-06-25T18:55:44.855Z</time>
      </trkpt>
      <trkpt lat="48.435768" lon="0.149831">
        <ele>147.897697</ele>
        <time>2025-06-25T18:55:47.777Z</time>
      </trkpt>
      <trkpt lat="48.435730" lon="0.148940">
        <ele>147.688561</ele>
        <time>2025-06-25T18:55:55.334Z</time>
      </trkpt>
      <trkpt lat="48.435689" lon="0.148530">
        <ele>147.591439</ele>
        <time>2025-06-25T18:55:58.810Z</time>
      </trkpt>
      <trkpt lat="48.435620" lon="0.148085">
        <ele>147.616092</ele>
        <time>2025-06-25T18:56:02.696Z</time>
      </trkpt>
      <trkpt lat="48.435453" lon="0.147363">
        <ele>147.691274</ele>
        <time>2025-06-25T18:56:09.800Z</time>
      </trkpt>
      <trkpt lat="48.435194" lon="0.146693">
        <ele>147.767518</ele>
        <time>2025-06-25T18:56:18.271Z</time>
      </trkpt>
      <trkpt lat="48.434399" lon="0.145100">
        <ele>147.968039</ele>
        <time>2025-06-25T18:56:42.127Z</time>
      </trkpt>
      <trkpt lat="48.433827" lon="0.144181">
        <ele>148.096617</ele>
        <time>2025-06-25T18:56:54.182Z</time>
      </trkpt>
      <trkpt lat="48.433670" lon="0.143827">
        <ele>147.987192</ele>
        <time>2025-06-25T18:56:57.723Z</time>
      </trkpt>
      <trkpt lat="48.433584" lon="0.143427">
        <ele>147.697690</ele>
        <time>2025-06-25T18:57:01.137Z</time>
      </trkpt>
      <trkpt lat="48.433544" lon="0.142763">
        <ele>147.238639</ele>
        <time>2025-06-25T18:57:06.377Z</time>
      </trkpt>
      <trkpt lat="48.433561" lon="0.142039">
        <ele>146.739846</ele>
        <time>2025-06-25T18:57:11.948Z</time>
      </trkpt>
      <trkpt lat="48.433712" lon="0.140605">
        <ele>145.878800</ele>
        <time>2025-06-25T18:57:23.975Z</time>
      </trkpt>
      <trkpt lat="48.433702" lon="0.139852">
        <ele>145.500194</ele>
        <time>2025-06-25T18:57:30.350Z</time>
      </trkpt>
      <trkpt lat="48.433645" lon="0.139150">
        <ele>145.144668</ele>
        <time>2025-06-25T18:57:36.105Z</time>
      </trkpt>
      <trkpt lat="48.433585" lon="0.138830">
        <ele>144.977505</ele>
        <time>2025-06-25T18:57:38.929Z</time>
      </trkpt>
      <trkpt lat="48.433324" lon="0.137848">
        <ele>144.661262</ele>
        <time>2025-06-25T18:57:48.459Z</time>
      </trkpt>
      <trkpt lat="48.433029" lon="0.136795">
        <ele>144.364742</ele>
        <time>2025-06-25T18:57:59.253Z</time>
      </trkpt>
      <trkpt lat="48.432986" lon="0.136642">
        <ele>144.321637</ele>
        <time>2025-06-25T18:58:00.919Z</time>
      </trkpt>
      <trkpt lat="48.432628" lon="0.135350">
        <ele>142.878651</ele>
        <time>2025-06-25T18:58:13.099Z</time>
      </trkpt>
      <trkpt lat="48.432437" lon="0.134661">
        <ele>141.773296</ele>
        <time>2025-06-25T18:58:18.372Z</time>
      </trkpt>
      <trkpt lat="48.432176" lon="0.133655">
        <ele>140.174166</ele>
        <time>2025-06-25T18:58:25.480Z</time>
      </trkpt>
      <trkpt lat="48.432136" lon="0.133362">
        <ele>139.632985</ele>
        <time>2025-06-25T18:58:27.432Z</time>
      </trkpt>
      <trkpt lat="48.432119" lon="0.132975">
        <ele>138.931315</ele>
        <time>2025-06-25T18:58:29.977Z</time>
      </trkpt>
      <trkpt lat="48.432165" lon="0.130041">
        <ele>134.626107</ele>
        <time>2025-06-25T18:58:50.744Z</time>
      </trkpt>
      <trkpt lat="48.432201" lon="0.128569">
        <ele>133.584241</ele>
        <time>2025-06-25T18:59:03.340Z</time>
      </trkpt>
      <trkpt lat="48.432221" lon="0.127591">
        <ele>133.477075</ele>
        <time>2025-06-25T18:59:13.537Z</time>
      </trkpt>
      <trkpt lat="48.432240" lon="0.126675">
        <ele>133.650856</ele>
        <time>2025-06-25T18:59:23.944Z</time>
      </trkpt>
      <trkpt lat="48.432281" lon="0.126421">
        <ele>133.700425</ele>
        <time>2025-06-25T18:59:26.883Z</time>
      </trkpt>
      <trkpt lat="48.432320" lon="0.126301">
        <ele>133.725763</ele>
        <time>2025-06-25T18:59:28.382Z</time>
      </trkpt>
      <trkpt lat="48.432457" lon="0.126104">
        <ele>133.779878</ele>
        <time>2025-06-25T18:59:31.497Z</time>
      </trkpt>
      <trkpt lat="48.432854" lon="0.125817">
        <ele>133.836583</ele>
        <time>2025-06-25T18:59:38.422Z</time>
      </trkpt>
      <trkpt lat="48.433450" lon="0.125394">
        <ele>133.684677</ele>
        <time>2025-06-25T18:59:48.046Z</time>
      </trkpt>
      <trkpt lat="48.433488" lon="0.125231">
        <ele>133.658245</ele>
        <time>2025-06-25T18:59:49.626Z</time>
      </trkpt>
      <trkpt lat="48.433412" lon="0.124760">
        <ele>133.584084</ele>
        <time>2025-06-25T18:59:53.945Z</time>
      </trkpt>
      <trkpt lat="48.433403" lon="0.124414">
        <ele>133.531108</ele>
        <time>2025-06-25T18:59:56.976Z</time>
      </trkpt>
      <trkpt lat="48.433410" lon="0.124269">
        <ele>133.508865</ele>
        <time>2025-06-25T18:59:58.249Z</time>
      </trkpt>
      <trkpt lat="48.433423" lon="0.124080">
        <ele>133.479795</ele>
        <time>2025-06-25T18:59:59.914Z</time>
      </trkpt>
      <trkpt lat="48.433435" lon="0.123912">
        <ele>133.453943</ele>
        <time>2025-06-25T19:00:01.397Z</time>
      </trkpt>
      <trkpt lat="48.433441" lon="0.123827">
        <ele>133.421319</ele>
        <time>2025-06-25T19:00:02.149Z</time>
      </trkpt>
      <trkpt lat="48.433474" lon="0.123346">
        <ele>133.225213</ele>
        <time>2025-06-25T19:00:06.412Z</time>
      </trkpt>
      <trkpt lat="48.433511" lon="0.122803">
        <ele>133.003845</ele>
        <time>2025-06-25T19:00:11.215Z</time>
      </trkpt>
      <trkpt lat="48.433790" lon="0.118959">
        <ele>131.411701</ele>
        <time>2025-06-25T19:00:44.079Z</time>
      </trkpt>
      <trkpt lat="48.433867" lon="0.118360">
        <ele>131.228569</ele>
        <time>2025-06-25T19:00:49.463Z</time>
      </trkpt>
      <trkpt lat="48.434013" lon="0.117916">
        <ele>131.238674</ele>
        <time>2025-06-25T19:00:54.002Z</time>
      </trkpt>
      <trkpt lat="48.434168" lon="0.117533">
        <ele>131.247822</ele>
        <time>2025-06-25T19:00:58.217Z</time>
      </trkpt>
      <trkpt lat="48.434712" lon="0.116353">
        <ele>131.277122</ele>
        <time>2025-06-25T19:01:12.419Z</time>
      </trkpt>
      <trkpt lat="48.434960" lon="0.115847">
        <ele>131.595089</ele>
        <time>2025-06-25T19:01:20.111Z</time>
      </trkpt>
      <trkpt lat="48.434993" lon="0.115796">
        <ele>131.643661</ele>
        <time>2025-06-25T19:01:21.038Z</time>
      </trkpt>
      <trkpt lat="48.435280" lon="0.115356">
        <ele>132.064365</ele>
        <time>2025-06-25T19:01:29.082Z</time>
      </trkpt>
      <trkpt lat="48.435474" lon="0.115045">
        <ele>132.355417</ele>
        <time>2025-06-25T19:01:34.820Z</time>
      </trkpt>
      <trkpt lat="48.435403" lon="0.114735">
        <ele>132.579021</ele>
        <time>2025-06-25T19:01:39.240Z</time>
      </trkpt>
      <trkpt lat="48.435278" lon="0.114339">
        <ele>132.878024</ele>
        <time>2025-06-25T19:01:45.237Z</time>
      </trkpt>
      <trkpt lat="48.435089" lon="0.113847">
        <ele>133.191970</ele>
        <time>2025-06-25T19:01:52.660Z</time>
      </trkpt>
      <trkpt lat="48.434811" lon="0.113168">
        <ele>133.442751</ele>
        <time>2025-06-25T19:02:01.066Z</time>
      </trkpt>
      <trkpt lat="48.434744" lon="0.112930">
        <ele>133.524012</ele>
        <time>2025-06-25T19:02:03.573Z</time>
      </trkpt>
      <trkpt lat="48.434711" lon="0.112601">
        <ele>133.628596</ele>
        <time>2025-06-25T19:02:06.903Z</time>
      </trkpt>
      <trkpt lat="48.434730" lon="0.111994">
        <ele>133.819595</ele>
        <time>2025-06-25T19:02:13.216Z</time>
      </trkpt>
      <trkpt lat="48.434707" lon="0.111806">
        <ele>133.879682</ele>
        <time>2025-06-25T19:02:15.310Z</time>
      </trkpt>
      <trkpt lat="48.434666" lon="0.111497">
        <ele>133.978727</ele>
        <time>2025-06-25T19:02:18.812Z</time>
      </trkpt>
      <trkpt lat="48.434559" lon="0.110989">
        <ele>134.364064</ele>
        <time>2025-06-25T19:02:25.073Z</time>
      </trkpt>
      <trkpt lat="48.434553" lon="0.110957">
        <ele>134.388295</ele>
        <time>2025-06-25T19:02:25.493Z</time>
      </trkpt>
      <trkpt lat="48.434457" lon="0.110485">
        <ele>134.748036</ele>
        <time>2025-06-25T19:02:31.784Z</time>
      </trkpt>
      <trkpt lat="48.434270" lon="0.109759">
        <ele>135.315536</ele>
        <time>2025-06-25T19:02:42.507Z</time>
      </trkpt>
      <trkpt lat="48.434085" lon="0.109040">
        <ele>135.877487</ele>
        <time>2025-06-25T19:02:52.804Z</time>
      </trkpt>
      <trkpt lat="48.433986" lon="0.108656">
        <ele>136.189474</ele>
        <time>2025-06-25T19:02:58.045Z</time>
      </trkpt>
      <trkpt lat="48.433532" lon="0.106890">
        <ele>137.643101</ele>
        <time>2025-06-25T19:03:22.229Z</time>
      </trkpt>
      <trkpt lat="48.433180" lon="0.105523">
        <ele>138.932910</ele>
        <time>2025-06-25T19:03:41.558Z</time>
      </trkpt>
      <trkpt lat="48.433065" lon="0.105075">
        <ele>139.384450</ele>
        <time>2025-06-25T19:03:48.102Z</time>
      </trkpt>
      <trkpt lat="48.432965" lon="0.104705">
        <ele>139.760000</ele>
        <time>2025-06-25T19:03:53.598Z</time>
      </trkpt>
      <trkpt lat="48.432730" lon="0.103836">
        <ele>140.637729</ele>
        <time>2025-06-25T19:04:06.524Z</time>
      </trkpt>
      <trkpt lat="48.432556" lon="0.103192">
        <ele>141.240901</ele>
        <time>2025-06-25T19:04:16.399Z</time>
      </trkpt>
      <trkpt lat="48.432271" lon="0.101986">
        <ele>142.351410</ele>
        <time>2025-06-25T19:04:34.091Z</time>
      </trkpt>
      <trkpt lat="48.432237" lon="0.101594">
        <ele>142.694341</ele>
        <time>2025-06-25T19:04:39.259Z</time>
      </trkpt>
      <trkpt lat="48.432294" lon="0.101567">
        <ele>142.772455</ele>
        <time>2025-06-25T19:04:40.401Z</time>
      </trkpt>
      <trkpt lat="48.432310" lon="0.101505">
        <ele>142.830161</ele>
        <time>2025-06-25T19:04:41.232Z</time>
      </trkpt>
      <trkpt lat="48.432300" lon="0.101432">
        <ele>142.894820</ele>
        <time>2025-06-25T19:04:42.146Z</time>
      </trkpt>
      <trkpt lat="48.432170" lon="0.101182">
        <ele>142.854423</ele>
        <time>2025-06-25T19:04:45.869Z</time>
      </trkpt>
      <trkpt lat="48.432098" lon="0.101002">
        <ele>142.790056</ele>
        <time>2025-06-25T19:04:48.173Z</time>
      </trkpt>
      <trkpt lat="48.432099" lon="0.100924">
        <ele>142.766164</ele>
        <time>2025-06-25T19:04:48.988Z</time>
      </trkpt>
      <trkpt lat="48.432065" lon="0.100859">
        <ele>142.740816</ele>
        <time>2025-06-25T19:04:49.842Z</time>
      </trkpt>
      <trkpt lat="48.432007" lon="0.100847">
        <ele>142.713795</ele>
        <time>2025-06-25T19:04:50.732Z</time>
      </trkpt>
      <trkpt lat="48.431948" lon="0.100936">
        <ele>142.675266</ele>
        <time>2025-06-25T19:04:51.953Z</time>
      </trkpt>
      <trkpt lat="48.431869" lon="0.100893">
        <ele>142.636498</ele>
        <time>2025-06-25T19:04:53.137Z</time>
      </trkpt>
      <trkpt lat="48.431657" lon="0.100495">
        <ele>142.480193</ele>
        <time>2025-06-25T19:04:57.605Z</time>
      </trkpt>
      <trkpt lat="48.431498" lon="0.099968">
        <ele>142.302897</ele>
        <time>2025-06-25T19:05:02.271Z</time>
      </trkpt>
      <trkpt lat="48.431418" lon="0.099328">
        <ele>142.099345</ele>
        <time>2025-06-25T19:05:07.286Z</time>
      </trkpt>
      <trkpt lat="48.431413" lon="0.098938">
        <ele>141.828003</ele>
        <time>2025-06-25T19:05:10.246Z</time>
      </trkpt>
      <trkpt lat="48.431445" lon="0.098699">
        <ele>141.658399</ele>
        <time>2025-06-25T19:05:12.087Z</time>
      </trkpt>
      <trkpt lat="48.431468" lon="0.098634">
        <ele>141.607156</ele>
        <time>2025-06-25T19:05:12.636Z</time>
      </trkpt>
      <trkpt lat="48.431520" lon="0.098663">
        <ele>141.549028</ele>
        <time>2025-06-25T19:05:13.277Z</time>
      </trkpt>
      <trkpt lat="48.431589" lon="0.098602">
        <ele>141.465163</ele>
        <time>2025-06-25T19:05:14.198Z</time>
      </trkpt>
      <trkpt lat="48.431600" lon="0.098532">
        <ele>141.415123</ele>
        <time>2025-06-25T19:05:14.751Z</time>
      </trkpt>
      <trkpt lat="48.431583" lon="0.098465">
        <ele>141.365225</ele>
        <time>2025-06-25T19:05:15.304Z</time>
      </trkpt>
      <trkpt lat="48.431520" lon="0.098420">
        <ele>141.292135</ele>
        <time>2025-06-25T19:05:16.110Z</time>
      </trkpt>
      <trkpt lat="48.431480" lon="0.098213">
        <ele>141.142160</ele>
        <time>2025-06-25T19:05:17.777Z</time>
      </trkpt>
      <trkpt lat="48.431114" lon="0.096889">
        <ele>140.216031</ele>
        <time>2025-06-25T19:05:29.753Z</time>
      </trkpt>
      <trkpt lat="48.431052" lon="0.096660">
        <ele>140.204841</ele>
        <time>2025-06-25T19:05:32.078Z</time>
      </trkpt>
      <trkpt lat="48.430890" lon="0.096033">
        <ele>140.174398</ele>
        <time>2025-06-25T19:05:38.765Z</time>
      </trkpt>
      <trkpt lat="48.430935" lon="0.095977">
        <ele>140.170419</ele>
        <time>2025-06-25T19:05:39.671Z</time>
      </trkpt>
      <trkpt lat="48.430953" lon="0.095895">
        <ele>140.166511</ele>
        <time>2025-06-25T19:05:40.540Z</time>
      </trkpt>
      <trkpt lat="48.430938" lon="0.095813">
        <ele>140.162662</ele>
        <time>2025-06-25T19:05:41.404Z</time>
      </trkpt>
      <trkpt lat="48.430885" lon="0.095747">
        <ele>140.157974</ele>
        <time>2025-06-25T19:05:42.476Z</time>
      </trkpt>
      <trkpt lat="48.430817" lon="0.095748">
        <ele>140.153338</ele>
        <time>2025-06-25T19:05:43.526Z</time>
      </trkpt>
      <trkpt lat="48.430686" lon="0.095094">
        <ele>140.122429</ele>
        <time>2025-06-25T19:05:50.681Z</time>
      </trkpt>
      <trkpt lat="48.430596" lon="0.094233">
        <ele>139.993777</ele>
        <time>2025-06-25T19:05:59.697Z</time>
      </trkpt>
      <trkpt lat="48.430577" lon="0.093532">
        <ele>139.777828</ele>
        <time>2025-06-25T19:06:06.117Z</time>
      </trkpt>
      <trkpt lat="48.430559" lon="0.092402">
        <ele>139.429911</ele>
        <time>2025-06-25T19:06:15.134Z</time>
      </trkpt>
      <trkpt lat="48.430530" lon="0.092169">
        <ele>139.356942</ele>
        <time>2025-06-25T19:06:17.128Z</time>
      </trkpt>
      <trkpt lat="48.430580" lon="0.091960">
        <ele>139.288558</ele>
        <time>2025-06-25T19:06:19.064Z</time>
      </trkpt>
      <trkpt lat="48.430682" lon="0.091076">
        <ele>139.321290</ele>
        <time>2025-06-25T19:06:28.070Z</time>
      </trkpt>
      <trkpt lat="48.430703" lon="0.091060">
        <ele>139.323775</ele>
        <time>2025-06-25T19:06:28.489Z</time>
      </trkpt>
      <trkpt lat="48.430711" lon="0.091046">
        <ele>139.325070</ele>
        <time>2025-06-25T19:06:28.696Z</time>
      </trkpt>
      <trkpt lat="48.430714" lon="0.090979">
        <ele>139.329777</ele>
        <time>2025-06-25T19:06:29.433Z</time>
      </trkpt>
      <trkpt lat="48.430692" lon="0.090946">
        <ele>139.333055</ele>
        <time>2025-06-25T19:06:29.905Z</time>
      </trkpt>
      <trkpt lat="48.431103" lon="0.089850">
        <ele>139.421285</ele>
        <time>2025-06-25T19:06:43.526Z</time>
      </trkpt>
      <trkpt lat="48.431131" lon="0.089877">
        <ele>139.424796</ele>
        <time>2025-06-25T19:06:44.118Z</time>
      </trkpt>
      <trkpt lat="48.431179" lon="0.089864">
        <ele>139.429947</ele>
        <time>2025-06-25T19:06:44.945Z</time>
      </trkpt>
      <trkpt lat="48.431203" lon="0.089795">
        <ele>139.435407</ele>
        <time>2025-06-25T19:06:45.815Z</time>
      </trkpt>
      <trkpt lat="48.431179" lon="0.089725">
        <ele>139.440929</ele>
        <time>2025-06-25T19:06:46.756Z</time>
      </trkpt>
      <trkpt lat="48.431143" lon="0.089709">
        <ele>139.444894</ele>
        <time>2025-06-25T19:06:47.408Z</time>
      </trkpt>
      <trkpt lat="48.431096" lon="0.089754">
        <ele>139.450775</ele>
        <time>2025-06-25T19:06:48.300Z</time>
      </trkpt>
      <trkpt lat="48.430689" lon="0.089321">
        <ele>138.949340</ele>
        <time>2025-06-25T19:06:58.194Z</time>
      </trkpt>
      <trkpt lat="48.430510" lon="0.089129">
        <ele>138.712370</ele>
        <time>2025-06-25T19:07:02.032Z</time>
      </trkpt>
      <trkpt lat="48.430467" lon="0.089083">
        <ele>138.655495</ele>
        <time>2025-06-25T19:07:02.909Z</time>
      </trkpt>
      <trkpt lat="48.430444" lon="0.089059">
        <ele>138.625322</ele>
        <time>2025-06-25T19:07:03.363Z</time>
      </trkpt>
      <trkpt lat="48.430342" lon="0.088956">
        <ele>138.492895</ele>
        <time>2025-06-25T19:07:07.367Z</time>
      </trkpt>
      <trkpt lat="48.430298" lon="0.088912">
        <ele>138.435941</ele>
        <time>2025-06-25T19:07:09.031Z</time>
      </trkpt>
      <trkpt lat="48.430265" lon="0.088879">
        <ele>138.393226</ele>
        <time>2025-06-25T19:07:10.286Z</time>
      </trkpt>
      <trkpt lat="48.430164" lon="0.088777">
        <ele>138.262093</ele>
        <time>2025-06-25T19:07:14.151Z</time>
      </trkpt>
      <trkpt lat="48.430032" lon="0.088646">
        <ele>138.091626</ele>
        <time>2025-06-25T19:07:19.121Z</time>
      </trkpt>
      <trkpt lat="48.429904" lon="0.088517">
        <ele>137.925544</ele>
        <time>2025-06-25T19:07:23.992Z</time>
      </trkpt>
      <trkpt lat="48.429520" lon="0.088148">
        <ele>137.448472</ele>
        <time>2025-06-25T19:07:38.608Z</time>
      </trkpt>
      <trkpt lat="48.429469" lon="0.088052">
        <ele>137.376069</ele>
        <time>2025-06-25T19:07:41.278Z</time>
      </trkpt>
      <trkpt lat="48.429457" lon="0.087987">
        <ele>137.336346</ele>
        <time>2025-06-25T19:07:41.784Z</time>
      </trkpt>
      <trkpt lat="48.429178" lon="0.087419">
        <ele>136.920277</ele>
        <time>2025-06-25T19:07:47.561Z</time>
      </trkpt>
      <trkpt lat="48.429477" lon="0.086908">
        <ele>136.519159</ele>
        <time>2025-06-25T19:07:53.087Z</time>
      </trkpt>
      <trkpt lat="48.429636" lon="0.086396">
        <ele>136.186338</ele>
        <time>2025-06-25T19:07:57.945Z</time>
      </trkpt>
      <trkpt lat="48.429691" lon="0.086094">
        <ele>136.001961</ele>
        <time>2025-06-25T19:08:00.861Z</time>
      </trkpt>
      <trkpt lat="48.429834" lon="0.085462">
        <ele>135.939097</ele>
        <time>2025-06-25T19:08:06.974Z</time>
      </trkpt>
      <trkpt lat="48.430072" lon="0.084866">
        <ele>135.966906</ele>
        <time>2025-06-25T19:08:13.498Z</time>
      </trkpt>
      <trkpt lat="48.430143" lon="0.084684">
        <ele>135.975346</ele>
        <time>2025-06-25T19:08:15.405Z</time>
      </trkpt>
      <trkpt lat="48.430247" lon="0.084316">
        <ele>135.991336</ele>
        <time>2025-06-25T19:08:19.077Z</time>
      </trkpt>
      <trkpt lat="48.430269" lon="0.084194">
        <ele>135.996390</ele>
        <time>2025-06-25T19:08:20.352Z</time>
      </trkpt>
      <trkpt lat="48.430328" lon="0.083817">
        <ele>136.011875</ele>
        <time>2025-06-25T19:08:24.714Z</time>
      </trkpt>
      <trkpt lat="48.430341" lon="0.083728">
        <ele>136.015518</ele>
        <time>2025-06-25T19:08:25.842Z</time>
      </trkpt>
      <trkpt lat="48.430424" lon="0.083698">
        <ele>136.020661</ele>
        <time>2025-06-25T19:08:27.486Z</time>
      </trkpt>
      <trkpt lat="48.430454" lon="0.083651">
        <ele>136.023268</ele>
        <time>2025-06-25T19:08:28.346Z</time>
      </trkpt>
      <trkpt lat="48.430469" lon="0.083591">
        <ele>136.025831</ele>
        <time>2025-06-25T19:08:29.181Z</time>
      </trkpt>
      <trkpt lat="48.430453" lon="0.083468">
        <ele>136.076652</ele>
        <time>2025-06-25T19:08:30.728Z</time>
      </trkpt>
      <trkpt lat="48.430412" lon="0.083411">
        <ele>136.115176</ele>
        <time>2025-06-25T19:08:31.768Z</time>
      </trkpt>
      <trkpt lat="48.430312" lon="0.083409">
        <ele>136.184247</ele>
        <time>2025-06-25T19:08:33.542Z</time>
      </trkpt>
      <trkpt lat="48.430079" lon="0.082697">
        <ele>136.548055</ele>
        <time>2025-06-25T19:08:46.247Z</time>
      </trkpt>
      <trkpt lat="48.429972" lon="0.082369">
        <ele>136.715550</ele>
        <time>2025-06-25T19:08:52.629Z</time>
      </trkpt>
      <trkpt lat="48.429944" lon="0.082282">
        <ele>136.759862</ele>
        <time>2025-06-25T19:08:54.392Z</time>
      </trkpt>
      <trkpt lat="48.429769" lon="0.081745">
        <ele>137.034029</ele>
        <time>2025-06-25T19:09:03.938Z</time>
      </trkpt>
      <trkpt lat="48.429718" lon="0.081598">
        <ele>137.110047</ele>
        <time>2025-06-25T19:09:06.399Z</time>
      </trkpt>
      <trkpt lat="48.429471" lon="0.080801">
        <ele>137.110396</ele>
        <time>2025-06-25T19:09:17.153Z</time>
      </trkpt>
      <trkpt lat="48.428760" lon="0.082153">
        <ele>136.598524</ele>
        <time>2025-06-25T19:09:37.093Z</time>
      </trkpt>
      <trkpt lat="48.428601" lon="0.080380">
        <ele>137.024378</ele>
        <time>2025-06-25T19:10:03.074Z</time>
      </trkpt>
      <trkpt lat="48.428432" lon="0.079866">
        <ele>137.264629</ele>
        <time>2025-06-25T19:10:13.026Z</time>
      </trkpt>
      <trkpt lat="48.427642" lon="0.077476">
        <ele>138.040717</ele>
        <time>2025-06-25T19:10:54.304Z</time>
      </trkpt>
      <trkpt lat="48.427663" lon="0.077373">
        <ele>138.066129</ele>
        <time>2025-06-25T19:10:55.687Z</time>
      </trkpt>
      <trkpt lat="48.427687" lon="0.077258">
        <ele>138.094561</ele>
        <time>2025-06-25T19:10:57.219Z</time>
      </trkpt>
      <trkpt lat="48.427794" lon="0.076773">
        <ele>138.215100</ele>
        <time>2025-06-25T19:11:03.573Z</time>
      </trkpt>
      <trkpt lat="48.427857" lon="0.076441">
        <ele>138.199229</ele>
        <time>2025-06-25T19:11:07.696Z</time>
      </trkpt>
      <trkpt lat="48.427878" lon="0.076290">
        <ele>138.174170</ele>
        <time>2025-06-25T19:11:09.507Z</time>
      </trkpt>
      <trkpt lat="48.427894" lon="0.075565">
        <ele>138.056346</ele>
        <time>2025-06-25T19:11:17.856Z</time>
      </trkpt>
      <trkpt lat="48.427984" lon="0.075182">
        <ele>137.990352</ele>
        <time>2025-06-25T19:11:22.708Z</time>
      </trkpt>
      <trkpt lat="48.427959" lon="0.074961">
        <ele>137.953938</ele>
        <time>2025-06-25T19:11:25.525Z</time>
      </trkpt>
      <trkpt lat="48.427851" lon="0.074631">
        <ele>137.894172</ele>
        <time>2025-06-25T19:11:30.406Z</time>
      </trkpt>
      <trkpt lat="48.427830" lon="0.074255">
        <ele>137.832884</ele>
        <time>2025-06-25T19:11:35.715Z</time>
      </trkpt>
      <trkpt lat="48.427806" lon="0.072964">
        <ele>138.819406</ele>
        <time>2025-06-25T19:11:56.799Z</time>
      </trkpt>
      <trkpt lat="48.427809" lon="0.072685">
        <ele>139.082964</ele>
        <time>2025-06-25T19:12:01.885Z</time>
      </trkpt>
      <trkpt lat="48.427815" lon="0.072110">
        <ele>139.626137</ele>
        <time>2025-06-25T19:12:12.643Z</time>
      </trkpt>
      <trkpt lat="48.427824" lon="0.071322">
        <ele>140.365584</ele>
        <time>2025-06-25T19:12:27.112Z</time>
      </trkpt>
      <trkpt lat="48.427834" lon="0.070486">
        <ele>140.819980</ele>
        <time>2025-06-25T19:12:41.768Z</time>
      </trkpt>
      <trkpt lat="48.427848" lon="0.069577">
        <ele>141.314107</ele>
        <time>2025-06-25T19:12:56.294Z</time>
      </trkpt>
      <trkpt lat="48.427867" lon="0.068238">
        <ele>141.705644</ele>
        <time>2025-06-25T19:13:14.333Z</time>
      </trkpt>
      <trkpt lat="48.427924" lon="0.067514">
        <ele>141.467384</ele>
        <time>2025-06-25T19:13:23.357Z</time>
      </trkpt>
      <trkpt lat="48.428003" lon="0.066677">
        <ele>141.191103</ele>
        <time>2025-06-25T19:13:33.620Z</time>
      </trkpt>
      <trkpt lat="48.428096" lon="0.065955">
        <ele>140.950752</ele>
        <time>2025-06-25T19:13:42.477Z</time>
      </trkpt>
      <trkpt lat="48.428313" lon="0.064773">
        <ele>139.481261</ele>
        <time>2025-06-25T19:13:56.210Z</time>
      </trkpt>
      <trkpt lat="48.428369" lon="0.064561">
        <ele>139.205531</ele>
        <time>2025-06-25T19:13:58.576Z</time>
      </trkpt>
      <trkpt lat="48.428441" lon="0.064499">
        <ele>139.054519</ele>
        <time>2025-06-25T19:13:59.471Z</time>
      </trkpt>
      <trkpt lat="48.428466" lon="0.064389">
        <ele>138.914016</ele>
        <time>2025-06-25T19:14:00.294Z</time>
      </trkpt>
      <trkpt lat="48.428461" lon="0.064344">
        <ele>138.858882</ele>
        <time>2025-06-25T19:14:00.609Z</time>
      </trkpt>
      <trkpt lat="48.428449" lon="0.064303">
        <ele>138.804732</ele>
        <time>2025-06-25T19:14:00.921Z</time>
      </trkpt>
      <trkpt lat="48.428462" lon="0.064201">
        <ele>138.679224</ele>
        <time>2025-06-25T19:14:01.973Z</time>
      </trkpt>
      <trkpt lat="48.428486" lon="0.064006">
        <ele>138.439571</ele>
        <time>2025-06-25T19:14:03.969Z</time>
      </trkpt>
      <trkpt lat="48.428567" lon="0.063703">
        <ele>138.044834</ele>
        <time>2025-06-25T19:14:06.251Z</time>
      </trkpt>
      <trkpt lat="48.428644" lon="0.063398">
        <ele>137.659275</ele>
        <time>2025-06-25T19:14:08.512Z</time>
      </trkpt>
      <trkpt lat="48.428807" lon="0.062715">
        <ele>137.163888</ele>
        <time>2025-06-25T19:14:13.655Z</time>
      </trkpt>
      <trkpt lat="48.428934" lon="0.061940">
        <ele>136.619053</ele>
        <time>2025-06-25T19:14:19.655Z</time>
      </trkpt>
      <trkpt lat="48.428965" lon="0.061493">
        <ele>136.312311</ele>
        <time>2025-06-25T19:14:23.530Z</time>
      </trkpt>
      <trkpt lat="48.429002" lon="0.060550">
        <ele>136.082561</ele>
        <time>2025-06-25T19:14:33.895Z</time>
      </trkpt>
      <trkpt lat="48.429038" lon="0.059832">
        <ele>136.923662</ele>
        <time>2025-06-25T19:14:43.832Z</time>
      </trkpt>
      <trkpt lat="48.429070" lon="0.059098">
        <ele>137.782910</ele>
        <time>2025-06-25T19:14:55.000Z</time>
      </trkpt>
      <trkpt lat="48.429097" lon="0.058063">
        <ele>138.991935</ele>
        <time>2025-06-25T19:15:11.996Z</time>
      </trkpt>
      <trkpt lat="48.429124" lon="0.057545">
        <ele>139.504390</ele>
        <time>2025-06-25T19:15:20.496Z</time>
      </trkpt>
      <trkpt lat="48.429260" lon="0.056861">
        <ele>140.208625</ele>
        <time>2025-06-25T19:15:31.624Z</time>
      </trkpt>
      <trkpt lat="48.429545" lon="0.056089">
        <ele>141.079920</ele>
        <time>2025-06-25T19:15:43.590Z</time>
      </trkpt>
      <trkpt lat="48.429685" lon="0.055618">
        <ele>141.588922</ele>
        <time>2025-06-25T19:15:49.348Z</time>
      </trkpt>
      <trkpt lat="48.429776" lon="0.055487">
        <ele>141.614764</ele>
        <time>2025-06-25T19:15:51.308Z</time>
      </trkpt>
      <trkpt lat="48.429773" lon="0.055224">
        <ele>141.512345</ele>
        <time>2025-06-25T19:15:53.917Z</time>
      </trkpt>
      <trkpt lat="48.430031" lon="0.054231">
        <ele>141.097120</ele>
        <time>2025-06-25T19:16:03.229Z</time>
      </trkpt>
      <trkpt lat="48.430056" lon="0.054140">
        <ele>141.058771</ele>
        <time>2025-06-25T19:16:04.011Z</time>
      </trkpt>
      <trkpt lat="48.430197" lon="0.053610">
        <ele>140.836439</ele>
        <time>2025-06-25T19:16:08.420Z</time>
      </trkpt>
      <trkpt lat="48.430304" lon="0.053205">
        <ele>140.666706</ele>
        <time>2025-06-25T19:16:11.843Z</time>
      </trkpt>
      <trkpt lat="48.430626" lon="0.052326">
        <ele>140.149196</ele>
        <time>2025-06-25T19:16:20.337Z</time>
      </trkpt>
      <trkpt lat="48.430735" lon="0.051929">
        <ele>139.917589</ele>
        <time>2025-06-25T19:16:23.900Z</time>
      </trkpt>
      <trkpt lat="48.430843" lon="0.051296">
        <ele>139.565261</ele>
        <time>2025-06-25T19:16:29.350Z</time>
      </trkpt>
      <trkpt lat="48.431116" lon="0.049407">
        <ele>138.278211</ele>
        <time>2025-06-25T19:16:45.784Z</time>
      </trkpt>
      <trkpt lat="48.431228" lon="0.048947">
        <ele>137.909845</ele>
        <time>2025-06-25T19:16:49.710Z</time>
      </trkpt>
      <trkpt lat="48.431414" lon="0.048408">
        <ele>137.453112</ele>
        <time>2025-06-25T19:16:54.432Z</time>
      </trkpt>
      <trkpt lat="48.431589" lon="0.047807">
        <ele>136.900699</ele>
        <time>2025-06-25T19:16:59.341Z</time>
      </trkpt>
      <trkpt lat="48.431598" lon="0.047706">
        <ele>136.793144</ele>
        <time>2025-06-25T19:17:00.075Z</time>
      </trkpt>
      <trkpt lat="48.431685" lon="0.046242">
        <ele>135.241809</ele>
        <time>2025-06-25T19:17:10.845Z</time>
      </trkpt>
      <trkpt lat="48.431749" lon="0.045780">
        <ele>134.743688</ele>
        <time>2025-06-25T19:17:14.284Z</time>
      </trkpt>
      <trkpt lat="48.431856" lon="0.045426">
        <ele>134.333125</ele>
        <time>2025-06-25T19:17:17.306Z</time>
      </trkpt>
      <trkpt lat="48.432290" lon="0.044364">
        <ele>134.298899</ele>
        <time>2025-06-25T19:17:28.886Z</time>
      </trkpt>
      <trkpt lat="48.432554" lon="0.043594">
        <ele>134.339249</ele>
        <time>2025-06-25T19:17:38.545Z</time>
      </trkpt>
      <trkpt lat="48.432775" lon="0.042948">
        <ele>134.397601</ele>
        <time>2025-06-25T19:17:46.939Z</time>
      </trkpt>
      <trkpt lat="48.432910" lon="0.042433">
        <ele>134.716974</ele>
        <time>2025-06-25T19:17:53.414Z</time>
      </trkpt>
      <trkpt lat="48.432960" lon="0.041886">
        <ele>135.035440</ele>
        <time>2025-06-25T19:17:59.585Z</time>
      </trkpt>
      <trkpt lat="48.432981" lon="0.041210">
        <ele>135.425755</ele>
        <time>2025-06-25T19:18:07.273Z</time>
      </trkpt>
      <trkpt lat="48.432928" lon="0.038721">
        <ele>138.077927</ele>
        <time>2025-06-25T19:18:41.146Z</time>
      </trkpt>
      <trkpt lat="48.432850" lon="0.035677">
        <ele>141.679827</ele>
        <time>2025-06-25T19:19:34.492Z</time>
      </trkpt>
      <trkpt lat="48.432922" lon="0.035430">
        <ele>141.975812</ele>
        <time>2025-06-25T19:19:37.375Z</time>
      </trkpt>
      <trkpt lat="48.432769" lon="0.035259">
        <ele>142.290770</ele>
        <time>2025-06-25T19:19:39.792Z</time>
      </trkpt>
      <trkpt lat="48.432351" lon="0.034773">
        <ele>141.397762</ele>
        <time>2025-06-25T19:19:45.820Z</time>
      </trkpt>
      <trkpt lat="48.432230" lon="0.034586">
        <ele>140.896378</ele>
        <time>2025-06-25T19:19:47.651Z</time>
      </trkpt>
      <trkpt lat="48.432146" lon="0.034611">
        <ele>140.648671</ele>
        <time>2025-06-25T19:19:48.897Z</time>
      </trkpt>
      <trkpt lat="48.431959" lon="0.034485">
        <ele>140.056072</ele>
        <time>2025-06-25T19:19:51.809Z</time>
      </trkpt>
      <trkpt lat="48.431914" lon="0.034448">
        <ele>139.907773</ele>
        <time>2025-06-25T19:19:52.523Z</time>
      </trkpt>
      <trkpt lat="48.431597" lon="0.033671">
        <ele>138.156886</ele>
        <time>2025-06-25T19:20:01.017Z</time>
      </trkpt>
      <trkpt lat="48.431307" lon="0.033078">
        <ele>136.966756</ele>
        <time>2025-06-25T19:20:07.970Z</time>
      </trkpt>
      <trkpt lat="48.431070" lon="0.032472">
        <ele>136.142250</ele>
        <time>2025-06-25T19:20:14.884Z</time>
      </trkpt>
      <trkpt lat="48.430800" lon="0.031360">
        <ele>134.754321</ele>
        <time>2025-06-25T19:20:27.708Z</time>
      </trkpt>
      <trkpt lat="48.430704" lon="0.030903">
        <ele>134.192455</ele>
        <time>2025-06-25T19:20:34.306Z</time>
      </trkpt>
      <trkpt lat="48.430695" lon="0.030748">
        <ele>134.129003</ele>
        <time>2025-06-25T19:20:36.617Z</time>
      </trkpt>
      <trkpt lat="48.430648" lon="0.030670">
        <ele>134.118025</ele>
        <time>2025-06-25T19:20:38.212Z</time>
      </trkpt>
      <trkpt lat="48.430624" lon="0.029426">
        <ele>133.988365</ele>
        <time>2025-06-25T19:20:57.041Z</time>
      </trkpt>
      <trkpt lat="48.430630" lon="0.028815">
        <ele>133.924702</ele>
        <time>2025-06-25T19:21:05.479Z</time>
      </trkpt>
      <trkpt lat="48.430570" lon="0.028398">
        <ele>133.880247</ele>
        <time>2025-06-25T19:21:10.540Z</time>
      </trkpt>
      <trkpt lat="48.430550" lon="0.028032">
        <ele>133.791360</ele>
        <time>2025-06-25T19:21:14.515Z</time>
      </trkpt>
      <trkpt lat="48.430546" lon="0.027726">
        <ele>133.659833</ele>
        <time>2025-06-25T19:21:17.672Z</time>
      </trkpt>
      <trkpt lat="48.430591" lon="0.027192">
        <ele>133.428508</ele>
        <time>2025-06-25T19:21:23.271Z</time>
      </trkpt>
      <trkpt lat="48.430633" lon="0.027005">
        <ele>133.343667</ele>
        <time>2025-06-25T19:21:25.397Z</time>
      </trkpt>
      <trkpt lat="48.430895" lon="0.026310">
        <ele>133.000160</ele>
        <time>2025-06-25T19:21:34.867Z</time>
      </trkpt>
      <trkpt lat="48.430940" lon="0.026145">
        <ele>132.923497</ele>
        <time>2025-06-25T19:21:37.467Z</time>
      </trkpt>
      <trkpt lat="48.431185" lon="0.025299">
        <ele>133.037672</ele>
        <time>2025-06-25T19:21:51.982Z</time>
      </trkpt>
      <trkpt lat="48.431602" lon="0.024780">
        <ele>133.762373</ele>
        <time>2025-06-25T19:22:06.265Z</time>
      </trkpt>
      <trkpt lat="48.431650" lon="0.024642">
        <ele>133.900909</ele>
        <time>2025-06-25T19:22:09.125Z</time>
      </trkpt>
      <trkpt lat="48.432057" lon="0.024748">
        <ele>134.454383</ele>
        <time>2025-06-25T19:22:20.265Z</time>
      </trkpt>
      <trkpt lat="48.432689" lon="0.024147">
        <ele>135.313282</ele>
        <time>2025-06-25T19:22:39.314Z</time>
      </trkpt>
      <trkpt lat="48.433376" lon="0.023462">
        <ele>135.970628</ele>
        <time>2025-06-25T19:22:59.795Z</time>
      </trkpt>
      <trkpt lat="48.434065" lon="0.022690">
        <ele>136.688960</ele>
        <time>2025-06-25T19:23:18.058Z</time>
      </trkpt>
      <trkpt lat="48.434315" lon="0.022253">
        <ele>137.081262</ele>
        <time>2025-06-25T19:23:25.564Z</time>
      </trkpt>
      <trkpt lat="48.434661" lon="0.021455">
        <ele>137.729381</ele>
        <time>2025-06-25T19:23:39.723Z</time>
      </trkpt>
      <trkpt lat="48.434452" lon="0.021228">
        <ele>137.993361</ele>
        <time>2025-06-25T19:23:44.833Z</time>
      </trkpt>
      <trkpt lat="48.434265" lon="0.020969">
        <ele>138.253604</ele>
        <time>2025-06-25T19:23:50.458Z</time>
      </trkpt>
      <trkpt lat="48.434132" lon="0.020651">
        <ele>138.788743</ele>
        <time>2025-06-25T19:23:56.667Z</time>
      </trkpt>
      <trkpt lat="48.433752" lon="0.019477">
        <ele>141.628187</ele>
        <time>2025-06-25T19:24:22.763Z</time>
      </trkpt>
      <trkpt lat="48.433380" lon="0.018639">
        <ele>143.819899</ele>
        <time>2025-06-25T19:24:42.286Z</time>
      </trkpt>
      <trkpt lat="48.433228" lon="0.018209">
        <ele>144.710964</ele>
        <time>2025-06-25T19:24:51.197Z</time>
      </trkpt>
      <trkpt lat="48.432273" lon="0.016410">
        <ele>148.326546</ele>
        <time>2025-06-25T19:25:27.701Z</time>
      </trkpt>
      <trkpt lat="48.431858" lon="0.015519">
        <ele>149.150973</ele>
        <time>2025-06-25T19:25:43.148Z</time>
      </trkpt>
      <trkpt lat="48.431546" lon="0.014591">
        <ele>149.825346</ele>
        <time>2025-06-25T19:25:56.352Z</time>
      </trkpt>
      <trkpt lat="48.431455" lon="0.014328">
        <ele>150.017619</ele>
        <time>2025-06-25T19:25:59.757Z</time>
      </trkpt>
      <trkpt lat="48.431267" lon="0.013913">
        <ele>150.140675</ele>
        <time>2025-06-25T19:26:05.134Z</time>
      </trkpt>
      <trkpt lat="48.430606" lon="0.012830">
        <ele>147.718283</ele>
        <time>2025-06-25T19:26:16.481Z</time>
      </trkpt>
      <trkpt lat="48.430529" lon="0.012646">
        <ele>147.360167</ele>
        <time>2025-06-25T19:26:17.941Z</time>
      </trkpt>
      <trkpt lat="48.430315" lon="0.011573">
        <ele>145.316356</ele>
        <time>2025-06-25T19:26:25.083Z</time>
      </trkpt>
      <trkpt lat="48.430069" lon="0.010282">
        <ele>141.673743</ele>
        <time>2025-06-25T19:26:33.326Z</time>
      </trkpt>
      <trkpt lat="48.429917" lon="0.009940">
        <ele>140.557423</ele>
        <time>2025-06-25T19:26:35.956Z</time>
      </trkpt>
      <trkpt lat="48.429702" lon="0.009550">
        <ele>139.182354</ele>
        <time>2025-06-25T19:26:39.369Z</time>
      </trkpt>
      <trkpt lat="48.429448" lon="0.009266">
        <ele>138.449802</ele>
        <time>2025-06-25T19:26:42.941Z</time>
      </trkpt>
      <trkpt lat="48.429262" lon="0.009057">
        <ele>138.413084</ele>
        <time>2025-06-25T19:26:46.092Z</time>
      </trkpt>
      <trkpt lat="48.429186" lon="0.008969">
        <ele>138.397917</ele>
        <time>2025-06-25T19:26:47.553Z</time>
      </trkpt>
      <trkpt lat="48.428559" lon="0.008217">
        <ele>138.271099</ele>
        <time>2025-06-25T19:27:01.551Z</time>
      </trkpt>
      <trkpt lat="48.428513" lon="0.008089">
        <ele>138.255813</ele>
        <time>2025-06-25T19:27:03.318Z</time>
      </trkpt>
      <trkpt lat="48.428526" lon="0.007873">
        <ele>138.233036</ele>
        <time>2025-06-25T19:27:05.793Z</time>
      </trkpt>
      <trkpt lat="48.428925" lon="0.006890">
        <ele>138.227029</ele>
        <time>2025-06-25T19:27:17.000Z</time>
      </trkpt>
      <trkpt lat="48.429093" lon="0.006603">
        <ele>138.247909</ele>
        <time>2025-06-25T19:27:20.259Z</time>
      </trkpt>
      <trkpt lat="48.429678" lon="0.005888">
        <ele>138.309836</ele>
        <time>2025-06-25T19:27:30.721Z</time>
      </trkpt>
      <trkpt lat="48.429819" lon="0.005640">
        <ele>138.327653</ele>
        <time>2025-06-25T19:27:34.469Z</time>
      </trkpt>
      <trkpt lat="48.430026" lon="0.004940">
        <ele>138.883184</ele>
        <time>2025-06-25T19:27:44.244Z</time>
      </trkpt>
      <trkpt lat="48.430258" lon="0.002910">
        <ele>140.700035</ele>
        <time>2025-06-25T19:28:13.074Z</time>
      </trkpt>
      <trkpt lat="48.430492" lon="-0.000345">
        <ele>143.709665</ele>
        <time>2025-06-25T19:28:58.295Z</time>
      </trkpt>
      <trkpt lat="48.430504" lon="-0.001432">
        <ele>144.352854</ele>
        <time>2025-06-25T19:29:11.155Z</time>
      </trkpt>
      <trkpt lat="48.430473" lon="-0.002083">
        <ele>144.738994</ele>
        <time>2025-06-25T19:29:18.508Z</time>
      </trkpt>
      <trkpt lat="48.430492" lon="-0.002529">
        <ele>145.006756</ele>
        <time>2025-06-25T19:29:23.642Z</time>
      </trkpt>
      <trkpt lat="48.430590" lon="-0.003018">
        <ele>145.491738</ele>
        <time>2025-06-25T19:29:29.858Z</time>
      </trkpt>
      <trkpt lat="48.430760" lon="-0.003551">
        <ele>146.053207</ele>
        <time>2025-06-25T19:29:37.549Z</time>
      </trkpt>
      <trkpt lat="48.430834" lon="-0.003917">
        <ele>146.416468</ele>
        <time>2025-06-25T19:29:42.791Z</time>
      </trkpt>
      <trkpt lat="48.430984" lon="-0.004907">
        <ele>147.380583</ele>
        <time>2025-06-25T19:29:57.456Z</time>
      </trkpt>
      <trkpt lat="48.431169" lon="-0.005922">
        <ele>149.000231</ele>
        <time>2025-06-25T19:30:13.472Z</time>
      </trkpt>
      <trkpt lat="48.431373" lon="-0.006620">
        <ele>150.279956</ele>
        <time>2025-06-25T19:30:25.613Z</time>
      </trkpt>
      <trkpt lat="48.431616" lon="-0.009299">
        <ele>155.790018</ele>
        <time>2025-06-25T19:31:14.841Z</time>
      </trkpt>
      <trkpt lat="48.431619" lon="-0.009765">
        <ele>156.854112</ele>
        <time>2025-06-25T19:31:24.268Z</time>
      </trkpt>
      <trkpt lat="48.431566" lon="-0.011021">
        <ele>159.723813</ele>
        <time>2025-06-25T19:31:49.708Z</time>
      </trkpt>
      <trkpt lat="48.431503" lon="-0.012264">
        <ele>162.562291</ele>
        <time>2025-06-25T19:32:13.745Z</time>
      </trkpt>
      <trkpt lat="48.431373" lon="-0.014033">
        <ele>166.240984</ele>
        <time>2025-06-25T19:32:44.822Z</time>
      </trkpt>
      <trkpt lat="48.431213" lon="-0.014964">
        <ele>168.046991</ele>
        <time>2025-06-25T19:33:01.264Z</time>
      </trkpt>
      <trkpt lat="48.431232" lon="-0.015114">
        <ele>168.333761</ele>
        <time>2025-06-25T19:33:04.432Z</time>
      </trkpt>
      <trkpt lat="48.431209" lon="-0.015644">
        <ele>169.331170</ele>
        <time>2025-06-25T19:33:15.387Z</time>
      </trkpt>
      <trkpt lat="48.430887" lon="-0.016891">
        <ele>172.464968</ele>
        <time>2025-06-25T19:33:44.090Z</time>
      </trkpt>
      <trkpt lat="48.430510" lon="-0.018591">
        <ele>177.174938</ele>
        <time>2025-06-25T19:34:26.687Z</time>
      </trkpt>
      <trkpt lat="48.430378" lon="-0.019206">
        <ele>179.660688</ele>
        <time>2025-06-25T19:34:44.746Z</time>
      </trkpt>
      <trkpt lat="48.430306" lon="-0.019805">
        <ele>182.001746</ele>
        <time>2025-06-25T19:35:03.159Z</time>
      </trkpt>
      <trkpt lat="48.430242" lon="-0.020147">
        <ele>183.368278</ele>
        <time>2025-06-25T19:35:14.201Z</time>
      </trkpt>
      <trkpt lat="48.429894" lon="-0.021267">
        <ele>188.094068</ele>
        <time>2025-06-25T19:35:52.348Z</time>
      </trkpt>
      <trkpt lat="48.429907" lon="-0.021615">
        <ele>189.409853</ele>
        <time>2025-06-25T19:36:02.695Z</time>
      </trkpt>
      <trkpt lat="48.430053" lon="-0.022211">
        <ele>191.808189</ele>
        <time>2025-06-25T19:36:21.201Z</time>
      </trkpt>
      <trkpt lat="48.430109" lon="-0.022719">
        <ele>193.752175</ele>
        <time>2025-06-25T19:36:35.840Z</time>
      </trkpt>
      <trkpt lat="48.430075" lon="-0.023114">
        <ele>195.255794</ele>
        <time>2025-06-25T19:36:46.716Z</time>
      </trkpt>
      <trkpt lat="48.429915" lon="-0.023912">
        <ele>197.622531</ele>
        <time>2025-06-25T19:37:08.414Z</time>
      </trkpt>
      <trkpt lat="48.429861" lon="-0.024203">
        <ele>198.236888</ele>
        <time>2025-06-25T19:37:15.874Z</time>
      </trkpt>
      <trkpt lat="48.429825" lon="-0.024623">
        <ele>199.097919</ele>
        <time>2025-06-25T19:37:25.897Z</time>
      </trkpt>
      <trkpt lat="48.429854" lon="-0.025171">
        <ele>200.215640</ele>
        <time>2025-06-25T19:37:37.930Z</time>
      </trkpt>
      <trkpt lat="48.430024" lon="-0.026256">
        <ele>202.279833</ele>
        <time>2025-06-25T19:37:57.907Z</time>
      </trkpt>
      <trkpt lat="48.430309" lon="-0.028444">
        <ele>203.271994</ele>
        <time>2025-06-25T19:38:30.591Z</time>
      </trkpt>
      <trkpt lat="48.430346" lon="-0.029161">
        <ele>203.576764</ele>
        <time>2025-06-25T19:38:41.138Z</time>
      </trkpt>
      <trkpt lat="48.430305" lon="-0.030805">
        <ele>204.240279</ele>
        <time>2025-06-25T19:39:06.181Z</time>
      </trkpt>
      <trkpt lat="48.430337" lon="-0.031190">
        <ele>204.396768</ele>
        <time>2025-06-25T19:39:12.065Z</time>
      </trkpt>
      <trkpt lat="48.430444" lon="-0.031972">
        <ele>204.618011</ele>
        <time>2025-06-25T19:39:23.828Z</time>
      </trkpt>
      <trkpt lat="48.430419" lon="-0.032893">
        <ele>204.798860</ele>
        <time>2025-06-25T19:39:36.837Z</time>
      </trkpt>
      <trkpt lat="48.430490" lon="-0.034451">
        <ele>205.056331</ele>
        <time>2025-06-25T19:39:58.549Z</time>
      </trkpt>
      <trkpt lat="48.430482" lon="-0.034801">
        <ele>205.058969</ele>
        <time>2025-06-25T19:40:03.451Z</time>
      </trkpt>
      <trkpt lat="48.430367" lon="-0.035400">
        <ele>205.063667</ele>
        <time>2025-06-25T19:40:12.004Z</time>
      </trkpt>
      <trkpt lat="48.430041" lon="-0.036146">
        <ele>205.070396</ele>
        <time>2025-06-25T19:40:23.994Z</time>
      </trkpt>
      <trkpt lat="48.429984" lon="-0.036406">
        <ele>205.072459</ele>
        <time>2025-06-25T19:40:27.632Z</time>
      </trkpt>
      <trkpt lat="48.429915" lon="-0.037225">
        <ele>204.926750</ele>
        <time>2025-06-25T19:40:38.276Z</time>
      </trkpt>
      <trkpt lat="48.429476" lon="-0.039518">
        <ele>204.080140</ele>
        <time>2025-06-25T19:41:08.161Z</time>
      </trkpt>
      <trkpt lat="48.429377" lon="-0.040274">
        <ele>203.210355</ele>
        <time>2025-06-25T19:41:16.729Z</time>
      </trkpt>
      <trkpt lat="48.429291" lon="-0.041739">
        <ele>201.550291</ele>
        <time>2025-06-25T19:41:31.876Z</time>
      </trkpt>
      <trkpt lat="48.429240" lon="-0.043176">
        <ele>200.052848</ele>
        <time>2025-06-25T19:41:46.770Z</time>
      </trkpt>
      <trkpt lat="48.429238" lon="-0.043225">
        <ele>200.002802</ele>
        <time>2025-06-25T19:41:47.293Z</time>
      </trkpt>
      <trkpt lat="48.429211" lon="-0.044096">
        <ele>199.113918</ele>
        <time>2025-06-25T19:41:56.973Z</time>
      </trkpt>
      <trkpt lat="48.429229" lon="-0.044370">
        <ele>198.833232</ele>
        <time>2025-06-25T19:42:00.186Z</time>
      </trkpt>
      <trkpt lat="48.429394" lon="-0.046154">
        <ele>197.216636</ele>
        <time>2025-06-25T19:42:21.547Z</time>
      </trkpt>
      <trkpt lat="48.429530" lon="-0.046969">
        <ele>196.487448</ele>
        <time>2025-06-25T19:42:30.759Z</time>
      </trkpt>
      <trkpt lat="48.429565" lon="-0.047752">
        <ele>195.401767</ele>
        <time>2025-06-25T19:42:38.894Z</time>
      </trkpt>
      <trkpt lat="48.429526" lon="-0.049625">
        <ele>191.680819</ele>
        <time>2025-06-25T19:42:57.220Z</time>
      </trkpt>
      <trkpt lat="48.429553" lon="-0.050072">
        <ele>190.789565</ele>
        <time>2025-06-25T19:43:01.479Z</time>
      </trkpt>
      <trkpt lat="48.429608" lon="-0.050520">
        <ele>189.369439</ele>
        <time>2025-06-25T19:43:05.743Z</time>
      </trkpt>
      <trkpt lat="48.429622" lon="-0.050839">
        <ele>188.351162</ele>
        <time>2025-06-25T19:43:08.699Z</time>
      </trkpt>
      <trkpt lat="48.429558" lon="-0.051388">
        <ele>186.575742</ele>
        <time>2025-06-25T19:43:13.794Z</time>
      </trkpt>
      <trkpt lat="48.429345" lon="-0.052666">
        <ele>182.378687</ele>
        <time>2025-06-25T19:43:25.476Z</time>
      </trkpt>
      <trkpt lat="48.429256" lon="-0.053578">
        <ele>179.438475</ele>
        <time>2025-06-25T19:43:33.469Z</time>
      </trkpt>
      <trkpt lat="48.429184" lon="-0.055144">
        <ele>174.430846</ele>
        <time>2025-06-25T19:43:47.339Z</time>
      </trkpt>
      <trkpt lat="48.429051" lon="-0.055811">
        <ele>174.570800</ele>
        <time>2025-06-25T19:43:54.308Z</time>
      </trkpt>
      <trkpt lat="48.429040" lon="-0.056053">
        <ele>175.261282</ele>
        <time>2025-06-25T19:43:57.686Z</time>
      </trkpt>
      <trkpt lat="48.429137" lon="-0.056760">
        <ele>177.316368</ele>
        <time>2025-06-25T19:44:13.312Z</time>
      </trkpt>
      <trkpt lat="48.429145" lon="-0.057222">
        <ele>178.631925</ele>
        <time>2025-06-25T19:44:27.285Z</time>
      </trkpt>
      <trkpt lat="48.429142" lon="-0.057337">
        <ele>178.959531</ele>
        <time>2025-06-25T19:44:31.200Z</time>
      </trkpt>
      <trkpt lat="48.429149" lon="-0.057473">
        <ele>179.347826</ele>
        <time>2025-06-25T19:44:35.950Z</time>
      </trkpt>
      <trkpt lat="48.429186" lon="-0.057684">
        <ele>179.969068</ele>
        <time>2025-06-25T19:44:43.988Z</time>
      </trkpt>
      <trkpt lat="48.429411" lon="-0.058379">
        <ele>183.224630</ele>
        <time>2025-06-25T19:45:15.608Z</time>
      </trkpt>
      <trkpt lat="48.429487" lon="-0.058720">
        <ele>185.331224</ele>
        <time>2025-06-25T19:45:31.469Z</time>
      </trkpt>
      <trkpt lat="48.429594" lon="-0.059341">
        <ele>189.088512</ele>
        <time>2025-06-25T19:45:58.452Z</time>
      </trkpt>
      <trkpt lat="48.429716" lon="-0.060301">
        <ele>194.812600</ele>
        <time>2025-06-25T19:46:33.558Z</time>
      </trkpt>
      <trkpt lat="48.429774" lon="-0.060525">
        <ele>196.220714</ele>
        <time>2025-06-25T19:46:41.223Z</time>
      </trkpt>
      <trkpt lat="48.429778" lon="-0.062267">
        <ele>201.822489</ele>
        <time>2025-06-25T19:47:27.450Z</time>
      </trkpt>
      <trkpt lat="48.429831" lon="-0.062524">
        <ele>202.625259</ele>
        <time>2025-06-25T19:47:33.792Z</time>
      </trkpt>
      <trkpt lat="48.429729" lon="-0.062729">
        <ele>203.389571</ele>
        <time>2025-06-25T19:47:38.786Z</time>
      </trkpt>
      <trkpt lat="48.429806" lon="-0.062870">
        <ele>203.934282</ele>
        <time>2025-06-25T19:47:42.936Z</time>
      </trkpt>
      <trkpt lat="48.430029" lon="-0.063670">
        <ele>205.375931</ele>
        <time>2025-06-25T19:48:01.175Z</time>
      </trkpt>
      <trkpt lat="48.430170" lon="-0.064424">
        <ele>205.784463</ele>
        <time>2025-06-25T19:48:15.195Z</time>
      </trkpt>
      <trkpt lat="48.430222" lon="-0.064855">
        <ele>206.012916</ele>
        <time>2025-06-25T19:48:22.020Z</time>
      </trkpt>
      <trkpt lat="48.430343" lon="-0.065390">
        <ele>206.307683</ele>
        <time>2025-06-25T19:48:29.231Z</time>
      </trkpt>
      <trkpt lat="48.430418" lon="-0.065779">
        <ele>206.518938</ele>
        <time>2025-06-25T19:48:33.826Z</time>
      </trkpt>
      <trkpt lat="48.430455" lon="-0.066146">
        <ele>206.062701</ele>
        <time>2025-06-25T19:48:37.793Z</time>
      </trkpt>
      <trkpt lat="48.430453" lon="-0.066685">
        <ele>205.242770</ele>
        <time>2025-06-25T19:48:43.308Z</time>
      </trkpt>
      <trkpt lat="48.430489" lon="-0.067188">
        <ele>204.473177</ele>
        <time>2025-06-25T19:48:48.330Z</time>
      </trkpt>
      <trkpt lat="48.430591" lon="-0.067831">
        <ele>203.467493</ele>
        <time>2025-06-25T19:48:54.809Z</time>
      </trkpt>
      <trkpt lat="48.430776" lon="-0.068876">
        <ele>202.037458</ele>
        <time>2025-06-25T19:49:05.681Z</time>
      </trkpt>
      <trkpt lat="48.430834" lon="-0.069357">
        <ele>201.560140</ele>
        <time>2025-06-25T19:49:10.748Z</time>
      </trkpt>
      <trkpt lat="48.431038" lon="-0.071931">
        <ele>199.876824</ele>
        <time>2025-06-25T19:49:40.427Z</time>
      </trkpt>
      <trkpt lat="48.430989" lon="-0.072432">
        <ele>199.943219</ele>
        <time>2025-06-25T19:49:47.233Z</time>
      </trkpt>
      <trkpt lat="48.430839" lon="-0.073014">
        <ele>200.025078</ele>
        <time>2025-06-25T19:49:56.392Z</time>
      </trkpt>
      <trkpt lat="48.430813" lon="-0.073115">
        <ele>200.039282</ele>
        <time>2025-06-25T19:49:58.069Z</time>
      </trkpt>
      <trkpt lat="48.430659" lon="-0.073793">
        <ele>200.142935</ele>
        <time>2025-06-25T19:50:09.813Z</time>
      </trkpt>
      <trkpt lat="48.430308" lon="-0.078425">
        <ele>205.010352</ele>
        <time>2025-06-25T19:51:33.476Z</time>
      </trkpt>
      <trkpt lat="48.430250" lon="-0.078694">
        <ele>205.298490</ele>
        <time>2025-06-25T19:51:38.252Z</time>
      </trkpt>
      <trkpt lat="48.429816" lon="-0.080114">
        <ele>206.717357</ele>
        <time>2025-06-25T19:52:03.755Z</time>
      </trkpt>
      <trkpt lat="48.429659" lon="-0.080959">
        <ele>207.472310</ele>
        <time>2025-06-25T19:52:18.193Z</time>
      </trkpt>
      <trkpt lat="48.429667" lon="-0.081171">
        <ele>207.654998</ele>
        <time>2025-06-25T19:52:21.816Z</time>
      </trkpt>
      <trkpt lat="48.429753" lon="-0.081365">
        <ele>207.855726</ele>
        <time>2025-06-25T19:52:25.832Z</time>
      </trkpt>
      <trkpt lat="48.430135" lon="-0.081819">
        <ele>208.762381</ele>
        <time>2025-06-25T19:52:38.875Z</time>
      </trkpt>
      <trkpt lat="48.430585" lon="-0.082268">
        <ele>209.968680</ele>
        <time>2025-06-25T19:52:54.141Z</time>
      </trkpt>
      <trkpt lat="48.430929" lon="-0.082568">
        <ele>210.857039</ele>
        <time>2025-06-25T19:53:05.890Z</time>
      </trkpt>
      <trkpt lat="48.431552" lon="-0.083002">
        <ele>212.389570</ele>
        <time>2025-06-25T19:53:27.535Z</time>
      </trkpt>
      <trkpt lat="48.431701" lon="-0.083211">
        <ele>212.841867</ele>
        <time>2025-06-25T19:53:34.203Z</time>
      </trkpt>
      <trkpt lat="48.432221" lon="-0.084476">
        <ele>215.035862</ele>
        <time>2025-06-25T19:54:04.486Z</time>
      </trkpt>
      <trkpt lat="48.431514" lon="-0.085756">
        <ele>216.144664</ele>
        <time>2025-06-25T19:54:25.936Z</time>
      </trkpt>
      <trkpt lat="48.430102" lon="-0.087139">
        <ele>215.273315</ele>
        <time>2025-06-25T19:54:48.002Z</time>
      </trkpt>
      <trkpt lat="48.428892" lon="-0.089095">
        <ele>211.643487</ele>
        <time>2025-06-25T19:55:06.919Z</time>
      </trkpt>
      <trkpt lat="48.427846" lon="-0.091290">
        <ele>207.268371</ele>
        <time>2025-06-25T19:55:25.553Z</time>
      </trkpt>
      <trkpt lat="48.427727" lon="-0.091629">
        <ele>206.798123</ele>
        <time>2025-06-25T19:55:28.253Z</time>
      </trkpt>
      <trkpt lat="48.427664" lon="-0.091912">
        <ele>206.432111</ele>
        <time>2025-06-25T19:55:30.482Z</time>
      </trkpt>
      <trkpt lat="48.427709" lon="-0.092199">
        <ele>206.070511</ele>
        <time>2025-06-25T19:55:32.801Z</time>
      </trkpt>
      <trkpt lat="48.427838" lon="-0.092662">
        <ele>205.454785</ele>
        <time>2025-06-25T19:55:36.812Z</time>
      </trkpt>
      <trkpt lat="48.427863" lon="-0.092718">
        <ele>205.372026</ele>
        <time>2025-06-25T19:55:37.379Z</time>
      </trkpt>
      <trkpt lat="48.427874" lon="-0.092743">
        <ele>205.335245</ele>
        <time>2025-06-25T19:55:37.623Z</time>
      </trkpt>
      <trkpt lat="48.427969" lon="-0.092953">
        <ele>205.023606</ele>
        <time>2025-06-25T19:55:39.652Z</time>
      </trkpt>
      <trkpt lat="48.428007" lon="-0.093033">
        <ele>204.902972</ele>
        <time>2025-06-25T19:55:40.401Z</time>
      </trkpt>
      <trkpt lat="48.428262" lon="-0.093501">
        <ele>204.144417</ele>
        <time>2025-06-25T19:55:45.243Z</time>
      </trkpt>
      <trkpt lat="48.428187" lon="-0.093695">
        <ele>203.862383</ele>
        <time>2025-06-25T19:55:47.033Z</time>
      </trkpt>
      <trkpt lat="48.427698" lon="-0.094688">
        <ele>202.309064</ele>
        <time>2025-06-25T19:55:56.354Z</time>
      </trkpt>
      <trkpt lat="48.427571" lon="-0.094860">
        <ele>201.985829</ele>
        <time>2025-06-25T19:55:58.106Z</time>
      </trkpt>
      <trkpt lat="48.426447" lon="-0.095706">
        <ele>199.683667</ele>
        <time>2025-06-25T19:56:10.922Z</time>
      </trkpt>
      <trkpt lat="48.426315" lon="-0.095882">
        <ele>199.364118</ele>
        <time>2025-06-25T19:56:12.854Z</time>
      </trkpt>
      <trkpt lat="48.426249" lon="-0.096047">
        <ele>199.132330</ele>
        <time>2025-06-25T19:56:14.310Z</time>
      </trkpt>
      <trkpt lat="48.426217" lon="-0.096233">
        <ele>198.901154</ele>
        <time>2025-06-25T19:56:15.809Z</time>
      </trkpt>
      <trkpt lat="48.426217" lon="-0.096419">
        <ele>198.677377</ele>
        <time>2025-06-25T19:56:17.314Z</time>
      </trkpt>
      <trkpt lat="48.426405" lon="-0.097181">
        <ele>198.731758</ele>
        <time>2025-06-25T19:56:25.617Z</time>
      </trkpt>
      <trkpt lat="48.426443" lon="-0.097896">
        <ele>199.843231</ele>
        <time>2025-06-25T19:56:36.754Z</time>
      </trkpt>
      <trkpt lat="48.426454" lon="-0.098188">
        <ele>200.296426</ele>
        <time>2025-06-25T19:56:42.079Z</time>
      </trkpt>
      <trkpt lat="48.426498" lon="-0.099591">
        <ele>202.429139</ele>
        <time>2025-06-25T19:57:09.135Z</time>
      </trkpt>
      <trkpt lat="48.426490" lon="-0.099885">
        <ele>202.722014</ele>
        <time>2025-06-25T19:57:14.626Z</time>
      </trkpt>
      <trkpt lat="48.426380" lon="-0.101010">
        <ele>203.853860</ele>
        <time>2025-06-25T19:57:32.321Z</time>
      </trkpt>
      <trkpt lat="48.426398" lon="-0.101314">
        <ele>204.157645</ele>
        <time>2025-06-25T19:57:35.890Z</time>
      </trkpt>
      <trkpt lat="48.426454" lon="-0.101568">
        <ele>204.424049</ele>
        <time>2025-06-25T19:57:38.657Z</time>
      </trkpt>
      <trkpt lat="48.426606" lon="-0.102057">
        <ele>204.961521</ele>
        <time>2025-06-25T19:57:43.709Z</time>
      </trkpt>
      <trkpt lat="48.426681" lon="-0.102267">
        <ele>205.128213</ele>
        <time>2025-06-25T19:57:45.861Z</time>
      </trkpt>
      <trkpt lat="48.426743" lon="-0.102555">
        <ele>205.287960</ele>
        <time>2025-06-25T19:57:48.603Z</time>
      </trkpt>
      <trkpt lat="48.426844" lon="-0.103440">
        <ele>205.761745</ele>
        <time>2025-06-25T19:57:57.500Z</time>
      </trkpt>
      <trkpt lat="48.426836" lon="-0.103770">
        <ele>205.935971</ele>
        <time>2025-06-25T19:58:01.181Z</time>
      </trkpt>
      <trkpt lat="48.426454" lon="-0.105684">
        <ele>207.962247</ele>
        <time>2025-06-25T19:58:31.449Z</time>
      </trkpt>
      <trkpt lat="48.426361" lon="-0.106639">
        <ele>209.438215</ele>
        <time>2025-06-25T19:58:48.637Z</time>
      </trkpt>
      <trkpt lat="48.426328" lon="-0.107795">
        <ele>210.896049</ele>
        <time>2025-06-25T19:59:07.045Z</time>
      </trkpt>
      <trkpt lat="48.426223" lon="-0.108396">
        <ele>211.339695</ele>
        <time>2025-06-25T19:59:14.340Z</time>
      </trkpt>
      <trkpt lat="48.426100" lon="-0.108771">
        <ele>211.638307</ele>
        <time>2025-06-25T19:59:18.993Z</time>
      </trkpt>
      <trkpt lat="48.426002" lon="-0.109478">
        <ele>212.153896</ele>
        <time>2025-06-25T19:59:27.276Z</time>
      </trkpt>
      <trkpt lat="48.425910" lon="-0.109836">
        <ele>212.427952</ele>
        <time>2025-06-25T19:59:31.770Z</time>
      </trkpt>
      <trkpt lat="48.425867" lon="-0.109964">
        <ele>212.530367</ele>
        <time>2025-06-25T19:59:33.465Z</time>
      </trkpt>
      <trkpt lat="48.425741" lon="-0.110414">
        <ele>213.286429</ele>
        <time>2025-06-25T19:59:39.628Z</time>
      </trkpt>
      <trkpt lat="48.425709" lon="-0.110605">
        <ele>213.605634</ele>
        <time>2025-06-25T19:59:42.348Z</time>
      </trkpt>
      <trkpt lat="48.425705" lon="-0.111043">
        <ele>214.315431</ele>
        <time>2025-06-25T19:59:49.134Z</time>
      </trkpt>
      <trkpt lat="48.425759" lon="-0.111744">
        <ele>215.458949</ele>
        <time>2025-06-25T20:00:01.780Z</time>
      </trkpt>
      <trkpt lat="48.425747" lon="-0.112054">
        <ele>215.962123</ele>
        <time>2025-06-25T20:00:07.573Z</time>
      </trkpt>
      <trkpt lat="48.425584" lon="-0.113266">
        <ele>218.242664</ele>
        <time>2025-06-25T20:00:30.325Z</time>
      </trkpt>
      <trkpt lat="48.425581" lon="-0.113669">
        <ele>219.073627</ele>
        <time>2025-06-25T20:00:37.728Z</time>
      </trkpt>
      <trkpt lat="48.425548" lon="-0.115136">
        <ele>222.100045</ele>
        <time>2025-06-25T20:01:04.088Z</time>
      </trkpt>
      <trkpt lat="48.425452" lon="-0.115851">
        <ele>223.396881</ele>
        <time>2025-06-25T20:01:17.179Z</time>
      </trkpt>
      <trkpt lat="48.425341" lon="-0.117565">
        <ele>226.256969</ele>
        <time>2025-06-25T20:01:47.300Z</time>
      </trkpt>
      <trkpt lat="48.425240" lon="-0.118057">
        <ele>227.027695</ele>
        <time>2025-06-25T20:01:54.898Z</time>
      </trkpt>
      <trkpt lat="48.425073" lon="-0.118555">
        <ele>226.867681</ele>
        <time>2025-06-25T20:02:01.951Z</time>
      </trkpt>
      <trkpt lat="48.423944" lon="-0.120221">
        <ele>226.216514</ele>
        <time>2025-06-25T20:02:20.727Z</time>
      </trkpt>
      <trkpt lat="48.423116" lon="-0.121113">
        <ele>225.955351</ele>
        <time>2025-06-25T20:02:33.391Z</time>
      </trkpt>
      <trkpt lat="48.423060" lon="-0.121206">
        <ele>225.933968</ele>
        <time>2025-06-25T20:02:34.741Z</time>
      </trkpt>
      <trkpt lat="48.422954" lon="-0.121443">
        <ele>225.885302</ele>
        <time>2025-06-25T20:02:37.964Z</time>
      </trkpt>
      <trkpt lat="48.422634" lon="-0.122516">
        <ele>226.091392</ele>
        <time>2025-06-25T20:02:53.665Z</time>
      </trkpt>
      <trkpt lat="48.422472" lon="-0.122943">
        <ele>226.300164</ele>
        <time>2025-06-25T20:03:00.961Z</time>
      </trkpt>
      <trkpt lat="48.421391" lon="-0.125082">
        <ele>226.558944</ele>
        <time>2025-06-25T20:03:27.975Z</time>
      </trkpt>
      <trkpt lat="48.420918" lon="-0.126031">
        <ele>226.154769</ele>
        <time>2025-06-25T20:03:37.632Z</time>
      </trkpt>
      <trkpt lat="48.420800" lon="-0.126363">
        <ele>226.024810</ele>
        <time>2025-06-25T20:03:40.664Z</time>
      </trkpt>
      <trkpt lat="48.420735" lon="-0.126679">
        <ele>225.828162</ele>
        <time>2025-06-25T20:03:43.342Z</time>
      </trkpt>
      <trkpt lat="48.420664" lon="-0.127471">
        <ele>225.353115</ele>
        <time>2025-06-25T20:03:50.253Z</time>
      </trkpt>
      <trkpt lat="48.420595" lon="-0.127716">
        <ele>225.194915</ele>
        <time>2025-06-25T20:03:52.594Z</time>
      </trkpt>
      <trkpt lat="48.420471" lon="-0.127969">
        <ele>225.007964</ele>
        <time>2025-06-25T20:03:55.356Z</time>
      </trkpt>
      <trkpt lat="48.420135" lon="-0.128457">
        <ele>224.589984</ele>
        <time>2025-06-25T20:04:01.487Z</time>
      </trkpt>
      <trkpt lat="48.419346" lon="-0.129547">
        <ele>222.495516</ele>
        <time>2025-06-25T20:04:13.243Z</time>
      </trkpt>
      <trkpt lat="48.419240" lon="-0.129731">
        <ele>222.141567</ele>
        <time>2025-06-25T20:04:14.892Z</time>
      </trkpt>
      <trkpt lat="48.419204" lon="-0.129855">
        <ele>221.944952</ele>
        <time>2025-06-25T20:04:15.795Z</time>
      </trkpt>
      <trkpt lat="48.419185" lon="-0.129970">
        <ele>221.772793</ele>
        <time>2025-06-25T20:04:16.607Z</time>
      </trkpt>
      <trkpt lat="48.419184" lon="-0.130132">
        <ele>221.537446</ele>
        <time>2025-06-25T20:04:17.692Z</time>
      </trkpt>
      <trkpt lat="48.419202" lon="-0.130322">
        <ele>221.258636</ele>
        <time>2025-06-25T20:04:18.988Z</time>
      </trkpt>
      <trkpt lat="48.419297" lon="-0.130556">
        <ele>220.860148</ele>
        <time>2025-06-25T20:04:20.864Z</time>
      </trkpt>
      <trkpt lat="48.419945" lon="-0.131660">
        <ele>220.381882</ele>
        <time>2025-06-25T20:04:31.998Z</time>
      </trkpt>
      <trkpt lat="48.420549" lon="-0.132571">
        <ele>220.276799</ele>
        <time>2025-06-25T20:04:47.935Z</time>
      </trkpt>
      <trkpt lat="48.420641" lon="-0.132509">
        <ele>220.264407</ele>
        <time>2025-06-25T20:04:50.654Z</time>
      </trkpt>
      <trkpt lat="48.420774" lon="-0.132509">
        <ele>220.595438</ele>
        <time>2025-06-25T20:04:54.328Z</time>
      </trkpt>
      <trkpt lat="48.421054" lon="-0.132604">
        <ele>221.614202</ele>
        <time>2025-06-25T20:05:02.460Z</time>
      </trkpt>
      <trkpt lat="48.421351" lon="-0.132768">
        <ele>222.736982</ele>
        <time>2025-06-25T20:05:11.788Z</time>
      </trkpt>
      <trkpt lat="48.421396" lon="-0.132792">
        <ele>222.906423</ele>
        <time>2025-06-25T20:05:13.281Z</time>
      </trkpt>
      <trkpt lat="48.422038" lon="-0.133147">
        <ele>225.333841</ele>
        <time>2025-06-25T20:05:36.970Z</time>
      </trkpt>
      <trkpt lat="48.422254" lon="-0.133392">
        <ele>226.293486</ele>
        <time>2025-06-25T20:05:48.222Z</time>
      </trkpt>
      <trkpt lat="48.422445" lon="-0.133693">
        <ele>227.963917</ele>
        <time>2025-06-25T20:06:00.732Z</time>
      </trkpt>
      <trkpt lat="48.422597" lon="-0.134006">
        <ele>229.876712</ele>
        <time>2025-06-25T20:06:13.172Z</time>
      </trkpt>
      <trkpt lat="48.422764" lon="-0.134445">
        <ele>232.372229</ele>
        <time>2025-06-25T20:06:30.497Z</time>
      </trkpt>
      <trkpt lat="48.423081" lon="-0.135839">
        <ele>239.639475</ele>
        <time>2025-06-25T20:07:22.877Z</time>
      </trkpt>
      <trkpt lat="48.423139" lon="-0.136091">
        <ele>240.713765</ele>
        <time>2025-06-25T20:07:31.950Z</time>
      </trkpt>
      <trkpt lat="48.423250" lon="-0.136275">
        <ele>241.626934</ele>
        <time>2025-06-25T20:07:40.244Z</time>
      </trkpt>
      <trkpt lat="48.423533" lon="-0.136566">
        <ele>243.522852</ele>
        <time>2025-06-25T20:07:56.589Z</time>
      </trkpt>
      <trkpt lat="48.423886" lon="-0.136823">
        <ele>245.692307</ele>
        <time>2025-06-25T20:08:13.588Z</time>
      </trkpt>
      <trkpt lat="48.424326" lon="-0.137001">
        <ele>248.213369</ele>
        <time>2025-06-25T20:08:31.070Z</time>
      </trkpt>
      <trkpt lat="48.424589" lon="-0.137181">
        <ele>249.811817</ele>
        <time>2025-06-25T20:08:41.073Z</time>
      </trkpt>
      <trkpt lat="48.424819" lon="-0.137588">
        <ele>250.778137</ele>
        <time>2025-06-25T20:08:52.331Z</time>
      </trkpt>
      <trkpt lat="48.425660" lon="-0.139391">
        <ele>254.416783</ele>
        <time>2025-06-25T20:09:34.094Z</time>
      </trkpt>
      <trkpt lat="48.425821" lon="-0.139652">
        <ele>255.167889</ele>
        <time>2025-06-25T20:09:41.276Z</time>
      </trkpt>
      <trkpt lat="48.426011" lon="-0.139883">
        <ele>255.949889</ele>
        <time>2025-06-25T20:09:48.914Z</time>
      </trkpt>
      <trkpt lat="48.426223" lon="-0.140116">
        <ele>256.790403</ele>
        <time>2025-06-25T20:09:57.406Z</time>
      </trkpt>
      <trkpt lat="48.426712" lon="-0.140510">
        <ele>258.566635</ele>
        <time>2025-06-25T20:10:16.502Z</time>
      </trkpt>
      <trkpt lat="48.427270" lon="-0.140780">
        <ele>260.484589</ele>
        <time>2025-06-25T20:10:37.051Z</time>
      </trkpt>
      <trkpt lat="48.427561" lon="-0.140892">
        <ele>261.607314</ele>
        <time>2025-06-25T20:10:47.433Z</time>
      </trkpt>
      <trkpt lat="48.428126" lon="-0.141229">
        <ele>263.878791</ele>
        <time>2025-06-25T20:11:08.724Z</time>
      </trkpt>
      <trkpt lat="48.428400" lon="-0.141334">
        <ele>264.935646</ele>
        <time>2025-06-25T20:11:18.743Z</time>
      </trkpt>
      <trkpt lat="48.428702" lon="-0.141414">
        <ele>266.081882</ele>
        <time>2025-06-25T20:11:29.429Z</time>
      </trkpt>
      <trkpt lat="48.429290" lon="-0.141475">
        <ele>268.401877</ele>
        <time>2025-06-25T20:11:50.451Z</time>
      </trkpt>
      <trkpt lat="48.429510" lon="-0.141456">
        <ele>269.296286</ele>
        <time>2025-06-25T20:11:58.423Z</time>
      </trkpt>
      <trkpt lat="48.430162" lon="-0.141418">
        <ele>271.944625</ele>
        <time>2025-06-25T20:12:22.518Z</time>
      </trkpt>
      <trkpt lat="48.431492" lon="-0.141341">
        <ele>278.091309</ele>
        <time>2025-06-25T20:13:11.675Z</time>
      </trkpt>
      <trkpt lat="48.431921" lon="-0.141379">
        <ele>280.251429</ele>
        <time>2025-06-25T20:13:28.580Z</time>
      </trkpt>
      <trkpt lat="48.432797" lon="-0.141569">
        <ele>285.001194</ele>
        <time>2025-06-25T20:14:07.971Z</time>
      </trkpt>
      <trkpt lat="48.433786" lon="-0.141738">
        <ele>291.054528</ele>
        <time>2025-06-25T20:14:55.369Z</time>
      </trkpt>
      <trkpt lat="48.434132" lon="-0.141980">
        <ele>293.374330</ele>
        <time>2025-06-25T20:15:11.991Z</time>
      </trkpt>
      <trkpt lat="48.434282" lon="-0.142228">
        <ele>294.474095</ele>
        <time>2025-06-25T20:15:20.976Z</time>
      </trkpt>
      <trkpt lat="48.434439" lon="-0.142562">
        <ele>295.324236</ele>
        <time>2025-06-25T20:15:31.187Z</time>
      </trkpt>
      <trkpt lat="48.434680" lon="-0.143155">
        <ele>296.768531</ele>
        <time>2025-06-25T20:15:46.653Z</time>
      </trkpt>
      <trkpt lat="48.435040" lon="-0.144443">
        <ele>299.671249</ele>
        <time>2025-06-25T20:16:13.324Z</time>
      </trkpt>
      <trkpt lat="48.435654" lon="-0.146821">
        <ele>303.994754</ele>
        <time>2025-06-25T20:17:02.614Z</time>
      </trkpt>
      <trkpt lat="48.435899" lon="-0.147849">
        <ele>307.288175</ele>
        <time>2025-06-25T20:17:28.708Z</time>
      </trkpt>
      <trkpt lat="48.436004" lon="-0.148202">
        <ele>308.598186</ele>
        <time>2025-06-25T20:17:38.886Z</time>
      </trkpt>
      <trkpt lat="48.436183" lon="-0.148511">
        <ele>309.987288</ele>
        <time>2025-06-25T20:17:50.598Z</time>
      </trkpt>
      <trkpt lat="48.436383" lon="-0.148782">
        <ele>311.359951</ele>
        <time>2025-06-25T20:18:02.604Z</time>
      </trkpt>
      <trkpt lat="48.436567" lon="-0.148971">
        <ele>312.496440</ele>
        <time>2025-06-25T20:18:12.724Z</time>
      </trkpt>
      <trkpt lat="48.436850" lon="-0.149135">
        <ele>314.081290</ele>
        <time>2025-06-25T20:18:26.717Z</time>
      </trkpt>
      <trkpt lat="48.436895" lon="-0.149147">
        <ele>314.333118</ele>
        <time>2025-06-25T20:18:28.885Z</time>
      </trkpt>
      <trkpt lat="48.437063" lon="-0.149193">
        <ele>315.274052</ele>
        <time>2025-06-25T20:18:36.773Z</time>
      </trkpt>
      <trkpt lat="48.437266" lon="-0.149163">
        <ele>316.398070</ele>
        <time>2025-06-25T20:18:46.101Z</time>
      </trkpt>
      <trkpt lat="48.437437" lon="-0.149072">
        <ele>317.397390</ele>
        <time>2025-06-25T20:18:54.312Z</time>
      </trkpt>
      <trkpt lat="48.438036" lon="-0.148533">
        <ele>321.241696</ele>
        <time>2025-06-25T20:19:24.079Z</time>
      </trkpt>
      <trkpt lat="48.438387" lon="-0.148278">
        <ele>323.388861</ele>
        <time>2025-06-25T20:19:38.923Z</time>
      </trkpt>
      <trkpt lat="48.438734" lon="-0.148116">
        <ele>324.774238</ele>
        <time>2025-06-25T20:19:51.986Z</time>
      </trkpt>
      <trkpt lat="48.442367" lon="-0.147199">
        <ele>340.284979</ele>
        <time>2025-06-25T20:21:58.049Z</time>
      </trkpt>
      <trkpt lat="48.443049" lon="-0.146964">
        <ele>345.994088</ele>
        <time>2025-06-25T20:22:34.908Z</time>
      </trkpt>
      <trkpt lat="48.443663" lon="-0.146689">
        <ele>351.221203</ele>
        <time>2025-06-25T20:23:16.250Z</time>
      </trkpt>
      <trkpt lat="48.444030" lon="-0.146461">
        <ele>355.591407</ele>
        <time>2025-06-25T20:23:44.629Z</time>
      </trkpt>
      <trkpt lat="48.444196" lon="-0.146302">
        <ele>357.797258</ele>
        <time>2025-06-25T20:23:58.853Z</time>
      </trkpt>
      <trkpt lat="48.444486" lon="-0.145772">
        <ele>362.908811</ele>
        <time>2025-06-25T20:24:30.471Z</time>
      </trkpt>
      <trkpt lat="48.444633" lon="-0.145293">
        <ele>366.835445</ele>
        <time>2025-06-25T20:24:53.156Z</time>
      </trkpt>
      <trkpt lat="48.444904" lon="-0.144573">
        <ele>372.588843</ele>
        <time>2025-06-25T20:25:25.901Z</time>
      </trkpt>
      <trkpt lat="48.445026" lon="-0.144377">
        <ele>374.001424</ele>
        <time>2025-06-25T20:25:35.750Z</time>
      </trkpt>
      <trkpt lat="48.445118" lon="-0.144325">
        <ele>374.779878</ele>
        <time>2025-06-25T20:25:41.026Z</time>
      </trkpt>
      <trkpt lat="48.446207" lon="-0.144035">
        <ele>383.541479</ele>
        <time>2025-06-25T20:26:35.496Z</time>
      </trkpt>
      <trkpt lat="48.446415" lon="-0.144021">
        <ele>385.191081</ele>
        <time>2025-06-25T20:26:45.816Z</time>
      </trkpt>
      <trkpt lat="48.446746" lon="-0.144148">
        <ele>387.883520</ele>
        <time>2025-06-25T20:27:03.066Z</time>
      </trkpt>
      <trkpt lat="48.447514" lon="-0.144649">
        <ele>394.469054</ele>
        <time>2025-06-25T20:27:46.808Z</time>
      </trkpt>
      <trkpt lat="48.448027" lon="-0.144807">
        <ele>398.589625</ele>
        <time>2025-06-25T20:28:14.433Z</time>
      </trkpt>
      <trkpt lat="48.448339" lon="-0.144822">
        <ele>400.784722</ele>
        <time>2025-06-25T20:28:30.825Z</time>
      </trkpt>
      <trkpt lat="48.448605" lon="-0.144930">
        <ele>402.401103</ele>
        <time>2025-06-25T20:28:44.765Z</time>
      </trkpt>
      <trkpt lat="48.448828" lon="-0.145125">
        <ele>403.913732</ele>
        <time>2025-06-25T20:28:57.313Z</time>
      </trkpt>
      <trkpt lat="48.448992" lon="-0.145205">
        <ele>404.925129</ele>
        <time>2025-06-25T20:29:05.478Z</time>
      </trkpt>
      <trkpt lat="48.449044" lon="-0.145180">
        <ele>405.245380</ele>
        <time>2025-06-25T20:29:08.031Z</time>
      </trkpt>
      <trkpt lat="48.449156" lon="-0.145125">
        <ele>405.936530</ele>
        <time>2025-06-25T20:29:13.382Z</time>
      </trkpt>
      <trkpt lat="48.450078" lon="-0.144668">
        <ele>410.604050</ele>
        <time>2025-06-25T20:29:50.514Z</time>
      </trkpt>
      <trkpt lat="48.450237" lon="-0.144588">
        <ele>410.633817</ele>
        <time>2025-06-25T20:30:02.148Z</time>
      </trkpt>
      <trkpt lat="48.450336" lon="-0.144538">
        <ele>410.652358</ele>
        <time>2025-06-25T20:30:09.413Z</time>
      </trkpt>
      <trkpt lat="48.450489" lon="-0.144462">
        <ele>410.680965</ele>
        <time>2025-06-25T20:30:20.604Z</time>
      </trkpt>
      <trkpt lat="48.450639" lon="-0.144423">
        <ele>410.707996</ele>
        <time>2025-06-25T20:30:31.188Z</time>
      </trkpt>
      <trkpt lat="48.450644" lon="-0.144421">
        <ele>410.708914</ele>
        <time>2025-06-25T20:30:31.529Z</time>
      </trkpt>
      <trkpt lat="48.450724" lon="-0.144343">
        <ele>410.725833</ele>
        <time>2025-06-25T20:30:38.185Z</time>
      </trkpt>
      <trkpt lat="48.450644" lon="-0.144421">
        <ele>410.742751</ele>
        <time>2025-06-25T20:30:44.840Z</time>
      </trkpt>
      <trkpt lat="48.450639" lon="-0.144423">
        <ele>410.743670</ele>
        <time>2025-06-25T20:30:45.181Z</time>
      </trkpt>
      <trkpt lat="48.450489" lon="-0.144462">
        <ele>410.770701</ele>
        <time>2025-06-25T20:30:55.765Z</time>
      </trkpt>
      <trkpt lat="48.450336" lon="-0.144538">
        <ele>410.799308</ele>
        <time>2025-06-25T20:31:06.956Z</time>
      </trkpt>
      <trkpt lat="48.450237" lon="-0.144588">
        <ele>410.817849</ele>
        <time>2025-06-25T20:31:14.221Z</time>
      </trkpt>
      <trkpt lat="48.450078" lon="-0.144668">
        <ele>410.847615</ele>
        <time>2025-06-25T20:31:25.855Z</time>
      </trkpt>
      <trkpt lat="48.449156" lon="-0.145125">
        <ele>409.318841</ele>
        <time>2025-06-25T20:31:40.156Z</time>
      </trkpt>
      <trkpt lat="48.449044" lon="-0.145180">
        <ele>409.062989</ele>
        <time>2025-06-25T20:31:41.902Z</time>
      </trkpt>
      <trkpt lat="48.448992" lon="-0.145205">
        <ele>408.944438</ele>
        <time>2025-06-25T20:31:42.699Z</time>
      </trkpt>
      <trkpt lat="48.449330" lon="-0.147739">
        <ele>405.511886</ele>
        <time>2025-06-25T20:32:02.439Z</time>
      </trkpt>
      <trkpt lat="48.449321" lon="-0.147855">
        <ele>405.371409</ele>
        <time>2025-06-25T20:32:03.364Z</time>
      </trkpt>
      <trkpt lat="48.449212" lon="-0.148781">
        <ele>404.240207</ele>
        <time>2025-06-25T20:32:13.534Z</time>
      </trkpt>
      <trkpt lat="48.448959" lon="-0.150904">
        <ele>399.967821</ele>
        <time>2025-06-25T20:32:34.705Z</time>
      </trkpt>
      <trkpt lat="48.448854" lon="-0.151769">
        <ele>398.055690</ele>
        <time>2025-06-25T20:32:42.925Z</time>
      </trkpt>
      <trkpt lat="48.448791" lon="-0.152475">
        <ele>396.111408</ele>
        <time>2025-06-25T20:32:49.489Z</time>
      </trkpt>
      <trkpt lat="48.448791" lon="-0.155239">
        <ele>388.095396</ele>
        <time>2025-06-25T20:33:14.884Z</time>
      </trkpt>
      <trkpt lat="48.448660" lon="-0.156586">
        <ele>383.823658</ele>
        <time>2025-06-25T20:33:27.244Z</time>
      </trkpt>
      <trkpt lat="48.448544" lon="-0.157123">
        <ele>382.051579</ele>
        <time>2025-06-25T20:33:32.275Z</time>
      </trkpt>
      <trkpt lat="48.448355" lon="-0.157703">
        <ele>379.886882</ele>
        <time>2025-06-25T20:33:38.009Z</time>
      </trkpt>
      <trkpt lat="48.447931" lon="-0.158535">
        <ele>376.318159</ele>
        <time>2025-06-25T20:33:47.352Z</time>
      </trkpt>
      <trkpt lat="48.447715" lon="-0.158895">
        <ele>374.667028</ele>
        <time>2025-06-25T20:33:51.702Z</time>
      </trkpt>
      <trkpt lat="48.447339" lon="-0.159412">
        <ele>372.035420</ele>
        <time>2025-06-25T20:33:58.591Z</time>
      </trkpt>
      <trkpt lat="48.447180" lon="-0.159782">
        <ele>370.447717</ele>
        <time>2025-06-25T20:34:02.544Z</time>
      </trkpt>
      <trkpt lat="48.447105" lon="-0.160032">
        <ele>369.459573</ele>
        <time>2025-06-25T20:34:05.000Z</time>
      </trkpt>
      <trkpt lat="48.446981" lon="-0.160623">
        <ele>367.227222</ele>
        <time>2025-06-25T20:34:10.511Z</time>
      </trkpt>
      <trkpt lat="48.446851" lon="-0.161828">
        <ele>362.830534</ele>
        <time>2025-06-25T20:34:21.210Z</time>
      </trkpt>
      <trkpt lat="48.446821" lon="-0.162133">
        <ele>361.765937</ele>
        <time>2025-06-25T20:34:23.898Z</time>
      </trkpt>
      <trkpt lat="48.446758" lon="-0.162459">
        <ele>360.602301</ele>
        <time>2025-06-25T20:34:26.836Z</time>
      </trkpt>
      <trkpt lat="48.446509" lon="-0.163534">
        <ele>356.700161</ele>
        <time>2025-06-25T20:34:36.874Z</time>
      </trkpt>
      <trkpt lat="48.446476" lon="-0.163911">
        <ele>355.396990</ele>
        <time>2025-06-25T20:34:40.291Z</time>
      </trkpt>
      <trkpt lat="48.446495" lon="-0.164510">
        <ele>353.355828</ele>
        <time>2025-06-25T20:34:45.787Z</time>
      </trkpt>
      <trkpt lat="48.446426" lon="-0.165245">
        <ele>351.918507</ele>
        <time>2025-06-25T20:34:52.815Z</time>
      </trkpt>
      <trkpt lat="48.446295" lon="-0.165999">
        <ele>350.409329</ele>
        <time>2025-06-25T20:35:00.593Z</time>
      </trkpt>
      <trkpt lat="48.446154" lon="-0.166891">
        <ele>348.633828</ele>
        <time>2025-06-25T20:35:09.992Z</time>
      </trkpt>
      <trkpt lat="48.445895" lon="-0.167601">
        <ele>347.400190</ele>
        <time>2025-06-25T20:35:18.323Z</time>
      </trkpt>
      <trkpt lat="48.445693" lon="-0.168045">
        <ele>346.687835</ele>
        <time>2025-06-25T20:35:23.831Z</time>
      </trkpt>
      <trkpt lat="48.444806" lon="-0.169689">
        <ele>344.149689</ele>
        <time>2025-06-25T20:35:46.101Z</time>
      </trkpt>
      <trkpt lat="48.444634" lon="-0.169967">
        <ele>343.851684</ele>
        <time>2025-06-25T20:35:50.483Z</time>
      </trkpt>
      <trkpt lat="48.443990" lon="-0.170752">
        <ele>342.872971</ele>
        <time>2025-06-25T20:36:05.765Z</time>
      </trkpt>
      <trkpt lat="48.443843" lon="-0.171015">
        <ele>342.603371</ele>
        <time>2025-06-25T20:36:09.859Z</time>
      </trkpt>
      <trkpt lat="48.443676" lon="-0.171466">
        <ele>341.812242</ele>
        <time>2025-06-25T20:36:15.495Z</time>
      </trkpt>
      <trkpt lat="48.443427" lon="-0.172001">
        <ele>340.366473</ele>
        <time>2025-06-25T20:36:22.071Z</time>
      </trkpt>
      <trkpt lat="48.442838" lon="-0.172993">
        <ele>337.421300</ele>
        <time>2025-06-25T20:36:34.489Z</time>
      </trkpt>
      <trkpt lat="48.443613" lon="-0.175468">
        <ele>329.722031</ele>
        <time>2025-06-25T20:36:51.810Z</time>
      </trkpt>
      <trkpt lat="48.443994" lon="-0.176825">
        <ele>325.959376</ele>
        <time>2025-06-25T20:37:01.486Z</time>
      </trkpt>
      <trkpt lat="48.444040" lon="-0.177443">
        <ele>324.468970</ele>
        <time>2025-06-25T20:37:05.645Z</time>
      </trkpt>
      <trkpt lat="48.443999" lon="-0.178545">
        <ele>321.771328</ele>
        <time>2025-06-25T20:37:12.991Z</time>
      </trkpt>
      <trkpt lat="48.443983" lon="-0.179179">
        <ele>319.667995</ele>
        <time>2025-06-25T20:37:17.117Z</time>
      </trkpt>
      <trkpt lat="48.444177" lon="-0.179956">
        <ele>316.915700</ele>
        <time>2025-06-25T20:37:22.351Z</time>
      </trkpt>
      <trkpt lat="48.444427" lon="-0.180349">
        <ele>315.110592</ele>
        <time>2025-06-25T20:37:25.702Z</time>
      </trkpt>
      <trkpt lat="48.445144" lon="-0.180944">
        <ele>310.248438</ele>
        <time>2025-06-25T20:37:33.177Z</time>
      </trkpt>
      <trkpt lat="48.445477" lon="-0.181329">
        <ele>307.321598</ele>
        <time>2025-06-25T20:37:36.942Z</time>
      </trkpt>
      <trkpt lat="48.445716" lon="-0.181679">
        <ele>304.997729</ele>
        <time>2025-06-25T20:37:39.910Z</time>
      </trkpt>
      <trkpt lat="48.445868" lon="-0.182189">
        <ele>302.411089</ele>
        <time>2025-06-25T20:37:43.199Z</time>
      </trkpt>
      <trkpt lat="48.446001" lon="-0.183115">
        <ele>298.672719</ele>
        <time>2025-06-25T20:37:48.837Z</time>
      </trkpt>
      <trkpt lat="48.446106" lon="-0.183388">
        <ele>297.605176</ele>
        <time>2025-06-25T20:37:50.743Z</time>
      </trkpt>
      <trkpt lat="48.446267" lon="-0.183533">
        <ele>296.648735</ele>
        <time>2025-06-25T20:37:52.466Z</time>
      </trkpt>
      <trkpt lat="48.446449" lon="-0.183584">
        <ele>295.704658</ele>
        <time>2025-06-25T20:37:54.201Z</time>
      </trkpt>
      <trkpt lat="48.446595" lon="-0.183557">
        <ele>294.954494</ele>
        <time>2025-06-25T20:37:55.599Z</time>
      </trkpt>
      <trkpt lat="48.447106" lon="-0.183217">
        <ele>292.105931</ele>
        <time>2025-06-25T20:38:01.153Z</time>
      </trkpt>
      <trkpt lat="48.447972" lon="-0.182837">
        <ele>288.303126</ele>
        <time>2025-06-25T20:38:10.193Z</time>
      </trkpt>
      <trkpt lat="48.448258" lon="-0.182832">
        <ele>287.154617</ele>
        <time>2025-06-25T20:38:13.026Z</time>
      </trkpt>
      <trkpt lat="48.448430" lon="-0.182844">
        <ele>286.463212</ele>
        <time>2025-06-25T20:38:14.716Z</time>
      </trkpt>
      <trkpt lat="48.448716" lon="-0.182940">
        <ele>285.286661</ele>
        <time>2025-06-25T20:38:17.543Z</time>
      </trkpt>
      <trkpt lat="48.448964" lon="-0.183064">
        <ele>284.237480</ele>
        <time>2025-06-25T20:38:20.023Z</time>
      </trkpt>
      <trkpt lat="48.449085" lon="-0.183143">
        <ele>283.598223</ele>
        <time>2025-06-25T20:38:21.261Z</time>
      </trkpt>
      <trkpt lat="48.449163" lon="-0.183193">
        <ele>283.142504</ele>
        <time>2025-06-25T20:38:22.061Z</time>
      </trkpt>
      <trkpt lat="48.449988" lon="-0.183731">
        <ele>278.309545</ele>
        <time>2025-06-25T20:38:30.479Z</time>
      </trkpt>
      <trkpt lat="48.450047" lon="-0.183770">
        <ele>277.963168</ele>
        <time>2025-06-25T20:38:31.085Z</time>
      </trkpt>
      <trkpt lat="48.450640" lon="-0.184169">
        <ele>274.471670</ele>
        <time>2025-06-25T20:38:37.071Z</time>
      </trkpt>
      <trkpt lat="48.450990" lon="-0.184515">
        <ele>272.103846</ele>
        <time>2025-06-25T20:38:40.897Z</time>
      </trkpt>
      <trkpt lat="48.451888" lon="-0.185851">
        <ele>264.948111</ele>
        <time>2025-06-25T20:38:52.547Z</time>
      </trkpt>
      <trkpt lat="48.452130" lon="-0.186098">
        <ele>263.428258</ele>
        <time>2025-06-25T20:38:55.300Z</time>
      </trkpt>
      <trkpt lat="48.452368" lon="-0.186283">
        <ele>262.150292</ele>
        <time>2025-06-25T20:38:57.837Z</time>
      </trkpt>
      <trkpt lat="48.453621" lon="-0.186807">
        <ele>255.944370</ele>
        <time>2025-06-25T20:39:10.311Z</time>
      </trkpt>
      <trkpt lat="48.454944" lon="-0.187408">
        <ele>248.765672</ele>
        <time>2025-06-25T20:39:23.281Z</time>
      </trkpt>
      <trkpt lat="48.455224" lon="-0.187575">
        <ele>247.193730</ele>
        <time>2025-06-25T20:39:26.056Z</time>
      </trkpt>
      <trkpt lat="48.455440" lon="-0.187830">
        <ele>245.754231</ele>
        <time>2025-06-25T20:39:28.587Z</time>
      </trkpt>
      <trkpt lat="48.455540" lon="-0.188008">
        <ele>244.932512</ele>
        <time>2025-06-25T20:39:30.014Z</time>
      </trkpt>
      <trkpt lat="48.456348" lon="-0.190009">
        <ele>236.680447</ele>
        <time>2025-06-25T20:39:44.528Z</time>
      </trkpt>
      <trkpt lat="48.456468" lon="-0.190397">
        <ele>235.497311</ele>
        <time>2025-06-25T20:39:47.227Z</time>
      </trkpt>
      <trkpt lat="48.456767" lon="-0.191472">
        <ele>232.305255</ele>
        <time>2025-06-25T20:39:54.654Z</time>
      </trkpt>
      <trkpt lat="48.456782" lon="-0.191523">
        <ele>232.152486</ele>
        <time>2025-06-25T20:39:55.014Z</time>
      </trkpt>
      <trkpt lat="48.456980" lon="-0.192217">
        <ele>230.083737</ele>
        <time>2025-06-25T20:39:59.998Z</time>
      </trkpt>
      <trkpt lat="48.457335" lon="-0.193513">
        <ele>227.305546</ele>
        <time>2025-06-25T20:40:09.493Z</time>
      </trkpt>
      <trkpt lat="48.457486" lon="-0.194026">
        <ele>226.319557</ele>
        <time>2025-06-25T20:40:13.374Z</time>
      </trkpt>
      <trkpt lat="48.457778" lon="-0.194878">
        <ele>224.634763</ele>
        <time>2025-06-25T20:40:20.069Z</time>
      </trkpt>
      <trkpt lat="48.458071" lon="-0.195592">
        <ele>224.674763</ele>
        <time>2025-06-25T20:40:26.362Z</time>
      </trkpt>
      <trkpt lat="48.458133" lon="-0.195724">
        <ele>224.726686</ele>
        <time>2025-06-25T20:40:27.753Z</time>
      </trkpt>
      <trkpt lat="48.458587" lon="-0.196573">
        <ele>225.076772</ele>
        <time>2025-06-25T20:40:41.560Z</time>
      </trkpt>
      <trkpt lat="48.458966" lon="-0.197235">
        <ele>225.320057</ele>
        <time>2025-06-25T20:40:56.172Z</time>
      </trkpt>
      <trkpt lat="48.459038" lon="-0.197313">
        <ele>225.328186</ele>
        <time>2025-06-25T20:40:58.456Z</time>
      </trkpt>
      <trkpt lat="48.459184" lon="-0.197446">
        <ele>225.343827</ele>
        <time>2025-06-25T20:41:02.607Z</time>
      </trkpt>
      <trkpt lat="48.459254" lon="-0.197505">
        <ele>225.351181</ele>
        <time>2025-06-25T20:41:04.424Z</time>
      </trkpt>
      <trkpt lat="48.459532" lon="-0.197751">
        <ele>225.380737</ele>
        <time>2025-06-25T20:41:11.014Z</time>
      </trkpt>
      <trkpt lat="48.459658" lon="-0.197862">
        <ele>225.394118</ele>
        <time>2025-06-25T20:41:13.624Z</time>
      </trkpt>
      <trkpt lat="48.459854" lon="-0.198030">
        <ele>225.414791</ele>
        <time>2025-06-25T20:41:17.261Z</time>
      </trkpt>
      <trkpt lat="48.459758" lon="-0.198468">
        <ele>225.442842</ele>
        <time>2025-06-25T20:41:21.132Z</time>
      </trkpt>
      <trkpt lat="48.459714" lon="-0.198734">
        <ele>225.459512</ele>
        <time>2025-06-25T20:41:23.135Z</time>
      </trkpt>
      <trkpt lat="48.459684" lon="-0.198947">
        <ele>225.472753</ele>
        <time>2025-06-25T20:41:24.670Z</time>
      </trkpt>
      <trkpt lat="48.459754" lon="-0.198970">
        <ele>225.330323</ele>
        <time>2025-06-25T20:41:25.432Z</time>
      </trkpt>
      <trkpt lat="48.459795" lon="-0.198984">
        <ele>225.148177</ele>
        <time>2025-06-25T20:41:25.867Z</time>
      </trkpt>
      <trkpt lat="48.460058" lon="-0.199068">
        <ele>223.983344</ele>
        <time>2025-06-25T20:41:28.554Z</time>
      </trkpt>
      <trkpt lat="48.460226" lon="-0.199156">
        <ele>223.212751</ele>
        <time>2025-06-25T20:41:30.267Z</time>
      </trkpt>
      <trkpt lat="48.460336" lon="-0.199162">
        <ele>222.735821</ele>
        <time>2025-06-25T20:41:31.304Z</time>
      </trkpt>
      <trkpt lat="48.460583" lon="-0.199202">
        <ele>221.659440</ele>
        <time>2025-06-25T20:41:33.609Z</time>
      </trkpt>
      <trkpt lat="48.460651" lon="-0.199200">
        <ele>221.364747</ele>
        <time>2025-06-25T20:41:34.230Z</time>
      </trkpt>
      <trkpt lat="48.460684" lon="-0.199180">
        <ele>221.210645</ele>
        <time>2025-06-25T20:41:34.560Z</time>
      </trkpt>
      <trkpt lat="48.460916" lon="-0.199207">
        <ele>220.202423</ele>
        <time>2025-06-25T20:41:36.737Z</time>
      </trkpt>
      <trkpt lat="48.460876" lon="-0.199728">
        <ele>218.695444</ele>
        <time>2025-06-25T20:41:40.007Z</time>
      </trkpt>
      <trkpt lat="48.460952" lon="-0.200436">
        <ele>217.332397</ele>
        <time>2025-06-25T20:41:44.570Z</time>
      </trkpt>
      <trkpt lat="48.460960" lon="-0.200700">
        <ele>217.078494</ele>
        <time>2025-06-25T20:41:46.311Z</time>
      </trkpt>
      <trkpt lat="48.460958" lon="-0.200796">
        <ele>216.986217</ele>
        <time>2025-06-25T20:41:46.947Z</time>
      </trkpt>
      <trkpt lat="48.460937" lon="-0.201091">
        <ele>216.701167</ele>
        <time>2025-06-25T20:41:48.938Z</time>
      </trkpt>
      <trkpt lat="48.460908" lon="-0.201333">
        <ele>216.464900</ele>
        <time>2025-06-25T20:41:50.696Z</time>
      </trkpt>
      <trkpt lat="48.460805" lon="-0.202109">
        <ele>215.704568</ele>
        <time>2025-06-25T20:41:57.963Z</time>
      </trkpt>
      <trkpt lat="48.460755" lon="-0.202455">
        <ele>215.364346</ele>
        <time>2025-06-25T20:42:02.623Z</time>
      </trkpt>
      <trkpt lat="48.460668" lon="-0.202786">
        <ele>215.129731</ele>
        <time>2025-06-25T20:42:07.463Z</time>
      </trkpt>
      <trkpt lat="48.460649" lon="-0.202959">
        <ele>215.292053</ele>
        <time>2025-06-25T20:42:09.916Z</time>
      </trkpt>
      <trkpt lat="48.460658" lon="-0.203134">
        <ele>215.454532</ele>
        <time>2025-06-25T20:42:12.228Z</time>
      </trkpt>
      <trkpt lat="48.460683" lon="-0.203173">
        <ele>215.504743</ele>
        <time>2025-06-25T20:42:12.998Z</time>
      </trkpt>
      <trkpt lat="48.460774" lon="-0.203198">
        <ele>215.633860</ele>
        <time>2025-06-25T20:42:14.838Z</time>
      </trkpt>
      <trkpt lat="48.460899" lon="-0.203181">
        <ele>215.809056</ele>
        <time>2025-06-25T20:42:17.393Z</time>
      </trkpt>
      <trkpt lat="48.461281" lon="-0.203012">
        <ele>216.364763</ele>
        <time>2025-06-25T20:42:25.821Z</time>
      </trkpt>
      <trkpt lat="48.461573" lon="-0.203068">
        <ele>216.775648</ele>
        <time>2025-06-25T20:42:32.153Z</time>
      </trkpt>
      <trkpt lat="48.461712" lon="-0.203115">
        <ele>216.974496</ele>
        <time>2025-06-25T20:42:35.085Z</time>
      </trkpt>
      <trkpt lat="48.462482" lon="-0.203908">
        <ele>217.282020</ele>
        <time>2025-06-25T20:42:54.300Z</time>
      </trkpt>
      <trkpt lat="48.462632" lon="-0.204113">
        <ele>217.156524</ele>
        <time>2025-06-25T20:42:57.624Z</time>
      </trkpt>
      <trkpt lat="48.462721" lon="-0.204286">
        <ele>217.066513</ele>
        <time>2025-06-25T20:42:59.825Z</time>
      </trkpt>
      <trkpt lat="48.462909" lon="-0.204773">
        <ele>216.834861</ele>
        <time>2025-06-25T20:43:04.682Z</time>
      </trkpt>
      <trkpt lat="48.463442" lon="-0.206368">
        <ele>214.476863</ele>
        <time>2025-06-25T20:43:16.995Z</time>
      </trkpt>
      <trkpt lat="48.463555" lon="-0.206592">
        <ele>213.856197</ele>
        <time>2025-06-25T20:43:18.794Z</time>
      </trkpt>
      <trkpt lat="48.463664" lon="-0.206724">
        <ele>213.391295</ele>
        <time>2025-06-25T20:43:20.138Z</time>
      </trkpt>
      <trkpt lat="48.463797" lon="-0.206754">
        <ele>212.944066</ele>
        <time>2025-06-25T20:43:21.437Z</time>
      </trkpt>
      <trkpt lat="48.464024" lon="-0.206676">
        <ele>212.169802</ele>
        <time>2025-06-25T20:43:23.707Z</time>
      </trkpt>
      <trkpt lat="48.464807" lon="-0.206217">
        <ele>209.782068</ele>
        <time>2025-06-25T20:43:32.221Z</time>
      </trkpt>
      <trkpt lat="48.465300" lon="-0.205957">
        <ele>208.677663</ele>
        <time>2025-06-25T20:43:37.782Z</time>
      </trkpt>
      <trkpt lat="48.465503" lon="-0.205959">
        <ele>208.248389</ele>
        <time>2025-06-25T20:43:39.970Z</time>
      </trkpt>
      <trkpt lat="48.465696" lon="-0.206042">
        <ele>207.824002</ele>
        <time>2025-06-25T20:43:42.174Z</time>
      </trkpt>
      <trkpt lat="48.465794" lon="-0.206154">
        <ele>207.563991</ele>
        <time>2025-06-25T20:43:43.570Z</time>
      </trkpt>
      <trkpt lat="48.465892" lon="-0.206267">
        <ele>207.303130</ele>
        <time>2025-06-25T20:43:44.991Z</time>
      </trkpt>
      <trkpt lat="48.466400" lon="-0.207023">
        <ele>206.819405</ele>
        <time>2025-06-25T20:43:53.880Z</time>
      </trkpt>
      <trkpt lat="48.466561" lon="-0.207207">
        <ele>206.882388</ele>
        <time>2025-06-25T20:43:56.702Z</time>
      </trkpt>
      <trkpt lat="48.466717" lon="-0.207310">
        <ele>206.935484</ele>
        <time>2025-06-25T20:43:59.151Z</time>
      </trkpt>
      <trkpt lat="48.467458" lon="-0.207629">
        <ele>207.175749</ele>
        <time>2025-06-25T20:44:13.272Z</time>
      </trkpt>
      <trkpt lat="48.468094" lon="-0.208064">
        <ele>207.644172</ele>
        <time>2025-06-25T20:44:28.192Z</time>
      </trkpt>
      <trkpt lat="48.468204" lon="-0.208140">
        <ele>207.747095</ele>
        <time>2025-06-25T20:44:30.668Z</time>
      </trkpt>
      <trkpt lat="48.468339" lon="-0.208355">
        <ele>207.914106</ele>
        <time>2025-06-25T20:44:34.630Z</time>
      </trkpt>
      <trkpt lat="48.468400" lon="-0.208620">
        <ele>208.072321</ele>
        <time>2025-06-25T20:44:38.240Z</time>
      </trkpt>
      <trkpt lat="48.468390" lon="-0.209001">
        <ele>208.287378</ele>
        <time>2025-06-25T20:44:42.873Z</time>
      </trkpt>
      <trkpt lat="48.468224" lon="-0.210003">
        <ele>208.616425</ele>
        <time>2025-06-25T20:44:53.706Z</time>
      </trkpt>
      <trkpt lat="48.468184" lon="-0.210403">
        <ele>208.212059</ele>
        <time>2025-06-25T20:44:57.378Z</time>
      </trkpt>
      <trkpt lat="48.468010" lon="-0.211280">
        <ele>207.296991</ele>
        <time>2025-06-25T20:45:04.679Z</time>
      </trkpt>
      <trkpt lat="48.467964" lon="-0.211658">
        <ele>206.912825</ele>
        <time>2025-06-25T20:45:07.483Z</time>
      </trkpt>
      <trkpt lat="48.467964" lon="-0.212039">
        <ele>206.531971</ele>
        <time>2025-06-25T20:45:10.155Z</time>
      </trkpt>
      <trkpt lat="48.468038" lon="-0.212490">
        <ele>206.067546</ele>
        <time>2025-06-25T20:45:13.344Z</time>
      </trkpt>
      <trkpt lat="48.468163" lon="-0.212792">
        <ele>205.437851</ele>
        <time>2025-06-25T20:45:15.750Z</time>
      </trkpt>
      <trkpt lat="48.468350" lon="-0.213119">
        <ele>204.673352</ele>
        <time>2025-06-25T20:45:18.628Z</time>
      </trkpt>
      <trkpt lat="48.468539" lon="-0.213349">
        <ele>204.024910</ele>
        <time>2025-06-25T20:45:21.061Z</time>
      </trkpt>
      <trkpt lat="48.469238" lon="-0.214107">
        <ele>201.726148</ele>
        <time>2025-06-25T20:45:30.023Z</time>
      </trkpt>
      <trkpt lat="48.469397" lon="-0.214238">
        <ele>201.255570</ele>
        <time>2025-06-25T20:45:32.051Z</time>
      </trkpt>
      <trkpt lat="48.469546" lon="-0.214311">
        <ele>201.090322</ele>
        <time>2025-06-25T20:45:33.862Z</time>
      </trkpt>
      <trkpt lat="48.469571" lon="-0.214316">
        <ele>201.063722</ele>
        <time>2025-06-25T20:45:34.166Z</time>
      </trkpt>
      <trkpt lat="48.470118" lon="-0.214432">
        <ele>200.481077</ele>
        <time>2025-06-25T20:45:40.779Z</time>
      </trkpt>
      <trkpt lat="48.470343" lon="-0.214520">
        <ele>200.235900</ele>
        <time>2025-06-25T20:45:43.696Z</time>
      </trkpt>
      <trkpt lat="48.470586" lon="-0.214699">
        <ele>199.950651</ele>
        <time>2025-06-25T20:45:47.122Z</time>
      </trkpt>
      <trkpt lat="48.471418" lon="-0.215443">
        <ele>199.061548</ele>
        <time>2025-06-25T20:45:59.719Z</time>
      </trkpt>
      <trkpt lat="48.471572" lon="-0.215670">
        <ele>198.902640</ele>
        <time>2025-06-25T20:46:02.565Z</time>
      </trkpt>
      <trkpt lat="48.471643" lon="-0.215847">
        <ele>198.801422</ele>
        <time>2025-06-25T20:46:04.357Z</time>
      </trkpt>
      <trkpt lat="48.471722" lon="-0.216140">
        <ele>198.646663</ele>
        <time>2025-06-25T20:46:07.105Z</time>
      </trkpt>
      <trkpt lat="48.471826" lon="-0.216745">
        <ele>198.340865</ele>
        <time>2025-06-25T20:46:12.421Z</time>
      </trkpt>
      <trkpt lat="48.471874" lon="-0.217077">
        <ele>198.174609</ele>
        <time>2025-06-25T20:46:15.232Z</time>
      </trkpt>
      <trkpt lat="48.471964" lon="-0.217450">
        <ele>197.945855</ele>
        <time>2025-06-25T20:46:18.411Z</time>
      </trkpt>
      <trkpt lat="48.472099" lon="-0.217823">
        <ele>197.616657</ele>
        <time>2025-06-25T20:46:21.751Z</time>
      </trkpt>
      <trkpt lat="48.472366" lon="-0.218411">
        <ele>197.064569</ele>
        <time>2025-06-25T20:46:27.208Z</time>
      </trkpt>
      <trkpt lat="48.472426" lon="-0.218667">
        <ele>196.854232</ele>
        <time>2025-06-25T20:46:29.249Z</time>
      </trkpt>
      <trkpt lat="48.472647" lon="-0.220325">
        <ele>195.862575</ele>
        <time>2025-06-25T20:46:42.836Z</time>
      </trkpt>
      <trkpt lat="48.472668" lon="-0.220990">
        <ele>195.763771</ele>
        <time>2025-06-25T20:46:49.029Z</time>
      </trkpt>
      <trkpt lat="48.472609" lon="-0.221672">
        <ele>195.661697</ele>
        <time>2025-06-25T20:46:55.675Z</time>
      </trkpt>
      <trkpt lat="48.472406" lon="-0.222841">
        <ele>195.860036</ele>
        <time>2025-06-25T20:47:07.999Z</time>
      </trkpt>
      <trkpt lat="48.472398" lon="-0.223102">
        <ele>196.097333</ele>
        <time>2025-06-25T20:47:10.858Z</time>
      </trkpt>
      <trkpt lat="48.472420" lon="-0.223354">
        <ele>196.328179</ele>
        <time>2025-06-25T20:47:13.759Z</time>
      </trkpt>
      <trkpt lat="48.472516" lon="-0.223567">
        <ele>196.562096</ele>
        <time>2025-06-25T20:47:16.858Z</time>
      </trkpt>
      <trkpt lat="48.472806" lon="-0.224046">
        <ele>197.151228</ele>
        <time>2025-06-25T20:47:25.602Z</time>
      </trkpt>
      <trkpt lat="48.473011" lon="-0.224480">
        <ele>197.635198</ele>
        <time>2025-06-25T20:47:33.713Z</time>
      </trkpt>
      <trkpt lat="48.473562" lon="-0.226133">
        <ele>200.330381</ele>
        <time>2025-06-25T20:48:06.028Z</time>
      </trkpt>
      <trkpt lat="48.473678" lon="-0.226380">
        <ele>200.817256</ele>
        <time>2025-06-25T20:48:11.183Z</time>
      </trkpt>
      <trkpt lat="48.473845" lon="-0.226543">
        <ele>201.299855</ele>
        <time>2025-06-25T20:48:16.117Z</time>
      </trkpt>
      <trkpt lat="48.474493" lon="-0.227118">
        <ele>202.541302</ele>
        <time>2025-06-25T20:48:32.697Z</time>
      </trkpt>
      <trkpt lat="48.474688" lon="-0.227397">
        <ele>202.693992</ele>
        <time>2025-06-25T20:48:37.714Z</time>
      </trkpt>
      <trkpt lat="48.475046" lon="-0.228204">
        <ele>203.059702</ele>
        <time>2025-06-25T20:48:48.322Z</time>
      </trkpt>
      <trkpt lat="48.475583" lon="-0.229175">
        <ele>203.444199</ele>
        <time>2025-06-25T20:48:59.867Z</time>
      </trkpt>
      <trkpt lat="48.475760" lon="-0.229626">
        <ele>203.521607</ele>
        <time>2025-06-25T20:49:04.482Z</time>
      </trkpt>
      <trkpt lat="48.476084" lon="-0.230648">
        <ele>203.688924</ele>
        <time>2025-06-25T20:49:15.642Z</time>
      </trkpt>
      <trkpt lat="48.476206" lon="-0.230958">
        <ele>203.742169</ele>
        <time>2025-06-25T20:49:19.902Z</time>
      </trkpt>
      <trkpt lat="48.476609" lon="-0.231789">
        <ele>204.237234</ele>
        <time>2025-06-25T20:49:34.049Z</time>
      </trkpt>
      <trkpt lat="48.476738" lon="-0.231988">
        <ele>204.408277</ele>
        <time>2025-06-25T20:49:38.184Z</time>
      </trkpt>
      <trkpt lat="48.476872" lon="-0.232100">
        <ele>204.550290</ele>
        <time>2025-06-25T20:49:41.675Z</time>
      </trkpt>
      <trkpt lat="48.477085" lon="-0.232136">
        <ele>204.748978</ele>
        <time>2025-06-25T20:49:46.459Z</time>
      </trkpt>
      <trkpt lat="48.477497" lon="-0.232031">
        <ele>205.136318</ele>
        <time>2025-06-25T20:49:54.631Z</time>
      </trkpt>
      <trkpt lat="48.477652" lon="-0.232069">
        <ele>205.281890</ele>
        <time>2025-06-25T20:49:57.121Z</time>
      </trkpt>
      <trkpt lat="48.477883" lon="-0.232203">
        <ele>205.274881</ele>
        <time>2025-06-25T20:50:00.536Z</time>
      </trkpt>
      <trkpt lat="48.478099" lon="-0.232255">
        <ele>204.654375</ele>
        <time>2025-06-25T20:50:03.191Z</time>
      </trkpt>
      <trkpt lat="48.478441" lon="-0.232272">
        <ele>203.683658</ele>
        <time>2025-06-25T20:50:06.957Z</time>
      </trkpt>
      <trkpt lat="48.478708" lon="-0.232359">
        <ele>202.908761</ele>
        <time>2025-06-25T20:50:09.755Z</time>
      </trkpt>
      <trkpt lat="48.479072" lon="-0.232666">
        <ele>201.725731</ele>
        <time>2025-06-25T20:50:13.841Z</time>
      </trkpt>
      <trkpt lat="48.480087" lon="-0.233885">
        <ele>199.154361</ele>
        <time>2025-06-25T20:50:26.338Z</time>
      </trkpt>
      <trkpt lat="48.480536" lon="-0.234360">
        <ele>198.347064</ele>
        <time>2025-06-25T20:50:32.992Z</time>
      </trkpt>
      <trkpt lat="48.480602" lon="-0.234420">
        <ele>198.233628</ele>
        <time>2025-06-25T20:50:34.298Z</time>
      </trkpt>
      <trkpt lat="48.480753" lon="-0.234533">
        <ele>197.985495</ele>
        <time>2025-06-25T20:50:37.621Z</time>
      </trkpt>
      <trkpt lat="48.481023" lon="-0.234855">
        <ele>198.512720</ele>
        <time>2025-06-25T20:50:46.221Z</time>
      </trkpt>
      <trkpt lat="48.481402" lon="-0.235538">
        <ele>201.654230</ele>
        <time>2025-06-25T20:51:06.769Z</time>
      </trkpt>
      <trkpt lat="48.481693" lon="-0.236254">
        <ele>204.616346</ele>
        <time>2025-06-25T20:51:30.046Z</time>
      </trkpt>
      <trkpt lat="48.482057" lon="-0.237334">
        <ele>208.979459</ele>
        <time>2025-06-25T20:52:02.758Z</time>
      </trkpt>
      <trkpt lat="48.482292" lon="-0.237872">
        <ele>211.378357</ele>
        <time>2025-06-25T20:52:19.495Z</time>
      </trkpt>
      <trkpt lat="48.482900" lon="-0.239637">
        <ele>218.130790</ele>
        <time>2025-06-25T20:53:07.041Z</time>
      </trkpt>
      <trkpt lat="48.482972" lon="-0.240045">
        <ele>218.973473</ele>
        <time>2025-06-25T20:53:15.569Z</time>
      </trkpt>
      <trkpt lat="48.483026" lon="-0.240822">
        <ele>220.532767</ele>
        <time>2025-06-25T20:53:29.684Z</time>
      </trkpt>
      <trkpt lat="48.483025" lon="-0.241115">
        <ele>221.117566</ele>
        <time>2025-06-25T20:53:34.408Z</time>
      </trkpt>
      <trkpt lat="48.482994" lon="-0.241827">
        <ele>222.541690</ele>
        <time>2025-06-25T20:53:44.746Z</time>
      </trkpt>
      <trkpt lat="48.482914" lon="-0.242459">
        <ele>223.216142</ele>
        <time>2025-06-25T20:53:52.974Z</time>
      </trkpt>
      <trkpt lat="48.482897" lon="-0.243079">
        <ele>223.724479</ele>
        <time>2025-06-25T20:54:00.456Z</time>
      </trkpt>
      <trkpt lat="48.482951" lon="-0.243856">
        <ele>224.364485</ele>
        <time>2025-06-25T20:54:10.534Z</time>
      </trkpt>
      <trkpt lat="48.483076" lon="-0.244448">
        <ele>224.873460</ele>
        <time>2025-06-25T20:54:18.938Z</time>
      </trkpt>
      <trkpt lat="48.483457" lon="-0.245415">
        <ele>225.796041</ele>
        <time>2025-06-25T20:54:34.347Z</time>
      </trkpt>
      <trkpt lat="48.483537" lon="-0.245711">
        <ele>226.058252</ele>
        <time>2025-06-25T20:54:38.735Z</time>
      </trkpt>
      <trkpt lat="48.483580" lon="-0.246022">
        <ele>226.318850</ele>
        <time>2025-06-25T20:54:43.086Z</time>
      </trkpt>
      <trkpt lat="48.483571" lon="-0.247632">
        <ele>227.255447</ele>
        <time>2025-06-25T20:55:03.232Z</time>
      </trkpt>
      <trkpt lat="48.483549" lon="-0.248403">
        <ele>227.279247</ele>
        <time>2025-06-25T20:55:11.435Z</time>
      </trkpt>
      <trkpt lat="48.483504" lon="-0.248755">
        <ele>227.290303</ele>
        <time>2025-06-25T20:55:14.980Z</time>
      </trkpt>
      <trkpt lat="48.483411" lon="-0.249424">
        <ele>227.311384</ele>
        <time>2025-06-25T20:55:21.245Z</time>
      </trkpt>
      <trkpt lat="48.483420" lon="-0.249882">
        <ele>227.262054</ele>
        <time>2025-06-25T20:55:25.132Z</time>
      </trkpt>
      <trkpt lat="48.483469" lon="-0.250326">
        <ele>226.640406</ele>
        <time>2025-06-25T20:55:28.747Z</time>
      </trkpt>
      <trkpt lat="48.483595" lon="-0.250743">
        <ele>226.007473</ele>
        <time>2025-06-25T20:55:32.271Z</time>
      </trkpt>
      <trkpt lat="48.483786" lon="-0.251131">
        <ele>225.339993</ele>
        <time>2025-06-25T20:55:35.901Z</time>
      </trkpt>
      <trkpt lat="48.484401" lon="-0.252196">
        <ele>223.272342</ele>
        <time>2025-06-25T20:55:45.616Z</time>
      </trkpt>
      <trkpt lat="48.484453" lon="-0.252385">
        <ele>222.813257</ele>
        <time>2025-06-25T20:55:46.949Z</time>
      </trkpt>
      <trkpt lat="48.484451" lon="-0.252623">
        <ele>222.279279</ele>
        <time>2025-06-25T20:55:48.489Z</time>
      </trkpt>
      <trkpt lat="48.484318" lon="-0.253300">
        <ele>220.695170</ele>
        <time>2025-06-25T20:55:52.980Z</time>
      </trkpt>
      <trkpt lat="48.484284" lon="-0.253750">
        <ele>219.679087</ele>
        <time>2025-06-25T20:55:55.858Z</time>
      </trkpt>
      <trkpt lat="48.484302" lon="-0.254707">
        <ele>217.531257</ele>
        <time>2025-06-25T20:56:02.219Z</time>
      </trkpt>
      <trkpt lat="48.484336" lon="-0.255067">
        <ele>217.796640</ele>
        <time>2025-06-25T20:56:04.998Z</time>
      </trkpt>
      <trkpt lat="48.484481" lon="-0.255766">
        <ele>218.451124</ele>
        <time>2025-06-25T20:56:13.093Z</time>
      </trkpt>
      <trkpt lat="48.484618" lon="-0.256221">
        <ele>218.897685</ele>
        <time>2025-06-25T20:56:21.163Z</time>
      </trkpt>
      <trkpt lat="48.485057" lon="-0.257371">
        <ele>220.175747</ele>
        <time>2025-06-25T20:56:46.962Z</time>
      </trkpt>
      <trkpt lat="48.485568" lon="-0.259556">
        <ele>223.368883</ele>
        <time>2025-06-25T20:57:23.151Z</time>
      </trkpt>
      <trkpt lat="48.485580" lon="-0.259778">
        <ele>223.649619</ele>
        <time>2025-06-25T20:57:25.595Z</time>
      </trkpt>
      <trkpt lat="48.485552" lon="-0.260016">
        <ele>223.596556</ele>
        <time>2025-06-25T20:57:28.116Z</time>
      </trkpt>
      <trkpt lat="48.485537" lon="-0.260180">
        <ele>223.560214</ele>
        <time>2025-06-25T20:57:29.732Z</time>
      </trkpt>
      <trkpt lat="48.485523" lon="-0.260282">
        <ele>223.537348</ele>
        <time>2025-06-25T20:57:30.738Z</time>
      </trkpt>
      <trkpt lat="48.485510" lon="-0.260353">
        <ele>223.521178</ele>
        <time>2025-06-25T20:57:31.419Z</time>
      </trkpt>
      <trkpt lat="48.485485" lon="-0.260476">
        <ele>223.492936</ele>
        <time>2025-06-25T20:57:32.590Z</time>
      </trkpt>
      <trkpt lat="48.485413" lon="-0.260720">
        <ele>223.434304</ele>
        <time>2025-06-25T20:57:34.940Z</time>
      </trkpt>
      <trkpt lat="48.485374" lon="-0.260790">
        <ele>223.414230</ele>
        <time>2025-06-25T20:57:35.702Z</time>
      </trkpt>
      <trkpt lat="48.485213" lon="-0.260840">
        <ele>223.359789</ele>
        <time>2025-06-25T20:57:37.800Z</time>
      </trkpt>
      <trkpt lat="48.485211" lon="-0.261116">
        <ele>223.299198</ele>
        <time>2025-06-25T20:57:40.118Z</time>
      </trkpt>
      <trkpt lat="48.485009" lon="-0.262084">
        <ele>223.076417</ele>
        <time>2025-06-25T20:57:48.773Z</time>
      </trkpt>
      <trkpt lat="48.484975" lon="-0.262196">
        <ele>223.030056</ele>
        <time>2025-06-25T20:57:49.760Z</time>
      </trkpt>
      <trkpt lat="48.484471" lon="-0.262666">
        <ele>222.368155</ele>
        <time>2025-06-25T20:57:57.009Z</time>
      </trkpt>
      <trkpt lat="48.484312" lon="-0.262899">
        <ele>222.120537</ele>
        <time>2025-06-25T20:57:59.742Z</time>
      </trkpt>
      <trkpt lat="48.484122" lon="-0.263399">
        <ele>221.693782</ele>
        <time>2025-06-25T20:58:04.479Z</time>
      </trkpt>
      <trkpt lat="48.483988" lon="-0.263831">
        <ele>221.340611</ele>
        <time>2025-06-25T20:58:08.243Z</time>
      </trkpt>
      <trkpt lat="48.483851" lon="-0.264183">
        <ele>221.031656</ele>
        <time>2025-06-25T20:58:11.322Z</time>
      </trkpt>
      <trkpt lat="48.483692" lon="-0.264462">
        <ele>220.574025</ele>
        <time>2025-06-25T20:58:14.030Z</time>
      </trkpt>
      <trkpt lat="48.483567" lon="-0.264684">
        <ele>220.211736</ele>
        <time>2025-06-25T20:58:16.175Z</time>
      </trkpt>
      <trkpt lat="48.483284" lon="-0.265309">
        <ele>219.270323</ele>
        <time>2025-06-25T20:58:21.723Z</time>
      </trkpt>
      <trkpt lat="48.483087" lon="-0.265836">
        <ele>218.517809</ele>
        <time>2025-06-25T20:58:26.168Z</time>
      </trkpt>
      <trkpt lat="48.482870" lon="-0.266400">
        <ele>217.706712</ele>
        <time>2025-06-25T20:58:30.902Z</time>
      </trkpt>
      <trkpt lat="48.482767" lon="-0.266596">
        <ele>217.308979</ele>
        <time>2025-06-25T20:58:32.721Z</time>
      </trkpt>
      <trkpt lat="48.482620" lon="-0.266802">
        <ele>216.815015</ele>
        <time>2025-06-25T20:58:34.922Z</time>
      </trkpt>
      <trkpt lat="48.482368" lon="-0.267117">
        <ele>216.009290</ele>
        <time>2025-06-25T20:58:38.488Z</time>
      </trkpt>
      <trkpt lat="48.481026" lon="-0.268483">
        <ele>211.056177</ele>
        <time>2025-06-25T20:58:55.407Z</time>
      </trkpt>
      <trkpt lat="48.480752" lon="-0.268817">
        <ele>209.501977</ele>
        <time>2025-06-25T20:58:58.834Z</time>
      </trkpt>
      <trkpt lat="48.480513" lon="-0.269175">
        <ele>208.016012</ele>
        <time>2025-06-25T20:59:02.036Z</time>
      </trkpt>
      <trkpt lat="48.479227" lon="-0.271339">
        <ele>198.202231</ele>
        <time>2025-06-25T20:59:19.791Z</time>
      </trkpt>
      <trkpt lat="48.478760" lon="-0.272023">
        <ele>194.852068</ele>
        <time>2025-06-25T20:59:25.979Z</time>
      </trkpt>
      <trkpt lat="48.478464" lon="-0.272367">
        <ele>193.220579</ele>
        <time>2025-06-25T20:59:29.623Z</time>
      </trkpt>
      <trkpt lat="48.477603" lon="-0.273040">
        <ele>188.986474</ele>
        <time>2025-06-25T20:59:39.042Z</time>
      </trkpt>
      <trkpt lat="48.477392" lon="-0.273378">
        <ele>187.633475</ele>
        <time>2025-06-25T20:59:42.004Z</time>
      </trkpt>
      <trkpt lat="48.477130" lon="-0.273385">
        <ele>186.354767</ele>
        <time>2025-06-25T20:59:44.501Z</time>
      </trkpt>
      <trkpt lat="48.476480" lon="-0.273309">
        <ele>183.173382</ele>
        <time>2025-06-25T20:59:50.641Z</time>
      </trkpt>
      <trkpt lat="48.476304" lon="-0.273318">
        <ele>182.314043</ele>
        <time>2025-06-25T20:59:52.287Z</time>
      </trkpt>
      <trkpt lat="48.476131" lon="-0.273365">
        <ele>181.456255</ele>
        <time>2025-06-25T20:59:53.945Z</time>
      </trkpt>
      <trkpt lat="48.475801" lon="-0.273547">
        <ele>179.741664</ele>
        <time>2025-06-25T20:59:57.259Z</time>
      </trkpt>
      <trkpt lat="48.475531" lon="-0.273769">
        <ele>178.360097</ele>
        <time>2025-06-25T21:00:00.170Z</time>
      </trkpt>
      <trkpt lat="48.475352" lon="-0.273974">
        <ele>177.449205</ele>
        <time>2025-06-25T21:00:02.308Z</time>
      </trkpt>
      <trkpt lat="48.475168" lon="-0.274242">
        <ele>176.412540</ele>
        <time>2025-06-25T21:00:04.746Z</time>
      </trkpt>
      <trkpt lat="48.473450" lon="-0.277403">
        <ele>166.905774</ele>
        <time>2025-06-25T21:00:31.628Z</time>
      </trkpt>
      <trkpt lat="48.472822" lon="-0.278730">
        <ele>165.719964</ele>
        <time>2025-06-25T21:00:44.659Z</time>
      </trkpt>
      <trkpt lat="48.472366" lon="-0.279811">
        <ele>165.332989</ele>
        <time>2025-06-25T21:00:58.181Z</time>
      </trkpt>
      <trkpt lat="48.470812" lon="-0.283800">
        <ele>167.416691</ele>
        <time>2025-06-25T21:01:52.374Z</time>
      </trkpt>
      <trkpt lat="48.469183" lon="-0.288012">
        <ele>171.109188</ele>
        <time>2025-06-25T21:02:53.187Z</time>
      </trkpt>
      <trkpt lat="48.468903" lon="-0.288688">
        <ele>172.045344</ele>
        <time>2025-06-25T21:03:05.481Z</time>
      </trkpt>
      <trkpt lat="48.468432" lon="-0.289385">
        <ele>173.340647</ele>
        <time>2025-06-25T21:03:21.860Z</time>
      </trkpt>
      <trkpt lat="48.468267" lon="-0.289592">
        <ele>173.887401</ele>
        <time>2025-06-25T21:03:27.376Z</time>
      </trkpt>
      <trkpt lat="48.467731" lon="-0.290001">
        <ele>175.417696</ele>
        <time>2025-06-25T21:03:42.958Z</time>
      </trkpt>
      <trkpt lat="48.465750" lon="-0.290975">
        <ele>180.132873</ele>
        <time>2025-06-25T21:04:34.057Z</time>
      </trkpt>
      <trkpt lat="48.465523" lon="-0.291081">
        <ele>180.626712</ele>
        <time>2025-06-25T21:04:39.306Z</time>
      </trkpt>
      <trkpt lat="48.462825" lon="-0.292589">
        <ele>184.155271</ele>
        <time>2025-06-25T21:05:34.741Z</time>
      </trkpt>
      <trkpt lat="48.460773" lon="-0.294067">
        <ele>186.226418</ele>
        <time>2025-06-25T21:06:17.442Z</time>
      </trkpt>
      <trkpt lat="48.460346" lon="-0.294444">
        <ele>186.619114</ele>
        <time>2025-06-25T21:06:26.009Z</time>
      </trkpt>
      <trkpt lat="48.459719" lon="-0.295157">
        <ele>186.135265</ele>
        <time>2025-06-25T21:06:37.694Z</time>
      </trkpt>
      <trkpt lat="48.459188" lon="-0.295772">
        <ele>185.661859</ele>
        <time>2025-06-25T21:06:46.038Z</time>
      </trkpt>
      <trkpt lat="48.459040" lon="-0.296000">
        <ele>185.512262</ele>
        <time>2025-06-25T21:06:48.498Z</time>
      </trkpt>
      <trkpt lat="48.458882" lon="-0.296312">
        <ele>185.216504</ele>
        <time>2025-06-25T21:06:51.432Z</time>
      </trkpt>
      <trkpt lat="48.457853" lon="-0.298833">
        <ele>181.217013</ele>
        <time>2025-06-25T21:07:12.553Z</time>
      </trkpt>
      <trkpt lat="48.457329" lon="-0.300058">
        <ele>179.631233</ele>
        <time>2025-06-25T21:07:23.496Z</time>
      </trkpt>
      <trkpt lat="48.456659" lon="-0.301409">
        <ele>177.763961</ele>
        <time>2025-06-25T21:07:36.792Z</time>
      </trkpt>
      <trkpt lat="48.456283" lon="-0.302268">
        <ele>176.603114</ele>
        <time>2025-06-25T21:07:44.675Z</time>
      </trkpt>
      <trkpt lat="48.456118" lon="-0.302490">
        <ele>176.227031</ele>
        <time>2025-06-25T21:07:47.097Z</time>
      </trkpt>
      <trkpt lat="48.455815" lon="-0.302887">
        <ele>175.492657</ele>
        <time>2025-06-25T21:07:51.385Z</time>
      </trkpt>
      <trkpt lat="48.455747" lon="-0.302985">
        <ele>175.205856</ele>
        <time>2025-06-25T21:07:52.377Z</time>
      </trkpt>
      <trkpt lat="48.455475" lon="-0.303389">
        <ele>174.041750</ele>
        <time>2025-06-25T21:07:56.369Z</time>
      </trkpt>
      <trkpt lat="48.455365" lon="-0.303567">
        <ele>173.549777</ele>
        <time>2025-06-25T21:07:58.031Z</time>
      </trkpt>
      <trkpt lat="48.455289" lon="-0.303690">
        <ele>173.209841</ele>
        <time>2025-06-25T21:07:59.184Z</time>
      </trkpt>
      <trkpt lat="48.455249" lon="-0.303755">
        <ele>173.030538</ele>
        <time>2025-06-25T21:07:59.792Z</time>
      </trkpt>
      <trkpt lat="48.454674" lon="-0.304676">
        <ele>170.472804</ele>
        <time>2025-06-25T21:08:08.210Z</time>
      </trkpt>
      <trkpt lat="48.454355" lon="-0.305106">
        <ele>169.078764</ele>
        <time>2025-06-25T21:08:12.458Z</time>
      </trkpt>
      <trkpt lat="48.453959" lon="-0.305455">
        <ele>167.549631</ele>
        <time>2025-06-25T21:08:17.000Z</time>
      </trkpt>
      <trkpt lat="48.453942" lon="-0.305469">
        <ele>167.485055</ele>
        <time>2025-06-25T21:08:17.188Z</time>
      </trkpt>
      <trkpt lat="48.453699" lon="-0.305671">
        <ele>166.559998</ele>
        <time>2025-06-25T21:08:19.924Z</time>
      </trkpt>
      <trkpt lat="48.453148" lon="-0.305926">
        <ele>164.638529</ele>
        <time>2025-06-25T21:08:25.651Z</time>
      </trkpt>
      <trkpt lat="48.452537" lon="-0.306012">
        <ele>164.181785</ele>
        <time>2025-06-25T21:08:32.316Z</time>
      </trkpt>
      <trkpt lat="48.452417" lon="-0.306018">
        <ele>164.195447</ele>
        <time>2025-06-25T21:08:33.728Z</time>
      </trkpt>
      <trkpt lat="48.451258" lon="-0.306016">
        <ele>164.327335</ele>
        <time>2025-06-25T21:08:54.454Z</time>
      </trkpt>
      <trkpt lat="48.450554" lon="-0.306061">
        <ele>166.581274</ele>
        <time>2025-06-25T21:09:14.729Z</time>
      </trkpt>
      <trkpt lat="48.450104" lon="-0.306164">
        <ele>168.164709</ele>
        <time>2025-06-25T21:09:29.343Z</time>
      </trkpt>
      <trkpt lat="48.449147" lon="-0.306497">
        <ele>171.284005</ele>
        <time>2025-06-25T21:09:59.312Z</time>
      </trkpt>
      <trkpt lat="48.449000" lon="-0.306554">
        <ele>171.653396</ele>
        <time>2025-06-25T21:10:03.434Z</time>
      </trkpt>
      <trkpt lat="48.448957" lon="-0.306849">
        <ele>172.140953</ele>
        <time>2025-06-25T21:10:08.619Z</time>
      </trkpt>
      <trkpt lat="48.447933" lon="-0.309478">
        <ele>176.731724</ele>
        <time>2025-06-25T21:10:53.342Z</time>
      </trkpt>
      <trkpt lat="48.447764" lon="-0.310037">
        <ele>177.566796</ele>
        <time>2025-06-25T21:11:02.661Z</time>
      </trkpt>
      <trkpt lat="48.447709" lon="-0.310569">
        <ele>178.298693</ele>
        <time>2025-06-25T21:11:11.257Z</time>
      </trkpt>
      <trkpt lat="48.447734" lon="-0.311280">
        <ele>179.270922</ele>
        <time>2025-06-25T21:11:23.201Z</time>
      </trkpt>
      <trkpt lat="48.447774" lon="-0.312703">
        <ele>181.220863</ele>
        <time>2025-06-25T21:11:45.677Z</time>
      </trkpt>
      <trkpt lat="48.447833" lon="-0.314659">
        <ele>182.876672</ele>
        <time>2025-06-25T21:12:13.329Z</time>
      </trkpt>
      <trkpt lat="48.447983" lon="-0.317715">
        <ele>182.902123</ele>
        <time>2025-06-25T21:12:43.225Z</time>
      </trkpt>
      <trkpt lat="48.447994" lon="-0.318739">
        <ele>182.417083</ele>
        <time>2025-06-25T21:12:51.101Z</time>
      </trkpt>
      <trkpt lat="48.447970" lon="-0.318854">
        <ele>182.359985</ele>
        <time>2025-06-25T21:12:52.000Z</time>
      </trkpt>
      <trkpt lat="48.447831" lon="-0.319182">
        <ele>181.991547</ele>
        <time>2025-06-25T21:12:54.873Z</time>
      </trkpt>
      <trkpt lat="48.446523" lon="-0.321651">
        <ele>178.579698</ele>
        <time>2025-06-25T21:13:18.640Z</time>
      </trkpt>
      <trkpt lat="48.445851" lon="-0.323167">
        <ele>176.707129</ele>
        <time>2025-06-25T21:13:32.865Z</time>
      </trkpt>
      <trkpt lat="48.443577" lon="-0.327062">
        <ele>168.127322</ele>
        <time>2025-06-25T21:14:09.486Z</time>
      </trkpt>
      <trkpt lat="48.442604" lon="-0.328673">
        <ele>162.513332</ele>
        <time>2025-06-25T21:14:23.497Z</time>
      </trkpt>
      <trkpt lat="48.442214" lon="-0.329197">
        <ele>160.362883</ele>
        <time>2025-06-25T21:14:28.491Z</time>
      </trkpt>
      <trkpt lat="48.441884" lon="-0.329466">
        <ele>158.887740</ele>
        <time>2025-06-25T21:14:32.150Z</time>
      </trkpt>
      <trkpt lat="48.441438" lon="-0.329764">
        <ele>156.994633</ele>
        <time>2025-06-25T21:14:37.028Z</time>
      </trkpt>
      <trkpt lat="48.440414" lon="-0.330403">
        <ele>152.716769</ele>
        <time>2025-06-25T21:14:47.993Z</time>
      </trkpt>
      <trkpt lat="48.439612" lon="-0.330677">
        <ele>149.732711</ele>
        <time>2025-06-25T21:14:55.790Z</time>
      </trkpt>
      <trkpt lat="48.439445" lon="-0.330763">
        <ele>149.092324</ele>
        <time>2025-06-25T21:14:57.482Z</time>
      </trkpt>
      <trkpt lat="48.439278" lon="-0.330935">
        <ele>148.358374</ele>
        <time>2025-06-25T21:14:59.445Z</time>
      </trkpt>
      <trkpt lat="48.439109" lon="-0.331264">
        <ele>147.356686</ele>
        <time>2025-06-25T21:15:02.233Z</time>
      </trkpt>
      <trkpt lat="48.439048" lon="-0.331502">
        <ele>146.742463</ele>
        <time>2025-06-25T21:15:04.035Z</time>
      </trkpt>
      <trkpt lat="48.439020" lon="-0.331801">
        <ele>146.895820</ele>
        <time>2025-06-25T21:15:06.310Z</time>
      </trkpt>
      <trkpt lat="48.439026" lon="-0.332074">
        <ele>147.388367</ele>
        <time>2025-06-25T21:15:08.590Z</time>
      </trkpt>
      <trkpt lat="48.439048" lon="-0.332369">
        <ele>147.923666</ele>
        <time>2025-06-25T21:15:11.661Z</time>
      </trkpt>
      <trkpt lat="48.439082" lon="-0.332563">
        <ele>148.285490</ele>
        <time>2025-06-25T21:15:14.357Z</time>
      </trkpt>
      <trkpt lat="48.439332" lon="-0.333112">
        <ele>149.486226</ele>
        <time>2025-06-25T21:15:26.336Z</time>
      </trkpt>
      <trkpt lat="48.439747" lon="-0.333423">
        <ele>150.745937</ele>
        <time>2025-06-25T21:15:42.303Z</time>
      </trkpt>
      <trkpt lat="48.441913" lon="-0.334682">
        <ele>165.208390</ele>
        <time>2025-06-25T21:17:23.008Z</time>
      </trkpt>
      <trkpt lat="48.442068" lon="-0.334827">
        <ele>166.129283</ele>
        <time>2025-06-25T21:17:30.304Z</time>
      </trkpt>
      <trkpt lat="48.442119" lon="-0.334936">
        <ele>166.575966</ele>
        <time>2025-06-25T21:17:33.761Z</time>
      </trkpt>
      <trkpt lat="48.442150" lon="-0.335089">
        <ele>167.111704</ele>
        <time>2025-06-25T21:17:37.767Z</time>
      </trkpt>
      <trkpt lat="48.442136" lon="-0.335810">
        <ele>169.527247</ele>
        <time>2025-06-25T21:17:54.539Z</time>
      </trkpt>
      <trkpt lat="48.442110" lon="-0.336703">
        <ele>172.520636</ele>
        <time>2025-06-25T21:18:12.437Z</time>
      </trkpt>
      <trkpt lat="48.442082" lon="-0.337183">
        <ele>173.539407</ele>
        <time>2025-06-25T21:18:21.006Z</time>
      </trkpt>
      <trkpt lat="48.441874" lon="-0.340837">
        <ele>179.210595</ele>
        <time>2025-06-25T21:19:20.936Z</time>
      </trkpt>
      <trkpt lat="48.441662" lon="-0.342293">
        <ele>180.895174</ele>
        <time>2025-06-25T21:19:40.117Z</time>
      </trkpt>
      <trkpt lat="48.441541" lon="-0.342753">
        <ele>181.232094</ele>
        <time>2025-06-25T21:19:45.966Z</time>
      </trkpt>
      <trkpt lat="48.441470" lon="-0.342873">
        <ele>181.341574</ele>
        <time>2025-06-25T21:19:47.864Z</time>
      </trkpt>
      <trkpt lat="48.441338" lon="-0.343097">
        <ele>181.545571</ele>
        <time>2025-06-25T21:19:51.466Z</time>
      </trkpt>
      <trkpt lat="48.441019" lon="-0.343382">
        <ele>181.926162</ele>
        <time>2025-06-25T21:19:58.301Z</time>
      </trkpt>
      <trkpt lat="48.439867" lon="-0.344658">
        <ele>183.803696</ele>
        <time>2025-06-25T21:20:26.511Z</time>
      </trkpt>
      <trkpt lat="48.439667" lon="-0.345086">
        <ele>184.361202</ele>
        <time>2025-06-25T21:20:33.808Z</time>
      </trkpt>
      <trkpt lat="48.439327" lon="-0.346337">
        <ele>185.881790</ele>
        <time>2025-06-25T21:20:53.794Z</time>
      </trkpt>
      <trkpt lat="48.439219" lon="-0.346661">
        <ele>186.394052</ele>
        <time>2025-06-25T21:20:59.439Z</time>
      </trkpt>
      <trkpt lat="48.438996" lon="-0.347511">
        <ele>187.685383</ele>
        <time>2025-06-25T21:21:14.107Z</time>
      </trkpt>
      <trkpt lat="48.438795" lon="-0.348696">
        <ele>189.402892</ele>
        <time>2025-06-25T21:21:33.500Z</time>
      </trkpt>
      <trkpt lat="48.438644" lon="-0.349179">
        <ele>189.893427</ele>
        <time>2025-06-25T21:21:41.475Z</time>
      </trkpt>
      <trkpt lat="48.438578" lon="-0.349528">
        <ele>190.226828</ele>
        <time>2025-06-25T21:21:46.737Z</time>
      </trkpt>
      <trkpt lat="48.438483" lon="-0.350878">
        <ele>191.474040</ele>
        <time>2025-06-25T21:22:04.651Z</time>
      </trkpt>
      <trkpt lat="48.438475" lon="-0.351984">
        <ele>192.137835</ele>
        <time>2025-06-25T21:22:17.392Z</time>
      </trkpt>
      <trkpt lat="48.438571" lon="-0.354620">
        <ele>193.346305</ele>
        <time>2025-06-25T21:22:46.799Z</time>
      </trkpt>
      <trkpt lat="48.438512" lon="-0.355796">
        <ele>194.145414</ele>
        <time>2025-06-25T21:23:01.920Z</time>
      </trkpt>
      <trkpt lat="48.438330" lon="-0.357345">
        <ele>195.340539</ele>
        <time>2025-06-25T21:23:22.777Z</time>
      </trkpt>
      <trkpt lat="48.438139" lon="-0.358569">
        <ele>196.446158</ele>
        <time>2025-06-25T21:23:39.518Z</time>
      </trkpt>
      <trkpt lat="48.437715" lon="-0.360617">
        <ele>198.044048</ele>
        <time>2025-06-25T21:24:08.658Z</time>
      </trkpt>
      <trkpt lat="48.437677" lon="-0.360815">
        <ele>198.180646</ele>
        <time>2025-06-25T21:24:11.220Z</time>
      </trkpt>
      <trkpt lat="48.437470" lon="-0.361349">
        <ele>198.590520</ele>
        <time>2025-06-25T21:24:18.526Z</time>
      </trkpt>
      <trkpt lat="48.437046" lon="-0.362099">
        <ele>199.050285</ele>
        <time>2025-06-25T21:24:29.104Z</time>
      </trkpt>
      <trkpt lat="48.436670" lon="-0.363099">
        <ele>199.296816</ele>
        <time>2025-06-25T21:24:40.673Z</time>
      </trkpt>
      <trkpt lat="48.436337" lon="-0.363718">
        <ele>199.467742</ele>
        <time>2025-06-25T21:24:49.572Z</time>
      </trkpt>
      <trkpt lat="48.436241" lon="-0.364028">
        <ele>199.538415</ele>
        <time>2025-06-25T21:24:53.476Z</time>
      </trkpt>
      <trkpt lat="48.436135" lon="-0.364694">
        <ele>199.468740</ele>
        <time>2025-06-25T21:25:01.131Z</time>
      </trkpt>
      <trkpt lat="48.436064" lon="-0.365000">
        <ele>199.435761</ele>
        <time>2025-06-25T21:25:04.561Z</time>
      </trkpt>
      <trkpt lat="48.435793" lon="-0.365619">
        <ele>199.360315</ele>
        <time>2025-06-25T21:25:11.830Z</time>
      </trkpt>
      <trkpt lat="48.435348" lon="-0.367715">
        <ele>198.336562</ele>
        <time>2025-06-25T21:25:30.019Z</time>
      </trkpt>
      <trkpt lat="48.435289" lon="-0.368072">
        <ele>198.063507</ele>
        <time>2025-06-25T21:25:32.887Z</time>
      </trkpt>
      <trkpt lat="48.435259" lon="-0.368391">
        <ele>197.824384</ele>
        <time>2025-06-25T21:25:35.382Z</time>
      </trkpt>
      <trkpt lat="48.435277" lon="-0.368676">
        <ele>197.611906</ele>
        <time>2025-06-25T21:25:37.592Z</time>
      </trkpt>
      <trkpt lat="48.435487" lon="-0.370501">
        <ele>195.738287</ele>
        <time>2025-06-25T21:25:51.933Z</time>
      </trkpt>
      <trkpt lat="48.435614" lon="-0.371216">
        <ele>194.918711</ele>
        <time>2025-06-25T21:25:57.469Z</time>
      </trkpt>
      <trkpt lat="48.435639" lon="-0.371535">
        <ele>194.563038</ele>
        <time>2025-06-25T21:25:59.834Z</time>
      </trkpt>
      <trkpt lat="48.435668" lon="-0.372964">
        <ele>192.218994</ele>
        <time>2025-06-25T21:26:09.981Z</time>
      </trkpt>
      <trkpt lat="48.435710" lon="-0.373250">
        <ele>191.700240</ele>
        <time>2025-06-25T21:26:11.981Z</time>
      </trkpt>
      <trkpt lat="48.435790" lon="-0.373479">
        <ele>191.241905</ele>
        <time>2025-06-25T21:26:13.739Z</time>
      </trkpt>
      <trkpt lat="48.435972" lon="-0.373850">
        <ele>190.424781</ele>
        <time>2025-06-25T21:26:16.879Z</time>
      </trkpt>
      <trkpt lat="48.436273" lon="-0.374389">
        <ele>189.180185</ele>
        <time>2025-06-25T21:26:21.660Z</time>
      </trkpt>
      <trkpt lat="48.436933" lon="-0.375347">
        <ele>186.762091</ele>
        <time>2025-06-25T21:26:31.106Z</time>
      </trkpt>
      <trkpt lat="48.437088" lon="-0.375624">
        <ele>186.127635</ele>
        <time>2025-06-25T21:26:33.644Z</time>
      </trkpt>
      <trkpt lat="48.437483" lon="-0.376736">
        <ele>183.992404</ele>
        <time>2025-06-25T21:26:42.681Z</time>
      </trkpt>
      <trkpt lat="48.437734" lon="-0.378209">
        <ele>181.578773</ele>
        <time>2025-06-25T21:26:53.695Z</time>
      </trkpt>
      <trkpt lat="48.437808" lon="-0.378871">
        <ele>180.513328</ele>
        <time>2025-06-25T21:26:58.353Z</time>
      </trkpt>
      <trkpt lat="48.437702" lon="-0.381307">
        <ele>175.905612</ele>
        <time>2025-06-25T21:27:14.667Z</time>
      </trkpt>
      <trkpt lat="48.437664" lon="-0.381520">
        <ele>175.487290</ele>
        <time>2025-06-25T21:27:16.218Z</time>
      </trkpt>
      <trkpt lat="48.437510" lon="-0.381816">
        <ele>175.329161</ele>
        <time>2025-06-25T21:27:18.996Z</time>
      </trkpt>
      <trkpt lat="48.437159" lon="-0.382161">
        <ele>175.507102</ele>
        <time>2025-06-25T21:27:24.240Z</time>
      </trkpt>
      <trkpt lat="48.437051" lon="-0.382314">
        <ele>175.570041</ele>
        <time>2025-06-25T21:27:26.460Z</time>
      </trkpt>
      <trkpt lat="48.437001" lon="-0.382547">
        <ele>175.639032</ele>
        <time>2025-06-25T21:27:29.195Z</time>
      </trkpt>
      <trkpt lat="48.437089" lon="-0.385142">
        <ele>177.142426</ele>
        <time>2025-06-25T21:28:08.086Z</time>
      </trkpt>
      <trkpt lat="48.437201" lon="-0.386126">
        <ele>178.043682</ele>
        <time>2025-06-25T21:28:20.860Z</time>
      </trkpt>
      <trkpt lat="48.437280" lon="-0.386452">
        <ele>178.356986</ele>
        <time>2025-06-25T21:28:25.029Z</time>
      </trkpt>
      <trkpt lat="48.437350" lon="-0.387140">
        <ele>178.278415</ele>
        <time>2025-06-25T21:28:32.805Z</time>
      </trkpt>
      <trkpt lat="48.437510" lon="-0.387374">
        <ele>178.166859</ele>
        <time>2025-06-25T21:28:36.496Z</time>
      </trkpt>
      <trkpt lat="48.437432" lon="-0.388192">
        <ele>177.892508</ele>
        <time>2025-06-25T21:28:44.691Z</time>
      </trkpt>
      <trkpt lat="48.437533" lon="-0.388470">
        <ele>177.787285</ele>
        <time>2025-06-25T21:28:47.421Z</time>
      </trkpt>
      <trkpt lat="48.437594" lon="-0.389006">
        <ele>177.606744</ele>
        <time>2025-06-25T21:28:51.604Z</time>
      </trkpt>
      <trkpt lat="48.437658" lon="-0.389901">
        <ele>175.364224</ele>
        <time>2025-06-25T21:28:57.722Z</time>
      </trkpt>
      <trkpt lat="48.437842" lon="-0.391410">
        <ele>171.055200</ele>
        <time>2025-06-25T21:29:07.396Z</time>
      </trkpt>
      <trkpt lat="48.438006" lon="-0.392498">
        <ele>167.834816</ele>
        <time>2025-06-25T21:29:14.194Z</time>
      </trkpt>
      <trkpt lat="48.438249" lon="-0.394132">
        <ele>162.930891</ele>
        <time>2025-06-25T21:29:24.644Z</time>
      </trkpt>
      <trkpt lat="48.438346" lon="-0.394350">
        <ele>162.162188</ele>
        <time>2025-06-25T21:29:26.482Z</time>
      </trkpt>
      <trkpt lat="48.438429" lon="-0.394535">
        <ele>162.295567</ele>
        <time>2025-06-25T21:29:28.194Z</time>
      </trkpt>
      <trkpt lat="48.438677" lon="-0.394923">
        <ele>163.170426</ele>
        <time>2025-06-25T21:29:33.724Z</time>
      </trkpt>
      <trkpt lat="48.439092" lon="-0.395323">
        <ele>164.376076</ele>
        <time>2025-06-25T21:29:46.683Z</time>
      </trkpt>
      <trkpt lat="48.439288" lon="-0.395587">
        <ele>165.019422</ele>
        <time>2025-06-25T21:29:55.798Z</time>
      </trkpt>
      <trkpt lat="48.439831" lon="-0.396805">
        <ele>167.654491</ele>
        <time>2025-06-25T21:30:29.734Z</time>
      </trkpt>
      <trkpt lat="48.440181" lon="-0.397549">
        <ele>169.514675</ele>
        <time>2025-06-25T21:30:46.860Z</time>
      </trkpt>
      <trkpt lat="48.440333" lon="-0.397952">
        <ele>170.460145</ele>
        <time>2025-06-25T21:30:54.441Z</time>
      </trkpt>
      <trkpt lat="48.440348" lon="-0.398093">
        <ele>170.751388</ele>
        <time>2025-06-25T21:30:56.562Z</time>
      </trkpt>
      <trkpt lat="48.440303" lon="-0.399213">
        <ele>172.293943</ele>
        <time>2025-06-25T21:31:11.645Z</time>
      </trkpt>
      <trkpt lat="48.440355" lon="-0.399606">
        <ele>172.553624</ele>
        <time>2025-06-25T21:31:16.935Z</time>
      </trkpt>
      <trkpt lat="48.440493" lon="-0.400144">
        <ele>172.927401</ele>
        <time>2025-06-25T21:31:24.850Z</time>
      </trkpt>
      <trkpt lat="48.440543" lon="-0.400521">
        <ele>173.176531</ele>
        <time>2025-06-25T21:31:29.751Z</time>
      </trkpt>
      <trkpt lat="48.440533" lon="-0.401749">
        <ele>173.386047</ele>
        <time>2025-06-25T21:31:42.797Z</time>
      </trkpt>
      <trkpt lat="48.440580" lon="-0.402499">
        <ele>172.809607</ele>
        <time>2025-06-25T21:31:49.246Z</time>
      </trkpt>
      <trkpt lat="48.440630" lon="-0.403112">
        <ele>172.337020</ele>
        <time>2025-06-25T21:31:54.055Z</time>
      </trkpt>
      <trkpt lat="48.440753" lon="-0.403993">
        <ele>171.648131</ele>
        <time>2025-06-25T21:32:00.566Z</time>
      </trkpt>
      <trkpt lat="48.440810" lon="-0.404606">
        <ele>170.810942</ele>
        <time>2025-06-25T21:32:04.853Z</time>
      </trkpt>
      <trkpt lat="48.440815" lon="-0.405236">
        <ele>169.943138</ele>
        <time>2025-06-25T21:32:09.229Z</time>
      </trkpt>
      <trkpt lat="48.440784" lon="-0.405686">
        <ele>169.319990</ele>
        <time>2025-06-25T21:32:12.458Z</time>
      </trkpt>
      <trkpt lat="48.440623" lon="-0.406192">
        <ele>168.547023</ele>
        <time>2025-06-25T21:32:16.578Z</time>
      </trkpt>
      <trkpt lat="48.440475" lon="-0.406574">
        <ele>167.937708</ele>
        <time>2025-06-25T21:32:19.924Z</time>
      </trkpt>
      <trkpt lat="48.440263" lon="-0.407416">
        <ele>167.585949</ele>
        <time>2025-06-25T21:32:27.183Z</time>
      </trkpt>
      <trkpt lat="48.440203" lon="-0.407798">
        <ele>167.446611</ele>
        <time>2025-06-25T21:32:30.656Z</time>
      </trkpt>
      <trkpt lat="48.440183" lon="-0.408338">
        <ele>167.254643</ele>
        <time>2025-06-25T21:32:35.709Z</time>
      </trkpt>
      <trkpt lat="48.440213" lon="-0.408732">
        <ele>167.113877</ele>
        <time>2025-06-25T21:32:39.505Z</time>
      </trkpt>
      <trkpt lat="48.440457" lon="-0.409454">
        <ele>166.836892</ele>
        <time>2025-06-25T21:32:47.493Z</time>
      </trkpt>
      <trkpt lat="48.440492" lon="-0.409918">
        <ele>166.687769</ele>
        <time>2025-06-25T21:32:52.313Z</time>
      </trkpt>
      <trkpt lat="48.440441" lon="-0.411183">
        <ele>166.283071</ele>
        <time>2025-06-25T21:33:04.672Z</time>
      </trkpt>
      <trkpt lat="48.440503" lon="-0.411885">
        <ele>165.998581</ele>
        <time>2025-06-25T21:33:10.381Z</time>
      </trkpt>
      <trkpt lat="48.440578" lon="-0.412434">
        <ele>164.710876</ele>
        <time>2025-06-25T21:33:14.470Z</time>
      </trkpt>
      <trkpt lat="48.440818" lon="-0.413712">
        <ele>161.659514</ele>
        <time>2025-06-25T21:33:23.195Z</time>
      </trkpt>
      <trkpt lat="48.441110" lon="-0.414612">
        <ele>159.365339</ele>
        <time>2025-06-25T21:33:29.461Z</time>
      </trkpt>
      <trkpt lat="48.441150" lon="-0.414959">
        <ele>158.568778</ele>
        <time>2025-06-25T21:33:31.669Z</time>
      </trkpt>
      <trkpt lat="48.441151" lon="-0.415876">
        <ele>156.494818</ele>
        <time>2025-06-25T21:33:37.519Z</time>
      </trkpt>
      <trkpt lat="48.441161" lon="-0.417740">
        <ele>153.715182</ele>
        <time>2025-06-25T21:33:50.931Z</time>
      </trkpt>
      <trkpt lat="48.441090" lon="-0.418247">
        <ele>153.723070</ele>
        <time>2025-06-25T21:33:55.885Z</time>
      </trkpt>
      <trkpt lat="48.440869" lon="-0.418836">
        <ele>153.733371</ele>
        <time>2025-06-25T21:34:03.508Z</time>
      </trkpt>
      <trkpt lat="48.440547" lon="-0.419455">
        <ele>153.745345</ele>
        <time>2025-06-25T21:34:14.049Z</time>
      </trkpt>
      <trkpt lat="48.440080" lon="-0.419963">
        <ele>154.006417</ele>
        <time>2025-06-25T21:34:26.430Z</time>
      </trkpt>
      <trkpt lat="48.439788" lon="-0.420222">
        <ele>154.178778</ele>
        <time>2025-06-25T21:34:32.934Z</time>
      </trkpt>
      <trkpt lat="48.439379" lon="-0.420463">
        <ele>154.402185</ele>
        <time>2025-06-25T21:34:40.069Z</time>
      </trkpt>
      <trkpt lat="48.439303" lon="-0.420616">
        <ele>154.466693</ele>
        <time>2025-06-25T21:34:41.868Z</time>
      </trkpt>
      <trkpt lat="48.439313" lon="-0.420793">
        <ele>154.526647</ele>
        <time>2025-06-25T21:34:43.488Z</time>
      </trkpt>
      <trkpt lat="48.439472" lon="-0.421278">
        <ele>154.642392</ele>
        <time>2025-06-25T21:34:48.116Z</time>
      </trkpt>
      <trkpt lat="48.439654" lon="-0.421946">
        <ele>154.542024</ele>
        <time>2025-06-25T21:34:53.880Z</time>
      </trkpt>
      <trkpt lat="48.439689" lon="-0.422074">
        <ele>154.522782</ele>
        <time>2025-06-25T21:34:54.960Z</time>
      </trkpt>
      <trkpt lat="48.440048" lon="-0.422888">
        <ele>154.386927</ele>
        <time>2025-06-25T21:35:02.954Z</time>
      </trkpt>
      <trkpt lat="48.440593" lon="-0.423910">
        <ele>155.464850</ele>
        <time>2025-06-25T21:35:19.877Z</time>
      </trkpt>
      <trkpt lat="48.440620" lon="-0.424410">
        <ele>156.488171</ele>
        <time>2025-06-25T21:35:28.313Z</time>
      </trkpt>
      <trkpt lat="48.440362" lon="-0.427266">
        <ele>163.746318</ele>
        <time>2025-06-25T21:36:27.917Z</time>
      </trkpt>
      <trkpt lat="48.440457" lon="-0.428463">
        <ele>167.533717</ele>
        <time>2025-06-25T21:36:56.308Z</time>
      </trkpt>
      <trkpt lat="48.440434" lon="-0.429071">
        <ele>169.692069</ele>
        <time>2025-06-25T21:37:11.329Z</time>
      </trkpt>
      <trkpt lat="48.440333" lon="-0.429674">
        <ele>172.076124</ele>
        <time>2025-06-25T21:37:26.812Z</time>
      </trkpt>
      <trkpt lat="48.440088" lon="-0.430829">
        <ele>176.724499</ele>
        <time>2025-06-25T21:37:57.160Z</time>
      </trkpt>
      <trkpt lat="48.439781" lon="-0.431827">
        <ele>181.463582</ele>
        <time>2025-06-25T21:38:26.176Z</time>
      </trkpt>
      <trkpt lat="48.439565" lon="-0.432352">
        <ele>184.390002</ele>
        <time>2025-06-25T21:38:43.471Z</time>
      </trkpt>
      <trkpt lat="48.438918" lon="-0.433573">
        <ele>191.806425</ele>
        <time>2025-06-25T21:39:30.593Z</time>
      </trkpt>
      <trkpt lat="48.437842" lon="-0.436060">
        <ele>206.222046</ele>
        <time>2025-06-25T21:41:01.115Z</time>
      </trkpt>
      <trkpt lat="48.437641" lon="-0.436602">
        <ele>208.284361</ele>
        <time>2025-06-25T21:41:16.413Z</time>
      </trkpt>
      <trkpt lat="48.437460" lon="-0.437322">
        <ele>210.841649</ele>
        <time>2025-06-25T21:41:33.429Z</time>
      </trkpt>
      <trkpt lat="48.437353" lon="-0.438325">
        <ele>214.215048</ele>
        <time>2025-06-25T21:41:53.716Z</time>
      </trkpt>
      <trkpt lat="48.437280" lon="-0.438706">
        <ele>215.062070</ele>
        <time>2025-06-25T21:42:01.329Z</time>
      </trkpt>
      <trkpt lat="48.437109" lon="-0.439258">
        <ele>216.363268</ele>
        <time>2025-06-25T21:42:13.132Z</time>
      </trkpt>
      <trkpt lat="48.436498" lon="-0.440789">
        <ele>220.162657</ele>
        <time>2025-06-25T21:42:45.002Z</time>
      </trkpt>
      <trkpt lat="48.436448" lon="-0.440993">
        <ele>220.582864</ele>
        <time>2025-06-25T21:42:48.523Z</time>
      </trkpt>
      <trkpt lat="48.436344" lon="-0.441635">
        <ele>221.859782</ele>
        <time>2025-06-25T21:42:59.339Z</time>
      </trkpt>
      <trkpt lat="48.436344" lon="-0.441828">
        <ele>222.232699</ele>
        <time>2025-06-25T21:43:02.587Z</time>
      </trkpt>
      <trkpt lat="48.436378" lon="-0.442061">
        <ele>222.693664</ele>
        <time>2025-06-25T21:43:06.725Z</time>
      </trkpt>
      <trkpt lat="48.436546" lon="-0.442775">
        <ele>224.157449</ele>
        <time>2025-06-25T21:43:20.169Z</time>
      </trkpt>
      <trkpt lat="48.436586" lon="-0.443140">
        <ele>224.872259</ele>
        <time>2025-06-25T21:43:27.001Z</time>
      </trkpt>
      <trkpt lat="48.436561" lon="-0.443776">
        <ele>226.102199</ele>
        <time>2025-06-25T21:43:39.073Z</time>
      </trkpt>
      <trkpt lat="48.436510" lon="-0.444315">
        <ele>227.152857</ele>
        <time>2025-06-25T21:43:49.283Z</time>
      </trkpt>
      <trkpt lat="48.436138" lon="-0.446781">
        <ele>231.165367</ele>
        <time>2025-06-25T21:44:32.605Z</time>
      </trkpt>
      <trkpt lat="48.435785" lon="-0.448450">
        <ele>232.664139</ele>
        <time>2025-06-25T21:44:55.117Z</time>
      </trkpt>
      <trkpt lat="48.435713" lon="-0.448765">
        <ele>232.593037</ele>
        <time>2025-06-25T21:44:57.906Z</time>
      </trkpt>
      <trkpt lat="48.435670" lon="-0.449186">
        <ele>232.122582</ele>
        <time>2025-06-25T21:45:01.208Z</time>
      </trkpt>
      <trkpt lat="48.435666" lon="-0.449664">
        <ele>231.594608</ele>
        <time>2025-06-25T21:45:04.668Z</time>
      </trkpt>
      <trkpt lat="48.435687" lon="-0.449989">
        <ele>231.233960</ele>
        <time>2025-06-25T21:45:06.935Z</time>
      </trkpt>
      <trkpt lat="48.435925" lon="-0.451432">
        <ele>229.805859</ele>
        <time>2025-06-25T21:45:17.455Z</time>
      </trkpt>
      <trkpt lat="48.435901" lon="-0.452055">
        <ele>229.826842</ele>
        <time>2025-06-25T21:45:22.630Z</time>
      </trkpt>
      <trkpt lat="48.435924" lon="-0.452319">
        <ele>229.835795</ele>
        <time>2025-06-25T21:45:25.051Z</time>
      </trkpt>
      <trkpt lat="48.435992" lon="-0.452617">
        <ele>229.846391</ele>
        <time>2025-06-25T21:45:28.157Z</time>
      </trkpt>
      <trkpt lat="48.436459" lon="-0.454145">
        <ele>230.339131</ele>
        <time>2025-06-25T21:45:49.740Z</time>
      </trkpt>
      <trkpt lat="48.436532" lon="-0.454597">
        <ele>230.910807</ele>
        <time>2025-06-25T21:45:56.610Z</time>
      </trkpt>
      <trkpt lat="48.436761" lon="-0.456888">
        <ele>233.614474</ele>
        <time>2025-06-25T21:46:32.518Z</time>
      </trkpt>
      <trkpt lat="48.436643" lon="-0.458577">
        <ele>235.142573</ele>
        <time>2025-06-25T21:46:56.155Z</time>
      </trkpt>
      <trkpt lat="48.436493" lon="-0.459958">
        <ele>235.469120</ele>
        <time>2025-06-25T21:47:11.014Z</time>
      </trkpt>
      <trkpt lat="48.436442" lon="-0.460437">
        <ele>235.355633</ele>
        <time>2025-06-25T21:47:15.372Z</time>
      </trkpt>
      <trkpt lat="48.436423" lon="-0.461065">
        <ele>235.208571</ele>
        <time>2025-06-25T21:47:20.793Z</time>
      </trkpt>
      <trkpt lat="48.436468" lon="-0.461588">
        <ele>235.085200</ele>
        <time>2025-06-25T21:47:25.173Z</time>
      </trkpt>
      <trkpt lat="48.436592" lon="-0.462307">
        <ele>234.511355</ele>
        <time>2025-06-25T21:47:31.145Z</time>
      </trkpt>
      <trkpt lat="48.436694" lon="-0.463135">
        <ele>233.634551</ele>
        <time>2025-06-25T21:47:37.679Z</time>
      </trkpt>
      <trkpt lat="48.436701" lon="-0.463482">
        <ele>233.273106</ele>
        <time>2025-06-25T21:47:40.296Z</time>
      </trkpt>
      <trkpt lat="48.436590" lon="-0.464550">
        <ele>232.141437</ele>
        <time>2025-06-25T21:47:48.195Z</time>
      </trkpt>
      <trkpt lat="48.436554" lon="-0.465331">
        <ele>231.238415</ele>
        <time>2025-06-25T21:47:53.801Z</time>
      </trkpt>
      <trkpt lat="48.436483" lon="-0.466083">
        <ele>230.362276</ele>
        <time>2025-06-25T21:47:59.307Z</time>
      </trkpt>
      <trkpt lat="48.436468" lon="-0.466565">
        <ele>229.805697</ele>
        <time>2025-06-25T21:48:02.890Z</time>
      </trkpt>
      <trkpt lat="48.436497" lon="-0.467014">
        <ele>229.285346</ele>
        <time>2025-06-25T21:48:06.364Z</time>
      </trkpt>
      <trkpt lat="48.436702" lon="-0.468049">
        <ele>228.931476</ele>
        <time>2025-06-25T21:48:15.442Z</time>
      </trkpt>
      <trkpt lat="48.436936" lon="-0.468931">
        <ele>228.777195</ele>
        <time>2025-06-25T21:48:24.913Z</time>
      </trkpt>
      <trkpt lat="48.437443" lon="-0.470205">
        <ele>228.309202</ele>
        <time>2025-06-25T21:48:40.597Z</time>
      </trkpt>
      <trkpt lat="48.437468" lon="-0.470380">
        <ele>228.215150</ele>
        <time>2025-06-25T21:48:42.344Z</time>
      </trkpt>
      <trkpt lat="48.437446" lon="-0.470479">
        <ele>228.160296</ele>
        <time>2025-06-25T21:48:43.343Z</time>
      </trkpt>
      <trkpt lat="48.437427" lon="-0.470560">
        <ele>228.115157</ele>
        <time>2025-06-25T21:48:44.155Z</time>
      </trkpt>
      <trkpt lat="48.437127" lon="-0.471041">
        <ele>227.768299</ele>
        <time>2025-06-25T21:48:49.899Z</time>
      </trkpt>
      <trkpt lat="48.436829" lon="-0.471859">
        <ele>227.277988</ele>
        <time>2025-06-25T21:48:57.162Z</time>
      </trkpt>
      <trkpt lat="48.436536" lon="-0.473487">
        <ele>223.853065</ele>
        <time>2025-06-25T21:49:08.865Z</time>
      </trkpt>
      <trkpt lat="48.436495" lon="-0.473676">
        <ele>223.425624</ele>
        <time>2025-06-25T21:49:10.166Z</time>
      </trkpt>
      <trkpt lat="48.436380" lon="-0.473857">
        <ele>222.886908</ele>
        <time>2025-06-25T21:49:11.795Z</time>
      </trkpt>
      <trkpt lat="48.435733" lon="-0.474508">
        <ele>219.824881</ele>
        <time>2025-06-25T21:49:19.280Z</time>
      </trkpt>
      <trkpt lat="48.435522" lon="-0.474826">
        <ele>218.344228</ele>
        <time>2025-06-25T21:49:22.087Z</time>
      </trkpt>
      <trkpt lat="48.435415" lon="-0.475067">
        <ele>217.389528</ele>
        <time>2025-06-25T21:49:23.889Z</time>
      </trkpt>
      <trkpt lat="48.435235" lon="-0.476376">
        <ele>212.988371</ele>
        <time>2025-06-25T21:49:32.198Z</time>
      </trkpt>
      <trkpt lat="48.435126" lon="-0.476644">
        <ele>212.117766</ele>
        <time>2025-06-25T21:49:34.142Z</time>
      </trkpt>
      <trkpt lat="48.434740" lon="-0.477242">
        <ele>210.261951</ele>
        <time>2025-06-25T21:49:39.346Z</time>
      </trkpt>
      <trkpt lat="48.434125" lon="-0.477682">
        <ele>207.979596</ele>
        <time>2025-06-25T21:49:46.146Z</time>
      </trkpt>
      <trkpt lat="48.433811" lon="-0.477957">
        <ele>206.762055</ele>
        <time>2025-06-25T21:49:50.150Z</time>
      </trkpt>
      <trkpt lat="48.434880" lon="-0.479483">
        <ele>206.265096</ele>
        <time>2025-06-25T21:50:13.577Z</time>
      </trkpt>
      <trkpt lat="48.435333" lon="-0.480230">
        <ele>206.013411</ele>
        <time>2025-06-25T21:50:23.510Z</time>
      </trkpt>
      <trkpt lat="48.435639" lon="-0.480897">
        <ele>205.574717</ele>
        <time>2025-06-25T21:50:30.385Z</time>
      </trkpt>
      <trkpt lat="48.435809" lon="-0.481405">
        <ele>205.266923</ele>
        <time>2025-06-25T21:50:34.924Z</time>
      </trkpt>
      <trkpt lat="48.436063" lon="-0.482050">
        <ele>204.861161</ele>
        <time>2025-06-25T21:50:40.774Z</time>
      </trkpt>
      <trkpt lat="48.436206" lon="-0.482484">
        <ele>204.437372</ele>
        <time>2025-06-25T21:50:44.644Z</time>
      </trkpt>
      <trkpt lat="48.436262" lon="-0.482846">
        <ele>204.017338</ele>
        <time>2025-06-25T21:50:47.642Z</time>
      </trkpt>
      <trkpt lat="48.436265" lon="-0.483290">
        <ele>203.515590</ele>
        <time>2025-06-25T21:50:51.150Z</time>
      </trkpt>
      <trkpt lat="48.436067" lon="-0.484276">
        <ele>202.351486</ele>
        <time>2025-06-25T21:50:58.777Z</time>
      </trkpt>
      <trkpt lat="48.436063" lon="-0.484488">
        <ele>202.111828</ele>
        <time>2025-06-25T21:51:00.266Z</time>
      </trkpt>
      <trkpt lat="48.436211" lon="-0.485425">
        <ele>200.793662</ele>
        <time>2025-06-25T21:51:07.055Z</time>
      </trkpt>
      <trkpt lat="48.436273" lon="-0.486035">
        <ele>199.853774</ele>
        <time>2025-06-25T21:51:11.457Z</time>
      </trkpt>
      <trkpt lat="48.436369" lon="-0.486405">
        <ele>199.248694</ele>
        <time>2025-06-25T21:51:14.269Z</time>
      </trkpt>
      <trkpt lat="48.436407" lon="-0.486434">
        <ele>199.150917</ele>
        <time>2025-06-25T21:51:14.729Z</time>
      </trkpt>
      <trkpt lat="48.436437" lon="-0.486478">
        <ele>199.054825</ele>
        <time>2025-06-25T21:51:15.183Z</time>
      </trkpt>
      <trkpt lat="48.436468" lon="-0.486606">
        <ele>198.847295</ele>
        <time>2025-06-25T21:51:16.143Z</time>
      </trkpt>
      <trkpt lat="48.436461" lon="-0.486679">
        <ele>198.734959</ele>
        <time>2025-06-25T21:51:16.667Z</time>
      </trkpt>
      <trkpt lat="48.436439" lon="-0.486745">
        <ele>198.622465</ele>
        <time>2025-06-25T21:51:17.179Z</time>
      </trkpt>
      <trkpt lat="48.436446" lon="-0.486908">
        <ele>198.373693</ele>
        <time>2025-06-25T21:51:18.347Z</time>
      </trkpt>
      <trkpt lat="48.436517" lon="-0.487261">
        <ele>197.811903</ele>
        <time>2025-06-25T21:51:20.947Z</time>
      </trkpt>
      <trkpt lat="48.436742" lon="-0.487968">
        <ele>196.816295</ele>
        <time>2025-06-25T21:51:26.643Z</time>
      </trkpt>
      <trkpt lat="48.437122" lon="-0.488923">
        <ele>195.479692</ele>
        <time>2025-06-25T21:51:34.715Z</time>
      </trkpt>
      <trkpt lat="48.437394" lon="-0.489664">
        <ele>194.463248</ele>
        <time>2025-06-25T21:51:41.092Z</time>
      </trkpt>
      <trkpt lat="48.437686" lon="-0.490548">
        <ele>193.773169</ele>
        <time>2025-06-25T21:51:49.386Z</time>
      </trkpt>
      <trkpt lat="48.437883" lon="-0.491024">
        <ele>193.425731</ele>
        <time>2025-06-25T21:51:54.253Z</time>
      </trkpt>
      <trkpt lat="48.437932" lon="-0.491227">
        <ele>193.291953</ele>
        <time>2025-06-25T21:51:56.063Z</time>
      </trkpt>
      <trkpt lat="48.437951" lon="-0.491450">
        <ele>193.152718</ele>
        <time>2025-06-25T21:51:57.917Z</time>
      </trkpt>
      <trkpt lat="48.437939" lon="-0.491745">
        <ele>192.969684</ele>
        <time>2025-06-25T21:52:00.313Z</time>
      </trkpt>
      <trkpt lat="48.437774" lon="-0.492523">
        <ele>192.571636</ele>
        <time>2025-06-25T21:52:06.818Z</time>
      </trkpt>
      <trkpt lat="48.437550" lon="-0.493095">
        <ele>192.440540</ele>
        <time>2025-06-25T21:52:12.067Z</time>
      </trkpt>
      <trkpt lat="48.437536" lon="-0.493559">
        <ele>192.348865</ele>
        <time>2025-06-25T21:52:15.934Z</time>
      </trkpt>
      <trkpt lat="48.437529" lon="-0.494005">
        <ele>192.260812</ele>
        <time>2025-06-25T21:52:19.910Z</time>
      </trkpt>
      <trkpt lat="48.437581" lon="-0.494316">
        <ele>192.197511</ele>
        <time>2025-06-25T21:52:23.124Z</time>
      </trkpt>
      <trkpt lat="48.437726" lon="-0.494869">
        <ele>192.096078</ele>
        <time>2025-06-25T21:52:30.362Z</time>
      </trkpt>
      <trkpt lat="48.437717" lon="-0.495064">
        <ele>192.147721</ele>
        <time>2025-06-25T21:52:32.933Z</time>
      </trkpt>
      <trkpt lat="48.437686" lon="-0.495192">
        <ele>192.183721</ele>
        <time>2025-06-25T21:52:34.722Z</time>
      </trkpt>
      <trkpt lat="48.437517" lon="-0.495545">
        <ele>192.298729</ele>
        <time>2025-06-25T21:52:40.735Z</time>
      </trkpt>
      <trkpt lat="48.437477" lon="-0.495678">
        <ele>192.337309</ele>
        <time>2025-06-25T21:52:42.835Z</time>
      </trkpt>
      <trkpt lat="48.437530" lon="-0.496121">
        <ele>192.456236</ele>
        <time>2025-06-25T21:52:49.178Z</time>
      </trkpt>
      <trkpt lat="48.437546" lon="-0.496199">
        <ele>192.477806</ele>
        <time>2025-06-25T21:52:50.257Z</time>
      </trkpt>
      <trkpt lat="48.437595" lon="-0.496308">
        <ele>192.512592</ele>
        <time>2025-06-25T21:52:51.848Z</time>
      </trkpt>
      <trkpt lat="48.437766" lon="-0.496565">
        <ele>192.608754</ele>
        <time>2025-06-25T21:52:55.608Z</time>
      </trkpt>
      <trkpt lat="48.437980" lon="-0.496881">
        <ele>192.728053</ele>
        <time>2025-06-25T21:52:59.498Z</time>
      </trkpt>
      <trkpt lat="48.438279" lon="-0.497376">
        <ele>192.589029</ele>
        <time>2025-06-25T21:53:04.639Z</time>
      </trkpt>
      <trkpt lat="48.438231" lon="-0.497461">
        <ele>192.526913</ele>
        <time>2025-06-25T21:53:05.467Z</time>
      </trkpt>
      <trkpt lat="48.438174" lon="-0.497551">
        <ele>192.457672</ele>
        <time>2025-06-25T21:53:06.382Z</time>
      </trkpt>
      <trkpt lat="48.437809" lon="-0.498231">
        <ele>191.970920</ele>
        <time>2025-06-25T21:53:13.085Z</time>
      </trkpt>
      <trkpt lat="48.437353" lon="-0.499056">
        <ele>191.373362</ele>
        <time>2025-06-25T21:53:22.178Z</time>
      </trkpt>
      <trkpt lat="48.437126" lon="-0.499436">
        <ele>191.671333</ele>
        <time>2025-06-25T21:53:27.505Z</time>
      </trkpt>
      <trkpt lat="48.437218" lon="-0.499561">
        <ele>191.861629</ele>
        <time>2025-06-25T21:53:30.509Z</time>
      </trkpt>
      <trkpt lat="48.437452" lon="-0.499762">
        <ele>192.275419</ele>
        <time>2025-06-25T21:53:37.438Z</time>
      </trkpt>
      <trkpt lat="48.437806" lon="-0.500151">
        <ele>192.948481</ele>
        <time>2025-06-25T21:53:49.493Z</time>
      </trkpt>
      <trkpt lat="48.437845" lon="-0.500266">
        <ele>193.080125</ele>
        <time>2025-06-25T21:53:51.916Z</time>
      </trkpt>
      <trkpt lat="48.437852" lon="-0.500546">
        <ele>193.365725</ele>
        <time>2025-06-25T21:53:57.125Z</time>
      </trkpt>
      <trkpt lat="48.437884" lon="-0.501562">
        <ele>194.649375</ele>
        <time>2025-06-25T21:54:17.089Z</time>
      </trkpt>
      <trkpt lat="48.437868" lon="-0.501827">
        <ele>195.114944</ele>
        <time>2025-06-25T21:54:22.870Z</time>
      </trkpt>
      <trkpt lat="48.437753" lon="-0.502050">
        <ele>195.609122</ele>
        <time>2025-06-25T21:54:29.290Z</time>
      </trkpt>
      <trkpt lat="48.437699" lon="-0.502138">
        <ele>195.818853</ele>
        <time>2025-06-25T21:54:32.036Z</time>
      </trkpt>
      <trkpt lat="48.437594" lon="-0.502299">
        <ele>196.213860</ele>
        <time>2025-06-25T21:54:37.083Z</time>
      </trkpt>
      <trkpt lat="48.437545" lon="-0.502468">
        <ele>196.536554</ele>
        <time>2025-06-25T21:54:41.138Z</time>
      </trkpt>
      <trkpt lat="48.437527" lon="-0.502671">
        <ele>196.894890</ele>
        <time>2025-06-25T21:54:45.501Z</time>
      </trkpt>
      <trkpt lat="48.437554" lon="-0.502943">
        <ele>197.376091</ele>
        <time>2025-06-25T21:54:51.276Z</time>
      </trkpt>
      <trkpt lat="48.437647" lon="-0.503323">
        <ele>198.084751</ele>
        <time>2025-06-25T21:54:59.521Z</time>
      </trkpt>
      <trkpt lat="48.437812" lon="-0.504137">
        <ele>199.170523</ele>
        <time>2025-06-25T21:55:15.104Z</time>
      </trkpt>
      <trkpt lat="48.437883" lon="-0.504609">
        <ele>199.575132</ele>
        <time>2025-06-25T21:55:23.114Z</time>
      </trkpt>
      <trkpt lat="48.437919" lon="-0.505061">
        <ele>199.955719</ele>
        <time>2025-06-25T21:55:30.205Z</time>
      </trkpt>
      <trkpt lat="48.437963" lon="-0.506536">
        <ele>201.154243</ele>
        <time>2025-06-25T21:55:54.071Z</time>
      </trkpt>
      <trkpt lat="48.437925" lon="-0.506878">
        <ele>201.359145</ele>
        <time>2025-06-25T21:55:59.767Z</time>
      </trkpt>
      <trkpt lat="48.437855" lon="-0.507145">
        <ele>201.528788</ele>
        <time>2025-06-25T21:56:04.511Z</time>
      </trkpt>
      <trkpt lat="48.437521" lon="-0.507875">
        <ele>202.052778</ele>
        <time>2025-06-25T21:56:19.054Z</time>
      </trkpt>
      <trkpt lat="48.437356" lon="-0.508134">
        <ele>202.264957</ele>
        <time>2025-06-25T21:56:24.764Z</time>
      </trkpt>
      <trkpt lat="48.437043" lon="-0.508454">
        <ele>202.601815</ele>
        <time>2025-06-25T21:56:33.391Z</time>
      </trkpt>
      <trkpt lat="48.436885" lon="-0.508675">
        <ele>202.675649</ele>
        <time>2025-06-25T21:56:38.023Z</time>
      </trkpt>
      <trkpt lat="48.436039" lon="-0.510043">
        <ele>202.727125</ele>
        <time>2025-06-25T21:57:03.910Z</time>
      </trkpt>
      <trkpt lat="48.435853" lon="-0.510401">
        <ele>202.739641</ele>
        <time>2025-06-25T21:57:09.982Z</time>
      </trkpt>
      <trkpt lat="48.435711" lon="-0.510873">
        <ele>202.237439</ele>
        <time>2025-06-25T21:57:16.383Z</time>
      </trkpt>
      <trkpt lat="48.435688" lon="-0.511831">
        <ele>200.815261</ele>
        <time>2025-06-25T21:57:26.840Z</time>
      </trkpt>
      <trkpt lat="48.435589" lon="-0.512542">
        <ele>199.737472</ele>
        <time>2025-06-25T21:57:33.968Z</time>
      </trkpt>
      <trkpt lat="48.435375" lon="-0.513211">
        <ele>198.622644</ele>
        <time>2025-06-25T21:57:40.914Z</time>
      </trkpt>
      <trkpt lat="48.434950" lon="-0.514379">
        <ele>196.351058</ele>
        <time>2025-06-25T21:57:53.444Z</time>
      </trkpt>
      <trkpt lat="48.434627" lon="-0.515120">
        <ele>194.839160</ele>
        <time>2025-06-25T21:58:02.823Z</time>
      </trkpt>
      <trkpt lat="48.434224" lon="-0.515939">
        <ele>193.521611</ele>
        <time>2025-06-25T21:58:15.004Z</time>
      </trkpt>
      <trkpt lat="48.433952" lon="-0.516555">
        <ele>192.791664</ele>
        <time>2025-06-25T21:58:23.676Z</time>
      </trkpt>
      <trkpt lat="48.433887" lon="-0.516772">
        <ele>192.556792</ele>
        <time>2025-06-25T21:58:26.369Z</time>
      </trkpt>
      <trkpt lat="48.433714" lon="-0.517664">
        <ele>191.640018</ele>
        <time>2025-06-25T21:58:36.237Z</time>
      </trkpt>
      <trkpt lat="48.433640" lon="-0.517915">
        <ele>191.339368</ele>
        <time>2025-06-25T21:58:38.993Z</time>
      </trkpt>
      <trkpt lat="48.433572" lon="-0.518079">
        <ele>191.048104</ele>
        <time>2025-06-25T21:58:40.913Z</time>
      </trkpt>
      <trkpt lat="48.432916" lon="-0.519245">
        <ele>188.745639</ele>
        <time>2025-06-25T21:58:55.986Z</time>
      </trkpt>
      <trkpt lat="48.432843" lon="-0.519425">
        <ele>188.427906</ele>
        <time>2025-06-25T21:58:58.170Z</time>
      </trkpt>
      <trkpt lat="48.432717" lon="-0.520160">
        <ele>187.314993</ele>
        <time>2025-06-25T21:59:06.359Z</time>
      </trkpt>
      <trkpt lat="48.432658" lon="-0.520872">
        <ele>186.801054</ele>
        <time>2025-06-25T21:59:14.507Z</time>
      </trkpt>
      <trkpt lat="48.432678" lon="-0.521231">
        <ele>186.543011</ele>
        <time>2025-06-25T21:59:18.721Z</time>
      </trkpt>
      <trkpt lat="48.432768" lon="-0.521568">
        <ele>186.282812</ele>
        <time>2025-06-25T21:59:23.005Z</time>
      </trkpt>
      <trkpt lat="48.433040" lon="-0.522290">
        <ele>185.688127</ele>
        <time>2025-06-25T21:59:32.759Z</time>
      </trkpt>
      <trkpt lat="48.433251" lon="-0.523253">
        <ele>185.412690</ele>
        <time>2025-06-25T21:59:44.139Z</time>
      </trkpt>
      <trkpt lat="48.433617" lon="-0.524051">
        <ele>185.431308</ele>
        <time>2025-06-25T21:59:55.976Z</time>
      </trkpt>
      <trkpt lat="48.433681" lon="-0.524292">
        <ele>185.436290</ele>
        <time>2025-06-25T21:59:59.568Z</time>
      </trkpt>
      <trkpt lat="48.433756" lon="-0.524785">
        <ele>185.445998</ele>
        <time>2025-06-25T22:00:07.218Z</time>
      </trkpt>
      <trkpt lat="48.433873" lon="-0.525181">
        <ele>185.554411</ele>
        <time>2025-06-25T22:00:14.478Z</time>
      </trkpt>
      <trkpt lat="48.435243" lon="-0.527473">
        <ele>189.587051</ele>
        <time>2025-06-25T22:01:15.811Z</time>
      </trkpt>
      <trkpt lat="48.435377" lon="-0.527752">
        <ele>189.798903</ele>
        <time>2025-06-25T22:01:21.987Z</time>
      </trkpt>
      <trkpt lat="48.435465" lon="-0.528052">
        <ele>190.000656</ele>
        <time>2025-06-25T22:01:27.639Z</time>
      </trkpt>
      <trkpt lat="48.435512" lon="-0.528473">
        <ele>190.263242</ele>
        <time>2025-06-25T22:01:34.632Z</time>
      </trkpt>
      <trkpt lat="48.435561" lon="-0.531223">
        <ele>189.775995</ele>
        <time>2025-06-25T22:02:09.746Z</time>
      </trkpt>
      <trkpt lat="48.435556" lon="-0.531575">
        <ele>189.508346</ele>
        <time>2025-06-25T22:02:13.585Z</time>
      </trkpt>
      <trkpt lat="48.435501" lon="-0.531870">
        <ele>189.275403</ele>
        <time>2025-06-25T22:02:16.813Z</time>
      </trkpt>
      <trkpt lat="48.435289" lon="-0.532606">
        <ele>188.146471</ele>
        <time>2025-06-25T22:02:24.859Z</time>
      </trkpt>
      <trkpt lat="48.435229" lon="-0.533049">
        <ele>187.101334</ele>
        <time>2025-06-25T22:02:29.198Z</time>
      </trkpt>
      <trkpt lat="48.435265" lon="-0.533620">
        <ele>185.775491</ele>
        <time>2025-06-25T22:02:34.551Z</time>
      </trkpt>
      <trkpt lat="48.435419" lon="-0.536314">
        <ele>181.016230</ele>
        <time>2025-06-25T22:02:59.920Z</time>
      </trkpt>
      <trkpt lat="48.435501" lon="-0.536881">
        <ele>180.314252</ele>
        <time>2025-06-25T22:03:06.466Z</time>
      </trkpt>
      <trkpt lat="48.435853" lon="-0.538531">
        <ele>179.563646</ele>
        <time>2025-06-25T22:03:34.688Z</time>
      </trkpt>
      <trkpt lat="48.436158" lon="-0.539991">
        <ele>179.867650</ele>
        <time>2025-06-25T22:03:58.261Z</time>
      </trkpt>
      <trkpt lat="48.436223" lon="-0.540738">
        <ele>178.789124</ele>
        <time>2025-06-25T22:04:06.224Z</time>
      </trkpt>
      <trkpt lat="48.436220" lon="-0.540988">
        <ele>178.258064</ele>
        <time>2025-06-25T22:04:08.688Z</time>
      </trkpt>
      <trkpt lat="48.436136" lon="-0.541667">
        <ele>176.791084</ele>
        <time>2025-06-25T22:04:15.206Z</time>
      </trkpt>
      <trkpt lat="48.436184" lon="-0.542061">
        <ele>175.940278</ele>
        <time>2025-06-25T22:04:18.875Z</time>
      </trkpt>
      <trkpt lat="48.436251" lon="-0.542400">
        <ele>175.189011</ele>
        <time>2025-06-25T22:04:22.110Z</time>
      </trkpt>
      <trkpt lat="48.436324" lon="-0.542769">
        <ele>174.371196</ele>
        <time>2025-06-25T22:04:25.618Z</time>
      </trkpt>
      <trkpt lat="48.436327" lon="-0.542808">
        <ele>174.287809</ele>
        <time>2025-06-25T22:04:25.977Z</time>
      </trkpt>
      <trkpt lat="48.436348" lon="-0.543055">
        <ele>173.759628</ele>
        <time>2025-06-25T22:04:28.276Z</time>
      </trkpt>
      <trkpt lat="48.436305" lon="-0.544825">
        <ele>170.004576</ele>
        <time>2025-06-25T22:04:45.226Z</time>
      </trkpt>
      <trkpt lat="48.436352" lon="-0.545199">
        <ele>169.197569</ele>
        <time>2025-06-25T22:04:49.026Z</time>
      </trkpt>
      <trkpt lat="48.436538" lon="-0.546188">
        <ele>167.861406</ele>
        <time>2025-06-25T22:04:59.651Z</time>
      </trkpt>
      <trkpt lat="48.436553" lon="-0.546385">
        <ele>167.696306</ele>
        <time>2025-06-25T22:05:01.792Z</time>
      </trkpt>
      <trkpt lat="48.436439" lon="-0.547678">
        <ele>166.610284</ele>
        <time>2025-06-25T22:05:17.021Z</time>
      </trkpt>
      <trkpt lat="48.436442" lon="-0.547951">
        <ele>166.382952</ele>
        <time>2025-06-25T22:05:20.440Z</time>
      </trkpt>
      <trkpt lat="48.436501" lon="-0.548599">
        <ele>165.697288</ele>
        <time>2025-06-25T22:05:28.504Z</time>
      </trkpt>
      <trkpt lat="48.436488" lon="-0.548821">
        <ele>165.427586</ele>
        <time>2025-06-25T22:05:31.132Z</time>
      </trkpt>
      <trkpt lat="48.436390" lon="-0.549211">
        <ele>164.922903</ele>
        <time>2025-06-25T22:05:35.940Z</time>
      </trkpt>
      <trkpt lat="48.436213" lon="-0.549738">
        <ele>164.208079</ele>
        <time>2025-06-25T22:05:42.482Z</time>
      </trkpt>
      <trkpt lat="48.436161" lon="-0.550112">
        <ele>163.745642</ele>
        <time>2025-06-25T22:05:46.461Z</time>
      </trkpt>
      <trkpt lat="48.436078" lon="-0.550428">
        <ele>163.334349</ele>
        <time>2025-06-25T22:05:49.876Z</time>
      </trkpt>
      <trkpt lat="48.435794" lon="-0.550921">
        <ele>162.052757</ele>
        <time>2025-06-25T22:05:56.117Z</time>
      </trkpt>
      <trkpt lat="48.435450" lon="-0.551457">
        <ele>159.783208</ele>
        <time>2025-06-25T22:06:02.921Z</time>
      </trkpt>
      <trkpt lat="48.435368" lon="-0.551622">
        <ele>159.155801</ele>
        <time>2025-06-25T22:06:04.768Z</time>
      </trkpt>
      <trkpt lat="48.435317" lon="-0.551832">
        <ele>158.475225</ele>
        <time>2025-06-25T22:06:06.773Z</time>
      </trkpt>
      <trkpt lat="48.435299" lon="-0.552024">
        <ele>157.885095</ele>
        <time>2025-06-25T22:06:08.499Z</time>
      </trkpt>
      <trkpt lat="48.435407" lon="-0.553360">
        <ele>153.824374</ele>
        <time>2025-06-25T22:06:20.456Z</time>
      </trkpt>
      <trkpt lat="48.435363" lon="-0.554751">
        <ele>149.766589</ele>
        <time>2025-06-25T22:06:33.343Z</time>
      </trkpt>
      <trkpt lat="48.435402" lon="-0.555067">
        <ele>148.830013</ele>
        <time>2025-06-25T22:06:36.392Z</time>
      </trkpt>
      <trkpt lat="48.435549" lon="-0.555426">
        <ele>147.600752</ele>
        <time>2025-06-25T22:06:40.339Z</time>
      </trkpt>
      <trkpt lat="48.435840" lon="-0.556033">
        <ele>144.859259</ele>
        <time>2025-06-25T22:06:47.188Z</time>
      </trkpt>
      <trkpt lat="48.436066" lon="-0.557136">
        <ele>140.048293</ele>
        <time>2025-06-25T22:06:57.332Z</time>
      </trkpt>
      <trkpt lat="48.436098" lon="-0.557326">
        <ele>139.231356</ele>
        <time>2025-06-25T22:06:59.003Z</time>
      </trkpt>
      <trkpt lat="48.436236" lon="-0.558719">
        <ele>133.228719</ele>
        <time>2025-06-25T22:07:10.732Z</time>
      </trkpt>
      <trkpt lat="48.436274" lon="-0.558881">
        <ele>132.466384</ele>
        <time>2025-06-25T22:07:12.150Z</time>
      </trkpt>
      <trkpt lat="48.436492" lon="-0.559485">
        <ele>129.415789</ele>
        <time>2025-06-25T22:07:17.905Z</time>
      </trkpt>
      <trkpt lat="48.436535" lon="-0.559713">
        <ele>128.364163</ele>
        <time>2025-06-25T22:07:19.943Z</time>
      </trkpt>
      <trkpt lat="48.436515" lon="-0.560135">
        <ele>126.487139</ele>
        <time>2025-06-25T22:07:23.629Z</time>
      </trkpt>
      <trkpt lat="48.436445" lon="-0.560573">
        <ele>124.488314</ele>
        <time>2025-06-25T22:07:27.607Z</time>
      </trkpt>
      <trkpt lat="48.436377" lon="-0.561170">
        <ele>122.594361</ele>
        <time>2025-06-25T22:07:33.108Z</time>
      </trkpt>
      <trkpt lat="48.436315" lon="-0.561400">
        <ele>122.041964</ele>
        <time>2025-06-25T22:07:35.411Z</time>
      </trkpt>
      <trkpt lat="48.436230" lon="-0.561568">
        <ele>121.571855</ele>
        <time>2025-06-25T22:07:37.409Z</time>
      </trkpt>
      <trkpt lat="48.434607" lon="-0.563341">
        <ele>116.037967</ele>
        <time>2025-06-25T22:08:07.354Z</time>
      </trkpt>
      <trkpt lat="48.434395" lon="-0.563613">
        <ele>115.546229</ele>
        <time>2025-06-25T22:08:11.855Z</time>
      </trkpt>
      <trkpt lat="48.434263" lon="-0.563935">
        <ele>115.102674</ele>
        <time>2025-06-25T22:08:16.219Z</time>
      </trkpt>
      <trkpt lat="48.433986" lon="-0.564950">
        <ele>113.943008</ele>
        <time>2025-06-25T22:08:29.211Z</time>
      </trkpt>
      <trkpt lat="48.433904" lon="-0.565131">
        <ele>113.774669</ele>
        <time>2025-06-25T22:08:31.843Z</time>
      </trkpt>
      <trkpt lat="48.433796" lon="-0.565255">
        <ele>113.617499</ele>
        <time>2025-06-25T22:08:34.291Z</time>
      </trkpt>
      <trkpt lat="48.433710" lon="-0.565323">
        <ele>113.505073</ele>
        <time>2025-06-25T22:08:36.023Z</time>
      </trkpt>
      <trkpt lat="48.433621" lon="-0.565357">
        <ele>113.398784</ele>
        <time>2025-06-25T22:08:37.619Z</time>
      </trkpt>
      <trkpt lat="48.433272" lon="-0.565366">
        <ele>112.994707</ele>
        <time>2025-06-25T22:08:43.413Z</time>
      </trkpt>
      <trkpt lat="48.432974" lon="-0.565499">
        <ele>112.634922</ele>
        <time>2025-06-25T22:08:48.505Z</time>
      </trkpt>
      <trkpt lat="48.432737" lon="-0.565768">
        <ele>112.291462</ele>
        <time>2025-06-25T22:08:53.273Z</time>
      </trkpt>
      <trkpt lat="48.432622" lon="-0.565972">
        <ele>112.099481</ele>
        <time>2025-06-25T22:08:56.100Z</time>
      </trkpt>
      <trkpt lat="48.432511" lon="-0.566243">
        <ele>112.069525</ele>
        <time>2025-06-25T22:08:59.554Z</time>
      </trkpt>
      <trkpt lat="48.431740" lon="-0.568381">
        <ele>111.921894</ele>
        <time>2025-06-25T22:09:32.229Z</time>
      </trkpt>
      <trkpt lat="48.431504" lon="-0.569228">
        <ele>113.053989</ele>
        <time>2025-06-25T22:09:48.597Z</time>
      </trkpt>
      <trkpt lat="48.431355" lon="-0.570008">
        <ele>114.054266</ele>
        <time>2025-06-25T22:10:04.240Z</time>
      </trkpt>
      <trkpt lat="48.431314" lon="-0.570603">
        <ele>114.791459</ele>
        <time>2025-06-25T22:10:16.296Z</time>
      </trkpt>
      <trkpt lat="48.431264" lon="-0.572713">
        <ele>117.620096</ele>
        <time>2025-06-25T22:10:57.786Z</time>
      </trkpt>
      <trkpt lat="48.431223" lon="-0.572947">
        <ele>117.948999</ele>
        <time>2025-06-25T22:11:02.200Z</time>
      </trkpt>
      <trkpt lat="48.431165" lon="-0.573151">
        <ele>118.250611</ele>
        <time>2025-06-25T22:11:06.228Z</time>
      </trkpt>
      <trkpt lat="48.431070" lon="-0.573323">
        <ele>118.554743</ele>
        <time>2025-06-25T22:11:10.213Z</time>
      </trkpt>
      <trkpt lat="48.430793" lon="-0.573648">
        <ele>119.054637</ele>
        <time>2025-06-25T22:11:19.174Z</time>
      </trkpt>
      <trkpt lat="48.430604" lon="-0.573967">
        <ele>119.319709</ele>
        <time>2025-06-25T22:11:25.996Z</time>
      </trkpt>
      <trkpt lat="48.430407" lon="-0.574399">
        <ele>119.644610</ele>
        <time>2025-06-25T22:11:34.042Z</time>
      </trkpt>
      <trkpt lat="48.430389" lon="-0.574543">
        <ele>119.735433</ele>
        <time>2025-06-25T22:11:36.276Z</time>
      </trkpt>
      <trkpt lat="48.430074" lon="-0.574798">
        <ele>120.069445</ele>
        <time>2025-06-25T22:11:42.575Z</time>
      </trkpt>
      <trkpt lat="48.429666" lon="-0.575068">
        <ele>120.485691</ele>
        <time>2025-06-25T22:11:50.540Z</time>
      </trkpt>
      <trkpt lat="48.429074" lon="-0.575206">
        <ele>121.178115</ele>
        <time>2025-06-25T22:12:01.451Z</time>
      </trkpt>
      <trkpt lat="48.427235" lon="-0.575124">
        <ele>122.480509</ele>
        <time>2025-06-25T22:12:38.854Z</time>
      </trkpt>
      <trkpt lat="48.427033" lon="-0.575044">
        <ele>122.406382</ele>
        <time>2025-06-25T22:12:42.161Z</time>
      </trkpt>
      <trkpt lat="48.426769" lon="-0.574860">
        <ele>122.303147</ele>
        <time>2025-06-25T22:12:46.163Z</time>
      </trkpt>
      <trkpt lat="48.426772" lon="-0.575003">
        <ele>122.269452</ele>
        <time>2025-06-25T22:12:47.873Z</time>
      </trkpt>
      <trkpt lat="48.427165" lon="-0.575901">
        <ele>121.870315</ele>
        <time>2025-06-25T22:12:59.356Z</time>
      </trkpt>
      <trkpt lat="48.427218" lon="-0.576083">
        <ele>121.583284</ele>
        <time>2025-06-25T22:13:01.350Z</time>
      </trkpt>
      <trkpt lat="48.427238" lon="-0.576282">
        <ele>121.292620</ele>
        <time>2025-06-25T22:13:03.339Z</time>
      </trkpt>
      <trkpt lat="48.427232" lon="-0.577228">
        <ele>119.926391</ele>
        <time>2025-06-25T22:13:12.621Z</time>
      </trkpt>
      <trkpt lat="48.427275" lon="-0.577641">
        <ele>119.322660</ele>
        <time>2025-06-25T22:13:16.839Z</time>
      </trkpt>
      <trkpt lat="48.427588" lon="-0.578923">
        <ele>117.483196</ele>
        <time>2025-06-25T22:13:31.760Z</time>
      </trkpt>
      <trkpt lat="48.427844" lon="-0.579878">
        <ele>116.249856</ele>
        <time>2025-06-25T22:13:43.619Z</time>
      </trkpt>
      <trkpt lat="48.427939" lon="-0.580117">
        <ele>115.916252</ele>
        <time>2025-06-25T22:13:46.668Z</time>
      </trkpt>
      <trkpt lat="48.428322" lon="-0.580881">
        <ele>114.722262</ele>
        <time>2025-06-25T22:13:56.340Z</time>
      </trkpt>
      <trkpt lat="48.428370" lon="-0.581072">
        <ele>114.376513</ele>
        <time>2025-06-25T22:13:58.286Z</time>
      </trkpt>
      <trkpt lat="48.428423" lon="-0.581542">
        <ele>113.569461</ele>
        <time>2025-06-25T22:14:02.748Z</time>
      </trkpt>
      <trkpt lat="48.428518" lon="-0.582502">
        <ele>111.926344</ele>
        <time>2025-06-25T22:14:11.949Z</time>
      </trkpt>
      <trkpt lat="48.428475" lon="-0.582896">
        <ele>111.250397</ele>
        <time>2025-06-25T22:14:15.949Z</time>
      </trkpt>
      <trkpt lat="48.428309" lon="-0.583476">
        <ele>110.336469</ele>
        <time>2025-06-25T22:14:22.844Z</time>
      </trkpt>
      <trkpt lat="48.428085" lon="-0.584840">
        <ele>111.184753</ele>
        <time>2025-06-25T22:14:44.399Z</time>
      </trkpt>
      <trkpt lat="48.427976" lon="-0.585256">
        <ele>111.454762</ele>
        <time>2025-06-25T22:14:52.642Z</time>
      </trkpt>
      <trkpt lat="48.427830" lon="-0.585499">
        <ele>111.652661</ele>
        <time>2025-06-25T22:14:58.748Z</time>
      </trkpt>
      <trkpt lat="48.427565" lon="-0.585787">
        <ele>111.978490</ele>
        <time>2025-06-25T22:15:07.774Z</time>
      </trkpt>
      <trkpt lat="48.427428" lon="-0.586031">
        <ele>112.479576</ele>
        <time>2025-06-25T22:15:13.587Z</time>
      </trkpt>
      <trkpt lat="48.426553" lon="-0.588471">
        <ele>116.952587</ele>
        <time>2025-06-25T22:16:08.543Z</time>
      </trkpt>
      <trkpt lat="48.426476" lon="-0.588717">
        <ele>117.461404</ele>
        <time>2025-06-25T22:16:14.672Z</time>
      </trkpt>
      <trkpt lat="48.426404" lon="-0.589102">
        <ele>118.209677</ele>
        <time>2025-06-25T22:16:23.780Z</time>
      </trkpt>
      <trkpt lat="48.426288" lon="-0.589355">
        <ele>118.784950</ele>
        <time>2025-06-25T22:16:30.554Z</time>
      </trkpt>
      <trkpt lat="48.425708" lon="-0.590140">
        <ele>120.982673</ele>
        <time>2025-06-25T22:16:55.094Z</time>
      </trkpt>
      <trkpt lat="48.425561" lon="-0.590281">
        <ele>121.406751</ele>
        <time>2025-06-25T22:17:00.207Z</time>
      </trkpt>
      <trkpt lat="48.425462" lon="-0.590377">
        <ele>121.638216</ele>
        <time>2025-06-25T22:17:03.600Z</time>
      </trkpt>
      <trkpt lat="48.425006" lon="-0.590683">
        <ele>122.619654</ele>
        <time>2025-06-25T22:17:17.593Z</time>
      </trkpt>
      <trkpt lat="48.424786" lon="-0.590953">
        <ele>123.177508</ele>
        <time>2025-06-25T22:17:25.327Z</time>
      </trkpt>
      <trkpt lat="48.424447" lon="-0.591509">
        <ele>124.162654</ele>
        <time>2025-06-25T22:17:39.147Z</time>
      </trkpt>
      <trkpt lat="48.423972" lon="-0.592289">
        <ele>125.037430</ele>
        <time>2025-06-25T22:17:58.751Z</time>
      </trkpt>
      <trkpt lat="48.423802" lon="-0.592615">
        <ele>125.215762</ele>
        <time>2025-06-25T22:18:05.842Z</time>
      </trkpt>
      <trkpt lat="48.423600" lon="-0.592822">
        <ele>125.374095</ele>
        <time>2025-06-25T22:18:11.671Z</time>
      </trkpt>
      <trkpt lat="48.423371" lon="-0.592949">
        <ele>125.532254</ele>
        <time>2025-06-25T22:18:17.146Z</time>
      </trkpt>
      <trkpt lat="48.423370" lon="-0.592949">
        <ele>125.532902</ele>
        <time>2025-06-25T22:18:17.165Z</time>
      </trkpt>
      <trkpt lat="48.422403" lon="-0.593004">
        <ele>125.604613</ele>
        <time>2025-06-25T22:18:35.386Z</time>
      </trkpt>
      <trkpt lat="48.421952" lon="-0.593141">
        <ele>125.098586</ele>
        <time>2025-06-25T22:18:43.290Z</time>
      </trkpt>
      <trkpt lat="48.421675" lon="-0.593290">
        <ele>124.775088</ele>
        <time>2025-06-25T22:18:48.296Z</time>
      </trkpt>
      <trkpt lat="48.421506" lon="-0.593428">
        <ele>124.563669</ele>
        <time>2025-06-25T22:18:51.531Z</time>
      </trkpt>
      <trkpt lat="48.421105" lon="-0.593843">
        <ele>124.028607</ele>
        <time>2025-06-25T22:18:59.602Z</time>
      </trkpt>
      <trkpt lat="48.420769" lon="-0.594105">
        <ele>123.439411</ele>
        <time>2025-06-25T22:19:05.768Z</time>
      </trkpt>
      <trkpt lat="48.420383" lon="-0.594260">
        <ele>122.790738</ele>
        <time>2025-06-25T22:19:12.136Z</time>
      </trkpt>
      <trkpt lat="48.420023" lon="-0.594351">
        <ele>122.197992</ele>
        <time>2025-06-25T22:19:17.875Z</time>
      </trkpt>
      <trkpt lat="48.419370" lon="-0.594454">
        <ele>121.131840</ele>
        <time>2025-06-25T22:19:28.489Z</time>
      </trkpt>
      <trkpt lat="48.419223" lon="-0.594437">
        <ele>121.040513</ele>
        <time>2025-06-25T22:19:30.984Z</time>
      </trkpt>
      <trkpt lat="48.418851" lon="-0.594393">
        <ele>120.985983</ele>
        <time>2025-06-25T22:19:37.597Z</time>
      </trkpt>
      <trkpt lat="48.417912" lon="-0.594444">
        <ele>120.848673</ele>
        <time>2025-06-25T22:19:57.076Z</time>
      </trkpt>
      <trkpt lat="48.417725" lon="-0.594461">
        <ele>120.821296</ele>
        <time>2025-06-25T22:20:01.363Z</time>
      </trkpt>
      <trkpt lat="48.417461" lon="-0.594585">
        <ele>120.819065</ele>
        <time>2025-06-25T22:20:07.629Z</time>
      </trkpt>
      <trkpt lat="48.416460" lon="-0.595158">
        <ele>121.185450</ele>
        <time>2025-06-25T22:20:30.375Z</time>
      </trkpt>
      <trkpt lat="48.416232" lon="-0.595370">
        <ele>121.277121</ele>
        <time>2025-06-25T22:20:35.820Z</time>
      </trkpt>
      <trkpt lat="48.415471" lon="-0.596279">
        <ele>122.390687</ele>
        <time>2025-06-25T22:20:57.843Z</time>
      </trkpt>
      <trkpt lat="48.415184" lon="-0.596584">
        <ele>122.976392</ele>
        <time>2025-06-25T22:21:07.051Z</time>
      </trkpt>
      <trkpt lat="48.414525" lon="-0.597173">
        <ele>124.254215</ele>
        <time>2025-06-25T22:21:29.873Z</time>
      </trkpt>
      <trkpt lat="48.413970" lon="-0.597428">
        <ele>125.200116</ele>
        <time>2025-06-25T22:21:48.095Z</time>
      </trkpt>
      <trkpt lat="48.413559" lon="-0.597779">
        <ele>125.966963</ele>
        <time>2025-06-25T22:22:01.914Z</time>
      </trkpt>
      <trkpt lat="48.412944" lon="-0.598240">
        <ele>127.081944</ele>
        <time>2025-06-25T22:22:18.890Z</time>
      </trkpt>
      <trkpt lat="48.412754" lon="-0.598487">
        <ele>127.333566</ele>
        <time>2025-06-25T22:22:24.167Z</time>
      </trkpt>
      <trkpt lat="48.412376" lon="-0.599072">
        <ele>127.370356</ele>
        <time>2025-06-25T22:22:34.486Z</time>
      </trkpt>
      <trkpt lat="48.412124" lon="-0.599360">
        <ele>127.391830</ele>
        <time>2025-06-25T22:22:40.374Z</time>
      </trkpt>
      <trkpt lat="48.411106" lon="-0.600358">
        <ele>127.506276</ele>
        <time>2025-06-25T22:23:05.655Z</time>
      </trkpt>
      <trkpt lat="48.410983" lon="-0.600463">
        <ele>127.527957</ele>
        <time>2025-06-25T22:23:08.879Z</time>
      </trkpt>
      <trkpt lat="48.410277" lon="-0.601311">
        <ele>127.666431</ele>
        <time>2025-06-25T22:23:28.830Z</time>
      </trkpt>
      <trkpt lat="48.410098" lon="-0.601494">
        <ele>127.699606</ele>
        <time>2025-06-25T22:23:33.316Z</time>
      </trkpt>
      <trkpt lat="48.409815" lon="-0.601681">
        <ele>127.556723</ele>
        <time>2025-06-25T22:23:39.335Z</time>
      </trkpt>
      <trkpt lat="48.408174" lon="-0.602482">
        <ele>125.358082</ele>
        <time>2025-06-25T22:24:08.702Z</time>
      </trkpt>
      <trkpt lat="48.407868" lon="-0.602682">
        <ele>124.023458</ele>
        <time>2025-06-25T22:24:13.743Z</time>
      </trkpt>
      <trkpt lat="48.407243" lon="-0.603418">
        <ele>120.849326</ele>
        <time>2025-06-25T22:24:24.950Z</time>
      </trkpt>
      <trkpt lat="48.406860" lon="-0.603721">
        <ele>119.118409</ele>
        <time>2025-06-25T22:24:30.739Z</time>
      </trkpt>
      <trkpt lat="48.406442" lon="-0.603922">
        <ele>116.660636</ele>
        <time>2025-06-25T22:24:36.486Z</time>
      </trkpt>
      <trkpt lat="48.406343" lon="-0.604038">
        <ele>115.834102</ele>
        <time>2025-06-25T22:24:38.104Z</time>
      </trkpt>
      <trkpt lat="48.406260" lon="-0.604203">
        <ele>114.928447</ele>
        <time>2025-06-25T22:24:39.876Z</time>
      </trkpt>
      <trkpt lat="48.406127" lon="-0.604545">
        <ele>113.194469</ele>
        <time>2025-06-25T22:24:43.242Z</time>
      </trkpt>
      <trkpt lat="48.405575" lon="-0.605323">
        <ele>108.212816</ele>
        <time>2025-06-25T22:24:52.897Z</time>
      </trkpt>
      <trkpt lat="48.405310" lon="-0.605759">
        <ele>105.991840</ele>
        <time>2025-06-25T22:24:58.009Z</time>
      </trkpt>
      <trkpt lat="48.404735" lon="-0.606461">
        <ele>102.953636</ele>
        <time>2025-06-25T22:25:07.748Z</time>
      </trkpt>
      <trkpt lat="48.404612" lon="-0.606476">
        <ele>102.447082</ele>
        <time>2025-06-25T22:25:09.526Z</time>
      </trkpt>
      <trkpt lat="48.404562" lon="-0.606686">
        <ele>101.839118</ele>
        <time>2025-06-25T22:25:11.021Z</time>
      </trkpt>
      <trkpt lat="48.404392" lon="-0.607190">
        <ele>100.298550</ele>
        <time>2025-06-25T22:25:14.936Z</time>
      </trkpt>
      <trkpt lat="48.404303" lon="-0.607504">
        <ele>99.368137</ele>
        <time>2025-06-25T22:25:17.455Z</time>
      </trkpt>
      <trkpt lat="48.404202" lon="-0.608060">
        <ele>99.835883</ele>
        <time>2025-06-25T22:25:22.242Z</time>
      </trkpt>
      <trkpt lat="48.404106" lon="-0.608221">
        <ele>100.096122</ele>
        <time>2025-06-25T22:25:24.298Z</time>
      </trkpt>
      <trkpt lat="48.403557" lon="-0.608619">
        <ele>101.199765</ele>
        <time>2025-06-25T22:25:38.490Z</time>
      </trkpt>
      <trkpt lat="48.403244" lon="-0.608854">
        <ele>101.833262</ele>
        <time>2025-06-25T22:25:48.298Z</time>
      </trkpt>
      <trkpt lat="48.403140" lon="-0.608992">
        <ele>102.084320</ele>
        <time>2025-06-25T22:25:52.150Z</time>
      </trkpt>
      <trkpt lat="48.403006" lon="-0.609301">
        <ele>102.629391</ele>
        <time>2025-06-25T22:25:59.645Z</time>
      </trkpt>
      <trkpt lat="48.402971" lon="-0.609498">
        <ele>103.299905</ele>
        <time>2025-06-25T22:26:04.095Z</time>
      </trkpt>
      <trkpt lat="48.402967" lon="-0.609741">
        <ele>104.099116</ele>
        <time>2025-06-25T22:26:09.681Z</time>
      </trkpt>
      <trkpt lat="48.403213" lon="-0.612975">
        <ele>114.485897</ele>
        <time>2025-06-25T22:27:26.950Z</time>
      </trkpt>
      <trkpt lat="48.403207" lon="-0.613267">
        <ele>115.357808</ele>
        <time>2025-06-25T22:27:33.384Z</time>
      </trkpt>
      <trkpt lat="48.403173" lon="-0.613572">
        <ele>116.280844</ele>
        <time>2025-06-25T22:27:40.018Z</time>
      </trkpt>
      <trkpt lat="48.403110" lon="-0.613819">
        <ele>117.070567</ele>
        <time>2025-06-25T22:27:45.534Z</time>
      </trkpt>
      <trkpt lat="48.403030" lon="-0.614027">
        <ele>117.788014</ele>
        <time>2025-06-25T22:27:50.502Z</time>
      </trkpt>
      <trkpt lat="48.402928" lon="-0.614207">
        <ele>118.494328</ele>
        <time>2025-06-25T22:27:55.318Z</time>
      </trkpt>
      <trkpt lat="48.402592" lon="-0.614691">
        <ele>119.975979</ele>
        <time>2025-06-25T22:28:08.911Z</time>
      </trkpt>
      <trkpt lat="48.402407" lon="-0.615041">
        <ele>120.586377</ele>
        <time>2025-06-25T22:28:17.159Z</time>
      </trkpt>
      <trkpt lat="48.402273" lon="-0.615365">
        <ele>121.107197</ele>
        <time>2025-06-25T22:28:24.170Z</time>
      </trkpt>
      <trkpt lat="48.402138" lon="-0.615795">
        <ele>121.756176</ele>
        <time>2025-06-25T22:28:31.978Z</time>
      </trkpt>
      <trkpt lat="48.401851" lon="-0.616876">
        <ele>123.018174</ele>
        <time>2025-06-25T22:28:46.610Z</time>
      </trkpt>
      <trkpt lat="48.401187" lon="-0.619440">
        <ele>119.875767</ele>
        <time>2025-06-25T22:29:06.917Z</time>
      </trkpt>
      <trkpt lat="48.400823" lon="-0.620826">
        <ele>116.170562</ele>
        <time>2025-06-25T22:29:16.714Z</time>
      </trkpt>
      <trkpt lat="48.400733" lon="-0.621248">
        <ele>115.068719</ele>
        <time>2025-06-25T22:29:19.573Z</time>
      </trkpt>
      <trkpt lat="48.400686" lon="-0.621586">
        <ele>114.210255</ele>
        <time>2025-06-25T22:29:21.786Z</time>
      </trkpt>
      <trkpt lat="48.400672" lon="-0.621876">
        <ele>113.465293</ele>
        <time>2025-06-25T22:29:23.617Z</time>
      </trkpt>
      <trkpt lat="48.400660" lon="-0.622095">
        <ele>112.794089</ele>
        <time>2025-06-25T22:29:24.992Z</time>
      </trkpt>
      <trkpt lat="48.400655" lon="-0.622386">
        <ele>111.904940</ele>
        <time>2025-06-25T22:29:26.804Z</time>
      </trkpt>
      <trkpt lat="48.400660" lon="-0.622635">
        <ele>111.144029</ele>
        <time>2025-06-25T22:29:28.344Z</time>
      </trkpt>
      <trkpt lat="48.400673" lon="-0.622765">
        <ele>110.742468</ele>
        <time>2025-06-25T22:29:29.170Z</time>
      </trkpt>
      <trkpt lat="48.400738" lon="-0.623309">
        <ele>109.054142</ele>
        <time>2025-06-25T22:29:32.624Z</time>
      </trkpt>
      <trkpt lat="48.400768" lon="-0.623488">
        <ele>108.490241</ele>
        <time>2025-06-25T22:29:33.791Z</time>
      </trkpt>
      <trkpt lat="48.400939" lon="-0.624619">
        <ele>105.120515</ele>
        <time>2025-06-25T22:29:41.191Z</time>
      </trkpt>
      <trkpt lat="48.401085" lon="-0.625304">
        <ele>103.974852</ele>
        <time>2025-06-25T22:29:46.046Z</time>
      </trkpt>
      <trkpt lat="48.401186" lon="-0.625529">
        <ele>103.542339</ele>
        <time>2025-06-25T22:29:47.931Z</time>
      </trkpt>
      <trkpt lat="48.401371" lon="-0.625854">
        <ele>102.860609</ele>
        <time>2025-06-25T22:29:50.985Z</time>
      </trkpt>
      <trkpt lat="48.401601" lon="-0.626109">
        <ele>102.175600</ele>
        <time>2025-06-25T22:29:54.204Z</time>
      </trkpt>
      <trkpt lat="48.401665" lon="-0.626176">
        <ele>101.988654</ele>
        <time>2025-06-25T22:29:55.112Z</time>
      </trkpt>
      <trkpt lat="48.401760" lon="-0.626266">
        <ele>101.719465</ele>
        <time>2025-06-25T22:29:56.428Z</time>
      </trkpt>
      <trkpt lat="48.402098" lon="-0.626605">
        <ele>101.013197</ele>
        <time>2025-06-25T22:30:01.374Z</time>
      </trkpt>
      <trkpt lat="48.402319" lon="-0.626827">
        <ele>101.059388</ele>
        <time>2025-06-25T22:30:04.394Z</time>
      </trkpt>
      <trkpt lat="48.402765" lon="-0.627262">
        <ele>101.151779</ele>
        <time>2025-06-25T22:30:10.602Z</time>
      </trkpt>
      <trkpt lat="48.402990" lon="-0.627393">
        <ele>101.193724</ele>
        <time>2025-06-25T22:30:14.092Z</time>
      </trkpt>
      <trkpt lat="48.402928" lon="-0.627580">
        <ele>101.217854</ele>
        <time>2025-06-25T22:30:16.489Z</time>
      </trkpt>
      <trkpt lat="48.402853" lon="-0.627956">
        <ele>101.263176</ele>
        <time>2025-06-25T22:30:21.593Z</time>
      </trkpt>
      <trkpt lat="48.402812" lon="-0.628140">
        <ele>101.285582</ele>
        <time>2025-06-25T22:30:24.449Z</time>
      </trkpt>
      <trkpt lat="48.402740" lon="-0.628254">
        <ele>101.303746</ele>
        <time>2025-06-25T22:30:26.942Z</time>
      </trkpt>
      <trkpt lat="48.402582" lon="-0.628282">
        <ele>102.004012</ele>
        <time>2025-06-25T22:30:30.990Z</time>
      </trkpt>
      <trkpt lat="48.402443" lon="-0.628216">
        <ele>102.753078</ele>
        <time>2025-06-25T22:30:34.998Z</time>
      </trkpt>
      <trkpt lat="48.400032" lon="-0.626757">
        <ele>116.270513</ele>
        <time>2025-06-25T22:32:15.596Z</time>
      </trkpt>
      <trkpt lat="48.399670" lon="-0.626451">
        <ele>118.466671</ele>
        <time>2025-06-25T22:32:29.769Z</time>
      </trkpt>
      <trkpt lat="48.399650" lon="-0.626599">
        <ele>118.997185</ele>
        <time>2025-06-25T22:32:33.133Z</time>
      </trkpt>
      <trkpt lat="48.399680" lon="-0.626706">
        <ele>119.405164</ele>
        <time>2025-06-25T22:32:35.592Z</time>
      </trkpt>
      <trkpt lat="48.399847" lon="-0.626968">
        <ele>120.492222</ele>
        <time>2025-06-25T22:32:43.032Z</time>
      </trkpt>
      <trkpt lat="48.400210" lon="-0.627368">
        <ele>122.139234</ele>
        <time>2025-06-25T22:32:55.827Z</time>
      </trkpt>
      <trkpt lat="48.400389" lon="-0.627622">
        <ele>123.039778</ele>
        <time>2025-06-25T22:33:02.234Z</time>
      </trkpt>
      <trkpt lat="48.400925" lon="-0.628622">
        <ele>126.164366</ele>
        <time>2025-06-25T22:33:26.347Z</time>
      </trkpt>
      <trkpt lat="48.400996" lon="-0.628757">
        <ele>126.583073</ele>
        <time>2025-06-25T22:33:29.922Z</time>
      </trkpt>
      <trkpt lat="48.401151" lon="-0.629088">
        <ele>127.793114</ele>
        <time>2025-06-25T22:33:38.672Z</time>
      </trkpt>
      <trkpt lat="48.401138" lon="-0.629194">
        <ele>128.119813</ele>
        <time>2025-06-25T22:33:41.110Z</time>
      </trkpt>
      <trkpt lat="48.401059" lon="-0.629319">
        <ele>128.642868</ele>
        <time>2025-06-25T22:33:44.915Z</time>
      </trkpt>
      <trkpt lat="48.400904" lon="-0.629412">
        <ele>129.404525</ele>
        <time>2025-06-25T22:33:50.549Z</time>
      </trkpt>
      <trkpt lat="48.400572" lon="-0.629892">
        <ele>131.505346</ele>
        <time>2025-06-25T22:34:06.307Z</time>
      </trkpt>
      <trkpt lat="48.400355" lon="-0.630218">
        <ele>132.904475</ele>
        <time>2025-06-25T22:34:17.307Z</time>
      </trkpt>
      <trkpt lat="48.399919" lon="-0.630868">
        <ele>135.280520</ele>
        <time>2025-06-25T22:34:38.269Z</time>
      </trkpt>
      <trkpt lat="48.399591" lon="-0.631358">
        <ele>136.323464</ele>
        <time>2025-06-25T22:34:51.521Z</time>
      </trkpt>
      <trkpt lat="48.399417" lon="-0.631581">
        <ele>136.839245</ele>
        <time>2025-06-25T22:34:57.303Z</time>
      </trkpt>
      <trkpt lat="48.398668" lon="-0.632842">
        <ele>138.882473</ele>
        <time>2025-06-25T22:35:18.575Z</time>
      </trkpt>
      <trkpt lat="48.398428" lon="-0.633243">
        <ele>138.804383</ele>
        <time>2025-06-25T22:35:23.448Z</time>
      </trkpt>
      <trkpt lat="48.398117" lon="-0.633591">
        <ele>138.719979</ele>
        <time>2025-06-25T22:35:28.448Z</time>
      </trkpt>
      <trkpt lat="48.397797" lon="-0.633981">
        <ele>138.630300</ele>
        <time>2025-06-25T22:35:33.575Z</time>
      </trkpt>
      <trkpt lat="48.397622" lon="-0.634238">
        <ele>138.577051</ele>
        <time>2025-06-25T22:35:36.706Z</time>
      </trkpt>
      <trkpt lat="48.397212" lon="-0.634861">
        <ele>138.607981</ele>
        <time>2025-06-25T22:35:45.069Z</time>
      </trkpt>
      <trkpt lat="48.396829" lon="-0.635459">
        <ele>138.714033</ele>
        <time>2025-06-25T22:35:53.793Z</time>
      </trkpt>
      <trkpt lat="48.396638" lon="-0.635862">
        <ele>138.777232</ele>
        <time>2025-06-25T22:35:58.955Z</time>
      </trkpt>
      <trkpt lat="48.396498" lon="-0.636283">
        <ele>138.837332</ele>
        <time>2025-06-25T22:36:04.235Z</time>
      </trkpt>
      <trkpt lat="48.396374" lon="-0.637088">
        <ele>138.936116</ele>
        <time>2025-06-25T22:36:13.811Z</time>
      </trkpt>
      <trkpt lat="48.396303" lon="-0.637276">
        <ele>138.960791</ele>
        <time>2025-06-25T22:36:16.301Z</time>
      </trkpt>
      <trkpt lat="48.395424" lon="-0.636034">
        <ele>139.167885</ele>
        <time>2025-06-25T22:36:34.791Z</time>
      </trkpt>
      <trkpt lat="48.395040" lon="-0.635622">
        <ele>139.198083</ele>
        <time>2025-06-25T22:36:41.290Z</time>
      </trkpt>
      <trkpt lat="48.394790" lon="-0.635473">
        <ele>139.205208</ele>
        <time>2025-06-25T22:36:44.826Z</time>
      </trkpt>
      <trkpt lat="48.394500" lon="-0.635382">
        <ele>139.213058</ele>
        <time>2025-06-25T22:36:48.782Z</time>
      </trkpt>
      <trkpt lat="48.394253" lon="-0.635368">
        <ele>139.219607</ele>
        <time>2025-06-25T22:36:52.196Z</time>
      </trkpt>
      <trkpt lat="48.393860" lon="-0.635425">
        <ele>139.230070</ele>
        <time>2025-06-25T22:36:58.180Z</time>
      </trkpt>
      <trkpt lat="48.393638" lon="-0.635516">
        <ele>139.236166</ele>
        <time>2025-06-25T22:37:02.204Z</time>
      </trkpt>
      <trkpt lat="48.393430" lon="-0.635657">
        <ele>139.569066</ele>
        <time>2025-06-25T22:37:06.509Z</time>
      </trkpt>
      <trkpt lat="48.392945" lon="-0.636095">
        <ele>140.438745</ele>
        <time>2025-06-25T22:37:18.472Z</time>
      </trkpt>
      <trkpt lat="48.392479" lon="-0.636546">
        <ele>141.290604</ele>
        <time>2025-06-25T22:37:31.266Z</time>
      </trkpt>
      <trkpt lat="48.392046" lon="-0.636871">
        <ele>142.025050</ele>
        <time>2025-06-25T22:37:42.289Z</time>
      </trkpt>
      <trkpt lat="48.390857" lon="-0.637471">
        <ele>143.379169</ele>
        <time>2025-06-25T22:38:06.849Z</time>
      </trkpt>
      <trkpt lat="48.390610" lon="-0.637658">
        <ele>143.677704</ele>
        <time>2025-06-25T22:38:11.540Z</time>
      </trkpt>
      <trkpt lat="48.389281" lon="-0.638617">
        <ele>144.894316</ele>
        <time>2025-06-25T22:38:35.638Z</time>
      </trkpt>
      <trkpt lat="48.388446" lon="-0.639360">
        <ele>146.274138</ele>
        <time>2025-06-25T22:38:55.156Z</time>
      </trkpt>
      <trkpt lat="48.387324" lon="-0.640399">
        <ele>149.377294</ele>
        <time>2025-06-25T22:39:28.825Z</time>
      </trkpt>
      <trkpt lat="48.387188" lon="-0.640636">
        <ele>149.798760</ele>
        <time>2025-06-25T22:39:34.566Z</time>
      </trkpt>
      <trkpt lat="48.386816" lon="-0.641501">
        <ele>151.033029</ele>
        <time>2025-06-25T22:39:52.457Z</time>
      </trkpt>
      <trkpt lat="48.386633" lon="-0.641858">
        <ele>151.573170</ele>
        <time>2025-06-25T22:39:59.821Z</time>
      </trkpt>
      <trkpt lat="48.386376" lon="-0.642268">
        <ele>152.248427</ele>
        <time>2025-06-25T22:40:07.835Z</time>
      </trkpt>
      <trkpt lat="48.386172" lon="-0.642630">
        <ele>152.817062</ele>
        <time>2025-06-25T22:40:13.391Z</time>
      </trkpt>
      <trkpt lat="48.385919" lon="-0.642931">
        <ele>152.184326</ele>
        <time>2025-06-25T22:40:17.293Z</time>
      </trkpt>
      <trkpt lat="48.385312" lon="-0.643424">
        <ele>150.823627</ele>
        <time>2025-06-25T22:40:24.655Z</time>
      </trkpt>
      <trkpt lat="48.385065" lon="-0.643550">
        <ele>150.309097</ele>
        <time>2025-06-25T22:40:27.325Z</time>
      </trkpt>
      <trkpt lat="48.385019" lon="-0.643570">
        <ele>150.214632</ele>
        <time>2025-06-25T22:40:27.805Z</time>
      </trkpt>
      <trkpt lat="48.384360" lon="-0.643869">
        <ele>148.952518</ele>
        <time>2025-06-25T22:40:34.849Z</time>
      </trkpt>
      <trkpt lat="48.382886" lon="-0.644778">
        <ele>146.546382</ele>
        <time>2025-06-25T22:40:53.380Z</time>
      </trkpt>
      <trkpt lat="48.382606" lon="-0.644888">
        <ele>146.732650</ele>
        <time>2025-06-25T22:40:57.235Z</time>
      </trkpt>
      <trkpt lat="48.381904" lon="-0.644944">
        <ele>147.185157</ele>
        <time>2025-06-25T22:41:09.743Z</time>
      </trkpt>
      <trkpt lat="48.381183" lon="-0.645178">
        <ele>147.659920</ele>
        <time>2025-06-25T22:41:24.672Z</time>
      </trkpt>
      <trkpt lat="48.381015" lon="-0.645187">
        <ele>147.735977</ele>
        <time>2025-06-25T22:41:28.315Z</time>
      </trkpt>
      <trkpt lat="48.380653" lon="-0.645104">
        <ele>147.857457</ele>
        <time>2025-06-25T22:41:35.978Z</time>
      </trkpt>
      <trkpt lat="48.380475" lon="-0.645062">
        <ele>147.917230</ele>
        <time>2025-06-25T22:41:39.191Z</time>
      </trkpt>
      <trkpt lat="48.380241" lon="-0.645060">
        <ele>147.994862</ele>
        <time>2025-06-25T22:41:43.116Z</time>
      </trkpt>
      <trkpt lat="48.380009" lon="-0.645099">
        <ele>148.072308</ele>
        <time>2025-06-25T22:41:46.416Z</time>
      </trkpt>
      <trkpt lat="48.379727" lon="-0.645244">
        <ele>148.171168</ele>
        <time>2025-06-25T22:41:50.432Z</time>
      </trkpt>
      <trkpt lat="48.379226" lon="-0.645773">
        <ele>147.829854</ele>
        <time>2025-06-25T22:41:58.949Z</time>
      </trkpt>
      <trkpt lat="48.378629" lon="-0.646099">
        <ele>146.525338</ele>
        <time>2025-06-25T22:42:06.614Z</time>
      </trkpt>
      <trkpt lat="48.377950" lon="-0.646504">
        <ele>145.025078</ele>
        <time>2025-06-25T22:42:14.418Z</time>
      </trkpt>
      <trkpt lat="48.377387" lon="-0.646962">
        <ele>142.698970</ele>
        <time>2025-06-25T22:42:20.518Z</time>
      </trkpt>
      <trkpt lat="48.376749" lon="-0.647217">
        <ele>139.807367</ele>
        <time>2025-06-25T22:42:26.665Z</time>
      </trkpt>
      <trkpt lat="48.376434" lon="-0.647316">
        <ele>138.397747</ele>
        <time>2025-06-25T22:42:29.689Z</time>
      </trkpt>
      <trkpt lat="48.376167" lon="-0.647354">
        <ele>137.222925</ele>
        <time>2025-06-25T22:42:32.282Z</time>
      </trkpt>
      <trkpt lat="48.375784" lon="-0.647293">
        <ele>136.666098</ele>
        <time>2025-06-25T22:42:36.227Z</time>
      </trkpt>
      <trkpt lat="48.375456" lon="-0.647173">
        <ele>136.593200</ele>
        <time>2025-06-25T22:42:40.144Z</time>
      </trkpt>
      <trkpt lat="48.374881" lon="-0.646986">
        <ele>136.466157</ele>
        <time>2025-06-25T22:42:49.617Z</time>
      </trkpt>
      <trkpt lat="48.374732" lon="-0.647010">
        <ele>136.433795</ele>
        <time>2025-06-25T22:42:52.704Z</time>
      </trkpt>
      <trkpt lat="48.374604" lon="-0.647079">
        <ele>136.404433</ele>
        <time>2025-06-25T22:42:55.653Z</time>
      </trkpt>
      <trkpt lat="48.374490" lon="-0.647192">
        <ele>136.374956</ele>
        <time>2025-06-25T22:42:58.769Z</time>
      </trkpt>
      <trkpt lat="48.374355" lon="-0.647389">
        <ele>136.342229</ele>
        <time>2025-06-25T22:43:03.277Z</time>
      </trkpt>
      <trkpt lat="48.374036" lon="-0.648034">
        <ele>136.700395</ele>
        <time>2025-06-25T22:43:15.911Z</time>
      </trkpt>
      <trkpt lat="48.373937" lon="-0.648189">
        <ele>136.796168</ele>
        <time>2025-06-25T22:43:19.012Z</time>
      </trkpt>
      <trkpt lat="48.373340" lon="-0.648960">
        <ele>137.323584</ele>
        <time>2025-06-25T22:43:32.403Z</time>
      </trkpt>
      <trkpt lat="48.372681" lon="-0.649876">
        <ele>136.206287</ele>
        <time>2025-06-25T22:43:43.128Z</time>
      </trkpt>
      <trkpt lat="48.372155" lon="-0.650848">
        <ele>134.256928</ele>
        <time>2025-06-25T22:43:51.833Z</time>
      </trkpt>
      <trkpt lat="48.372006" lon="-0.651057">
        <ele>133.780230</ele>
        <time>2025-06-25T22:43:53.889Z</time>
      </trkpt>
      <trkpt lat="48.371238" lon="-0.651829">
        <ele>130.573610</ele>
        <time>2025-06-25T22:44:02.958Z</time>
      </trkpt>
      <trkpt lat="48.370953" lon="-0.652185">
        <ele>129.178108</ele>
        <time>2025-06-25T22:44:06.562Z</time>
      </trkpt>
      <trkpt lat="48.370302" lon="-0.653195">
        <ele>125.628752</ele>
        <time>2025-06-25T22:44:15.809Z</time>
      </trkpt>
      <trkpt lat="48.369727" lon="-0.654016">
        <ele>122.553948</ele>
        <time>2025-06-25T22:44:23.623Z</time>
      </trkpt>
      <trkpt lat="48.369179" lon="-0.654734">
        <ele>119.735249</ele>
        <time>2025-06-25T22:44:30.737Z</time>
      </trkpt>
      <trkpt lat="48.368815" lon="-0.655343">
        <ele>117.635439</ele>
        <time>2025-06-25T22:44:36.014Z</time>
      </trkpt>
      <trkpt lat="48.368268" lon="-0.655891">
        <ele>115.101355</ele>
        <time>2025-06-25T22:44:42.378Z</time>
      </trkpt>
      <trkpt lat="48.367792" lon="-0.656521">
        <ele>112.656889</ele>
        <time>2025-06-25T22:44:48.676Z</time>
      </trkpt>
      <trkpt lat="48.367436" lon="-0.657095">
        <ele>111.751431</ele>
        <time>2025-06-25T22:44:54.024Z</time>
      </trkpt>
      <trkpt lat="48.367317" lon="-0.657200">
        <ele>111.514539</ele>
        <time>2025-06-25T22:44:55.477Z</time>
      </trkpt>
      <trkpt lat="48.366467" lon="-0.657674">
        <ele>109.957814</ele>
        <time>2025-06-25T22:45:06.102Z</time>
      </trkpt>
      <trkpt lat="48.366258" lon="-0.657868">
        <ele>109.551968</ele>
        <time>2025-06-25T22:45:09.583Z</time>
      </trkpt>
      <trkpt lat="48.365075" lon="-0.659797">
        <ele>109.798673</ele>
        <time>2025-06-25T22:45:37.756Z</time>
      </trkpt>
      <trkpt lat="48.364479" lon="-0.660980">
        <ele>109.342473</ele>
        <time>2025-06-25T22:45:52.254Z</time>
      </trkpt>
      <trkpt lat="48.364160" lon="-0.661665">
        <ele>109.069009</ele>
        <time>2025-06-25T22:45:59.660Z</time>
      </trkpt>
      <trkpt lat="48.363776" lon="-0.662689">
        <ele>107.899156</ele>
        <time>2025-06-25T22:46:08.486Z</time>
      </trkpt>
      <trkpt lat="48.363371" lon="-0.663450">
        <ele>106.517560</ele>
        <time>2025-06-25T22:46:15.323Z</time>
      </trkpt>
      <trkpt lat="48.363202" lon="-0.663670">
        <ele>106.041026</ele>
        <time>2025-06-25T22:46:17.603Z</time>
      </trkpt>
      <trkpt lat="48.362968" lon="-0.663895">
        <ele>105.448828</ele>
        <time>2025-06-25T22:46:20.436Z</time>
      </trkpt>
      <trkpt lat="48.362710" lon="-0.664050">
        <ele>105.129592</ele>
        <time>2025-06-25T22:46:23.456Z</time>
      </trkpt>
      <trkpt lat="48.362500" lon="-0.664117">
        <ele>105.220775</ele>
        <time>2025-06-25T22:46:25.984Z</time>
      </trkpt>
      <trkpt lat="48.362080" lon="-0.664091">
        <ele>105.399327</ele>
        <time>2025-06-25T22:46:31.596Z</time>
      </trkpt>
      <trkpt lat="48.361766" lon="-0.664024">
        <ele>105.534037</ele>
        <time>2025-06-25T22:46:36.943Z</time>
      </trkpt>
      <trkpt lat="48.361240" lon="-0.663919">
        <ele>105.759419</ele>
        <time>2025-06-25T22:46:48.040Z</time>
      </trkpt>
      <trkpt lat="48.361022" lon="-0.663884">
        <ele>105.883422</ele>
        <time>2025-06-25T22:46:53.573Z</time>
      </trkpt>
      <trkpt lat="48.360911" lon="-0.663866">
        <ele>106.269079</ele>
        <time>2025-06-25T22:46:56.730Z</time>
      </trkpt>
      <trkpt lat="48.360557" lon="-0.663840">
        <ele>107.493391</ele>
        <time>2025-06-25T22:47:06.722Z</time>
      </trkpt>
      <trkpt lat="48.360326" lon="-0.663912">
        <ele>108.308290</ele>
        <time>2025-06-25T22:47:13.336Z</time>
      </trkpt>
      <trkpt lat="48.360193" lon="-0.664003">
        <ele>108.812974</ele>
        <time>2025-06-25T22:47:17.472Z</time>
      </trkpt>
      <trkpt lat="48.360054" lon="-0.664157">
        <ele>109.409209</ele>
        <time>2025-06-25T22:47:22.384Z</time>
      </trkpt>
      <trkpt lat="48.359778" lon="-0.664722">
        <ele>111.018794</ele>
        <time>2025-06-25T22:47:36.341Z</time>
      </trkpt>
      <trkpt lat="48.359312" lon="-0.665763">
        <ele>114.444580</ele>
        <time>2025-06-25T22:48:02.870Z</time>
      </trkpt>
      <trkpt lat="48.359018" lon="-0.666256">
        <ele>116.415607</ele>
        <time>2025-06-25T22:48:16.654Z</time>
      </trkpt>
      <trkpt lat="48.358917" lon="-0.666366">
        <ele>116.973884</ele>
        <time>2025-06-25T22:48:20.563Z</time>
      </trkpt>
      <trkpt lat="48.358782" lon="-0.666451">
        <ele>117.629180</ele>
        <time>2025-06-25T22:48:25.320Z</time>
      </trkpt>
      <trkpt lat="48.357927" lon="-0.666788">
        <ele>121.769469</ele>
        <time>2025-06-25T22:48:56.112Z</time>
      </trkpt>
      <trkpt lat="48.356858" lon="-0.667633">
        <ele>127.847291</ele>
        <time>2025-06-25T22:49:40.310Z</time>
      </trkpt>
      <trkpt lat="48.356175" lon="-0.668181">
        <ele>131.029475</ele>
        <time>2025-06-25T22:50:05.155Z</time>
      </trkpt>
      <trkpt lat="48.355405" lon="-0.669184">
        <ele>134.734198</ele>
        <time>2025-06-25T22:50:31.078Z</time>
      </trkpt>
      <trkpt lat="48.354861" lon="-0.669911">
        <ele>138.518753</ele>
        <time>2025-06-25T22:50:54.463Z</time>
      </trkpt>
      <trkpt lat="48.354788" lon="-0.670064">
        <ele>139.284560</ele>
        <time>2025-06-25T22:50:59.081Z</time>
      </trkpt>
      <trkpt lat="48.354744" lon="-0.670225">
        <ele>139.992351</ele>
        <time>2025-06-25T22:51:03.601Z</time>
      </trkpt>
      <trkpt lat="48.354736" lon="-0.670388">
        <ele>140.656882</ele>
        <time>2025-06-25T22:51:07.914Z</time>
      </trkpt>
      <trkpt lat="48.355094" lon="-0.670340">
        <ele>142.855959</ele>
        <time>2025-06-25T22:51:22.647Z</time>
      </trkpt>
      <trkpt lat="48.355383" lon="-0.670371">
        <ele>144.628674</ele>
        <time>2025-06-25T22:51:35.554Z</time>
      </trkpt>
      <trkpt lat="48.355487" lon="-0.670389">
        <ele>145.269186</ele>
        <time>2025-06-25T22:51:40.532Z</time>
      </trkpt>
      <trkpt lat="48.355703" lon="-0.670409">
        <ele>146.593267</ele>
        <time>2025-06-25T22:51:51.098Z</time>
      </trkpt>
      <trkpt lat="48.356085" lon="-0.670317">
        <ele>148.563067</ele>
        <time>2025-06-25T22:52:08.931Z</time>
      </trkpt>
      <trkpt lat="48.356412" lon="-0.670085">
        <ele>150.383343</ele>
        <time>2025-06-25T22:52:24.038Z</time>
      </trkpt>
      <trkpt lat="48.356635" lon="-0.670017">
        <ele>151.528986</ele>
        <time>2025-06-25T22:52:32.432Z</time>
      </trkpt>
      <trkpt lat="48.356703" lon="-0.670002">
        <ele>151.875031</ele>
        <time>2025-06-25T22:52:34.749Z</time>
      </trkpt>
      <trkpt lat="48.356891" lon="-0.670035">
        <ele>152.828045</ele>
        <time>2025-06-25T22:52:40.787Z</time>
      </trkpt>
      <trkpt lat="48.356964" lon="-0.670048">
        <ele>153.198171</ele>
        <time>2025-06-25T22:52:43.029Z</time>
      </trkpt>
      <trkpt lat="48.357211" lon="-0.670233">
        <ele>154.587351</ele>
        <time>2025-06-25T22:52:50.608Z</time>
      </trkpt>
      <trkpt lat="48.357299" lon="-0.670324">
        <ele>155.124961</ele>
        <time>2025-06-25T22:52:53.228Z</time>
      </trkpt>
      <trkpt lat="48.357389" lon="-0.670486">
        <ele>155.777450</ele>
        <time>2025-06-25T22:52:56.502Z</time>
      </trkpt>
      <trkpt lat="48.357453" lon="-0.670616">
        <ele>155.815243</ele>
        <time>2025-06-25T22:52:58.892Z</time>
      </trkpt>
      <trkpt lat="48.357483" lon="-0.670755">
        <ele>155.849382</ele>
        <time>2025-06-25T22:53:00.897Z</time>
      </trkpt>
      <trkpt lat="48.357484" lon="-0.671067">
        <ele>155.922264</ele>
        <time>2025-06-25T22:53:04.677Z</time>
      </trkpt>
      <trkpt lat="48.357470" lon="-0.671204">
        <ele>155.954642</ele>
        <time>2025-06-25T22:53:06.176Z</time>
      </trkpt>
      <trkpt lat="48.357390" lon="-0.671515">
        <ele>156.032543</ele>
        <time>2025-06-25T22:53:09.351Z</time>
      </trkpt>
      <trkpt lat="48.357278" lon="-0.671869">
        <ele>156.124129</ele>
        <time>2025-06-25T22:53:12.745Z</time>
      </trkpt>
      <trkpt lat="48.356338" lon="-0.673439">
        <ele>156.882806</ele>
        <time>2025-06-25T22:53:32.183Z</time>
      </trkpt>
      <trkpt lat="48.356073" lon="-0.673850">
        <ele>157.183741</ele>
        <time>2025-06-25T22:53:39.192Z</time>
      </trkpt>
      <trkpt lat="48.355869" lon="-0.674043">
        <ele>157.374296</ele>
        <time>2025-06-25T22:53:44.046Z</time>
      </trkpt>
      <trkpt lat="48.354914" lon="-0.674726">
        <ele>158.374307</ele>
        <time>2025-06-25T22:54:06.582Z</time>
      </trkpt>
      <trkpt lat="48.354740" lon="-0.674832">
        <ele>158.586360</ele>
        <time>2025-06-25T22:54:10.781Z</time>
      </trkpt>
      <trkpt lat="48.353872" lon="-0.675461">
        <ele>159.674653</ele>
        <time>2025-06-25T22:54:29.616Z</time>
      </trkpt>
      <trkpt lat="48.353575" lon="-0.675701">
        <ele>159.790799</ele>
        <time>2025-06-25T22:54:34.743Z</time>
      </trkpt>
      <trkpt lat="48.353430" lon="-0.675857">
        <ele>159.719672</ele>
        <time>2025-06-25T22:54:37.259Z</time>
      </trkpt>
      <trkpt lat="48.353358" lon="-0.675940">
        <ele>159.683481</ele>
        <time>2025-06-25T22:54:38.511Z</time>
      </trkpt>
      <trkpt lat="48.352277" lon="-0.677077">
        <ele>159.157198</ele>
        <time>2025-06-25T22:54:54.984Z</time>
      </trkpt>
      <trkpt lat="48.351719" lon="-0.677742">
        <ele>159.900795</ele>
        <time>2025-06-25T22:55:06.022Z</time>
      </trkpt>
      <trkpt lat="48.351307" lon="-0.678345">
        <ele>160.547576</ele>
        <time>2025-06-25T22:55:17.771Z</time>
      </trkpt>
      <trkpt lat="48.350529" lon="-0.679786">
        <ele>162.395996</ele>
        <time>2025-06-25T22:55:47.563Z</time>
      </trkpt>
      <trkpt lat="48.350341" lon="-0.680276">
        <ele>163.071949</ele>
        <time>2025-06-25T22:55:55.958Z</time>
      </trkpt>
      <trkpt lat="48.350194" lon="-0.680807">
        <ele>163.759173</ele>
        <time>2025-06-25T22:56:04.248Z</time>
      </trkpt>
      <trkpt lat="48.350124" lon="-0.681155">
        <ele>164.193554</ele>
        <time>2025-06-25T22:56:09.198Z</time>
      </trkpt>
      <trkpt lat="48.349913" lon="-0.682438">
        <ele>165.235616</ele>
        <time>2025-06-25T22:56:25.211Z</time>
      </trkpt>
      <trkpt lat="48.349648" lon="-0.683748">
        <ele>166.231733</ele>
        <time>2025-06-25T22:56:42.554Z</time>
      </trkpt>
      <trkpt lat="48.349523" lon="-0.684259">
        <ele>166.694786</ele>
        <time>2025-06-25T22:56:49.758Z</time>
      </trkpt>
      <trkpt lat="48.349128" lon="-0.685908">
        <ele>168.298953</ele>
        <time>2025-06-25T22:57:14.691Z</time>
      </trkpt>
      <trkpt lat="48.347942" lon="-0.688001">
        <ele>170.238115</ele>
        <time>2025-06-25T22:57:49.024Z</time>
      </trkpt>
      <trkpt lat="48.347062" lon="-0.690352">
        <ele>172.691313</ele>
        <time>2025-06-25T22:58:21.468Z</time>
      </trkpt>
      <trkpt lat="48.346216" lon="-0.692734">
        <ele>177.062432</ele>
        <time>2025-06-25T22:59:12.042Z</time>
      </trkpt>
      <trkpt lat="48.345926" lon="-0.693503">
        <ele>178.128649</ele>
        <time>2025-06-25T22:59:24.608Z</time>
      </trkpt>
      <trkpt lat="48.345618" lon="-0.694466">
        <ele>178.311358</ele>
        <time>2025-06-25T22:59:35.901Z</time>
      </trkpt>
      <trkpt lat="48.345468" lon="-0.695093">
        <ele>178.425285</ele>
        <time>2025-06-25T22:59:42.030Z</time>
      </trkpt>
      <trkpt lat="48.345331" lon="-0.697505">
        <ele>177.449266</ele>
        <time>2025-06-25T23:00:03.168Z</time>
      </trkpt>
      <trkpt lat="48.345284" lon="-0.698247">
        <ele>176.990564</ele>
        <time>2025-06-25T23:00:08.808Z</time>
      </trkpt>
      <trkpt lat="48.345159" lon="-0.699392">
        <ele>176.292162</ele>
        <time>2025-06-25T23:00:17.461Z</time>
      </trkpt>
      <trkpt lat="48.344794" lon="-0.703147">
        <ele>175.609307</ele>
        <time>2025-06-25T23:00:51.046Z</time>
      </trkpt>
      <trkpt lat="48.344855" lon="-0.705382">
        <ele>178.452307</ele>
        <time>2025-06-25T23:01:26.446Z</time>
      </trkpt>
      <trkpt lat="48.344915" lon="-0.707734">
        <ele>181.921359</ele>
        <time>2025-06-25T23:02:10.368Z</time>
      </trkpt>
      <trkpt lat="48.344791" lon="-0.708419">
        <ele>182.808906</ele>
        <time>2025-06-25T23:02:20.808Z</time>
      </trkpt>
      <trkpt lat="48.343297" lon="-0.713779">
        <ele>182.638283</ele>
        <time>2025-06-25T23:03:14.392Z</time>
      </trkpt>
      <trkpt lat="48.343198" lon="-0.714074">
        <ele>182.538839</ele>
        <time>2025-06-25T23:03:17.109Z</time>
      </trkpt>
      <trkpt lat="48.342072" lon="-0.716155">
        <ele>180.766288</ele>
        <time>2025-06-25T23:03:38.243Z</time>
      </trkpt>
      <trkpt lat="48.341981" lon="-0.716349">
        <ele>180.807717</ele>
        <time>2025-06-25T23:03:40.278Z</time>
      </trkpt>
      <trkpt lat="48.341829" lon="-0.716834">
        <ele>181.035081</ele>
        <time>2025-06-25T23:03:45.174Z</time>
      </trkpt>
      <trkpt lat="48.341383" lon="-0.719002">
        <ele>182.135604</ele>
        <time>2025-06-25T23:04:14.358Z</time>
      </trkpt>
      <trkpt lat="48.341321" lon="-0.719301">
        <ele>182.421553</ele>
        <time>2025-06-25T23:04:19.003Z</time>
      </trkpt>
      <trkpt lat="48.341265" lon="-0.720519">
        <ele>183.536196</ele>
        <time>2025-06-25T23:04:36.556Z</time>
      </trkpt>
      <trkpt lat="48.341161" lon="-0.723071">
        <ele>185.375613</ele>
        <time>2025-06-25T23:05:09.198Z</time>
      </trkpt>
      <trkpt lat="48.341119" lon="-0.723909">
        <ele>185.893482</ele>
        <time>2025-06-25T23:05:18.839Z</time>
      </trkpt>
      <trkpt lat="48.340858" lon="-0.725768">
        <ele>186.919824</ele>
        <time>2025-06-25T23:05:40.855Z</time>
      </trkpt>
      <trkpt lat="48.340713" lon="-0.727029">
        <ele>187.643715</ele>
        <time>2025-06-25T23:05:56.944Z</time>
      </trkpt>
      <trkpt lat="48.340562" lon="-0.729488">
        <ele>189.336139</ele>
        <time>2025-06-25T23:06:28.325Z</time>
      </trkpt>
      <trkpt lat="48.340459" lon="-0.730089">
        <ele>189.559631</ele>
        <time>2025-06-25T23:06:36.082Z</time>
      </trkpt>
      <trkpt lat="48.340094" lon="-0.731519">
        <ele>190.111223</ele>
        <time>2025-06-25T23:06:53.641Z</time>
      </trkpt>
      <trkpt lat="48.340000" lon="-0.731891">
        <ele>190.254530</ele>
        <time>2025-06-25T23:06:57.471Z</time>
      </trkpt>
      <trkpt lat="48.339644" lon="-0.733306">
        <ele>190.887238</ele>
        <time>2025-06-25T23:07:11.653Z</time>
      </trkpt>
      <trkpt lat="48.339347" lon="-0.735036">
        <ele>192.707526</ele>
        <time>2025-06-25T23:07:34.469Z</time>
      </trkpt>
      <trkpt lat="48.339078" lon="-0.736762">
        <ele>197.407809</ele>
        <time>2025-06-25T23:08:11.619Z</time>
      </trkpt>
      <trkpt lat="48.339068" lon="-0.737036">
        <ele>198.135368</ele>
        <time>2025-06-25T23:08:18.836Z</time>
      </trkpt>
      <trkpt lat="48.339020" lon="-0.737344">
        <ele>199.179495</ele>
        <time>2025-06-25T23:08:27.317Z</time>
      </trkpt>
      <trkpt lat="48.338865" lon="-0.738017">
        <ele>202.148283</ele>
        <time>2025-06-25T23:08:47.095Z</time>
      </trkpt>
      <trkpt lat="48.338799" lon="-0.738394">
        <ele>203.773272</ele>
        <time>2025-06-25T23:08:58.340Z</time>
      </trkpt>
      <trkpt lat="48.338495" lon="-0.740126">
        <ele>210.852720</ele>
        <time>2025-06-25T23:09:46.087Z</time>
      </trkpt>
      <trkpt lat="48.338354" lon="-0.740506">
        <ele>212.144900</ele>
        <time>2025-06-25T23:09:56.393Z</time>
      </trkpt>
      <trkpt lat="48.338338" lon="-0.740549">
        <ele>212.291218</ele>
        <time>2025-06-25T23:09:57.490Z</time>
      </trkpt>
      <trkpt lat="48.338162" lon="-0.741087">
        <ele>214.071625</ele>
        <time>2025-06-25T23:10:11.064Z</time>
      </trkpt>
      <trkpt lat="48.338108" lon="-0.741344">
        <ele>214.871929</ele>
        <time>2025-06-25T23:10:17.010Z</time>
      </trkpt>
      <trkpt lat="48.338102" lon="-0.742083">
        <ele>217.066350</ele>
        <time>2025-06-25T23:10:31.692Z</time>
      </trkpt>
      <trkpt lat="48.338122" lon="-0.742877">
        <ele>217.741366</ele>
        <time>2025-06-25T23:10:45.697Z</time>
      </trkpt>
      <trkpt lat="48.338132" lon="-0.742985">
        <ele>217.701071</ele>
        <time>2025-06-25T23:10:47.340Z</time>
      </trkpt>
      <trkpt lat="48.338166" lon="-0.743217">
        <ele>217.613282</ele>
        <time>2025-06-25T23:10:50.345Z</time>
      </trkpt>
      <trkpt lat="48.338219" lon="-0.743696">
        <ele>217.433843</ele>
        <time>2025-06-25T23:10:55.059Z</time>
      </trkpt>
      <trkpt lat="48.338231" lon="-0.744139">
        <ele>217.270006</ele>
        <time>2025-06-25T23:10:58.463Z</time>
      </trkpt>
      <trkpt lat="48.338225" lon="-0.744343">
        <ele>217.194549</ele>
        <time>2025-06-25T23:10:59.909Z</time>
      </trkpt>
      <trkpt lat="48.338219" lon="-0.744865">
        <ele>217.001627</ele>
        <time>2025-06-25T23:11:03.367Z</time>
      </trkpt>
      <trkpt lat="48.338243" lon="-0.746478">
        <ele>214.056262</ele>
        <time>2025-06-25T23:11:13.997Z</time>
      </trkpt>
      <trkpt lat="48.338344" lon="-0.747301">
        <ele>212.356488</ele>
        <time>2025-06-25T23:11:19.772Z</time>
      </trkpt>
      <trkpt lat="48.338452" lon="-0.747833">
        <ele>211.229512</ele>
        <time>2025-06-25T23:11:23.766Z</time>
      </trkpt>
      <trkpt lat="48.338558" lon="-0.748255">
        <ele>210.325698</ele>
        <time>2025-06-25T23:11:27.109Z</time>
      </trkpt>
      <trkpt lat="48.338574" lon="-0.748319">
        <ele>210.188708</ele>
        <time>2025-06-25T23:11:27.615Z</time>
      </trkpt>
      <trkpt lat="48.339081" lon="-0.750369">
        <ele>205.764604</ele>
        <time>2025-06-25T23:11:42.374Z</time>
      </trkpt>
      <trkpt lat="48.339299" lon="-0.751167">
        <ele>203.681896</ele>
        <time>2025-06-25T23:11:47.923Z</time>
      </trkpt>
      <trkpt lat="48.339363" lon="-0.751444">
        <ele>202.973978</ele>
        <time>2025-06-25T23:11:49.810Z</time>
      </trkpt>
      <trkpt lat="48.339428" lon="-0.751873">
        <ele>201.911815</ele>
        <time>2025-06-25T23:11:52.656Z</time>
      </trkpt>
      <trkpt lat="48.339464" lon="-0.752229">
        <ele>201.042549</ele>
        <time>2025-06-25T23:11:54.988Z</time>
      </trkpt>
      <trkpt lat="48.339447" lon="-0.752724">
        <ele>199.846032</ele>
        <time>2025-06-25T23:11:58.273Z</time>
      </trkpt>
      <trkpt lat="48.339324" lon="-0.753980">
        <ele>198.801050</ele>
        <time>2025-06-25T23:12:07.463Z</time>
      </trkpt>
      <trkpt lat="48.339167" lon="-0.755727">
        <ele>197.901559</ele>
        <time>2025-06-25T23:12:25.055Z</time>
      </trkpt>
      <trkpt lat="48.339053" lon="-0.756506">
        <ele>198.195495</ele>
        <time>2025-06-25T23:12:34.984Z</time>
      </trkpt>
      <trkpt lat="48.338895" lon="-0.757065">
        <ele>198.419336</ele>
        <time>2025-06-25T23:12:42.411Z</time>
      </trkpt>
      <trkpt lat="48.338537" lon="-0.758035">
        <ele>198.828185</ele>
        <time>2025-06-25T23:12:54.991Z</time>
      </trkpt>
      <trkpt lat="48.338455" lon="-0.758332">
        <ele>198.806330</ele>
        <time>2025-06-25T23:12:58.251Z</time>
      </trkpt>
      <trkpt lat="48.338157" lon="-0.760126">
        <ele>198.636703</ele>
        <time>2025-06-25T23:13:15.196Z</time>
      </trkpt>
      <trkpt lat="48.338051" lon="-0.760597">
        <ele>198.591088</ele>
        <time>2025-06-25T23:13:19.823Z</time>
      </trkpt>
      <trkpt lat="48.337978" lon="-0.760817">
        <ele>198.616073</ele>
        <time>2025-06-25T23:13:22.147Z</time>
      </trkpt>
      <trkpt lat="48.337188" lon="-0.762791">
        <ele>198.976780</ele>
        <time>2025-06-25T23:13:45.806Z</time>
      </trkpt>
      <trkpt lat="48.336764" lon="-0.764019">
        <ele>200.278371</ele>
        <time>2025-06-25T23:14:03.278Z</time>
      </trkpt>
      <trkpt lat="48.335839" lon="-0.767152">
        <ele>203.962428</ele>
        <time>2025-06-25T23:14:56.982Z</time>
      </trkpt>
      <trkpt lat="48.335683" lon="-0.768041">
        <ele>204.729562</ele>
        <time>2025-06-25T23:15:08.263Z</time>
      </trkpt>
      <trkpt lat="48.335658" lon="-0.769145">
        <ele>203.734075</ele>
        <time>2025-06-25T23:15:17.845Z</time>
      </trkpt>
      <trkpt lat="48.335729" lon="-0.769830">
        <ele>203.109304</ele>
        <time>2025-06-25T23:15:22.939Z</time>
      </trkpt>
      <trkpt lat="48.335950" lon="-0.770984">
        <ele>201.788588</ele>
        <time>2025-06-25T23:15:31.251Z</time>
      </trkpt>
      <trkpt lat="48.335996" lon="-0.771386">
        <ele>201.179558</ele>
        <time>2025-06-25T23:15:34.035Z</time>
      </trkpt>
      <trkpt lat="48.336037" lon="-0.771735">
        <ele>200.650413</ele>
        <time>2025-06-25T23:15:36.460Z</time>
      </trkpt>
      <trkpt lat="48.336087" lon="-0.774060">
        <ele>198.095818</ele>
        <time>2025-06-25T23:15:53.541Z</time>
      </trkpt>
      <trkpt lat="48.336108" lon="-0.775903">
        <ele>197.498569</ele>
        <time>2025-06-25T23:16:11.301Z</time>
      </trkpt>
      <trkpt lat="48.336134" lon="-0.776350">
        <ele>198.024554</ele>
        <time>2025-06-25T23:16:16.820Z</time>
      </trkpt>
      <trkpt lat="48.336115" lon="-0.776927">
        <ele>198.879983</ele>
        <time>2025-06-25T23:16:24.479Z</time>
      </trkpt>
      <trkpt lat="48.336095" lon="-0.777298">
        <ele>199.431137</ele>
        <time>2025-06-25T23:16:29.880Z</time>
      </trkpt>
      <trkpt lat="48.335911" lon="-0.778536">
        <ele>201.309542</ele>
        <time>2025-06-25T23:16:51.570Z</time>
      </trkpt>
      <trkpt lat="48.335389" lon="-0.781258">
        <ele>210.293082</ele>
        <time>2025-06-25T23:17:56.347Z</time>
      </trkpt>
      <trkpt lat="48.335265" lon="-0.782442">
        <ele>214.635448</ele>
        <time>2025-06-25T23:18:29.458Z</time>
      </trkpt>
      <trkpt lat="48.335061" lon="-0.783445">
        <ele>218.435452</ele>
        <time>2025-06-25T23:18:56.755Z</time>
      </trkpt>
      <trkpt lat="48.334858" lon="-0.784178">
        <ele>220.212246</ele>
        <time>2025-06-25T23:19:12.785Z</time>
      </trkpt>
      <trkpt lat="48.334616" lon="-0.784933">
        <ele>220.599583</ele>
        <time>2025-06-25T23:19:24.386Z</time>
      </trkpt>
      <trkpt lat="48.334423" lon="-0.785629">
        <ele>220.948078</ele>
        <time>2025-06-25T23:19:31.121Z</time>
      </trkpt>
      <trkpt lat="48.334260" lon="-0.786841">
        <ele>220.823702</ele>
        <time>2025-06-25T23:19:40.603Z</time>
      </trkpt>
      <trkpt lat="48.334215" lon="-0.788180">
        <ele>219.463681</ele>
        <time>2025-06-25T23:19:50.873Z</time>
      </trkpt>
      <trkpt lat="48.334305" lon="-0.789592">
        <ele>217.838114</ele>
        <time>2025-06-25T23:20:01.649Z</time>
      </trkpt>
      <trkpt lat="48.334408" lon="-0.790180">
        <ele>217.005020</ele>
        <time>2025-06-25T23:20:06.043Z</time>
      </trkpt>
      <trkpt lat="48.334911" lon="-0.792314">
        <ele>214.439027</ele>
        <time>2025-06-25T23:20:22.129Z</time>
      </trkpt>
      <trkpt lat="48.335200" lon="-0.793540">
        <ele>213.665302</ele>
        <time>2025-06-25T23:20:33.033Z</time>
      </trkpt>
      <trkpt lat="48.335350" lon="-0.794315">
        <ele>213.287484</ele>
        <time>2025-06-25T23:20:41.655Z</time>
      </trkpt>
      <trkpt lat="48.335413" lon="-0.794958">
        <ele>213.609873</ele>
        <time>2025-06-25T23:20:49.076Z</time>
      </trkpt>
      <trkpt lat="48.335433" lon="-0.795929">
        <ele>214.091743</ele>
        <time>2025-06-25T23:21:00.784Z</time>
      </trkpt>
      <trkpt lat="48.335333" lon="-0.796840">
        <ele>214.549740</ele>
        <time>2025-06-25T23:21:12.122Z</time>
      </trkpt>
      <trkpt lat="48.335233" lon="-0.797419">
        <ele>215.082986</ele>
        <time>2025-06-25T23:21:19.562Z</time>
      </trkpt>
      <trkpt lat="48.334810" lon="-0.799427">
        <ele>217.065896</ele>
        <time>2025-06-25T23:21:48.111Z</time>
      </trkpt>
      <trkpt lat="48.334750" lon="-0.800137">
        <ele>218.095016</ele>
        <time>2025-06-25T23:21:59.550Z</time>
      </trkpt>
      <trkpt lat="48.334782" lon="-0.800721">
        <ele>218.968218</ele>
        <time>2025-06-25T23:22:09.618Z</time>
      </trkpt>
      <trkpt lat="48.334895" lon="-0.801340">
        <ele>219.924771</ele>
        <time>2025-06-25T23:22:21.220Z</time>
      </trkpt>
      <trkpt lat="48.335279" lon="-0.802696">
        <ele>220.879282</ele>
        <time>2025-06-25T23:22:43.849Z</time>
      </trkpt>
      <trkpt lat="48.336310" lon="-0.806081">
        <ele>216.764322</ele>
        <time>2025-06-25T23:23:11.703Z</time>
      </trkpt>
      <trkpt lat="48.337575" lon="-0.809846">
        <ele>205.436428</ele>
        <time>2025-06-25T23:23:38.334Z</time>
      </trkpt>
      <trkpt lat="48.338599" lon="-0.812771">
        <ele>199.137838</ele>
        <time>2025-06-25T23:24:01.463Z</time>
      </trkpt>
      <trkpt lat="48.339161" lon="-0.814376">
        <ele>196.319425</ele>
        <time>2025-06-25T23:24:14.280Z</time>
      </trkpt>
      <trkpt lat="48.339993" lon="-0.817159">
        <ele>192.668415</ele>
        <time>2025-06-25T23:24:37.371Z</time>
      </trkpt>
      <trkpt lat="48.340306" lon="-0.818209">
        <ele>191.047544</ele>
        <time>2025-06-25T23:24:45.761Z</time>
      </trkpt>
      <trkpt lat="48.340654" lon="-0.819491">
        <ele>189.095698</ele>
        <time>2025-06-25T23:24:55.521Z</time>
      </trkpt>
      <trkpt lat="48.340870" lon="-0.820707">
        <ele>187.318011</ele>
        <time>2025-06-25T23:25:04.383Z</time>
      </trkpt>
      <trkpt lat="48.341095" lon="-0.822274">
        <ele>185.582997</ele>
        <time>2025-06-25T23:25:16.254Z</time>
      </trkpt>
      <trkpt lat="48.341388" lon="-0.824337">
        <ele>184.801290</ele>
        <time>2025-06-25T23:25:35.301Z</time>
      </trkpt>
      <trkpt lat="48.341420" lon="-0.825029">
        <ele>185.471884</ele>
        <time>2025-06-25T23:25:43.264Z</time>
      </trkpt>
      <trkpt lat="48.341329" lon="-0.825821">
        <ele>186.405980</ele>
        <time>2025-06-25T23:25:53.505Z</time>
      </trkpt>
      <trkpt lat="48.341094" lon="-0.826872">
        <ele>187.694692</ele>
        <time>2025-06-25T23:26:11.688Z</time>
      </trkpt>
      <trkpt lat="48.340482" lon="-0.829331">
        <ele>193.357495</ele>
        <time>2025-06-25T23:27:04.559Z</time>
      </trkpt>
      <trkpt lat="48.340181" lon="-0.830660">
        <ele>194.745610</ele>
        <time>2025-06-25T23:27:25.529Z</time>
      </trkpt>
      <trkpt lat="48.340075" lon="-0.831610">
        <ele>195.414622</ele>
        <time>2025-06-25T23:27:35.081Z</time>
      </trkpt>
      <trkpt lat="48.340032" lon="-0.832655">
        <ele>196.178955</ele>
        <time>2025-06-25T23:27:45.405Z</time>
      </trkpt>
      <trkpt lat="48.340010" lon="-0.835256">
        <ele>198.715371</ele>
        <time>2025-06-25T23:28:20.034Z</time>
      </trkpt>
      <trkpt lat="48.340024" lon="-0.835744">
        <ele>199.838848</ele>
        <time>2025-06-25T23:28:28.798Z</time>
      </trkpt>
      <trkpt lat="48.340139" lon="-0.836389">
        <ele>201.374830</ele>
        <time>2025-06-25T23:28:41.840Z</time>
      </trkpt>
      <trkpt lat="48.340185" lon="-0.836652">
        <ele>202.000337</ele>
        <time>2025-06-25T23:28:47.556Z</time>
      </trkpt>
      <trkpt lat="48.340992" lon="-0.838999">
        <ele>207.494744</ele>
        <time>2025-06-25T23:29:45.326Z</time>
      </trkpt>
      <trkpt lat="48.341201" lon="-0.839638">
        <ele>208.888410</ele>
        <time>2025-06-25T23:29:55.677Z</time>
      </trkpt>
      <trkpt lat="48.341347" lon="-0.840074">
        <ele>209.081616</ele>
        <time>2025-06-25T23:30:00.521Z</time>
      </trkpt>
      <trkpt lat="48.341440" lon="-0.840643">
        <ele>207.931577</ele>
        <time>2025-06-25T23:30:04.981Z</time>
      </trkpt>
      <trkpt lat="48.341803" lon="-0.843303">
        <ele>202.838319</ele>
        <time>2025-06-25T23:30:22.473Z</time>
      </trkpt>
      <trkpt lat="48.341879" lon="-0.844060">
        <ele>201.564822</ele>
        <time>2025-06-25T23:30:27.659Z</time>
      </trkpt>
      <trkpt lat="48.341867" lon="-0.844257">
        <ele>201.235754</ele>
        <time>2025-06-25T23:30:29.059Z</time>
      </trkpt>
      <trkpt lat="48.341815" lon="-0.845112">
        <ele>199.807584</ele>
        <time>2025-06-25T23:30:35.568Z</time>
      </trkpt>
      <trkpt lat="48.341376" lon="-0.847418">
        <ele>201.236876</ele>
        <time>2025-06-25T23:31:04.869Z</time>
      </trkpt>
      <trkpt lat="48.340452" lon="-0.850777">
        <ele>207.388103</ele>
        <time>2025-06-25T23:32:08.847Z</time>
      </trkpt>
      <trkpt lat="48.340321" lon="-0.851511">
        <ele>208.658731</ele>
        <time>2025-06-25T23:32:20.939Z</time>
      </trkpt>
      <trkpt lat="48.340296" lon="-0.851929">
        <ele>209.360402</ele>
        <time>2025-06-25T23:32:27.625Z</time>
      </trkpt>
      <trkpt lat="48.340285" lon="-0.852107">
        <ele>209.659282</ele>
        <time>2025-06-25T23:32:30.525Z</time>
      </trkpt>
      <trkpt lat="48.340357" lon="-0.852844">
        <ele>210.904698</ele>
        <time>2025-06-25T23:32:42.235Z</time>
      </trkpt>
      <trkpt lat="48.340448" lon="-0.853300">
        <ele>211.896338</ele>
        <time>2025-06-25T23:32:50.371Z</time>
      </trkpt>
      <trkpt lat="48.340468" lon="-0.853362">
        <ele>212.045141</ele>
        <time>2025-06-25T23:32:51.619Z</time>
      </trkpt>
      <trkpt lat="48.340529" lon="-0.853554">
        <ele>212.504630</ele>
        <time>2025-06-25T23:32:55.554Z</time>
      </trkpt>
      <trkpt lat="48.340563" lon="-0.853646">
        <ele>212.731915</ele>
        <time>2025-06-25T23:32:57.587Z</time>
      </trkpt>
      <trkpt lat="48.340810" lon="-0.854115">
        <ele>214.023911</ele>
        <time>2025-06-25T23:33:09.058Z</time>
      </trkpt>
      <trkpt lat="48.341645" lon="-0.855710">
        <ele>218.555492</ele>
        <time>2025-06-25T23:33:47.746Z</time>
      </trkpt>
      <trkpt lat="48.341948" lon="-0.856194">
        <ele>220.129248</ele>
        <time>2025-06-25T23:34:00.901Z</time>
      </trkpt>
      <trkpt lat="48.342004" lon="-0.856353">
        <ele>220.555168</ele>
        <time>2025-06-25T23:34:04.816Z</time>
      </trkpt>
      <trkpt lat="48.342061" lon="-0.856674">
        <ele>221.341616</ele>
        <time>2025-06-25T23:34:12.403Z</time>
      </trkpt>
      <trkpt lat="48.342133" lon="-0.857196">
        <ele>222.603502</ele>
        <time>2025-06-25T23:34:23.557Z</time>
      </trkpt>
      <trkpt lat="48.342140" lon="-0.857284">
        <ele>222.813282</ele>
        <time>2025-06-25T23:34:25.246Z</time>
      </trkpt>
      <trkpt lat="48.342190" lon="-0.857343">
        <ele>223.039569</ele>
        <time>2025-06-25T23:34:27.015Z</time>
      </trkpt>
      <trkpt lat="48.342460" lon="-0.857454">
        <ele>223.254823</ele>
        <time>2025-06-25T23:34:33.609Z</time>
      </trkpt>
      <trkpt lat="48.342677" lon="-0.857506">
        <ele>223.231677</ele>
        <time>2025-06-25T23:34:37.691Z</time>
      </trkpt>
      <trkpt lat="48.342770" lon="-0.857546">
        <ele>223.221489</ele>
        <time>2025-06-25T23:34:39.403Z</time>
      </trkpt>
      <trkpt lat="48.342656" lon="-0.857961">
        <ele>223.190049</ele>
        <time>2025-06-25T23:34:44.302Z</time>
      </trkpt>
      <trkpt lat="48.342591" lon="-0.858094">
        <ele>223.178491</ele>
        <time>2025-06-25T23:34:45.969Z</time>
      </trkpt>
      <trkpt lat="48.342391" lon="-0.858531">
        <ele>223.141344</ele>
        <time>2025-06-25T23:34:50.812Z</time>
      </trkpt>
      <trkpt lat="48.342181" lon="-0.858788">
        <ele>223.112829</ele>
        <time>2025-06-25T23:34:53.874Z</time>
      </trkpt>
      <trkpt lat="48.342204" lon="-0.859225">
        <ele>222.948638</ele>
        <time>2025-06-25T23:34:56.844Z</time>
      </trkpt>
      <trkpt lat="48.342295" lon="-0.860458">
        <ele>220.819378</ele>
        <time>2025-06-25T23:35:05.123Z</time>
      </trkpt>
      <trkpt lat="48.342373" lon="-0.861133">
        <ele>219.643469</ele>
        <time>2025-06-25T23:35:09.969Z</time>
      </trkpt>
      <trkpt lat="48.342442" lon="-0.861829">
        <ele>218.440535</ele>
        <time>2025-06-25T23:35:14.990Z</time>
      </trkpt>
      <trkpt lat="48.342484" lon="-0.862261">
        <ele>218.166599</ele>
        <time>2025-06-25T23:35:18.175Z</time>
      </trkpt>
      <trkpt lat="48.342551" lon="-0.862949">
        <ele>217.730317</ele>
        <time>2025-06-25T23:35:23.966Z</time>
      </trkpt>
      <trkpt lat="48.342624" lon="-0.863783">
        <ele>217.202521</ele>
        <time>2025-06-25T23:35:32.421Z</time>
      </trkpt>
      <trkpt lat="48.342640" lon="-0.863947">
        <ele>217.098520</ele>
        <time>2025-06-25T23:35:34.055Z</time>
      </trkpt>
      <trkpt lat="48.342727" lon="-0.864815">
        <ele>216.082116</ele>
        <time>2025-06-25T23:35:41.481Z</time>
      </trkpt>
      <trkpt lat="48.342790" lon="-0.865551">
        <ele>214.519994</ele>
        <time>2025-06-25T23:35:46.739Z</time>
      </trkpt>
      <trkpt lat="48.342837" lon="-0.866266">
        <ele>213.007532</ele>
        <time>2025-06-25T23:35:51.432Z</time>
      </trkpt>
      <trkpt lat="48.342658" lon="-0.868043">
        <ele>208.806796</ele>
        <time>2025-06-25T23:36:02.834Z</time>
      </trkpt>
      <trkpt lat="48.342631" lon="-0.868848">
        <ele>206.722051</ele>
        <time>2025-06-25T23:36:08.066Z</time>
      </trkpt>
      <trkpt lat="48.342653" lon="-0.868998">
        <ele>206.324750</ele>
        <time>2025-06-25T23:36:09.072Z</time>
      </trkpt>
      <trkpt lat="48.342745" lon="-0.869097">
        <ele>205.884602</ele>
        <time>2025-06-25T23:36:10.186Z</time>
      </trkpt>
      <trkpt lat="48.342778" lon="-0.869176">
        <ele>205.643272</ele>
        <time>2025-06-25T23:36:10.801Z</time>
      </trkpt>
      <trkpt lat="48.342799" lon="-0.869360">
        <ele>205.160401</ele>
        <time>2025-06-25T23:36:12.019Z</time>
      </trkpt>
      <trkpt lat="48.342749" lon="-0.869544">
        <ele>204.646258</ele>
        <time>2025-06-25T23:36:13.333Z</time>
      </trkpt>
      <trkpt lat="48.342700" lon="-0.869612">
        <ele>204.386856</ele>
        <time>2025-06-25T23:36:14.013Z</time>
      </trkpt>
      <trkpt lat="48.342633" lon="-0.870275">
        <ele>203.402696</ele>
        <time>2025-06-25T23:36:18.754Z</time>
      </trkpt>
      <trkpt lat="48.342673" lon="-0.871053">
        <ele>202.467995</ele>
        <time>2025-06-25T23:36:24.414Z</time>
      </trkpt>
      <trkpt lat="48.342826" lon="-0.871122">
        <ele>202.180147</ele>
        <time>2025-06-25T23:36:26.198Z</time>
      </trkpt>
      <trkpt lat="48.342901" lon="-0.871277">
        <ele>201.950496</ele>
        <time>2025-06-25T23:36:27.668Z</time>
      </trkpt>
      <trkpt lat="48.345068" lon="-0.875527">
        <ele>198.070796</ele>
        <time>2025-06-25T23:37:11.456Z</time>
      </trkpt>
      <trkpt lat="48.345355" lon="-0.876092">
        <ele>197.649097</ele>
        <time>2025-06-25T23:37:16.865Z</time>
      </trkpt>
      <trkpt lat="48.346535" lon="-0.878413">
        <ele>197.934827</ele>
        <time>2025-06-25T23:37:46.632Z</time>
      </trkpt>
      <trkpt lat="48.346717" lon="-0.878872">
        <ele>198.585845</ele>
        <time>2025-06-25T23:37:54.404Z</time>
      </trkpt>
      <trkpt lat="48.346753" lon="-0.878973">
        <ele>198.747093</ele>
        <time>2025-06-25T23:37:56.103Z</time>
      </trkpt>
      <trkpt lat="48.348164" lon="-0.883491">
        <ele>206.448906</ele>
        <time>2025-06-25T23:39:18.243Z</time>
      </trkpt>
      <trkpt lat="48.348410" lon="-0.884175">
        <ele>207.151657</ele>
        <time>2025-06-25T23:39:31.796Z</time>
      </trkpt>
      <trkpt lat="48.348617" lon="-0.884648">
        <ele>207.663394</ele>
        <time>2025-06-25T23:39:41.236Z</time>
      </trkpt>
      <trkpt lat="48.349328" lon="-0.885857">
        <ele>207.887444</ele>
        <time>2025-06-25T23:39:58.657Z</time>
      </trkpt>
      <trkpt lat="48.349361" lon="-0.885909">
        <ele>207.729633</ele>
        <time>2025-06-25T23:39:59.174Z</time>
      </trkpt>
      <trkpt lat="48.352219" lon="-0.890783">
        <ele>193.919909</ele>
        <time>2025-06-25T23:40:41.809Z</time>
      </trkpt>
      <trkpt lat="48.353147" lon="-0.892362">
        <ele>192.426292</ele>
        <time>2025-06-25T23:40:57.546Z</time>
      </trkpt>
      <trkpt lat="48.354039" lon="-0.893827">
        <ele>193.839035</ele>
        <time>2025-06-25T23:41:31.755Z</time>
      </trkpt>
      <trkpt lat="48.354204" lon="-0.894032">
        <ele>194.044297</ele>
        <time>2025-06-25T23:41:37.705Z</time>
      </trkpt>
      <trkpt lat="48.354217" lon="-0.894188">
        <ele>194.144523</ele>
        <time>2025-06-25T23:41:40.400Z</time>
      </trkpt>
      <trkpt lat="48.354641" lon="-0.895614">
        <ele>195.140417</ele>
        <time>2025-06-25T23:41:58.660Z</time>
      </trkpt>
      <trkpt lat="48.354716" lon="-0.896226">
        <ele>195.308645</ele>
        <time>2025-06-25T23:42:03.785Z</time>
      </trkpt>
      <trkpt lat="48.354750" lon="-0.897065">
        <ele>194.866049</ele>
        <time>2025-06-25T23:42:10.343Z</time>
      </trkpt>
      <trkpt lat="48.354702" lon="-0.899252">
        <ele>193.776647</ele>
        <time>2025-06-25T23:42:28.865Z</time>
      </trkpt>
      <trkpt lat="48.354721" lon="-0.899368">
        <ele>193.728211</ele>
        <time>2025-06-25T23:42:30.084Z</time>
      </trkpt>
      <trkpt lat="48.354772" lon="-0.899481">
        <ele>193.672833</ele>
        <time>2025-06-25T23:42:31.304Z</time>
      </trkpt>
      <trkpt lat="48.355367" lon="-0.900162">
        <ele>193.216771</ele>
        <time>2025-06-25T23:42:40.510Z</time>
      </trkpt>
      <trkpt lat="48.355421" lon="-0.900290">
        <ele>193.155304</ele>
        <time>2025-06-25T23:42:41.754Z</time>
      </trkpt>
      <trkpt lat="48.355428" lon="-0.900426">
        <ele>193.100003</ele>
        <time>2025-06-25T23:42:42.877Z</time>
      </trkpt>
      <trkpt lat="48.355395" lon="-0.900615">
        <ele>193.020781</ele>
        <time>2025-06-25T23:42:44.578Z</time>
      </trkpt>
      <trkpt lat="48.355103" lon="-0.901325">
        <ele>193.377333</ele>
        <time>2025-06-25T23:42:52.714Z</time>
      </trkpt>
      <trkpt lat="48.355074" lon="-0.901508">
        <ele>193.556926</ele>
        <time>2025-06-25T23:42:54.738Z</time>
      </trkpt>
      <trkpt lat="48.355081" lon="-0.901745">
        <ele>193.783392</ele>
        <time>2025-06-25T23:42:57.377Z</time>
      </trkpt>
      <trkpt lat="48.355399" lon="-0.902958">
        <ele>195.028190</ele>
        <time>2025-06-25T23:43:16.781Z</time>
      </trkpt>
      <trkpt lat="48.355589" lon="-0.903554">
        <ele>195.744408</ele>
        <time>2025-06-25T23:43:29.353Z</time>
      </trkpt>
      <trkpt lat="48.356577" lon="-0.905741">
        <ele>199.309245</ele>
        <time>2025-06-25T23:44:09.871Z</time>
      </trkpt>
      <trkpt lat="48.356642" lon="-0.905960">
        <ele>199.432231</ele>
        <time>2025-06-25T23:44:12.937Z</time>
      </trkpt>
      <trkpt lat="48.356646" lon="-0.906407">
        <ele>199.661453</ele>
        <time>2025-06-25T23:44:18.525Z</time>
      </trkpt>
      <trkpt lat="48.356592" lon="-0.906906">
        <ele>199.920689</ele>
        <time>2025-06-25T23:44:24.634Z</time>
      </trkpt>
      <trkpt lat="48.356330" lon="-0.908454">
        <ele>200.659850</ele>
        <time>2025-06-25T23:44:41.595Z</time>
      </trkpt>
      <trkpt lat="48.356269" lon="-0.908751">
        <ele>200.704015</ele>
        <time>2025-06-25T23:44:44.810Z</time>
      </trkpt>
      <trkpt lat="48.356246" lon="-0.909042">
        <ele>200.745649</ele>
        <time>2025-06-25T23:44:47.826Z</time>
      </trkpt>
      <trkpt lat="48.356254" lon="-0.909318">
        <ele>200.784898</ele>
        <time>2025-06-25T23:44:50.677Z</time>
      </trkpt>
      <trkpt lat="48.356341" lon="-0.909909">
        <ele>200.870898</ele>
        <time>2025-06-25T23:44:56.923Z</time>
      </trkpt>
      <trkpt lat="48.356485" lon="-0.911721">
        <ele>200.664879</ele>
        <time>2025-06-25T23:45:16.489Z</time>
      </trkpt>
      <trkpt lat="48.356566" lon="-0.912290">
        <ele>200.417066</ele>
        <time>2025-06-25T23:45:22.076Z</time>
      </trkpt>
      <trkpt lat="48.357745" lon="-0.918377">
        <ele>194.752553</ele>
        <time>2025-06-25T23:46:10.312Z</time>
      </trkpt>
      <trkpt lat="48.357859" lon="-0.919117">
        <ele>194.199637</ele>
        <time>2025-06-25T23:46:16.133Z</time>
      </trkpt>
      <trkpt lat="48.357875" lon="-0.919402">
        <ele>194.069670</ele>
        <time>2025-06-25T23:46:18.408Z</time>
      </trkpt>
      <trkpt lat="48.357849" lon="-0.920156">
        <ele>193.726588</ele>
        <time>2025-06-25T23:46:24.784Z</time>
      </trkpt>
      <trkpt lat="48.357865" lon="-0.920323">
        <ele>193.649917</ele>
        <time>2025-06-25T23:46:26.308Z</time>
      </trkpt>
      <trkpt lat="48.357967" lon="-0.920550">
        <ele>193.525397</ele>
        <time>2025-06-25T23:46:28.761Z</time>
      </trkpt>
      <trkpt lat="48.358714" lon="-0.921400">
        <ele>193.098017</ele>
        <time>2025-06-25T23:46:42.051Z</time>
      </trkpt>
      <trkpt lat="48.358827" lon="-0.921591">
        <ele>193.077903</ele>
        <time>2025-06-25T23:46:44.782Z</time>
      </trkpt>
      <trkpt lat="48.358870" lon="-0.921911">
        <ele>193.052227</ele>
        <time>2025-06-25T23:46:48.479Z</time>
      </trkpt>
      <trkpt lat="48.358870" lon="-0.923189">
        <ele>192.951715</ele>
        <time>2025-06-25T23:47:01.423Z</time>
      </trkpt>
      <trkpt lat="48.358872" lon="-0.923388">
        <ele>192.936062</ele>
        <time>2025-06-25T23:47:03.197Z</time>
      </trkpt>
      <trkpt lat="48.358886" lon="-0.924584">
        <ele>191.443180</ele>
        <time>2025-06-25T23:47:12.725Z</time>
      </trkpt>
      <trkpt lat="48.358997" lon="-0.925951">
        <ele>189.607922</ele>
        <time>2025-06-25T23:47:22.264Z</time>
      </trkpt>
      <trkpt lat="48.359000" lon="-0.926369">
        <ele>188.974344</ele>
        <time>2025-06-25T23:47:25.071Z</time>
      </trkpt>
      <trkpt lat="48.358971" lon="-0.926864">
        <ele>188.125558</ele>
        <time>2025-06-25T23:47:28.435Z</time>
      </trkpt>
      <trkpt lat="48.358862" lon="-0.928144">
        <ele>185.921315</ele>
        <time>2025-06-25T23:47:37.537Z</time>
      </trkpt>
      <trkpt lat="48.358858" lon="-0.929158">
        <ele>184.161928</ele>
        <time>2025-06-25T23:47:44.753Z</time>
      </trkpt>
      <trkpt lat="48.358872" lon="-0.929509">
        <ele>183.529067</ele>
        <time>2025-06-25T23:47:47.225Z</time>
      </trkpt>
      <trkpt lat="48.358922" lon="-0.929833">
        <ele>182.930416</ele>
        <time>2025-06-25T23:47:49.550Z</time>
      </trkpt>
      <trkpt lat="48.358987" lon="-0.930227">
        <ele>182.199772</ele>
        <time>2025-06-25T23:47:52.364Z</time>
      </trkpt>
      <trkpt lat="48.358891" lon="-0.931209">
        <ele>180.413360</ele>
        <time>2025-06-25T23:47:59.139Z</time>
      </trkpt>
      <trkpt lat="48.358861" lon="-0.931781">
        <ele>179.451291</ele>
        <time>2025-06-25T23:48:03.032Z</time>
      </trkpt>
      <trkpt lat="48.358882" lon="-0.932852">
        <ele>177.828061</ele>
        <time>2025-06-25T23:48:10.512Z</time>
      </trkpt>
      <trkpt lat="48.358862" lon="-0.933538">
        <ele>176.787797</ele>
        <time>2025-06-25T23:48:15.501Z</time>
      </trkpt>
      <trkpt lat="48.358819" lon="-0.934092">
        <ele>175.942801</ele>
        <time>2025-06-25T23:48:19.710Z</time>
      </trkpt>
      <trkpt lat="48.358862" lon="-0.934531">
        <ele>175.228666</ele>
        <time>2025-06-25T23:48:23.090Z</time>
      </trkpt>
      <trkpt lat="48.359131" lon="-0.935613">
        <ele>173.317569</ele>
        <time>2025-06-25T23:48:31.650Z</time>
      </trkpt>
      <trkpt lat="48.359221" lon="-0.936335">
        <ele>172.102361</ele>
        <time>2025-06-25T23:48:36.758Z</time>
      </trkpt>
      <trkpt lat="48.359240" lon="-0.936884">
        <ele>171.156981</ele>
        <time>2025-06-25T23:48:40.399Z</time>
      </trkpt>
      <trkpt lat="48.359199" lon="-0.937315">
        <ele>169.966598</ele>
        <time>2025-06-25T23:48:43.211Z</time>
      </trkpt>
      <trkpt lat="48.359035" lon="-0.938025">
        <ele>167.911484</ele>
        <time>2025-06-25T23:48:47.993Z</time>
      </trkpt>
      <trkpt lat="48.359025" lon="-0.938166">
        <ele>167.523794</ele>
        <time>2025-06-25T23:48:48.889Z</time>
      </trkpt>
      <trkpt lat="48.359079" lon="-0.938467">
        <ele>166.671380</ele>
        <time>2025-06-25T23:48:50.869Z</time>
      </trkpt>
      <trkpt lat="48.359197" lon="-0.938730">
        <ele>165.803753</ele>
        <time>2025-06-25T23:48:52.888Z</time>
      </trkpt>
      <trkpt lat="48.359213" lon="-0.938877">
        <ele>165.396494</ele>
        <time>2025-06-25T23:48:53.842Z</time>
      </trkpt>
      <trkpt lat="48.359156" lon="-0.939240">
        <ele>164.376703</ele>
        <time>2025-06-25T23:48:56.253Z</time>
      </trkpt>
      <trkpt lat="48.358969" lon="-0.939833">
        <ele>162.867967</ele>
        <time>2025-06-25T23:49:00.583Z</time>
      </trkpt>
      <trkpt lat="48.358959" lon="-0.939970">
        <ele>162.576297</ele>
        <time>2025-06-25T23:49:01.497Z</time>
      </trkpt>
      <trkpt lat="48.358984" lon="-0.940102">
        <ele>162.285827</ele>
        <time>2025-06-25T23:49:02.413Z</time>
      </trkpt>
      <trkpt lat="48.359034" lon="-0.940243">
        <ele>161.947603</ele>
        <time>2025-06-25T23:49:03.490Z</time>
      </trkpt>
      <trkpt lat="48.359248" lon="-0.940638">
        <ele>160.869044</ele>
        <time>2025-06-25T23:49:06.905Z</time>
      </trkpt>
      <trkpt lat="48.359395" lon="-0.940890">
        <ele>160.159402</ele>
        <time>2025-06-25T23:49:09.158Z</time>
      </trkpt>
      <trkpt lat="48.359612" lon="-0.941178">
        <ele>159.237931</ele>
        <time>2025-06-25T23:49:12.095Z</time>
      </trkpt>
      <trkpt lat="48.359764" lon="-0.941455">
        <ele>158.477682</ele>
        <time>2025-06-25T23:49:14.542Z</time>
      </trkpt>
      <trkpt lat="48.359982" lon="-0.942097">
        <ele>158.313100</ele>
        <time>2025-06-25T23:49:19.563Z</time>
      </trkpt>
      <trkpt lat="48.360497" lon="-0.942891">
        <ele>158.704327</ele>
        <time>2025-06-25T23:49:29.275Z</time>
      </trkpt>
      <trkpt lat="48.360566" lon="-0.942998">
        <ele>158.756900</ele>
        <time>2025-06-25T23:49:31.242Z</time>
      </trkpt>
      <trkpt lat="48.360710" lon="-0.943227">
        <ele>158.868068</ele>
        <time>2025-06-25T23:49:36.096Z</time>
      </trkpt>
      <trkpt lat="48.360810" lon="-0.943333">
        <ele>158.932973</ele>
        <time>2025-06-25T23:49:39.370Z</time>
      </trkpt>
      <trkpt lat="48.361206" lon="-0.943527">
        <ele>159.796329</ele>
        <time>2025-06-25T23:49:52.653Z</time>
      </trkpt>
      <trkpt lat="48.361456" lon="-0.943741">
        <ele>161.162092</ele>
        <time>2025-06-25T23:50:03.553Z</time>
      </trkpt>
      <trkpt lat="48.361704" lon="-0.943902">
        <ele>162.444663</ele>
        <time>2025-06-25T23:50:14.331Z</time>
      </trkpt>
      <trkpt lat="48.362116" lon="-0.943993">
        <ele>164.422093</ele>
        <time>2025-06-25T23:50:30.251Z</time>
      </trkpt>
      <trkpt lat="48.362502" lon="-0.944028">
        <ele>166.258424</ele>
        <time>2025-06-25T23:50:43.734Z</time>
      </trkpt>
      <trkpt lat="48.362953" lon="-0.944129">
        <ele>167.984615</ele>
        <time>2025-06-25T23:50:57.285Z</time>
      </trkpt>
      <trkpt lat="48.363206" lon="-0.944238">
        <ele>168.556290</ele>
        <time>2025-06-25T23:51:03.851Z</time>
      </trkpt>
      <trkpt lat="48.363567" lon="-0.944507">
        <ele>169.431351</ele>
        <time>2025-06-25T23:51:12.506Z</time>
      </trkpt>
      <trkpt lat="48.363947" lon="-0.944936">
        <ele>170.463247</ele>
        <time>2025-06-25T23:51:22.069Z</time>
      </trkpt>
      <trkpt lat="48.364219" lon="-0.945385">
        <ele>171.340223</ele>
        <time>2025-06-25T23:51:30.617Z</time>
      </trkpt>
      <trkpt lat="48.364347" lon="-0.945697">
        <ele>171.825894</ele>
        <time>2025-06-25T23:51:36.110Z</time>
      </trkpt>
      <trkpt lat="48.364750" lon="-0.946868">
        <ele>173.490827</ele>
        <time>2025-06-25T23:51:57.267Z</time>
      </trkpt>
      <trkpt lat="48.364847" lon="-0.947088">
        <ele>173.824169</ele>
        <time>2025-06-25T23:52:01.479Z</time>
      </trkpt>
      <trkpt lat="48.365404" lon="-0.947970">
        <ele>175.416584</ele>
        <time>2025-06-25T23:52:18.511Z</time>
      </trkpt>
      <trkpt lat="48.365711" lon="-0.948452">
        <ele>176.371980</ele>
        <time>2025-06-25T23:52:26.792Z</time>
      </trkpt>
      <trkpt lat="48.365871" lon="-0.948752">
        <ele>176.922427</ele>
        <time>2025-06-25T23:52:31.794Z</time>
      </trkpt>
      <trkpt lat="48.365999" lon="-0.949055">
        <ele>177.436187</ele>
        <time>2025-06-25T23:52:36.729Z</time>
      </trkpt>
      <trkpt lat="48.366044" lon="-0.949227">
        <ele>177.700683</ele>
        <time>2025-06-25T23:52:39.469Z</time>
      </trkpt>
      <trkpt lat="48.366068" lon="-0.949536">
        <ele>178.145817</ele>
        <time>2025-06-25T23:52:44.426Z</time>
      </trkpt>
      <trkpt lat="48.366028" lon="-0.950565">
        <ele>180.638011</ele>
        <time>2025-06-25T23:53:05.644Z</time>
      </trkpt>
      <trkpt lat="48.366062" lon="-0.951088">
        <ele>182.337194</ele>
        <time>2025-06-25T23:53:19.272Z</time>
      </trkpt>
      <trkpt lat="48.366149" lon="-0.951371">
        <ele>183.345484</ele>
        <time>2025-06-25T23:53:27.904Z</time>
      </trkpt>
      <trkpt lat="48.366397" lon="-0.951979">
        <ele>185.652388</ele>
        <time>2025-06-25T23:53:47.126Z</time>
      </trkpt>
      <trkpt lat="48.366649" lon="-0.952691">
        <ele>187.503639</ele>
        <time>2025-06-25T23:54:04.519Z</time>
      </trkpt>
      <trkpt lat="48.366698" lon="-0.952945">
        <ele>187.425411</ele>
        <time>2025-06-25T23:54:08.824Z</time>
      </trkpt>
      <trkpt lat="48.366675" lon="-0.953422">
        <ele>187.283960</ele>
        <time>2025-06-25T23:54:14.583Z</time>
      </trkpt>
      <trkpt lat="48.366462" lon="-0.955048">
        <ele>186.793784</ele>
        <time>2025-06-25T23:54:26.293Z</time>
      </trkpt>
      <trkpt lat="48.366324" lon="-0.956150">
        <ele>186.399465</ele>
        <time>2025-06-25T23:54:34.228Z</time>
      </trkpt>
      <trkpt lat="48.366217" lon="-0.956843">
        <ele>186.145711</ele>
        <time>2025-06-25T23:54:40.542Z</time>
      </trkpt>
      <trkpt lat="48.366014" lon="-0.957758">
        <ele>185.801647</ele>
        <time>2025-06-25T23:54:52.437Z</time>
      </trkpt>
      <trkpt lat="48.365713" lon="-0.958936">
        <ele>188.027267</ele>
        <time>2025-06-25T23:55:12.283Z</time>
      </trkpt>
      <trkpt lat="48.365360" lon="-0.960122">
        <ele>190.324330</ele>
        <time>2025-06-25T23:55:36.036Z</time>
      </trkpt>
      <trkpt lat="48.365104" lon="-0.960876">
        <ele>191.784237</ele>
        <time>2025-06-25T23:55:53.291Z</time>
      </trkpt>
      <trkpt lat="48.365063" lon="-0.961077">
        <ele>192.144818</ele>
        <time>2025-06-25T23:55:57.572Z</time>
      </trkpt>
      <trkpt lat="48.365041" lon="-0.961274">
        <ele>192.487399</ele>
        <time>2025-06-25T23:56:01.506Z</time>
      </trkpt>
      <trkpt lat="48.365017" lon="-0.962241">
        <ele>194.146895</ele>
        <time>2025-06-25T23:56:18.763Z</time>
      </trkpt>
      <trkpt lat="48.364982" lon="-0.962590">
        <ele>194.752187</ele>
        <time>2025-06-25T23:56:24.221Z</time>
      </trkpt>
      <trkpt lat="48.364457" lon="-0.965840">
        <ele>193.318704</ele>
        <time>2025-06-25T23:56:53.090Z</time>
      </trkpt>
      <trkpt lat="48.364285" lon="-0.966882">
        <ele>190.732094</ele>
        <time>2025-06-25T23:57:00.147Z</time>
      </trkpt>
      <trkpt lat="48.364227" lon="-0.967488">
        <ele>189.257099</ele>
        <time>2025-06-25T23:57:03.982Z</time>
      </trkpt>
      <trkpt lat="48.364222" lon="-0.968163">
        <ele>187.641348</ele>
        <time>2025-06-25T23:57:08.196Z</time>
      </trkpt>
      <trkpt lat="48.364288" lon="-0.969013">
        <ele>186.252532</ele>
        <time>2025-06-25T23:57:13.647Z</time>
      </trkpt>
      <trkpt lat="48.364515" lon="-0.970119">
        <ele>184.373966</ele>
        <time>2025-06-25T23:57:21.814Z</time>
      </trkpt>
      <trkpt lat="48.364656" lon="-0.971061">
        <ele>183.648448</ele>
        <time>2025-06-25T23:57:30.716Z</time>
      </trkpt>
      <trkpt lat="48.364803" lon="-0.972149">
        <ele>185.123549</ele>
        <time>2025-06-25T23:57:46.635Z</time>
      </trkpt>
      <trkpt lat="48.364807" lon="-0.972322">
        <ele>185.353535</ele>
        <time>2025-06-25T23:57:49.464Z</time>
      </trkpt>
      <trkpt lat="48.364584" lon="-0.974843">
        <ele>189.379747</ele>
        <time>2025-06-25T23:58:36.631Z</time>
      </trkpt>
      <trkpt lat="48.364501" lon="-0.975061">
        <ele>189.829360</ele>
        <time>2025-06-25T23:58:41.065Z</time>
      </trkpt>
      <trkpt lat="48.364150" lon="-0.975577">
        <ele>191.150844</ele>
        <time>2025-06-25T23:58:53.262Z</time>
      </trkpt>
      <trkpt lat="48.364087" lon="-0.975730">
        <ele>191.472949</ele>
        <time>2025-06-25T23:58:55.981Z</time>
      </trkpt>
      <trkpt lat="48.364067" lon="-0.975851">
        <ele>191.696074</ele>
        <time>2025-06-25T23:58:57.810Z</time>
      </trkpt>
      <trkpt lat="48.364136" lon="-0.977113">
        <ele>191.860683</ele>
        <time>2025-06-25T23:59:13.513Z</time>
      </trkpt>
      <trkpt lat="48.364074" lon="-0.978333">
        <ele>192.006404</ele>
        <time>2025-06-25T23:59:24.247Z</time>
      </trkpt>
      <trkpt lat="48.363888" lon="-0.980391">
        <ele>190.236568</ele>
        <time>2025-06-25T23:59:40.220Z</time>
      </trkpt>
      <trkpt lat="48.363889" lon="-0.981497">
        <ele>189.023682</ele>
        <time>2025-06-25T23:59:48.675Z</time>
      </trkpt>
      <trkpt lat="48.363602" lon="-0.984360">
        <ele>184.770934</ele>
        <time>2025-06-26T00:00:09.099Z</time>
      </trkpt>
      <trkpt lat="48.363491" lon="-0.985181">
        <ele>183.819449</ele>
        <time>2025-06-26T00:00:14.850Z</time>
      </trkpt>
      <trkpt lat="48.362805" lon="-0.988580">
        <ele>181.983847</ele>
        <time>2025-06-26T00:00:44.338Z</time>
      </trkpt>
      <trkpt lat="48.362417" lon="-0.990586">
        <ele>184.139609</ele>
        <time>2025-06-26T00:01:15.423Z</time>
      </trkpt>
      <trkpt lat="48.362246" lon="-0.991464">
        <ele>185.486815</ele>
        <time>2025-06-26T00:01:31.133Z</time>
      </trkpt>
      <trkpt lat="48.362171" lon="-0.992066">
        <ele>186.637398</ele>
        <time>2025-06-26T00:01:41.967Z</time>
      </trkpt>
      <trkpt lat="48.362119" lon="-0.992980">
        <ele>188.692600</ele>
        <time>2025-06-26T00:01:58.784Z</time>
      </trkpt>
      <trkpt lat="48.362118" lon="-0.993829">
        <ele>190.594689</ele>
        <time>2025-06-26T00:02:14.983Z</time>
      </trkpt>
      <trkpt lat="48.362117" lon="-0.995687">
        <ele>194.736631</ele>
        <time>2025-06-26T00:02:52.079Z</time>
      </trkpt>
      <trkpt lat="48.362286" lon="-0.997137">
        <ele>198.007414</ele>
        <time>2025-06-26T00:03:18.652Z</time>
      </trkpt>
      <trkpt lat="48.362298" lon="-0.997228">
        <ele>198.171372</ele>
        <time>2025-06-26T00:03:20.298Z</time>
      </trkpt>
      <trkpt lat="48.362478" lon="-0.998245">
        <ele>200.031358</ele>
        <time>2025-06-26T00:03:37.923Z</time>
      </trkpt>
      <trkpt lat="48.362520" lon="-0.998618">
        <ele>200.699947</ele>
        <time>2025-06-26T00:03:44.176Z</time>
      </trkpt>
      <trkpt lat="48.362518" lon="-0.998669">
        <ele>200.790234</ele>
        <time>2025-06-26T00:03:44.974Z</time>
      </trkpt>
      <trkpt lat="48.362418" lon="-0.999306">
        <ele>201.946977</ele>
        <time>2025-06-26T00:03:55.510Z</time>
      </trkpt>
      <trkpt lat="48.362334" lon="-0.999270">
        <ele>202.179288</ele>
        <time>2025-06-26T00:03:57.672Z</time>
      </trkpt>
      <trkpt lat="48.362229" lon="-0.999939">
        <ele>203.614846</ele>
        <time>2025-06-26T00:04:10.053Z</time>
      </trkpt>
      <trkpt lat="48.361934" lon="-1.000836">
        <ele>206.020017</ele>
        <time>2025-06-26T00:04:27.633Z</time>
      </trkpt>
      <trkpt lat="48.361873" lon="-1.001028">
        <ele>206.531445</ele>
        <time>2025-06-26T00:04:31.567Z</time>
      </trkpt>
      <trkpt lat="48.361811" lon="-1.001384">
        <ele>207.415846</ele>
        <time>2025-06-26T00:04:38.715Z</time>
      </trkpt>
      <trkpt lat="48.361757" lon="-1.002516">
        <ele>210.393652</ele>
        <time>2025-06-26T00:05:04.089Z</time>
      </trkpt>
      <trkpt lat="48.361754" lon="-1.002666">
        <ele>210.859669</ele>
        <time>2025-06-26T00:05:07.832Z</time>
      </trkpt>
      <trkpt lat="48.361763" lon="-1.002980">
        <ele>211.835663</ele>
        <time>2025-06-26T00:05:15.385Z</time>
      </trkpt>
      <trkpt lat="48.361796" lon="-1.003257">
        <ele>212.709569</ele>
        <time>2025-06-26T00:05:22.354Z</time>
      </trkpt>
      <trkpt lat="48.361861" lon="-1.003462">
        <ele>213.414943</ele>
        <time>2025-06-26T00:05:27.973Z</time>
      </trkpt>
      <trkpt lat="48.362193" lon="-1.003964">
        <ele>215.614462</ele>
        <time>2025-06-26T00:05:45.445Z</time>
      </trkpt>
      <trkpt lat="48.362266" lon="-1.004106">
        <ele>216.172003</ele>
        <time>2025-06-26T00:05:49.619Z</time>
      </trkpt>
      <trkpt lat="48.362328" lon="-1.004315">
        <ele>216.882771</ele>
        <time>2025-06-26T00:05:54.463Z</time>
      </trkpt>
      <trkpt lat="48.362351" lon="-1.004539">
        <ele>217.586624</ele>
        <time>2025-06-26T00:05:58.919Z</time>
      </trkpt>
      <trkpt lat="48.362336" lon="-1.005040">
        <ele>217.868420</ele>
        <time>2025-06-26T00:06:07.502Z</time>
      </trkpt>
      <trkpt lat="48.362117" lon="-1.006816">
        <ele>218.548536</ele>
        <time>2025-06-26T00:06:25.286Z</time>
      </trkpt>
      <trkpt lat="48.362062" lon="-1.007954">
        <ele>218.483053</ele>
        <time>2025-06-26T00:06:34.198Z</time>
      </trkpt>
      <trkpt lat="48.362022" lon="-1.008243">
        <ele>218.387679</ele>
        <time>2025-06-26T00:06:36.554Z</time>
      </trkpt>
      <trkpt lat="48.361206" lon="-1.012243">
        <ele>217.464606</ele>
        <time>2025-06-26T00:07:16.301Z</time>
      </trkpt>
      <trkpt lat="48.360617" lon="-1.014217">
        <ele>215.804656</ele>
        <time>2025-06-26T00:07:35.011Z</time>
      </trkpt>
      <trkpt lat="48.360238" lon="-1.015437">
        <ele>214.571651</ele>
        <time>2025-06-26T00:07:44.266Z</time>
      </trkpt>
      <trkpt lat="48.360106" lon="-1.015920">
        <ele>214.040406</ele>
        <time>2025-06-26T00:07:47.832Z</time>
      </trkpt>
      <trkpt lat="48.360004" lon="-1.016464">
        <ele>213.465435</ele>
        <time>2025-06-26T00:07:51.834Z</time>
      </trkpt>
      <trkpt lat="48.359693" lon="-1.018824">
        <ele>213.943719</ele>
        <time>2025-06-26T00:08:17.178Z</time>
      </trkpt>
      <trkpt lat="48.359681" lon="-1.019162">
        <ele>214.325853</ele>
        <time>2025-06-26T00:08:22.770Z</time>
      </trkpt>
      <trkpt lat="48.359815" lon="-1.020852">
        <ele>216.756326</ele>
        <time>2025-06-26T00:08:54.896Z</time>
      </trkpt>
      <trkpt lat="48.359892" lon="-1.021265">
        <ele>217.553969</ele>
        <time>2025-06-26T00:09:03.144Z</time>
      </trkpt>
      <trkpt lat="48.360032" lon="-1.021786">
        <ele>218.599004</ele>
        <time>2025-06-26T00:09:13.353Z</time>
      </trkpt>
      <trkpt lat="48.360140" lon="-1.022117">
        <ele>219.284710</ele>
        <time>2025-06-26T00:09:19.614Z</time>
      </trkpt>
      <trkpt lat="48.360430" lon="-1.022733">
        <ele>220.467209</ele>
        <time>2025-06-26T00:09:31.335Z</time>
      </trkpt>
      <trkpt lat="48.360536" lon="-1.023016">
        <ele>220.382476</ele>
        <time>2025-06-26T00:09:35.918Z</time>
      </trkpt>
      <trkpt lat="48.360896" lon="-1.024328">
        <ele>220.012248</ele>
        <time>2025-06-26T00:09:50.473Z</time>
      </trkpt>
      <trkpt lat="48.360961" lon="-1.024701">
        <ele>219.911672</ele>
        <time>2025-06-26T00:09:53.406Z</time>
      </trkpt>
      <trkpt lat="48.360982" lon="-1.025019">
        <ele>219.828323</ele>
        <time>2025-06-26T00:09:55.707Z</time>
      </trkpt>
      <trkpt lat="48.361008" lon="-1.026792">
        <ele>215.653444</ele>
        <time>2025-06-26T00:10:07.335Z</time>
      </trkpt>
      <trkpt lat="48.361034" lon="-1.027062">
        <ele>214.957228</ele>
        <time>2025-06-26T00:10:09.064Z</time>
      </trkpt>
      <trkpt lat="48.361106" lon="-1.027347">
        <ele>214.179134</ele>
        <time>2025-06-26T00:10:10.995Z</time>
      </trkpt>
      <trkpt lat="48.361296" lon="-1.027885">
        <ele>212.616696</ele>
        <time>2025-06-26T00:10:14.870Z</time>
      </trkpt>
      <trkpt lat="48.361304" lon="-1.028007">
        <ele>212.294533</ele>
        <time>2025-06-26T00:10:15.649Z</time>
      </trkpt>
      <trkpt lat="48.361263" lon="-1.028183">
        <ele>211.804417</ele>
        <time>2025-06-26T00:10:16.837Z</time>
      </trkpt>
      <trkpt lat="48.360566" lon="-1.030161">
        <ele>205.920600</ele>
        <time>2025-06-26T00:10:31.355Z</time>
      </trkpt>
      <trkpt lat="48.360355" lon="-1.030792">
        <ele>204.832825</ele>
        <time>2025-06-26T00:10:36.179Z</time>
      </trkpt>
      <trkpt lat="48.359890" lon="-1.032651">
        <ele>201.969825</ele>
        <time>2025-06-26T00:10:50.808Z</time>
      </trkpt>
      <trkpt lat="48.359296" lon="-1.036006">
        <ele>199.968304</ele>
        <time>2025-06-26T00:11:19.496Z</time>
      </trkpt>
      <trkpt lat="48.359136" lon="-1.036628">
        <ele>199.809465</ele>
        <time>2025-06-26T00:11:25.778Z</time>
      </trkpt>
      <trkpt lat="48.358852" lon="-1.037402">
        <ele>199.598903</ele>
        <time>2025-06-26T00:11:34.472Z</time>
      </trkpt>
      <trkpt lat="48.357667" lon="-1.040157">
        <ele>198.575509</ele>
        <time>2025-06-26T00:12:04.565Z</time>
      </trkpt>
      <trkpt lat="48.357429" lon="-1.041007">
        <ele>197.341396</ele>
        <time>2025-06-26T00:12:11.466Z</time>
      </trkpt>
      <trkpt lat="48.357364" lon="-1.041364">
        <ele>196.846135</ele>
        <time>2025-06-26T00:12:14.077Z</time>
      </trkpt>
      <trkpt lat="48.357244" lon="-1.042409">
        <ele>195.427233</ele>
        <time>2025-06-26T00:12:21.379Z</time>
      </trkpt>
      <trkpt lat="48.357087" lon="-1.043271">
        <ele>194.760436</ele>
        <time>2025-06-26T00:12:27.716Z</time>
      </trkpt>
      <trkpt lat="48.356590" lon="-1.045068">
        <ele>193.737084</ele>
        <time>2025-06-26T00:12:44.672Z</time>
      </trkpt>
      <trkpt lat="48.356492" lon="-1.045536">
        <ele>194.160806</ele>
        <time>2025-06-26T00:12:51.089Z</time>
      </trkpt>
      <trkpt lat="48.356462" lon="-1.045772">
        <ele>194.463594</ele>
        <time>2025-06-26T00:12:54.470Z</time>
      </trkpt>
      <trkpt lat="48.356442" lon="-1.046293">
        <ele>195.121227</ele>
        <time>2025-06-26T00:13:02.271Z</time>
      </trkpt>
      <trkpt lat="48.356465" lon="-1.046616">
        <ele>195.530585</ele>
        <time>2025-06-26T00:13:07.402Z</time>
      </trkpt>
      <trkpt lat="48.356590" lon="-1.047447">
        <ele>196.604263</ele>
        <time>2025-06-26T00:13:21.586Z</time>
      </trkpt>
      <trkpt lat="48.356748" lon="-1.048497">
        <ele>198.108064</ele>
        <time>2025-06-26T00:13:39.660Z</time>
      </trkpt>
      <trkpt lat="48.356785" lon="-1.048915">
        <ele>198.729315</ele>
        <time>2025-06-26T00:13:46.551Z</time>
      </trkpt>
      <trkpt lat="48.356803" lon="-1.049508">
        <ele>199.603852</ele>
        <time>2025-06-26T00:13:55.837Z</time>
      </trkpt>
      <trkpt lat="48.356741" lon="-1.050263">
        <ele>200.724605</ele>
        <time>2025-06-26T00:14:07.276Z</time>
      </trkpt>
      <trkpt lat="48.356664" lon="-1.050697">
        <ele>201.346967</ele>
        <time>2025-06-26T00:14:13.853Z</time>
      </trkpt>
      <trkpt lat="48.356162" lon="-1.052466">
        <ele>203.818013</ele>
        <time>2025-06-26T00:14:41.727Z</time>
      </trkpt>
      <trkpt lat="48.356052" lon="-1.052937">
        <ele>204.459356</ele>
        <time>2025-06-26T00:14:49.458Z</time>
      </trkpt>
      <trkpt lat="48.356029" lon="-1.053486">
        <ele>205.534105</ele>
        <time>2025-06-26T00:14:58.447Z</time>
      </trkpt>
      <trkpt lat="48.356064" lon="-1.053761">
        <ele>206.110729</ele>
        <time>2025-06-26T00:15:03.179Z</time>
      </trkpt>
      <trkpt lat="48.356254" lon="-1.054683">
        <ele>208.098681</ele>
        <time>2025-06-26T00:15:20.469Z</time>
      </trkpt>
      <trkpt lat="48.356560" lon="-1.055852">
        <ele>210.836566</ele>
        <time>2025-06-26T00:15:45.159Z</time>
      </trkpt>
      <trkpt lat="48.356879" lon="-1.056787">
        <ele>213.586445</ele>
        <time>2025-06-26T00:16:07.437Z</time>
      </trkpt>
      <trkpt lat="48.357243" lon="-1.057983">
        <ele>217.028164</ele>
        <time>2025-06-26T00:16:35.160Z</time>
      </trkpt>
      <trkpt lat="48.357447" lon="-1.058961">
        <ele>218.522441</ele>
        <time>2025-06-26T00:16:52.898Z</time>
      </trkpt>
      <trkpt lat="48.357589" lon="-1.059886">
        <ele>219.825513</ele>
        <time>2025-06-26T00:17:06.024Z</time>
      </trkpt>
      <trkpt lat="48.357680" lon="-1.060236">
        <ele>220.341378</ele>
        <time>2025-06-26T00:17:10.811Z</time>
      </trkpt>
      <trkpt lat="48.357839" lon="-1.060601">
        <ele>220.941896</ele>
        <time>2025-06-26T00:17:16.272Z</time>
      </trkpt>
      <trkpt lat="48.358534" lon="-1.061616">
        <ele>223.164388</ele>
        <time>2025-06-26T00:17:37.593Z</time>
      </trkpt>
      <trkpt lat="48.360368" lon="-1.064281">
        <ele>230.090077</ele>
        <time>2025-06-26T00:18:46.789Z</time>
      </trkpt>
      <trkpt lat="48.360434" lon="-1.064410">
        <ele>230.314007</ele>
        <time>2025-06-26T00:18:49.494Z</time>
      </trkpt>
      <trkpt lat="48.360483" lon="-1.064581">
        <ele>230.351781</ele>
        <time>2025-06-26T00:18:52.547Z</time>
      </trkpt>
      <trkpt lat="48.360499" lon="-1.064760">
        <ele>230.388416</ele>
        <time>2025-06-26T00:18:55.434Z</time>
      </trkpt>
      <trkpt lat="48.360455" lon="-1.065126">
        <ele>230.463861</ele>
        <time>2025-06-26T00:19:01.147Z</time>
      </trkpt>
      <trkpt lat="48.359965" lon="-1.066462">
        <ele>230.773400</ele>
        <time>2025-06-26T00:19:16.351Z</time>
      </trkpt>
      <trkpt lat="48.359501" lon="-1.067670">
        <ele>229.000673</ele>
        <time>2025-06-26T00:19:26.213Z</time>
      </trkpt>
      <trkpt lat="48.359293" lon="-1.068009">
        <ele>228.151321</ele>
        <time>2025-06-26T00:19:29.303Z</time>
      </trkpt>
      <trkpt lat="48.359199" lon="-1.068118">
        <ele>227.822588</ele>
        <time>2025-06-26T00:19:30.499Z</time>
      </trkpt>
      <trkpt lat="48.358590" lon="-1.068749">
        <ele>225.739623</ele>
        <time>2025-06-26T00:19:37.990Z</time>
      </trkpt>
      <trkpt lat="48.358196" lon="-1.069069">
        <ele>224.047780</ele>
        <time>2025-06-26T00:19:42.558Z</time>
      </trkpt>
      <trkpt lat="48.358142" lon="-1.069108">
        <ele>223.821441</ele>
        <time>2025-06-26T00:19:43.171Z</time>
      </trkpt>
      <trkpt lat="48.355798" lon="-1.070794">
        <ele>212.920122</ele>
        <time>2025-06-26T00:20:08.458Z</time>
      </trkpt>
      <trkpt lat="48.355521" lon="-1.071114">
        <ele>211.318323</ele>
        <time>2025-06-26T00:20:11.708Z</time>
      </trkpt>
      <trkpt lat="48.355323" lon="-1.071484">
        <ele>209.584504</ele>
        <time>2025-06-26T00:20:14.613Z</time>
      </trkpt>
      <trkpt lat="48.354892" lon="-1.072376">
        <ele>205.213906</ele>
        <time>2025-06-26T00:20:21.271Z</time>
      </trkpt>
      <trkpt lat="48.354745" lon="-1.072763">
        <ele>203.447382</ele>
        <time>2025-06-26T00:20:23.966Z</time>
      </trkpt>
      <trkpt lat="48.354651" lon="-1.073283">
        <ele>201.311769</ele>
        <time>2025-06-26T00:20:27.261Z</time>
      </trkpt>
      <trkpt lat="48.354541" lon="-1.074236">
        <ele>198.088955</ele>
        <time>2025-06-26T00:20:33.243Z</time>
      </trkpt>
      <trkpt lat="48.354506" lon="-1.074717">
        <ele>196.618557</ele>
        <time>2025-06-26T00:20:36.274Z</time>
      </trkpt>
      <trkpt lat="48.354546" lon="-1.076258">
        <ele>191.932202</ele>
        <time>2025-06-26T00:20:46.250Z</time>
      </trkpt>
      <trkpt lat="48.354557" lon="-1.076841">
        <ele>190.451933</ele>
        <time>2025-06-26T00:20:50.124Z</time>
      </trkpt>
      <trkpt lat="48.354530" lon="-1.077276">
        <ele>189.350898</ele>
        <time>2025-06-26T00:20:53.019Z</time>
      </trkpt>
      <trkpt lat="48.354484" lon="-1.077532">
        <ele>188.682571</ele>
        <time>2025-06-26T00:20:54.766Z</time>
      </trkpt>
      <trkpt lat="48.354403" lon="-1.077799">
        <ele>187.942887</ele>
        <time>2025-06-26T00:20:56.703Z</time>
      </trkpt>
      <trkpt lat="48.354211" lon="-1.078141">
        <ele>186.814588</ele>
        <time>2025-06-26T00:20:59.641Z</time>
      </trkpt>
      <trkpt lat="48.353270" lon="-1.079096">
        <ele>182.319589</ele>
        <time>2025-06-26T00:21:10.694Z</time>
      </trkpt>
      <trkpt lat="48.353134" lon="-1.079355">
        <ele>181.425247</ele>
        <time>2025-06-26T00:21:12.813Z</time>
      </trkpt>
      <trkpt lat="48.353066" lon="-1.079667">
        <ele>180.535633</ele>
        <time>2025-06-26T00:21:14.933Z</time>
      </trkpt>
      <trkpt lat="48.353054" lon="-1.079854">
        <ele>180.026630</ele>
        <time>2025-06-26T00:21:16.150Z</time>
      </trkpt>
      <trkpt lat="48.353054" lon="-1.081494">
        <ele>175.506610</ele>
        <time>2025-06-26T00:21:26.805Z</time>
      </trkpt>
      <trkpt lat="48.353000" lon="-1.081945">
        <ele>174.220382</ele>
        <time>2025-06-26T00:21:29.786Z</time>
      </trkpt>
      <trkpt lat="48.352849" lon="-1.082537">
        <ele>172.440589</ele>
        <time>2025-06-26T00:21:33.871Z</time>
      </trkpt>
      <trkpt lat="48.352777" lon="-1.082715">
        <ele>171.855712</ele>
        <time>2025-06-26T00:21:35.205Z</time>
      </trkpt>
      <trkpt lat="48.352604" lon="-1.083009">
        <ele>170.753514</ele>
        <time>2025-06-26T00:21:37.714Z</time>
      </trkpt>
      <trkpt lat="48.352470" lon="-1.083137">
        <ele>170.072130</ele>
        <time>2025-06-26T00:21:39.231Z</time>
      </trkpt>
      <trkpt lat="48.351795" lon="-1.083619">
        <ele>165.972108</ele>
        <time>2025-06-26T00:21:46.299Z</time>
      </trkpt>
      <trkpt lat="48.351642" lon="-1.083756">
        <ele>164.995102</ele>
        <time>2025-06-26T00:21:47.949Z</time>
      </trkpt>
      <trkpt lat="48.351427" lon="-1.084027">
        <ele>163.456039</ele>
        <time>2025-06-26T00:21:50.546Z</time>
      </trkpt>
      <trkpt lat="48.351332" lon="-1.084298">
        <ele>162.338678</ele>
        <time>2025-06-26T00:21:52.417Z</time>
      </trkpt>
      <trkpt lat="48.351323" lon="-1.084448">
        <ele>161.789427</ele>
        <time>2025-06-26T00:21:53.333Z</time>
      </trkpt>
      <trkpt lat="48.351421" lon="-1.085367">
        <ele>158.231643</ele>
        <time>2025-06-26T00:21:58.957Z</time>
      </trkpt>
      <trkpt lat="48.351424" lon="-1.085623">
        <ele>157.215608</ele>
        <time>2025-06-26T00:22:00.499Z</time>
      </trkpt>
      <trkpt lat="48.351387" lon="-1.086045">
        <ele>155.526487</ele>
        <time>2025-06-26T00:22:03.065Z</time>
      </trkpt>
      <trkpt lat="48.351283" lon="-1.086435">
        <ele>153.858913</ele>
        <time>2025-06-26T00:22:05.601Z</time>
      </trkpt>
      <trkpt lat="48.350571" lon="-1.087888">
        <ele>147.364383</ele>
        <time>2025-06-26T00:22:16.788Z</time>
      </trkpt>
      <trkpt lat="48.350397" lon="-1.088141">
        <ele>146.263180</ele>
        <time>2025-06-26T00:22:19.105Z</time>
      </trkpt>
      <trkpt lat="48.350090" lon="-1.088475">
        <ele>144.539036</ele>
        <time>2025-06-26T00:22:22.751Z</time>
      </trkpt>
      <trkpt lat="48.347694" lon="-1.090095">
        <ele>133.786967</ele>
        <time>2025-06-26T00:22:48.331Z</time>
      </trkpt>
      <trkpt lat="48.347378" lon="-1.090351">
        <ele>132.824727</ele>
        <time>2025-06-26T00:22:51.936Z</time>
      </trkpt>
      <trkpt lat="48.347233" lon="-1.090517">
        <ele>132.336224</ele>
        <time>2025-06-26T00:22:53.788Z</time>
      </trkpt>
      <trkpt lat="48.347070" lon="-1.090800">
        <ele>131.668920</ele>
        <time>2025-06-26T00:22:56.358Z</time>
      </trkpt>
      <trkpt lat="48.346984" lon="-1.091042">
        <ele>131.179918</ele>
        <time>2025-06-26T00:22:58.268Z</time>
      </trkpt>
      <trkpt lat="48.346585" lon="-1.092481">
        <ele>128.947801</ele>
        <time>2025-06-26T00:23:09.794Z</time>
      </trkpt>
      <trkpt lat="48.346216" lon="-1.093851">
        <ele>127.931976</ele>
        <time>2025-06-26T00:23:21.806Z</time>
      </trkpt>
      <trkpt lat="48.346152" lon="-1.094209">
        <ele>127.677216</ele>
        <time>2025-06-26T00:23:24.993Z</time>
      </trkpt>
      <trkpt lat="48.346118" lon="-1.094750">
        <ele>127.540608</ele>
        <time>2025-06-26T00:23:29.678Z</time>
      </trkpt>
      <trkpt lat="48.346134" lon="-1.095262">
        <ele>127.844076</ele>
        <time>2025-06-26T00:23:34.705Z</time>
      </trkpt>
      <trkpt lat="48.346190" lon="-1.095616">
        <ele>128.059519</ele>
        <time>2025-06-26T00:23:38.771Z</time>
      </trkpt>
      <trkpt lat="48.346304" lon="-1.095992">
        <ele>128.304201</ele>
        <time>2025-06-26T00:23:43.815Z</time>
      </trkpt>
      <trkpt lat="48.347022" lon="-1.098132">
        <ele>128.972960</ele>
        <time>2025-06-26T00:24:18.750Z</time>
      </trkpt>
      <trkpt lat="48.347161" lon="-1.098577">
        <ele>128.947533</ele>
        <time>2025-06-26T00:24:24.026Z</time>
      </trkpt>
      <trkpt lat="48.347433" lon="-1.099480">
        <ele>128.896265</ele>
        <time>2025-06-26T00:24:31.598Z</time>
      </trkpt>
      <trkpt lat="48.347505" lon="-1.099741">
        <ele>128.231754</ele>
        <time>2025-06-26T00:24:33.528Z</time>
      </trkpt>
      <trkpt lat="48.347572" lon="-1.099980">
        <ele>127.469935</ele>
        <time>2025-06-26T00:24:35.240Z</time>
      </trkpt>
      <trkpt lat="48.347899" lon="-1.101185">
        <ele>123.647280</ele>
        <time>2025-06-26T00:24:43.587Z</time>
      </trkpt>
      <trkpt lat="48.347958" lon="-1.101203">
        <ele>123.381251</ele>
        <time>2025-06-26T00:24:44.141Z</time>
      </trkpt>
      <trkpt lat="48.348013" lon="-1.101394">
        <ele>122.769908</ele>
        <time>2025-06-26T00:24:45.421Z</time>
      </trkpt>
      <trkpt lat="48.348071" lon="-1.101546">
        <ele>122.255151</ele>
        <time>2025-06-26T00:24:46.499Z</time>
      </trkpt>
      <trkpt lat="48.348049" lon="-1.101593">
        <ele>122.086316</ele>
        <time>2025-06-26T00:24:46.852Z</time>
      </trkpt>
      <trkpt lat="48.348068" lon="-1.101772">
        <ele>121.553945</ele>
        <time>2025-06-26T00:24:47.963Z</time>
      </trkpt>
      <trkpt lat="48.348191" lon="-1.102254">
        <ele>120.049825</ele>
        <time>2025-06-26T00:24:51.107Z</time>
      </trkpt>
      <trkpt lat="48.348239" lon="-1.102437">
        <ele>119.479820</ele>
        <time>2025-06-26T00:24:52.302Z</time>
      </trkpt>
      <trkpt lat="48.348368" lon="-1.103274">
        <ele>116.990430</ele>
        <time>2025-06-26T00:24:57.504Z</time>
      </trkpt>
      <trkpt lat="48.348590" lon="-1.104652">
        <ele>113.207493</ele>
        <time>2025-06-26T00:25:06.784Z</time>
      </trkpt>
      <trkpt lat="48.348771" lon="-1.105701">
        <ele>114.675574</ele>
        <time>2025-06-26T00:25:22.030Z</time>
      </trkpt>
      <trkpt lat="48.348965" lon="-1.106766">
        <ele>116.171423</ele>
        <time>2025-06-26T00:25:45.506Z</time>
      </trkpt>
      <trkpt lat="48.349282" lon="-1.108363">
        <ele>117.003557</ele>
        <time>2025-06-26T00:26:14.414Z</time>
      </trkpt>
      <trkpt lat="48.349458" lon="-1.109021">
        <ele>117.138835</ele>
        <time>2025-06-26T00:26:20.676Z</time>
      </trkpt>
      <trkpt lat="48.350230" lon="-1.111564">
        <ele>113.257502</ele>
        <time>2025-06-26T00:26:39.615Z</time>
      </trkpt>
      <trkpt lat="48.350366" lon="-1.112305">
        <ele>111.810717</ele>
        <time>2025-06-26T00:26:44.660Z</time>
      </trkpt>
      <trkpt lat="48.350738" lon="-1.114885">
        <ele>109.158374</ele>
        <time>2025-06-26T00:27:04.574Z</time>
      </trkpt>
      <trkpt lat="48.350914" lon="-1.116146">
        <ele>109.734447</ele>
        <time>2025-06-26T00:27:21.817Z</time>
      </trkpt>
      <trkpt lat="48.350929" lon="-1.116276">
        <ele>109.793437</ele>
        <time>2025-06-26T00:27:23.685Z</time>
      </trkpt>
      <trkpt lat="48.351119" lon="-1.117607">
        <ele>110.304329</ele>
        <time>2025-06-26T00:27:41.337Z</time>
      </trkpt>
      <trkpt lat="48.351188" lon="-1.118239">
        <ele>109.929413</ele>
        <time>2025-06-26T00:27:46.905Z</time>
      </trkpt>
      <trkpt lat="48.351213" lon="-1.118846">
        <ele>109.573409</ele>
        <time>2025-06-26T00:27:51.784Z</time>
      </trkpt>
      <trkpt lat="48.350997" lon="-1.121277">
        <ele>108.822168</ele>
        <time>2025-06-26T00:28:10.553Z</time>
      </trkpt>
      <trkpt lat="48.350977" lon="-1.121676">
        <ele>108.839334</ele>
        <time>2025-06-26T00:28:14.262Z</time>
      </trkpt>
      <trkpt lat="48.350984" lon="-1.122265">
        <ele>108.864606</ele>
        <time>2025-06-26T00:28:20.869Z</time>
      </trkpt>
      <trkpt lat="48.351030" lon="-1.122676">
        <ele>108.882487</ele>
        <time>2025-06-26T00:28:26.580Z</time>
      </trkpt>
      <trkpt lat="48.351189" lon="-1.123541">
        <ele>110.329282</ele>
        <time>2025-06-26T00:28:41.628Z</time>
      </trkpt>
      <trkpt lat="48.351719" lon="-1.125729">
        <ele>115.060822</ele>
        <time>2025-06-26T00:29:27.678Z</time>
      </trkpt>
      <trkpt lat="48.352294" lon="-1.128531">
        <ele>118.997885</ele>
        <time>2025-06-26T00:30:14.374Z</time>
      </trkpt>
      <trkpt lat="48.352620" lon="-1.130871">
        <ele>119.073678</ele>
        <time>2025-06-26T00:30:35.384Z</time>
      </trkpt>
      <trkpt lat="48.352902" lon="-1.132206">
        <ele>118.265051</ele>
        <time>2025-06-26T00:30:46.804Z</time>
      </trkpt>
      <trkpt lat="48.352981" lon="-1.132558">
        <ele>118.050584</ele>
        <time>2025-06-26T00:30:49.770Z</time>
      </trkpt>
      <trkpt lat="48.353355" lon="-1.133872">
        <ele>117.700192</ele>
        <time>2025-06-26T00:31:01.446Z</time>
      </trkpt>
      <trkpt lat="48.354291" lon="-1.137740">
        <ele>117.878148</ele>
        <time>2025-06-26T00:31:48.632Z</time>
      </trkpt>
      <trkpt lat="48.354330" lon="-1.138105">
        <ele>117.878800</ele>
        <time>2025-06-26T00:31:51.758Z</time>
      </trkpt>
      <trkpt lat="48.354451" lon="-1.139982">
        <ele>115.675690</ele>
        <time>2025-06-26T00:32:05.321Z</time>
      </trkpt>
      <trkpt lat="48.354486" lon="-1.140235">
        <ele>115.335311</ele>
        <time>2025-06-26T00:32:07.104Z</time>
      </trkpt>
      <trkpt lat="48.354689" lon="-1.141208">
        <ele>114.198028</ele>
        <time>2025-06-26T00:32:14.385Z</time>
      </trkpt>
      <trkpt lat="48.354799" lon="-1.141765">
        <ele>113.922128</ele>
        <time>2025-06-26T00:32:18.736Z</time>
      </trkpt>
      <trkpt lat="48.355083" lon="-1.143639">
        <ele>113.068634</ele>
        <time>2025-06-26T00:32:36.310Z</time>
      </trkpt>
      <trkpt lat="48.355149" lon="-1.144196">
        <ele>113.615917</ele>
        <time>2025-06-26T00:32:43.274Z</time>
      </trkpt>
      <trkpt lat="48.355170" lon="-1.144715">
        <ele>114.118873</ele>
        <time>2025-06-26T00:32:50.553Z</time>
      </trkpt>
      <trkpt lat="48.355183" lon="-1.145103">
        <ele>114.494660</ele>
        <time>2025-06-26T00:32:56.396Z</time>
      </trkpt>
      <trkpt lat="48.355103" lon="-1.146692">
        <ele>115.710483</ele>
        <time>2025-06-26T00:33:20.877Z</time>
      </trkpt>
      <trkpt lat="48.355111" lon="-1.147345">
        <ele>115.813337</ele>
        <time>2025-06-26T00:33:29.604Z</time>
      </trkpt>
      <trkpt lat="48.355216" lon="-1.149570">
        <ele>114.293742</ele>
        <time>2025-06-26T00:33:49.108Z</time>
      </trkpt>
      <trkpt lat="48.355210" lon="-1.149910">
        <ele>113.248469</ele>
        <time>2025-06-26T00:33:51.379Z</time>
      </trkpt>
      <trkpt lat="48.355175" lon="-1.150241">
        <ele>112.218424</ele>
        <time>2025-06-26T00:33:53.539Z</time>
      </trkpt>
      <trkpt lat="48.355046" lon="-1.150937">
        <ele>109.997793</ele>
        <time>2025-06-26T00:33:57.978Z</time>
      </trkpt>
      <trkpt lat="48.354861" lon="-1.151513">
        <ele>108.031666</ele>
        <time>2025-06-26T00:34:01.753Z</time>
      </trkpt>
      <trkpt lat="48.354384" lon="-1.152968">
        <ele>101.424866</ele>
        <time>2025-06-26T00:34:11.261Z</time>
      </trkpt>
      <trkpt lat="48.354234" lon="-1.153724">
        <ele>98.165697</ele>
        <time>2025-06-26T00:34:16.112Z</time>
      </trkpt>
      <trkpt lat="48.354184" lon="-1.154319">
        <ele>96.603049</ele>
        <time>2025-06-26T00:34:20.136Z</time>
      </trkpt>
      <trkpt lat="48.354188" lon="-1.154921">
        <ele>96.684326</ele>
        <time>2025-06-26T00:34:25.052Z</time>
      </trkpt>
      <trkpt lat="48.354230" lon="-1.155417">
        <ele>96.751830</ele>
        <time>2025-06-26T00:34:30.614Z</time>
      </trkpt>
      <trkpt lat="48.354400" lon="-1.156353">
        <ele>96.882829</ele>
        <time>2025-06-26T00:34:44.766Z</time>
      </trkpt>
      <trkpt lat="48.354425" lon="-1.156446">
        <ele>96.896372</ele>
        <time>2025-06-26T00:34:46.443Z</time>
      </trkpt>
      <trkpt lat="48.354916" lon="-1.158788">
        <ele>98.632462</ele>
        <time>2025-06-26T00:35:23.872Z</time>
      </trkpt>
      <trkpt lat="48.355019" lon="-1.159389">
        <ele>98.996362</ele>
        <time>2025-06-26T00:35:29.340Z</time>
      </trkpt>
      <trkpt lat="48.355087" lon="-1.160181">
        <ele>97.594814</ele>
        <time>2025-06-26T00:35:35.200Z</time>
      </trkpt>
      <trkpt lat="48.355055" lon="-1.161375">
        <ele>95.497590</ele>
        <time>2025-06-26T00:35:43.144Z</time>
      </trkpt>
      <trkpt lat="48.354955" lon="-1.162334">
        <ele>93.867736</ele>
        <time>2025-06-26T00:35:49.562Z</time>
      </trkpt>
      <trkpt lat="48.354885" lon="-1.162786">
        <ele>93.164517</ele>
        <time>2025-06-26T00:35:52.736Z</time>
      </trkpt>
      <trkpt lat="48.354778" lon="-1.163384">
        <ele>92.226160</ele>
        <time>2025-06-26T00:35:57.079Z</time>
      </trkpt>
      <trkpt lat="48.354599" lon="-1.164114">
        <ele>91.047165</ele>
        <time>2025-06-26T00:36:02.775Z</time>
      </trkpt>
      <trkpt lat="48.354181" lon="-1.165892">
        <ele>89.931592</ele>
        <time>2025-06-26T00:36:17.760Z</time>
      </trkpt>
      <trkpt lat="48.353858" lon="-1.167536">
        <ele>90.141681</ele>
        <time>2025-06-26T00:36:35.839Z</time>
      </trkpt>
      <trkpt lat="48.353034" lon="-1.172565">
        <ele>98.507664</ele>
        <time>2025-06-26T00:38:03.202Z</time>
      </trkpt>
      <trkpt lat="48.352982" lon="-1.172892">
        <ele>99.165418</ele>
        <time>2025-06-26T00:38:08.864Z</time>
      </trkpt>
      <trkpt lat="48.352954" lon="-1.173283">
        <ele>99.934741</ele>
        <time>2025-06-26T00:38:15.418Z</time>
      </trkpt>
      <trkpt lat="48.352960" lon="-1.173498">
        <ele>100.355705</ele>
        <time>2025-06-26T00:38:19.040Z</time>
      </trkpt>
      <trkpt lat="48.353037" lon="-1.173625">
        <ele>100.692014</ele>
        <time>2025-06-26T00:38:21.965Z</time>
      </trkpt>
      <trkpt lat="48.353061" lon="-1.173793">
        <ele>101.028172</ele>
        <time>2025-06-26T00:38:24.904Z</time>
      </trkpt>
      <trkpt lat="48.353191" lon="-1.173943">
        <ele>101.510414</ele>
        <time>2025-06-26T00:38:29.142Z</time>
      </trkpt>
      <trkpt lat="48.353488" lon="-1.174180">
        <ele>102.500035</ele>
        <time>2025-06-26T00:38:37.918Z</time>
      </trkpt>
      <trkpt lat="48.355592" lon="-1.175409">
        <ele>111.266504</ele>
        <time>2025-06-26T00:39:45.635Z</time>
      </trkpt>
      <trkpt lat="48.355966" lon="-1.175588">
        <ele>113.323766</ele>
        <time>2025-06-26T00:40:00.963Z</time>
      </trkpt>
      <trkpt lat="48.356288" lon="-1.175666">
        <ele>115.033411</ele>
        <time>2025-06-26T00:40:14.379Z</time>
      </trkpt>
      <trkpt lat="48.356864" lon="-1.175681">
        <ele>118.053243</ele>
        <time>2025-06-26T00:40:37.595Z</time>
      </trkpt>
      <trkpt lat="48.357182" lon="-1.175625">
        <ele>119.731566</ele>
        <time>2025-06-26T00:40:49.224Z</time>
      </trkpt>
      <trkpt lat="48.357514" lon="-1.175516">
        <ele>120.236451</ele>
        <time>2025-06-26T00:40:59.969Z</time>
      </trkpt>
      <trkpt lat="48.358536" lon="-1.175024">
        <ele>120.456663</ele>
        <time>2025-06-26T00:41:15.907Z</time>
      </trkpt>
      <trkpt lat="48.358705" lon="-1.174835">
        <ele>120.499874</ele>
        <time>2025-06-26T00:41:18.051Z</time>
      </trkpt>
      <trkpt lat="48.358815" lon="-1.174569">
        <ele>120.542599</ele>
        <time>2025-06-26T00:41:20.142Z</time>
      </trkpt>
      <trkpt lat="48.358908" lon="-1.174431">
        <ele>120.586515</ele>
        <time>2025-06-26T00:41:21.456Z</time>
      </trkpt>
      <trkpt lat="48.358987" lon="-1.174315">
        <ele>120.633656</ele>
        <time>2025-06-26T00:41:22.577Z</time>
      </trkpt>
      <trkpt lat="48.359569" lon="-1.173896">
        <ele>120.909214</ele>
        <time>2025-06-26T00:41:29.871Z</time>
      </trkpt>
      <trkpt lat="48.359706" lon="-1.173798">
        <ele>120.974002</ele>
        <time>2025-06-26T00:41:32.349Z</time>
      </trkpt>
      <trkpt lat="48.359836" lon="-1.173796">
        <ele>121.029530</ele>
        <time>2025-06-26T00:41:34.769Z</time>
      </trkpt>
      <trkpt lat="48.359953" lon="-1.173903">
        <ele>121.088005</ele>
        <time>2025-06-26T00:41:37.687Z</time>
      </trkpt>
      <trkpt lat="48.360129" lon="-1.174567">
        <ele>121.290886</ele>
        <time>2025-06-26T00:41:49.682Z</time>
      </trkpt>
      <trkpt lat="48.360134" lon="-1.174779">
        <ele>121.657128</ele>
        <time>2025-06-26T00:41:53.906Z</time>
      </trkpt>
      <trkpt lat="48.360061" lon="-1.174978">
        <ele>122.395741</ele>
        <time>2025-06-26T00:41:58.712Z</time>
      </trkpt>
      <trkpt lat="48.359771" lon="-1.175511">
        <ele>124.634191</ele>
        <time>2025-06-26T00:42:17.107Z</time>
      </trkpt>
      <trkpt lat="48.359616" lon="-1.175797">
        <ele>125.833427</ele>
        <time>2025-06-26T00:42:26.769Z</time>
      </trkpt>
      <trkpt lat="48.359653" lon="-1.175838">
        <ele>126.058121</ele>
        <time>2025-06-26T00:42:28.567Z</time>
      </trkpt>
      <trkpt lat="48.359690" lon="-1.175961">
        <ele>126.496840</ele>
        <time>2025-06-26T00:42:32.047Z</time>
      </trkpt>
      <trkpt lat="48.359687" lon="-1.176030">
        <ele>126.721524</ele>
        <time>2025-06-26T00:42:33.711Z</time>
      </trkpt>
      <trkpt lat="48.359638" lon="-1.176144">
        <ele>127.162697</ele>
        <time>2025-06-26T00:42:37.092Z</time>
      </trkpt>
      <trkpt lat="48.359553" lon="-1.176188">
        <ele>127.602269</ele>
        <time>2025-06-26T00:42:40.295Z</time>
      </trkpt>
      <trkpt lat="48.359509" lon="-1.176537">
        <ele>128.756525</ele>
        <time>2025-06-26T00:42:48.569Z</time>
      </trkpt>
      <trkpt lat="48.359334" lon="-1.178947">
        <ele>133.332755</ele>
        <time>2025-06-26T00:43:36.700Z</time>
      </trkpt>
      <trkpt lat="48.359274" lon="-1.179279">
        <ele>133.884350</ele>
        <time>2025-06-26T00:43:40.078Z</time>
      </trkpt>
      <trkpt lat="48.359194" lon="-1.179500">
        <ele>134.287822</ele>
        <time>2025-06-26T00:43:42.269Z</time>
      </trkpt>
      <trkpt lat="48.359071" lon="-1.179685">
        <ele>134.068471</ele>
        <time>2025-06-26T00:43:44.367Z</time>
      </trkpt>
      <trkpt lat="48.358842" lon="-1.180016">
        <ele>132.877012</ele>
        <time>2025-06-26T00:43:47.815Z</time>
      </trkpt>
      <trkpt lat="48.358789" lon="-1.180136">
        <ele>132.517736</ele>
        <time>2025-06-26T00:43:48.788Z</time>
      </trkpt>
      <trkpt lat="48.358780" lon="-1.180301">
        <ele>132.104942</ele>
        <time>2025-06-26T00:43:49.884Z</time>
      </trkpt>
      <trkpt lat="48.358908" lon="-1.180953">
        <ele>130.409776</ele>
        <time>2025-06-26T00:43:54.192Z</time>
      </trkpt>
      <trkpt lat="48.359066" lon="-1.181578">
        <ele>128.742433</ele>
        <time>2025-06-26T00:43:58.331Z</time>
      </trkpt>
      <trkpt lat="48.359083" lon="-1.181720">
        <ele>128.382672</ele>
        <time>2025-06-26T00:43:59.231Z</time>
      </trkpt>
      <trkpt lat="48.359044" lon="-1.181831">
        <ele>128.069596</ele>
        <time>2025-06-26T00:44:00.024Z</time>
      </trkpt>
      <trkpt lat="48.358922" lon="-1.181951">
        <ele>127.456394</ele>
        <time>2025-06-26T00:44:01.403Z</time>
      </trkpt>
      <trkpt lat="48.358320" lon="-1.182537">
        <ele>123.803355</ele>
        <time>2025-06-26T00:44:08.091Z</time>
      </trkpt>
      <trkpt lat="48.357964" lon="-1.182885">
        <ele>121.640388</ele>
        <time>2025-06-26T00:44:12.039Z</time>
      </trkpt>
      <trkpt lat="48.356922" lon="-1.183928">
        <ele>116.841859</ele>
        <time>2025-06-26T00:44:23.964Z</time>
      </trkpt>
      <trkpt lat="48.356603" lon="-1.184334">
        <ele>115.737343</ele>
        <time>2025-06-26T00:44:28.347Z</time>
      </trkpt>
      <trkpt lat="48.356505" lon="-1.184581">
        <ele>115.231961</ele>
        <time>2025-06-26T00:44:30.509Z</time>
      </trkpt>
      <trkpt lat="48.356424" lon="-1.184911">
        <ele>114.613946</ele>
        <time>2025-06-26T00:44:33.290Z</time>
      </trkpt>
      <trkpt lat="48.356392" lon="-1.185339">
        <ele>113.857310</ele>
        <time>2025-06-26T00:44:36.860Z</time>
      </trkpt>
      <trkpt lat="48.356389" lon="-1.185953">
        <ele>113.666743</ele>
        <time>2025-06-26T00:44:42.615Z</time>
      </trkpt>
      <trkpt lat="48.356361" lon="-1.186296">
        <ele>113.593668</ele>
        <time>2025-06-26T00:44:46.120Z</time>
      </trkpt>
      <trkpt lat="48.356344" lon="-1.186346">
        <ele>113.581792</ele>
        <time>2025-06-26T00:44:46.719Z</time>
      </trkpt>
      <trkpt lat="48.356303" lon="-1.186464">
        <ele>113.553634</ele>
        <time>2025-06-26T00:44:48.113Z</time>
      </trkpt>
      <trkpt lat="48.356266" lon="-1.186583">
        <ele>113.525852</ele>
        <time>2025-06-26T00:44:49.478Z</time>
      </trkpt>
      <trkpt lat="48.356296" lon="-1.186631">
        <ele>113.511918</ele>
        <time>2025-06-26T00:44:50.177Z</time>
      </trkpt>
      <trkpt lat="48.356314" lon="-1.186707">
        <ele>113.494857</ele>
        <time>2025-06-26T00:44:50.983Z</time>
      </trkpt>
      <trkpt lat="48.356417" lon="-1.186772">
        <ele>113.459315</ele>
        <time>2025-06-26T00:44:52.692Z</time>
      </trkpt>
      <trkpt lat="48.357264" lon="-1.186923">
        <ele>113.242185</ele>
        <time>2025-06-26T00:45:04.092Z</time>
      </trkpt>
      <trkpt lat="48.357366" lon="-1.186942">
        <ele>113.272878</ele>
        <time>2025-06-26T00:45:05.433Z</time>
      </trkpt>
      <trkpt lat="48.357962" lon="-1.187070">
        <ele>113.452665</ele>
        <time>2025-06-26T00:45:13.431Z</time>
      </trkpt>
      <trkpt lat="48.358638" lon="-1.187178">
        <ele>113.655673</ele>
        <time>2025-06-26T00:45:24.469Z</time>
      </trkpt>
      <trkpt lat="48.358913" lon="-1.187182">
        <ele>113.737800</ele>
        <time>2025-06-26T00:45:29.875Z</time>
      </trkpt>
      <trkpt lat="48.359139" lon="-1.187143">
        <ele>114.220430</ele>
        <time>2025-06-26T00:45:34.766Z</time>
      </trkpt>
      <trkpt lat="48.359368" lon="-1.187038">
        <ele>114.854464</ele>
        <time>2025-06-26T00:45:40.196Z</time>
      </trkpt>
      <trkpt lat="48.359402" lon="-1.187268">
        <ele>115.269119</ele>
        <time>2025-06-26T00:45:44.869Z</time>
      </trkpt>
      <trkpt lat="48.359197" lon="-1.187653">
        <ele>116.137360</ele>
        <time>2025-06-26T00:45:55.324Z</time>
      </trkpt>
      <trkpt lat="48.359108" lon="-1.187880">
        <ele>116.601201</ele>
        <time>2025-06-26T00:46:01.239Z</time>
      </trkpt>
      <trkpt lat="48.358987" lon="-1.188394">
        <ele>117.560848</ele>
        <time>2025-06-26T00:46:13.603Z</time>
      </trkpt>
      <trkpt lat="48.358742" lon="-1.190346">
        <ele>122.256478</ele>
        <time>2025-06-26T00:46:56.195Z</time>
      </trkpt>
      <trkpt lat="48.358750" lon="-1.190446">
        <ele>122.517452</ele>
        <time>2025-06-26T00:46:58.632Z</time>
      </trkpt>
      <trkpt lat="48.358700" lon="-1.190491">
        <ele>122.744627</ele>
        <time>2025-06-26T00:47:00.594Z</time>
      </trkpt>
      <trkpt lat="48.358553" lon="-1.191094">
        <ele>124.408853</ele>
        <time>2025-06-26T00:47:16.896Z</time>
      </trkpt>
      <trkpt lat="48.358319" lon="-1.192223">
        <ele>127.858373</ele>
        <time>2025-06-26T00:47:50.064Z</time>
      </trkpt>
      <trkpt lat="48.358160" lon="-1.192728">
        <ele>129.593430</ele>
        <time>2025-06-26T00:48:06.989Z</time>
      </trkpt>
      <trkpt lat="48.357758" lon="-1.193814">
        <ele>133.453216</ele>
        <time>2025-06-26T00:48:39.800Z</time>
      </trkpt>
      <trkpt lat="48.357885" lon="-1.193943">
        <ele>133.884987</ele>
        <time>2025-06-26T00:48:43.520Z</time>
      </trkpt>
      <trkpt lat="48.357753" lon="-1.194233">
        <ele>133.652620</ele>
        <time>2025-06-26T00:48:47.932Z</time>
      </trkpt>
      <trkpt lat="48.357683" lon="-1.194456">
        <ele>133.489586</ele>
        <time>2025-06-26T00:48:50.592Z</time>
      </trkpt>
      <trkpt lat="48.357635" lon="-1.194637">
        <ele>133.360759</ele>
        <time>2025-06-26T00:48:52.554Z</time>
      </trkpt>
      <trkpt lat="48.357495" lon="-1.195205">
        <ele>132.960285</ele>
        <time>2025-06-26T00:48:57.470Z</time>
      </trkpt>
      <trkpt lat="48.357412" lon="-1.195553">
        <ele>132.715869</ele>
        <time>2025-06-26T00:49:00.041Z</time>
      </trkpt>
      <trkpt lat="48.357240" lon="-1.196291">
        <ele>132.198876</ele>
        <time>2025-06-26T00:49:05.261Z</time>
      </trkpt>
      <trkpt lat="48.357040" lon="-1.197131">
        <ele>130.826269</ele>
        <time>2025-06-26T00:49:11.199Z</time>
      </trkpt>
      <trkpt lat="48.356965" lon="-1.197712">
        <ele>129.864173</ele>
        <time>2025-06-26T00:49:15.319Z</time>
      </trkpt>
      <trkpt lat="48.356977" lon="-1.197756">
        <ele>129.786859</ele>
        <time>2025-06-26T00:49:15.654Z</time>
      </trkpt>
      <trkpt lat="48.356973" lon="-1.197850">
        <ele>129.633745</ele>
        <time>2025-06-26T00:49:16.312Z</time>
      </trkpt>
      <trkpt lat="48.356937" lon="-1.197922">
        <ele>129.487273</ele>
        <time>2025-06-26T00:49:16.936Z</time>
      </trkpt>
      <trkpt lat="48.356855" lon="-1.197952">
        <ele>129.280833</ele>
        <time>2025-06-26T00:49:17.831Z</time>
      </trkpt>
      <trkpt lat="48.356807" lon="-1.198063">
        <ele>129.065554</ele>
        <time>2025-06-26T00:49:18.778Z</time>
      </trkpt>
      <trkpt lat="48.356628" lon="-1.198692">
        <ele>127.953261</ele>
        <time>2025-06-26T00:49:23.854Z</time>
      </trkpt>
      <trkpt lat="48.356349" lon="-1.199815">
        <ele>127.505211</ele>
        <time>2025-06-26T00:49:33.446Z</time>
      </trkpt>
      <trkpt lat="48.356280" lon="-1.200030">
        <ele>127.451652</ele>
        <time>2025-06-26T00:49:35.608Z</time>
      </trkpt>
      <trkpt lat="48.356105" lon="-1.200360">
        <ele>127.356944</ele>
        <time>2025-06-26T00:49:39.796Z</time>
      </trkpt>
      <trkpt lat="48.356035" lon="-1.200441">
        <ele>127.327136</ele>
        <time>2025-06-26T00:49:41.116Z</time>
      </trkpt>
      <trkpt lat="48.355769" lon="-1.200742">
        <ele>127.214788</ele>
        <time>2025-06-26T00:49:46.244Z</time>
      </trkpt>
      <trkpt lat="48.355552" lon="-1.200989">
        <ele>127.235930</ele>
        <time>2025-06-26T00:49:50.784Z</time>
      </trkpt>
      <trkpt lat="48.355301" lon="-1.201296">
        <ele>127.929975</ele>
        <time>2025-06-26T00:49:57.073Z</time>
      </trkpt>
      <trkpt lat="48.355155" lon="-1.201453">
        <ele>128.315022</ele>
        <time>2025-06-26T00:50:01.135Z</time>
      </trkpt>
      <trkpt lat="48.355179" lon="-1.201549">
        <ele>128.461274</ele>
        <time>2025-06-26T00:50:02.785Z</time>
      </trkpt>
      <trkpt lat="48.355162" lon="-1.201613">
        <ele>128.559552</ele>
        <time>2025-06-26T00:50:03.916Z</time>
      </trkpt>
      <trkpt lat="48.355123" lon="-1.201652">
        <ele>128.660029</ele>
        <time>2025-06-26T00:50:04.946Z</time>
      </trkpt>
      <trkpt lat="48.355070" lon="-1.201647">
        <ele>128.773978</ele>
        <time>2025-06-26T00:50:06.270Z</time>
      </trkpt>
      <trkpt lat="48.355024" lon="-1.201553">
        <ele>128.940435</ele>
        <time>2025-06-26T00:50:08.150Z</time>
      </trkpt>
      <trkpt lat="48.354841" lon="-1.201423">
        <ele>129.374664</ele>
        <time>2025-06-26T00:50:13.309Z</time>
      </trkpt>
      <trkpt lat="48.354774" lon="-1.201430">
        <ele>129.518777</ele>
        <time>2025-06-26T00:50:15.235Z</time>
      </trkpt>
      <trkpt lat="48.354730" lon="-1.201354">
        <ele>129.662505</ele>
        <time>2025-06-26T00:50:17.086Z</time>
      </trkpt>
      <trkpt lat="48.354559" lon="-1.201275">
        <ele>130.046334</ele>
        <time>2025-06-26T00:50:22.438Z</time>
      </trkpt>
      <trkpt lat="48.354407" lon="-1.201498">
        <ele>130.501842</ele>
        <time>2025-06-26T00:50:29.552Z</time>
      </trkpt>
      <trkpt lat="48.354412" lon="-1.201607">
        <ele>130.657636</ele>
        <time>2025-06-26T00:50:31.800Z</time>
      </trkpt>
      <trkpt lat="48.354606" lon="-1.202085">
        <ele>130.226465</ele>
        <time>2025-06-26T00:50:43.487Z</time>
      </trkpt>
      <trkpt lat="48.354596" lon="-1.202683">
        <ele>128.791611</ele>
        <time>2025-06-26T00:50:53.654Z</time>
      </trkpt>
      <trkpt lat="48.354591" lon="-1.202827">
        <ele>128.445732</ele>
        <time>2025-06-26T00:50:55.643Z</time>
      </trkpt>
      <trkpt lat="48.354763" lon="-1.202869">
        <ele>127.816756</ele>
        <time>2025-06-26T00:50:58.529Z</time>
      </trkpt>
      <trkpt lat="48.354740" lon="-1.203054">
        <ele>127.365305</ele>
        <time>2025-06-26T00:51:00.365Z</time>
      </trkpt>
      <trkpt lat="48.354740" lon="-1.203305">
        <ele>126.763243</ele>
        <time>2025-06-26T00:51:02.669Z</time>
      </trkpt>
      <trkpt lat="48.354830" lon="-1.204274">
        <ele>124.203387</ele>
        <time>2025-06-26T00:51:08.360Z</time>
      </trkpt>
      <trkpt lat="48.354673" lon="-1.205223">
        <ele>116.244038</ele>
        <time>2025-06-26T00:51:13.797Z</time>
      </trkpt>
      <trkpt lat="48.354753" lon="-1.206227">
        <ele>108.014282</ele>
        <time>2025-06-26T00:51:19.397Z</time>
      </trkpt>
      <trkpt lat="48.354788" lon="-1.206772">
        <ele>103.558048</ele>
        <time>2025-06-26T00:51:22.466Z</time>
      </trkpt>
      <trkpt lat="48.354744" lon="-1.207008">
        <ele>102.135106</ele>
        <time>2025-06-26T00:51:23.861Z</time>
      </trkpt>
      <trkpt lat="48.354700" lon="-1.207234">
        <ele>101.418713</ele>
        <time>2025-06-26T00:51:25.216Z</time>
      </trkpt>
      <trkpt lat="48.354658" lon="-1.207434">
        <ele>100.780653</ele>
        <time>2025-06-26T00:51:26.443Z</time>
      </trkpt>
      <trkpt lat="48.354641" lon="-1.207450">
        <ele>100.688864</ele>
        <time>2025-06-26T00:51:26.617Z</time>
      </trkpt>
      <trkpt lat="48.354508" lon="-1.207578">
        <ele>99.966156</ele>
        <time>2025-06-26T00:51:28.043Z</time>
      </trkpt>
      <trkpt lat="48.354202" lon="-1.207803">
        <ele>98.407079</ele>
        <time>2025-06-26T00:51:31.258Z</time>
      </trkpt>
      <trkpt lat="48.354097" lon="-1.207946">
        <ele>97.758792</ele>
        <time>2025-06-26T00:51:32.677Z</time>
      </trkpt>
      <trkpt lat="48.354065" lon="-1.208029">
        <ele>97.466884</ele>
        <time>2025-06-26T00:51:33.344Z</time>
      </trkpt>
      <trkpt lat="48.354058" lon="-1.208038">
        <ele>97.424736</ele>
        <time>2025-06-26T00:51:33.438Z</time>
      </trkpt>
      <trkpt lat="48.354023" lon="-1.208085">
        <ele>97.209996</ele>
        <time>2025-06-26T00:51:34.853Z</time>
      </trkpt>
      <trkpt lat="48.353929" lon="-1.208181">
        <ele>96.689945</ele>
        <time>2025-06-26T00:51:36.632Z</time>
      </trkpt>
      <trkpt lat="48.353913" lon="-1.208200">
        <ele>96.596642</ele>
        <time>2025-06-26T00:51:36.858Z</time>
      </trkpt>
      <trkpt lat="48.353416" lon="-1.208755">
        <ele>94.561266</ele>
        <time>2025-06-26T00:51:45.826Z</time>
      </trkpt>
      <trkpt lat="48.353270" lon="-1.209022">
        <ele>95.260514</ele>
        <time>2025-06-26T00:51:50.283Z</time>
      </trkpt>
      <trkpt lat="48.353177" lon="-1.209276">
        <ele>95.846982</ele>
        <time>2025-06-26T00:51:52.886Z</time>
      </trkpt>
      <trkpt lat="48.353130" lon="-1.209528">
        <ele>96.376290</ele>
        <time>2025-06-26T00:51:55.657Z</time>
      </trkpt>
      <trkpt lat="48.353106" lon="-1.209696">
        <ele>96.723797</ele>
        <time>2025-06-26T00:51:57.841Z</time>
      </trkpt>
      <trkpt lat="48.353145" lon="-1.210057">
        <ele>97.463429</ele>
        <time>2025-06-26T00:52:04.635Z</time>
      </trkpt>
      <trkpt lat="48.353204" lon="-1.210227">
        <ele>97.851279</ele>
        <time>2025-06-26T00:52:09.004Z</time>
      </trkpt>
      <trkpt lat="48.353312" lon="-1.210410">
        <ele>98.346230</ele>
        <time>2025-06-26T00:52:14.994Z</time>
      </trkpt>
      <trkpt lat="48.353445" lon="-1.210484">
        <ele>98.777749</ele>
        <time>2025-06-26T00:52:20.431Z</time>
      </trkpt>
      <trkpt lat="48.353500" lon="-1.210788">
        <ele>99.414898</ele>
        <time>2025-06-26T00:52:30.285Z</time>
      </trkpt>
      <trkpt lat="48.353488" lon="-1.211136">
        <ele>100.728127</ele>
        <time>2025-06-26T00:52:41.452Z</time>
      </trkpt>
      <trkpt lat="48.353477" lon="-1.211543">
        <ele>102.794645</ele>
        <time>2025-06-26T00:52:54.193Z</time>
      </trkpt>
      <trkpt lat="48.353450" lon="-1.211935">
        <ele>104.794013</ele>
        <time>2025-06-26T00:53:05.892Z</time>
      </trkpt>
      <trkpt lat="48.353335" lon="-1.212206">
        <ele>106.425272</ele>
        <time>2025-06-26T00:53:17.416Z</time>
      </trkpt>
      <trkpt lat="48.353067" lon="-1.212612">
        <ele>109.328487</ele>
        <time>2025-06-26T00:53:40.539Z</time>
      </trkpt>
      <trkpt lat="48.352907" lon="-1.212906">
        <ele>111.256375</ele>
        <time>2025-06-26T00:53:54.769Z</time>
      </trkpt>
      <trkpt lat="48.352814" lon="-1.213354">
        <ele>113.576989</ele>
        <time>2025-06-26T00:54:09.983Z</time>
      </trkpt>
      <trkpt lat="48.351990" lon="-1.214060">
        <ele>118.508057</ele>
        <time>2025-06-26T00:54:52.025Z</time>
      </trkpt>
      <trkpt lat="48.351607" lon="-1.214457">
        <ele>120.926637</ele>
        <time>2025-06-26T00:55:10.930Z</time>
      </trkpt>
      <trkpt lat="48.351546" lon="-1.214520">
        <ele>121.311392</ele>
        <time>2025-06-26T00:55:13.713Z</time>
      </trkpt>
      <trkpt lat="48.351300" lon="-1.214734">
        <ele>122.789090</ele>
        <time>2025-06-26T00:55:23.263Z</time>
      </trkpt>
      <trkpt lat="48.351111" lon="-1.214883">
        <ele>122.545914</ele>
        <time>2025-06-26T00:55:29.371Z</time>
      </trkpt>
      <trkpt lat="48.350965" lon="-1.215002">
        <ele>122.344944</ele>
        <time>2025-06-26T00:55:33.521Z</time>
      </trkpt>
      <trkpt lat="48.350825" lon="-1.215240">
        <ele>122.089285</ele>
        <time>2025-06-26T00:55:38.194Z</time>
      </trkpt>
      <trkpt lat="48.350669" lon="-1.215445">
        <ele>121.838603</ele>
        <time>2025-06-26T00:55:42.016Z</time>
      </trkpt>
      <trkpt lat="48.350001" lon="-1.216014">
        <ele>120.909530</ele>
        <time>2025-06-26T00:55:53.819Z</time>
      </trkpt>
      <trkpt lat="48.348699" lon="-1.216878">
        <ele>113.327412</ele>
        <time>2025-06-26T00:56:12.779Z</time>
      </trkpt>
      <trkpt lat="48.347671" lon="-1.217256">
        <ele>106.549703</ele>
        <time>2025-06-26T00:56:26.077Z</time>
      </trkpt>
      <trkpt lat="48.346522" lon="-1.218011">
        <ele>98.075318</ele>
        <time>2025-06-26T00:56:42.038Z</time>
      </trkpt>
      <trkpt lat="48.346385" lon="-1.218067">
        <ele>97.339648</ele>
        <time>2025-06-26T00:56:44.003Z</time>
      </trkpt>
      <trkpt lat="48.346258" lon="-1.218071">
        <ele>97.126280</ele>
        <time>2025-06-26T00:56:45.832Z</time>
      </trkpt>
      <trkpt lat="48.346178" lon="-1.218217">
        <ele>96.915041</ele>
        <time>2025-06-26T00:56:47.136Z</time>
      </trkpt>
      <trkpt lat="48.345287" lon="-1.218730">
        <ele>95.312603</ele>
        <time>2025-06-26T00:56:59.366Z</time>
      </trkpt>
      <trkpt lat="48.345193" lon="-1.218797">
        <ele>95.137891</ele>
        <time>2025-06-26T00:57:01.137Z</time>
      </trkpt>
      <trkpt lat="48.344912" lon="-1.219051">
        <ele>94.587269</ele>
        <time>2025-06-26T00:57:06.003Z</time>
      </trkpt>
      <trkpt lat="48.344573" lon="-1.219611">
        <ele>93.456206</ele>
        <time>2025-06-26T00:57:12.182Z</time>
      </trkpt>
      <trkpt lat="48.343757" lon="-1.221021">
        <ele>90.453652</ele>
        <time>2025-06-26T00:57:24.950Z</time>
      </trkpt>
      <trkpt lat="48.343238" lon="-1.222034">
        <ele>88.600877</ele>
        <time>2025-06-26T00:57:33.545Z</time>
      </trkpt>
      <trkpt lat="48.342811" lon="-1.222924">
        <ele>87.053555</ele>
        <time>2025-06-26T00:57:41.359Z</time>
      </trkpt>
      <trkpt lat="48.342360" lon="-1.223826">
        <ele>86.620044</ele>
        <time>2025-06-26T00:57:51.178Z</time>
      </trkpt>
      <trkpt lat="48.342063" lon="-1.224241">
        <ele>87.053883</ele>
        <time>2025-06-26T00:57:58.536Z</time>
      </trkpt>
      <trkpt lat="48.341486" lon="-1.224924">
        <ele>87.839693</ele>
        <time>2025-06-26T00:58:14.853Z</time>
      </trkpt>
      <trkpt lat="48.341234" lon="-1.225373">
        <ele>88.258683</ele>
        <time>2025-06-26T00:58:24.731Z</time>
      </trkpt>
      <trkpt lat="48.340266" lon="-1.227283">
        <ele>89.982977</ele>
        <time>2025-06-26T00:58:58.714Z</time>
      </trkpt>
      <trkpt lat="48.340066" lon="-1.227725">
        <ele>89.421808</ele>
        <time>2025-06-26T00:59:02.787Z</time>
      </trkpt>
      <trkpt lat="48.339266" lon="-1.229638">
        <ele>85.308679</ele>
        <time>2025-06-26T00:59:17.616Z</time>
      </trkpt>
      <trkpt lat="48.337593" lon="-1.232999">
        <ele>80.934182</ele>
        <time>2025-06-26T00:59:48.501Z</time>
      </trkpt>
      <trkpt lat="48.336806" lon="-1.234819">
        <ele>81.469107</ele>
        <time>2025-06-26T01:00:16.273Z</time>
      </trkpt>
      <trkpt lat="48.336569" lon="-1.235429">
        <ele>82.227237</ele>
        <time>2025-06-26T01:00:26.849Z</time>
      </trkpt>
      <trkpt lat="48.336460" lon="-1.236142">
        <ele>83.012264</ele>
        <time>2025-06-26T01:00:37.734Z</time>
      </trkpt>
      <trkpt lat="48.336435" lon="-1.236578">
        <ele>83.492025</ele>
        <time>2025-06-26T01:00:44.199Z</time>
      </trkpt>
      <trkpt lat="48.336452" lon="-1.238488">
        <ele>85.895103</ele>
        <time>2025-06-26T01:01:11.915Z</time>
      </trkpt>
      <trkpt lat="48.336249" lon="-1.240614">
        <ele>89.120125</ele>
        <time>2025-06-26T01:01:45.955Z</time>
      </trkpt>
      <trkpt lat="48.336331" lon="-1.241487">
        <ele>90.556937</ele>
        <time>2025-06-26T01:02:00.926Z</time>
      </trkpt>
      <trkpt lat="48.336282" lon="-1.242119">
        <ele>91.752334</ele>
        <time>2025-06-26T01:02:11.625Z</time>
      </trkpt>
      <trkpt lat="48.336170" lon="-1.243240">
        <ele>94.417824</ele>
        <time>2025-06-26T01:02:31.167Z</time>
      </trkpt>
      <trkpt lat="48.336124" lon="-1.243512">
        <ele>95.077770</ele>
        <time>2025-06-26T01:02:36.406Z</time>
      </trkpt>
      <trkpt lat="48.336053" lon="-1.243724">
        <ele>95.635951</ele>
        <time>2025-06-26T01:02:40.986Z</time>
      </trkpt>
      <trkpt lat="48.335935" lon="-1.243925">
        <ele>96.266497</ele>
        <time>2025-06-26T01:02:46.356Z</time>
      </trkpt>
      <trkpt lat="48.335690" lon="-1.244158">
        <ele>97.291767</ele>
        <time>2025-06-26T01:02:55.635Z</time>
      </trkpt>
      <trkpt lat="48.334642" lon="-1.244627">
        <ele>102.470339</ele>
        <time>2025-06-26T01:03:36.752Z</time>
      </trkpt>
      <trkpt lat="48.334366" lon="-1.244927">
        <ele>104.118222</ele>
        <time>2025-06-26T01:03:49.347Z</time>
      </trkpt>
      <trkpt lat="48.334281" lon="-1.245146">
        <ele>104.934068</ele>
        <time>2025-06-26T01:03:55.141Z</time>
      </trkpt>
      <trkpt lat="48.334239" lon="-1.245403">
        <ele>105.785492</ele>
        <time>2025-06-26T01:04:00.886Z</time>
      </trkpt>
      <trkpt lat="48.334236" lon="-1.245698">
        <ele>106.349844</ele>
        <time>2025-06-26T01:04:06.867Z</time>
      </trkpt>
      <trkpt lat="48.334344" lon="-1.247165">
        <ele>106.870305</ele>
        <time>2025-06-26T01:04:27.120Z</time>
      </trkpt>
      <trkpt lat="48.334352" lon="-1.247545">
        <ele>107.004369</ele>
        <time>2025-06-26T01:04:30.143Z</time>
      </trkpt>
      <trkpt lat="48.334329" lon="-1.247845">
        <ele>107.110857</ele>
        <time>2025-06-26T01:04:32.423Z</time>
      </trkpt>
      <trkpt lat="48.334242" lon="-1.248272">
        <ele>107.199805</ele>
        <time>2025-06-26T01:04:35.660Z</time>
      </trkpt>
      <trkpt lat="48.334196" lon="-1.248549">
        <ele>106.716062</ele>
        <time>2025-06-26T01:04:37.654Z</time>
      </trkpt>
      <trkpt lat="48.333801" lon="-1.250026">
        <ele>104.018665</ele>
        <time>2025-06-26T01:04:48.434Z</time>
      </trkpt>
      <trkpt lat="48.333514" lon="-1.250717">
        <ele>102.651547</ele>
        <time>2025-06-26T01:04:54.285Z</time>
      </trkpt>
      <trkpt lat="48.333384" lon="-1.250973">
        <ele>102.318826</ele>
        <time>2025-06-26T01:04:56.671Z</time>
      </trkpt>
      <trkpt lat="48.332881" lon="-1.252152">
        <ele>100.871911</ele>
        <time>2025-06-26T01:05:07.265Z</time>
      </trkpt>
      <trkpt lat="48.332743" lon="-1.252591">
        <ele>100.370353</ele>
        <time>2025-06-26T01:05:11.046Z</time>
      </trkpt>
      <trkpt lat="48.332668" lon="-1.252974">
        <ele>99.957965</ele>
        <time>2025-06-26T01:05:14.116Z</time>
      </trkpt>
      <trkpt lat="48.332415" lon="-1.254968">
        <ele>100.113330</ele>
        <time>2025-06-26T01:05:31.082Z</time>
      </trkpt>
      <trkpt lat="48.332407" lon="-1.255924">
        <ele>100.529236</ele>
        <time>2025-06-26T01:05:46.054Z</time>
      </trkpt>
      <trkpt lat="48.332370" lon="-1.256465">
        <ele>101.399772</ele>
        <time>2025-06-26T01:05:56.937Z</time>
      </trkpt>
      <trkpt lat="48.332226" lon="-1.257266">
        <ele>102.727969</ele>
        <time>2025-06-26T01:06:13.471Z</time>
      </trkpt>
      <trkpt lat="48.332086" lon="-1.257721">
        <ele>103.530503</ele>
        <time>2025-06-26T01:06:22.425Z</time>
      </trkpt>
      <trkpt lat="48.332014" lon="-1.257904">
        <ele>103.870883</ele>
        <time>2025-06-26T01:06:25.766Z</time>
      </trkpt>
      <trkpt lat="48.331685" lon="-1.258662">
        <ele>103.861172</ele>
        <time>2025-06-26T01:06:36.267Z</time>
      </trkpt>
      <trkpt lat="48.331134" lon="-1.260133">
        <ele>101.542774</ele>
        <time>2025-06-26T01:06:47.862Z</time>
      </trkpt>
      <trkpt lat="48.330873" lon="-1.260693">
        <ele>100.591884</ele>
        <time>2025-06-26T01:06:52.364Z</time>
      </trkpt>
      <trkpt lat="48.330721" lon="-1.260972">
        <ele>100.069528</ele>
        <time>2025-06-26T01:06:54.797Z</time>
      </trkpt>
      <trkpt lat="48.330278" lon="-1.261645">
        <ele>98.698055</ele>
        <time>2025-06-26T01:07:01.450Z</time>
      </trkpt>
      <trkpt lat="48.329599" lon="-1.262555">
        <ele>96.666111</ele>
        <time>2025-06-26T01:07:12.155Z</time>
      </trkpt>
      <trkpt lat="48.329318" lon="-1.263043">
        <ele>95.473182</ele>
        <time>2025-06-26T01:07:17.180Z</time>
      </trkpt>
      <trkpt lat="48.329116" lon="-1.263515">
        <ele>94.435931</ele>
        <time>2025-06-26T01:07:21.260Z</time>
      </trkpt>
      <trkpt lat="48.329025" lon="-1.263639">
        <ele>94.094655</ele>
        <time>2025-06-26T01:07:22.540Z</time>
      </trkpt>
      <trkpt lat="48.328297" lon="-1.264036">
        <ele>91.942421</ele>
        <time>2025-06-26T01:07:30.113Z</time>
      </trkpt>
      <trkpt lat="48.328015" lon="-1.264301">
        <ele>90.995153</ele>
        <time>2025-06-26T01:07:33.278Z</time>
      </trkpt>
      <trkpt lat="48.327444" lon="-1.264925">
        <ele>88.982266</ele>
        <time>2025-06-26T01:07:40.113Z</time>
      </trkpt>
      <trkpt lat="48.326231" lon="-1.266279">
        <ele>87.694222</ele>
        <time>2025-06-26T01:07:58.483Z</time>
      </trkpt>
      <trkpt lat="48.324607" lon="-1.268043">
        <ele>90.420160</ele>
        <time>2025-06-26T01:08:51.275Z</time>
      </trkpt>
      <trkpt lat="48.324319" lon="-1.268426">
        <ele>90.990986</ele>
        <time>2025-06-26T01:08:59.048Z</time>
      </trkpt>
      <trkpt lat="48.323199" lon="-1.270127">
        <ele>89.759584</ele>
        <time>2025-06-26T01:09:18.611Z</time>
      </trkpt>
      <trkpt lat="48.323090" lon="-1.270320">
        <ele>89.468298</ele>
        <time>2025-06-26T01:09:20.420Z</time>
      </trkpt>
      <trkpt lat="48.323068" lon="-1.270403">
        <ele>89.365514</ele>
        <time>2025-06-26T01:09:21.050Z</time>
      </trkpt>
      <trkpt lat="48.322045" lon="-1.270682">
        <ele>86.894059</ele>
        <time>2025-06-26T01:09:31.482Z</time>
      </trkpt>
      <trkpt lat="48.322075" lon="-1.271034">
        <ele>86.215374</ele>
        <time>2025-06-26T01:09:33.822Z</time>
      </trkpt>
      <trkpt lat="48.322077" lon="-1.271418">
        <ele>85.480976</ele>
        <time>2025-06-26T01:09:36.394Z</time>
      </trkpt>
      <trkpt lat="48.321997" lon="-1.271797">
        <ele>84.720519</ele>
        <time>2025-06-26T01:09:39.097Z</time>
      </trkpt>
      <trkpt lat="48.321711" lon="-1.272264">
        <ele>83.506329</ele>
        <time>2025-06-26T01:09:43.559Z</time>
      </trkpt>
      <trkpt lat="48.321363" lon="-1.272985">
        <ele>82.976073</ele>
        <time>2025-06-26T01:09:50.685Z</time>
      </trkpt>
      <trkpt lat="48.320642" lon="-1.275318">
        <ele>81.893003</ele>
        <time>2025-06-26T01:10:14.178Z</time>
      </trkpt>
      <trkpt lat="48.320539" lon="-1.275670">
        <ele>81.827035</ele>
        <time>2025-06-26T01:10:17.535Z</time>
      </trkpt>
      <trkpt lat="48.320362" lon="-1.276138">
        <ele>81.734680</ele>
        <time>2025-06-26T01:10:22.235Z</time>
      </trkpt>
      <trkpt lat="48.319221" lon="-1.277834">
        <ele>82.295460</ele>
        <time>2025-06-26T01:10:46.101Z</time>
      </trkpt>
      <trkpt lat="48.318696" lon="-1.278555">
        <ele>82.890494</ele>
        <time>2025-06-26T01:11:00.495Z</time>
      </trkpt>
      <trkpt lat="48.317707" lon="-1.279787">
        <ele>84.631770</ele>
        <time>2025-06-26T01:11:30.758Z</time>
      </trkpt>
      <trkpt lat="48.317386" lon="-1.280236">
        <ele>85.267519</ele>
        <time>2025-06-26T01:11:39.976Z</time>
      </trkpt>
      <trkpt lat="48.316933" lon="-1.280984">
        <ele>84.679812</ele>
        <time>2025-06-26T01:11:50.297Z</time>
      </trkpt>
      <trkpt lat="48.316121" lon="-1.282380">
        <ele>81.639695</ele>
        <time>2025-06-26T01:12:02.987Z</time>
      </trkpt>
      <trkpt lat="48.315861" lon="-1.282634">
        <ele>80.452761</ele>
        <time>2025-06-26T01:12:05.905Z</time>
      </trkpt>
      <trkpt lat="48.315357" lon="-1.282969">
        <ele>77.478081</ele>
        <time>2025-06-26T01:12:11.015Z</time>
      </trkpt>
      <trkpt lat="48.315154" lon="-1.283191">
        <ele>76.123065</ele>
        <time>2025-06-26T01:12:13.307Z</time>
      </trkpt>
      <trkpt lat="48.315028" lon="-1.283433">
        <ele>75.019689</ele>
        <time>2025-06-26T01:12:15.162Z</time>
      </trkpt>
      <trkpt lat="48.314788" lon="-1.284160">
        <ele>72.105853</ele>
        <time>2025-06-26T01:12:20.107Z</time>
      </trkpt>
      <trkpt lat="48.314382" lon="-1.284863">
        <ele>70.410589</ele>
        <time>2025-06-26T01:12:25.973Z</time>
      </trkpt>
      <trkpt lat="48.313848" lon="-1.285690">
        <ele>68.744283</ele>
        <time>2025-06-26T01:12:34.405Z</time>
      </trkpt>
      <trkpt lat="48.313686" lon="-1.285952">
        <ele>68.227126</ele>
        <time>2025-06-26T01:12:38.140Z</time>
      </trkpt>
      <trkpt lat="48.313448" lon="-1.286474">
        <ele>67.579178</ele>
        <time>2025-06-26T01:12:45.754Z</time>
      </trkpt>
      <trkpt lat="48.313125" lon="-1.287338">
        <ele>67.424883</ele>
        <time>2025-06-26T01:12:57.678Z</time>
      </trkpt>
      <trkpt lat="48.312408" lon="-1.289352">
        <ele>67.184593</ele>
        <time>2025-06-26T01:13:16.559Z</time>
      </trkpt>
      <trkpt lat="48.312309" lon="-1.289557">
        <ele>67.182709</ele>
        <time>2025-06-26T01:13:18.643Z</time>
      </trkpt>
      <trkpt lat="48.311950" lon="-1.290131">
        <ele>67.176849</ele>
        <time>2025-06-26T01:13:25.639Z</time>
      </trkpt>
      <trkpt lat="48.311838" lon="-1.290407">
        <ele>67.174445</ele>
        <time>2025-06-26T01:13:29.134Z</time>
      </trkpt>
      <trkpt lat="48.311677" lon="-1.291006">
        <ele>67.287972</ele>
        <time>2025-06-26T01:13:37.887Z</time>
      </trkpt>
      <trkpt lat="48.311419" lon="-1.291625">
        <ele>68.308433</ele>
        <time>2025-06-26T01:13:49.098Z</time>
      </trkpt>
      <trkpt lat="48.311372" lon="-1.291842">
        <ele>68.627234</ele>
        <time>2025-06-26T01:13:52.806Z</time>
      </trkpt>
      <trkpt lat="48.311334" lon="-1.292268">
        <ele>69.227651</ele>
        <time>2025-06-26T01:13:59.977Z</time>
      </trkpt>
      <trkpt lat="48.311246" lon="-1.294176">
        <ele>71.130415</ele>
        <time>2025-06-26T01:14:30.690Z</time>
      </trkpt>
      <trkpt lat="48.311200" lon="-1.294445">
        <ele>71.204779</ele>
        <time>2025-06-26T01:14:34.127Z</time>
      </trkpt>
      <trkpt lat="48.311098" lon="-1.294780">
        <ele>71.303425</ele>
        <time>2025-06-26T01:14:38.274Z</time>
      </trkpt>
      <trkpt lat="48.310817" lon="-1.295441">
        <ele>71.513465</ele>
        <time>2025-06-26T01:14:45.518Z</time>
      </trkpt>
      <trkpt lat="48.310468" lon="-1.296429">
        <ele>71.091390</ele>
        <time>2025-06-26T01:14:54.455Z</time>
      </trkpt>
      <trkpt lat="48.310345" lon="-1.296631">
        <ele>70.789001</ele>
        <time>2025-06-26T01:14:56.565Z</time>
      </trkpt>
      <trkpt lat="48.309420" lon="-1.297783">
        <ele>68.795017</ele>
        <time>2025-06-26T01:15:09.891Z</time>
      </trkpt>
      <trkpt lat="48.308895" lon="-1.298645">
        <ele>67.334581</ele>
        <time>2025-06-26T01:15:18.302Z</time>
      </trkpt>
      <trkpt lat="48.308770" lon="-1.298900">
        <ele>66.934526</ele>
        <time>2025-06-26T01:15:20.572Z</time>
      </trkpt>
      <trkpt lat="48.308664" lon="-1.299195">
        <ele>66.511078</ele>
        <time>2025-06-26T01:15:22.974Z</time>
      </trkpt>
      <trkpt lat="48.307356" lon="-1.304243">
        <ele>61.232431</ele>
        <time>2025-06-26T01:16:04.634Z</time>
      </trkpt>
      <trkpt lat="48.306585" lon="-1.306474">
        <ele>59.494658</ele>
        <time>2025-06-26T01:16:25.540Z</time>
      </trkpt>
      <trkpt lat="48.306324" lon="-1.307443">
        <ele>58.860747</ele>
        <time>2025-06-26T01:16:34.409Z</time>
      </trkpt>
      <trkpt lat="48.306218" lon="-1.307949">
        <ele>58.292898</ele>
        <time>2025-06-26T01:16:38.704Z</time>
      </trkpt>
      <trkpt lat="48.304695" lon="-1.308187">
        <ele>55.525497</ele>
        <time>2025-06-26T01:16:55.558Z</time>
      </trkpt>
      <trkpt lat="48.304031" lon="-1.308372">
        <ele>54.315034</ele>
        <time>2025-06-26T01:17:02.610Z</time>
      </trkpt>
      <trkpt lat="48.303123" lon="-1.308758">
        <ele>52.623656</ele>
        <time>2025-06-26T01:17:13.154Z</time>
      </trkpt>
      <trkpt lat="48.302784" lon="-1.308965">
        <ele>52.480522</ele>
        <time>2025-06-26T01:17:17.941Z</time>
      </trkpt>
      <trkpt lat="48.302606" lon="-1.309114">
        <ele>52.655067</ele>
        <time>2025-06-26T01:17:20.747Z</time>
      </trkpt>
      <trkpt lat="48.302019" lon="-1.309733">
        <ele>53.269359</ele>
        <time>2025-06-26T01:17:33.351Z</time>
      </trkpt>
      <trkpt lat="48.301923" lon="-1.309828">
        <ele>53.367826</ele>
        <time>2025-06-26T01:17:35.795Z</time>
      </trkpt>
      <trkpt lat="48.301698" lon="-1.310015">
        <ele>53.588089</ele>
        <time>2025-06-26T01:17:41.512Z</time>
      </trkpt>
      <trkpt lat="48.301446" lon="-1.310093">
        <ele>53.808515</ele>
        <time>2025-06-26T01:17:47.566Z</time>
      </trkpt>
      <trkpt lat="48.301285" lon="-1.310102">
        <ele>54.135747</ele>
        <time>2025-06-26T01:17:51.466Z</time>
      </trkpt>
      <trkpt lat="48.301063" lon="-1.310085">
        <ele>54.722677</ele>
        <time>2025-06-26T01:17:56.983Z</time>
      </trkpt>
      <trkpt lat="48.300848" lon="-1.310069">
        <ele>55.291060</ele>
        <time>2025-06-26T01:18:02.459Z</time>
      </trkpt>
      <trkpt lat="48.300406" lon="-1.310251">
        <ele>56.501109</ele>
        <time>2025-06-26T01:18:14.846Z</time>
      </trkpt>
      <trkpt lat="48.299701" lon="-1.310742">
        <ele>58.552673</ele>
        <time>2025-06-26T01:18:35.331Z</time>
      </trkpt>
      <trkpt lat="48.299354" lon="-1.310815">
        <ele>59.430576</ele>
        <time>2025-06-26T01:18:43.679Z</time>
      </trkpt>
      <trkpt lat="48.299144" lon="-1.310855">
        <ele>59.959246</ele>
        <time>2025-06-26T01:18:48.540Z</time>
      </trkpt>
      <trkpt lat="48.298977" lon="-1.310945">
        <ele>60.402325</ele>
        <time>2025-06-26T01:18:53.560Z</time>
      </trkpt>
      <trkpt lat="48.298801" lon="-1.311128">
        <ele>60.936795</ele>
        <time>2025-06-26T01:18:59.688Z</time>
      </trkpt>
      <trkpt lat="48.298730" lon="-1.311213">
        <ele>61.163484</ele>
        <time>2025-06-26T01:19:02.364Z</time>
      </trkpt>
      <trkpt lat="48.298370" lon="-1.311921">
        <ele>62.644061</ele>
        <time>2025-06-26T01:19:20.427Z</time>
      </trkpt>
      <trkpt lat="48.298297" lon="-1.311967">
        <ele>62.841751</ele>
        <time>2025-06-26T01:19:22.904Z</time>
      </trkpt>
      <trkpt lat="48.297918" lon="-1.312047">
        <ele>63.633502</ele>
        <time>2025-06-26T01:19:35.444Z</time>
      </trkpt>
      <trkpt lat="48.296874" lon="-1.312302">
        <ele>65.656443</ele>
        <time>2025-06-26T01:20:08.695Z</time>
      </trkpt>
      <trkpt lat="48.296639" lon="-1.312373">
        <ele>66.114893</ele>
        <time>2025-06-26T01:20:14.588Z</time>
      </trkpt>
      <trkpt lat="48.296493" lon="-1.312476">
        <ele>66.423358</ele>
        <time>2025-06-26T01:20:18.110Z</time>
      </trkpt>
      <trkpt lat="48.296340" lon="-1.312652">
        <ele>66.192942</ele>
        <time>2025-06-26T01:20:21.777Z</time>
      </trkpt>
      <trkpt lat="48.295791" lon="-1.313470">
        <ele>64.196606</ele>
        <time>2025-06-26T01:20:33.701Z</time>
      </trkpt>
      <trkpt lat="48.295052" lon="-1.314924">
        <ele>61.082133</ele>
        <time>2025-06-26T01:20:50.791Z</time>
      </trkpt>
      <trkpt lat="48.294675" lon="-1.315444">
        <ele>59.806809</ele>
        <time>2025-06-26T01:20:58.270Z</time>
      </trkpt>
      <trkpt lat="48.293280" lon="-1.317461">
        <ele>55.963507</ele>
        <time>2025-06-26T01:21:30.013Z</time>
      </trkpt>
      <trkpt lat="48.292789" lon="-1.318055">
        <ele>55.027763</ele>
        <time>2025-06-26T01:21:40.508Z</time>
      </trkpt>
      <trkpt lat="48.292364" lon="-1.318568">
        <ele>54.234178</ele>
        <time>2025-06-26T01:21:49.485Z</time>
      </trkpt>
      <trkpt lat="48.291062" lon="-1.319778">
        <ele>52.099736</ele>
        <time>2025-06-26T01:22:14.657Z</time>
      </trkpt>
      <trkpt lat="48.289820" lon="-1.320476">
        <ele>51.311736</ele>
        <time>2025-06-26T01:22:38.095Z</time>
      </trkpt>
      <trkpt lat="48.287451" lon="-1.321768">
        <ele>52.804554</ele>
        <time>2025-06-26T01:23:33.791Z</time>
      </trkpt>
      <trkpt lat="48.285972" lon="-1.322568">
        <ele>56.485459</ele>
        <time>2025-06-26T01:24:22.931Z</time>
      </trkpt>
      <trkpt lat="48.285654" lon="-1.322804">
        <ele>57.559618</ele>
        <time>2025-06-26T01:24:35.200Z</time>
      </trkpt>
      <trkpt lat="48.285285" lon="-1.323276">
        <ele>59.027221</ele>
        <time>2025-06-26T01:24:51.665Z</time>
      </trkpt>
      <trkpt lat="48.284975" lon="-1.323971">
        <ele>60.713462</ele>
        <time>2025-06-26T01:25:10.029Z</time>
      </trkpt>
      <trkpt lat="48.284694" lon="-1.324373">
        <ele>61.793019</ele>
        <time>2025-06-26T01:25:21.870Z</time>
      </trkpt>
      <trkpt lat="48.284103" lon="-1.324916">
        <ele>63.155426</ele>
        <time>2025-06-26T01:25:41.146Z</time>
      </trkpt>
      <trkpt lat="48.283941" lon="-1.325155">
        <ele>63.601925</ele>
        <time>2025-06-26T01:25:47.216Z</time>
      </trkpt>
      <trkpt lat="48.283701" lon="-1.325702">
        <ele>64.459440</ele>
        <time>2025-06-26T01:25:58.946Z</time>
      </trkpt>
      <trkpt lat="48.283127" lon="-1.326321">
        <ele>65.802319</ele>
        <time>2025-06-26T01:26:18.398Z</time>
      </trkpt>
      <trkpt lat="48.282142" lon="-1.327142">
        <ele>67.868962</ele>
        <time>2025-06-26T01:26:49.950Z</time>
      </trkpt>
      <trkpt lat="48.281801" lon="-1.327378">
        <ele>68.543745</ele>
        <time>2025-06-26T01:27:00.099Z</time>
      </trkpt>
      <trkpt lat="48.281266" lon="-1.327569">
        <ele>69.416341</ele>
        <time>2025-06-26T01:27:14.875Z</time>
      </trkpt>
      <trkpt lat="48.280592" lon="-1.327919">
        <ele>70.547941</ele>
        <time>2025-06-26T01:27:34.353Z</time>
      </trkpt>
      <trkpt lat="48.280060" lon="-1.328240">
        <ele>71.224603</ele>
        <time>2025-06-26T01:27:49.366Z</time>
      </trkpt>
      <trkpt lat="48.279989" lon="-1.328320">
        <ele>71.146076</ele>
        <time>2025-06-26T01:27:51.504Z</time>
      </trkpt>
      <trkpt lat="48.279646" lon="-1.327719">
        <ele>70.679844</ele>
        <time>2025-06-26T01:28:03.204Z</time>
      </trkpt>
      <trkpt lat="48.279331" lon="-1.327513">
        <ele>70.375856</ele>
        <time>2025-06-26T01:28:09.462Z</time>
      </trkpt>
      <trkpt lat="48.277373" lon="-1.328440">
        <ele>66.126359</ele>
        <time>2025-06-26T01:28:40.113Z</time>
      </trkpt>
      <trkpt lat="48.276888" lon="-1.328712">
        <ele>64.723710</ele>
        <time>2025-06-26T01:28:47.798Z</time>
      </trkpt>
      <trkpt lat="48.276632" lon="-1.328889">
        <ele>64.145532</ele>
        <time>2025-06-26T01:28:52.065Z</time>
      </trkpt>
      <trkpt lat="48.276262" lon="-1.329212">
        <ele>63.267573</ele>
        <time>2025-06-26T01:28:58.648Z</time>
      </trkpt>
      <trkpt lat="48.275435" lon="-1.330099">
        <ele>61.182860</ele>
        <time>2025-06-26T01:29:15.103Z</time>
      </trkpt>
      <trkpt lat="48.275160" lon="-1.330517">
        <ele>60.685571</ele>
        <time>2025-06-26T01:29:21.312Z</time>
      </trkpt>
      <trkpt lat="48.274386" lon="-1.331835">
        <ele>59.320302</ele>
        <time>2025-06-26T01:29:40.808Z</time>
      </trkpt>
      <trkpt lat="48.274329" lon="-1.331927">
        <ele>59.222673</ele>
        <time>2025-06-26T01:29:42.369Z</time>
      </trkpt>
      <trkpt lat="48.274221" lon="-1.332099">
        <ele>59.039002</ele>
        <time>2025-06-26T01:29:45.371Z</time>
      </trkpt>
      <trkpt lat="48.274105" lon="-1.332430">
        <ele>59.259262</ele>
        <time>2025-06-26T01:29:50.375Z</time>
      </trkpt>
      <trkpt lat="48.274077" lon="-1.333266">
        <ele>59.988424</ele>
        <time>2025-06-26T01:30:03.201Z</time>
      </trkpt>
      <trkpt lat="48.273954" lon="-1.333874">
        <ele>60.541979</ele>
        <time>2025-06-26T01:30:14.852Z</time>
      </trkpt>
      <trkpt lat="48.273736" lon="-1.334292">
        <ele>61.004572</ele>
        <time>2025-06-26T01:30:25.218Z</time>
      </trkpt>
      <trkpt lat="48.272946" lon="-1.335587">
        <ele>62.887036</ele>
        <time>2025-06-26T01:31:00.268Z</time>
      </trkpt>
      <trkpt lat="48.272252" lon="-1.336755">
        <ele>64.407947</ele>
        <time>2025-06-26T01:31:26.504Z</time>
      </trkpt>
      <trkpt lat="48.269955" lon="-1.339161">
        <ele>63.910708</ele>
        <time>2025-06-26T01:32:21.625Z</time>
      </trkpt>
      <trkpt lat="48.269047" lon="-1.341181">
        <ele>62.844656</ele>
        <time>2025-06-26T01:32:48.885Z</time>
      </trkpt>
      <trkpt lat="48.269033" lon="-1.341212">
        <ele>62.826785</ele>
        <time>2025-06-26T01:32:49.320Z</time>
      </trkpt>
      <trkpt lat="48.268080" lon="-1.343462">
        <ele>62.486186</ele>
        <time>2025-06-26T01:33:24.664Z</time>
      </trkpt>
      <trkpt lat="48.267545" lon="-1.344449">
        <ele>62.693485</ele>
        <time>2025-06-26T01:33:44.002Z</time>
      </trkpt>
      <trkpt lat="48.264825" lon="-1.349461">
        <ele>65.929046</ele>
        <time>2025-06-26T01:35:20.491Z</time>
      </trkpt>
      <trkpt lat="48.264395" lon="-1.351507">
        <ele>68.570955</ele>
        <time>2025-06-26T01:36:03.220Z</time>
      </trkpt>
      <trkpt lat="48.263785" lon="-1.354404">
        <ele>73.451992</ele>
        <time>2025-06-26T01:37:03.445Z</time>
      </trkpt>
      <trkpt lat="48.263358" lon="-1.356014">
        <ele>76.306645</ele>
        <time>2025-06-26T01:37:36.601Z</time>
      </trkpt>
      <trkpt lat="48.262834" lon="-1.356833">
        <ele>77.947985</ele>
        <time>2025-06-26T01:38:04.647Z</time>
      </trkpt>
      <trkpt lat="48.262056" lon="-1.357427">
        <ele>79.821591</ele>
        <time>2025-06-26T01:38:31.599Z</time>
      </trkpt>
      <trkpt lat="48.262758" lon="-1.360116">
        <ele>78.165801</ele>
        <time>2025-06-26T01:39:01.637Z</time>
      </trkpt>
      <trkpt lat="48.262833" lon="-1.360466">
        <ele>78.351406</ele>
        <time>2025-06-26T01:39:07.067Z</time>
      </trkpt>
      <trkpt lat="48.262637" lon="-1.361648">
        <ele>80.099302</ele>
        <time>2025-06-26T01:39:29.586Z</time>
      </trkpt>
      <trkpt lat="48.262638" lon="-1.361908">
        <ele>80.472388</ele>
        <time>2025-06-26T01:39:35.551Z</time>
      </trkpt>
      <trkpt lat="48.262684" lon="-1.362146">
        <ele>80.828001</ele>
        <time>2025-06-26T01:39:41.525Z</time>
      </trkpt>
      <trkpt lat="48.262760" lon="-1.362424">
        <ele>81.259234</ele>
        <time>2025-06-26T01:39:48.675Z</time>
      </trkpt>
      <trkpt lat="48.262948" lon="-1.362833">
        <ele>81.998648</ele>
        <time>2025-06-26T01:39:59.610Z</time>
      </trkpt>
      <trkpt lat="48.261441" lon="-1.363411">
        <ele>86.926855</ele>
        <time>2025-06-26T01:40:42.135Z</time>
      </trkpt>
      <trkpt lat="48.261073" lon="-1.363503">
        <ele>87.962280</ele>
        <time>2025-06-26T01:40:52.655Z</time>
      </trkpt>
      <trkpt lat="48.260912" lon="-1.363507">
        <ele>88.320790</ele>
        <time>2025-06-26T01:40:57.043Z</time>
      </trkpt>
      <trkpt lat="48.260906" lon="-1.363760">
        <ele>88.696036</ele>
        <time>2025-06-26T01:41:02.421Z</time>
      </trkpt>
      <trkpt lat="48.261044" lon="-1.364635">
        <ele>90.028898</ele>
        <time>2025-06-26T01:41:20.635Z</time>
      </trkpt>
      <trkpt lat="48.261141" lon="-1.365733">
        <ele>91.632406</ele>
        <time>2025-06-26T01:41:40.041Z</time>
      </trkpt>
      <trkpt lat="48.261195" lon="-1.367843">
        <ele>92.383109</ele>
        <time>2025-06-26T01:42:13.170Z</time>
      </trkpt>
      <trkpt lat="48.261484" lon="-1.370479">
        <ele>91.682610</ele>
        <time>2025-06-26T01:42:44.777Z</time>
      </trkpt>
      <trkpt lat="48.261592" lon="-1.371077">
        <ele>91.429065</ele>
        <time>2025-06-26T01:42:52.258Z</time>
      </trkpt>
      <trkpt lat="48.261977" lon="-1.372479">
        <ele>91.222881</ele>
        <time>2025-06-26T01:43:11.914Z</time>
      </trkpt>
      <trkpt lat="48.262071" lon="-1.372936">
        <ele>91.157853</ele>
        <time>2025-06-26T01:43:18.303Z</time>
      </trkpt>
      <trkpt lat="48.262380" lon="-1.375072">
        <ele>91.171465</ele>
        <time>2025-06-26T01:43:47.417Z</time>
      </trkpt>
      <trkpt lat="48.262685" lon="-1.377856">
        <ele>91.529698</ele>
        <time>2025-06-26T01:44:27.632Z</time>
      </trkpt>
      <trkpt lat="48.262692" lon="-1.378259">
        <ele>91.597752</ele>
        <time>2025-06-26T01:44:33.631Z</time>
      </trkpt>
      <trkpt lat="48.262641" lon="-1.379106">
        <ele>91.706754</ele>
        <time>2025-06-26T01:44:45.596Z</time>
      </trkpt>
      <trkpt lat="48.262645" lon="-1.379340">
        <ele>91.702192</ele>
        <time>2025-06-26T01:44:48.707Z</time>
      </trkpt>
      <trkpt lat="48.262759" lon="-1.379865">
        <ele>91.691429</ele>
        <time>2025-06-26T01:44:55.829Z</time>
      </trkpt>
      <trkpt lat="48.262859" lon="-1.380658">
        <ele>91.675699</ele>
        <time>2025-06-26T01:45:06.100Z</time>
      </trkpt>
      <trkpt lat="48.262837" lon="-1.381258">
        <ele>91.663988</ele>
        <time>2025-06-26T01:45:13.923Z</time>
      </trkpt>
      <trkpt lat="48.262746" lon="-1.381864">
        <ele>91.766602</ele>
        <time>2025-06-26T01:45:22.393Z</time>
      </trkpt>
      <trkpt lat="48.262594" lon="-1.382470">
        <ele>92.003885</ele>
        <time>2025-06-26T01:45:32.405Z</time>
      </trkpt>
      <trkpt lat="48.262164" lon="-1.383800">
        <ele>92.545647</ele>
        <time>2025-06-26T01:45:56.262Z</time>
      </trkpt>
      <trkpt lat="48.262123" lon="-1.384146">
        <ele>92.622212</ele>
        <time>2025-06-26T01:46:01.482Z</time>
      </trkpt>
      <trkpt lat="48.261993" lon="-1.385990">
        <ele>91.976451</ele>
        <time>2025-06-26T01:46:23.868Z</time>
      </trkpt>
      <trkpt lat="48.262117" lon="-1.387891">
        <ele>91.449045</ele>
        <time>2025-06-26T01:46:46.098Z</time>
      </trkpt>
      <trkpt lat="48.261887" lon="-1.389510">
        <ele>91.164023</ele>
        <time>2025-06-26T01:47:08.489Z</time>
      </trkpt>
      <trkpt lat="48.261895" lon="-1.389900">
        <ele>91.471285</ele>
        <time>2025-06-26T01:47:14.206Z</time>
      </trkpt>
      <trkpt lat="48.262048" lon="-1.391176">
        <ele>92.492273</ele>
        <time>2025-06-26T01:47:33.645Z</time>
      </trkpt>
      <trkpt lat="48.262118" lon="-1.392899">
        <ele>95.609125</ele>
        <time>2025-06-26T01:48:07.938Z</time>
      </trkpt>
      <trkpt lat="48.262122" lon="-1.392965">
        <ele>95.806816</ele>
        <time>2025-06-26T01:48:09.631Z</time>
      </trkpt>
      <trkpt lat="48.262135" lon="-1.393270">
        <ele>96.718492</ele>
        <time>2025-06-26T01:48:17.456Z</time>
      </trkpt>
      <trkpt lat="48.262161" lon="-1.394070">
        <ele>99.107726</ele>
        <time>2025-06-26T01:48:39.658Z</time>
      </trkpt>
      <trkpt lat="48.262114" lon="-1.394523">
        <ele>100.475333</ele>
        <time>2025-06-26T01:48:53.425Z</time>
      </trkpt>
      <trkpt lat="48.262014" lon="-1.394986">
        <ele>101.738712</ele>
        <time>2025-06-26T01:49:08.320Z</time>
      </trkpt>
      <trkpt lat="48.261925" lon="-1.395613">
        <ele>103.093316</ele>
        <time>2025-06-26T01:49:26.483Z</time>
      </trkpt>
      <trkpt lat="48.261837" lon="-1.396053">
        <ele>104.064066</ele>
        <time>2025-06-26T01:49:38.081Z</time>
      </trkpt>
      <trkpt lat="48.261782" lon="-1.396211">
        <ele>104.440799</ele>
        <time>2025-06-26T01:49:42.096Z</time>
      </trkpt>
      <trkpt lat="48.261708" lon="-1.396343">
        <ele>104.805429</ele>
        <time>2025-06-26T01:49:45.673Z</time>
      </trkpt>
      <trkpt lat="48.261581" lon="-1.396449">
        <ele>105.266562</ele>
        <time>2025-06-26T01:49:49.813Z</time>
      </trkpt>
      <trkpt lat="48.260970" lon="-1.396121">
        <ele>106.963605</ele>
        <time>2025-06-26T01:50:00.566Z</time>
      </trkpt>
      <trkpt lat="48.260893" lon="-1.396302">
        <ele>106.928840</ele>
        <time>2025-06-26T01:50:02.339Z</time>
      </trkpt>
      <trkpt lat="48.260816" lon="-1.396276">
        <ele>106.909653</ele>
        <time>2025-06-26T01:50:03.268Z</time>
      </trkpt>
      <trkpt lat="48.260469" lon="-1.396310">
        <ele>106.825114</ele>
        <time>2025-06-26T01:50:07.436Z</time>
      </trkpt>
      <trkpt lat="48.259931" lon="-1.396170">
        <ele>106.692370</ele>
        <time>2025-06-26T01:50:14.115Z</time>
      </trkpt>
      <trkpt lat="48.259889" lon="-1.396938">
        <ele>106.567648</ele>
        <time>2025-06-26T01:50:21.484Z</time>
      </trkpt>
      <trkpt lat="48.259868" lon="-1.397389">
        <ele>106.893022</ele>
        <time>2025-06-26T01:50:27.331Z</time>
      </trkpt>
      <trkpt lat="48.259859" lon="-1.397596">
        <ele>107.091613</ele>
        <time>2025-06-26T01:50:30.276Z</time>
      </trkpt>
      <trkpt lat="48.259791" lon="-1.397887">
        <ele>107.386860</ele>
        <time>2025-06-26T01:50:34.804Z</time>
      </trkpt>
      <trkpt lat="48.259719" lon="-1.398680">
        <ele>108.153057</ele>
        <time>2025-06-26T01:50:46.725Z</time>
      </trkpt>
      <trkpt lat="48.259686" lon="-1.398857">
        <ele>108.329026</ele>
        <time>2025-06-26T01:50:49.451Z</time>
      </trkpt>
      <trkpt lat="48.259679" lon="-1.399188">
        <ele>108.646065</ele>
        <time>2025-06-26T01:50:54.142Z</time>
      </trkpt>
      <trkpt lat="48.259720" lon="-1.399750">
        <ele>109.186369</ele>
        <time>2025-06-26T01:51:01.760Z</time>
      </trkpt>
      <trkpt lat="48.259757" lon="-1.400258">
        <ele>109.666160</ele>
        <time>2025-06-26T01:51:08.800Z</time>
      </trkpt>
      <trkpt lat="48.259777" lon="-1.400505">
        <ele>109.899770</ele>
        <time>2025-06-26T01:51:12.303Z</time>
      </trkpt>
      <trkpt lat="48.259783" lon="-1.400567">
        <ele>109.958591</ele>
        <time>2025-06-26T01:51:13.179Z</time>
      </trkpt>
      <trkpt lat="48.259825" lon="-1.401005">
        <ele>110.374059</ele>
        <time>2025-06-26T01:51:19.327Z</time>
      </trkpt>
      <trkpt lat="48.259836" lon="-1.401096">
        <ele>110.460892</ele>
        <time>2025-06-26T01:51:20.629Z</time>
      </trkpt>
      <trkpt lat="48.259846" lon="-1.401164">
        <ele>110.526274</ele>
        <time>2025-06-26T01:51:21.620Z</time>
      </trkpt>
      <trkpt lat="48.259903" lon="-1.401553">
        <ele>110.900235</ele>
        <time>2025-06-26T01:51:27.305Z</time>
      </trkpt>
      <trkpt lat="48.259924" lon="-1.401691">
        <ele>111.033140</ele>
        <time>2025-06-26T01:51:29.260Z</time>
      </trkpt>
      <trkpt lat="48.259942" lon="-1.401808">
        <ele>111.145882</ele>
        <time>2025-06-26T01:51:30.922Z</time>
      </trkpt>
      <trkpt lat="48.260013" lon="-1.402233">
        <ele>111.557270</ele>
        <time>2025-06-26T01:51:36.693Z</time>
      </trkpt>
      <trkpt lat="48.260076" lon="-1.402605">
        <ele>111.793876</ele>
        <time>2025-06-26T01:51:41.838Z</time>
      </trkpt>
      <trkpt lat="48.260453" lon="-1.404851">
        <ele>112.859173</ele>
        <time>2025-06-26T01:52:09.064Z</time>
      </trkpt>
      <trkpt lat="48.260364" lon="-1.404924">
        <ele>112.906111</ele>
        <time>2025-06-26T01:52:10.582Z</time>
      </trkpt>
      <trkpt lat="48.260287" lon="-1.404987">
        <ele>112.846586</ele>
        <time>2025-06-26T01:52:11.861Z</time>
      </trkpt>
      <trkpt lat="48.259880" lon="-1.405364">
        <ele>112.521971</ele>
        <time>2025-06-26T01:52:18.504Z</time>
      </trkpt>
      <trkpt lat="48.259702" lon="-1.405696">
        <ele>112.329311</ele>
        <time>2025-06-26T01:52:22.114Z</time>
      </trkpt>
      <trkpt lat="48.259674" lon="-1.405783">
        <ele>112.285637</ele>
        <time>2025-06-26T01:52:22.916Z</time>
      </trkpt>
      <trkpt lat="48.259525" lon="-1.406424">
        <ele>111.978777</ele>
        <time>2025-06-26T01:52:28.382Z</time>
      </trkpt>
      <trkpt lat="48.259330" lon="-1.407441">
        <ele>111.375829</ele>
        <time>2025-06-26T01:52:36.823Z</time>
      </trkpt>
      <trkpt lat="48.259213" lon="-1.408042">
        <ele>110.912955</ele>
        <time>2025-06-26T01:52:41.713Z</time>
      </trkpt>
      <trkpt lat="48.259171" lon="-1.408270">
        <ele>110.738081</ele>
        <time>2025-06-26T01:52:43.557Z</time>
      </trkpt>
      <trkpt lat="48.258922" lon="-1.409672">
        <ele>109.678598</ele>
        <time>2025-06-26T01:52:55.249Z</time>
      </trkpt>
      <trkpt lat="48.258956" lon="-1.409720">
        <ele>109.646840</ele>
        <time>2025-06-26T01:52:55.846Z</time>
      </trkpt>
      <trkpt lat="48.258968" lon="-1.409788">
        <ele>109.614964</ele>
        <time>2025-06-26T01:52:56.441Z</time>
      </trkpt>
      <trkpt lat="48.258934" lon="-1.409884">
        <ele>109.565693</ele>
        <time>2025-06-26T01:52:57.348Z</time>
      </trkpt>
      <trkpt lat="48.258863" lon="-1.409903">
        <ele>109.516610</ele>
        <time>2025-06-26T01:52:58.291Z</time>
      </trkpt>
      <trkpt lat="48.258823" lon="-1.410026">
        <ele>109.454582</ele>
        <time>2025-06-26T01:52:59.459Z</time>
      </trkpt>
      <trkpt lat="48.258541" lon="-1.410814">
        <ele>109.049209</ele>
        <time>2025-06-26T01:53:07.033Z</time>
      </trkpt>
      <trkpt lat="48.258482" lon="-1.411035">
        <ele>108.941318</ele>
        <time>2025-06-26T01:53:09.063Z</time>
      </trkpt>
      <trkpt lat="48.258426" lon="-1.411465">
        <ele>108.742783</ele>
        <time>2025-06-26T01:53:12.844Z</time>
      </trkpt>
      <trkpt lat="48.258413" lon="-1.411753">
        <ele>108.611984</ele>
        <time>2025-06-26T01:53:15.402Z</time>
      </trkpt>
      <trkpt lat="48.258438" lon="-1.412060">
        <ele>108.474219</ele>
        <time>2025-06-26T01:53:18.115Z</time>
      </trkpt>
      <trkpt lat="48.258456" lon="-1.412295">
        <ele>108.441426</ele>
        <time>2025-06-26T01:53:20.252Z</time>
      </trkpt>
      <trkpt lat="48.258505" lon="-1.412497">
        <ele>108.411622</ele>
        <time>2025-06-26T01:53:22.251Z</time>
      </trkpt>
      <trkpt lat="48.258629" lon="-1.412583">
        <ele>108.383182</ele>
        <time>2025-06-26T01:53:24.180Z</time>
      </trkpt>
      <trkpt lat="48.258679" lon="-1.412655">
        <ele>108.368759</ele>
        <time>2025-06-26T01:53:25.150Z</time>
      </trkpt>
      <trkpt lat="48.258727" lon="-1.412777">
        <ele>108.349114</ele>
        <time>2025-06-26T01:53:26.458Z</time>
      </trkpt>
      <trkpt lat="48.258749" lon="-1.412916">
        <ele>108.329307</ele>
        <time>2025-06-26T01:53:27.791Z</time>
      </trkpt>
      <trkpt lat="48.258719" lon="-1.413154">
        <ele>108.295727</ele>
        <time>2025-06-26T01:53:29.973Z</time>
      </trkpt>
      <trkpt lat="48.258672" lon="-1.413260">
        <ele>108.278072</ele>
        <time>2025-06-26T01:53:31.093Z</time>
      </trkpt>
      <trkpt lat="48.258530" lon="-1.413397">
        <ele>108.242930</ele>
        <time>2025-06-26T01:53:33.431Z</time>
      </trkpt>
      <trkpt lat="48.258439" lon="-1.413417">
        <ele>108.223780</ele>
        <time>2025-06-26T01:53:34.777Z</time>
      </trkpt>
      <trkpt lat="48.258348" lon="-1.413396">
        <ele>108.204609</ele>
        <time>2025-06-26T01:53:36.176Z</time>
      </trkpt>
      <trkpt lat="48.257903" lon="-1.413928">
        <ele>108.066455</ele>
        <time>2025-06-26T01:53:44.701Z</time>
      </trkpt>
      <trkpt lat="48.257208" lon="-1.414680">
        <ele>107.646547</ele>
        <time>2025-06-26T01:53:57.337Z</time>
      </trkpt>
      <trkpt lat="48.256841" lon="-1.415273">
        <ele>107.382294</ele>
        <time>2025-06-26T01:54:04.083Z</time>
      </trkpt>
      <trkpt lat="48.256685" lon="-1.415594">
        <ele>107.252581</ele>
        <time>2025-06-26T01:54:07.282Z</time>
      </trkpt>
      <trkpt lat="48.256554" lon="-1.415939">
        <ele>106.975268</ele>
        <time>2025-06-26T01:54:10.453Z</time>
      </trkpt>
      <trkpt lat="48.256375" lon="-1.416503">
        <ele>106.457792</ele>
        <time>2025-06-26T01:54:15.322Z</time>
      </trkpt>
      <trkpt lat="48.256114" lon="-1.417362">
        <ele>105.675761</ele>
        <time>2025-06-26T01:54:22.507Z</time>
      </trkpt>
      <trkpt lat="48.255327" lon="-1.419553">
        <ele>104.361157</ele>
        <time>2025-06-26T01:54:42.808Z</time>
      </trkpt>
      <trkpt lat="48.254144" lon="-1.422932">
        <ele>104.088709</ele>
        <time>2025-06-26T01:55:21.485Z</time>
      </trkpt>
      <trkpt lat="48.253586" lon="-1.424537">
        <ele>103.850941</ele>
        <time>2025-06-26T01:55:39.783Z</time>
      </trkpt>
      <trkpt lat="48.252446" lon="-1.427773">
        <ele>101.915270</ele>
        <time>2025-06-26T01:56:10.578Z</time>
      </trkpt>
      <trkpt lat="48.251800" lon="-1.429504">
        <ele>99.223158</ele>
        <time>2025-06-26T01:56:24.802Z</time>
      </trkpt>
      <trkpt lat="48.251105" lon="-1.431143">
        <ele>96.957533</ele>
        <time>2025-06-26T01:56:38.668Z</time>
      </trkpt>
      <trkpt lat="48.250608" lon="-1.432410">
        <ele>95.537505</ele>
        <time>2025-06-26T01:56:50.270Z</time>
      </trkpt>
      <trkpt lat="48.250443" lon="-1.432893">
        <ele>95.674443</ele>
        <time>2025-06-26T01:56:55.377Z</time>
      </trkpt>
      <trkpt lat="48.249645" lon="-1.435831">
        <ele>96.765873</ele>
        <time>2025-06-26T01:57:33.607Z</time>
      </trkpt>
      <trkpt lat="48.248556" lon="-1.439846">
        <ele>98.580211</ele>
        <time>2025-06-26T01:58:24.850Z</time>
      </trkpt>
      <trkpt lat="48.248525" lon="-1.439962">
        <ele>98.499931</ele>
        <time>2025-06-26T01:58:26.028Z</time>
      </trkpt>
      <trkpt lat="48.248345" lon="-1.440655">
        <ele>98.022169</ele>
        <time>2025-06-26T01:58:32.605Z</time>
      </trkpt>
      <trkpt lat="48.247828" lon="-1.442363">
        <ele>96.747786</ele>
        <time>2025-06-26T01:58:47.085Z</time>
      </trkpt>
      <trkpt lat="48.247439" lon="-1.443593">
        <ele>95.102133</ele>
        <time>2025-06-26T01:58:56.983Z</time>
      </trkpt>
      <trkpt lat="48.247039" lon="-1.444669">
        <ele>93.632465</ele>
        <time>2025-06-26T01:59:05.979Z</time>
      </trkpt>
      <trkpt lat="48.246713" lon="-1.445470">
        <ele>93.694345</ele>
        <time>2025-06-26T01:59:13.787Z</time>
      </trkpt>
      <trkpt lat="48.246048" lon="-1.447103">
        <ele>93.922927</ele>
        <time>2025-06-26T01:59:36.840Z</time>
      </trkpt>
      <trkpt lat="48.245425" lon="-1.448623">
        <ele>95.132816</ele>
        <time>2025-06-26T02:00:00.787Z</time>
      </trkpt>
      <trkpt lat="48.245350" lon="-1.448962">
        <ele>95.374967</ele>
        <time>2025-06-26T02:00:05.075Z</time>
      </trkpt>
      <trkpt lat="48.245338" lon="-1.449180">
        <ele>95.523249</ele>
        <time>2025-06-26T02:00:07.634Z</time>
      </trkpt>
      <trkpt lat="48.245468" lon="-1.450926">
        <ele>96.111073</ele>
        <time>2025-06-26T02:00:26.626Z</time>
      </trkpt>
      <trkpt lat="48.245627" lon="-1.452900">
        <ele>96.627578</ele>
        <time>2025-06-26T02:00:48.781Z</time>
      </trkpt>
      <trkpt lat="48.245684" lon="-1.453603">
        <ele>96.777618</ele>
        <time>2025-06-26T02:00:56.871Z</time>
      </trkpt>
      <trkpt lat="48.245702" lon="-1.453826">
        <ele>96.825209</ele>
        <time>2025-06-26T02:00:59.331Z</time>
      </trkpt>
      <trkpt lat="48.245814" lon="-1.455261">
        <ele>96.825610</ele>
        <time>2025-06-26T02:01:13.629Z</time>
      </trkpt>
      <trkpt lat="48.245854" lon="-1.455770">
        <ele>96.648439</ele>
        <time>2025-06-26T02:01:17.934Z</time>
      </trkpt>
      <trkpt lat="48.245910" lon="-1.456600">
        <ele>96.360057</ele>
        <time>2025-06-26T02:01:24.897Z</time>
      </trkpt>
      <trkpt lat="48.246062" lon="-1.458577">
        <ele>95.823776</ele>
        <time>2025-06-26T02:01:42.177Z</time>
      </trkpt>
      <trkpt lat="48.246059" lon="-1.459158">
        <ele>95.697339</ele>
        <time>2025-06-26T02:01:47.520Z</time>
      </trkpt>
      <trkpt lat="48.245960" lon="-1.459702">
        <ele>95.574616</ele>
        <time>2025-06-26T02:01:52.712Z</time>
      </trkpt>
      <trkpt lat="48.245868" lon="-1.459996">
        <ele>95.503926</ele>
        <time>2025-06-26T02:01:55.720Z</time>
      </trkpt>
      <trkpt lat="48.245743" lon="-1.460277">
        <ele>95.837075</ele>
        <time>2025-06-26T02:01:59.138Z</time>
      </trkpt>
      <trkpt lat="48.245784" lon="-1.460337">
        <ele>95.938474</ele>
        <time>2025-06-26T02:02:00.053Z</time>
      </trkpt>
      <trkpt lat="48.245802" lon="-1.460432">
        <ele>96.054974</ele>
        <time>2025-06-26T02:02:01.137Z</time>
      </trkpt>
      <trkpt lat="48.245909" lon="-1.461014">
        <ele>96.767122</ele>
        <time>2025-06-26T02:02:08.827Z</time>
      </trkpt>
      <trkpt lat="48.246000" lon="-1.461536">
        <ele>97.403566</ele>
        <time>2025-06-26T02:02:17.098Z</time>
      </trkpt>
      <trkpt lat="48.246090" lon="-1.462126">
        <ele>98.117491</ele>
        <time>2025-06-26T02:02:27.505Z</time>
      </trkpt>
      <trkpt lat="48.246216" lon="-1.462989">
        <ele>99.377050</ele>
        <time>2025-06-26T02:02:43.875Z</time>
      </trkpt>
      <trkpt lat="48.246315" lon="-1.463618">
        <ele>100.484721</ele>
        <time>2025-06-26T02:02:55.835Z</time>
      </trkpt>
      <trkpt lat="48.246344" lon="-1.463799">
        <ele>100.803768</ele>
        <time>2025-06-26T02:02:59.020Z</time>
      </trkpt>
      <trkpt lat="48.246523" lon="-1.464846">
        <ele>102.656287</ele>
        <time>2025-06-26T02:03:16.115Z</time>
      </trkpt>
      <trkpt lat="48.246524" lon="-1.464875">
        <ele>102.706053</ele>
        <time>2025-06-26T02:03:16.571Z</time>
      </trkpt>
      <trkpt lat="48.246527" lon="-1.465318">
        <ele>103.414042</ele>
        <time>2025-06-26T02:03:23.104Z</time>
      </trkpt>
      <trkpt lat="48.246514" lon="-1.465855">
        <ele>104.034264</ele>
        <time>2025-06-26T02:03:30.897Z</time>
      </trkpt>
      <trkpt lat="48.246571" lon="-1.466343">
        <ele>104.606119</ele>
        <time>2025-06-26T02:03:38.174Z</time>
      </trkpt>
      <trkpt lat="48.246888" lon="-1.467155">
        <ele>105.692517</ele>
        <time>2025-06-26T02:03:52.436Z</time>
      </trkpt>
      <trkpt lat="48.247728" lon="-1.469295">
        <ele>107.992213</ele>
        <time>2025-06-26T02:04:25.870Z</time>
      </trkpt>
      <trkpt lat="48.247950" lon="-1.470009">
        <ele>108.659847</ele>
        <time>2025-06-26T02:04:35.794Z</time>
      </trkpt>
      <trkpt lat="48.248267" lon="-1.470886">
        <ele>109.226535</ele>
        <time>2025-06-26T02:04:48.495Z</time>
      </trkpt>
      <trkpt lat="48.249294" lon="-1.472773">
        <ele>109.988645</ele>
        <time>2025-06-26T02:05:17.543Z</time>
      </trkpt>
      <trkpt lat="48.250024" lon="-1.473969">
        <ele>109.485611</ele>
        <time>2025-06-26T02:05:31.569Z</time>
      </trkpt>
      <trkpt lat="48.250474" lon="-1.474706">
        <ele>108.442056</ele>
        <time>2025-06-26T02:05:39.089Z</time>
      </trkpt>
      <trkpt lat="48.252425" lon="-1.477850">
        <ele>100.583988</ele>
        <time>2025-06-26T02:06:09.071Z</time>
      </trkpt>
      <trkpt lat="48.252690" lon="-1.478361">
        <ele>98.995149</ele>
        <time>2025-06-26T02:06:13.253Z</time>
      </trkpt>
      <trkpt lat="48.252798" lon="-1.478649">
        <ele>97.730696</ele>
        <time>2025-06-26T02:06:15.350Z</time>
      </trkpt>
      <trkpt lat="48.254306" lon="-1.484201">
        <ele>73.690513</ele>
        <time>2025-06-26T02:06:51.777Z</time>
      </trkpt>
      <trkpt lat="48.254416" lon="-1.484723">
        <ele>71.508125</ele>
        <time>2025-06-26T02:06:55.086Z</time>
      </trkpt>
      <trkpt lat="48.254449" lon="-1.485099">
        <ele>69.996444</ele>
        <time>2025-06-26T02:06:57.391Z</time>
      </trkpt>
      <trkpt lat="48.254430" lon="-1.485738">
        <ele>67.446886</ele>
        <time>2025-06-26T02:07:01.299Z</time>
      </trkpt>
      <trkpt lat="48.254213" lon="-1.487884">
        <ele>61.939810</ele>
        <time>2025-06-26T02:07:15.237Z</time>
      </trkpt>
      <trkpt lat="48.253620" lon="-1.494260">
        <ele>55.501520</ele>
        <time>2025-06-26T02:08:05.181Z</time>
      </trkpt>
      <trkpt lat="48.253606" lon="-1.494424">
        <ele>55.548849</ele>
        <time>2025-06-26T02:08:06.820Z</time>
      </trkpt>
      <trkpt lat="48.253528" lon="-1.495359">
        <ele>55.818586</ele>
        <time>2025-06-26T02:08:17.394Z</time>
      </trkpt>
      <trkpt lat="48.253502" lon="-1.496516">
        <ele>56.149966</ele>
        <time>2025-06-26T02:08:32.769Z</time>
      </trkpt>
      <trkpt lat="48.253494" lon="-1.498749">
        <ele>58.146486</ele>
        <time>2025-06-26T02:09:03.457Z</time>
      </trkpt>
      <trkpt lat="48.253457" lon="-1.502339">
        <ele>60.013711</ele>
        <time>2025-06-26T02:09:48.567Z</time>
      </trkpt>
      <trkpt lat="48.253421" lon="-1.505853">
        <ele>58.614700</ele>
        <time>2025-06-26T02:10:16.780Z</time>
      </trkpt>
      <trkpt lat="48.253451" lon="-1.506679">
        <ele>58.349716</ele>
        <time>2025-06-26T02:10:23.864Z</time>
      </trkpt>
      <trkpt lat="48.253692" lon="-1.508882">
        <ele>59.137780</ele>
        <time>2025-06-26T02:10:50.367Z</time>
      </trkpt>
      <trkpt lat="48.253781" lon="-1.509431">
        <ele>59.493121</ele>
        <time>2025-06-26T02:10:58.277Z</time>
      </trkpt>
      <trkpt lat="48.253894" lon="-1.509910">
        <ele>59.812701</ele>
        <time>2025-06-26T02:11:05.137Z</time>
      </trkpt>
      <trkpt lat="48.254088" lon="-1.510677">
        <ele>60.023051</ele>
        <time>2025-06-26T02:11:15.787Z</time>
      </trkpt>
      <trkpt lat="48.254339" lon="-1.511657">
        <ele>60.269823</ele>
        <time>2025-06-26T02:11:27.399Z</time>
      </trkpt>
      <trkpt lat="48.254559" lon="-1.512540">
        <ele>60.449937</ele>
        <time>2025-06-26T02:11:36.008Z</time>
      </trkpt>
      <trkpt lat="48.254574" lon="-1.512599">
        <ele>60.425946</ele>
        <time>2025-06-26T02:11:36.541Z</time>
      </trkpt>
      <trkpt lat="48.254624" lon="-1.512788">
        <ele>60.348688</ele>
        <time>2025-06-26T02:11:38.228Z</time>
      </trkpt>
      <trkpt lat="48.254660" lon="-1.512922">
        <ele>60.293796</ele>
        <time>2025-06-26T02:11:39.397Z</time>
      </trkpt>
      <trkpt lat="48.254920" lon="-1.513908">
        <ele>59.890927</ele>
        <time>2025-06-26T02:11:47.839Z</time>
      </trkpt>
      <trkpt lat="48.255061" lon="-1.514439">
        <ele>59.673760</ele>
        <time>2025-06-26T02:11:52.527Z</time>
      </trkpt>
      <trkpt lat="48.255090" lon="-1.514522">
        <ele>59.638152</ele>
        <time>2025-06-26T02:11:53.338Z</time>
      </trkpt>
      <trkpt lat="48.255192" lon="-1.514659">
        <ele>59.560080</ele>
        <time>2025-06-26T02:11:55.228Z</time>
      </trkpt>
      <trkpt lat="48.255208" lon="-1.514681">
        <ele>59.547703</ele>
        <time>2025-06-26T02:11:55.538Z</time>
      </trkpt>
      <trkpt lat="48.255823" lon="-1.515520">
        <ele>60.151716</ele>
        <time>2025-06-26T02:12:10.069Z</time>
      </trkpt>
      <trkpt lat="48.255888" lon="-1.515649">
        <ele>60.266618</ele>
        <time>2025-06-26T02:12:12.265Z</time>
      </trkpt>
      <trkpt lat="48.255949" lon="-1.516030">
        <ele>60.544938</ele>
        <time>2025-06-26T02:12:17.922Z</time>
      </trkpt>
      <trkpt lat="48.256010" lon="-1.516478">
        <ele>60.869716</ele>
        <time>2025-06-26T02:12:24.608Z</time>
      </trkpt>
      <trkpt lat="48.256027" lon="-1.516869">
        <ele>61.148015</ele>
        <time>2025-06-26T02:12:30.176Z</time>
      </trkpt>
      <trkpt lat="48.255960" lon="-1.517022">
        <ele>61.278081</ele>
        <time>2025-06-26T02:12:32.709Z</time>
      </trkpt>
      <trkpt lat="48.255907" lon="-1.517464">
        <ele>61.499401</ele>
        <time>2025-06-26T02:12:38.706Z</time>
      </trkpt>
      <trkpt lat="48.255874" lon="-1.517545">
        <ele>61.538084</ele>
        <time>2025-06-26T02:12:39.895Z</time>
      </trkpt>
      <trkpt lat="48.255628" lon="-1.517817">
        <ele>61.724983</ele>
        <time>2025-06-26T02:12:45.091Z</time>
      </trkpt>
      <trkpt lat="48.255592" lon="-1.517905">
        <ele>61.767057</ele>
        <time>2025-06-26T02:12:46.182Z</time>
      </trkpt>
      <trkpt lat="48.255551" lon="-1.518183">
        <ele>61.883049</ele>
        <time>2025-06-26T02:12:49.093Z</time>
      </trkpt>
      <trkpt lat="48.255477" lon="-1.519253">
        <ele>62.321276</ele>
        <time>2025-06-26T02:12:59.962Z</time>
      </trkpt>
      <trkpt lat="48.255401" lon="-1.520308">
        <ele>63.228729</ele>
        <time>2025-06-26T02:13:12.460Z</time>
      </trkpt>
      <trkpt lat="48.255166" lon="-1.523468">
        <ele>66.582877</ele>
        <time>2025-06-26T02:14:01.333Z</time>
      </trkpt>
      <trkpt lat="48.254960" lon="-1.526753">
        <ele>68.485507</ele>
        <time>2025-06-26T02:14:43.338Z</time>
      </trkpt>
      <trkpt lat="48.254966" lon="-1.527059">
        <ele>68.550550</ele>
        <time>2025-06-26T02:14:46.076Z</time>
      </trkpt>
      <trkpt lat="48.255019" lon="-1.527468">
        <ele>68.639080</ele>
        <time>2025-06-26T02:14:49.580Z</time>
      </trkpt>
      <trkpt lat="48.255235" lon="-1.528727">
        <ele>67.328029</ele>
        <time>2025-06-26T02:14:59.467Z</time>
      </trkpt>
      <trkpt lat="48.255457" lon="-1.530058">
        <ele>65.635194</ele>
        <time>2025-06-26T02:15:09.412Z</time>
      </trkpt>
      <trkpt lat="48.255476" lon="-1.530460">
        <ele>65.091759</ele>
        <time>2025-06-26T02:15:12.271Z</time>
      </trkpt>
      <trkpt lat="48.255471" lon="-1.533509">
        <ele>61.234357</ele>
        <time>2025-06-26T02:15:33.811Z</time>
      </trkpt>
      <trkpt lat="48.255482" lon="-1.538887">
        <ele>62.458397</ele>
        <time>2025-06-26T02:16:34.773Z</time>
      </trkpt>
      <trkpt lat="48.255525" lon="-1.540594">
        <ele>63.694381</ele>
        <time>2025-06-26T02:16:58.518Z</time>
      </trkpt>
      <trkpt lat="48.255590" lon="-1.543221">
        <ele>64.112177</ele>
        <time>2025-06-26T02:17:29.486Z</time>
      </trkpt>
      <trkpt lat="48.255867" lon="-1.549593">
        <ele>56.777873</ele>
        <time>2025-06-26T02:18:16.081Z</time>
      </trkpt>
      <trkpt lat="48.255876" lon="-1.549806">
        <ele>56.590005</ele>
        <time>2025-06-26T02:18:17.710Z</time>
      </trkpt>
      <trkpt lat="48.255952" lon="-1.551964">
        <ele>54.678832</ele>
        <time>2025-06-26T02:18:35.066Z</time>
      </trkpt>
      <trkpt lat="48.255923" lon="-1.552575">
        <ele>54.074074</ele>
        <time>2025-06-26T02:18:40.004Z</time>
      </trkpt>
      <trkpt lat="48.255757" lon="-1.553972">
        <ele>52.673052</ele>
        <time>2025-06-26T02:18:50.900Z</time>
      </trkpt>
      <trkpt lat="48.255566" lon="-1.554814">
        <ele>51.714698</ele>
        <time>2025-06-26T02:18:57.445Z</time>
      </trkpt>
      <trkpt lat="48.255503" lon="-1.555065">
        <ele>51.379039</ele>
        <time>2025-06-26T02:18:59.398Z</time>
      </trkpt>
      <trkpt lat="48.255439" lon="-1.555342">
        <ele>51.012145</ele>
        <time>2025-06-26T02:19:01.532Z</time>
      </trkpt>
      <trkpt lat="48.254793" lon="-1.558143">
        <ele>47.969053</ele>
        <time>2025-06-26T02:19:23.492Z</time>
      </trkpt>
      <trkpt lat="48.254750" lon="-1.558310">
        <ele>47.850765</ele>
        <time>2025-06-26T02:19:24.926Z</time>
      </trkpt>
      <trkpt lat="48.254503" lon="-1.559360">
        <ele>47.115081</ele>
        <time>2025-06-26T02:19:34.514Z</time>
      </trkpt>
      <trkpt lat="48.253532" lon="-1.563511">
        <ele>47.905617</ele>
        <time>2025-06-26T02:20:22.593Z</time>
      </trkpt>
      <trkpt lat="48.253406" lon="-1.564188">
        <ele>48.100131</ele>
        <time>2025-06-26T02:20:30.305Z</time>
      </trkpt>
      <trkpt lat="48.253362" lon="-1.564621">
        <ele>48.221335</ele>
        <time>2025-06-26T02:20:35.109Z</time>
      </trkpt>
      <trkpt lat="48.253351" lon="-1.565189">
        <ele>48.442352</ele>
        <time>2025-06-26T02:20:41.415Z</time>
      </trkpt>
      <trkpt lat="48.253389" lon="-1.566010">
        <ele>48.793495</ele>
        <time>2025-06-26T02:20:50.563Z</time>
      </trkpt>
      <trkpt lat="48.253634" lon="-1.569743">
        <ele>50.870205</ele>
        <time>2025-06-26T02:21:35.911Z</time>
      </trkpt>
      <trkpt lat="48.254010" lon="-1.575532">
        <ele>55.844606</ele>
        <time>2025-06-26T02:22:54.679Z</time>
      </trkpt>
      <trkpt lat="48.254096" lon="-1.576782">
        <ele>55.723070</ele>
        <time>2025-06-26T02:23:09.462Z</time>
      </trkpt>
      <trkpt lat="48.254138" lon="-1.577381">
        <ele>55.664818</ele>
        <time>2025-06-26T02:23:15.100Z</time>
      </trkpt>
      <trkpt lat="48.254465" lon="-1.582741">
        <ele>51.120428</ele>
        <time>2025-06-26T02:23:55.517Z</time>
      </trkpt>
      <trkpt lat="48.254547" lon="-1.583991">
        <ele>50.733280</ele>
        <time>2025-06-26T02:24:07.160Z</time>
      </trkpt>
      <trkpt lat="48.254420" lon="-1.584046">
        <ele>50.862296</ele>
        <time>2025-06-26T02:24:09.545Z</time>
      </trkpt>
      <trkpt lat="48.254503" lon="-1.584338">
        <ele>51.068641</ele>
        <time>2025-06-26T02:24:13.757Z</time>
      </trkpt>
      <trkpt lat="48.254588" lon="-1.584777">
        <ele>51.365772</ele>
        <time>2025-06-26T02:24:20.364Z</time>
      </trkpt>
      <trkpt lat="48.254695" lon="-1.586471">
        <ele>52.156406</ele>
        <time>2025-06-26T02:24:44.215Z</time>
      </trkpt>
      <trkpt lat="48.254894" lon="-1.590009">
        <ele>51.996695</ele>
        <time>2025-06-26T02:25:14.133Z</time>
      </trkpt>
      <trkpt lat="48.254963" lon="-1.591288">
        <ele>52.281188</ele>
        <time>2025-06-26T02:25:29.855Z</time>
      </trkpt>
      <trkpt lat="48.254956" lon="-1.592294">
        <ele>53.299044</ele>
        <time>2025-06-26T02:25:45.460Z</time>
      </trkpt>
      <trkpt lat="48.254922" lon="-1.593070">
        <ele>54.230503</ele>
        <time>2025-06-26T02:25:57.971Z</time>
      </trkpt>
      <trkpt lat="48.254876" lon="-1.593685">
        <ele>54.971750</ele>
        <time>2025-06-26T02:26:07.839Z</time>
      </trkpt>
      <trkpt lat="48.254649" lon="-1.595575">
        <ele>55.418574</ele>
        <time>2025-06-26T02:26:31.243Z</time>
      </trkpt>
      <trkpt lat="48.254443" lon="-1.597508">
        <ele>55.305525</ele>
        <time>2025-06-26T02:26:46.289Z</time>
      </trkpt>
      <trkpt lat="48.254422" lon="-1.597957">
        <ele>55.313439</ele>
        <time>2025-06-26T02:26:49.912Z</time>
      </trkpt>
      <trkpt lat="48.254430" lon="-1.598634">
        <ele>55.325346</ele>
        <time>2025-06-26T02:26:56.289Z</time>
      </trkpt>
      <trkpt lat="48.254507" lon="-1.599479">
        <ele>55.340343</ele>
        <time>2025-06-26T02:27:07.386Z</time>
      </trkpt>
      <trkpt lat="48.254740" lon="-1.600716">
        <ele>58.096875</ele>
        <time>2025-06-26T02:27:29.986Z</time>
      </trkpt>
      <trkpt lat="48.254685" lon="-1.600779">
        <ele>58.325839</ele>
        <time>2025-06-26T02:27:32.402Z</time>
      </trkpt>
      <trkpt lat="48.254634" lon="-1.600911">
        <ele>58.662196</ele>
        <time>2025-06-26T02:27:36.003Z</time>
      </trkpt>
      <trkpt lat="48.254551" lon="-1.601392">
        <ele>59.757328</ele>
        <time>2025-06-26T02:27:48.028Z</time>
      </trkpt>
      <trkpt lat="48.253951" lon="-1.603653">
        <ele>65.228460</ele>
        <time>2025-06-26T02:28:48.189Z</time>
      </trkpt>
      <trkpt lat="48.253633" lon="-1.604372">
        <ele>67.183940</ele>
        <time>2025-06-26T02:29:05.219Z</time>
      </trkpt>
      <trkpt lat="48.252931" lon="-1.604680">
        <ele>68.257034</ele>
        <time>2025-06-26T02:29:24.378Z</time>
      </trkpt>
      <trkpt lat="48.252779" lon="-1.604779">
        <ele>68.467386</ele>
        <time>2025-06-26T02:29:28.413Z</time>
      </trkpt>
      <trkpt lat="48.252214" lon="-1.605150">
        <ele>69.250303</ele>
        <time>2025-06-26T02:29:43.049Z</time>
      </trkpt>
      <trkpt lat="48.251932" lon="-1.605449">
        <ele>69.688580</ele>
        <time>2025-06-26T02:29:51.530Z</time>
      </trkpt>
      <trkpt lat="48.251884" lon="-1.605651">
        <ele>69.750370</ele>
        <time>2025-06-26T02:29:55.082Z</time>
      </trkpt>
      <trkpt lat="48.252143" lon="-1.606878">
        <ele>70.081117</ele>
        <time>2025-06-26T02:30:15.269Z</time>
      </trkpt>
      <trkpt lat="48.252311" lon="-1.608107">
        <ele>70.388260</ele>
        <time>2025-06-26T02:30:31.966Z</time>
      </trkpt>
      <trkpt lat="48.252136" lon="-1.608722">
        <ele>70.326792</ele>
        <time>2025-06-26T02:30:39.956Z</time>
      </trkpt>
      <trkpt lat="48.251543" lon="-1.610205">
        <ele>70.167804</ele>
        <time>2025-06-26T02:31:01.207Z</time>
      </trkpt>
      <trkpt lat="48.251331" lon="-1.610713">
        <ele>70.631540</ele>
        <time>2025-06-26T02:31:10.517Z</time>
      </trkpt>
      <trkpt lat="48.250258" lon="-1.612652">
        <ele>74.323954</ele>
        <time>2025-06-26T02:32:01.753Z</time>
      </trkpt>
      <trkpt lat="48.248840" lon="-1.615116">
        <ele>80.057534</ele>
        <time>2025-06-26T02:33:12.043Z</time>
      </trkpt>
      <trkpt lat="48.248381" lon="-1.615956">
        <ele>81.227038</ele>
        <time>2025-06-26T02:33:31.693Z</time>
      </trkpt>
      <trkpt lat="48.248075" lon="-1.616445">
        <ele>81.949266</ele>
        <time>2025-06-26T02:33:42.185Z</time>
      </trkpt>
      <trkpt lat="48.246642" lon="-1.617742">
        <ele>81.618868</ele>
        <time>2025-06-26T02:34:14.283Z</time>
      </trkpt>
      <trkpt lat="48.247106" lon="-1.618768">
        <ele>80.532228</ele>
        <time>2025-06-26T02:34:28.230Z</time>
      </trkpt>
      <trkpt lat="48.247280" lon="-1.619023">
        <ele>80.097389</ele>
        <time>2025-06-26T02:34:32.269Z</time>
      </trkpt>
      <trkpt lat="48.247333" lon="-1.619226">
        <ele>79.837697</ele>
        <time>2025-06-26T02:34:34.612Z</time>
      </trkpt>
      <trkpt lat="48.247419" lon="-1.619298">
        <ele>79.661595</ele>
        <time>2025-06-26T02:34:35.694Z</time>
      </trkpt>
      <trkpt lat="48.247485" lon="-1.619431">
        <ele>79.464047</ele>
        <time>2025-06-26T02:34:36.914Z</time>
      </trkpt>
      <trkpt lat="48.247626" lon="-1.619819">
        <ele>78.937607</ele>
        <time>2025-06-26T02:34:40.110Z</time>
      </trkpt>
      <trkpt lat="48.247758" lon="-1.620173">
        <ele>78.454396</ele>
        <time>2025-06-26T02:34:42.989Z</time>
      </trkpt>
      <trkpt lat="48.247804" lon="-1.620502">
        <ele>77.864397</ele>
        <time>2025-06-26T02:34:45.326Z</time>
      </trkpt>
      <trkpt lat="48.247725" lon="-1.621664">
        <ele>75.389354</ele>
        <time>2025-06-26T02:34:53.310Z</time>
      </trkpt>
      <trkpt lat="48.247713" lon="-1.621830">
        <ele>75.035539</ele>
        <time>2025-06-26T02:34:54.414Z</time>
      </trkpt>
      <trkpt lat="48.247625" lon="-1.623203">
        <ele>72.093768</ele>
        <time>2025-06-26T02:35:03.529Z</time>
      </trkpt>
      <trkpt lat="48.247321" lon="-1.627653">
        <ele>63.743089</ele>
        <time>2025-06-26T02:35:33.634Z</time>
      </trkpt>
      <trkpt lat="48.247086" lon="-1.631058">
        <ele>63.793771</ele>
        <time>2025-06-26T02:36:11.702Z</time>
      </trkpt>
      <trkpt lat="48.247003" lon="-1.632078">
        <ele>65.113430</ele>
        <time>2025-06-26T02:36:28.166Z</time>
      </trkpt>
      <trkpt lat="48.247005" lon="-1.632366">
        <ele>65.483308</ele>
        <time>2025-06-26T02:36:33.008Z</time>
      </trkpt>
      <trkpt lat="48.247133" lon="-1.633266">
        <ele>66.665181</ele>
        <time>2025-06-26T02:36:48.160Z</time>
      </trkpt>
      <trkpt lat="48.247171" lon="-1.633803">
        <ele>67.286507</ele>
        <time>2025-06-26T02:36:56.336Z</time>
      </trkpt>
      <trkpt lat="48.247734" lon="-1.641348">
        <ele>70.404316</ele>
        <time>2025-06-26T02:38:22.508Z</time>
      </trkpt>
      <trkpt lat="48.247764" lon="-1.641805">
        <ele>70.568570</ele>
        <time>2025-06-26T02:38:26.886Z</time>
      </trkpt>
      <trkpt lat="48.247944" lon="-1.644212">
        <ele>72.354627</ele>
        <time>2025-06-26T02:38:55.280Z</time>
      </trkpt>
      <trkpt lat="48.247963" lon="-1.644442">
        <ele>72.525527</ele>
        <time>2025-06-26T02:38:59.312Z</time>
      </trkpt>
      <trkpt lat="48.248044" lon="-1.645564">
        <ele>74.938856</ele>
        <time>2025-06-26T02:39:21.253Z</time>
      </trkpt>
      <trkpt lat="48.248084" lon="-1.646078">
        <ele>76.053625</ele>
        <time>2025-06-26T02:39:32.526Z</time>
      </trkpt>
      <trkpt lat="48.248256" lon="-1.648479">
        <ele>80.200084</ele>
        <time>2025-06-26T02:40:15.822Z</time>
      </trkpt>
      <trkpt lat="48.248350" lon="-1.649814">
        <ele>82.040230</ele>
        <time>2025-06-26T02:40:33.515Z</time>
      </trkpt>
      <trkpt lat="48.248445" lon="-1.651150">
        <ele>82.356850</ele>
        <time>2025-06-26T02:40:48.850Z</time>
      </trkpt>
      <trkpt lat="48.248466" lon="-1.651416">
        <ele>82.417396</ele>
        <time>2025-06-26T02:40:51.983Z</time>
      </trkpt>
      <trkpt lat="48.248562" lon="-1.653025">
        <ele>82.514392</ele>
        <time>2025-06-26T02:41:13.123Z</time>
      </trkpt>
      <trkpt lat="48.248603" lon="-1.653207">
        <ele>82.457694</ele>
        <time>2025-06-26T02:41:15.372Z</time>
      </trkpt>
      <trkpt lat="48.248670" lon="-1.653376">
        <ele>82.399653</ele>
        <time>2025-06-26T02:41:17.702Z</time>
      </trkpt>
      <trkpt lat="48.248619" lon="-1.653529">
        <ele>82.349163</ele>
        <time>2025-06-26T02:41:19.157Z</time>
      </trkpt>
      <trkpt lat="48.248600" lon="-1.653692">
        <ele>82.300331</ele>
        <time>2025-06-26T02:41:20.604Z</time>
      </trkpt>
      <trkpt lat="48.248646" lon="-1.654654">
        <ele>82.015717</ele>
        <time>2025-06-26T02:41:29.466Z</time>
      </trkpt>
      <trkpt lat="48.248730" lon="-1.656134">
        <ele>81.388192</ele>
        <time>2025-06-26T02:41:42.258Z</time>
      </trkpt>
      <trkpt lat="48.248820" lon="-1.657746">
        <ele>80.601279</ele>
        <time>2025-06-26T02:41:55.686Z</time>
      </trkpt>
      <trkpt lat="48.248857" lon="-1.658344">
        <ele>80.295723</ele>
        <time>2025-06-26T02:42:00.612Z</time>
      </trkpt>
      <trkpt lat="48.248903" lon="-1.658985">
        <ele>79.965017</ele>
        <time>2025-06-26T02:42:06.291Z</time>
      </trkpt>
      <trkpt lat="48.248886" lon="-1.659714">
        <ele>79.590846</ele>
        <time>2025-06-26T02:42:14.012Z</time>
      </trkpt>
      <trkpt lat="48.248863" lon="-1.660081">
        <ele>79.401761</ele>
        <time>2025-06-26T02:42:17.107Z</time>
      </trkpt>
      <trkpt lat="48.248857" lon="-1.660180">
        <ele>79.350769</ele>
        <time>2025-06-26T02:42:17.876Z</time>
      </trkpt>
      <trkpt lat="48.248806" lon="-1.660959">
        <ele>78.295695</ele>
        <time>2025-06-26T02:42:23.754Z</time>
      </trkpt>
      <trkpt lat="48.248750" lon="-1.661600">
        <ele>76.980849</ele>
        <time>2025-06-26T02:42:28.297Z</time>
      </trkpt>
      <trkpt lat="48.248702" lon="-1.662188">
        <ele>75.776014</ele>
        <time>2025-06-26T02:42:32.267Z</time>
      </trkpt>
      <trkpt lat="48.248648" lon="-1.662920">
        <ele>74.278153</ele>
        <time>2025-06-26T02:42:36.913Z</time>
      </trkpt>
      <trkpt lat="48.248616" lon="-1.663359">
        <ele>73.295220</ele>
        <time>2025-06-26T02:42:39.839Z</time>
      </trkpt>
      <trkpt lat="48.248599" lon="-1.663602">
        <ele>72.656102</ele>
        <time>2025-06-26T02:42:41.511Z</time>
      </trkpt>
      <trkpt lat="48.248562" lon="-1.663735">
        <ele>72.279071</ele>
        <time>2025-06-26T02:42:42.494Z</time>
      </trkpt>
      <trkpt lat="48.248485" lon="-1.663793">
        <ele>71.940691</ele>
        <time>2025-06-26T02:42:43.385Z</time>
      </trkpt>
      <trkpt lat="48.248406" lon="-1.663776">
        <ele>71.627201</ele>
        <time>2025-06-26T02:42:44.201Z</time>
      </trkpt>
      <trkpt lat="48.248338" lon="-1.663656">
        <ele>71.215044</ele>
        <time>2025-06-26T02:42:45.279Z</time>
      </trkpt>
      <trkpt lat="48.248318" lon="-1.663065">
        <ele>69.667148</ele>
        <time>2025-06-26T02:42:49.260Z</time>
      </trkpt>
      <trkpt lat="48.248303" lon="-1.662502">
        <ele>68.193309</ele>
        <time>2025-06-26T02:42:52.857Z</time>
      </trkpt>
      <trkpt lat="48.248272" lon="-1.661770">
        <ele>66.150301</ele>
        <time>2025-06-26T02:42:57.577Z</time>
      </trkpt>
      <trkpt lat="48.248214" lon="-1.661590">
        <ele>65.433683</ele>
        <time>2025-06-26T02:42:58.843Z</time>
      </trkpt>
      <trkpt lat="48.248112" lon="-1.661520">
        <ele>64.830143</ele>
        <time>2025-06-26T02:42:59.891Z</time>
      </trkpt>
      <trkpt lat="48.247999" lon="-1.661542">
        <ele>64.216921</ele>
        <time>2025-06-26T02:43:00.954Z</time>
      </trkpt>
      <trkpt lat="48.247932" lon="-1.661629">
        <ele>63.740241</ele>
        <time>2025-06-26T02:43:01.767Z</time>
      </trkpt>
      <trkpt lat="48.247888" lon="-1.661758">
        <ele>63.220824</ele>
        <time>2025-06-26T02:43:02.648Z</time>
      </trkpt>
      <trkpt lat="48.247857" lon="-1.661966">
        <ele>62.456966</ele>
        <time>2025-06-26T02:43:03.935Z</time>
      </trkpt>
      <trkpt lat="48.247838" lon="-1.662314">
        <ele>61.205642</ele>
        <time>2025-06-26T02:43:06.050Z</time>
      </trkpt>
      <trkpt lat="48.247669" lon="-1.664670">
        <ele>53.639453</ele>
        <time>2025-06-26T02:43:20.831Z</time>
      </trkpt>
      <trkpt lat="48.247665" lon="-1.664752">
        <ele>53.409487</ele>
        <time>2025-06-26T02:43:21.362Z</time>
      </trkpt>
      <trkpt lat="48.247655" lon="-1.664855">
        <ele>53.118354</ele>
        <time>2025-06-26T02:43:22.030Z</time>
      </trkpt>
      <trkpt lat="48.247636" lon="-1.665103">
        <ele>52.420130</ele>
        <time>2025-06-26T02:43:23.639Z</time>
      </trkpt>
      <trkpt lat="48.247598" lon="-1.665496">
        <ele>51.309393</ele>
        <time>2025-06-26T02:43:26.216Z</time>
      </trkpt>
      <trkpt lat="48.247535" lon="-1.666178">
        <ele>49.383591</ele>
        <time>2025-06-26T02:43:30.764Z</time>
      </trkpt>
      <trkpt lat="48.247532" lon="-1.666414">
        <ele>49.181241</ele>
        <time>2025-06-26T02:43:32.502Z</time>
      </trkpt>
      <trkpt lat="48.247593" lon="-1.666769">
        <ele>48.874680</ele>
        <time>2025-06-26T02:43:35.432Z</time>
      </trkpt>
      <trkpt lat="48.247620" lon="-1.666867">
        <ele>48.786000</ele>
        <time>2025-06-26T02:43:36.258Z</time>
      </trkpt>
      <trkpt lat="48.247752" lon="-1.667090">
        <ele>48.536519</ele>
        <time>2025-06-26T02:43:38.566Z</time>
      </trkpt>
      <trkpt lat="48.247972" lon="-1.667392">
        <ele>48.162249</ele>
        <time>2025-06-26T02:43:42.061Z</time>
      </trkpt>
      <trkpt lat="48.248034" lon="-1.667474">
        <ele>48.058509</ele>
        <time>2025-06-26T02:43:43.052Z</time>
      </trkpt>
      <trkpt lat="48.248251" lon="-1.667759">
        <ele>47.696524</ele>
        <time>2025-06-26T02:43:46.520Z</time>
      </trkpt>
      <trkpt lat="48.248206" lon="-1.667901">
        <ele>47.565030</ele>
        <time>2025-06-26T02:43:47.777Z</time>
      </trkpt>
      <trkpt lat="48.247983" lon="-1.668243">
        <ele>47.164802</ele>
        <time>2025-06-26T02:43:52.248Z</time>
      </trkpt>
      <trkpt lat="48.247416" lon="-1.668950">
        <ele>47.733880</ele>
        <time>2025-06-26T02:44:04.507Z</time>
      </trkpt>
      <trkpt lat="48.247260" lon="-1.669163">
        <ele>47.919463</ele>
        <time>2025-06-26T02:44:07.563Z</time>
      </trkpt>
      <trkpt lat="48.247430" lon="-1.669455">
        <ele>48.146803</ele>
        <time>2025-06-26T02:44:12.036Z</time>
      </trkpt>
      <trkpt lat="48.247485" lon="-1.669609">
        <ele>48.249231</ele>
        <time>2025-06-26T02:44:14.300Z</time>
      </trkpt>
      <trkpt lat="48.247622" lon="-1.670251">
        <ele>48.644379</ele>
        <time>2025-06-26T02:44:23.975Z</time>
      </trkpt>
      <trkpt lat="48.247675" lon="-1.670881">
        <ele>49.578900</ele>
        <time>2025-06-26T02:44:34.782Z</time>
      </trkpt>
      <trkpt lat="48.247667" lon="-1.671179">
        <ele>50.065357</ele>
        <time>2025-06-26T02:44:40.037Z</time>
      </trkpt>
      <trkpt lat="48.247602" lon="-1.671714">
        <ele>50.952392</ele>
        <time>2025-06-26T02:44:50.082Z</time>
      </trkpt>
      <trkpt lat="48.247286" lon="-1.673554">
        <ele>53.232775</ele>
        <time>2025-06-26T02:45:21.659Z</time>
      </trkpt>
      <trkpt lat="48.246953" lon="-1.675549">
        <ele>53.680133</ele>
        <time>2025-06-26T02:45:39.989Z</time>
      </trkpt>
      <trkpt lat="48.246834" lon="-1.677100">
        <ele>54.201166</ele>
        <time>2025-06-26T02:45:53.968Z</time>
      </trkpt>
      <trkpt lat="48.246791" lon="-1.677382">
        <ele>54.299171</ele>
        <time>2025-06-26T02:45:57.492Z</time>
      </trkpt>
      <trkpt lat="48.246343" lon="-1.679462">
        <ele>55.607934</ele>
        <time>2025-06-26T02:46:29.476Z</time>
      </trkpt>
      <trkpt lat="48.246260" lon="-1.680001">
        <ele>56.042704</ele>
        <time>2025-06-26T02:46:36.895Z</time>
      </trkpt>
      <trkpt lat="48.246276" lon="-1.680696">
        <ele>56.589221</ele>
        <time>2025-06-26T02:46:45.268Z</time>
      </trkpt>
      <trkpt lat="48.246462" lon="-1.683317">
        <ele>56.802209</ele>
        <time>2025-06-26T02:47:10.873Z</time>
      </trkpt>
      <trkpt lat="48.246567" lon="-1.684797">
        <ele>57.238503</ele>
        <time>2025-06-26T02:47:25.368Z</time>
      </trkpt>
      <trkpt lat="48.246609" lon="-1.685708">
        <ele>57.554159</ele>
        <time>2025-06-26T02:47:35.567Z</time>
      </trkpt>
      <trkpt lat="48.246741" lon="-1.689118">
        <ele>61.003153</ele>
        <time>2025-06-26T02:48:23.472Z</time>
      </trkpt>
      <trkpt lat="48.246815" lon="-1.689734">
        <ele>62.195274</ele>
        <time>2025-06-26T02:48:34.590Z</time>
      </trkpt>
      <trkpt lat="48.246899" lon="-1.690000">
        <ele>62.755952</ele>
        <time>2025-06-26T02:48:40.174Z</time>
      </trkpt>
      <trkpt lat="48.247534" lon="-1.691611">
        <ele>66.134582</ele>
        <time>2025-06-26T02:49:15.019Z</time>
      </trkpt>
      <trkpt lat="48.247597" lon="-1.691896">
        <ele>66.490952</ele>
        <time>2025-06-26T02:49:19.811Z</time>
      </trkpt>
      <trkpt lat="48.247630" lon="-1.692169">
        <ele>66.820227</ele>
        <time>2025-06-26T02:49:23.907Z</time>
      </trkpt>
      <trkpt lat="48.247652" lon="-1.692981">
        <ele>67.784659</ele>
        <time>2025-06-26T02:49:34.915Z</time>
      </trkpt>
      <trkpt lat="48.247641" lon="-1.694088">
        <ele>69.071946</ele>
        <time>2025-06-26T02:49:49.153Z</time>
      </trkpt>
      <trkpt lat="48.247396" lon="-1.696025">
        <ele>70.487028</ele>
        <time>2025-06-26T02:50:17.065Z</time>
      </trkpt>
      <trkpt lat="48.247168" lon="-1.697851">
        <ele>71.145893</ele>
        <time>2025-06-26T02:50:35.292Z</time>
      </trkpt>
      <trkpt lat="48.246795" lon="-1.699365">
        <ele>71.395138</ele>
        <time>2025-06-26T02:50:52.301Z</time>
      </trkpt>
      <trkpt lat="48.246760" lon="-1.699665">
        <ele>71.469604</ele>
        <time>2025-06-26T02:50:55.940Z</time>
      </trkpt>
      <trkpt lat="48.246765" lon="-1.699989">
        <ele>71.548841</ele>
        <time>2025-06-26T02:50:59.776Z</time>
      </trkpt>
      <trkpt lat="48.246826" lon="-1.700641">
        <ele>71.709817</ele>
        <time>2025-06-26T02:51:07.338Z</time>
      </trkpt>
      <trkpt lat="48.246839" lon="-1.700774">
        <ele>71.742683</ele>
        <time>2025-06-26T02:51:08.791Z</time>
      </trkpt>
      <trkpt lat="48.247076" lon="-1.703456">
        <ele>72.494899</ele>
        <time>2025-06-26T02:51:36.471Z</time>
      </trkpt>
      <trkpt lat="48.247157" lon="-1.704470">
        <ele>72.805378</ele>
        <time>2025-06-26T02:51:48.166Z</time>
      </trkpt>
      <trkpt lat="48.247136" lon="-1.705363">
        <ele>73.649842</ele>
        <time>2025-06-26T02:51:59.839Z</time>
      </trkpt>
      <trkpt lat="48.246519" lon="-1.712577">
        <ele>81.701113</ele>
        <time>2025-06-26T02:53:45.298Z</time>
      </trkpt>
      <trkpt lat="48.246468" lon="-1.712823">
        <ele>82.025030</ele>
        <time>2025-06-26T02:53:48.972Z</time>
      </trkpt>
      <trkpt lat="48.246373" lon="-1.713057">
        <ele>82.384932</ele>
        <time>2025-06-26T02:53:52.843Z</time>
      </trkpt>
      <trkpt lat="48.245608" lon="-1.714384">
        <ele>84.689893</ele>
        <time>2025-06-26T02:54:18.735Z</time>
      </trkpt>
      <trkpt lat="48.245535" lon="-1.714557">
        <ele>84.958857</ele>
        <time>2025-06-26T02:54:21.995Z</time>
      </trkpt>
      <trkpt lat="48.245455" lon="-1.714960">
        <ele>85.554457</ele>
        <time>2025-06-26T02:54:28.959Z</time>
      </trkpt>
      <trkpt lat="48.245318" lon="-1.717116">
        <ele>89.181957</ele>
        <time>2025-06-26T02:55:06.887Z</time>
      </trkpt>
      <trkpt lat="48.245285" lon="-1.717882">
        <ele>90.024416</ele>
        <time>2025-06-26T02:55:18.333Z</time>
      </trkpt>
      <trkpt lat="48.245303" lon="-1.718129">
        <ele>90.128037</ele>
        <time>2025-06-26T02:55:21.665Z</time>
      </trkpt>
      <trkpt lat="48.245292" lon="-1.718363">
        <ele>90.225864</ele>
        <time>2025-06-26T02:55:24.591Z</time>
      </trkpt>
      <trkpt lat="48.245245" lon="-1.718579">
        <ele>90.320628</ele>
        <time>2025-06-26T02:55:27.265Z</time>
      </trkpt>
      <trkpt lat="48.245226" lon="-1.718913">
        <ele>90.460422</ele>
        <time>2025-06-26T02:55:30.808Z</time>
      </trkpt>
      <trkpt lat="48.245241" lon="-1.718995">
        <ele>90.495885</ele>
        <time>2025-06-26T02:55:31.657Z</time>
      </trkpt>
      <trkpt lat="48.245252" lon="-1.719062">
        <ele>90.524663</ele>
        <time>2025-06-26T02:55:32.351Z</time>
      </trkpt>
      <trkpt lat="48.245319" lon="-1.719324">
        <ele>90.641703</ele>
        <time>2025-06-26T02:55:35.039Z</time>
      </trkpt>
      <trkpt lat="48.245592" lon="-1.720390">
        <ele>91.066705</ele>
        <time>2025-06-26T02:55:45.961Z</time>
      </trkpt>
      <trkpt lat="48.245637" lon="-1.720576">
        <ele>91.112158</ele>
        <time>2025-06-26T02:55:48.011Z</time>
      </trkpt>
      <trkpt lat="48.245716" lon="-1.720875">
        <ele>91.186042</ele>
        <time>2025-06-26T02:55:51.342Z</time>
      </trkpt>
      <trkpt lat="48.245885" lon="-1.721542">
        <ele>91.349956</ele>
        <time>2025-06-26T02:55:58.950Z</time>
      </trkpt>
      <trkpt lat="48.245940" lon="-1.721815">
        <ele>91.415466</ele>
        <time>2025-06-26T02:56:02.116Z</time>
      </trkpt>
      <trkpt lat="48.245950" lon="-1.721856">
        <ele>91.425495</ele>
        <time>2025-06-26T02:56:02.587Z</time>
      </trkpt>
      <trkpt lat="48.246052" lon="-1.722275">
        <ele>91.527961</ele>
        <time>2025-06-26T02:56:07.390Z</time>
      </trkpt>
      <trkpt lat="48.246279" lon="-1.723181">
        <ele>92.371892</ele>
        <time>2025-06-26T02:56:18.722Z</time>
      </trkpt>
      <trkpt lat="48.246321" lon="-1.723335">
        <ele>92.598516</ele>
        <time>2025-06-26T02:56:20.917Z</time>
      </trkpt>
      <trkpt lat="48.246406" lon="-1.723668">
        <ele>93.084168</ele>
        <time>2025-06-26T02:56:25.888Z</time>
      </trkpt>
      <trkpt lat="48.246489" lon="-1.724014">
        <ele>93.584990</ele>
        <time>2025-06-26T02:56:31.516Z</time>
      </trkpt>
      <trkpt lat="48.246669" lon="-1.724755">
        <ele>94.659121</ele>
        <time>2025-06-26T02:56:44.369Z</time>
      </trkpt>
      <trkpt lat="48.246859" lon="-1.725475">
        <ele>96.219739</ele>
        <time>2025-06-26T02:56:58.541Z</time>
      </trkpt>
      <trkpt lat="48.246869" lon="-1.725548">
        <ele>96.446036</ele>
        <time>2025-06-26T02:56:59.974Z</time>
      </trkpt>
      <trkpt lat="48.246891" lon="-1.725710">
        <ele>96.948055</ele>
        <time>2025-06-26T02:57:03.574Z</time>
      </trkpt>
      <trkpt lat="48.246873" lon="-1.726055">
        <ele>97.998817</ele>
        <time>2025-06-26T02:57:11.027Z</time>
      </trkpt>
      <trkpt lat="48.246852" lon="-1.726243">
        <ele>98.577633</ele>
        <time>2025-06-26T02:57:15.212Z</time>
      </trkpt>
      <trkpt lat="48.246815" lon="-1.726709">
        <ele>100.002611</ele>
        <time>2025-06-26T02:57:25.876Z</time>
      </trkpt>
      <trkpt lat="48.246818" lon="-1.726956">
        <ele>100.752724</ele>
        <time>2025-06-26T02:57:31.677Z</time>
      </trkpt>
      <trkpt lat="48.246831" lon="-1.727027">
        <ele>100.976308</ele>
        <time>2025-06-26T02:57:33.417Z</time>
      </trkpt>
      <trkpt lat="48.246823" lon="-1.727215">
        <ele>101.548313</ele>
        <time>2025-06-26T02:57:37.870Z</time>
      </trkpt>
      <trkpt lat="48.246907" lon="-1.727795">
        <ele>103.350585</ele>
        <time>2025-06-26T02:57:52.410Z</time>
      </trkpt>
      <trkpt lat="48.246941" lon="-1.727885">
        <ele>103.635065</ele>
        <time>2025-06-26T02:57:54.942Z</time>
      </trkpt>
      <trkpt lat="48.247053" lon="-1.728094">
        <ele>104.299528</ele>
        <time>2025-06-26T02:58:01.522Z</time>
      </trkpt>
      <trkpt lat="48.247282" lon="-1.728742">
        <ele>106.116531</ele>
        <time>2025-06-26T02:58:18.881Z</time>
      </trkpt>
      <trkpt lat="48.247353" lon="-1.729003">
        <ele>106.814845</ele>
        <time>2025-06-26T02:58:25.102Z</time>
      </trkpt>
      <trkpt lat="48.247405" lon="-1.729287">
        <ele>107.544372</ele>
        <time>2025-06-26T02:58:31.087Z</time>
      </trkpt>
      <trkpt lat="48.247419" lon="-1.729590">
        <ele>108.296657</ele>
        <time>2025-06-26T02:58:36.763Z</time>
      </trkpt>
      <trkpt lat="48.247411" lon="-1.729692">
        <ele>108.551041</ele>
        <time>2025-06-26T02:58:38.563Z</time>
      </trkpt>
      <trkpt lat="48.247405" lon="-1.729770">
        <ele>108.745519</ele>
        <time>2025-06-26T02:58:39.873Z</time>
      </trkpt>
      <trkpt lat="48.247384" lon="-1.730096">
        <ele>109.556736</ele>
        <time>2025-06-26T02:58:44.961Z</time>
      </trkpt>
      <trkpt lat="48.247363" lon="-1.730575">
        <ele>110.356813</ele>
        <time>2025-06-26T02:58:51.037Z</time>
      </trkpt>
      <trkpt lat="48.247300" lon="-1.731390">
        <ele>110.957770</ele>
        <time>2025-06-26T02:59:00.272Z</time>
      </trkpt>
      <trkpt lat="48.247250" lon="-1.731954">
        <ele>111.374518</ele>
        <time>2025-06-26T02:59:07.225Z</time>
      </trkpt>
      <trkpt lat="48.247240" lon="-1.732083">
        <ele>111.469642</ele>
        <time>2025-06-26T02:59:08.839Z</time>
      </trkpt>
      <trkpt lat="48.247207" lon="-1.732661">
        <ele>111.894553</ele>
        <time>2025-06-26T02:59:16.313Z</time>
      </trkpt>
      <trkpt lat="48.247217" lon="-1.732908">
        <ele>112.075803</ele>
        <time>2025-06-26T02:59:19.578Z</time>
      </trkpt>
      <trkpt lat="48.247261" lon="-1.733236">
        <ele>112.289405</ele>
        <time>2025-06-26T02:59:24.084Z</time>
      </trkpt>
      <trkpt lat="48.247341" lon="-1.733590">
        <ele>112.505389</ele>
        <time>2025-06-26T02:59:29.227Z</time>
      </trkpt>
      <trkpt lat="48.247390" lon="-1.733717">
        <ele>112.590191</ele>
        <time>2025-06-26T02:59:31.238Z</time>
      </trkpt>
      <trkpt lat="48.247579" lon="-1.734374">
        <ele>113.003682</ele>
        <time>2025-06-26T02:59:40.668Z</time>
      </trkpt>
      <trkpt lat="48.247676" lon="-1.734918">
        <ele>113.329054</ele>
        <time>2025-06-26T02:59:47.366Z</time>
      </trkpt>
      <trkpt lat="48.247646" lon="-1.735540">
        <ele>113.689359</ele>
        <time>2025-06-26T02:59:53.961Z</time>
      </trkpt>
      <trkpt lat="48.247577" lon="-1.736312">
        <ele>113.872090</ele>
        <time>2025-06-26T03:00:01.830Z</time>
      </trkpt>
      <trkpt lat="48.247617" lon="-1.737044">
        <ele>114.017733</ele>
        <time>2025-06-26T03:00:09.290Z</time>
      </trkpt>
      <trkpt lat="48.247823" lon="-1.738972">
        <ele>114.256167</ele>
        <time>2025-06-26T03:00:30.825Z</time>
      </trkpt>
      <trkpt lat="48.248112" lon="-1.740624">
        <ele>114.226865</ele>
        <time>2025-06-26T03:00:48.202Z</time>
      </trkpt>
      <trkpt lat="48.248173" lon="-1.741072">
        <ele>114.025941</ele>
        <time>2025-06-26T03:00:52.239Z</time>
      </trkpt>
      <trkpt lat="48.248338" lon="-1.742367">
        <ele>112.358860</ele>
        <time>2025-06-26T03:01:02.321Z</time>
      </trkpt>
      <trkpt lat="48.248542" lon="-1.744084">
        <ele>110.373931</ele>
        <time>2025-06-26T03:01:14.334Z</time>
      </trkpt>
      <trkpt lat="48.248630" lon="-1.744508">
        <ele>110.001874</ele>
        <time>2025-06-26T03:01:17.435Z</time>
      </trkpt>
      <trkpt lat="48.248726" lon="-1.744747">
        <ele>109.768048</ele>
        <time>2025-06-26T03:01:19.475Z</time>
      </trkpt>
      <trkpt lat="48.248847" lon="-1.744944">
        <ele>109.543529</ele>
        <time>2025-06-26T03:01:21.523Z</time>
      </trkpt>
      <trkpt lat="48.249030" lon="-1.745125">
        <ele>109.267856</ele>
        <time>2025-06-26T03:01:24.189Z</time>
      </trkpt>
      <trkpt lat="48.249330" lon="-1.745357">
        <ele>108.843335</ele>
        <time>2025-06-26T03:01:28.984Z</time>
      </trkpt>
      <trkpt lat="48.249839" lon="-1.745743">
        <ele>108.852466</ele>
        <time>2025-06-26T03:01:39.532Z</time>
      </trkpt>
      <trkpt lat="48.249951" lon="-1.745890">
        <ele>108.990783</ele>
        <time>2025-06-26T03:01:42.615Z</time>
      </trkpt>
      <trkpt lat="48.250077" lon="-1.746106">
        <ele>109.168591</ele>
        <time>2025-06-26T03:01:46.775Z</time>
      </trkpt>
      <trkpt lat="48.250223" lon="-1.746603">
        <ele>109.504944</ele>
        <time>2025-06-26T03:01:54.629Z</time>
      </trkpt>
      <trkpt lat="48.250320" lon="-1.747167">
        <ele>109.865627</ele>
        <time>2025-06-26T03:02:02.289Z</time>
      </trkpt>
      <trkpt lat="48.250459" lon="-1.748007">
        <ele>110.003856</ele>
        <time>2025-06-26T03:02:11.762Z</time>
      </trkpt>
      <trkpt lat="48.250541" lon="-1.748498">
        <ele>109.644692</ele>
        <time>2025-06-26T03:02:16.231Z</time>
      </trkpt>
      <trkpt lat="48.250685" lon="-1.749417">
        <ele>108.974834</ele>
        <time>2025-06-26T03:02:23.901Z</time>
      </trkpt>
      <trkpt lat="48.250705" lon="-1.749901">
        <ele>108.630767</ele>
        <time>2025-06-26T03:02:27.551Z</time>
      </trkpt>
      <trkpt lat="48.250678" lon="-1.750254">
        <ele>108.378660</ele>
        <time>2025-06-26T03:02:30.141Z</time>
      </trkpt>
      <trkpt lat="48.250527" lon="-1.751232">
        <ele>106.760486</ele>
        <time>2025-06-26T03:02:37.116Z</time>
      </trkpt>
      <trkpt lat="48.250508" lon="-1.751375">
        <ele>106.509048</ele>
        <time>2025-06-26T03:02:38.113Z</time>
      </trkpt>
      <trkpt lat="48.250476" lon="-1.752665">
        <ele>104.283138</ele>
        <time>2025-06-26T03:02:46.917Z</time>
      </trkpt>
      <trkpt lat="48.250532" lon="-1.753544">
        <ele>103.410946</ele>
        <time>2025-06-26T03:02:53.259Z</time>
      </trkpt>
      <trkpt lat="48.250452" lon="-1.754020">
        <ele>103.189035</ele>
        <time>2025-06-26T03:02:57.138Z</time>
      </trkpt>
      <trkpt lat="48.250427" lon="-1.754437">
        <ele>102.999779</ele>
        <time>2025-06-26T03:03:00.836Z</time>
      </trkpt>
      <trkpt lat="48.250473" lon="-1.754979">
        <ele>102.752801</ele>
        <time>2025-06-26T03:03:06.291Z</time>
      </trkpt>
      <trkpt lat="48.250488" lon="-1.755778">
        <ele>102.431449</ele>
        <time>2025-06-26T03:03:15.095Z</time>
      </trkpt>
      <trkpt lat="48.250524" lon="-1.756268">
        <ele>102.510027</ele>
        <time>2025-06-26T03:03:20.680Z</time>
      </trkpt>
      <trkpt lat="48.250583" lon="-1.756993">
        <ele>102.626449</ele>
        <time>2025-06-26T03:03:28.739Z</time>
      </trkpt>
      <trkpt lat="48.250919" lon="-1.759682">
        <ele>102.715148</ele>
        <time>2025-06-26T03:03:56.155Z</time>
      </trkpt>
      <trkpt lat="48.251189" lon="-1.762200">
        <ele>101.905595</ele>
        <time>2025-06-26T03:04:19.277Z</time>
      </trkpt>
      <trkpt lat="48.251438" lon="-1.763997">
        <ele>100.605652</ele>
        <time>2025-06-26T03:04:34.217Z</time>
      </trkpt>
      <trkpt lat="48.251729" lon="-1.766126">
        <ele>97.562139</ele>
        <time>2025-06-26T03:04:49.586Z</time>
      </trkpt>
      <trkpt lat="48.251764" lon="-1.766717">
        <ele>96.615413</ele>
        <time>2025-06-26T03:04:53.886Z</time>
      </trkpt>
      <trkpt lat="48.251769" lon="-1.767299">
        <ele>95.619320</ele>
        <time>2025-06-26T03:04:58.137Z</time>
      </trkpt>
      <trkpt lat="48.251768" lon="-1.767672">
        <ele>94.980979</ele>
        <time>2025-06-26T03:05:00.806Z</time>
      </trkpt>
      <trkpt lat="48.251768" lon="-1.767719">
        <ele>94.900545</ele>
        <time>2025-06-26T03:05:01.141Z</time>
      </trkpt>
      <trkpt lat="48.251761" lon="-1.768401">
        <ele>93.733261</ele>
        <time>2025-06-26T03:05:05.922Z</time>
      </trkpt>
      <trkpt lat="48.251734" lon="-1.768820">
        <ele>93.012852</ele>
        <time>2025-06-26T03:05:08.772Z</time>
      </trkpt>
      <trkpt lat="48.251671" lon="-1.769246">
        <ele>92.308271</ele>
        <time>2025-06-26T03:05:11.673Z</time>
      </trkpt>
      <trkpt lat="48.251452" lon="-1.770268">
        <ele>90.684002</ele>
        <time>2025-06-26T03:05:18.884Z</time>
      </trkpt>
      <trkpt lat="48.251416" lon="-1.770433">
        <ele>90.421315</ele>
        <time>2025-06-26T03:05:20.070Z</time>
      </trkpt>
      <trkpt lat="48.251380" lon="-1.770676">
        <ele>90.044692</ele>
        <time>2025-06-26T03:05:21.806Z</time>
      </trkpt>
      <trkpt lat="48.251343" lon="-1.771081">
        <ele>89.426228</ele>
        <time>2025-06-26T03:05:24.785Z</time>
      </trkpt>
      <trkpt lat="48.251408" lon="-1.771207">
        <ele>89.185087</ele>
        <time>2025-06-26T03:05:26.047Z</time>
      </trkpt>
      <trkpt lat="48.251423" lon="-1.771364">
        <ele>88.945130</ele>
        <time>2025-06-26T03:05:27.416Z</time>
      </trkpt>
      <trkpt lat="48.251392" lon="-1.771497">
        <ele>88.731943</ele>
        <time>2025-06-26T03:05:28.686Z</time>
      </trkpt>
      <trkpt lat="48.251325" lon="-1.771596">
        <ele>88.543077</ele>
        <time>2025-06-26T03:05:30.055Z</time>
      </trkpt>
      <trkpt lat="48.251239" lon="-1.771642">
        <ele>88.539947</ele>
        <time>2025-06-26T03:05:31.394Z</time>
      </trkpt>
      <trkpt lat="48.251173" lon="-1.771749">
        <ele>88.536617</ele>
        <time>2025-06-26T03:05:32.856Z</time>
      </trkpt>
      <trkpt lat="48.251140" lon="-1.771869">
        <ele>88.533653</ele>
        <time>2025-06-26T03:05:34.160Z</time>
      </trkpt>
      <trkpt lat="48.251122" lon="-1.772149">
        <ele>88.527230</ele>
        <time>2025-06-26T03:05:37.015Z</time>
      </trkpt>
      <trkpt lat="48.251212" lon="-1.772363">
        <ele>88.521451</ele>
        <time>2025-06-26T03:05:39.648Z</time>
      </trkpt>
      <trkpt lat="48.251286" lon="-1.772473">
        <ele>88.517881</ele>
        <time>2025-06-26T03:05:41.313Z</time>
      </trkpt>
      <trkpt lat="48.251368" lon="-1.772693">
        <ele>88.512125</ele>
        <time>2025-06-26T03:05:43.956Z</time>
      </trkpt>
      <trkpt lat="48.251410" lon="-1.773009">
        <ele>88.504768</ele>
        <time>2025-06-26T03:05:47.205Z</time>
      </trkpt>
      <trkpt lat="48.251365" lon="-1.773319">
        <ele>88.497524</ele>
        <time>2025-06-26T03:05:50.447Z</time>
      </trkpt>
      <trkpt lat="48.251201" lon="-1.774787">
        <ele>88.702135</ele>
        <time>2025-06-26T03:06:05.503Z</time>
      </trkpt>
      <trkpt lat="48.251199" lon="-1.775269">
        <ele>88.835052</ele>
        <time>2025-06-26T03:06:10.269Z</time>
      </trkpt>
      <trkpt lat="48.251231" lon="-1.775729">
        <ele>88.962591</ele>
        <time>2025-06-26T03:06:15.291Z</time>
      </trkpt>
      <trkpt lat="48.251294" lon="-1.776139">
        <ele>89.078623</ele>
        <time>2025-06-26T03:06:20.283Z</time>
      </trkpt>
      <trkpt lat="48.251393" lon="-1.776552">
        <ele>89.199665</ele>
        <time>2025-06-26T03:06:25.902Z</time>
      </trkpt>
      <trkpt lat="48.251537" lon="-1.777024">
        <ele>89.249832</ele>
        <time>2025-06-26T03:06:32.569Z</time>
      </trkpt>
      <trkpt lat="48.251740" lon="-1.777509">
        <ele>89.281340</ele>
        <time>2025-06-26T03:06:38.626Z</time>
      </trkpt>
      <trkpt lat="48.251821" lon="-1.777646">
        <ele>89.291417</ele>
        <time>2025-06-26T03:06:40.372Z</time>
      </trkpt>
      <trkpt lat="48.251999" lon="-1.777937">
        <ele>89.313151</ele>
        <time>2025-06-26T03:06:43.959Z</time>
      </trkpt>
      <trkpt lat="48.252079" lon="-1.778044">
        <ele>89.321999</ele>
        <time>2025-06-26T03:06:45.418Z</time>
      </trkpt>
      <trkpt lat="48.252119" lon="-1.778170">
        <ele>89.329677</ele>
        <time>2025-06-26T03:06:46.677Z</time>
      </trkpt>
      <trkpt lat="48.252094" lon="-1.778251">
        <ele>89.334587</ele>
        <time>2025-06-26T03:06:47.437Z</time>
      </trkpt>
      <trkpt lat="48.252048" lon="-1.778288">
        <ele>89.338898</ele>
        <time>2025-06-26T03:06:48.108Z</time>
      </trkpt>
      <trkpt lat="48.251771" lon="-1.778380">
        <ele>89.362331</ele>
        <time>2025-06-26T03:06:51.941Z</time>
      </trkpt>
      <trkpt lat="48.251650" lon="-1.778484">
        <ele>89.373847</ele>
        <time>2025-06-26T03:06:53.875Z</time>
      </trkpt>
      <trkpt lat="48.251558" lon="-1.778650">
        <ele>89.560394</ele>
        <time>2025-06-26T03:06:55.899Z</time>
      </trkpt>
      <trkpt lat="48.251347" lon="-1.779333">
        <ele>90.291068</ele>
        <time>2025-06-26T03:07:03.450Z</time>
      </trkpt>
      <trkpt lat="48.251236" lon="-1.779789">
        <ele>90.762234</ele>
        <time>2025-06-26T03:07:09.824Z</time>
      </trkpt>
      <trkpt lat="48.251132" lon="-1.780199">
        <ele>91.188009</ele>
        <time>2025-06-26T03:07:16.698Z</time>
      </trkpt>
      <trkpt lat="48.251027" lon="-1.780359">
        <ele>91.406016</ele>
        <time>2025-06-26T03:07:20.521Z</time>
      </trkpt>
      <trkpt lat="48.250672" lon="-1.780567">
        <ele>91.961382</ele>
        <time>2025-06-26T03:07:30.944Z</time>
      </trkpt>
      <trkpt lat="48.249237" lon="-1.781355">
        <ele>95.987759</ele>
        <time>2025-06-26T03:08:11.898Z</time>
      </trkpt>
      <trkpt lat="48.248971" lon="-1.781505">
        <ele>96.741890</ele>
        <time>2025-06-26T03:08:17.902Z</time>
      </trkpt>
      <trkpt lat="48.248708" lon="-1.781706">
        <ele>97.136041</ele>
        <time>2025-06-26T03:08:24.130Z</time>
      </trkpt>
      <trkpt lat="48.248496" lon="-1.782210">
        <ele>97.646453</ele>
        <time>2025-06-26T03:08:32.215Z</time>
      </trkpt>
      <trkpt lat="48.248425" lon="-1.782294">
        <ele>97.762671</ele>
        <time>2025-06-26T03:08:34.000Z</time>
      </trkpt>
      <trkpt lat="48.248247" lon="-1.782380">
        <ele>98.003095</ele>
        <time>2025-06-26T03:08:37.593Z</time>
      </trkpt>
      <trkpt lat="48.248154" lon="-1.782497">
        <ele>98.159090</ele>
        <time>2025-06-26T03:08:39.921Z</time>
      </trkpt>
      <trkpt lat="48.248135" lon="-1.782646">
        <ele>98.288984</ele>
        <time>2025-06-26T03:08:41.834Z</time>
      </trkpt>
      <trkpt lat="48.248141" lon="-1.782732">
        <ele>98.363021</ele>
        <time>2025-06-26T03:08:42.926Z</time>
      </trkpt>
      <trkpt lat="48.248163" lon="-1.782920">
        <ele>98.526456</ele>
        <time>2025-06-26T03:08:45.340Z</time>
      </trkpt>
      <trkpt lat="48.248181" lon="-1.783021">
        <ele>98.615977</ele>
        <time>2025-06-26T03:08:46.669Z</time>
      </trkpt>
      <trkpt lat="48.248192" lon="-1.783057">
        <ele>98.649891</ele>
        <time>2025-06-26T03:08:47.175Z</time>
      </trkpt>
      <trkpt lat="48.248214" lon="-1.783163">
        <ele>98.744956</ele>
        <time>2025-06-26T03:08:48.579Z</time>
      </trkpt>
      <trkpt lat="48.248274" lon="-1.783980">
        <ele>98.985114</ele>
        <time>2025-06-26T03:08:58.901Z</time>
      </trkpt>
      <trkpt lat="48.248298" lon="-1.784233">
        <ele>98.926467</ele>
        <time>2025-06-26T03:09:02.271Z</time>
      </trkpt>
      <trkpt lat="48.248353" lon="-1.784714">
        <ele>98.814468</ele>
        <time>2025-06-26T03:09:07.910Z</time>
      </trkpt>
      <trkpt lat="48.248423" lon="-1.785267">
        <ele>98.685289</ele>
        <time>2025-06-26T03:09:13.147Z</time>
      </trkpt>
      <trkpt lat="48.248495" lon="-1.785842">
        <ele>98.551021</ele>
        <time>2025-06-26T03:09:17.812Z</time>
      </trkpt>
      <trkpt lat="48.248486" lon="-1.786011">
        <ele>98.512114</ele>
        <time>2025-06-26T03:09:19.083Z</time>
      </trkpt>
      <trkpt lat="48.248468" lon="-1.786093">
        <ele>98.492300</ele>
        <time>2025-06-26T03:09:19.726Z</time>
      </trkpt>
      <trkpt lat="48.248525" lon="-1.786168">
        <ele>98.466182</ele>
        <time>2025-06-26T03:09:20.556Z</time>
      </trkpt>
      <trkpt lat="48.248527" lon="-1.786198">
        <ele>98.427181</ele>
        <time>2025-06-26T03:09:20.773Z</time>
      </trkpt>
      <trkpt lat="48.248503" lon="-1.786271">
        <ele>98.258084</ele>
        <time>2025-06-26T03:09:21.361Z</time>
      </trkpt>
      <trkpt lat="48.248470" lon="-1.786294">
        <ele>98.144606</ele>
        <time>2025-06-26T03:09:21.758Z</time>
      </trkpt>
      <trkpt lat="48.248485" lon="-1.786353">
        <ele>98.013433</ele>
        <time>2025-06-26T03:09:22.203Z</time>
      </trkpt>
      <trkpt lat="48.248511" lon="-1.786507">
        <ele>97.683447</ele>
        <time>2025-06-26T03:09:23.340Z</time>
      </trkpt>
      <trkpt lat="48.248383" lon="-1.790199">
        <ele>90.632246</ele>
        <time>2025-06-26T03:09:47.969Z</time>
      </trkpt>
      <trkpt lat="48.248400" lon="-1.790585">
        <ele>90.005803</ele>
        <time>2025-06-26T03:09:50.686Z</time>
      </trkpt>
      <trkpt lat="48.248506" lon="-1.791126">
        <ele>89.092586</ele>
        <time>2025-06-26T03:09:54.776Z</time>
      </trkpt>
      <trkpt lat="48.250296" lon="-1.797395">
        <ele>88.651999</ele>
        <time>2025-06-26T03:10:58.738Z</time>
      </trkpt>
      <trkpt lat="48.250674" lon="-1.798762">
        <ele>90.199343</ele>
        <time>2025-06-26T03:11:22.114Z</time>
      </trkpt>
      <trkpt lat="48.251442" lon="-1.801486">
        <ele>97.776276</ele>
        <time>2025-06-26T03:12:25.086Z</time>
      </trkpt>
      <trkpt lat="48.251795" lon="-1.802713">
        <ele>99.818328</ele>
        <time>2025-06-26T03:12:51.668Z</time>
      </trkpt>
      <trkpt lat="48.251892" lon="-1.803213">
        <ele>100.613967</ele>
        <time>2025-06-26T03:13:00.242Z</time>
      </trkpt>
      <trkpt lat="48.252233" lon="-1.805901">
        <ele>100.310984</ele>
        <time>2025-06-26T03:13:24.170Z</time>
      </trkpt>
      <trkpt lat="48.252311" lon="-1.806537">
        <ele>99.825960</ele>
        <time>2025-06-26T03:13:28.641Z</time>
      </trkpt>
      <trkpt lat="48.252443" lon="-1.807624">
        <ele>98.748784</ele>
        <time>2025-06-26T03:13:36.312Z</time>
      </trkpt>
      <trkpt lat="48.252532" lon="-1.808120">
        <ele>98.238218</ele>
        <time>2025-06-26T03:13:40.079Z</time>
      </trkpt>
      <trkpt lat="48.252678" lon="-1.808458">
        <ele>97.837780</ele>
        <time>2025-06-26T03:13:43.367Z</time>
      </trkpt>
      <trkpt lat="48.252828" lon="-1.808688">
        <ele>97.517796</ele>
        <time>2025-06-26T03:13:46.097Z</time>
      </trkpt>
      <trkpt lat="48.252965" lon="-1.808999">
        <ele>97.147169</ele>
        <time>2025-06-26T03:13:49.386Z</time>
      </trkpt>
      <trkpt lat="48.253424" lon="-1.810396">
        <ele>97.824285</ele>
        <time>2025-06-26T03:14:07.069Z</time>
      </trkpt>
      <trkpt lat="48.253503" lon="-1.810665">
        <ele>97.972164</ele>
        <time>2025-06-26T03:14:10.950Z</time>
      </trkpt>
      <trkpt lat="48.253583" lon="-1.810923">
        <ele>98.115316</ele>
        <time>2025-06-26T03:14:14.791Z</time>
      </trkpt>
      <trkpt lat="48.254170" lon="-1.812044">
        <ele>98.496170</ele>
        <time>2025-06-26T03:14:34.125Z</time>
      </trkpt>
      <trkpt lat="48.254404" lon="-1.812666">
        <ele>98.551285</ele>
        <time>2025-06-26T03:14:41.871Z</time>
      </trkpt>
      <trkpt lat="48.254603" lon="-1.813301">
        <ele>98.605428</ele>
        <time>2025-06-26T03:14:48.298Z</time>
      </trkpt>
      <trkpt lat="48.254619" lon="-1.813413">
        <ele>98.614265</ele>
        <time>2025-06-26T03:14:49.262Z</time>
      </trkpt>
      <trkpt lat="48.254574" lon="-1.813551">
        <ele>98.626120</ele>
        <time>2025-06-26T03:14:50.531Z</time>
      </trkpt>
      <trkpt lat="48.254474" lon="-1.813613">
        <ele>98.638655</ele>
        <time>2025-06-26T03:14:51.836Z</time>
      </trkpt>
      <trkpt lat="48.253842" lon="-1.813559">
        <ele>97.436150</ele>
        <time>2025-06-26T03:14:59.057Z</time>
      </trkpt>
      <trkpt lat="48.253523" lon="-1.813613">
        <ele>96.779396</ele>
        <time>2025-06-26T03:15:02.579Z</time>
      </trkpt>
      <trkpt lat="48.252406" lon="-1.814027">
        <ele>94.246797</ele>
        <time>2025-06-26T03:15:14.670Z</time>
      </trkpt>
      <trkpt lat="48.252063" lon="-1.814182">
        <ele>93.270512</ele>
        <time>2025-06-26T03:15:18.377Z</time>
      </trkpt>
      <trkpt lat="48.251874" lon="-1.814319">
        <ele>92.698509</ele>
        <time>2025-06-26T03:15:20.559Z</time>
      </trkpt>
      <trkpt lat="48.251426" lon="-1.814757">
        <ele>91.241494</ele>
        <time>2025-06-26T03:15:26.110Z</time>
      </trkpt>
      <trkpt lat="48.251392" lon="-1.814790">
        <ele>91.131154</ele>
        <time>2025-06-26T03:15:26.528Z</time>
      </trkpt>
      <trkpt lat="48.250898" lon="-1.815273">
        <ele>89.379340</ele>
        <time>2025-06-26T03:15:32.755Z</time>
      </trkpt>
      <trkpt lat="48.250813" lon="-1.815450">
        <ele>88.876212</ele>
        <time>2025-06-26T03:15:34.314Z</time>
      </trkpt>
      <trkpt lat="48.250031" lon="-1.817062">
        <ele>84.278023</ele>
        <time>2025-06-26T03:15:47.619Z</time>
      </trkpt>
      <trkpt lat="48.249739" lon="-1.818816">
        <ele>80.038046</ele>
        <time>2025-06-26T03:15:58.996Z</time>
      </trkpt>
      <trkpt lat="48.249716" lon="-1.818993">
        <ele>79.614274</ele>
        <time>2025-06-26T03:16:00.155Z</time>
      </trkpt>
      <trkpt lat="48.249705" lon="-1.819076">
        <ele>79.415410</ele>
        <time>2025-06-26T03:16:00.707Z</time>
      </trkpt>
      <trkpt lat="48.249699" lon="-1.819389">
        <ele>78.679596</ele>
        <time>2025-06-26T03:16:02.827Z</time>
      </trkpt>
      <trkpt lat="48.249694" lon="-1.819650">
        <ele>78.066027</ele>
        <time>2025-06-26T03:16:04.710Z</time>
      </trkpt>
      <trkpt lat="48.249706" lon="-1.819950">
        <ele>77.551001</ele>
        <time>2025-06-26T03:16:07.080Z</time>
      </trkpt>
      <trkpt lat="48.249726" lon="-1.820671">
        <ele>78.411861</ele>
        <time>2025-06-26T03:16:14.694Z</time>
      </trkpt>
      <trkpt lat="48.249698" lon="-1.821460">
        <ele>79.354431</ele>
        <time>2025-06-26T03:16:27.212Z</time>
      </trkpt>
      <trkpt lat="48.249661" lon="-1.821841">
        <ele>79.813751</ele>
        <time>2025-06-26T03:16:34.326Z</time>
      </trkpt>
      <trkpt lat="48.249643" lon="-1.822098">
        <ele>80.122030</ele>
        <time>2025-06-26T03:16:39.451Z</time>
      </trkpt>
      <trkpt lat="48.249749" lon="-1.822204">
        <ele>80.350180</ele>
        <time>2025-06-26T03:16:43.262Z</time>
      </trkpt>
      <trkpt lat="48.249809" lon="-1.822317">
        <ele>80.522593</ele>
        <time>2025-06-26T03:16:46.198Z</time>
      </trkpt>
      <trkpt lat="48.250028" lon="-1.823418">
        <ele>82.232554</ele>
        <time>2025-06-26T03:17:07.784Z</time>
      </trkpt>
      <trkpt lat="48.250051" lon="-1.823521">
        <ele>82.399264</ele>
        <time>2025-06-26T03:17:09.701Z</time>
      </trkpt>
      <trkpt lat="48.250161" lon="-1.823965">
        <ele>83.126236</ele>
        <time>2025-06-26T03:17:17.540Z</time>
      </trkpt>
      <trkpt lat="48.250177" lon="-1.824029">
        <ele>83.231141</ele>
        <time>2025-06-26T03:17:18.648Z</time>
      </trkpt>
      <trkpt lat="48.250308" lon="-1.824538">
        <ele>84.068539</ele>
        <time>2025-06-26T03:17:27.023Z</time>
      </trkpt>
      <trkpt lat="48.250799" lon="-1.826385">
        <ele>85.634249</ele>
        <time>2025-06-26T03:17:49.383Z</time>
      </trkpt>
      <trkpt lat="48.250973" lon="-1.826830">
        <ele>85.906884</ele>
        <time>2025-06-26T03:17:55.048Z</time>
      </trkpt>
      <trkpt lat="48.251099" lon="-1.827086">
        <ele>86.075068</ele>
        <time>2025-06-26T03:17:58.633Z</time>
      </trkpt>
      <trkpt lat="48.251466" lon="-1.827693">
        <ele>87.196691</ele>
        <time>2025-06-26T03:18:09.220Z</time>
      </trkpt>
      <trkpt lat="48.251494" lon="-1.828123">
        <ele>88.116668</ele>
        <time>2025-06-26T03:18:15.915Z</time>
      </trkpt>
      <trkpt lat="48.251402" lon="-1.828302">
        <ele>88.598155</ele>
        <time>2025-06-26T03:18:19.883Z</time>
      </trkpt>
      <trkpt lat="48.251345" lon="-1.828480">
        <ele>89.018729</ele>
        <time>2025-06-26T03:18:23.588Z</time>
      </trkpt>
      <trkpt lat="48.251218" lon="-1.831488">
        <ele>96.042459</ele>
        <time>2025-06-26T03:19:28.683Z</time>
      </trkpt>
      <trkpt lat="48.251271" lon="-1.832369">
        <ele>98.261297</ele>
        <time>2025-06-26T03:19:46.004Z</time>
      </trkpt>
      <trkpt lat="48.251409" lon="-1.833931">
        <ele>98.920840</ele>
        <time>2025-06-26T03:20:09.282Z</time>
      </trkpt>
      <trkpt lat="48.251396" lon="-1.834205">
        <ele>98.943600</ele>
        <time>2025-06-26T03:20:11.936Z</time>
      </trkpt>
      <trkpt lat="48.251277" lon="-1.834510">
        <ele>98.972890</ele>
        <time>2025-06-26T03:20:15.011Z</time>
      </trkpt>
      <trkpt lat="48.249532" lon="-1.837591">
        <ele>92.533362</ele>
        <time>2025-06-26T03:20:42.535Z</time>
      </trkpt>
      <trkpt lat="48.248567" lon="-1.839368">
        <ele>88.949264</ele>
        <time>2025-06-26T03:20:58.049Z</time>
      </trkpt>
      <trkpt lat="48.248529" lon="-1.839438">
        <ele>89.013844</ele>
        <time>2025-06-26T03:20:58.830Z</time>
      </trkpt>
      <trkpt lat="48.247679" lon="-1.841025">
        <ele>90.470178</ele>
        <time>2025-06-26T03:21:28.538Z</time>
      </trkpt>
      <trkpt lat="48.246057" lon="-1.843911">
        <ele>96.139422</ele>
        <time>2025-06-26T03:22:32.260Z</time>
      </trkpt>
      <trkpt lat="48.245975" lon="-1.844193">
        <ele>96.506052</ele>
        <time>2025-06-26T03:22:36.505Z</time>
      </trkpt>
      <trkpt lat="48.245910" lon="-1.844539">
        <ele>96.934391</ele>
        <time>2025-06-26T03:22:41.336Z</time>
      </trkpt>
      <trkpt lat="48.245901" lon="-1.844774">
        <ele>97.214850</ele>
        <time>2025-06-26T03:22:44.383Z</time>
      </trkpt>
      <trkpt lat="48.245914" lon="-1.845002">
        <ele>97.487499</ele>
        <time>2025-06-26T03:22:47.379Z</time>
      </trkpt>
      <trkpt lat="48.246037" lon="-1.845611">
        <ele>98.245744</ele>
        <time>2025-06-26T03:22:55.967Z</time>
      </trkpt>
      <trkpt lat="48.246191" lon="-1.846373">
        <ele>99.409611</ele>
        <time>2025-06-26T03:23:07.547Z</time>
      </trkpt>
      <trkpt lat="48.246382" lon="-1.847256">
        <ele>100.857306</ele>
        <time>2025-06-26T03:23:22.777Z</time>
      </trkpt>
      <trkpt lat="48.246427" lon="-1.847569">
        <ele>101.356617</ele>
        <time>2025-06-26T03:23:28.204Z</time>
      </trkpt>
      <trkpt lat="48.246427" lon="-1.847906">
        <ele>101.882106</ele>
        <time>2025-06-26T03:23:33.952Z</time>
      </trkpt>
      <trkpt lat="48.246380" lon="-1.848172">
        <ele>102.311237</ele>
        <time>2025-06-26T03:23:38.745Z</time>
      </trkpt>
      <trkpt lat="48.246249" lon="-1.848505">
        <ele>102.912738</ele>
        <time>2025-06-26T03:23:45.402Z</time>
      </trkpt>
      <trkpt lat="48.246057" lon="-1.848855">
        <ele>103.614347</ele>
        <time>2025-06-26T03:23:53.102Z</time>
      </trkpt>
      <trkpt lat="48.245875" lon="-1.849188">
        <ele>104.280884</ele>
        <time>2025-06-26T03:24:00.362Z</time>
      </trkpt>
      <trkpt lat="48.245557" lon="-1.849805">
        <ele>105.488048</ele>
        <time>2025-06-26T03:24:12.815Z</time>
      </trkpt>
      <trkpt lat="48.245211" lon="-1.850513">
        <ele>106.846826</ele>
        <time>2025-06-26T03:24:26.246Z</time>
      </trkpt>
      <trkpt lat="48.245075" lon="-1.851315">
        <ele>107.520582</ele>
        <time>2025-06-26T03:24:38.683Z</time>
      </trkpt>
      <trkpt lat="48.245051" lon="-1.851482">
        <ele>107.655453</ele>
        <time>2025-06-26T03:24:41.072Z</time>
      </trkpt>
      <trkpt lat="48.244987" lon="-1.851942">
        <ele>108.026435</ele>
        <time>2025-06-26T03:24:47.363Z</time>
      </trkpt>
      <trkpt lat="48.244960" lon="-1.852134">
        <ele>108.181350</ele>
        <time>2025-06-26T03:24:49.984Z</time>
      </trkpt>
      <trkpt lat="48.244885" lon="-1.852579">
        <ele>108.543727</ele>
        <time>2025-06-26T03:24:55.686Z</time>
      </trkpt>
      <trkpt lat="48.244751" lon="-1.853234">
        <ele>108.932009</ele>
        <time>2025-06-26T03:25:03.373Z</time>
      </trkpt>
      <trkpt lat="48.244811" lon="-1.853299">
        <ele>108.810370</ele>
        <time>2025-06-26T03:25:04.499Z</time>
      </trkpt>
      <trkpt lat="48.244988" lon="-1.853493">
        <ele>108.450091</ele>
        <time>2025-06-26T03:25:07.811Z</time>
      </trkpt>
      <trkpt lat="48.244836" lon="-1.853753">
        <ele>108.071292</ele>
        <time>2025-06-26T03:25:10.832Z</time>
      </trkpt>
      <trkpt lat="48.244462" lon="-1.854567">
        <ele>106.988516</ele>
        <time>2025-06-26T03:25:18.358Z</time>
      </trkpt>
      <trkpt lat="48.243938" lon="-1.855784">
        <ele>105.146406</ele>
        <time>2025-06-26T03:25:27.977Z</time>
      </trkpt>
      <trkpt lat="48.243919" lon="-1.855826">
        <ele>105.069361</ele>
        <time>2025-06-26T03:25:28.303Z</time>
      </trkpt>
      <trkpt lat="48.243214" lon="-1.857395">
        <ele>102.197283</ele>
        <time>2025-06-26T03:25:41.213Z</time>
      </trkpt>
      <trkpt lat="48.241215" lon="-1.861917">
        <ele>110.332683</ele>
        <time>2025-06-26T03:27:12.798Z</time>
      </trkpt>
      <trkpt lat="48.240978" lon="-1.862452">
        <ele>111.341612</ele>
        <time>2025-06-26T03:27:24.868Z</time>
      </trkpt>
      <trkpt lat="48.240276" lon="-1.864025">
        <ele>114.206939</ele>
        <time>2025-06-26T03:27:55.683Z</time>
      </trkpt>
      <trkpt lat="48.240161" lon="-1.864292">
        <ele>114.663792</ele>
        <time>2025-06-26T03:27:59.814Z</time>
      </trkpt>
      <trkpt lat="48.238936" lon="-1.867034">
        <ele>116.491135</ele>
        <time>2025-06-26T03:28:39.143Z</time>
      </trkpt>
      <trkpt lat="48.238835" lon="-1.867285">
        <ele>116.599560</ele>
        <time>2025-06-26T03:28:42.418Z</time>
      </trkpt>
      <trkpt lat="48.237186" lon="-1.871005">
        <ele>118.171100</ele>
        <time>2025-06-26T03:29:32.251Z</time>
      </trkpt>
      <trkpt lat="48.237053" lon="-1.871305">
        <ele>118.368114</ele>
        <time>2025-06-26T03:29:36.469Z</time>
      </trkpt>
      <trkpt lat="48.236750" lon="-1.871987">
        <ele>118.821901</ele>
        <time>2025-06-26T03:29:46.192Z</time>
      </trkpt>
      <trkpt lat="48.235874" lon="-1.873964">
        <ele>120.160181</ele>
        <time>2025-06-26T03:30:15.469Z</time>
      </trkpt>
      <trkpt lat="48.235676" lon="-1.874289">
        <ele>120.416479</ele>
        <time>2025-06-26T03:30:21.028Z</time>
      </trkpt>
      <trkpt lat="48.235559" lon="-1.874431">
        <ele>120.547918</ele>
        <time>2025-06-26T03:30:23.887Z</time>
      </trkpt>
      <trkpt lat="48.235229" lon="-1.874690">
        <ele>120.873238</ele>
        <time>2025-06-26T03:30:30.954Z</time>
      </trkpt>
      <trkpt lat="48.234056" lon="-1.875348">
        <ele>121.269468</ele>
        <time>2025-06-26T03:30:52.615Z</time>
      </trkpt>
      <trkpt lat="48.232415" lon="-1.876306">
        <ele>120.401123</ele>
        <time>2025-06-26T03:31:15.786Z</time>
      </trkpt>
      <trkpt lat="48.232089" lon="-1.876453">
        <ele>120.014311</ele>
        <time>2025-06-26T03:31:19.823Z</time>
      </trkpt>
      <trkpt lat="48.231856" lon="-1.876521">
        <ele>119.744576</ele>
        <time>2025-06-26T03:31:22.598Z</time>
      </trkpt>
      <trkpt lat="48.231598" lon="-1.876545">
        <ele>119.450825</ele>
        <time>2025-06-26T03:31:25.551Z</time>
      </trkpt>
      <trkpt lat="48.230721" lon="-1.876509">
        <ele>117.623663</ele>
        <time>2025-06-26T03:31:35.171Z</time>
      </trkpt>
      <trkpt lat="48.229039" lon="-1.876410">
        <ele>113.429184</ele>
        <time>2025-06-26T03:31:52.889Z</time>
      </trkpt>
      <trkpt lat="48.228379" lon="-1.876430">
        <ele>111.562028</ele>
        <time>2025-06-26T03:31:59.665Z</time>
      </trkpt>
      <trkpt lat="48.226595" lon="-1.876685">
        <ele>107.047081</ele>
        <time>2025-06-26T03:32:18.008Z</time>
      </trkpt>
      <trkpt lat="48.226130" lon="-1.876846">
        <ele>105.909390</ele>
        <time>2025-06-26T03:32:23.241Z</time>
      </trkpt>
      <trkpt lat="48.224707" lon="-1.877697">
        <ele>106.238718</ele>
        <time>2025-06-26T03:32:46.654Z</time>
      </trkpt>
      <trkpt lat="48.224201" lon="-1.878123">
        <ele>106.706288</ele>
        <time>2025-06-26T03:33:00.092Z</time>
      </trkpt>
      <trkpt lat="48.223883" lon="-1.878454">
        <ele>107.272100</ele>
        <time>2025-06-26T03:33:09.299Z</time>
      </trkpt>
      <trkpt lat="48.222344" lon="-1.880071">
        <ele>109.156471</ele>
        <time>2025-06-26T03:33:46.636Z</time>
      </trkpt>
      <trkpt lat="48.221989" lon="-1.880592">
        <ele>109.275118</ele>
        <time>2025-06-26T03:33:54.549Z</time>
      </trkpt>
      <trkpt lat="48.220426" lon="-1.883484">
        <ele>106.977858</ele>
        <time>2025-06-26T03:34:25.063Z</time>
      </trkpt>
      <trkpt lat="48.219716" lon="-1.884787">
        <ele>103.268013</ele>
        <time>2025-06-26T03:34:36.161Z</time>
      </trkpt>
      <trkpt lat="48.219630" lon="-1.884944">
        <ele>102.820061</ele>
        <time>2025-06-26T03:34:37.444Z</time>
      </trkpt>
      <trkpt lat="48.219285" lon="-1.885577">
        <ele>101.190170</ele>
        <time>2025-06-26T03:34:42.779Z</time>
      </trkpt>
      <trkpt lat="48.219025" lon="-1.886265">
        <ele>100.474815</ele>
        <time>2025-06-26T03:34:48.192Z</time>
      </trkpt>
      <trkpt lat="48.218731" lon="-1.886986">
        <ele>99.710305</ele>
        <time>2025-06-26T03:34:54.779Z</time>
      </trkpt>
      <trkpt lat="48.218630" lon="-1.887166">
        <ele>99.497472</ele>
        <time>2025-06-26T03:34:56.893Z</time>
      </trkpt>
      <trkpt lat="48.218408" lon="-1.887564">
        <ele>99.028026</ele>
        <time>2025-06-26T03:35:02.607Z</time>
      </trkpt>
      <trkpt lat="48.218065" lon="-1.888184">
        <ele>99.442124</ele>
        <time>2025-06-26T03:35:13.324Z</time>
      </trkpt>
      <trkpt lat="48.217779" lon="-1.888750">
        <ele>100.088847</ele>
        <time>2025-06-26T03:35:23.193Z</time>
      </trkpt>
      <trkpt lat="48.217158" lon="-1.889846">
        <ele>101.357761</ele>
        <time>2025-06-26T03:35:43.875Z</time>
      </trkpt>
      <trkpt lat="48.217043" lon="-1.889875">
        <ele>101.426864</ele>
        <time>2025-06-26T03:35:46.284Z</time>
      </trkpt>
      <trkpt lat="48.216984" lon="-1.890088">
        <ele>101.517944</ele>
        <time>2025-06-26T03:35:49.417Z</time>
      </trkpt>
      <trkpt lat="48.216944" lon="-1.890232">
        <ele>101.579545</ele>
        <time>2025-06-26T03:35:51.480Z</time>
      </trkpt>
      <trkpt lat="48.216912" lon="-1.890347">
        <ele>101.628753</ele>
        <time>2025-06-26T03:35:53.121Z</time>
      </trkpt>
      <trkpt lat="48.216691" lon="-1.891221">
        <ele>101.997865</ele>
        <time>2025-06-26T03:36:04.346Z</time>
      </trkpt>
      <trkpt lat="48.216666" lon="-1.891671">
        <ele>102.176163</ele>
        <time>2025-06-26T03:36:09.066Z</time>
      </trkpt>
      <trkpt lat="48.216657" lon="-1.891837">
        <ele>102.241925</ele>
        <time>2025-06-26T03:36:10.721Z</time>
      </trkpt>
      <trkpt lat="48.216679" lon="-1.891958">
        <ele>102.291448</ele>
        <time>2025-06-26T03:36:11.940Z</time>
      </trkpt>
      <trkpt lat="48.216652" lon="-1.892085">
        <ele>102.344085</ele>
        <time>2025-06-26T03:36:13.629Z</time>
      </trkpt>
      <trkpt lat="48.216285" lon="-1.891994">
        <ele>102.033196</ele>
        <time>2025-06-26T03:36:20.361Z</time>
      </trkpt>
      <trkpt lat="48.216096" lon="-1.892015">
        <ele>101.799069</ele>
        <time>2025-06-26T03:36:23.600Z</time>
      </trkpt>
      <trkpt lat="48.215896" lon="-1.892118">
        <ele>101.537850</ele>
        <time>2025-06-26T03:36:27.143Z</time>
      </trkpt>
      <trkpt lat="48.215712" lon="-1.892088">
        <ele>101.309201</ele>
        <time>2025-06-26T03:36:30.205Z</time>
      </trkpt>
      <trkpt lat="48.215572" lon="-1.892035">
        <ele>101.130830</ele>
        <time>2025-06-26T03:36:32.585Z</time>
      </trkpt>
      <trkpt lat="48.215280" lon="-1.892388">
        <ele>100.667618</ele>
        <time>2025-06-26T03:36:36.856Z</time>
      </trkpt>
      <trkpt lat="48.215126" lon="-1.892553">
        <ele>100.433859</ele>
        <time>2025-06-26T03:36:39.006Z</time>
      </trkpt>
      <trkpt lat="48.215011" lon="-1.892485">
        <ele>100.281160</ele>
        <time>2025-06-26T03:36:40.424Z</time>
      </trkpt>
      <trkpt lat="48.214555" lon="-1.892491">
        <ele>99.613230</ele>
        <time>2025-06-26T03:36:45.638Z</time>
      </trkpt>
      <trkpt lat="48.214453" lon="-1.892502">
        <ele>99.457697</ele>
        <time>2025-06-26T03:36:46.795Z</time>
      </trkpt>
      <trkpt lat="48.214364" lon="-1.892574">
        <ele>99.303921</ele>
        <time>2025-06-26T03:36:47.960Z</time>
      </trkpt>
      <trkpt lat="48.214004" lon="-1.892678">
        <ele>98.746339</ele>
        <time>2025-06-26T03:36:52.190Z</time>
      </trkpt>
      <trkpt lat="48.213897" lon="-1.892717">
        <ele>98.578871</ele>
        <time>2025-06-26T03:36:53.472Z</time>
      </trkpt>
      <trkpt lat="48.213752" lon="-1.892774">
        <ele>98.350898</ele>
        <time>2025-06-26T03:36:55.219Z</time>
      </trkpt>
      <trkpt lat="48.213687" lon="-1.892800">
        <ele>98.248587</ele>
        <time>2025-06-26T03:36:56.000Z</time>
      </trkpt>
      <trkpt lat="48.213572" lon="-1.892847">
        <ele>98.067312</ele>
        <time>2025-06-26T03:36:57.386Z</time>
      </trkpt>
      <trkpt lat="48.213393" lon="-1.892921">
        <ele>97.784927</ele>
        <time>2025-06-26T03:36:59.530Z</time>
      </trkpt>
      <trkpt lat="48.212773" lon="-1.893193">
        <ele>96.812718</ele>
        <time>2025-06-26T03:37:06.859Z</time>
      </trkpt>
      <trkpt lat="48.212438" lon="-1.893374">
        <ele>96.279954</ele>
        <time>2025-06-26T03:37:10.887Z</time>
      </trkpt>
      <trkpt lat="48.212134" lon="-1.893556">
        <ele>95.790211</ele>
        <time>2025-06-26T03:37:14.624Z</time>
      </trkpt>
      <trkpt lat="48.211774" lon="-1.893848">
        <ele>95.177888</ele>
        <time>2025-06-26T03:37:19.330Z</time>
      </trkpt>
      <trkpt lat="48.211428" lon="-1.894100">
        <ele>94.655956</ele>
        <time>2025-06-26T03:37:23.812Z</time>
      </trkpt>
      <trkpt lat="48.211312" lon="-1.894152">
        <ele>94.543634</ele>
        <time>2025-06-26T03:37:25.253Z</time>
      </trkpt>
      <trkpt lat="48.211060" lon="-1.894210">
        <ele>94.307099</ele>
        <time>2025-06-26T03:37:28.373Z</time>
      </trkpt>
      <trkpt lat="48.210320" lon="-1.894232">
        <ele>93.620406</ele>
        <time>2025-06-26T03:37:37.715Z</time>
      </trkpt>
      <trkpt lat="48.210005" lon="-1.894434">
        <ele>93.302587</ele>
        <time>2025-06-26T03:37:42.002Z</time>
      </trkpt>
      <trkpt lat="48.209341" lon="-1.895122">
        <ele>92.800955</ele>
        <time>2025-06-26T03:37:52.343Z</time>
      </trkpt>
      <trkpt lat="48.209106" lon="-1.895391">
        <ele>92.656830</ele>
        <time>2025-06-26T03:37:56.175Z</time>
      </trkpt>
      <trkpt lat="48.208738" lon="-1.895815">
        <ele>92.430591</ele>
        <time>2025-06-26T03:38:02.239Z</time>
      </trkpt>
      <trkpt lat="48.208537" lon="-1.895992">
        <ele>92.316949</ele>
        <time>2025-06-26T03:38:05.433Z</time>
      </trkpt>
      <trkpt lat="48.208319" lon="-1.896139">
        <ele>92.200408</ele>
        <time>2025-06-26T03:38:08.818Z</time>
      </trkpt>
      <trkpt lat="48.206431" lon="-1.897201">
        <ele>91.902340</ele>
        <time>2025-06-26T03:38:39.258Z</time>
      </trkpt>
      <trkpt lat="48.206233" lon="-1.897348">
        <ele>91.600769</ele>
        <time>2025-06-26T03:38:42.346Z</time>
      </trkpt>
      <trkpt lat="48.205988" lon="-1.897604">
        <ele>91.193208</ele>
        <time>2025-06-26T03:38:46.249Z</time>
      </trkpt>
      <trkpt lat="48.205728" lon="-1.897908">
        <ele>90.743239</ele>
        <time>2025-06-26T03:38:50.321Z</time>
      </trkpt>
      <trkpt lat="48.202525" lon="-1.901799">
        <ele>80.005287</ele>
        <time>2025-06-26T03:39:33.477Z</time>
      </trkpt>
      <trkpt lat="48.202186" lon="-1.902060">
        <ele>78.413537</ele>
        <time>2025-06-26T03:39:37.101Z</time>
      </trkpt>
      <trkpt lat="48.201610" lon="-1.902329">
        <ele>75.097417</ele>
        <time>2025-06-26T03:39:42.643Z</time>
      </trkpt>
      <trkpt lat="48.200402" lon="-1.902927">
        <ele>68.832252</ele>
        <time>2025-06-26T03:39:54.295Z</time>
      </trkpt>
      <trkpt lat="48.200125" lon="-1.903152">
        <ele>68.040399</ele>
        <time>2025-06-26T03:39:57.347Z</time>
      </trkpt>
      <trkpt lat="48.199921" lon="-1.903413">
        <ele>67.366416</ele>
        <time>2025-06-26T03:40:00.077Z</time>
      </trkpt>
      <trkpt lat="48.199437" lon="-1.904260">
        <ele>65.497024</ele>
        <time>2025-06-26T03:40:08.852Z</time>
      </trkpt>
      <trkpt lat="48.199394" lon="-1.904335">
        <ele>65.331259</ele>
        <time>2025-06-26T03:40:09.802Z</time>
      </trkpt>
      <trkpt lat="48.198988" lon="-1.905290">
        <ele>65.832374</ele>
        <time>2025-06-26T03:40:22.299Z</time>
      </trkpt>
      <trkpt lat="48.198831" lon="-1.905593">
        <ele>66.224505</ele>
        <time>2025-06-26T03:40:27.576Z</time>
      </trkpt>
      <trkpt lat="48.198642" lon="-1.905856">
        <ele>66.619662</ele>
        <time>2025-06-26T03:40:33.438Z</time>
      </trkpt>
      <trkpt lat="48.197408" lon="-1.907361">
        <ele>69.909788</ele>
        <time>2025-06-26T03:41:14.236Z</time>
      </trkpt>
      <trkpt lat="48.196856" lon="-1.907884">
        <ele>71.530158</ele>
        <time>2025-06-26T03:41:30.514Z</time>
      </trkpt>
      <trkpt lat="48.196516" lon="-1.908123">
        <ele>72.320233</ele>
        <time>2025-06-26T03:41:39.383Z</time>
      </trkpt>
      <trkpt lat="48.195608" lon="-1.908560">
        <ele>73.628789</ele>
        <time>2025-06-26T03:41:58.731Z</time>
      </trkpt>
      <trkpt lat="48.195640" lon="-1.908889">
        <ele>73.932922</ele>
        <time>2025-06-26T03:42:04.163Z</time>
      </trkpt>
      <trkpt lat="48.195639" lon="-1.909412">
        <ele>74.411327</ele>
        <time>2025-06-26T03:42:12.675Z</time>
      </trkpt>
      <trkpt lat="48.195610" lon="-1.909853">
        <ele>74.756515</ele>
        <time>2025-06-26T03:42:19.774Z</time>
      </trkpt>
      <trkpt lat="48.195529" lon="-1.910218">
        <ele>75.004437</ele>
        <time>2025-06-26T03:42:25.827Z</time>
      </trkpt>
      <trkpt lat="48.195182" lon="-1.911472">
        <ele>75.879462</ele>
        <time>2025-06-26T03:42:47.774Z</time>
      </trkpt>
      <trkpt lat="48.195122" lon="-1.912144">
        <ele>76.316412</ele>
        <time>2025-06-26T03:42:58.784Z</time>
      </trkpt>
      <trkpt lat="48.195097" lon="-1.912991">
        <ele>76.742700</ele>
        <time>2025-06-26T03:43:12.076Z</time>
      </trkpt>
      <trkpt lat="48.195023" lon="-1.913743">
        <ele>77.117404</ele>
        <time>2025-06-26T03:43:23.663Z</time>
      </trkpt>
      <trkpt lat="48.194795" lon="-1.914895">
        <ele>77.703373</ele>
        <time>2025-06-26T03:43:41.953Z</time>
      </trkpt>
      <trkpt lat="48.194543" lon="-1.915732">
        <ele>78.051689</ele>
        <time>2025-06-26T03:43:55.957Z</time>
      </trkpt>
      <trkpt lat="48.194467" lon="-1.916166">
        <ele>78.221873</ele>
        <time>2025-06-26T03:44:02.867Z</time>
      </trkpt>
      <trkpt lat="48.194157" lon="-1.918957">
        <ele>78.828392</ele>
        <time>2025-06-26T03:44:44.705Z</time>
      </trkpt>
      <trkpt lat="48.194818" lon="-1.919836">
        <ele>78.923004</ele>
        <time>2025-06-26T03:45:01.317Z</time>
      </trkpt>
      <trkpt lat="48.194943" lon="-1.920017">
        <ele>78.928916</ele>
        <time>2025-06-26T03:45:04.547Z</time>
      </trkpt>
      <trkpt lat="48.195173" lon="-1.920239">
        <ele>78.938223</ele>
        <time>2025-06-26T03:45:09.657Z</time>
      </trkpt>
      <trkpt lat="48.195403" lon="-1.920404">
        <ele>78.946898</ele>
        <time>2025-06-26T03:45:14.589Z</time>
      </trkpt>
      <trkpt lat="48.196850" lon="-1.921155">
        <ele>79.170741</ele>
        <time>2025-06-26T03:45:47.726Z</time>
      </trkpt>
      <trkpt lat="48.198588" lon="-1.922057">
        <ele>79.817401</ele>
        <time>2025-06-26T03:46:27.549Z</time>
      </trkpt>
      <trkpt lat="48.198901" lon="-1.922111">
        <ele>79.933796</ele>
        <time>2025-06-26T03:46:34.017Z</time>
      </trkpt>
      <trkpt lat="48.199109" lon="-1.922147">
        <ele>80.011148</ele>
        <time>2025-06-26T03:46:38.278Z</time>
      </trkpt>
      <trkpt lat="48.200102" lon="-1.922101">
        <ele>80.771714</ele>
        <time>2025-06-26T03:47:00.171Z</time>
      </trkpt>
      <trkpt lat="48.200623" lon="-1.922153">
        <ele>81.616190</ele>
        <time>2025-06-26T03:47:13.701Z</time>
      </trkpt>
      <trkpt lat="48.201051" lon="-1.922331">
        <ele>82.334497</ele>
        <time>2025-06-26T03:47:26.224Z</time>
      </trkpt>
      <trkpt lat="48.201717" lon="-1.922609">
        <ele>83.490100</ele>
        <time>2025-06-26T03:47:46.956Z</time>
      </trkpt>
      <trkpt lat="48.201905" lon="-1.922733">
        <ele>83.866500</ele>
        <time>2025-06-26T03:47:53.188Z</time>
      </trkpt>
      <trkpt lat="48.201931" lon="-1.923398">
        <ele>84.680262</ele>
        <time>2025-06-26T03:48:06.196Z</time>
      </trkpt>
      <trkpt lat="48.202066" lon="-1.924889">
        <ele>86.481829</ele>
        <time>2025-06-26T03:48:32.767Z</time>
      </trkpt>
      <trkpt lat="48.202014" lon="-1.925912">
        <ele>86.839390</ele>
        <time>2025-06-26T03:48:48.392Z</time>
      </trkpt>
      <trkpt lat="48.201904" lon="-1.926991">
        <ele>87.219806</ele>
        <time>2025-06-26T03:49:03.551Z</time>
      </trkpt>
      <trkpt lat="48.200912" lon="-1.929976">
        <ele>88.130646</ele>
        <time>2025-06-26T03:49:51.032Z</time>
      </trkpt>
      <trkpt lat="48.200737" lon="-1.930421">
        <ele>88.671551</ele>
        <time>2025-06-26T03:49:59.260Z</time>
      </trkpt>
      <trkpt lat="48.200386" lon="-1.931021">
        <ele>89.507305</ele>
        <time>2025-06-26T03:50:12.856Z</time>
      </trkpt>
      <trkpt lat="48.197387" lon="-1.935174">
        <ele>97.509050</ele>
        <time>2025-06-26T03:52:12.426Z</time>
      </trkpt>
      <trkpt lat="48.197108" lon="-1.935676">
        <ele>98.090775</ele>
        <time>2025-06-26T03:52:22.824Z</time>
      </trkpt>
      <trkpt lat="48.197020" lon="-1.935963">
        <ele>97.796233</ele>
        <time>2025-06-26T03:52:27.240Z</time>
      </trkpt>
      <trkpt lat="48.196976" lon="-1.936465">
        <ele>97.324156</ele>
        <time>2025-06-26T03:52:33.554Z</time>
      </trkpt>
      <trkpt lat="48.197478" lon="-1.939965">
        <ele>92.543221</ele>
        <time>2025-06-26T03:53:10.109Z</time>
      </trkpt>
      <trkpt lat="48.191855" lon="-1.941817">
        <ele>75.883223</ele>
        <time>2025-06-26T03:54:09.076Z</time>
      </trkpt>
      <trkpt lat="48.191183" lon="-1.941979">
        <ele>74.996253</ele>
        <time>2025-06-26T03:54:16.600Z</time>
      </trkpt>
      <trkpt lat="48.190848" lon="-1.942019">
        <ele>74.823518</ele>
        <time>2025-06-26T03:54:20.691Z</time>
      </trkpt>
      <trkpt lat="48.190082" lon="-1.942026">
        <ele>74.429786</ele>
        <time>2025-06-26T03:54:32.268Z</time>
      </trkpt>
      <trkpt lat="48.189460" lon="-1.941950">
        <ele>74.537807</ele>
        <time>2025-06-26T03:54:44.249Z</time>
      </trkpt>
      <trkpt lat="48.189460" lon="-1.941950">
        <ele>74.537807</ele>
        <time>2025-06-26T03:54:44.256Z</time>
      </trkpt>
      <trkpt lat="48.189110" lon="-1.941861">
        <ele>74.767973</ele>
        <time>2025-06-26T03:54:51.267Z</time>
      </trkpt>
      <trkpt lat="48.188767" lon="-1.941755">
        <ele>74.995033</ele>
        <time>2025-06-26T03:54:57.755Z</time>
      </trkpt>
      <trkpt lat="48.188094" lon="-1.941482">
        <ele>75.447058</ele>
        <time>2025-06-26T03:55:09.281Z</time>
      </trkpt>
      <trkpt lat="48.188070" lon="-1.941579">
        <ele>75.476029</ele>
        <time>2025-06-26T03:55:10.267Z</time>
      </trkpt>
      <trkpt lat="48.188020" lon="-1.941650">
        <ele>75.494599</ele>
        <time>2025-06-26T03:55:11.317Z</time>
      </trkpt>
      <trkpt lat="48.187954" lon="-1.941679">
        <ele>75.513148</ele>
        <time>2025-06-26T03:55:12.266Z</time>
      </trkpt>
      <trkpt lat="48.187886" lon="-1.941658">
        <ele>75.531873</ele>
        <time>2025-06-26T03:55:13.265Z</time>
      </trkpt>
      <trkpt lat="48.187694" lon="-1.942464">
        <ele>75.685776</ele>
        <time>2025-06-26T03:55:21.150Z</time>
      </trkpt>
      <trkpt lat="48.187573" lon="-1.942796">
        <ele>75.753813</ele>
        <time>2025-06-26T03:55:24.869Z</time>
      </trkpt>
      <trkpt lat="48.187417" lon="-1.943050">
        <ele>75.815912</ele>
        <time>2025-06-26T03:55:28.511Z</time>
      </trkpt>
      <trkpt lat="48.187218" lon="-1.943263">
        <ele>75.881849</ele>
        <time>2025-06-26T03:55:32.791Z</time>
      </trkpt>
      <trkpt lat="48.186953" lon="-1.943399">
        <ele>75.970995</ele>
        <time>2025-06-26T03:55:38.049Z</time>
      </trkpt>
      <trkpt lat="48.186046" lon="-1.943728">
        <ele>76.681160</ele>
        <time>2025-06-26T03:55:55.641Z</time>
      </trkpt>
      <trkpt lat="48.185292" lon="-1.943987">
        <ele>77.269843</ele>
        <time>2025-06-26T03:56:09.238Z</time>
      </trkpt>
      <trkpt lat="48.185190" lon="-1.944027">
        <ele>77.344042</ele>
        <time>2025-06-26T03:56:10.936Z</time>
      </trkpt>
      <trkpt lat="48.185008" lon="-1.944074">
        <ele>77.457490</ele>
        <time>2025-06-26T03:56:13.815Z</time>
      </trkpt>
      <trkpt lat="48.184453" lon="-1.944256">
        <ele>77.806483</ele>
        <time>2025-06-26T03:56:22.386Z</time>
      </trkpt>
      <trkpt lat="48.183830" lon="-1.944473">
        <ele>78.199379</ele>
        <time>2025-06-26T03:56:33.307Z</time>
      </trkpt>
      <trkpt lat="48.183513" lon="-1.944569">
        <ele>78.398044</ele>
        <time>2025-06-26T03:56:39.394Z</time>
      </trkpt>
      <trkpt lat="48.182339" lon="-1.944951">
        <ele>80.327487</ele>
        <time>2025-06-26T03:57:04.965Z</time>
      </trkpt>
      <trkpt lat="48.180376" lon="-1.945628">
        <ele>83.352065</ele>
        <time>2025-06-26T03:57:50.939Z</time>
      </trkpt>
      <trkpt lat="48.180299" lon="-1.945667">
        <ele>83.468809</ele>
        <time>2025-06-26T03:57:52.341Z</time>
      </trkpt>
      <trkpt lat="48.180041" lon="-1.945226">
        <ele>83.918815</ele>
        <time>2025-06-26T03:57:58.475Z</time>
      </trkpt>
      <trkpt lat="48.179871" lon="-1.945056">
        <ele>83.745517</ele>
        <time>2025-06-26T03:58:01.281Z</time>
      </trkpt>
      <trkpt lat="48.179769" lon="-1.945082">
        <ele>83.657765</ele>
        <time>2025-06-26T03:58:02.614Z</time>
      </trkpt>
      <trkpt lat="48.179751" lon="-1.945236">
        <ele>83.569345</ele>
        <time>2025-06-26T03:58:03.923Z</time>
      </trkpt>
      <trkpt lat="48.179498" lon="-1.947042">
        <ele>82.525684</ele>
        <time>2025-06-26T03:58:18.430Z</time>
      </trkpt>
      <trkpt lat="48.179382" lon="-1.947856">
        <ele>82.014766</ele>
        <time>2025-06-26T03:58:25.222Z</time>
      </trkpt>
      <trkpt lat="48.179267" lon="-1.948708">
        <ele>81.471170</ele>
        <time>2025-06-26T03:58:32.491Z</time>
      </trkpt>
      <trkpt lat="48.179263" lon="-1.948739">
        <ele>81.451425</ele>
        <time>2025-06-26T03:58:32.749Z</time>
      </trkpt>
      <trkpt lat="48.179250" lon="-1.948833">
        <ele>81.391392</ele>
        <time>2025-06-26T03:58:33.566Z</time>
      </trkpt>
      <trkpt lat="48.179238" lon="-1.948918">
        <ele>81.337060</ele>
        <time>2025-06-26T03:58:34.303Z</time>
      </trkpt>
      <trkpt lat="48.179214" lon="-1.949096">
        <ele>81.223496</ele>
        <time>2025-06-26T03:58:35.856Z</time>
      </trkpt>
      <trkpt lat="48.178982" lon="-1.950799">
        <ele>79.669243</ele>
        <time>2025-06-26T03:58:50.093Z</time>
      </trkpt>
      <trkpt lat="48.178973" lon="-1.950868">
        <ele>79.591679</ele>
        <time>2025-06-26T03:58:50.629Z</time>
      </trkpt>
      <trkpt lat="48.178925" lon="-1.951238">
        <ele>79.175839</ele>
        <time>2025-06-26T03:58:53.481Z</time>
      </trkpt>
      <trkpt lat="48.178228" lon="-1.956145">
        <ele>72.325142</ele>
        <time>2025-06-26T03:59:29.483Z</time>
      </trkpt>
      <trkpt lat="48.178169" lon="-1.956648">
        <ele>71.658470</ele>
        <time>2025-06-26T03:59:33.253Z</time>
      </trkpt>
      <trkpt lat="48.178161" lon="-1.956927">
        <ele>71.293941</ele>
        <time>2025-06-26T03:59:35.340Z</time>
      </trkpt>
      <trkpt lat="48.178187" lon="-1.957247">
        <ele>70.873140</ele>
        <time>2025-06-26T03:59:37.771Z</time>
      </trkpt>
      <trkpt lat="48.178462" lon="-1.959194">
        <ele>68.015691</ele>
        <time>2025-06-26T03:59:52.724Z</time>
      </trkpt>
      <trkpt lat="48.178468" lon="-1.959720">
        <ele>67.234983</ele>
        <time>2025-06-26T03:59:56.445Z</time>
      </trkpt>
      <trkpt lat="48.178400" lon="-1.960236">
        <ele>66.454418</ele>
        <time>2025-06-26T04:00:00.076Z</time>
      </trkpt>
      <trkpt lat="48.177672" lon="-1.964815">
        <ele>58.306480</ele>
        <time>2025-06-26T04:00:31.847Z</time>
      </trkpt>
      <trkpt lat="48.177556" lon="-1.965427">
        <ele>57.560294</ele>
        <time>2025-06-26T04:00:37.669Z</time>
      </trkpt>
      <trkpt lat="48.177102" lon="-1.967161">
        <ele>59.995789</ele>
        <time>2025-06-26T04:01:08.046Z</time>
      </trkpt>
      <trkpt lat="48.177065" lon="-1.967450">
        <ele>60.490418</ele>
        <time>2025-06-26T04:01:14.070Z</time>
      </trkpt>
      <trkpt lat="48.176987" lon="-1.969045">
        <ele>62.836065</ele>
        <time>2025-06-26T04:01:43.950Z</time>
      </trkpt>
      <trkpt lat="48.176922" lon="-1.969570">
        <ele>63.509298</ele>
        <time>2025-06-26T04:01:51.971Z</time>
      </trkpt>
      <trkpt lat="48.176861" lon="-1.969765">
        <ele>63.780863</ele>
        <time>2025-06-26T04:01:54.925Z</time>
      </trkpt>
      <trkpt lat="48.176489" lon="-1.970708">
        <ele>65.162270</ele>
        <time>2025-06-26T04:02:08.298Z</time>
      </trkpt>
      <trkpt lat="48.176411" lon="-1.970985">
        <ele>65.469623</ele>
        <time>2025-06-26T04:02:11.714Z</time>
      </trkpt>
      <trkpt lat="48.176361" lon="-1.971298">
        <ele>65.787865</ele>
        <time>2025-06-26T04:02:15.383Z</time>
      </trkpt>
      <trkpt lat="48.176282" lon="-1.973048">
        <ele>67.522178</ele>
        <time>2025-06-26T04:02:39.970Z</time>
      </trkpt>
      <trkpt lat="48.176306" lon="-1.973496">
        <ele>68.004161</ele>
        <time>2025-06-26T04:02:47.209Z</time>
      </trkpt>
      <trkpt lat="48.176452" lon="-1.974701">
        <ele>69.716566</ele>
        <time>2025-06-26T04:03:07.052Z</time>
      </trkpt>
      <trkpt lat="48.176466" lon="-1.976365">
        <ele>71.728742</ele>
        <time>2025-06-26T04:03:32.757Z</time>
      </trkpt>
      <trkpt lat="48.176468" lon="-1.976681">
        <ele>71.819783</ele>
        <time>2025-06-26T04:03:36.910Z</time>
      </trkpt>
      <trkpt lat="48.176508" lon="-1.977111">
        <ele>71.944863</ele>
        <time>2025-06-26T04:03:42.182Z</time>
      </trkpt>
      <trkpt lat="48.176598" lon="-1.977700">
        <ele>72.118947</ele>
        <time>2025-06-26T04:03:48.686Z</time>
      </trkpt>
      <trkpt lat="48.176707" lon="-1.978411">
        <ele>72.329124</ele>
        <time>2025-06-26T04:03:55.455Z</time>
      </trkpt>
      <trkpt lat="48.176766" lon="-1.979017">
        <ele>72.303347</ele>
        <time>2025-06-26T04:04:00.615Z</time>
      </trkpt>
      <trkpt lat="48.176709" lon="-1.979417">
        <ele>72.128441</ele>
        <time>2025-06-26T04:04:03.979Z</time>
      </trkpt>
      <trkpt lat="48.176483" lon="-1.980159">
        <ele>71.779623</ele>
        <time>2025-06-26T04:04:10.758Z</time>
      </trkpt>
      <trkpt lat="48.175673" lon="-1.982768">
        <ele>70.820304</ele>
        <time>2025-06-26T04:04:36.510Z</time>
      </trkpt>
      <trkpt lat="48.175538" lon="-1.983118">
        <ele>70.712396</ele>
        <time>2025-06-26T04:04:40.271Z</time>
      </trkpt>
      <trkpt lat="48.174477" lon="-1.985457">
        <ele>69.723307</ele>
        <time>2025-06-26T04:05:05.940Z</time>
      </trkpt>
      <trkpt lat="48.174223" lon="-1.985368">
        <ele>69.577737</ele>
        <time>2025-06-26T04:05:09.202Z</time>
      </trkpt>
      <trkpt lat="48.172313" lon="-1.984491">
        <ele>66.609321</ele>
        <time>2025-06-26T04:05:32.296Z</time>
      </trkpt>
      <trkpt lat="48.172026" lon="-1.984442">
        <ele>65.877216</ele>
        <time>2025-06-26T04:05:35.419Z</time>
      </trkpt>
      <trkpt lat="48.171761" lon="-1.984487">
        <ele>65.201278</ele>
        <time>2025-06-26T04:05:38.258Z</time>
      </trkpt>
      <trkpt lat="48.170668" lon="-1.984896">
        <ele>62.323403</ele>
        <time>2025-06-26T04:05:49.861Z</time>
      </trkpt>
      <trkpt lat="48.169739" lon="-1.985239">
        <ele>59.109833</ele>
        <time>2025-06-26T04:05:59.607Z</time>
      </trkpt>
      <trkpt lat="48.169443" lon="-1.985309">
        <ele>58.103326</ele>
        <time>2025-06-26T04:06:02.637Z</time>
      </trkpt>
      <trkpt lat="48.169270" lon="-1.985248">
        <ele>57.506396</ele>
        <time>2025-06-26T04:06:04.420Z</time>
      </trkpt>
      <trkpt lat="48.168589" lon="-1.984586">
        <ele>54.318906</ele>
        <time>2025-06-26T04:06:12.349Z</time>
      </trkpt>
      <trkpt lat="48.167573" lon="-1.983576">
        <ele>49.039178</ele>
        <time>2025-06-26T04:06:23.918Z</time>
      </trkpt>
      <trkpt lat="48.167254" lon="-1.983259">
        <ele>48.139365</ele>
        <time>2025-06-26T04:06:27.673Z</time>
      </trkpt>
      <trkpt lat="48.166893" lon="-1.982996">
        <ele>47.496171</ele>
        <time>2025-06-26T04:06:31.783Z</time>
      </trkpt>
      <trkpt lat="48.165569" lon="-1.982199">
        <ele>45.881673</ele>
        <time>2025-06-26T04:06:51.039Z</time>
      </trkpt>
      <trkpt lat="48.165404" lon="-1.982026">
        <ele>45.999461</ele>
        <time>2025-06-26T04:06:55.045Z</time>
      </trkpt>
      <trkpt lat="48.164896" lon="-1.981345">
        <ele>46.398117</ele>
        <time>2025-06-26T04:07:08.337Z</time>
      </trkpt>
      <trkpt lat="48.164783" lon="-1.981228">
        <ele>46.478455</ele>
        <time>2025-06-26T04:07:10.950Z</time>
      </trkpt>
      <trkpt lat="48.164684" lon="-1.981170">
        <ele>46.540636</ele>
        <time>2025-06-26T04:07:12.963Z</time>
      </trkpt>
      <trkpt lat="48.164560" lon="-1.981154">
        <ele>46.613445</ele>
        <time>2025-06-26T04:07:15.234Z</time>
      </trkpt>
      <trkpt lat="48.163645" lon="-1.981307">
        <ele>46.210058</ele>
        <time>2025-06-26T04:07:29.116Z</time>
      </trkpt>
      <trkpt lat="48.163531" lon="-1.981306">
        <ele>46.118835</ele>
        <time>2025-06-26T04:07:30.584Z</time>
      </trkpt>
      <trkpt lat="48.163415" lon="-1.981260">
        <ele>46.022822</ele>
        <time>2025-06-26T04:07:32.078Z</time>
      </trkpt>
      <trkpt lat="48.163307" lon="-1.981136">
        <ele>45.913972</ele>
        <time>2025-06-26T04:07:33.748Z</time>
      </trkpt>
      <trkpt lat="48.163254" lon="-1.981023">
        <ele>45.840242</ele>
        <time>2025-06-26T04:07:34.860Z</time>
      </trkpt>
      <trkpt lat="48.163114" lon="-1.980529">
        <ele>45.553767</ele>
        <time>2025-06-26T04:07:39.098Z</time>
      </trkpt>
      <trkpt lat="48.163024" lon="-1.980346">
        <ele>45.432415</ele>
        <time>2025-06-26T04:07:40.812Z</time>
      </trkpt>
      <trkpt lat="48.162636" lon="-1.980287">
        <ele>44.750264</ele>
        <time>2025-06-26T04:07:45.079Z</time>
      </trkpt>
      <trkpt lat="48.162302" lon="-1.980041">
        <ele>43.886259</ele>
        <time>2025-06-26T04:07:48.975Z</time>
      </trkpt>
      <trkpt lat="48.162224" lon="-1.980015">
        <ele>43.700738</ele>
        <time>2025-06-26T04:07:49.798Z</time>
      </trkpt>
      <trkpt lat="48.162153" lon="-1.980071">
        <ele>43.514470</ele>
        <time>2025-06-26T04:07:50.967Z</time>
      </trkpt>
      <trkpt lat="48.161472" lon="-1.980245">
        <ele>41.910537</ele>
        <time>2025-06-26T04:08:01.086Z</time>
      </trkpt>
      <trkpt lat="48.161234" lon="-1.980294">
        <ele>41.352767</ele>
        <time>2025-06-26T04:08:04.788Z</time>
      </trkpt>
      <trkpt lat="48.161075" lon="-1.980337">
        <ele>41.178395</ele>
        <time>2025-06-26T04:08:07.407Z</time>
      </trkpt>
      <trkpt lat="48.160715" lon="-1.980429">
        <ele>41.385955</ele>
        <time>2025-06-26T04:08:13.994Z</time>
      </trkpt>
      <trkpt lat="48.160608" lon="-1.980453">
        <ele>41.447446</ele>
        <time>2025-06-26T04:08:16.207Z</time>
      </trkpt>
      <trkpt lat="48.160506" lon="-1.980481">
        <ele>41.506382</ele>
        <time>2025-06-26T04:08:18.497Z</time>
      </trkpt>
      <trkpt lat="48.159115" lon="-1.980780">
        <ele>42.262000</ele>
        <time>2025-06-26T04:08:56.565Z</time>
      </trkpt>
      <trkpt lat="48.157724" lon="-1.981106">
        <ele>42.822722</ele>
        <time>2025-06-26T04:09:24.751Z</time>
      </trkpt>
      <trkpt lat="48.157306" lon="-1.981204">
        <ele>43.370182</ele>
        <time>2025-06-26T04:09:33.676Z</time>
      </trkpt>
      <trkpt lat="48.157089" lon="-1.981329">
        <ele>43.771383</ele>
        <time>2025-06-26T04:09:39.178Z</time>
      </trkpt>
      <trkpt lat="48.156912" lon="-1.981510">
        <ele>44.141159</ele>
        <time>2025-06-26T04:09:44.572Z</time>
      </trkpt>
      <trkpt lat="48.155965" lon="-1.983018">
        <ele>46.870672</ele>
        <time>2025-06-26T04:10:26.425Z</time>
      </trkpt>
      <trkpt lat="48.155878" lon="-1.983216">
        <ele>47.316846</ele>
        <time>2025-06-26T04:10:31.511Z</time>
      </trkpt>
      <trkpt lat="48.155810" lon="-1.983445">
        <ele>47.788559</ele>
        <time>2025-06-26T04:10:36.870Z</time>
      </trkpt>
      <trkpt lat="48.155732" lon="-1.983990">
        <ele>48.837519</ele>
        <time>2025-06-26T04:10:48.854Z</time>
      </trkpt>
      <trkpt lat="48.155629" lon="-1.984573">
        <ele>49.972477</ele>
        <time>2025-06-26T04:11:01.796Z</time>
      </trkpt>
      <trkpt lat="48.155513" lon="-1.984886">
        <ele>50.646299</ele>
        <time>2025-06-26T04:11:09.458Z</time>
      </trkpt>
      <trkpt lat="48.154645" lon="-1.986740">
        <ele>54.543880</ele>
        <time>2025-06-26T04:11:56.120Z</time>
      </trkpt>
      <trkpt lat="48.154502" lon="-1.987016">
        <ele>55.139254</ele>
        <time>2025-06-26T04:12:02.917Z</time>
      </trkpt>
      <trkpt lat="48.154378" lon="-1.987177">
        <ele>55.558202</ele>
        <time>2025-06-26T04:12:07.617Z</time>
      </trkpt>
      <trkpt lat="48.154133" lon="-1.987230">
        <ele>56.101579</ele>
        <time>2025-06-26T04:12:14.678Z</time>
      </trkpt>
      <trkpt lat="48.153670" lon="-1.987217">
        <ele>57.090282</ele>
        <time>2025-06-26T04:12:27.785Z</time>
      </trkpt>
      <trkpt lat="48.153468" lon="-1.987296">
        <ele>57.536001</ele>
        <time>2025-06-26T04:12:33.785Z</time>
      </trkpt>
      <trkpt lat="48.152884" lon="-1.987704">
        <ele>58.911653</ele>
        <time>2025-06-26T04:12:52.385Z</time>
      </trkpt>
      <trkpt lat="48.152682" lon="-1.987964">
        <ele>59.480122</ele>
        <time>2025-06-26T04:13:00.126Z</time>
      </trkpt>
      <trkpt lat="48.152580" lon="-1.988251">
        <ele>59.799199</ele>
        <time>2025-06-26T04:13:06.382Z</time>
      </trkpt>
      <trkpt lat="48.152386" lon="-1.989097">
        <ele>60.669154</ele>
        <time>2025-06-26T04:13:23.255Z</time>
      </trkpt>
      <trkpt lat="48.151776" lon="-1.990715">
        <ele>62.320531</ele>
        <time>2025-06-26T04:13:53.317Z</time>
      </trkpt>
      <trkpt lat="48.151687" lon="-1.990900">
        <ele>62.447721</ele>
        <time>2025-06-26T04:13:56.633Z</time>
      </trkpt>
      <trkpt lat="48.151792" lon="-1.991158">
        <ele>62.616251</ele>
        <time>2025-06-26T04:13:59.997Z</time>
      </trkpt>
      <trkpt lat="48.151860" lon="-1.991427">
        <ele>62.776666</ele>
        <time>2025-06-26T04:14:03.245Z</time>
      </trkpt>
      <trkpt lat="48.151927" lon="-1.991876">
        <ele>63.033238</ele>
        <time>2025-06-26T04:14:08.588Z</time>
      </trkpt>
      <trkpt lat="48.151961" lon="-1.992382">
        <ele>63.316836</ele>
        <time>2025-06-26T04:14:14.651Z</time>
      </trkpt>
      <trkpt lat="48.151952" lon="-1.993609">
        <ele>64.400619</ele>
        <time>2025-06-26T04:14:30.798Z</time>
      </trkpt>
      <trkpt lat="48.151932" lon="-1.994206">
        <ele>65.078228</ele>
        <time>2025-06-26T04:14:39.508Z</time>
      </trkpt>
      <trkpt lat="48.151970" lon="-1.994629">
        <ele>65.562067</ele>
        <time>2025-06-26T04:14:45.946Z</time>
      </trkpt>
      <trkpt lat="48.152106" lon="-1.995469">
        <ele>66.541925</ele>
        <time>2025-06-26T04:14:59.050Z</time>
      </trkpt>
      <trkpt lat="48.152136" lon="-1.995863">
        <ele>67.011872</ele>
        <time>2025-06-26T04:15:05.070Z</time>
      </trkpt>
      <trkpt lat="48.152135" lon="-1.996248">
        <ele>67.476061</ele>
        <time>2025-06-26T04:15:10.894Z</time>
      </trkpt>
      <trkpt lat="48.151917" lon="-1.997510">
        <ele>69.047802</ele>
        <time>2025-06-26T04:15:30.407Z</time>
      </trkpt>
      <trkpt lat="48.151890" lon="-1.998037">
        <ele>69.685067</ele>
        <time>2025-06-26T04:15:37.928Z</time>
      </trkpt>
      <trkpt lat="48.151925" lon="-1.998784">
        <ele>70.427845</ele>
        <time>2025-06-26T04:15:48.257Z</time>
      </trkpt>
      <trkpt lat="48.152251" lon="-2.001339">
        <ele>72.779344</ele>
        <time>2025-06-26T04:16:23.203Z</time>
      </trkpt>
      <trkpt lat="48.152292" lon="-2.001803">
        <ele>73.175471</ele>
        <time>2025-06-26T04:16:29.510Z</time>
      </trkpt>
      <trkpt lat="48.152317" lon="-2.003270">
        <ele>74.417446</ele>
        <time>2025-06-26T04:16:49.038Z</time>
      </trkpt>
      <trkpt lat="48.152472" lon="-2.005116">
        <ele>75.786786</ele>
        <time>2025-06-26T04:17:12.653Z</time>
      </trkpt>
      <trkpt lat="48.152590" lon="-2.006783">
        <ele>76.911129</ele>
        <time>2025-06-26T04:17:34.071Z</time>
      </trkpt>
      <trkpt lat="48.152641" lon="-2.007273">
        <ele>77.197810</ele>
        <time>2025-06-26T04:17:40.329Z</time>
      </trkpt>
      <trkpt lat="48.153005" lon="-2.008466">
        <ele>77.956146</ele>
        <time>2025-06-26T04:17:55.883Z</time>
      </trkpt>
      <trkpt lat="48.153107" lon="-2.009499">
        <ele>78.652716</ele>
        <time>2025-06-26T04:18:08.100Z</time>
      </trkpt>
      <trkpt lat="48.153171" lon="-2.009938">
        <ele>78.972556</ele>
        <time>2025-06-26T04:18:13.660Z</time>
      </trkpt>
      <trkpt lat="48.153272" lon="-2.010348">
        <ele>79.283641</ele>
        <time>2025-06-26T04:18:19.294Z</time>
      </trkpt>
      <trkpt lat="48.153787" lon="-2.012073">
        <ele>80.251413</ele>
        <time>2025-06-26T04:18:44.819Z</time>
      </trkpt>
      <trkpt lat="48.153873" lon="-2.012454">
        <ele>80.341899</ele>
        <time>2025-06-26T04:18:49.872Z</time>
      </trkpt>
      <trkpt lat="48.154031" lon="-2.013060">
        <ele>80.488272</ele>
        <time>2025-06-26T04:18:56.975Z</time>
      </trkpt>
      <trkpt lat="48.154180" lon="-2.013800">
        <ele>80.662166</ele>
        <time>2025-06-26T04:19:03.893Z</time>
      </trkpt>
      <trkpt lat="48.152553" lon="-2.014441">
        <ele>78.607440</ele>
        <time>2025-06-26T04:19:23.379Z</time>
      </trkpt>
      <trkpt lat="48.152003" lon="-2.014646">
        <ele>77.957736</ele>
        <time>2025-06-26T04:19:29.979Z</time>
      </trkpt>
      <trkpt lat="48.151058" lon="-2.015030">
        <ele>76.897235</ele>
        <time>2025-06-26T04:19:41.949Z</time>
      </trkpt>
      <trkpt lat="48.150730" lon="-2.015106">
        <ele>76.537750</ele>
        <time>2025-06-26T04:19:46.159Z</time>
      </trkpt>
      <trkpt lat="48.150411" lon="-2.015072">
        <ele>76.144960</ele>
        <time>2025-06-26T04:19:50.208Z</time>
      </trkpt>
      <trkpt lat="48.149097" lon="-2.014783">
        <ele>74.425256</ele>
        <time>2025-06-26T04:20:06.122Z</time>
      </trkpt>
      <trkpt lat="48.149042" lon="-2.014769">
        <ele>74.353017</ele>
        <time>2025-06-26T04:20:06.752Z</time>
      </trkpt>
      <trkpt lat="48.148591" lon="-2.014684">
        <ele>73.457950</ele>
        <time>2025-06-26T04:20:11.727Z</time>
      </trkpt>
      <trkpt lat="48.148413" lon="-2.014718">
        <ele>73.013170</ele>
        <time>2025-06-26T04:20:13.643Z</time>
      </trkpt>
      <trkpt lat="48.147449" lon="-2.015137">
        <ele>70.525237</ele>
        <time>2025-06-26T04:20:24.028Z</time>
      </trkpt>
      <trkpt lat="48.147246" lon="-2.015250">
        <ele>69.988474</ele>
        <time>2025-06-26T04:20:26.291Z</time>
      </trkpt>
      <trkpt lat="48.147095" lon="-2.015391">
        <ele>69.580336</ele>
        <time>2025-06-26T04:20:28.168Z</time>
      </trkpt>
      <trkpt lat="48.146952" lon="-2.015619">
        <ele>69.243979</ele>
        <time>2025-06-26T04:20:30.399Z</time>
      </trkpt>
      <trkpt lat="48.146800" lon="-2.015935">
        <ele>68.825245</ele>
        <time>2025-06-26T04:20:33.204Z</time>
      </trkpt>
      <trkpt lat="48.146654" lon="-2.016144">
        <ele>68.499987</ele>
        <time>2025-06-26T04:20:35.427Z</time>
      </trkpt>
      <trkpt lat="48.146476" lon="-2.016308">
        <ele>68.163374</ele>
        <time>2025-06-26T04:20:37.738Z</time>
      </trkpt>
      <trkpt lat="48.146264" lon="-2.016438">
        <ele>67.794359</ele>
        <time>2025-06-26T04:20:40.340Z</time>
      </trkpt>
      <trkpt lat="48.145446" lon="-2.016806">
        <ele>66.847645</ele>
        <time>2025-06-26T04:20:50.853Z</time>
      </trkpt>
      <trkpt lat="48.145007" lon="-2.017125">
        <ele>67.098880</ele>
        <time>2025-06-26T04:20:58.057Z</time>
      </trkpt>
      <trkpt lat="48.143691" lon="-2.018356">
        <ele>67.912225</ele>
        <time>2025-06-26T04:21:28.401Z</time>
      </trkpt>
      <trkpt lat="48.143385" lon="-2.018511">
        <ele>68.089143</ele>
        <time>2025-06-26T04:21:34.500Z</time>
      </trkpt>
      <trkpt lat="48.142256" lon="-2.018738">
        <ele>68.567515</ele>
        <time>2025-06-26T04:21:52.289Z</time>
      </trkpt>
      <trkpt lat="48.141031" lon="-2.018949">
        <ele>67.548117</ele>
        <time>2025-06-26T04:22:08.938Z</time>
      </trkpt>
      <trkpt lat="48.140682" lon="-2.019058">
        <ele>67.253393</ele>
        <time>2025-06-26T04:22:13.077Z</time>
      </trkpt>
      <trkpt lat="48.140431" lon="-2.019215">
        <ele>66.528438</ele>
        <time>2025-06-26T04:22:16.082Z</time>
      </trkpt>
      <trkpt lat="48.139459" lon="-2.020168">
        <ele>62.126931</ele>
        <time>2025-06-26T04:22:27.584Z</time>
      </trkpt>
      <trkpt lat="48.137558" lon="-2.023111">
        <ele>49.488319</ele>
        <time>2025-06-26T04:22:53.022Z</time>
      </trkpt>
      <trkpt lat="48.137306" lon="-2.023495">
        <ele>48.523105</ele>
        <time>2025-06-26T04:22:56.595Z</time>
      </trkpt>
      <trkpt lat="48.136662" lon="-2.024524">
        <ele>45.994814</ele>
        <time>2025-06-26T04:23:07.224Z</time>
      </trkpt>
      <trkpt lat="48.135675" lon="-2.026468">
        <ele>48.912842</ele>
        <time>2025-06-26T04:23:40.966Z</time>
      </trkpt>
      <trkpt lat="48.134639" lon="-2.028118">
        <ele>56.292161</ele>
        <time>2025-06-26T04:24:37.474Z</time>
      </trkpt>
      <trkpt lat="48.133590" lon="-2.029730">
        <ele>63.378549</ele>
        <time>2025-06-26T04:25:34.168Z</time>
      </trkpt>
      <trkpt lat="48.133546" lon="-2.029787">
        <ele>63.635519</ele>
        <time>2025-06-26T04:25:35.974Z</time>
      </trkpt>
      <trkpt lat="48.133042" lon="-2.030368">
        <ele>66.444902</ele>
        <time>2025-06-26T04:25:53.819Z</time>
      </trkpt>
      <trkpt lat="48.132988" lon="-2.030425">
        <ele>66.736727</ele>
        <time>2025-06-26T04:25:55.459Z</time>
      </trkpt>
      <trkpt lat="48.132946" lon="-2.030470">
        <ele>66.855734</ele>
        <time>2025-06-26T04:25:56.662Z</time>
      </trkpt>
      <trkpt lat="48.133036" lon="-2.030669">
        <ele>66.961653</ele>
        <time>2025-06-26T04:26:01.239Z</time>
      </trkpt>
      <trkpt lat="48.133077" lon="-2.030831">
        <ele>67.037992</ele>
        <time>2025-06-26T04:26:04.375Z</time>
      </trkpt>
      <trkpt lat="48.133080" lon="-2.031042">
        <ele>67.130983</ele>
        <time>2025-06-26T04:26:07.942Z</time>
      </trkpt>
      <trkpt lat="48.132819" lon="-2.032360">
        <ele>67.736741</ele>
        <time>2025-06-26T04:26:28.533Z</time>
      </trkpt>
      <trkpt lat="48.132695" lon="-2.033046">
        <ele>67.932399</ele>
        <time>2025-06-26T04:26:37.219Z</time>
      </trkpt>
      <trkpt lat="48.132652" lon="-2.033283">
        <ele>67.549200</ele>
        <time>2025-06-26T04:26:40.106Z</time>
      </trkpt>
      <trkpt lat="48.132506" lon="-2.034093">
        <ele>66.240119</ele>
        <time>2025-06-26T04:26:49.265Z</time>
      </trkpt>
      <trkpt lat="48.132436" lon="-2.034237">
        <ele>65.962165</ele>
        <time>2025-06-26T04:26:51.107Z</time>
      </trkpt>
      <trkpt lat="48.132431" lon="-2.034596">
        <ele>65.401911</ele>
        <time>2025-06-26T04:26:54.709Z</time>
      </trkpt>
      <trkpt lat="48.132479" lon="-2.034640">
        <ele>65.270364</ele>
        <time>2025-06-26T04:26:55.281Z</time>
      </trkpt>
      <trkpt lat="48.132480" lon="-2.034698">
        <ele>65.179839</ele>
        <time>2025-06-26T04:26:55.674Z</time>
      </trkpt>
      <trkpt lat="48.132438" lon="-2.034746">
        <ele>65.056351</ele>
        <time>2025-06-26T04:26:56.444Z</time>
      </trkpt>
      <trkpt lat="48.132392" lon="-2.034842">
        <ele>64.871961</ele>
        <time>2025-06-26T04:26:57.584Z</time>
      </trkpt>
      <trkpt lat="48.132396" lon="-2.034906">
        <ele>64.771667</ele>
        <time>2025-06-26T04:26:58.020Z</time>
      </trkpt>
      <trkpt lat="48.132356" lon="-2.034973">
        <ele>64.631409</ele>
        <time>2025-06-26T04:26:58.629Z</time>
      </trkpt>
      <trkpt lat="48.132315" lon="-2.034975">
        <ele>64.535510</ele>
        <time>2025-06-26T04:26:59.031Z</time>
      </trkpt>
      <trkpt lat="48.132278" lon="-2.034929">
        <ele>64.423113</ele>
        <time>2025-06-26T04:26:59.504Z</time>
      </trkpt>
      <trkpt lat="48.132272" lon="-2.034858">
        <ele>64.311450</ele>
        <time>2025-06-26T04:26:59.982Z</time>
      </trkpt>
      <trkpt lat="48.132165" lon="-2.034788">
        <ele>64.038504</ele>
        <time>2025-06-26T04:27:01.129Z</time>
      </trkpt>
      <trkpt lat="48.131973" lon="-2.034746">
        <ele>63.468722</ele>
        <time>2025-06-26T04:27:03.029Z</time>
      </trkpt>
      <trkpt lat="48.131725" lon="-2.034691">
        <ele>62.592055</ele>
        <time>2025-06-26T04:27:05.474Z</time>
      </trkpt>
      <trkpt lat="48.131147" lon="-2.034562">
        <ele>60.548576</ele>
        <time>2025-06-26T04:27:11.156Z</time>
      </trkpt>
      <trkpt lat="48.130941" lon="-2.034518">
        <ele>59.820942</ele>
        <time>2025-06-26T04:27:13.209Z</time>
      </trkpt>
      <trkpt lat="48.130934" lon="-2.034518">
        <ele>59.796464</ele>
        <time>2025-06-26T04:27:13.281Z</time>
      </trkpt>
      <trkpt lat="48.129632" lon="-2.034253">
        <ele>54.887363</ele>
        <time>2025-06-26T04:27:26.952Z</time>
      </trkpt>
      <trkpt lat="48.129565" lon="-2.034333">
        <ele>54.547312</ele>
        <time>2025-06-26T04:27:27.819Z</time>
      </trkpt>
      <trkpt lat="48.129431" lon="-2.034220">
        <ele>53.936992</ele>
        <time>2025-06-26T04:27:29.348Z</time>
      </trkpt>
      <trkpt lat="48.129318" lon="-2.034196">
        <ele>53.483999</ele>
        <time>2025-06-26T04:27:30.472Z</time>
      </trkpt>
      <trkpt lat="48.129280" lon="-2.034147">
        <ele>53.285003</ele>
        <time>2025-06-26T04:27:30.959Z</time>
      </trkpt>
      <trkpt lat="48.129283" lon="-2.033995">
        <ele>52.882151</ele>
        <time>2025-06-26T04:27:31.948Z</time>
      </trkpt>
      <trkpt lat="48.129189" lon="-2.033949">
        <ele>52.489657</ele>
        <time>2025-06-26T04:27:32.891Z</time>
      </trkpt>
      <trkpt lat="48.128891" lon="-2.033917">
        <ele>51.303829</ele>
        <time>2025-06-26T04:27:35.727Z</time>
      </trkpt>
      <trkpt lat="48.128799" lon="-2.033908">
        <ele>50.937893</ele>
        <time>2025-06-26T04:27:36.586Z</time>
      </trkpt>
      <trkpt lat="48.128612" lon="-2.033996">
        <ele>50.088942</ele>
        <time>2025-06-26T04:27:38.406Z</time>
      </trkpt>
      <trkpt lat="48.128447" lon="-2.034130">
        <ele>49.114827</ele>
        <time>2025-06-26T04:27:40.133Z</time>
      </trkpt>
      <trkpt lat="48.128073" lon="-2.034509">
        <ele>46.771330</ele>
        <time>2025-06-26T04:27:44.205Z</time>
      </trkpt>
      <trkpt lat="48.128013" lon="-2.034522">
        <ele>46.456675</ele>
        <time>2025-06-26T04:27:44.747Z</time>
      </trkpt>
      <trkpt lat="48.127859" lon="-2.034526">
        <ele>45.657257</ele>
        <time>2025-06-26T04:27:46.151Z</time>
      </trkpt>
      <trkpt lat="48.126961" lon="-2.034163">
        <ele>41.044928</ele>
        <time>2025-06-26T04:27:54.989Z</time>
      </trkpt>
      <trkpt lat="48.126742" lon="-2.034075">
        <ele>40.991285</ele>
        <time>2025-06-26T04:27:57.321Z</time>
      </trkpt>
      <trkpt lat="48.126545" lon="-2.033977">
        <ele>40.942176</ele>
        <time>2025-06-26T04:27:59.564Z</time>
      </trkpt>
      <trkpt lat="48.126415" lon="-2.034005">
        <ele>40.911104</ele>
        <time>2025-06-26T04:28:01.086Z</time>
      </trkpt>
      <trkpt lat="48.126359" lon="-2.034048">
        <ele>40.896216</ele>
        <time>2025-06-26T04:28:01.849Z</time>
      </trkpt>
      <trkpt lat="48.126221" lon="-2.034271">
        <ele>40.848195</ele>
        <time>2025-06-26T04:28:04.508Z</time>
      </trkpt>
      <trkpt lat="48.126068" lon="-2.034685">
        <ele>40.773465</ele>
        <time>2025-06-26T04:28:09.830Z</time>
      </trkpt>
      <trkpt lat="48.125459" lon="-2.036560">
        <ele>43.113132</ele>
        <time>2025-06-26T04:28:44.670Z</time>
      </trkpt>
      <trkpt lat="48.125357" lon="-2.036800">
        <ele>43.714658</ele>
        <time>2025-06-26T04:28:50.455Z</time>
      </trkpt>
      <trkpt lat="48.125139" lon="-2.037316">
        <ele>45.005733</ele>
        <time>2025-06-26T04:29:02.859Z</time>
      </trkpt>
      <trkpt lat="48.124901" lon="-2.037863">
        <ele>46.377354</ele>
        <time>2025-06-26T04:29:16.076Z</time>
      </trkpt>
      <trkpt lat="48.124164" lon="-2.039605">
        <ele>50.091541</ele>
        <time>2025-06-26T04:29:52.997Z</time>
      </trkpt>
      <trkpt lat="48.123894" lon="-2.040074">
        <ele>51.198276</ele>
        <time>2025-06-26T04:30:01.591Z</time>
      </trkpt>
      <trkpt lat="48.123793" lon="-2.040185">
        <ele>51.431465</ele>
        <time>2025-06-26T04:30:04.209Z</time>
      </trkpt>
      <trkpt lat="48.123085" lon="-2.040713">
        <ele>52.903746</ele>
        <time>2025-06-26T04:30:20.452Z</time>
      </trkpt>
      <trkpt lat="48.120272" lon="-2.042744">
        <ele>58.848344</ele>
        <time>2025-06-26T04:31:34.143Z</time>
      </trkpt>
      <trkpt lat="48.119094" lon="-2.043580">
        <ele>60.055677</ele>
        <time>2025-06-26T04:31:58.152Z</time>
      </trkpt>
      <trkpt lat="48.117827" lon="-2.044549">
        <ele>58.915308</ele>
        <time>2025-06-26T04:32:14.287Z</time>
      </trkpt>
      <trkpt lat="48.117365" lon="-2.044902">
        <ele>58.605005</ele>
        <time>2025-06-26T04:32:21.198Z</time>
      </trkpt>
      <trkpt lat="48.116525" lon="-2.045520">
        <ele>59.062950</ele>
        <time>2025-06-26T04:32:40.702Z</time>
      </trkpt>
      <trkpt lat="48.116021" lon="-2.045895">
        <ele>59.338325</ele>
        <time>2025-06-26T04:32:52.520Z</time>
      </trkpt>
      <trkpt lat="48.113404" lon="-2.047859">
        <ele>53.871703</ele>
        <time>2025-06-26T04:33:24.160Z</time>
      </trkpt>
      <trkpt lat="48.113231" lon="-2.048017">
        <ele>53.415570</ele>
        <time>2025-06-26T04:33:26.223Z</time>
      </trkpt>
      <trkpt lat="48.113064" lon="-2.048325">
        <ele>52.819231</ele>
        <time>2025-06-26T04:33:28.924Z</time>
      </trkpt>
      <trkpt lat="48.112962" lon="-2.048747">
        <ele>52.144689</ele>
        <time>2025-06-26T04:33:32.019Z</time>
      </trkpt>
      <trkpt lat="48.112699" lon="-2.050436">
        <ele>51.994114</ele>
        <time>2025-06-26T04:33:46.652Z</time>
      </trkpt>
      <trkpt lat="48.112520" lon="-2.051462">
        <ele>52.049792</ele>
        <time>2025-06-26T04:34:01.525Z</time>
      </trkpt>
      <trkpt lat="48.112368" lon="-2.052193">
        <ele>53.000658</ele>
        <time>2025-06-26T04:34:14.030Z</time>
      </trkpt>
      <trkpt lat="48.111934" lon="-2.054086">
        <ele>55.663569</ele>
        <time>2025-06-26T04:34:44.832Z</time>
      </trkpt>
      <trkpt lat="48.110921" lon="-2.058524">
        <ele>59.926444</ele>
        <time>2025-06-26T04:35:50.253Z</time>
      </trkpt>
      <trkpt lat="48.110907" lon="-2.058715">
        <ele>60.064304</ele>
        <time>2025-06-26T04:35:52.402Z</time>
      </trkpt>
      <trkpt lat="48.110936" lon="-2.058973">
        <ele>60.252015</ele>
        <time>2025-06-26T04:35:55.238Z</time>
      </trkpt>
      <trkpt lat="48.112234" lon="-2.062819">
        <ele>59.617897</ele>
        <time>2025-06-26T04:36:33.724Z</time>
      </trkpt>
      <trkpt lat="48.112754" lon="-2.064368">
        <ele>59.119209</ele>
        <time>2025-06-26T04:36:51.380Z</time>
      </trkpt>
      <trkpt lat="48.112908" lon="-2.064813">
        <ele>58.758504</ele>
        <time>2025-06-26T04:36:56.133Z</time>
      </trkpt>
      <trkpt lat="48.112998" lon="-2.065050">
        <ele>58.562290</ele>
        <time>2025-06-26T04:36:58.492Z</time>
      </trkpt>
      <trkpt lat="48.113085" lon="-2.065356">
        <ele>58.322944</ele>
        <time>2025-06-26T04:37:01.208Z</time>
      </trkpt>
      <trkpt lat="48.113151" lon="-2.065658">
        <ele>58.094265</ele>
        <time>2025-06-26T04:37:03.652Z</time>
      </trkpt>
      <trkpt lat="48.113209" lon="-2.065920">
        <ele>57.895625</ele>
        <time>2025-06-26T04:37:05.698Z</time>
      </trkpt>
      <trkpt lat="48.113224" lon="-2.066015">
        <ele>57.825373</ele>
        <time>2025-06-26T04:37:06.410Z</time>
      </trkpt>
      <trkpt lat="48.113272" lon="-2.066324">
        <ele>57.597065</ele>
        <time>2025-06-26T04:37:08.693Z</time>
      </trkpt>
      <trkpt lat="48.113351" lon="-2.066793">
        <ele>56.904313</ele>
        <time>2025-06-26T04:37:12.133Z</time>
      </trkpt>
      <trkpt lat="48.113465" lon="-2.067820">
        <ele>55.084963</ele>
        <time>2025-06-26T04:37:19.374Z</time>
      </trkpt>
      <trkpt lat="48.113474" lon="-2.068152">
        <ele>54.504306</ele>
        <time>2025-06-26T04:37:21.641Z</time>
      </trkpt>
      <trkpt lat="48.113453" lon="-2.068257">
        <ele>54.312759</ele>
        <time>2025-06-26T04:37:22.395Z</time>
      </trkpt>
      <trkpt lat="48.113413" lon="-2.068380">
        <ele>54.073671</ele>
        <time>2025-06-26T04:37:23.330Z</time>
      </trkpt>
      <trkpt lat="48.112918" lon="-2.069102">
        <ele>52.549877</ele>
        <time>2025-06-26T04:37:30.459Z</time>
      </trkpt>
      <trkpt lat="48.112367" lon="-2.070054">
        <ele>51.559753</ele>
        <time>2025-06-26T04:37:40.170Z</time>
      </trkpt>
      <trkpt lat="48.112121" lon="-2.070551">
        <ele>51.073549</ele>
        <time>2025-06-26T04:37:45.607Z</time>
      </trkpt>
      <trkpt lat="48.112002" lon="-2.070878">
        <ele>50.780873</ele>
        <time>2025-06-26T04:37:49.182Z</time>
      </trkpt>
      <trkpt lat="48.111838" lon="-2.071546">
        <ele>50.502712</ele>
        <time>2025-06-26T04:37:56.817Z</time>
      </trkpt>
      <trkpt lat="48.111795" lon="-2.072235">
        <ele>50.303355</ele>
        <time>2025-06-26T04:38:04.103Z</time>
      </trkpt>
      <trkpt lat="48.111802" lon="-2.072901">
        <ele>50.111465</ele>
        <time>2025-06-26T04:38:09.940Z</time>
      </trkpt>
      <trkpt lat="48.111782" lon="-2.073180">
        <ele>50.030627</ele>
        <time>2025-06-26T04:38:12.243Z</time>
      </trkpt>
      <trkpt lat="48.111673" lon="-2.073644">
        <ele>49.888225</ele>
        <time>2025-06-26T04:38:16.164Z</time>
      </trkpt>
      <trkpt lat="48.111560" lon="-2.073873">
        <ele>49.676722</ele>
        <time>2025-06-26T04:38:18.366Z</time>
      </trkpt>
      <trkpt lat="48.111471" lon="-2.074005">
        <ele>49.537383</ele>
        <time>2025-06-26T04:38:19.821Z</time>
      </trkpt>
      <trkpt lat="48.111358" lon="-2.074105">
        <ele>49.391373</ele>
        <time>2025-06-26T04:38:21.325Z</time>
      </trkpt>
      <trkpt lat="48.109799" lon="-2.074904">
        <ele>48.079883</ele>
        <time>2025-06-26T04:38:41.056Z</time>
      </trkpt>
      <trkpt lat="48.109703" lon="-2.074955">
        <ele>48.145584</ele>
        <time>2025-06-26T04:38:42.463Z</time>
      </trkpt>
      <trkpt lat="48.109044" lon="-2.075306">
        <ele>48.596729</ele>
        <time>2025-06-26T04:38:54.001Z</time>
      </trkpt>
      <trkpt lat="48.108688" lon="-2.075527">
        <ele>48.845300</ele>
        <time>2025-06-26T04:39:02.027Z</time>
      </trkpt>
      <trkpt lat="48.108418" lon="-2.075769">
        <ele>49.048259</ele>
        <time>2025-06-26T04:39:09.224Z</time>
      </trkpt>
      <trkpt lat="48.107281" lon="-2.076966">
        <ele>51.925687</ele>
        <time>2025-06-26T04:39:43.425Z</time>
      </trkpt>
      <trkpt lat="48.107216" lon="-2.077043">
        <ele>52.097318</ele>
        <time>2025-06-26T04:39:45.408Z</time>
      </trkpt>
      <trkpt lat="48.104820" lon="-2.079617">
        <ele>56.120376</ele>
        <time>2025-06-26T04:40:43.226Z</time>
      </trkpt>
      <trkpt lat="48.104593" lon="-2.079891">
        <ele>56.509144</ele>
        <time>2025-06-26T04:40:49.014Z</time>
      </trkpt>
      <trkpt lat="48.104347" lon="-2.080251">
        <ele>56.967783</ele>
        <time>2025-06-26T04:40:56.034Z</time>
      </trkpt>
      <trkpt lat="48.102498" lon="-2.083205">
        <ele>61.085715</ele>
        <time>2025-06-26T04:41:55.001Z</time>
      </trkpt>
      <trkpt lat="48.101202" lon="-2.085270">
        <ele>61.968892</ele>
        <time>2025-06-26T04:42:28.296Z</time>
      </trkpt>
      <trkpt lat="48.101067" lon="-2.085548">
        <ele>61.821106</ele>
        <time>2025-06-26T04:42:31.516Z</time>
      </trkpt>
      <trkpt lat="48.101001" lon="-2.085765">
        <ele>61.718586</ele>
        <time>2025-06-26T04:42:33.639Z</time>
      </trkpt>
      <trkpt lat="48.100961" lon="-2.086009">
        <ele>61.610563</ele>
        <time>2025-06-26T04:42:35.793Z</time>
      </trkpt>
      <trkpt lat="48.100556" lon="-2.089464">
        <ele>57.109587</ele>
        <time>2025-06-26T04:43:00.974Z</time>
      </trkpt>
      <trkpt lat="48.100382" lon="-2.091061">
        <ele>54.847623</ele>
        <time>2025-06-26T04:43:12.010Z</time>
      </trkpt>
      <trkpt lat="48.100383" lon="-2.091701">
        <ele>53.956955</ele>
        <time>2025-06-26T04:43:16.720Z</time>
      </trkpt>
      <trkpt lat="48.100331" lon="-2.092258">
        <ele>53.312441</ele>
        <time>2025-06-26T04:43:21.363Z</time>
      </trkpt>
      <trkpt lat="48.100273" lon="-2.092534">
        <ele>53.487353</ele>
        <time>2025-06-26T04:43:24.090Z</time>
      </trkpt>
      <trkpt lat="48.099792" lon="-2.094097">
        <ele>54.527707</ele>
        <time>2025-06-26T04:43:45.913Z</time>
      </trkpt>
      <trkpt lat="48.099654" lon="-2.094549">
        <ele>54.828151</ele>
        <time>2025-06-26T04:43:53.330Z</time>
      </trkpt>
      <trkpt lat="48.099485" lon="-2.094827">
        <ele>55.343172</ele>
        <time>2025-06-26T04:43:59.069Z</time>
      </trkpt>
      <trkpt lat="48.099380" lon="-2.094900">
        <ele>55.640414</ele>
        <time>2025-06-26T04:44:01.750Z</time>
      </trkpt>
      <trkpt lat="48.099261" lon="-2.094963">
        <ele>55.964494</ele>
        <time>2025-06-26T04:44:04.679Z</time>
      </trkpt>
      <trkpt lat="48.097076" lon="-2.095598">
        <ele>62.333416</ele>
        <time>2025-06-26T04:45:03.019Z</time>
      </trkpt>
      <trkpt lat="48.096280" lon="-2.095800">
        <ele>65.033309</ele>
        <time>2025-06-26T04:45:26.827Z</time>
      </trkpt>
      <trkpt lat="48.096200" lon="-2.095858">
        <ele>65.330553</ele>
        <time>2025-06-26T04:45:29.535Z</time>
      </trkpt>
      <trkpt lat="48.096105" lon="-2.095984">
        <ele>65.792791</ele>
        <time>2025-06-26T04:45:33.433Z</time>
      </trkpt>
      <trkpt lat="48.096046" lon="-2.096107">
        <ele>66.188359</ele>
        <time>2025-06-26T04:45:36.573Z</time>
      </trkpt>
      <trkpt lat="48.095977" lon="-2.096453">
        <ele>67.131583</ele>
        <time>2025-06-26T04:45:44.050Z</time>
      </trkpt>
      <trkpt lat="48.095934" lon="-2.097033">
        <ele>68.655921</ele>
        <time>2025-06-26T04:45:55.959Z</time>
      </trkpt>
      <trkpt lat="48.095816" lon="-2.097707">
        <ele>70.475980</ele>
        <time>2025-06-26T04:46:10.076Z</time>
      </trkpt>
      <trkpt lat="48.095666" lon="-2.098455">
        <ele>72.516030</ele>
        <time>2025-06-26T04:46:26.050Z</time>
      </trkpt>
      <trkpt lat="48.095421" lon="-2.099498">
        <ele>75.120432</ele>
        <time>2025-06-26T04:46:48.474Z</time>
      </trkpt>
      <trkpt lat="48.095303" lon="-2.099680">
        <ele>75.716773</ele>
        <time>2025-06-26T04:46:53.510Z</time>
      </trkpt>
      <trkpt lat="48.095222" lon="-2.099704">
        <ele>76.007430</ele>
        <time>2025-06-26T04:46:55.966Z</time>
      </trkpt>
      <trkpt lat="48.095068" lon="-2.099696">
        <ele>76.549850</ele>
        <time>2025-06-26T04:47:00.546Z</time>
      </trkpt>
      <trkpt lat="48.094783" lon="-2.099548">
        <ele>77.611704</ele>
        <time>2025-06-26T04:47:09.412Z</time>
      </trkpt>
      <trkpt lat="48.093719" lon="-2.099264">
        <ele>80.306785</ele>
        <time>2025-06-26T04:47:37.112Z</time>
      </trkpt>
      <trkpt lat="48.093603" lon="-2.099214">
        <ele>80.544522</ele>
        <time>2025-06-26T04:47:39.929Z</time>
      </trkpt>
      <trkpt lat="48.093264" lon="-2.098907">
        <ele>81.324807</ele>
        <time>2025-06-26T04:47:48.420Z</time>
      </trkpt>
      <trkpt lat="48.093020" lon="-2.098742">
        <ele>81.852100</ele>
        <time>2025-06-26T04:47:53.615Z</time>
      </trkpt>
      <trkpt lat="48.092879" lon="-2.098848">
        <ele>82.162838</ele>
        <time>2025-06-26T04:47:56.497Z</time>
      </trkpt>
      <trkpt lat="48.091932" lon="-2.098497">
        <ele>83.906772</ele>
        <time>2025-06-26T04:48:15.550Z</time>
      </trkpt>
      <trkpt lat="48.091655" lon="-2.098443">
        <ele>84.397539</ele>
        <time>2025-06-26T04:48:21.877Z</time>
      </trkpt>
      <trkpt lat="48.091119" lon="-2.098426">
        <ele>85.339444</ele>
        <time>2025-06-26T04:48:34.584Z</time>
      </trkpt>
      <trkpt lat="48.090861" lon="-2.098301">
        <ele>85.812815</ele>
        <time>2025-06-26T04:48:41.365Z</time>
      </trkpt>
      <trkpt lat="48.090635" lon="-2.098149">
        <ele>86.241939</ele>
        <time>2025-06-26T04:48:47.659Z</time>
      </trkpt>
      <trkpt lat="48.090183" lon="-2.097885">
        <ele>87.082286</ele>
        <time>2025-06-26T04:48:59.613Z</time>
      </trkpt>
      <trkpt lat="48.089229" lon="-2.097145">
        <ele>88.783125</ele>
        <time>2025-06-26T04:49:20.861Z</time>
      </trkpt>
      <trkpt lat="48.088615" lon="-2.096736">
        <ele>89.128795</ele>
        <time>2025-06-26T04:49:31.991Z</time>
      </trkpt>
      <trkpt lat="48.087206" lon="-2.096097">
        <ele>89.541740</ele>
        <time>2025-06-26T04:49:55.948Z</time>
      </trkpt>
      <trkpt lat="48.086970" lon="-2.096053">
        <ele>89.492450</ele>
        <time>2025-06-26T04:49:59.845Z</time>
      </trkpt>
      <trkpt lat="48.086613" lon="-2.096066">
        <ele>89.418437</ele>
        <time>2025-06-26T04:50:05.380Z</time>
      </trkpt>
      <trkpt lat="48.086133" lon="-2.096270">
        <ele>89.315023</ele>
        <time>2025-06-26T04:50:12.183Z</time>
      </trkpt>
      <trkpt lat="48.085903" lon="-2.096411">
        <ele>89.211122</ele>
        <time>2025-06-26T04:50:15.267Z</time>
      </trkpt>
      <trkpt lat="48.085688" lon="-2.096608">
        <ele>88.528206</ele>
        <time>2025-06-26T04:50:18.176Z</time>
      </trkpt>
      <trkpt lat="48.084891" lon="-2.097572">
        <ele>85.752274</ele>
        <time>2025-06-26T04:50:28.831Z</time>
      </trkpt>
      <trkpt lat="48.084302" lon="-2.098165">
        <ele>83.845174</ele>
        <time>2025-06-26T04:50:35.740Z</time>
      </trkpt>
      <trkpt lat="48.083467" lon="-2.099270">
        <ele>80.910733</ele>
        <time>2025-06-26T04:50:46.943Z</time>
      </trkpt>
      <trkpt lat="48.082845" lon="-2.100084">
        <ele>80.308203</ele>
        <time>2025-06-26T04:50:57.049Z</time>
      </trkpt>
      <trkpt lat="48.082109" lon="-2.101406">
        <ele>82.433886</ele>
        <time>2025-06-26T04:51:23.692Z</time>
      </trkpt>
      <trkpt lat="48.081913" lon="-2.101783">
        <ele>83.097811</ele>
        <time>2025-06-26T04:51:33.451Z</time>
      </trkpt>
      <trkpt lat="48.081561" lon="-2.102619">
        <ele>86.632876</ele>
        <time>2025-06-26T04:51:57.184Z</time>
      </trkpt>
      <trkpt lat="48.081475" lon="-2.102777">
        <ele>87.361944</ele>
        <time>2025-06-26T04:52:02.536Z</time>
      </trkpt>
      <trkpt lat="48.080844" lon="-2.103650">
        <ele>91.963021</ele>
        <time>2025-06-26T04:52:36.038Z</time>
      </trkpt>
      <trkpt lat="48.080483" lon="-2.104336">
        <ele>94.402674</ele>
        <time>2025-06-26T04:52:57.474Z</time>
      </trkpt>
      <trkpt lat="48.080336" lon="-2.104535">
        <ele>95.170037</ele>
        <time>2025-06-26T04:53:04.064Z</time>
      </trkpt>
      <trkpt lat="48.080170" lon="-2.104684">
        <ele>95.919422</ele>
        <time>2025-06-26T04:53:10.213Z</time>
      </trkpt>
      <trkpt lat="48.078486" lon="-2.105765">
        <ele>101.234168</ele>
        <time>2025-06-26T04:53:57.364Z</time>
      </trkpt>
      <trkpt lat="48.077971" lon="-2.106005">
        <ele>102.240285</ele>
        <time>2025-06-26T04:54:08.135Z</time>
      </trkpt>
      <trkpt lat="48.077969" lon="-2.106060">
        <ele>102.308930</ele>
        <time>2025-06-26T04:54:08.836Z</time>
      </trkpt>
      <trkpt lat="48.077903" lon="-2.106197">
        <ele>102.519422</ele>
        <time>2025-06-26T04:54:10.941Z</time>
      </trkpt>
      <trkpt lat="48.076591" lon="-2.107851">
        <ele>103.857120</ele>
        <time>2025-06-26T04:54:40.471Z</time>
      </trkpt>
      <trkpt lat="48.075685" lon="-2.109011">
        <ele>104.400018</ele>
        <time>2025-06-26T04:55:00.761Z</time>
      </trkpt>
      <trkpt lat="48.073831" lon="-2.111331">
        <ele>105.264892</ele>
        <time>2025-06-26T04:55:39.433Z</time>
      </trkpt>
      <trkpt lat="48.071314" lon="-2.114514">
        <ele>106.227661</ele>
        <time>2025-06-26T04:56:34.613Z</time>
      </trkpt>
      <trkpt lat="48.071114" lon="-2.114772">
        <ele>106.230169</ele>
        <time>2025-06-26T04:56:37.769Z</time>
      </trkpt>
      <trkpt lat="48.070561" lon="-2.115474">
        <ele>106.724033</ele>
        <time>2025-06-26T04:56:46.747Z</time>
      </trkpt>
      <trkpt lat="48.070502" lon="-2.115539">
        <ele>106.815550</ele>
        <time>2025-06-26T04:56:47.733Z</time>
      </trkpt>
      <trkpt lat="48.070141" lon="-2.115961">
        <ele>107.387767</ele>
        <time>2025-06-26T04:56:54.688Z</time>
      </trkpt>
      <trkpt lat="48.068882" lon="-2.117591">
        <ele>111.577395</ele>
        <time>2025-06-26T04:57:39.328Z</time>
      </trkpt>
      <trkpt lat="48.067917" lon="-2.118845">
        <ele>116.785334</ele>
        <time>2025-06-26T04:58:21.901Z</time>
      </trkpt>
      <trkpt lat="48.064574" lon="-2.123040">
        <ele>136.899764</ele>
        <time>2025-06-26T05:00:47.873Z</time>
      </trkpt>
      <trkpt lat="48.063383" lon="-2.124573">
        <ele>143.555443</ele>
        <time>2025-06-26T05:01:37.905Z</time>
      </trkpt>
      <trkpt lat="48.062215" lon="-2.126002">
        <ele>149.084785</ele>
        <time>2025-06-26T05:02:23.837Z</time>
      </trkpt>
      <trkpt lat="48.061768" lon="-2.126603">
        <ele>150.872033</ele>
        <time>2025-06-26T05:02:40.341Z</time>
      </trkpt>
      <trkpt lat="48.061288" lon="-2.127307">
        <ele>152.871003</ele>
        <time>2025-06-26T05:02:56.326Z</time>
      </trkpt>
      <trkpt lat="48.060752" lon="-2.127952">
        <ele>154.143076</ele>
        <time>2025-06-26T05:03:11.233Z</time>
      </trkpt>
      <trkpt lat="48.059735" lon="-2.129256">
        <ele>156.526642</ele>
        <time>2025-06-26T05:03:40.538Z</time>
      </trkpt>
      <trkpt lat="48.058954" lon="-2.130402">
        <ele>158.158240</ele>
        <time>2025-06-26T05:04:04.374Z</time>
      </trkpt>
      <trkpt lat="48.057901" lon="-2.131984">
        <ele>159.610889</ele>
        <time>2025-06-26T05:04:31.645Z</time>
      </trkpt>
      <trkpt lat="48.057288" lon="-2.132914">
        <ele>160.244849</ele>
        <time>2025-06-26T05:04:46.440Z</time>
      </trkpt>
      <trkpt lat="48.056994" lon="-2.133584">
        <ele>160.640991</ele>
        <time>2025-06-26T05:04:55.493Z</time>
      </trkpt>
      <trkpt lat="48.056421" lon="-2.134940">
        <ele>161.433921</ele>
        <time>2025-06-26T05:05:14.620Z</time>
      </trkpt>
      <trkpt lat="48.055332" lon="-2.137542">
        <ele>163.522036</ele>
        <time>2025-06-26T05:05:55.122Z</time>
      </trkpt>
      <trkpt lat="48.053961" lon="-2.141036">
        <ele>164.314595</ele>
        <time>2025-06-26T05:06:37.757Z</time>
      </trkpt>
      <trkpt lat="48.053486" lon="-2.142292">
        <ele>164.468635</ele>
        <time>2025-06-26T05:06:51.818Z</time>
      </trkpt>
      <trkpt lat="48.053110" lon="-2.143038">
        <ele>164.608543</ele>
        <time>2025-06-26T05:07:01.548Z</time>
      </trkpt>
      <trkpt lat="48.052520" lon="-2.143904">
        <ele>164.793711</ele>
        <time>2025-06-26T05:07:14.971Z</time>
      </trkpt>
      <trkpt lat="48.052371" lon="-2.144164">
        <ele>164.843796</ele>
        <time>2025-06-26T05:07:18.728Z</time>
      </trkpt>
      <trkpt lat="48.051074" lon="-2.147861">
        <ele>165.586141</ele>
        <time>2025-06-26T05:08:01.971Z</time>
      </trkpt>
      <trkpt lat="48.050695" lon="-2.148996">
        <ele>165.892096</ele>
        <time>2025-06-26T05:08:16.674Z</time>
      </trkpt>
      <trkpt lat="48.050443" lon="-2.150284">
        <ele>166.266328</ele>
        <time>2025-06-26T05:08:32.595Z</time>
      </trkpt>
      <trkpt lat="48.050239" lon="-2.150992">
        <ele>166.481316</ele>
        <time>2025-06-26T05:08:41.004Z</time>
      </trkpt>
      <trkpt lat="48.049953" lon="-2.151690">
        <ele>166.381850</ele>
        <time>2025-06-26T05:08:48.856Z</time>
      </trkpt>
      <trkpt lat="48.049804" lon="-2.151972">
        <ele>166.223951</ele>
        <time>2025-06-26T05:08:52.043Z</time>
      </trkpt>
      <trkpt lat="48.049600" lon="-2.152156">
        <ele>166.067415</ele>
        <time>2025-06-26T05:08:55.099Z</time>
      </trkpt>
      <trkpt lat="48.048324" lon="-2.153001">
        <ele>165.187890</ele>
        <time>2025-06-26T05:09:12.202Z</time>
      </trkpt>
      <trkpt lat="48.048133" lon="-2.153154">
        <ele>165.066850</ele>
        <time>2025-06-26T05:09:14.938Z</time>
      </trkpt>
      <trkpt lat="48.047949" lon="-2.153381">
        <ele>164.933608</ele>
        <time>2025-06-26T05:09:18.032Z</time>
      </trkpt>
      <trkpt lat="48.047639" lon="-2.153855">
        <ele>164.685958</ele>
        <time>2025-06-26T05:09:24.025Z</time>
      </trkpt>
      <trkpt lat="48.047019" lon="-2.154972">
        <ele>164.198663</ele>
        <time>2025-06-26T05:09:37.635Z</time>
      </trkpt>
      <trkpt lat="48.046964" lon="-2.155079">
        <ele>164.159248</ele>
        <time>2025-06-26T05:09:38.898Z</time>
      </trkpt>
      <trkpt lat="48.045959" lon="-2.156806">
        <ele>163.413728</ele>
        <time>2025-06-26T05:09:59.196Z</time>
      </trkpt>
      <trkpt lat="48.045562" lon="-2.157220">
        <ele>163.066068</ele>
        <time>2025-06-26T05:10:05.264Z</time>
      </trkpt>
      <trkpt lat="48.044281" lon="-2.158536">
        <ele>162.280928</ele>
        <time>2025-06-26T05:10:24.846Z</time>
      </trkpt>
      <trkpt lat="48.043905" lon="-2.158801">
        <ele>162.251019</ele>
        <time>2025-06-26T05:10:30.775Z</time>
      </trkpt>
      <trkpt lat="48.043379" lon="-2.159059">
        <ele>162.211187</ele>
        <time>2025-06-26T05:10:39.741Z</time>
      </trkpt>
      <trkpt lat="48.042150" lon="-2.159670">
        <ele>162.826664</ele>
        <time>2025-06-26T05:11:01.791Z</time>
      </trkpt>
      <trkpt lat="48.041335" lon="-2.160118">
        <ele>163.395472</ele>
        <time>2025-06-26T05:11:17.222Z</time>
      </trkpt>
      <trkpt lat="48.040396" lon="-2.160593">
        <ele>164.087379</ele>
        <time>2025-06-26T05:11:35.452Z</time>
      </trkpt>
      <trkpt lat="48.040256" lon="-2.160662">
        <ele>164.190270</ele>
        <time>2025-06-26T05:11:38.268Z</time>
      </trkpt>
      <trkpt lat="48.037325" lon="-2.162180">
        <ele>165.344083</ele>
        <time>2025-06-26T05:12:29.074Z</time>
      </trkpt>
      <trkpt lat="48.031156" lon="-2.165373">
        <ele>165.323300</ele>
        <time>2025-06-26T05:14:05.025Z</time>
      </trkpt>
      <trkpt lat="48.026931" lon="-2.167525">
        <ele>163.645265</ele>
        <time>2025-06-26T05:15:05.790Z</time>
      </trkpt>
      <trkpt lat="48.025980" lon="-2.167993">
        <ele>163.041763</ele>
        <time>2025-06-26T05:15:18.854Z</time>
      </trkpt>
      <trkpt lat="48.025142" lon="-2.168459">
        <ele>161.886722</ele>
        <time>2025-06-26T05:15:29.580Z</time>
      </trkpt>
      <trkpt lat="48.024821" lon="-2.168692">
        <ele>161.425746</ele>
        <time>2025-06-26T05:15:33.660Z</time>
      </trkpt>
      <trkpt lat="48.024258" lon="-2.169175">
        <ele>160.497697</ele>
        <time>2025-06-26T05:15:41.022Z</time>
      </trkpt>
      <trkpt lat="48.023898" lon="-2.169546">
        <ele>159.731489</ele>
        <time>2025-06-26T05:15:45.975Z</time>
      </trkpt>
      <trkpt lat="48.022789" lon="-2.170692">
        <ele>157.293342</ele>
        <time>2025-06-26T05:16:01.180Z</time>
      </trkpt>
      <trkpt lat="48.021793" lon="-2.171721">
        <ele>154.665385</ele>
        <time>2025-06-26T05:16:13.923Z</time>
      </trkpt>
      <trkpt lat="48.021609" lon="-2.171554">
        <ele>154.198145</ele>
        <time>2025-06-26T05:16:16.215Z</time>
      </trkpt>
      <trkpt lat="48.021341" lon="-2.171235">
        <ele>153.824497</ele>
        <time>2025-06-26T05:16:20.035Z</time>
      </trkpt>
      <trkpt lat="48.021253" lon="-2.171147">
        <ele>153.854333</ele>
        <time>2025-06-26T05:16:21.267Z</time>
      </trkpt>
      <trkpt lat="48.021190" lon="-2.171104">
        <ele>153.873850</ele>
        <time>2025-06-26T05:16:22.097Z</time>
      </trkpt>
      <trkpt lat="48.021104" lon="-2.171058">
        <ele>153.899590</ele>
        <time>2025-06-26T05:16:23.211Z</time>
      </trkpt>
      <trkpt lat="48.020884" lon="-2.170988">
        <ele>153.962978</ele>
        <time>2025-06-26T05:16:26.208Z</time>
      </trkpt>
      <trkpt lat="48.020534" lon="-2.170969">
        <ele>154.061678</ele>
        <time>2025-06-26T05:16:31.872Z</time>
      </trkpt>
      <trkpt lat="48.019944" lon="-2.170938">
        <ele>154.228051</ele>
        <time>2025-06-26T05:16:44.598Z</time>
      </trkpt>
      <trkpt lat="48.019820" lon="-2.170932">
        <ele>154.263015</ele>
        <time>2025-06-26T05:16:47.492Z</time>
      </trkpt>
      <trkpt lat="48.019810" lon="-2.171095">
        <ele>154.295219</ele>
        <time>2025-06-26T05:16:49.999Z</time>
      </trkpt>
      <trkpt lat="48.019767" lon="-2.171234">
        <ele>154.331884</ele>
        <time>2025-06-26T05:16:52.308Z</time>
      </trkpt>
      <trkpt lat="48.019731" lon="-2.171278">
        <ele>154.348528</ele>
        <time>2025-06-26T05:16:53.348Z</time>
      </trkpt>
      <trkpt lat="48.019678" lon="-2.171331">
        <ele>154.371351</ele>
        <time>2025-06-26T05:16:54.741Z</time>
      </trkpt>
      <trkpt lat="48.019642" lon="-2.171427">
        <ele>154.397701</ele>
        <time>2025-06-26T05:16:56.315Z</time>
      </trkpt>
      <trkpt lat="48.019455" lon="-2.172460">
        <ele>154.653915</ele>
        <time>2025-06-26T05:17:09.477Z</time>
      </trkpt>
      <trkpt lat="48.019351" lon="-2.173065">
        <ele>154.803469</ele>
        <time>2025-06-26T05:17:15.082Z</time>
      </trkpt>
      <trkpt lat="48.019301" lon="-2.173323">
        <ele>154.867779</ele>
        <time>2025-06-26T05:17:17.281Z</time>
      </trkpt>
      <trkpt lat="48.019256" lon="-2.173553">
        <ele>154.925153</ele>
        <time>2025-06-26T05:17:19.229Z</time>
      </trkpt>
      <trkpt lat="48.019124" lon="-2.173508">
        <ele>154.817929</ele>
        <time>2025-06-26T05:17:20.861Z</time>
      </trkpt>
      <trkpt lat="48.019033" lon="-2.173467">
        <ele>154.722583</ele>
        <time>2025-06-26T05:17:22.010Z</time>
      </trkpt>
      <trkpt lat="48.018841" lon="-2.173412">
        <ele>154.526466</ele>
        <time>2025-06-26T05:17:24.313Z</time>
      </trkpt>
      <trkpt lat="48.018680" lon="-2.173419">
        <ele>154.364884</ele>
        <time>2025-06-26T05:17:26.191Z</time>
      </trkpt>
      <trkpt lat="48.018350" lon="-2.173225">
        <ele>154.009155</ele>
        <time>2025-06-26T05:17:30.300Z</time>
      </trkpt>
      <trkpt lat="48.017666" lon="-2.172844">
        <ele>153.276890</ele>
        <time>2025-06-26T05:17:39.110Z</time>
      </trkpt>
      <trkpt lat="48.017418" lon="-2.172703">
        <ele>153.142594</ele>
        <time>2025-06-26T05:17:42.595Z</time>
      </trkpt>
      <trkpt lat="48.017274" lon="-2.172621">
        <ele>153.161403</ele>
        <time>2025-06-26T05:17:44.700Z</time>
      </trkpt>
      <trkpt lat="48.015942" lon="-2.171893">
        <ele>153.334517</ele>
        <time>2025-06-26T05:18:08.092Z</time>
      </trkpt>
      <trkpt lat="48.015913" lon="-2.171877">
        <ele>153.338290</ele>
        <time>2025-06-26T05:18:08.595Z</time>
      </trkpt>
      <trkpt lat="48.015889" lon="-2.171864">
        <ele>153.341406</ele>
        <time>2025-06-26T05:18:09.024Z</time>
      </trkpt>
      <trkpt lat="48.015404" lon="-2.171589">
        <ele>153.113797</ele>
        <time>2025-06-26T05:18:17.027Z</time>
      </trkpt>
      <trkpt lat="48.015088" lon="-2.171411">
        <ele>152.944209</ele>
        <time>2025-06-26T05:18:21.571Z</time>
      </trkpt>
      <trkpt lat="48.014994" lon="-2.171359">
        <ele>152.893874</ele>
        <time>2025-06-26T05:18:22.780Z</time>
      </trkpt>
      <trkpt lat="48.014233" lon="-2.170963">
        <ele>152.489206</ele>
        <time>2025-06-26T05:18:32.532Z</time>
      </trkpt>
      <trkpt lat="48.014088" lon="-2.171058">
        <ele>152.485481</ele>
        <time>2025-06-26T05:18:35.338Z</time>
      </trkpt>
      <trkpt lat="48.014048" lon="-2.171115">
        <ele>152.518067</ele>
        <time>2025-06-26T05:18:36.284Z</time>
      </trkpt>
      <trkpt lat="48.013912" lon="-2.171305">
        <ele>152.627830</ele>
        <time>2025-06-26T05:18:39.592Z</time>
      </trkpt>
      <trkpt lat="48.013898" lon="-2.171356">
        <ele>152.649575</ele>
        <time>2025-06-26T05:18:40.062Z</time>
      </trkpt>
      <trkpt lat="48.013678" lon="-2.172398">
        <ele>153.080582</ele>
        <time>2025-06-26T05:18:51.259Z</time>
      </trkpt>
      <trkpt lat="48.013657" lon="-2.172526">
        <ele>153.132569</ele>
        <time>2025-06-26T05:18:52.928Z</time>
      </trkpt>
      <trkpt lat="48.013592" lon="-2.172920">
        <ele>153.292641</ele>
        <time>2025-06-26T05:18:58.478Z</time>
      </trkpt>
      <trkpt lat="48.011592" lon="-2.185248">
        <ele>173.335770</ele>
        <time>2025-06-26T05:22:22.100Z</time>
      </trkpt>
      <trkpt lat="48.009126" lon="-2.200263">
        <ele>222.797017</ele>
        <time>2025-06-26T05:28:33.169Z</time>
      </trkpt>
      <trkpt lat="48.008338" lon="-2.205070">
        <ele>213.549604</ele>
        <time>2025-06-26T05:29:05.472Z</time>
      </trkpt>
      <trkpt lat="48.007891" lon="-2.207784">
        <ele>209.072681</ele>
        <time>2025-06-26T05:29:25.126Z</time>
      </trkpt>
      <trkpt lat="48.007684" lon="-2.209061">
        <ele>208.597993</ele>
        <time>2025-06-26T05:29:38.655Z</time>
      </trkpt>
      <trkpt lat="48.007261" lon="-2.211648">
        <ele>206.129240</ele>
        <time>2025-06-26T05:30:03.950Z</time>
      </trkpt>
      <trkpt lat="48.007110" lon="-2.212667">
        <ele>204.679971</ele>
        <time>2025-06-26T05:30:10.845Z</time>
      </trkpt>
      <trkpt lat="48.006837" lon="-2.214464">
        <ele>196.458534</ele>
        <time>2025-06-26T05:30:22.036Z</time>
      </trkpt>
      <trkpt lat="48.006590" lon="-2.216238">
        <ele>188.117129</ele>
        <time>2025-06-26T05:30:32.687Z</time>
      </trkpt>
      <trkpt lat="48.006369" lon="-2.217772">
        <ele>180.716970</ele>
        <time>2025-06-26T05:30:42.106Z</time>
      </trkpt>
      <trkpt lat="48.006261" lon="-2.218553">
        <ele>178.675613</ele>
        <time>2025-06-26T05:30:47.247Z</time>
      </trkpt>
      <trkpt lat="48.006045" lon="-2.220021">
        <ele>175.340718</ele>
        <time>2025-06-26T05:30:57.918Z</time>
      </trkpt>
      <trkpt lat="48.005952" lon="-2.220513">
        <ele>174.214233</ele>
        <time>2025-06-26T05:31:01.563Z</time>
      </trkpt>
      <trkpt lat="48.005754" lon="-2.221263">
        <ele>172.858742</ele>
        <time>2025-06-26T05:31:07.179Z</time>
      </trkpt>
      <trkpt lat="48.005206" lon="-2.222775">
        <ele>169.967781</ele>
        <time>2025-06-26T05:31:19.150Z</time>
      </trkpt>
      <trkpt lat="48.004669" lon="-2.224218">
        <ele>168.344242</ele>
        <time>2025-06-26T05:31:31.958Z</time>
      </trkpt>
      <trkpt lat="48.004581" lon="-2.224456">
        <ele>168.095534</ele>
        <time>2025-06-26T05:31:34.334Z</time>
      </trkpt>
      <trkpt lat="48.004055" lon="-2.225897">
        <ele>165.376563</ele>
        <time>2025-06-26T05:31:47.644Z</time>
      </trkpt>
      <trkpt lat="48.003888" lon="-2.226347">
        <ele>164.045828</ele>
        <time>2025-06-26T05:31:51.380Z</time>
      </trkpt>
      <trkpt lat="48.003301" lon="-2.227948">
        <ele>158.512252</ele>
        <time>2025-06-26T05:32:02.736Z</time>
      </trkpt>
      <trkpt lat="48.002998" lon="-2.228760">
        <ele>154.122581</ele>
        <time>2025-06-26T05:32:08.159Z</time>
      </trkpt>
      <trkpt lat="48.002640" lon="-2.229738">
        <ele>148.859177</ele>
        <time>2025-06-26T05:32:14.737Z</time>
      </trkpt>
      <trkpt lat="48.002533" lon="-2.230055">
        <ele>147.580483</ele>
        <time>2025-06-26T05:32:16.930Z</time>
      </trkpt>
      <trkpt lat="48.002319" lon="-2.230683">
        <ele>147.303364</ele>
        <time>2025-06-26T05:32:21.604Z</time>
      </trkpt>
      <trkpt lat="48.002187" lon="-2.231214">
        <ele>147.080622</ele>
        <time>2025-06-26T05:32:26.308Z</time>
      </trkpt>
      <trkpt lat="48.002012" lon="-2.232134">
        <ele>146.704529</ele>
        <time>2025-06-26T05:32:40.316Z</time>
      </trkpt>
      <trkpt lat="48.001471" lon="-2.234825">
        <ele>151.748493</ele>
        <time>2025-06-26T05:33:34.784Z</time>
      </trkpt>
      <trkpt lat="48.001408" lon="-2.235146">
        <ele>152.349760</ele>
        <time>2025-06-26T05:33:40.619Z</time>
      </trkpt>
      <trkpt lat="48.001314" lon="-2.235636">
        <ele>152.794847</ele>
        <time>2025-06-26T05:33:48.895Z</time>
      </trkpt>
      <trkpt lat="47.999130" lon="-2.246737">
        <ele>161.564292</ele>
        <time>2025-06-26T05:36:20.835Z</time>
      </trkpt>
      <trkpt lat="47.999006" lon="-2.247260">
        <ele>161.526078</ele>
        <time>2025-06-26T05:36:25.671Z</time>
      </trkpt>
      <trkpt lat="47.998826" lon="-2.247772">
        <ele>161.486245</ele>
        <time>2025-06-26T05:36:30.103Z</time>
      </trkpt>
      <trkpt lat="47.998551" lon="-2.248346">
        <ele>160.596460</ele>
        <time>2025-06-26T05:36:35.083Z</time>
      </trkpt>
      <trkpt lat="47.998345" lon="-2.248652">
        <ele>159.922927</ele>
        <time>2025-06-26T05:36:37.999Z</time>
      </trkpt>
      <trkpt lat="47.997417" lon="-2.249680">
        <ele>157.355806</ele>
        <time>2025-06-26T05:36:49.978Z</time>
      </trkpt>
      <trkpt lat="47.996965" lon="-2.250127">
        <ele>158.376338</ele>
        <time>2025-06-26T05:36:58.137Z</time>
      </trkpt>
      <trkpt lat="47.996946" lon="-2.250147">
        <ele>158.420096</ele>
        <time>2025-06-26T05:36:58.571Z</time>
      </trkpt>
      <trkpt lat="47.996652" lon="-2.250418">
        <ele>159.070495</ele>
        <time>2025-06-26T05:37:06.133Z</time>
      </trkpt>
      <trkpt lat="47.994887" lon="-2.251468">
        <ele>164.679072</ele>
        <time>2025-06-26T05:38:05.065Z</time>
      </trkpt>
      <trkpt lat="47.993533" lon="-2.252461">
        <ele>168.830772</ele>
        <time>2025-06-26T05:38:48.983Z</time>
      </trkpt>
      <trkpt lat="47.991366" lon="-2.254025">
        <ele>171.450210</ele>
        <time>2025-06-26T05:39:27.189Z</time>
      </trkpt>
      <trkpt lat="47.990672" lon="-2.254562">
        <ele>172.472839</ele>
        <time>2025-06-26T05:39:43.392Z</time>
      </trkpt>
      <trkpt lat="47.990400" lon="-2.254822">
        <ele>173.171134</ele>
        <time>2025-06-26T05:39:51.192Z</time>
      </trkpt>
      <trkpt lat="47.989888" lon="-2.255366">
        <ele>174.529781</ele>
        <time>2025-06-26T05:40:07.386Z</time>
      </trkpt>
      <trkpt lat="47.988874" lon="-2.256442">
        <ele>176.443614</ele>
        <time>2025-06-26T05:40:36.274Z</time>
      </trkpt>
      <trkpt lat="47.988667" lon="-2.256709">
        <ele>176.746338</ele>
        <time>2025-06-26T05:40:41.480Z</time>
      </trkpt>
      <trkpt lat="47.988526" lon="-2.256943">
        <ele>176.979620</ele>
        <time>2025-06-26T05:40:45.276Z</time>
      </trkpt>
      <trkpt lat="47.988386" lon="-2.257246">
        <ele>177.252412</ele>
        <time>2025-06-26T05:40:49.429Z</time>
      </trkpt>
      <trkpt lat="47.988241" lon="-2.257715">
        <ele>177.615845</ele>
        <time>2025-06-26T05:40:54.797Z</time>
      </trkpt>
      <trkpt lat="47.987315" lon="-2.261781">
        <ele>175.069608</ele>
        <time>2025-06-26T05:41:32.751Z</time>
      </trkpt>
      <trkpt lat="47.986719" lon="-2.264403">
        <ele>169.504315</ele>
        <time>2025-06-26T05:41:51.364Z</time>
      </trkpt>
      <trkpt lat="47.986577" lon="-2.264859">
        <ele>168.211115</ele>
        <time>2025-06-26T05:41:54.643Z</time>
      </trkpt>
      <trkpt lat="47.986452" lon="-2.265121">
        <ele>167.383800</ele>
        <time>2025-06-26T05:41:56.716Z</time>
      </trkpt>
      <trkpt lat="47.986277" lon="-2.265351">
        <ele>166.062924</ele>
        <time>2025-06-26T05:41:58.937Z</time>
      </trkpt>
      <trkpt lat="47.986048" lon="-2.265538">
        <ele>164.204188</ele>
        <time>2025-06-26T05:42:01.392Z</time>
      </trkpt>
      <trkpt lat="47.985173" lon="-2.266012">
        <ele>157.575120</ele>
        <time>2025-06-26T05:42:09.767Z</time>
      </trkpt>
      <trkpt lat="47.984921" lon="-2.266182">
        <ele>155.605801</ele>
        <time>2025-06-26T05:42:12.173Z</time>
      </trkpt>
      <trkpt lat="47.984542" lon="-2.266587">
        <ele>151.725277</ele>
        <time>2025-06-26T05:42:16.189Z</time>
      </trkpt>
      <trkpt lat="47.984243" lon="-2.266936">
        <ele>148.219190</ele>
        <time>2025-06-26T05:42:19.455Z</time>
      </trkpt>
      <trkpt lat="47.983944" lon="-2.267227">
        <ele>144.921806</ele>
        <time>2025-06-26T05:42:22.524Z</time>
      </trkpt>
      <trkpt lat="47.981288" lon="-2.269113">
        <ele>119.894983</ele>
        <time>2025-06-26T05:42:48.323Z</time>
      </trkpt>
      <trkpt lat="47.981014" lon="-2.269436">
        <ele>117.352058</ele>
        <time>2025-06-26T05:42:51.423Z</time>
      </trkpt>
      <trkpt lat="47.980911" lon="-2.269622">
        <ele>116.174787</ele>
        <time>2025-06-26T05:42:52.860Z</time>
      </trkpt>
      <trkpt lat="47.980487" lon="-2.270634">
        <ele>110.352318</ele>
        <time>2025-06-26T05:43:00.035Z</time>
      </trkpt>
      <trkpt lat="47.979988" lon="-2.271727">
        <ele>105.920693</ele>
        <time>2025-06-26T05:43:08.198Z</time>
      </trkpt>
      <trkpt lat="47.979163" lon="-2.273373">
        <ele>100.337462</ele>
        <time>2025-06-26T05:43:21.864Z</time>
      </trkpt>
      <trkpt lat="47.978276" lon="-2.274987">
        <ele>97.003278</ele>
        <time>2025-06-26T05:43:37.061Z</time>
      </trkpt>
      <trkpt lat="47.977400" lon="-2.275974">
        <ele>95.903552</ele>
        <time>2025-06-26T05:43:49.796Z</time>
      </trkpt>
      <trkpt lat="47.977215" lon="-2.276157">
        <ele>95.705697</ele>
        <time>2025-06-26T05:43:52.678Z</time>
      </trkpt>
      <trkpt lat="47.976940" lon="-2.276362">
        <ele>95.431640</ele>
        <time>2025-06-26T05:43:57.109Z</time>
      </trkpt>
      <trkpt lat="47.976820" lon="-2.276410">
        <ele>95.320865</ele>
        <time>2025-06-26T05:43:58.994Z</time>
      </trkpt>
      <trkpt lat="47.976468" lon="-2.276424">
        <ele>95.066089</ele>
        <time>2025-06-26T05:44:04.620Z</time>
      </trkpt>
      <trkpt lat="47.975888" lon="-2.276353">
        <ele>94.701742</ele>
        <time>2025-06-26T05:44:14.154Z</time>
      </trkpt>
      <trkpt lat="47.974810" lon="-2.276285">
        <ele>94.022051</ele>
        <time>2025-06-26T05:44:27.151Z</time>
      </trkpt>
      <trkpt lat="47.974657" lon="-2.276275">
        <ele>93.918676</ele>
        <time>2025-06-26T05:44:28.761Z</time>
      </trkpt>
      <trkpt lat="47.974298" lon="-2.276280">
        <ele>93.676339</ele>
        <time>2025-06-26T05:44:32.629Z</time>
      </trkpt>
      <trkpt lat="47.973827" lon="-2.276443">
        <ele>93.349990</ele>
        <time>2025-06-26T05:44:38.113Z</time>
      </trkpt>
      <trkpt lat="47.971693" lon="-2.277439">
        <ele>93.526350</ele>
        <time>2025-06-26T05:45:19.328Z</time>
      </trkpt>
      <trkpt lat="47.971336" lon="-2.277627">
        <ele>93.369033</ele>
        <time>2025-06-26T05:45:24.400Z</time>
      </trkpt>
      <trkpt lat="47.971193" lon="-2.277746">
        <ele>92.901346</ele>
        <time>2025-06-26T05:45:26.344Z</time>
      </trkpt>
      <trkpt lat="47.971086" lon="-2.277871">
        <ele>92.513243</ele>
        <time>2025-06-26T05:45:27.871Z</time>
      </trkpt>
      <trkpt lat="47.970525" lon="-2.278734">
        <ele>90.212378</ele>
        <time>2025-06-26T05:45:35.989Z</time>
      </trkpt>
      <trkpt lat="47.970321" lon="-2.278927">
        <ele>89.522458</ele>
        <time>2025-06-26T05:45:38.318Z</time>
      </trkpt>
      <trkpt lat="47.970064" lon="-2.279078">
        <ele>88.733430</ele>
        <time>2025-06-26T05:45:40.987Z</time>
      </trkpt>
      <trkpt lat="47.969646" lon="-2.279179">
        <ele>87.918602</ele>
        <time>2025-06-26T05:45:45.121Z</time>
      </trkpt>
      <trkpt lat="47.969263" lon="-2.279230">
        <ele>87.260007</ele>
        <time>2025-06-26T05:45:49.008Z</time>
      </trkpt>
      <trkpt lat="47.969127" lon="-2.279282">
        <ele>87.019558</ele>
        <time>2025-06-26T05:45:50.499Z</time>
      </trkpt>
      <trkpt lat="47.968911" lon="-2.279420">
        <ele>86.617173</ele>
        <time>2025-06-26T05:45:53.114Z</time>
      </trkpt>
      <trkpt lat="47.968814" lon="-2.279536">
        <ele>86.404341</ele>
        <time>2025-06-26T05:45:54.604Z</time>
      </trkpt>
      <trkpt lat="47.968659" lon="-2.279766">
        <ele>86.030113</ele>
        <time>2025-06-26T05:45:57.524Z</time>
      </trkpt>
      <trkpt lat="47.968382" lon="-2.280337">
        <ele>85.576169</ele>
        <time>2025-06-26T05:46:06.168Z</time>
      </trkpt>
      <trkpt lat="47.968169" lon="-2.280893">
        <ele>86.096615</ele>
        <time>2025-06-26T05:46:16.291Z</time>
      </trkpt>
      <trkpt lat="47.967675" lon="-2.282345">
        <ele>87.419884</ele>
        <time>2025-06-26T05:46:40.521Z</time>
      </trkpt>
      <trkpt lat="47.967543" lon="-2.282618">
        <ele>87.518594</ele>
        <time>2025-06-26T05:46:43.987Z</time>
      </trkpt>
      <trkpt lat="47.967423" lon="-2.282796">
        <ele>87.285079</ele>
        <time>2025-06-26T05:46:46.221Z</time>
      </trkpt>
      <trkpt lat="47.967299" lon="-2.282953">
        <ele>87.060629</ele>
        <time>2025-06-26T05:46:48.216Z</time>
      </trkpt>
      <trkpt lat="47.966420" lon="-2.283635">
        <ele>85.692988</ele>
        <time>2025-06-26T05:46:58.916Z</time>
      </trkpt>
      <trkpt lat="47.966041" lon="-2.284017">
        <ele>85.120463</ele>
        <time>2025-06-26T05:47:03.847Z</time>
      </trkpt>
      <trkpt lat="47.965181" lon="-2.284802">
        <ele>84.957262</ele>
        <time>2025-06-26T05:47:16.991Z</time>
      </trkpt>
      <trkpt lat="47.964915" lon="-2.285004">
        <ele>84.908943</ele>
        <time>2025-06-26T05:47:22.343Z</time>
      </trkpt>
      <trkpt lat="47.964649" lon="-2.285087">
        <ele>84.864942</ele>
        <time>2025-06-26T05:47:27.422Z</time>
      </trkpt>
      <trkpt lat="47.963928" lon="-2.285051">
        <ele>84.914661</ele>
        <time>2025-06-26T05:47:41.131Z</time>
      </trkpt>
      <trkpt lat="47.963741" lon="-2.285087">
        <ele>84.941318</ele>
        <time>2025-06-26T05:47:44.606Z</time>
      </trkpt>
      <trkpt lat="47.963455" lon="-2.285142">
        <ele>84.982087</ele>
        <time>2025-06-26T05:47:49.692Z</time>
      </trkpt>
      <trkpt lat="47.962001" lon="-2.285545">
        <ele>83.457182</ele>
        <time>2025-06-26T05:48:08.236Z</time>
      </trkpt>
      <trkpt lat="47.961836" lon="-2.285541">
        <ele>83.075292</ele>
        <time>2025-06-26T05:48:09.917Z</time>
      </trkpt>
      <trkpt lat="47.961469" lon="-2.285441">
        <ele>82.211966</ele>
        <time>2025-06-26T05:48:13.663Z</time>
      </trkpt>
      <trkpt lat="47.961098" lon="-2.285286">
        <ele>81.320438</ele>
        <time>2025-06-26T05:48:17.544Z</time>
      </trkpt>
      <trkpt lat="47.960729" lon="-2.285049">
        <ele>80.474809</ele>
        <time>2025-06-26T05:48:21.563Z</time>
      </trkpt>
      <trkpt lat="47.960651" lon="-2.285226">
        <ele>80.197673</ele>
        <time>2025-06-26T05:48:22.993Z</time>
      </trkpt>
      <trkpt lat="47.960406" lon="-2.285779">
        <ele>79.330412</ele>
        <time>2025-06-26T05:48:27.585Z</time>
      </trkpt>
      <trkpt lat="47.958541" lon="-2.290000">
        <ele>76.037014</ele>
        <time>2025-06-26T05:49:09.101Z</time>
      </trkpt>
      <trkpt lat="47.958138" lon="-2.290945">
        <ele>76.507701</ele>
        <time>2025-06-26T05:49:23.035Z</time>
      </trkpt>
      <trkpt lat="47.957992" lon="-2.291291">
        <ele>76.679517</ele>
        <time>2025-06-26T05:49:29.311Z</time>
      </trkpt>
      <trkpt lat="47.957805" lon="-2.291728">
        <ele>76.963783</ele>
        <time>2025-06-26T05:49:37.947Z</time>
      </trkpt>
      <trkpt lat="47.957727" lon="-2.291914">
        <ele>77.110081</ele>
        <time>2025-06-26T05:49:41.638Z</time>
      </trkpt>
      <trkpt lat="47.957347" lon="-2.292871">
        <ele>77.851763</ele>
        <time>2025-06-26T05:49:58.590Z</time>
      </trkpt>
      <trkpt lat="47.957273" lon="-2.293118">
        <ele>78.032149</ele>
        <time>2025-06-26T05:50:01.937Z</time>
      </trkpt>
      <trkpt lat="47.957231" lon="-2.293306">
        <ele>78.164266</ele>
        <time>2025-06-26T05:50:04.105Z</time>
      </trkpt>
      <trkpt lat="47.957151" lon="-2.294171">
        <ele>78.206923</ele>
        <time>2025-06-26T05:50:11.398Z</time>
      </trkpt>
      <trkpt lat="47.957092" lon="-2.294386">
        <ele>77.875102</ele>
        <time>2025-06-26T05:50:13.146Z</time>
      </trkpt>
      <trkpt lat="47.956977" lon="-2.294611">
        <ele>77.470884</ele>
        <time>2025-06-26T05:50:15.207Z</time>
      </trkpt>
      <trkpt lat="47.956840" lon="-2.294899">
        <ele>76.966386</ele>
        <time>2025-06-26T05:50:17.707Z</time>
      </trkpt>
      <trkpt lat="47.956751" lon="-2.295158">
        <ele>76.550652</ele>
        <time>2025-06-26T05:50:19.750Z</time>
      </trkpt>
      <trkpt lat="47.956442" lon="-2.296172">
        <ele>74.959662</ele>
        <time>2025-06-26T05:50:27.521Z</time>
      </trkpt>
      <trkpt lat="47.955422" lon="-2.299389">
        <ele>69.948017</ele>
        <time>2025-06-26T05:50:53.104Z</time>
      </trkpt>
      <trkpt lat="47.955331" lon="-2.299677">
        <ele>69.653539</ele>
        <time>2025-06-26T05:50:55.490Z</time>
      </trkpt>
      <trkpt lat="47.955190" lon="-2.300090">
        <ele>69.224860</ele>
        <time>2025-06-26T05:50:59.005Z</time>
      </trkpt>
      <trkpt lat="47.954970" lon="-2.300526">
        <ele>68.720042</ele>
        <time>2025-06-26T05:51:03.386Z</time>
      </trkpt>
      <trkpt lat="47.954478" lon="-2.301295">
        <ele>68.202752</ele>
        <time>2025-06-26T05:51:13.015Z</time>
      </trkpt>
      <trkpt lat="47.953756" lon="-2.302346">
        <ele>68.462489</ele>
        <time>2025-06-26T05:51:30.055Z</time>
      </trkpt>
      <trkpt lat="47.951959" lon="-2.305075">
        <ele>69.204969</ele>
        <time>2025-06-26T05:52:12.119Z</time>
      </trkpt>
      <trkpt lat="47.950962" lon="-2.306631">
        <ele>69.193127</ele>
        <time>2025-06-26T05:52:31.593Z</time>
      </trkpt>
      <trkpt lat="47.950717" lon="-2.307030">
        <ele>69.678571</ele>
        <time>2025-06-26T05:52:38.209Z</time>
      </trkpt>
      <trkpt lat="47.950561" lon="-2.307353">
        <ele>70.168154</ele>
        <time>2025-06-26T05:52:43.709Z</time>
      </trkpt>
      <trkpt lat="47.950447" lon="-2.307645">
        <ele>70.583686</ele>
        <time>2025-06-26T05:52:48.756Z</time>
      </trkpt>
      <trkpt lat="47.950201" lon="-2.308394">
        <ele>71.609293</ele>
        <time>2025-06-26T05:53:02.501Z</time>
      </trkpt>
      <trkpt lat="47.949235" lon="-2.311640">
        <ele>77.660650</ele>
        <time>2025-06-26T05:54:01.343Z</time>
      </trkpt>
      <trkpt lat="47.948688" lon="-2.313391">
        <ele>82.957136</ele>
        <time>2025-06-26T05:54:42.376Z</time>
      </trkpt>
      <trkpt lat="47.948236" lon="-2.314892">
        <ele>86.812408</ele>
        <time>2025-06-26T05:55:19.997Z</time>
      </trkpt>
      <trkpt lat="47.948075" lon="-2.315545">
        <ele>88.280661</ele>
        <time>2025-06-26T05:55:33.030Z</time>
      </trkpt>
      <trkpt lat="47.948006" lon="-2.316037">
        <ele>89.341324</ele>
        <time>2025-06-26T05:55:40.910Z</time>
      </trkpt>
      <trkpt lat="47.947986" lon="-2.316858">
        <ele>90.461523</ele>
        <time>2025-06-26T05:55:51.185Z</time>
      </trkpt>
      <trkpt lat="47.948025" lon="-2.319558">
        <ele>91.745116</ele>
        <time>2025-06-26T05:56:21.542Z</time>
      </trkpt>
      <trkpt lat="47.947994" lon="-2.320039">
        <ele>91.986951</ele>
        <time>2025-06-26T05:56:27.855Z</time>
      </trkpt>
      <trkpt lat="47.947932" lon="-2.320435">
        <ele>92.190478</ele>
        <time>2025-06-26T05:56:33.191Z</time>
      </trkpt>
      <trkpt lat="47.947778" lon="-2.321027">
        <ele>92.508315</ele>
        <time>2025-06-26T05:56:41.518Z</time>
      </trkpt>
      <trkpt lat="47.946326" lon="-2.325180">
        <ele>92.030340</ele>
        <time>2025-06-26T05:57:30.981Z</time>
      </trkpt>
      <trkpt lat="47.944600" lon="-2.330074">
        <ele>85.652723</ele>
        <time>2025-06-26T05:58:11.036Z</time>
      </trkpt>
      <trkpt lat="47.944493" lon="-2.330502">
        <ele>85.058530</ele>
        <time>2025-06-26T05:58:14.342Z</time>
      </trkpt>
      <trkpt lat="47.944154" lon="-2.332141">
        <ele>83.543137</ele>
        <time>2025-06-26T05:58:27.565Z</time>
      </trkpt>
      <trkpt lat="47.943407" lon="-2.335789">
        <ele>82.006069</ele>
        <time>2025-06-26T05:59:03.015Z</time>
      </trkpt>
      <trkpt lat="47.941918" lon="-2.342873">
        <ele>78.598485</ele>
        <time>2025-06-26T06:00:03.356Z</time>
      </trkpt>
      <trkpt lat="47.940834" lon="-2.346933">
        <ele>83.056760</ele>
        <time>2025-06-26T06:01:13.731Z</time>
      </trkpt>
      <trkpt lat="47.939553" lon="-2.351686">
        <ele>83.774287</ele>
        <time>2025-06-26T06:02:03.725Z</time>
      </trkpt>
      <trkpt lat="47.938194" lon="-2.356843">
        <ele>86.378806</ele>
        <time>2025-06-26T06:03:08.094Z</time>
      </trkpt>
      <trkpt lat="47.937752" lon="-2.358495">
        <ele>88.630701</ele>
        <time>2025-06-26T06:03:36.424Z</time>
      </trkpt>
      <trkpt lat="47.937481" lon="-2.359514">
        <ele>89.785074</ele>
        <time>2025-06-26T06:03:53.689Z</time>
      </trkpt>
      <trkpt lat="47.937207" lon="-2.360598">
        <ele>90.701123</ele>
        <time>2025-06-26T06:04:09.405Z</time>
      </trkpt>
      <trkpt lat="47.937005" lon="-2.361519">
        <ele>91.467354</ele>
        <time>2025-06-26T06:04:21.477Z</time>
      </trkpt>
      <trkpt lat="47.936795" lon="-2.362510">
        <ele>91.023817</ele>
        <time>2025-06-26T06:04:31.087Z</time>
      </trkpt>
      <trkpt lat="47.936665" lon="-2.363164">
        <ele>90.676649</ele>
        <time>2025-06-26T06:04:36.459Z</time>
      </trkpt>
      <trkpt lat="47.936307" lon="-2.364964">
        <ele>90.710614</ele>
        <time>2025-06-26T06:04:51.156Z</time>
      </trkpt>
      <trkpt lat="47.935154" lon="-2.370589">
        <ele>95.002983</ele>
        <time>2025-06-26T06:06:12.422Z</time>
      </trkpt>
      <trkpt lat="47.934244" lon="-2.375115">
        <ele>98.683018</ele>
        <time>2025-06-26T06:07:17.500Z</time>
      </trkpt>
      <trkpt lat="47.933282" lon="-2.379819">
        <ele>96.227511</ele>
        <time>2025-06-26T06:07:58.426Z</time>
      </trkpt>
      <trkpt lat="47.933229" lon="-2.380220">
        <ele>95.593604</ele>
        <time>2025-06-26T06:08:01.497Z</time>
      </trkpt>
      <trkpt lat="47.933225" lon="-2.380498">
        <ele>95.162347</ele>
        <time>2025-06-26T06:08:03.522Z</time>
      </trkpt>
      <trkpt lat="47.933291" lon="-2.380578">
        <ele>94.965533</ele>
        <time>2025-06-26T06:08:04.457Z</time>
      </trkpt>
      <trkpt lat="47.933366" lon="-2.380806">
        <ele>94.571603</ele>
        <time>2025-06-26T06:08:06.274Z</time>
      </trkpt>
      <trkpt lat="47.933351" lon="-2.381033">
        <ele>94.217835</ele>
        <time>2025-06-26T06:08:07.891Z</time>
      </trkpt>
      <trkpt lat="47.933272" lon="-2.381206">
        <ele>93.893132</ele>
        <time>2025-06-26T06:08:09.350Z</time>
      </trkpt>
      <trkpt lat="47.933214" lon="-2.381267">
        <ele>93.728888</ele>
        <time>2025-06-26T06:08:10.078Z</time>
      </trkpt>
      <trkpt lat="47.933078" lon="-2.381319">
        <ele>93.403905</ele>
        <time>2025-06-26T06:08:11.528Z</time>
      </trkpt>
      <trkpt lat="47.932912" lon="-2.381684">
        <ele>92.719715</ele>
        <time>2025-06-26T06:08:14.599Z</time>
      </trkpt>
      <trkpt lat="47.932801" lon="-2.382239">
        <ele>91.355179</ele>
        <time>2025-06-26T06:08:18.521Z</time>
      </trkpt>
      <trkpt lat="47.932756" lon="-2.382473">
        <ele>90.709478</ele>
        <time>2025-06-26T06:08:20.116Z</time>
      </trkpt>
      <trkpt lat="47.932640" lon="-2.383044">
        <ele>89.126918</ele>
        <time>2025-06-26T06:08:23.999Z</time>
      </trkpt>
      <trkpt lat="47.932159" lon="-2.385387">
        <ele>83.159561</ele>
        <time>2025-06-26T06:08:39.884Z</time>
      </trkpt>
      <trkpt lat="47.931872" lon="-2.386783">
        <ele>80.041455</ele>
        <time>2025-06-26T06:08:49.966Z</time>
      </trkpt>
      <trkpt lat="47.931756" lon="-2.387350">
        <ele>79.453137</ele>
        <time>2025-06-26T06:08:54.460Z</time>
      </trkpt>
      <trkpt lat="47.931714" lon="-2.387846">
        <ele>79.236719</ele>
        <time>2025-06-26T06:08:58.444Z</time>
      </trkpt>
      <trkpt lat="47.931745" lon="-2.387933">
        <ele>79.194064</ele>
        <time>2025-06-26T06:08:59.265Z</time>
      </trkpt>
      <trkpt lat="47.931742" lon="-2.388033">
        <ele>79.150732</ele>
        <time>2025-06-26T06:09:00.097Z</time>
      </trkpt>
      <trkpt lat="47.931688" lon="-2.388130">
        <ele>79.096140</ele>
        <time>2025-06-26T06:09:01.160Z</time>
      </trkpt>
      <trkpt lat="47.931625" lon="-2.388155">
        <ele>79.054023</ele>
        <time>2025-06-26T06:09:01.996Z</time>
      </trkpt>
      <trkpt lat="47.931592" lon="-2.388148">
        <ele>79.032488</ele>
        <time>2025-06-26T06:09:02.417Z</time>
      </trkpt>
      <trkpt lat="47.930648" lon="-2.392767">
        <ele>78.851894</ele>
        <time>2025-06-26T06:09:52.771Z</time>
      </trkpt>
      <trkpt lat="47.930671" lon="-2.393031">
        <ele>78.870287</ele>
        <time>2025-06-26T06:09:55.595Z</time>
      </trkpt>
      <trkpt lat="47.930713" lon="-2.393111">
        <ele>78.877309</ele>
        <time>2025-06-26T06:09:56.669Z</time>
      </trkpt>
      <trkpt lat="47.930721" lon="-2.393198">
        <ele>78.883376</ele>
        <time>2025-06-26T06:09:57.601Z</time>
      </trkpt>
      <trkpt lat="47.930699" lon="-2.393286">
        <ele>78.889866</ele>
        <time>2025-06-26T06:09:58.570Z</time>
      </trkpt>
      <trkpt lat="47.930664" lon="-2.393331">
        <ele>78.894629</ele>
        <time>2025-06-26T06:09:59.299Z</time>
      </trkpt>
      <trkpt lat="47.930678" lon="-2.393541">
        <ele>78.909210</ele>
        <time>2025-06-26T06:10:01.502Z</time>
      </trkpt>
      <trkpt lat="47.930709" lon="-2.393680">
        <ele>78.919332</ele>
        <time>2025-06-26T06:10:03.016Z</time>
      </trkpt>
      <trkpt lat="47.930833" lon="-2.394017">
        <ele>78.945895</ele>
        <time>2025-06-26T06:10:06.979Z</time>
      </trkpt>
      <trkpt lat="47.931325" lon="-2.395323">
        <ele>78.102971</ele>
        <time>2025-06-26T06:10:21.333Z</time>
      </trkpt>
      <trkpt lat="47.931429" lon="-2.395733">
        <ele>77.720134</ele>
        <time>2025-06-26T06:10:24.972Z</time>
      </trkpt>
      <trkpt lat="47.931463" lon="-2.396068">
        <ele>77.424254</ele>
        <time>2025-06-26T06:10:27.552Z</time>
      </trkpt>
      <trkpt lat="47.931468" lon="-2.396141">
        <ele>77.360174</ele>
        <time>2025-06-26T06:10:28.093Z</time>
      </trkpt>
      <trkpt lat="47.931527" lon="-2.397160">
        <ele>76.334685</ele>
        <time>2025-06-26T06:10:35.225Z</time>
      </trkpt>
      <trkpt lat="47.930967" lon="-2.397222">
        <ele>75.029025</ele>
        <time>2025-06-26T06:10:41.108Z</time>
      </trkpt>
      <trkpt lat="47.930769" lon="-2.397242">
        <ele>74.567592</ele>
        <time>2025-06-26T06:10:43.197Z</time>
      </trkpt>
      <trkpt lat="47.930650" lon="-2.397264">
        <ele>74.288785</ele>
        <time>2025-06-26T06:10:44.459Z</time>
      </trkpt>
      <trkpt lat="47.929999" lon="-2.397383">
        <ele>72.763803</ele>
        <time>2025-06-26T06:10:51.411Z</time>
      </trkpt>
      <trkpt lat="47.930009" lon="-2.398375">
        <ele>71.560626</ele>
        <time>2025-06-26T06:10:59.394Z</time>
      </trkpt>
      <trkpt lat="47.929999" lon="-2.398763">
        <ele>71.123378</ele>
        <time>2025-06-26T06:11:02.600Z</time>
      </trkpt>
      <trkpt lat="47.929843" lon="-2.400466">
        <ele>69.203663</ele>
        <time>2025-06-26T06:11:15.293Z</time>
      </trkpt>
      <trkpt lat="47.929761" lon="-2.401410">
        <ele>68.201711</ele>
        <time>2025-06-26T06:11:22.397Z</time>
      </trkpt>
      <trkpt lat="47.929642" lon="-2.402054">
        <ele>67.498543</ele>
        <time>2025-06-26T06:11:27.301Z</time>
      </trkpt>
      <trkpt lat="47.929416" lon="-2.402955">
        <ele>66.616549</ele>
        <time>2025-06-26T06:11:34.899Z</time>
      </trkpt>
      <trkpt lat="47.929334" lon="-2.403273">
        <ele>66.650441</ele>
        <time>2025-06-26T06:11:38.075Z</time>
      </trkpt>
      <trkpt lat="47.929036" lon="-2.404902">
        <ele>66.818407</ele>
        <time>2025-06-26T06:11:55.922Z</time>
      </trkpt>
      <trkpt lat="47.928962" lon="-2.405161">
        <ele>66.846414</ele>
        <time>2025-06-26T06:11:59.421Z</time>
      </trkpt>
      <trkpt lat="47.928783" lon="-2.405533">
        <ele>67.040151</ele>
        <time>2025-06-26T06:12:05.265Z</time>
      </trkpt>
      <trkpt lat="47.928549" lon="-2.405894">
        <ele>67.466064</ele>
        <time>2025-06-26T06:12:11.853Z</time>
      </trkpt>
      <trkpt lat="47.928219" lon="-2.406330">
        <ele>68.023828</ele>
        <time>2025-06-26T06:12:20.724Z</time>
      </trkpt>
      <trkpt lat="47.927645" lon="-2.407100">
        <ele>69.000563</ele>
        <time>2025-06-26T06:12:36.439Z</time>
      </trkpt>
      <trkpt lat="47.927549" lon="-2.407355">
        <ele>69.214018</ele>
        <time>2025-06-26T06:12:40.433Z</time>
      </trkpt>
      <trkpt lat="47.927527" lon="-2.407503">
        <ele>69.298165</ele>
        <time>2025-06-26T06:12:42.518Z</time>
      </trkpt>
      <trkpt lat="47.927538" lon="-2.407636">
        <ele>69.372550</ele>
        <time>2025-06-26T06:12:44.359Z</time>
      </trkpt>
      <trkpt lat="47.927551" lon="-2.407694">
        <ele>69.406497</ele>
        <time>2025-06-26T06:12:45.201Z</time>
      </trkpt>
      <trkpt lat="47.927631" lon="-2.407983">
        <ele>69.580061</ele>
        <time>2025-06-26T06:12:49.537Z</time>
      </trkpt>
      <trkpt lat="47.927663" lon="-2.408110">
        <ele>69.655374</ele>
        <time>2025-06-26T06:12:51.404Z</time>
      </trkpt>
      <trkpt lat="47.927714" lon="-2.408191">
        <ele>69.717069</ele>
        <time>2025-06-26T06:12:52.898Z</time>
      </trkpt>
      <trkpt lat="47.927365" lon="-2.409479">
        <ele>70.488238</ele>
        <time>2025-06-26T06:13:09.684Z</time>
      </trkpt>
      <trkpt lat="47.927143" lon="-2.410273">
        <ele>70.206449</ele>
        <time>2025-06-26T06:13:17.860Z</time>
      </trkpt>
      <trkpt lat="47.926955" lon="-2.411470">
        <ele>69.305827</ele>
        <time>2025-06-26T06:13:27.599Z</time>
      </trkpt>
      <trkpt lat="47.926826" lon="-2.411889">
        <ele>68.968041</ele>
        <time>2025-06-26T06:13:31.082Z</time>
      </trkpt>
      <trkpt lat="47.926233" lon="-2.413539">
        <ele>66.658508</ele>
        <time>2025-06-26T06:13:45.023Z</time>
      </trkpt>
      <trkpt lat="47.926084" lon="-2.414338">
        <ele>65.521184</ele>
        <time>2025-06-26T06:13:51.056Z</time>
      </trkpt>
      <trkpt lat="47.925989" lon="-2.414962">
        <ele>64.463435</ele>
        <time>2025-06-26T06:13:55.639Z</time>
      </trkpt>
      <trkpt lat="47.925920" lon="-2.415436">
        <ele>63.453334</ele>
        <time>2025-06-26T06:13:59.038Z</time>
      </trkpt>
      <trkpt lat="47.925877" lon="-2.415581">
        <ele>63.123131</ele>
        <time>2025-06-26T06:14:00.120Z</time>
      </trkpt>
      <trkpt lat="47.925772" lon="-2.415823">
        <ele>62.522759</ele>
        <time>2025-06-26T06:14:02.078Z</time>
      </trkpt>
      <trkpt lat="47.925631" lon="-2.416057">
        <ele>61.867425</ele>
        <time>2025-06-26T06:14:04.203Z</time>
      </trkpt>
      <trkpt lat="47.925537" lon="-2.416198">
        <ele>61.453235</ele>
        <time>2025-06-26T06:14:05.550Z</time>
      </trkpt>
      <trkpt lat="47.925200" lon="-2.416553">
        <ele>60.171299</ele>
        <time>2025-06-26T06:14:09.684Z</time>
      </trkpt>
      <trkpt lat="47.925085" lon="-2.416696">
        <ele>59.706105</ele>
        <time>2025-06-26T06:14:11.168Z</time>
      </trkpt>
      <trkpt lat="47.924998" lon="-2.416858">
        <ele>59.271943</ele>
        <time>2025-06-26T06:14:12.553Z</time>
      </trkpt>
      <trkpt lat="47.924968" lon="-2.416821">
        <ele>59.149264</ele>
        <time>2025-06-26T06:14:13.115Z</time>
      </trkpt>
      <trkpt lat="47.924937" lon="-2.416813">
        <ele>59.050098</ele>
        <time>2025-06-26T06:14:13.433Z</time>
      </trkpt>
      <trkpt lat="47.924478" lon="-2.417077">
        <ele>57.499530</ele>
        <time>2025-06-26T06:14:18.340Z</time>
      </trkpt>
      <trkpt lat="47.924352" lon="-2.417111">
        <ele>57.095922</ele>
        <time>2025-06-26T06:14:19.615Z</time>
      </trkpt>
      <trkpt lat="47.923969" lon="-2.417058">
        <ele>55.883479</ele>
        <time>2025-06-26T06:14:23.473Z</time>
      </trkpt>
      <trkpt lat="47.923814" lon="-2.417069">
        <ele>55.394348</ele>
        <time>2025-06-26T06:14:25.057Z</time>
      </trkpt>
      <trkpt lat="47.923730" lon="-2.417179">
        <ele>55.042076</ele>
        <time>2025-06-26T06:14:26.204Z</time>
      </trkpt>
      <trkpt lat="47.923603" lon="-2.417699">
        <ele>53.873004</ele>
        <time>2025-06-26T06:14:30.058Z</time>
      </trkpt>
      <trkpt lat="47.923444" lon="-2.418315">
        <ele>53.008172</ele>
        <time>2025-06-26T06:14:34.828Z</time>
      </trkpt>
      <trkpt lat="47.923296" lon="-2.418596">
        <ele>52.572172</ele>
        <time>2025-06-26T06:14:37.468Z</time>
      </trkpt>
      <trkpt lat="47.923184" lon="-2.418706">
        <ele>52.328088</ele>
        <time>2025-06-26T06:14:38.957Z</time>
      </trkpt>
      <trkpt lat="47.923024" lon="-2.418831">
        <ele>51.999318</ele>
        <time>2025-06-26T06:14:40.987Z</time>
      </trkpt>
      <trkpt lat="47.922941" lon="-2.418872">
        <ele>51.840160</ele>
        <time>2025-06-26T06:14:41.994Z</time>
      </trkpt>
      <trkpt lat="47.922165" lon="-2.422022">
        <ele>48.064571</ele>
        <time>2025-06-26T06:15:08.182Z</time>
      </trkpt>
      <trkpt lat="47.921898" lon="-2.422856">
        <ele>46.976961</ele>
        <time>2025-06-26T06:15:14.795Z</time>
      </trkpt>
      <trkpt lat="47.921587" lon="-2.423665">
        <ele>45.786556</ele>
        <time>2025-06-26T06:15:21.526Z</time>
      </trkpt>
      <trkpt lat="47.921252" lon="-2.424307">
        <ele>44.748020</ele>
        <time>2025-06-26T06:15:27.680Z</time>
      </trkpt>
      <trkpt lat="47.920770" lon="-2.425137">
        <ele>43.182437</ele>
        <time>2025-06-26T06:15:36.307Z</time>
      </trkpt>
      <trkpt lat="47.920769" lon="-2.425138">
        <ele>43.179673</ele>
        <time>2025-06-26T06:15:36.318Z</time>
      </trkpt>
      <trkpt lat="47.920023" lon="-2.426136">
        <ele>40.878928</ele>
        <time>2025-06-26T06:15:47.149Z</time>
      </trkpt>
      <trkpt lat="47.919259" lon="-2.426891">
        <ele>38.816030</ele>
        <time>2025-06-26T06:15:56.275Z</time>
      </trkpt>
      <trkpt lat="47.918840" lon="-2.427242">
        <ele>37.749491</ele>
        <time>2025-06-26T06:16:01.314Z</time>
      </trkpt>
      <trkpt lat="47.918402" lon="-2.427530">
        <ele>36.687112</ele>
        <time>2025-06-26T06:16:06.672Z</time>
      </trkpt>
      <trkpt lat="47.917802" lon="-2.427866">
        <ele>36.108504</ele>
        <time>2025-06-26T06:16:14.572Z</time>
      </trkpt>
      <trkpt lat="47.916635" lon="-2.428412">
        <ele>36.426764</ele>
        <time>2025-06-26T06:16:35.179Z</time>
      </trkpt>
      <trkpt lat="47.915415" lon="-2.428979">
        <ele>36.633286</ele>
        <time>2025-06-26T06:17:00.568Z</time>
      </trkpt>
      <trkpt lat="47.912995" lon="-2.429754">
        <ele>34.871863</ele>
        <time>2025-06-26T06:17:29.954Z</time>
      </trkpt>
      <trkpt lat="47.912587" lon="-2.429929">
        <ele>34.663477</ele>
        <time>2025-06-26T06:17:35.878Z</time>
      </trkpt>
      <trkpt lat="47.912377" lon="-2.430068">
        <ele>34.582299</ele>
        <time>2025-06-26T06:17:39.177Z</time>
      </trkpt>
      <trkpt lat="47.912327" lon="-2.430103">
        <ele>34.562783</ele>
        <time>2025-06-26T06:17:40.087Z</time>
      </trkpt>
      <trkpt lat="47.910786" lon="-2.431166">
        <ele>34.093350</ele>
        <time>2025-06-26T06:18:03.416Z</time>
      </trkpt>
      <trkpt lat="47.910145" lon="-2.431426">
        <ele>34.022484</ele>
        <time>2025-06-26T06:18:12.354Z</time>
      </trkpt>
      <trkpt lat="47.907603" lon="-2.431685">
        <ele>34.870035</ele>
        <time>2025-06-26T06:18:54.033Z</time>
      </trkpt>
      <trkpt lat="47.906130" lon="-2.431998">
        <ele>36.092108</ele>
        <time>2025-06-26T06:19:22.499Z</time>
      </trkpt>
      <trkpt lat="47.904756" lon="-2.432479">
        <ele>36.190850</ele>
        <time>2025-06-26T06:19:45.185Z</time>
      </trkpt>
      <trkpt lat="47.904265" lon="-2.432773">
        <ele>36.174529</ele>
        <time>2025-06-26T06:19:51.832Z</time>
      </trkpt>
      <trkpt lat="47.902687" lon="-2.433693">
        <ele>34.572198</ele>
        <time>2025-06-26T06:20:12.307Z</time>
      </trkpt>
      <trkpt lat="47.898928" lon="-2.435804">
        <ele>31.156208</ele>
        <time>2025-06-26T06:21:03.226Z</time>
      </trkpt>
      <trkpt lat="47.898345" lon="-2.436040">
        <ele>30.371966</ele>
        <time>2025-06-26T06:21:10.059Z</time>
      </trkpt>
      <trkpt lat="47.897556" lon="-2.436275">
        <ele>29.327446</ele>
        <time>2025-06-26T06:21:19.181Z</time>
      </trkpt>
      <trkpt lat="47.896534" lon="-2.436410">
        <ele>28.520981</ele>
        <time>2025-06-26T06:21:32.324Z</time>
      </trkpt>
      <trkpt lat="47.895687" lon="-2.436402">
        <ele>27.902189</ele>
        <time>2025-06-26T06:21:43.945Z</time>
      </trkpt>
      <trkpt lat="47.892755" lon="-2.436212">
        <ele>24.633447</ele>
        <time>2025-06-26T06:22:18.825Z</time>
      </trkpt>
      <trkpt lat="47.889382" lon="-2.435990">
        <ele>21.527212</ele>
        <time>2025-06-26T06:23:00.652Z</time>
      </trkpt>
      <trkpt lat="47.888836" lon="-2.436023">
        <ele>21.103651</ele>
        <time>2025-06-26T06:23:07.485Z</time>
      </trkpt>
      <trkpt lat="47.888013" lon="-2.436109">
        <ele>20.906975</ele>
        <time>2025-06-26T06:23:18.227Z</time>
      </trkpt>
      <trkpt lat="47.887346" lon="-2.436165">
        <ele>21.029384</ele>
        <time>2025-06-26T06:23:42.943Z</time>
      </trkpt>
      <trkpt lat="47.882326" lon="-2.436675">
        <ele>24.791503</ele>
        <time>2025-06-26T06:25:16.746Z</time>
      </trkpt>
      <trkpt lat="47.878743" lon="-2.437033">
        <ele>24.445099</ele>
        <time>2025-06-26T06:26:07.633Z</time>
      </trkpt>
      <trkpt lat="47.878699" lon="-2.437392">
        <ele>24.347129</ele>
        <time>2025-06-26T06:26:10.981Z</time>
      </trkpt>
      <trkpt lat="47.878624" lon="-2.437857">
        <ele>24.218740</ele>
        <time>2025-06-26T06:26:15.240Z</time>
      </trkpt>
      <trkpt lat="47.878576" lon="-2.438141">
        <ele>24.140116</ele>
        <time>2025-06-26T06:26:17.772Z</time>
      </trkpt>
      <trkpt lat="47.878471" lon="-2.438033">
        <ele>24.089059</ele>
        <time>2025-06-26T06:26:19.404Z</time>
      </trkpt>
      <trkpt lat="47.878304" lon="-2.437932">
        <ele>24.009002</ele>
        <time>2025-06-26T06:26:21.670Z</time>
      </trkpt>
      <trkpt lat="47.877306" lon="-2.437483">
        <ele>23.322449</ele>
        <time>2025-06-26T06:26:34.831Z</time>
      </trkpt>
      <trkpt lat="47.877019" lon="-2.437386">
        <ele>23.128636</ele>
        <time>2025-06-26T06:26:38.589Z</time>
      </trkpt>
      <trkpt lat="47.876864" lon="-2.437392">
        <ele>23.026519</ele>
        <time>2025-06-26T06:26:40.592Z</time>
      </trkpt>
      <trkpt lat="47.876738" lon="-2.437434">
        <ele>22.941487</ele>
        <time>2025-06-26T06:26:42.289Z</time>
      </trkpt>
      <trkpt lat="47.876486" lon="-2.437626">
        <ele>22.831401</ele>
        <time>2025-06-26T06:26:46.062Z</time>
      </trkpt>
      <trkpt lat="47.875606" lon="-2.438417">
        <ele>22.731446</ele>
        <time>2025-06-26T06:27:00.751Z</time>
      </trkpt>
      <trkpt lat="47.875447" lon="-2.438667">
        <ele>22.708968</ele>
        <time>2025-06-26T06:27:03.972Z</time>
      </trkpt>
      <trkpt lat="47.875350" lon="-2.438901">
        <ele>22.691020</ele>
        <time>2025-06-26T06:27:06.634Z</time>
      </trkpt>
      <trkpt lat="47.875271" lon="-2.439175">
        <ele>22.671561</ele>
        <time>2025-06-26T06:27:09.655Z</time>
      </trkpt>
      <trkpt lat="47.875118" lon="-2.439926">
        <ele>23.336462</ele>
        <time>2025-06-26T06:27:18.515Z</time>
      </trkpt>
      <trkpt lat="47.875038" lon="-2.440173">
        <ele>23.578460</ele>
        <time>2025-06-26T06:27:21.802Z</time>
      </trkpt>
      <trkpt lat="47.874286" lon="-2.441275">
        <ele>24.965448</ele>
        <time>2025-06-26T06:27:44.746Z</time>
      </trkpt>
      <trkpt lat="47.874024" lon="-2.441832">
        <ele>25.720493</ele>
        <time>2025-06-26T06:27:56.411Z</time>
      </trkpt>
      <trkpt lat="47.873853" lon="-2.442053">
        <ele>26.105098</ele>
        <time>2025-06-26T06:28:02.187Z</time>
      </trkpt>
      <trkpt lat="47.873317" lon="-2.442335">
        <ele>27.071073</ele>
        <time>2025-06-26T06:28:15.648Z</time>
      </trkpt>
      <trkpt lat="47.873153" lon="-2.442467">
        <ele>27.387812</ele>
        <time>2025-06-26T06:28:19.592Z</time>
      </trkpt>
      <trkpt lat="47.872893" lon="-2.442743">
        <ele>27.930245</ele>
        <time>2025-06-26T06:28:25.565Z</time>
      </trkpt>
      <trkpt lat="47.872203" lon="-2.443186">
        <ele>27.721100</ele>
        <time>2025-06-26T06:28:36.008Z</time>
      </trkpt>
      <trkpt lat="47.871975" lon="-2.443288">
        <ele>27.586404</ele>
        <time>2025-06-26T06:28:38.902Z</time>
      </trkpt>
      <trkpt lat="47.871001" lon="-2.443552">
        <ele>27.044816</ele>
        <time>2025-06-26T06:28:50.921Z</time>
      </trkpt>
      <trkpt lat="47.870747" lon="-2.443676">
        <ele>26.951801</ele>
        <time>2025-06-26T06:28:54.305Z</time>
      </trkpt>
      <trkpt lat="47.870575" lon="-2.443803">
        <ele>26.885002</ele>
        <time>2025-06-26T06:28:56.777Z</time>
      </trkpt>
      <trkpt lat="47.870241" lon="-2.444214">
        <ele>26.734280</ele>
        <time>2025-06-26T06:29:02.444Z</time>
      </trkpt>
      <trkpt lat="47.869913" lon="-2.444599">
        <ele>26.588994</ele>
        <time>2025-06-26T06:29:08.437Z</time>
      </trkpt>
      <trkpt lat="47.869744" lon="-2.444788">
        <ele>26.515468</ele>
        <time>2025-06-26T06:29:11.710Z</time>
      </trkpt>
      <trkpt lat="47.869471" lon="-2.445028">
        <ele>26.515147</ele>
        <time>2025-06-26T06:29:16.827Z</time>
      </trkpt>
      <trkpt lat="47.868039" lon="-2.445996">
        <ele>27.355226</ele>
        <time>2025-06-26T06:29:43.529Z</time>
      </trkpt>
      <trkpt lat="47.867170" lon="-2.446506">
        <ele>28.890272</ele>
        <time>2025-06-26T06:30:00.175Z</time>
      </trkpt>
      <trkpt lat="47.866612" lon="-2.446956">
        <ele>30.019001</ele>
        <time>2025-06-26T06:30:15.459Z</time>
      </trkpt>
      <trkpt lat="47.866396" lon="-2.447089">
        <ele>30.434789</ele>
        <time>2025-06-26T06:30:22.075Z</time>
      </trkpt>
      <trkpt lat="47.865548" lon="-2.447675">
        <ele>32.592296</ele>
        <time>2025-06-26T06:30:47.968Z</time>
      </trkpt>
      <trkpt lat="47.865098" lon="-2.447987">
        <ele>33.768713</ele>
        <time>2025-06-26T06:31:00.552Z</time>
      </trkpt>
      <trkpt lat="47.864826" lon="-2.448196">
        <ele>34.494082</ele>
        <time>2025-06-26T06:31:07.078Z</time>
      </trkpt>
      <trkpt lat="47.864698" lon="-2.448152">
        <ele>34.805455</ele>
        <time>2025-06-26T06:31:09.476Z</time>
      </trkpt>
      <trkpt lat="47.864658" lon="-2.448351">
        <ele>34.891731</ele>
        <time>2025-06-26T06:31:11.810Z</time>
      </trkpt>
      <trkpt lat="47.864359" lon="-2.449065">
        <ele>34.987001</ele>
        <time>2025-06-26T06:31:20.381Z</time>
      </trkpt>
      <trkpt lat="47.864325" lon="-2.449265">
        <ele>35.010355</ele>
        <time>2025-06-26T06:31:22.576Z</time>
      </trkpt>
      <trkpt lat="47.864231" lon="-2.449303">
        <ele>35.026788</ele>
        <time>2025-06-26T06:31:24.082Z</time>
      </trkpt>
      <trkpt lat="47.864129" lon="-2.449405">
        <ele>35.047511</ele>
        <time>2025-06-26T06:31:25.980Z</time>
      </trkpt>
      <trkpt lat="47.863845" lon="-2.449827">
        <ele>35.115170</ele>
        <time>2025-06-26T06:31:32.292Z</time>
      </trkpt>
      <trkpt lat="47.863580" lon="-2.450233">
        <ele>35.151969</ele>
        <time>2025-06-26T06:31:37.619Z</time>
      </trkpt>
      <trkpt lat="47.863537" lon="-2.450302">
        <ele>35.058465</ele>
        <time>2025-06-26T06:31:38.459Z</time>
      </trkpt>
      <trkpt lat="47.863232" lon="-2.450743">
        <ele>34.429613</ele>
        <time>2025-06-26T06:31:43.887Z</time>
      </trkpt>
      <trkpt lat="47.862806" lon="-2.451405">
        <ele>33.518855</ele>
        <time>2025-06-26T06:31:51.156Z</time>
      </trkpt>
      <trkpt lat="47.862319" lon="-2.452269">
        <ele>32.336218</ele>
        <time>2025-06-26T06:31:59.210Z</time>
      </trkpt>
      <trkpt lat="47.861947" lon="-2.453102">
        <ele>30.810841</ele>
        <time>2025-06-26T06:32:06.191Z</time>
      </trkpt>
      <trkpt lat="47.861887" lon="-2.453232">
        <ele>30.570310</ele>
        <time>2025-06-26T06:32:07.307Z</time>
      </trkpt>
      <trkpt lat="47.861835" lon="-2.453344">
        <ele>30.362686</ele>
        <time>2025-06-26T06:32:08.276Z</time>
      </trkpt>
      <trkpt lat="47.861696" lon="-2.453644">
        <ele>29.806918</ele>
        <time>2025-06-26T06:32:10.903Z</time>
      </trkpt>
      <trkpt lat="47.861440" lon="-2.454120">
        <ele>28.876959</ele>
        <time>2025-06-26T06:32:15.387Z</time>
      </trkpt>
      <trkpt lat="47.860898" lon="-2.455112">
        <ele>27.610371</ele>
        <time>2025-06-26T06:32:25.112Z</time>
      </trkpt>
      <trkpt lat="47.860770" lon="-2.455340">
        <ele>27.363544</ele>
        <time>2025-06-26T06:32:27.365Z</time>
      </trkpt>
      <trkpt lat="47.860524" lon="-2.455736">
        <ele>26.915472</ele>
        <time>2025-06-26T06:32:31.524Z</time>
      </trkpt>
      <trkpt lat="47.860284" lon="-2.455900">
        <ele>26.588753</ele>
        <time>2025-06-26T06:32:34.668Z</time>
      </trkpt>
      <trkpt lat="47.859949" lon="-2.455987">
        <ele>26.247053</ele>
        <time>2025-06-26T06:32:39.048Z</time>
      </trkpt>
      <trkpt lat="47.859363" lon="-2.456050">
        <ele>27.196617</ele>
        <time>2025-06-26T06:32:49.058Z</time>
      </trkpt>
      <trkpt lat="47.859009" lon="-2.456002">
        <ele>27.771121</ele>
        <time>2025-06-26T06:32:56.488Z</time>
      </trkpt>
      <trkpt lat="47.858512" lon="-2.455884">
        <ele>28.584510</ele>
        <time>2025-06-26T06:33:08.761Z</time>
      </trkpt>
      <trkpt lat="47.858185" lon="-2.455877">
        <ele>29.116580</ele>
        <time>2025-06-26T06:33:17.866Z</time>
      </trkpt>
      <trkpt lat="47.857932" lon="-2.455971">
        <ele>29.926202</ele>
        <time>2025-06-26T06:33:25.444Z</time>
      </trkpt>
      <trkpt lat="47.857711" lon="-2.456161">
        <ele>30.718407</ele>
        <time>2025-06-26T06:33:32.896Z</time>
      </trkpt>
      <trkpt lat="47.857601" lon="-2.456342">
        <ele>31.227193</ele>
        <time>2025-06-26T06:33:37.558Z</time>
      </trkpt>
      <trkpt lat="47.857163" lon="-2.457247">
        <ele>33.552003</ele>
        <time>2025-06-26T06:33:57.816Z</time>
      </trkpt>
      <trkpt lat="47.857033" lon="-2.457464">
        <ele>34.158087</ele>
        <time>2025-06-26T06:34:03.200Z</time>
      </trkpt>
      <trkpt lat="47.856728" lon="-2.457888">
        <ele>35.177650</ele>
        <time>2025-06-26T06:34:14.328Z</time>
      </trkpt>
      <trkpt lat="47.856183" lon="-2.458563">
        <ele>36.579290</ele>
        <time>2025-06-26T06:34:31.021Z</time>
      </trkpt>
      <trkpt lat="47.856044" lon="-2.458845">
        <ele>37.043688</ele>
        <time>2025-06-26T06:34:36.146Z</time>
      </trkpt>
      <trkpt lat="47.855931" lon="-2.459102">
        <ele>37.451485</ele>
        <time>2025-06-26T06:34:40.585Z</time>
      </trkpt>
      <trkpt lat="47.855490" lon="-2.460599">
        <ele>38.728709</ele>
        <time>2025-06-26T06:35:02.132Z</time>
      </trkpt>
      <trkpt lat="47.855369" lon="-2.460867">
        <ele>38.878005</ele>
        <time>2025-06-26T06:35:05.820Z</time>
      </trkpt>
      <trkpt lat="47.855123" lon="-2.461266">
        <ele>39.128445</ele>
        <time>2025-06-26T06:35:11.766Z</time>
      </trkpt>
      <trkpt lat="47.854460" lon="-2.462042">
        <ele>39.687194</ele>
        <time>2025-06-26T06:35:24.770Z</time>
      </trkpt>
      <trkpt lat="47.853478" lon="-2.463173">
        <ele>40.456232</ele>
        <time>2025-06-26T06:35:45.318Z</time>
      </trkpt>
      <trkpt lat="47.853182" lon="-2.463708">
        <ele>41.029914</ele>
        <time>2025-06-26T06:35:54.869Z</time>
      </trkpt>
      <trkpt lat="47.852996" lon="-2.464201">
        <ele>41.746660</ele>
        <time>2025-06-26T06:36:03.409Z</time>
      </trkpt>
      <trkpt lat="47.852891" lon="-2.464567">
        <ele>42.251096</ele>
        <time>2025-06-26T06:36:09.734Z</time>
      </trkpt>
      <trkpt lat="47.852740" lon="-2.465251">
        <ele>43.163623</ele>
        <time>2025-06-26T06:36:21.346Z</time>
      </trkpt>
      <trkpt lat="47.852604" lon="-2.466070">
        <ele>44.190477</ele>
        <time>2025-06-26T06:36:34.653Z</time>
      </trkpt>
      <trkpt lat="47.851621" lon="-2.471557">
        <ele>50.423089</ele>
        <time>2025-06-26T06:37:52.808Z</time>
      </trkpt>
      <trkpt lat="47.851498" lon="-2.472085">
        <ele>51.497390</ele>
        <time>2025-06-26T06:38:02.672Z</time>
      </trkpt>
      <trkpt lat="47.851218" lon="-2.473004">
        <ele>53.437385</ele>
        <time>2025-06-26T06:38:21.686Z</time>
      </trkpt>
      <trkpt lat="47.850729" lon="-2.474020">
        <ele>55.997037</ele>
        <time>2025-06-26T06:38:46.607Z</time>
      </trkpt>
      <trkpt lat="47.849778" lon="-2.475847">
        <ele>60.872135</ele>
        <time>2025-06-26T06:39:29.079Z</time>
      </trkpt>
      <trkpt lat="47.849407" lon="-2.476325">
        <ele>62.090335</ele>
        <time>2025-06-26T06:39:41.198Z</time>
      </trkpt>
      <trkpt lat="47.848903" lon="-2.476787">
        <ele>63.560101</ele>
        <time>2025-06-26T06:39:55.232Z</time>
      </trkpt>
      <trkpt lat="47.847197" lon="-2.478353">
        <ele>68.881764</ele>
        <time>2025-06-26T06:40:44.104Z</time>
      </trkpt>
      <trkpt lat="47.846995" lon="-2.478585">
        <ele>69.575097</ele>
        <time>2025-06-26T06:40:51.238Z</time>
      </trkpt>
      <trkpt lat="47.846706" lon="-2.478988">
        <ele>71.188593</ele>
        <time>2025-06-26T06:41:02.896Z</time>
      </trkpt>
      <trkpt lat="47.844822" lon="-2.482600">
        <ele>84.828019</ele>
        <time>2025-06-26T06:42:46.423Z</time>
      </trkpt>
      <trkpt lat="47.843832" lon="-2.484485">
        <ele>89.884382</ele>
        <time>2025-06-26T06:43:32.871Z</time>
      </trkpt>
      <trkpt lat="47.841606" lon="-2.488761">
        <ele>94.767575</ele>
        <time>2025-06-26T06:44:42.105Z</time>
      </trkpt>
      <trkpt lat="47.841330" lon="-2.489187">
        <ele>95.181564</ele>
        <time>2025-06-26T06:44:50.271Z</time>
      </trkpt>
      <trkpt lat="47.841125" lon="-2.489400">
        <ele>95.229804</ele>
        <time>2025-06-26T06:44:55.280Z</time>
      </trkpt>
      <trkpt lat="47.840538" lon="-2.489781">
        <ele>95.353388</ele>
        <time>2025-06-26T06:45:07.034Z</time>
      </trkpt>
      <trkpt lat="47.839966" lon="-2.489972">
        <ele>95.466531</ele>
        <time>2025-06-26T06:45:15.753Z</time>
      </trkpt>
      <trkpt lat="47.838613" lon="-2.490257">
        <ele>93.686867</ele>
        <time>2025-06-26T06:45:31.214Z</time>
      </trkpt>
      <trkpt lat="47.832602" lon="-2.491485">
        <ele>82.139774</ele>
        <time>2025-06-26T06:46:37.895Z</time>
      </trkpt>
      <trkpt lat="47.832321" lon="-2.491564">
        <ele>81.936015</ele>
        <time>2025-06-26T06:46:41.525Z</time>
      </trkpt>
      <trkpt lat="47.832040" lon="-2.491643">
        <ele>81.796895</ele>
        <time>2025-06-26T06:46:45.306Z</time>
      </trkpt>
      <trkpt lat="47.831844" lon="-2.491739">
        <ele>81.696518</ele>
        <time>2025-06-26T06:46:48.128Z</time>
      </trkpt>
      <trkpt lat="47.831489" lon="-2.491948">
        <ele>81.510810</ele>
        <time>2025-06-26T06:46:53.641Z</time>
      </trkpt>
      <trkpt lat="47.829493" lon="-2.493340">
        <ele>80.710491</ele>
        <time>2025-06-26T06:47:24.609Z</time>
      </trkpt>
      <trkpt lat="47.829109" lon="-2.493601">
        <ele>80.400519</ele>
        <time>2025-06-26T06:47:30.279Z</time>
      </trkpt>
      <trkpt lat="47.828331" lon="-2.494132">
        <ele>79.031280</ele>
        <time>2025-06-26T06:47:40.633Z</time>
      </trkpt>
      <trkpt lat="47.828035" lon="-2.494495">
        <ele>78.417824</ele>
        <time>2025-06-26T06:47:44.828Z</time>
      </trkpt>
      <trkpt lat="47.827879" lon="-2.494777">
        <ele>78.025325</ele>
        <time>2025-06-26T06:47:47.425Z</time>
      </trkpt>
      <trkpt lat="47.827163" lon="-2.496663">
        <ele>74.019662</ele>
        <time>2025-06-26T06:48:02.325Z</time>
      </trkpt>
      <trkpt lat="47.826303" lon="-2.498905">
        <ele>69.195415</ele>
        <time>2025-06-26T06:48:20.254Z</time>
      </trkpt>
      <trkpt lat="47.825792" lon="-2.500037">
        <ele>67.244051</ele>
        <time>2025-06-26T06:48:29.888Z</time>
      </trkpt>
      <trkpt lat="47.825651" lon="-2.500461">
        <ele>66.900715</ele>
        <time>2025-06-26T06:48:33.380Z</time>
      </trkpt>
      <trkpt lat="47.825663" lon="-2.500622">
        <ele>66.783173</ele>
        <time>2025-06-26T06:48:34.622Z</time>
      </trkpt>
      <trkpt lat="47.825623" lon="-2.500724">
        <ele>66.697459</ele>
        <time>2025-06-26T06:48:35.543Z</time>
      </trkpt>
      <trkpt lat="47.825591" lon="-2.500760">
        <ele>66.654117</ele>
        <time>2025-06-26T06:48:36.014Z</time>
      </trkpt>
      <trkpt lat="47.825485" lon="-2.500783">
        <ele>66.538345</ele>
        <time>2025-06-26T06:48:37.298Z</time>
      </trkpt>
      <trkpt lat="47.825349" lon="-2.500949">
        <ele>66.348309</ele>
        <time>2025-06-26T06:48:39.496Z</time>
      </trkpt>
      <trkpt lat="47.825193" lon="-2.501231">
        <ele>66.083170</ele>
        <time>2025-06-26T06:48:42.784Z</time>
      </trkpt>
      <trkpt lat="47.824057" lon="-2.503399">
        <ele>66.461320</ele>
        <time>2025-06-26T06:49:14.039Z</time>
      </trkpt>
      <trkpt lat="47.823577" lon="-2.504323">
        <ele>66.276054</ele>
        <time>2025-06-26T06:49:28.636Z</time>
      </trkpt>
      <trkpt lat="47.823327" lon="-2.504795">
        <ele>65.931408</ele>
        <time>2025-06-26T06:49:35.307Z</time>
      </trkpt>
      <trkpt lat="47.823278" lon="-2.504898">
        <ele>65.859041</ele>
        <time>2025-06-26T06:49:36.446Z</time>
      </trkpt>
      <trkpt lat="47.823062" lon="-2.505350">
        <ele>65.540988</ele>
        <time>2025-06-26T06:49:40.924Z</time>
      </trkpt>
      <trkpt lat="47.822979" lon="-2.505522">
        <ele>65.419559</ele>
        <time>2025-06-26T06:49:43.105Z</time>
      </trkpt>
      <trkpt lat="47.822774" lon="-2.505950">
        <ele>65.118161</ele>
        <time>2025-06-26T06:49:48.292Z</time>
      </trkpt>
      <trkpt lat="47.822725" lon="-2.506053">
        <ele>64.837971</ele>
        <time>2025-06-26T06:49:49.516Z</time>
      </trkpt>
      <trkpt lat="47.822445" lon="-2.506639">
        <ele>63.201130</ele>
        <time>2025-06-26T06:49:54.303Z</time>
      </trkpt>
      <trkpt lat="47.822360" lon="-2.506816">
        <ele>62.705885</ele>
        <time>2025-06-26T06:49:55.721Z</time>
      </trkpt>
      <trkpt lat="47.822246" lon="-2.507101">
        <ele>61.950904</ele>
        <time>2025-06-26T06:49:57.850Z</time>
      </trkpt>
      <trkpt lat="47.821969" lon="-2.507697">
        <ele>60.301266</ele>
        <time>2025-06-26T06:50:02.601Z</time>
      </trkpt>
      <trkpt lat="47.821824" lon="-2.507947">
        <ele>59.549428</ele>
        <time>2025-06-26T06:50:04.858Z</time>
      </trkpt>
      <trkpt lat="47.821682" lon="-2.508138">
        <ele>58.982517</ele>
        <time>2025-06-26T06:50:06.873Z</time>
      </trkpt>
      <trkpt lat="47.821474" lon="-2.508369">
        <ele>58.709380</ele>
        <time>2025-06-26T06:50:09.801Z</time>
      </trkpt>
      <trkpt lat="47.821295" lon="-2.508513">
        <ele>58.495213</ele>
        <time>2025-06-26T06:50:12.194Z</time>
      </trkpt>
      <trkpt lat="47.819908" lon="-2.509614">
        <ele>56.950963</ele>
        <time>2025-06-26T06:50:32.866Z</time>
      </trkpt>
      <trkpt lat="47.818498" lon="-2.510791">
        <ele>55.852887</ele>
        <time>2025-06-26T06:50:53.899Z</time>
      </trkpt>
      <trkpt lat="47.818069" lon="-2.511099">
        <ele>55.252174</ele>
        <time>2025-06-26T06:50:59.675Z</time>
      </trkpt>
      <trkpt lat="47.817470" lon="-2.511417">
        <ele>54.450060</ele>
        <time>2025-06-26T06:51:07.065Z</time>
      </trkpt>
      <trkpt lat="47.816725" lon="-2.511811">
        <ele>53.712091</ele>
        <time>2025-06-26T06:51:15.970Z</time>
      </trkpt>
      <trkpt lat="47.816601" lon="-2.511891">
        <ele>53.723360</ele>
        <time>2025-06-26T06:51:17.572Z</time>
      </trkpt>
      <trkpt lat="47.816433" lon="-2.511905">
        <ele>53.737391</ele>
        <time>2025-06-26T06:51:19.649Z</time>
      </trkpt>
      <trkpt lat="47.816281" lon="-2.511870">
        <ele>53.750216</ele>
        <time>2025-06-26T06:51:21.659Z</time>
      </trkpt>
      <trkpt lat="47.816004" lon="-2.512132">
        <ele>53.777579</ele>
        <time>2025-06-26T06:51:26.374Z</time>
      </trkpt>
      <trkpt lat="47.815596" lon="-2.512405">
        <ele>53.814878</ele>
        <time>2025-06-26T06:51:34.072Z</time>
      </trkpt>
      <trkpt lat="47.814811" lon="-2.512809">
        <ele>53.869592</ele>
        <time>2025-06-26T06:51:52.640Z</time>
      </trkpt>
      <trkpt lat="47.814642" lon="-2.512853">
        <ele>53.878442</ele>
        <time>2025-06-26T06:51:56.204Z</time>
      </trkpt>
      <trkpt lat="47.814473" lon="-2.512896">
        <ele>53.887286</ele>
        <time>2025-06-26T06:51:59.529Z</time>
      </trkpt>
      <trkpt lat="47.814300" lon="-2.512879">
        <ele>53.896230</ele>
        <time>2025-06-26T06:52:02.583Z</time>
      </trkpt>
      <trkpt lat="47.813980" lon="-2.512746">
        <ele>53.913369</ele>
        <time>2025-06-26T06:52:07.485Z</time>
      </trkpt>
      <trkpt lat="47.812570" lon="-2.511829">
        <ele>52.624183</ele>
        <time>2025-06-26T06:52:23.916Z</time>
      </trkpt>
      <trkpt lat="47.812258" lon="-2.511564">
        <ele>52.172728</ele>
        <time>2025-06-26T06:52:28.208Z</time>
      </trkpt>
      <trkpt lat="47.812134" lon="-2.511862">
        <ele>51.876823</ele>
        <time>2025-06-26T06:52:31.559Z</time>
      </trkpt>
      <trkpt lat="47.812103" lon="-2.512320">
        <ele>52.089624</ele>
        <time>2025-06-26T06:52:36.990Z</time>
      </trkpt>
      <trkpt lat="47.812202" lon="-2.513184">
        <ele>53.693486</ele>
        <time>2025-06-26T06:52:50.926Z</time>
      </trkpt>
      <trkpt lat="47.812347" lon="-2.513698">
        <ele>54.713656</ele>
        <time>2025-06-26T06:53:02.482Z</time>
      </trkpt>
      <trkpt lat="47.812396" lon="-2.514135">
        <ele>55.524379</ele>
        <time>2025-06-26T06:53:11.581Z</time>
      </trkpt>
      <trkpt lat="47.812393" lon="-2.515209">
        <ele>57.716353</ele>
        <time>2025-06-26T06:53:32.240Z</time>
      </trkpt>
      <trkpt lat="47.812374" lon="-2.515437">
        <ele>58.241413</ele>
        <time>2025-06-26T06:53:36.507Z</time>
      </trkpt>
      <trkpt lat="47.812267" lon="-2.516019">
        <ele>59.620442</ele>
        <time>2025-06-26T06:53:47.704Z</time>
      </trkpt>
      <trkpt lat="47.812251" lon="-2.516500">
        <ele>60.721055</ele>
        <time>2025-06-26T06:53:56.676Z</time>
      </trkpt>
      <trkpt lat="47.812269" lon="-2.516746">
        <ele>61.286585</ele>
        <time>2025-06-26T06:54:01.300Z</time>
      </trkpt>
      <trkpt lat="47.812344" lon="-2.517205">
        <ele>62.366174</ele>
        <time>2025-06-26T06:54:10.174Z</time>
      </trkpt>
      <trkpt lat="47.812620" lon="-2.518677">
        <ele>66.415895</ele>
        <time>2025-06-26T06:54:41.320Z</time>
      </trkpt>
      <trkpt lat="47.812729" lon="-2.519367">
        <ele>68.321470</ele>
        <time>2025-06-26T06:54:56.518Z</time>
      </trkpt>
      <trkpt lat="47.812939" lon="-2.521071">
        <ele>72.747143</ele>
        <time>2025-06-26T06:55:33.807Z</time>
      </trkpt>
      <trkpt lat="47.812946" lon="-2.521521">
        <ele>73.866133</ele>
        <time>2025-06-26T06:55:42.827Z</time>
      </trkpt>
      <trkpt lat="47.812889" lon="-2.524869">
        <ele>80.334809</ele>
        <time>2025-06-26T06:56:43.109Z</time>
      </trkpt>
      <trkpt lat="47.812857" lon="-2.525412">
        <ele>80.859703</ele>
        <time>2025-06-26T06:56:50.457Z</time>
      </trkpt>
      <trkpt lat="47.812767" lon="-2.525940">
        <ele>80.194893</ele>
        <time>2025-06-26T06:56:56.177Z</time>
      </trkpt>
      <trkpt lat="47.812706" lon="-2.526309">
        <ele>79.731118</ele>
        <time>2025-06-26T06:56:59.384Z</time>
      </trkpt>
      <trkpt lat="47.812659" lon="-2.526686">
        <ele>79.263161</ele>
        <time>2025-06-26T06:57:02.319Z</time>
      </trkpt>
      <trkpt lat="47.812576" lon="-2.530422">
        <ele>71.487162</ele>
        <time>2025-06-26T06:57:26.919Z</time>
      </trkpt>
      <trkpt lat="47.812560" lon="-2.533099">
        <ele>66.809919</ele>
        <time>2025-06-26T06:57:45.495Z</time>
      </trkpt>
      <trkpt lat="47.812577" lon="-2.533391">
        <ele>66.628753</ele>
        <time>2025-06-26T06:57:47.827Z</time>
      </trkpt>
      <trkpt lat="47.812616" lon="-2.533661">
        <ele>66.922314</ele>
        <time>2025-06-26T06:57:50.232Z</time>
      </trkpt>
      <trkpt lat="47.812913" lon="-2.534813">
        <ele>68.233970</ele>
        <time>2025-06-26T06:58:05.973Z</time>
      </trkpt>
      <trkpt lat="47.813750" lon="-2.537937">
        <ele>75.286992</ele>
        <time>2025-06-26T06:59:14.509Z</time>
      </trkpt>
      <trkpt lat="47.813835" lon="-2.538377">
        <ele>76.424292</ele>
        <time>2025-06-26T06:59:23.878Z</time>
      </trkpt>
      <trkpt lat="47.813946" lon="-2.539529">
        <ele>78.907102</ele>
        <time>2025-06-26T06:59:46.783Z</time>
      </trkpt>
      <trkpt lat="47.814124" lon="-2.540374">
        <ele>80.796403</ele>
        <time>2025-06-26T07:00:02.991Z</time>
      </trkpt>
      <trkpt lat="47.814773" lon="-2.542854">
        <ele>84.878687</ele>
        <time>2025-06-26T07:00:45.350Z</time>
      </trkpt>
      <trkpt lat="47.815102" lon="-2.544523">
        <ele>87.070524</ele>
        <time>2025-06-26T07:01:09.076Z</time>
      </trkpt>
      <trkpt lat="47.815756" lon="-2.548077">
        <ele>91.514565</ele>
        <time>2025-06-26T07:02:06.341Z</time>
      </trkpt>
      <trkpt lat="47.815812" lon="-2.548583">
        <ele>92.105424</ele>
        <time>2025-06-26T07:02:13.099Z</time>
      </trkpt>
      <trkpt lat="47.815839" lon="-2.549090">
        <ele>92.105981</ele>
        <time>2025-06-26T07:02:19.335Z</time>
      </trkpt>
      <trkpt lat="47.815832" lon="-2.549673">
        <ele>92.106619</ele>
        <time>2025-06-26T07:02:25.795Z</time>
      </trkpt>
      <trkpt lat="47.815804" lon="-2.550181">
        <ele>92.107176</ele>
        <time>2025-06-26T07:02:30.793Z</time>
      </trkpt>
      <trkpt lat="47.815736" lon="-2.550769">
        <ele>92.107829</ele>
        <time>2025-06-26T07:02:36.357Z</time>
      </trkpt>
      <trkpt lat="47.815436" lon="-2.553203">
        <ele>89.862391</ele>
        <time>2025-06-26T07:02:55.762Z</time>
      </trkpt>
      <trkpt lat="47.815343" lon="-2.553913">
        <ele>89.055188</ele>
        <time>2025-06-26T07:03:00.845Z</time>
      </trkpt>
      <trkpt lat="47.815160" lon="-2.554848">
        <ele>87.938985</ele>
        <time>2025-06-26T07:03:07.679Z</time>
      </trkpt>
      <trkpt lat="47.815032" lon="-2.555316">
        <ele>87.359821</ele>
        <time>2025-06-26T07:03:11.336Z</time>
      </trkpt>
      <trkpt lat="47.814857" lon="-2.555800">
        <ele>86.729801</ele>
        <time>2025-06-26T07:03:15.627Z</time>
      </trkpt>
      <trkpt lat="47.814423" lon="-2.556691">
        <ele>86.239747</ele>
        <time>2025-06-26T07:03:25.593Z</time>
      </trkpt>
      <trkpt lat="47.813980" lon="-2.557454">
        <ele>86.597549</ele>
        <time>2025-06-26T07:03:37.318Z</time>
      </trkpt>
      <trkpt lat="47.812807" lon="-2.559353">
        <ele>86.881722</ele>
        <time>2025-06-26T07:04:10.514Z</time>
      </trkpt>
      <trkpt lat="47.812688" lon="-2.559579">
        <ele>86.856357</ele>
        <time>2025-06-26T07:04:13.216Z</time>
      </trkpt>
      <trkpt lat="47.812593" lon="-2.559835">
        <ele>86.830525</ele>
        <time>2025-06-26T07:04:15.766Z</time>
      </trkpt>
      <trkpt lat="47.811798" lon="-2.562771">
        <ele>83.109721</ele>
        <time>2025-06-26T07:04:38.630Z</time>
      </trkpt>
      <trkpt lat="47.811551" lon="-2.563971">
        <ele>82.156009</ele>
        <time>2025-06-26T07:04:47.743Z</time>
      </trkpt>
      <trkpt lat="47.811246" lon="-2.565111">
        <ele>81.375852</ele>
        <time>2025-06-26T07:04:58.814Z</time>
      </trkpt>
      <trkpt lat="47.811142" lon="-2.565429">
        <ele>81.150982</ele>
        <time>2025-06-26T07:05:02.967Z</time>
      </trkpt>
      <trkpt lat="47.810552" lon="-2.566401">
        <ele>80.606418</ele>
        <time>2025-06-26T07:05:17.728Z</time>
      </trkpt>
      <trkpt lat="47.810369" lon="-2.566829">
        <ele>80.398071</ele>
        <time>2025-06-26T07:05:22.519Z</time>
      </trkpt>
      <trkpt lat="47.810162" lon="-2.569510">
        <ele>76.561239</ele>
        <time>2025-06-26T07:05:42.116Z</time>
      </trkpt>
      <trkpt lat="47.810006" lon="-2.569761">
        <ele>75.904911</ele>
        <time>2025-06-26T07:05:44.371Z</time>
      </trkpt>
      <trkpt lat="47.809712" lon="-2.570040">
        <ele>74.908652</ele>
        <time>2025-06-26T07:05:47.755Z</time>
      </trkpt>
      <trkpt lat="47.809493" lon="-2.570144">
        <ele>74.172191</ele>
        <time>2025-06-26T07:05:49.959Z</time>
      </trkpt>
      <trkpt lat="47.808946" lon="-2.570329">
        <ele>72.370269</ele>
        <time>2025-06-26T07:05:55.331Z</time>
      </trkpt>
      <trkpt lat="47.808890" lon="-2.570349">
        <ele>72.185274</ele>
        <time>2025-06-26T07:05:55.903Z</time>
      </trkpt>
      <trkpt lat="47.808359" lon="-2.570487">
        <ele>70.453720</ele>
        <time>2025-06-26T07:06:01.427Z</time>
      </trkpt>
      <trkpt lat="47.808157" lon="-2.570599">
        <ele>69.761292</ele>
        <time>2025-06-26T07:06:03.874Z</time>
      </trkpt>
      <trkpt lat="47.808083" lon="-2.570684">
        <ele>69.461062</ele>
        <time>2025-06-26T07:06:04.915Z</time>
      </trkpt>
      <trkpt lat="47.807987" lon="-2.570935">
        <ele>68.960717</ele>
        <time>2025-06-26T07:06:07.126Z</time>
      </trkpt>
      <trkpt lat="47.807940" lon="-2.571959">
        <ele>67.727983</ele>
        <time>2025-06-26T07:06:15.197Z</time>
      </trkpt>
      <trkpt lat="47.807910" lon="-2.572041">
        <ele>67.615833</ele>
        <time>2025-06-26T07:06:15.948Z</time>
      </trkpt>
      <trkpt lat="47.807858" lon="-2.572091">
        <ele>67.505138</ele>
        <time>2025-06-26T07:06:16.682Z</time>
      </trkpt>
      <trkpt lat="47.807651" lon="-2.572163">
        <ele>67.124997</ele>
        <time>2025-06-26T07:06:19.170Z</time>
      </trkpt>
      <trkpt lat="47.806912" lon="-2.572321">
        <ele>65.691145</ele>
        <time>2025-06-26T07:06:27.396Z</time>
      </trkpt>
      <trkpt lat="47.806595" lon="-2.572541">
        <ele>64.496863</ele>
        <time>2025-06-26T07:06:30.944Z</time>
      </trkpt>
      <trkpt lat="47.806469" lon="-2.572699">
        <ele>63.934345</ele>
        <time>2025-06-26T07:06:32.625Z</time>
      </trkpt>
      <trkpt lat="47.806412" lon="-2.572809">
        <ele>63.615708</ele>
        <time>2025-06-26T07:06:33.586Z</time>
      </trkpt>
      <trkpt lat="47.806321" lon="-2.572900">
        <ele>63.241387</ele>
        <time>2025-06-26T07:06:34.696Z</time>
      </trkpt>
      <trkpt lat="47.806160" lon="-2.572994">
        <ele>62.650858</ele>
        <time>2025-06-26T07:06:36.453Z</time>
      </trkpt>
      <trkpt lat="47.806021" lon="-2.573044">
        <ele>62.162557</ele>
        <time>2025-06-26T07:06:37.898Z</time>
      </trkpt>
      <trkpt lat="47.804948" lon="-2.573231">
        <ele>57.798908</ele>
        <time>2025-06-26T07:06:48.396Z</time>
      </trkpt>
      <trkpt lat="47.804716" lon="-2.573357">
        <ele>56.512239</ele>
        <time>2025-06-26T07:06:50.704Z</time>
      </trkpt>
      <trkpt lat="47.804656" lon="-2.573538">
        <ele>55.805893</ele>
        <time>2025-06-26T07:06:51.963Z</time>
      </trkpt>
      <trkpt lat="47.804605" lon="-2.573999">
        <ele>54.170903</ele>
        <time>2025-06-26T07:06:54.868Z</time>
      </trkpt>
      <trkpt lat="47.804510" lon="-2.574489">
        <ele>52.386155</ele>
        <time>2025-06-26T07:06:58.030Z</time>
      </trkpt>
      <trkpt lat="47.804304" lon="-2.575021">
        <ele>50.244917</ele>
        <time>2025-06-26T07:07:01.831Z</time>
      </trkpt>
      <trkpt lat="47.803657" lon="-2.576065">
        <ele>45.532450</ele>
        <time>2025-06-26T07:07:10.763Z</time>
      </trkpt>
      <trkpt lat="47.803508" lon="-2.576352">
        <ele>44.329069</ele>
        <time>2025-06-26T07:07:13.107Z</time>
      </trkpt>
      <trkpt lat="47.803407" lon="-2.576602">
        <ele>43.361228</ele>
        <time>2025-06-26T07:07:14.993Z</time>
      </trkpt>
      <trkpt lat="47.803339" lon="-2.576851">
        <ele>42.469503</ele>
        <time>2025-06-26T07:07:16.731Z</time>
      </trkpt>
      <trkpt lat="47.803270" lon="-2.577285">
        <ele>41.107298</ele>
        <time>2025-06-26T07:07:19.607Z</time>
      </trkpt>
      <trkpt lat="47.803193" lon="-2.577559">
        <ele>40.347958</ele>
        <time>2025-06-26T07:07:21.520Z</time>
      </trkpt>
      <trkpt lat="47.802744" lon="-2.578256">
        <ele>37.878952</ele>
        <time>2025-06-26T07:07:27.795Z</time>
      </trkpt>
      <trkpt lat="47.802693" lon="-2.578435">
        <ele>37.381852</ele>
        <time>2025-06-26T07:07:29.067Z</time>
      </trkpt>
      <trkpt lat="47.802681" lon="-2.578580">
        <ele>37.008343</ele>
        <time>2025-06-26T07:07:30.030Z</time>
      </trkpt>
      <trkpt lat="47.802695" lon="-2.578701">
        <ele>36.694438</ele>
        <time>2025-06-26T07:07:30.844Z</time>
      </trkpt>
      <trkpt lat="47.802737" lon="-2.578865">
        <ele>36.245714</ele>
        <time>2025-06-26T07:07:32.008Z</time>
      </trkpt>
      <trkpt lat="47.802796" lon="-2.579155">
        <ele>35.471038</ele>
        <time>2025-06-26T07:07:34.066Z</time>
      </trkpt>
      <trkpt lat="47.802807" lon="-2.579476">
        <ele>34.657392</ele>
        <time>2025-06-26T07:07:36.275Z</time>
      </trkpt>
      <trkpt lat="47.802757" lon="-2.579653">
        <ele>34.798138</ele>
        <time>2025-06-26T07:07:37.616Z</time>
      </trkpt>
      <trkpt lat="47.802632" lon="-2.579913">
        <ele>35.032504</ele>
        <time>2025-06-26T07:07:39.872Z</time>
      </trkpt>
      <trkpt lat="47.802382" lon="-2.580404">
        <ele>35.484121</ele>
        <time>2025-06-26T07:07:44.515Z</time>
      </trkpt>
      <trkpt lat="47.802294" lon="-2.580777">
        <ele>35.773903</ele>
        <time>2025-06-26T07:07:49.310Z</time>
      </trkpt>
      <trkpt lat="47.802304" lon="-2.581075">
        <ele>35.992609</ele>
        <time>2025-06-26T07:07:54.484Z</time>
      </trkpt>
      <trkpt lat="47.802396" lon="-2.581411">
        <ele>36.258573</ele>
        <time>2025-06-26T07:08:01.865Z</time>
      </trkpt>
      <trkpt lat="47.802405" lon="-2.581645">
        <ele>36.430375</ele>
        <time>2025-06-26T07:08:07.176Z</time>
      </trkpt>
      <trkpt lat="47.802344" lon="-2.581908">
        <ele>36.713144</ele>
        <time>2025-06-26T07:08:13.886Z</time>
      </trkpt>
      <trkpt lat="47.802279" lon="-2.582264">
        <ele>38.322107</ele>
        <time>2025-06-26T07:08:23.681Z</time>
      </trkpt>
      <trkpt lat="47.802264" lon="-2.582550">
        <ele>39.573237</ele>
        <time>2025-06-26T07:08:31.534Z</time>
      </trkpt>
      <trkpt lat="47.802315" lon="-2.583881">
        <ele>45.387569</ele>
        <time>2025-06-26T07:09:12.222Z</time>
      </trkpt>
      <trkpt lat="47.802355" lon="-2.584278">
        <ele>47.138376</ele>
        <time>2025-06-26T07:09:22.896Z</time>
      </trkpt>
      <trkpt lat="47.802682" lon="-2.586741">
        <ele>56.993130</ele>
        <time>2025-06-26T07:10:24.989Z</time>
      </trkpt>
      <trkpt lat="47.802690" lon="-2.587059">
        <ele>58.225784</ele>
        <time>2025-06-26T07:10:33.508Z</time>
      </trkpt>
      <trkpt lat="47.802665" lon="-2.587228">
        <ele>58.895711</ele>
        <time>2025-06-26T07:10:38.174Z</time>
      </trkpt>
      <trkpt lat="47.802611" lon="-2.587388">
        <ele>59.588120</ele>
        <time>2025-06-26T07:10:42.996Z</time>
      </trkpt>
      <trkpt lat="47.802435" lon="-2.587585">
        <ele>60.855761</ele>
        <time>2025-06-26T07:10:51.759Z</time>
      </trkpt>
      <trkpt lat="47.802321" lon="-2.587638">
        <ele>61.543308</ele>
        <time>2025-06-26T07:10:56.517Z</time>
      </trkpt>
      <trkpt lat="47.802183" lon="-2.587647">
        <ele>62.338527</ele>
        <time>2025-06-26T07:11:02.047Z</time>
      </trkpt>
      <trkpt lat="47.802061" lon="-2.587598">
        <ele>63.065983</ele>
        <time>2025-06-26T07:11:07.014Z</time>
      </trkpt>
      <trkpt lat="47.801173" lon="-2.587059">
        <ele>68.586709</ele>
        <time>2025-06-26T07:11:42.994Z</time>
      </trkpt>
      <trkpt lat="47.800949" lon="-2.587048">
        <ele>69.738343</ele>
        <time>2025-06-26T07:11:50.843Z</time>
      </trkpt>
      <trkpt lat="47.800725" lon="-2.587185">
        <ele>70.905821</ele>
        <time>2025-06-26T07:11:59.251Z</time>
      </trkpt>
      <trkpt lat="47.800091" lon="-2.587978">
        <ele>74.897909</ele>
        <time>2025-06-26T07:12:27.840Z</time>
      </trkpt>
      <trkpt lat="47.799879" lon="-2.588333">
        <ele>76.436152</ele>
        <time>2025-06-26T07:12:38.706Z</time>
      </trkpt>
      <trkpt lat="47.799727" lon="-2.588734">
        <ele>77.851412</ele>
        <time>2025-06-26T07:12:49.053Z</time>
      </trkpt>
      <trkpt lat="47.799079" lon="-2.590709">
        <ele>82.640185</ele>
        <time>2025-06-26T07:13:31.442Z</time>
      </trkpt>
      <trkpt lat="47.799017" lon="-2.590876">
        <ele>83.055902</ele>
        <time>2025-06-26T07:13:34.555Z</time>
      </trkpt>
      <trkpt lat="47.798575" lon="-2.592232">
        <ele>84.087142</ele>
        <time>2025-06-26T07:13:55.320Z</time>
      </trkpt>
      <trkpt lat="47.798099" lon="-2.593330">
        <ele>84.652296</ele>
        <time>2025-06-26T07:14:08.406Z</time>
      </trkpt>
      <trkpt lat="47.797912" lon="-2.593481">
        <ele>84.483734</ele>
        <time>2025-06-26T07:14:11.013Z</time>
      </trkpt>
      <trkpt lat="47.797654" lon="-2.593514">
        <ele>84.151061</ele>
        <time>2025-06-26T07:14:14.029Z</time>
      </trkpt>
      <trkpt lat="47.797269" lon="-2.593519">
        <ele>83.656435</ele>
        <time>2025-06-26T07:14:18.352Z</time>
      </trkpt>
      <trkpt lat="47.795729" lon="-2.593519">
        <ele>82.521018</ele>
        <time>2025-06-26T07:14:36.058Z</time>
      </trkpt>
      <trkpt lat="47.795435" lon="-2.593412">
        <ele>82.601429</ele>
        <time>2025-06-26T07:14:40.987Z</time>
      </trkpt>
      <trkpt lat="47.795330" lon="-2.593308">
        <ele>82.634936</ele>
        <time>2025-06-26T07:14:43.328Z</time>
      </trkpt>
      <trkpt lat="47.795089" lon="-2.592976">
        <ele>82.722177</ele>
        <time>2025-06-26T07:14:49.764Z</time>
      </trkpt>
      <trkpt lat="47.794939" lon="-2.592828">
        <ele>82.769988</ele>
        <time>2025-06-26T07:14:53.576Z</time>
      </trkpt>
      <trkpt lat="47.794751" lon="-2.592745">
        <ele>82.822087</ele>
        <time>2025-06-26T07:14:58.011Z</time>
      </trkpt>
      <trkpt lat="47.794540" lon="-2.592709">
        <ele>82.843808</ele>
        <time>2025-06-26T07:15:02.865Z</time>
      </trkpt>
      <trkpt lat="47.794375" lon="-2.592694">
        <ele>82.824464</ele>
        <time>2025-06-26T07:15:06.464Z</time>
      </trkpt>
      <trkpt lat="47.793021" lon="-2.592791">
        <ele>82.665841</ele>
        <time>2025-06-26T07:15:27.270Z</time>
      </trkpt>
      <trkpt lat="47.792933" lon="-2.592855">
        <ele>82.654381</ele>
        <time>2025-06-26T07:15:28.340Z</time>
      </trkpt>
      <trkpt lat="47.792910" lon="-2.592935">
        <ele>82.647540</ele>
        <time>2025-06-26T07:15:28.990Z</time>
      </trkpt>
      <trkpt lat="47.792883" lon="-2.593170">
        <ele>82.142705</ele>
        <time>2025-06-26T07:15:30.676Z</time>
      </trkpt>
      <trkpt lat="47.792840" lon="-2.593550">
        <ele>81.140550</ele>
        <time>2025-06-26T07:15:33.294Z</time>
      </trkpt>
      <trkpt lat="47.792853" lon="-2.594032">
        <ele>79.886043</ele>
        <time>2025-06-26T07:15:36.406Z</time>
      </trkpt>
      <trkpt lat="47.792825" lon="-2.594239">
        <ele>79.336912</ele>
        <time>2025-06-26T07:15:37.725Z</time>
      </trkpt>
      <trkpt lat="47.792740" lon="-2.594491">
        <ele>78.603592</ele>
        <time>2025-06-26T07:15:39.477Z</time>
      </trkpt>
      <trkpt lat="47.792683" lon="-2.594915">
        <ele>77.479068</ele>
        <time>2025-06-26T07:15:42.160Z</time>
      </trkpt>
      <trkpt lat="47.792732" lon="-2.595349">
        <ele>76.334569</ele>
        <time>2025-06-26T07:15:44.938Z</time>
      </trkpt>
      <trkpt lat="47.792734" lon="-2.595482">
        <ele>75.988600</ele>
        <time>2025-06-26T07:15:45.799Z</time>
      </trkpt>
      <trkpt lat="47.792660" lon="-2.595627">
        <ele>75.718637</ele>
        <time>2025-06-26T07:15:47.030Z</time>
      </trkpt>
      <trkpt lat="47.792595" lon="-2.595682">
        <ele>75.783583</ele>
        <time>2025-06-26T07:15:47.807Z</time>
      </trkpt>
      <trkpt lat="47.792256" lon="-2.595791">
        <ele>76.084840</ele>
        <time>2025-06-26T07:15:51.685Z</time>
      </trkpt>
      <trkpt lat="47.792212" lon="-2.596391">
        <ele>76.437058</ele>
        <time>2025-06-26T07:15:58.049Z</time>
      </trkpt>
      <trkpt lat="47.792185" lon="-2.596875">
        <ele>76.720475</ele>
        <time>2025-06-26T07:16:06.059Z</time>
      </trkpt>
      <trkpt lat="47.792170" lon="-2.598311">
        <ele>78.193701</ele>
        <time>2025-06-26T07:16:36.029Z</time>
      </trkpt>
      <trkpt lat="47.792187" lon="-2.600095">
        <ele>81.334898</ele>
        <time>2025-06-26T07:17:05.575Z</time>
      </trkpt>
      <trkpt lat="47.787986" lon="-2.601841">
        <ele>88.492469</ele>
        <time>2025-06-26T07:18:37.020Z</time>
      </trkpt>
      <trkpt lat="47.787629" lon="-2.602002">
        <ele>89.158224</ele>
        <time>2025-06-26T07:18:43.087Z</time>
      </trkpt>
      <trkpt lat="47.787415" lon="-2.602144">
        <ele>89.576394</ele>
        <time>2025-06-26T07:18:47.609Z</time>
      </trkpt>
      <trkpt lat="47.787261" lon="-2.602302">
        <ele>89.910217</ele>
        <time>2025-06-26T07:18:51.543Z</time>
      </trkpt>
      <trkpt lat="47.787038" lon="-2.602632">
        <ele>90.471457</ele>
        <time>2025-06-26T07:18:59.050Z</time>
      </trkpt>
      <trkpt lat="47.786627" lon="-2.603288">
        <ele>92.541222</ele>
        <time>2025-06-26T07:19:17.036Z</time>
      </trkpt>
      <trkpt lat="47.786447" lon="-2.603520">
        <ele>93.504466</ele>
        <time>2025-06-26T07:19:25.022Z</time>
      </trkpt>
      <trkpt lat="47.786056" lon="-2.603877">
        <ele>95.360099</ele>
        <time>2025-06-26T07:19:41.833Z</time>
      </trkpt>
      <trkpt lat="47.785955" lon="-2.604011">
        <ele>95.907446</ele>
        <time>2025-06-26T07:19:46.782Z</time>
      </trkpt>
      <trkpt lat="47.785843" lon="-2.604258">
        <ele>96.717383</ele>
        <time>2025-06-26T07:19:53.804Z</time>
      </trkpt>
      <trkpt lat="47.783723" lon="-2.609842">
        <ele>107.574739</ele>
        <time>2025-06-26T07:21:43.032Z</time>
      </trkpt>
      <trkpt lat="47.783634" lon="-2.610089">
        <ele>107.561346</ele>
        <time>2025-06-26T07:21:46.127Z</time>
      </trkpt>
      <trkpt lat="47.783380" lon="-2.610607">
        <ele>107.530703</ele>
        <time>2025-06-26T07:21:52.237Z</time>
      </trkpt>
      <trkpt lat="47.780539" lon="-2.615695">
        <ele>101.329250</ele>
        <time>2025-06-26T07:22:42.622Z</time>
      </trkpt>
      <trkpt lat="47.780367" lon="-2.616085">
        <ele>100.782150</ele>
        <time>2025-06-26T07:22:46.065Z</time>
      </trkpt>
      <trkpt lat="47.779744" lon="-2.617312">
        <ele>98.978526</ele>
        <time>2025-06-26T07:22:57.245Z</time>
      </trkpt>
      <trkpt lat="47.779079" lon="-2.618047">
        <ele>97.751746</ele>
        <time>2025-06-26T07:23:07.318Z</time>
      </trkpt>
      <trkpt lat="47.778409" lon="-2.618723">
        <ele>96.750323</ele>
        <time>2025-06-26T07:23:18.292Z</time>
      </trkpt>
      <trkpt lat="47.778327" lon="-2.618947">
        <ele>96.538264</ele>
        <time>2025-06-26T07:23:20.407Z</time>
      </trkpt>
      <trkpt lat="47.778269" lon="-2.619523">
        <ele>96.043374</ele>
        <time>2025-06-26T07:23:24.973Z</time>
      </trkpt>
      <trkpt lat="47.778174" lon="-2.622253">
        <ele>89.397254</ele>
        <time>2025-06-26T07:23:42.880Z</time>
      </trkpt>
      <trkpt lat="47.778030" lon="-2.624569">
        <ele>83.811176</ele>
        <time>2025-06-26T07:23:58.422Z</time>
      </trkpt>
      <trkpt lat="47.777947" lon="-2.625105">
        <ele>82.901762</ele>
        <time>2025-06-26T07:24:02.143Z</time>
      </trkpt>
      <trkpt lat="47.777864" lon="-2.625386">
        <ele>82.644629</ele>
        <time>2025-06-26T07:24:04.248Z</time>
      </trkpt>
      <trkpt lat="47.777573" lon="-2.626172">
        <ele>81.892869</ele>
        <time>2025-06-26T07:24:10.741Z</time>
      </trkpt>
      <trkpt lat="47.777473" lon="-2.626462">
        <ele>81.619814</ele>
        <time>2025-06-26T07:24:13.325Z</time>
      </trkpt>
      <trkpt lat="47.777271" lon="-2.627108">
        <ele>81.022929</ele>
        <time>2025-06-26T07:24:20.351Z</time>
      </trkpt>
      <trkpt lat="47.777138" lon="-2.627834">
        <ele>82.418576</ele>
        <time>2025-06-26T07:24:32.020Z</time>
      </trkpt>
      <trkpt lat="47.777099" lon="-2.628200">
        <ele>83.398223</ele>
        <time>2025-06-26T07:24:39.409Z</time>
      </trkpt>
      <trkpt lat="47.777088" lon="-2.628592">
        <ele>84.435420</ele>
        <time>2025-06-26T07:24:48.078Z</time>
      </trkpt>
      <trkpt lat="47.777115" lon="-2.629605">
        <ele>87.115497</ele>
        <time>2025-06-26T07:25:11.877Z</time>
      </trkpt>
      <trkpt lat="47.777116" lon="-2.629679">
        <ele>87.311163</ele>
        <time>2025-06-26T07:25:13.764Z</time>
      </trkpt>
      <trkpt lat="47.777124" lon="-2.630173">
        <ele>88.867615</ele>
        <time>2025-06-26T07:25:26.033Z</time>
      </trkpt>
      <trkpt lat="47.777075" lon="-2.630941">
        <ele>91.677808</ele>
        <time>2025-06-26T07:25:45.347Z</time>
      </trkpt>
      <trkpt lat="47.776587" lon="-2.633510">
        <ele>100.766902</ele>
        <time>2025-06-26T07:26:50.764Z</time>
      </trkpt>
      <trkpt lat="47.776572" lon="-2.633782">
        <ele>101.590109</ele>
        <time>2025-06-26T07:26:56.916Z</time>
      </trkpt>
      <trkpt lat="47.776596" lon="-2.634414">
        <ele>103.499487</ele>
        <time>2025-06-26T07:27:10.316Z</time>
      </trkpt>
      <trkpt lat="47.776671" lon="-2.634928">
        <ele>105.086018</ele>
        <time>2025-06-26T07:27:20.776Z</time>
      </trkpt>
      <trkpt lat="47.776673" lon="-2.635174">
        <ele>105.816527</ele>
        <time>2025-06-26T07:27:25.495Z</time>
      </trkpt>
      <trkpt lat="47.776548" lon="-2.635711">
        <ele>107.130852</ele>
        <time>2025-06-26T07:27:35.981Z</time>
      </trkpt>
      <trkpt lat="47.776511" lon="-2.635983">
        <ele>107.772671</ele>
        <time>2025-06-26T07:27:41.109Z</time>
      </trkpt>
      <trkpt lat="47.776502" lon="-2.636552">
        <ele>109.088977</ele>
        <time>2025-06-26T07:27:51.982Z</time>
      </trkpt>
      <trkpt lat="47.776544" lon="-2.636731">
        <ele>109.527463</ele>
        <time>2025-06-26T07:27:55.708Z</time>
      </trkpt>
      <trkpt lat="47.776680" lon="-2.637073">
        <ele>110.446517</ele>
        <time>2025-06-26T07:28:03.525Z</time>
      </trkpt>
      <trkpt lat="47.776709" lon="-2.637230">
        <ele>110.823080</ele>
        <time>2025-06-26T07:28:06.747Z</time>
      </trkpt>
      <trkpt lat="47.776738" lon="-2.638084">
        <ele>112.561240</ele>
        <time>2025-06-26T07:28:23.510Z</time>
      </trkpt>
      <trkpt lat="47.776719" lon="-2.638533">
        <ele>113.302383</ele>
        <time>2025-06-26T07:28:31.939Z</time>
      </trkpt>
      <trkpt lat="47.776631" lon="-2.639156">
        <ele>114.351134</ele>
        <time>2025-06-26T07:28:43.083Z</time>
      </trkpt>
      <trkpt lat="47.776559" lon="-2.639608">
        <ele>115.116388</ele>
        <time>2025-06-26T07:28:50.419Z</time>
      </trkpt>
      <trkpt lat="47.776544" lon="-2.639842">
        <ele>115.503629</ele>
        <time>2025-06-26T07:28:53.832Z</time>
      </trkpt>
      <trkpt lat="47.776557" lon="-2.640070">
        <ele>115.880584</ele>
        <time>2025-06-26T07:28:57.061Z</time>
      </trkpt>
      <trkpt lat="47.776602" lon="-2.640304">
        <ele>116.281548</ele>
        <time>2025-06-26T07:29:00.398Z</time>
      </trkpt>
      <trkpt lat="47.776883" lon="-2.641152">
        <ele>116.215109</ele>
        <time>2025-06-26T07:29:12.346Z</time>
      </trkpt>
      <trkpt lat="47.776996" lon="-2.641873">
        <ele>116.079508</ele>
        <time>2025-06-26T07:29:19.822Z</time>
      </trkpt>
      <trkpt lat="47.777023" lon="-2.642194">
        <ele>116.020256</ele>
        <time>2025-06-26T07:29:22.739Z</time>
      </trkpt>
      <trkpt lat="47.776992" lon="-2.646472">
        <ele>109.303967</ele>
        <time>2025-06-26T07:29:53.652Z</time>
      </trkpt>
      <trkpt lat="47.776924" lon="-2.649270">
        <ele>102.510536</ele>
        <time>2025-06-26T07:30:11.277Z</time>
      </trkpt>
      <trkpt lat="47.776901" lon="-2.650297">
        <ele>100.742820</ele>
        <time>2025-06-26T07:30:18.296Z</time>
      </trkpt>
      <trkpt lat="47.776897" lon="-2.650466">
        <ele>100.451912</ele>
        <time>2025-06-26T07:30:19.713Z</time>
      </trkpt>
      <trkpt lat="47.776876" lon="-2.651324">
        <ele>100.586142</ele>
        <time>2025-06-26T07:30:30.956Z</time>
      </trkpt>
      <trkpt lat="47.776801" lon="-2.652629">
        <ele>103.909329</ele>
        <time>2025-06-26T07:31:02.198Z</time>
      </trkpt>
      <trkpt lat="47.776720" lon="-2.653392">
        <ele>105.869253</ele>
        <time>2025-06-26T07:31:20.882Z</time>
      </trkpt>
      <trkpt lat="47.776730" lon="-2.653679">
        <ele>106.452310</ele>
        <time>2025-06-26T07:31:26.924Z</time>
      </trkpt>
      <trkpt lat="47.776766" lon="-2.654056">
        <ele>106.641171</ele>
        <time>2025-06-26T07:31:34.017Z</time>
      </trkpt>
      <trkpt lat="47.776953" lon="-2.655238">
        <ele>107.243439</ele>
        <time>2025-06-26T07:31:49.314Z</time>
      </trkpt>
      <trkpt lat="47.777196" lon="-2.657881">
        <ele>105.737129</ele>
        <time>2025-06-26T07:32:09.886Z</time>
      </trkpt>
      <trkpt lat="47.777366" lon="-2.659723">
        <ele>102.600633</ele>
        <time>2025-06-26T07:32:23.372Z</time>
      </trkpt>
      <trkpt lat="47.777335" lon="-2.663201">
        <ele>95.928709</ele>
        <time>2025-06-26T07:32:46.231Z</time>
      </trkpt>
      <trkpt lat="47.777330" lon="-2.663430">
        <ele>95.577799</ele>
        <time>2025-06-26T07:32:47.947Z</time>
      </trkpt>
      <trkpt lat="47.777314" lon="-2.663724">
        <ele>95.126049</ele>
        <time>2025-06-26T07:32:50.346Z</time>
      </trkpt>
      <trkpt lat="47.777225" lon="-2.664364">
        <ele>94.704679</ele>
        <time>2025-06-26T07:32:57.421Z</time>
      </trkpt>
      <trkpt lat="47.777136" lon="-2.664686">
        <ele>95.576945</ele>
        <time>2025-06-26T07:33:02.657Z</time>
      </trkpt>
      <trkpt lat="47.776775" lon="-2.665715">
        <ele>98.485034</ele>
        <time>2025-06-26T07:33:27.818Z</time>
      </trkpt>
      <trkpt lat="47.776667" lon="-2.666138">
        <ele>99.618682</ele>
        <time>2025-06-26T07:33:39.114Z</time>
      </trkpt>
      <trkpt lat="47.776538" lon="-2.666939">
        <ele>101.527140</ele>
        <time>2025-06-26T07:33:59.184Z</time>
      </trkpt>
      <trkpt lat="47.776523" lon="-2.667158">
        <ele>101.943273</ele>
        <time>2025-06-26T07:34:04.307Z</time>
      </trkpt>
      <trkpt lat="47.776626" lon="-2.668624">
        <ele>104.729638</ele>
        <time>2025-06-26T07:34:32.164Z</time>
      </trkpt>
      <trkpt lat="47.776650" lon="-2.669811">
        <ele>105.768821</ele>
        <time>2025-06-26T07:34:45.243Z</time>
      </trkpt>
      <trkpt lat="47.776624" lon="-2.670421">
        <ele>105.313220</ele>
        <time>2025-06-26T07:34:50.254Z</time>
      </trkpt>
      <trkpt lat="47.776733" lon="-2.671690">
        <ele>104.359627</ele>
        <time>2025-06-26T07:34:59.951Z</time>
      </trkpt>
      <trkpt lat="47.776707" lon="-2.672875">
        <ele>102.450232</ele>
        <time>2025-06-26T07:35:08.586Z</time>
      </trkpt>
      <trkpt lat="47.776684" lon="-2.673358">
        <ele>101.509915</ele>
        <time>2025-06-26T07:35:12.024Z</time>
      </trkpt>
      <trkpt lat="47.776667" lon="-2.674089">
        <ele>100.089495</ele>
        <time>2025-06-26T07:35:17.033Z</time>
      </trkpt>
      <trkpt lat="47.776646" lon="-2.674439">
        <ele>99.407107</ele>
        <time>2025-06-26T07:35:19.368Z</time>
      </trkpt>
      <trkpt lat="47.776615" lon="-2.674591">
        <ele>99.098635</ele>
        <time>2025-06-26T07:35:20.426Z</time>
      </trkpt>
      <trkpt lat="47.776528" lon="-2.675013">
        <ele>97.981315</ele>
        <time>2025-06-26T07:35:23.322Z</time>
      </trkpt>
      <trkpt lat="47.776419" lon="-2.675757">
        <ele>95.933360</ele>
        <time>2025-06-26T07:35:28.268Z</time>
      </trkpt>
      <trkpt lat="47.776454" lon="-2.676170">
        <ele>94.813815</ele>
        <time>2025-06-26T07:35:30.974Z</time>
      </trkpt>
      <trkpt lat="47.776520" lon="-2.676331">
        <ele>94.306609</ele>
        <time>2025-06-26T07:35:32.201Z</time>
      </trkpt>
      <trkpt lat="47.776770" lon="-2.676750">
        <ele>92.799668</ele>
        <time>2025-06-26T07:35:35.860Z</time>
      </trkpt>
      <trkpt lat="47.776826" lon="-2.676884">
        <ele>92.375280</ele>
        <time>2025-06-26T07:35:36.897Z</time>
      </trkpt>
      <trkpt lat="47.776884" lon="-2.677311">
        <ele>91.273615</ele>
        <time>2025-06-26T07:35:39.788Z</time>
      </trkpt>
      <trkpt lat="47.776979" lon="-2.678610">
        <ele>88.236419</ele>
        <time>2025-06-26T07:35:48.487Z</time>
      </trkpt>
      <trkpt lat="47.776969" lon="-2.679249">
        <ele>86.750740</ele>
        <time>2025-06-26T07:35:52.763Z</time>
      </trkpt>
      <trkpt lat="47.776891" lon="-2.680363">
        <ele>84.913964</ele>
        <time>2025-06-26T07:36:00.512Z</time>
      </trkpt>
      <trkpt lat="47.776887" lon="-2.680429">
        <ele>84.847369</ele>
        <time>2025-06-26T07:36:01.000Z</time>
      </trkpt>
      <trkpt lat="47.776780" lon="-2.681759">
        <ele>83.501249</ele>
        <time>2025-06-26T07:36:11.657Z</time>
      </trkpt>
      <trkpt lat="47.776758" lon="-2.682058">
        <ele>83.198975</ele>
        <time>2025-06-26T07:36:14.121Z</time>
      </trkpt>
      <trkpt lat="47.776754" lon="-2.682419">
        <ele>82.836141</ele>
        <time>2025-06-26T07:36:17.159Z</time>
      </trkpt>
      <trkpt lat="47.776761" lon="-2.682483">
        <ele>82.857281</ele>
        <time>2025-06-26T07:36:17.722Z</time>
      </trkpt>
      <trkpt lat="47.776778" lon="-2.682546">
        <ele>82.947517</ele>
        <time>2025-06-26T07:36:18.306Z</time>
      </trkpt>
      <trkpt lat="47.776800" lon="-2.682627">
        <ele>83.063640</ele>
        <time>2025-06-26T07:36:19.049Z</time>
      </trkpt>
      <trkpt lat="47.776782" lon="-2.682710">
        <ele>83.179563</ele>
        <time>2025-06-26T07:36:19.838Z</time>
      </trkpt>
      <trkpt lat="47.776760" lon="-2.682740">
        <ele>83.238583</ele>
        <time>2025-06-26T07:36:20.254Z</time>
      </trkpt>
      <trkpt lat="47.776738" lon="-2.682826">
        <ele>83.360893</ele>
        <time>2025-06-26T07:36:21.115Z</time>
      </trkpt>
      <trkpt lat="47.776738" lon="-2.683030">
        <ele>83.632043</ele>
        <time>2025-06-26T07:36:23.233Z</time>
      </trkpt>
      <trkpt lat="47.776793" lon="-2.683465">
        <ele>84.220375</ele>
        <time>2025-06-26T07:36:28.673Z</time>
      </trkpt>
      <trkpt lat="47.776957" lon="-2.684056">
        <ele>85.070247</ele>
        <time>2025-06-26T07:36:38.049Z</time>
      </trkpt>
      <trkpt lat="47.776989" lon="-2.684180">
        <ele>85.246798</ele>
        <time>2025-06-26T07:36:40.066Z</time>
      </trkpt>
      <trkpt lat="47.777414" lon="-2.685726">
        <ele>89.376608</ele>
        <time>2025-06-26T07:37:17.207Z</time>
      </trkpt>
      <trkpt lat="47.777450" lon="-2.685858">
        <ele>89.894264</ele>
        <time>2025-06-26T07:37:21.045Z</time>
      </trkpt>
      <trkpt lat="47.777506" lon="-2.686070">
        <ele>90.722004</ele>
        <time>2025-06-26T07:37:27.167Z</time>
      </trkpt>
      <trkpt lat="47.777516" lon="-2.686107">
        <ele>90.866920</ele>
        <time>2025-06-26T07:37:28.262Z</time>
      </trkpt>
      <trkpt lat="47.777911" lon="-2.687530">
        <ele>96.405100</ele>
        <time>2025-06-26T07:38:08.642Z</time>
      </trkpt>
      <trkpt lat="47.777968" lon="-2.687772">
        <ele>97.194802</ele>
        <time>2025-06-26T07:38:14.750Z</time>
      </trkpt>
      <trkpt lat="47.778026" lon="-2.688194">
        <ele>98.521272</ele>
        <time>2025-06-26T07:38:24.685Z</time>
      </trkpt>
      <trkpt lat="47.778069" lon="-2.688757">
        <ele>100.266216</ele>
        <time>2025-06-26T07:38:37.212Z</time>
      </trkpt>
      <trkpt lat="47.778171" lon="-2.689343">
        <ele>102.130380</ele>
        <time>2025-06-26T07:38:50.236Z</time>
      </trkpt>
      <trkpt lat="47.778355" lon="-2.690036">
        <ele>104.382026</ele>
        <time>2025-06-26T07:39:05.619Z</time>
      </trkpt>
      <trkpt lat="47.778409" lon="-2.690170">
        <ele>104.635965</ele>
        <time>2025-06-26T07:39:08.790Z</time>
      </trkpt>
      <trkpt lat="47.778479" lon="-2.690204">
        <ele>104.814049</ele>
        <time>2025-06-26T07:39:11.006Z</time>
      </trkpt>
      <trkpt lat="47.778502" lon="-2.690277">
        <ele>104.945084</ele>
        <time>2025-06-26T07:39:12.607Z</time>
      </trkpt>
      <trkpt lat="47.778489" lon="-2.690354">
        <ele>105.074115</ele>
        <time>2025-06-26T07:39:14.192Z</time>
      </trkpt>
      <trkpt lat="47.778740" lon="-2.690723">
        <ele>105.927432</ele>
        <time>2025-06-26T07:39:24.282Z</time>
      </trkpt>
      <trkpt lat="47.778804" lon="-2.690924">
        <ele>106.288916</ele>
        <time>2025-06-26T07:39:28.335Z</time>
      </trkpt>
      <trkpt lat="47.778884" lon="-2.691176">
        <ele>106.741872</ele>
        <time>2025-06-26T07:39:33.105Z</time>
      </trkpt>
      <trkpt lat="47.778954" lon="-2.691551">
        <ele>107.374404</ele>
        <time>2025-06-26T07:39:39.403Z</time>
      </trkpt>
      <trkpt lat="47.778965" lon="-2.691716">
        <ele>107.643881</ele>
        <time>2025-06-26T07:39:41.820Z</time>
      </trkpt>
      <trkpt lat="47.778962" lon="-2.691849">
        <ele>107.860156</ele>
        <time>2025-06-26T07:39:43.656Z</time>
      </trkpt>
      <trkpt lat="47.778933" lon="-2.691944">
        <ele>108.029734</ele>
        <time>2025-06-26T07:39:45.051Z</time>
      </trkpt>
      <trkpt lat="47.778881" lon="-2.692025">
        <ele>108.211794</ele>
        <time>2025-06-26T07:39:46.460Z</time>
      </trkpt>
      <trkpt lat="47.778772" lon="-2.692226">
        <ele>108.631563</ele>
        <time>2025-06-26T07:39:49.490Z</time>
      </trkpt>
      <trkpt lat="47.778728" lon="-2.692398">
        <ele>108.685775</ele>
        <time>2025-06-26T07:39:51.476Z</time>
      </trkpt>
      <trkpt lat="47.778665" lon="-2.692643">
        <ele>108.688878</ele>
        <time>2025-06-26T07:39:54.037Z</time>
      </trkpt>
      <trkpt lat="47.778665" lon="-2.692992">
        <ele>108.693006</ele>
        <time>2025-06-26T07:39:57.359Z</time>
      </trkpt>
      <trkpt lat="47.778679" lon="-2.693230">
        <ele>108.695832</ele>
        <time>2025-06-26T07:39:59.531Z</time>
      </trkpt>
      <trkpt lat="47.778759" lon="-2.693708">
        <ele>108.701659</ele>
        <time>2025-06-26T07:40:04.196Z</time>
      </trkpt>
      <trkpt lat="47.778822" lon="-2.693911">
        <ele>108.704305</ele>
        <time>2025-06-26T07:40:06.383Z</time>
      </trkpt>
      <trkpt lat="47.778906" lon="-2.694146">
        <ele>108.707453</ele>
        <time>2025-06-26T07:40:08.996Z</time>
      </trkpt>
      <trkpt lat="47.779096" lon="-2.694636">
        <ele>108.714145</ele>
        <time>2025-06-26T07:40:14.584Z</time>
      </trkpt>
      <trkpt lat="47.779275" lon="-2.695204">
        <ele>108.041861</ele>
        <time>2025-06-26T07:40:20.659Z</time>
      </trkpt>
      <trkpt lat="47.779340" lon="-2.695565">
        <ele>107.539151</ele>
        <time>2025-06-26T07:40:24.100Z</time>
      </trkpt>
      <trkpt lat="47.779347" lon="-2.696013">
        <ele>106.936384</ele>
        <time>2025-06-26T07:40:27.846Z</time>
      </trkpt>
      <trkpt lat="47.779348" lon="-2.696740">
        <ele>105.958495</ele>
        <time>2025-06-26T07:40:33.026Z</time>
      </trkpt>
      <trkpt lat="47.779344" lon="-2.696890">
        <ele>105.756572</ele>
        <time>2025-06-26T07:40:34.023Z</time>
      </trkpt>
      <trkpt lat="47.779328" lon="-2.697847">
        <ele>103.424788</ele>
        <time>2025-06-26T07:40:40.169Z</time>
      </trkpt>
      <trkpt lat="47.779267" lon="-2.698145">
        <ele>102.328952</ele>
        <time>2025-06-26T07:40:42.127Z</time>
      </trkpt>
      <trkpt lat="47.779166" lon="-2.698430">
        <ele>101.195529</ele>
        <time>2025-06-26T07:40:44.138Z</time>
      </trkpt>
      <trkpt lat="47.778957" lon="-2.698823">
        <ele>99.432516</ele>
        <time>2025-06-26T07:40:47.241Z</time>
      </trkpt>
      <trkpt lat="47.778788" lon="-2.699196">
        <ele>97.850013</ele>
        <time>2025-06-26T07:40:50.022Z</time>
      </trkpt>
      <trkpt lat="47.778615" lon="-2.699669">
        <ele>95.955625</ele>
        <time>2025-06-26T07:40:53.366Z</time>
      </trkpt>
      <trkpt lat="47.778190" lon="-2.701013">
        <ele>92.110094</ele>
        <time>2025-06-26T07:41:02.864Z</time>
      </trkpt>
      <trkpt lat="47.778057" lon="-2.701413">
        <ele>90.976019</ele>
        <time>2025-06-26T07:41:05.862Z</time>
      </trkpt>
      <trkpt lat="47.777952" lon="-2.701971">
        <ele>89.503516</ele>
        <time>2025-06-26T07:41:09.914Z</time>
      </trkpt>
      <trkpt lat="47.777839" lon="-2.702888">
        <ele>88.328067</ele>
        <time>2025-06-26T07:41:17.070Z</time>
      </trkpt>
      <trkpt lat="47.777841" lon="-2.703333">
        <ele>87.962461</ele>
        <time>2025-06-26T07:41:20.820Z</time>
      </trkpt>
      <trkpt lat="47.777899" lon="-2.704120">
        <ele>87.312010</ele>
        <time>2025-06-26T07:41:27.836Z</time>
      </trkpt>
      <trkpt lat="47.778025" lon="-2.704757">
        <ele>86.766472</ele>
        <time>2025-06-26T07:41:33.307Z</time>
      </trkpt>
      <trkpt lat="47.778161" lon="-2.705328">
        <ele>85.959522</ele>
        <time>2025-06-26T07:41:37.944Z</time>
      </trkpt>
      <trkpt lat="47.778239" lon="-2.705977">
        <ele>85.028907</ele>
        <time>2025-06-26T07:41:42.755Z</time>
      </trkpt>
      <trkpt lat="47.778271" lon="-2.706495">
        <ele>84.294654</ele>
        <time>2025-06-26T07:41:46.413Z</time>
      </trkpt>
      <trkpt lat="47.778235" lon="-2.707854">
        <ele>82.654368</ele>
        <time>2025-06-26T07:41:56.053Z</time>
      </trkpt>
      <trkpt lat="47.778146" lon="-2.708339">
        <ele>82.307615</ele>
        <time>2025-06-26T07:41:59.983Z</time>
      </trkpt>
      <trkpt lat="47.777992" lon="-2.708844">
        <ele>81.925129</ele>
        <time>2025-06-26T07:42:04.720Z</time>
      </trkpt>
      <trkpt lat="47.777615" lon="-2.709883">
        <ele>81.110733</ele>
        <time>2025-06-26T07:42:16.352Z</time>
      </trkpt>
      <trkpt lat="47.777452" lon="-2.710717">
        <ele>80.055617</ele>
        <time>2025-06-26T07:42:23.611Z</time>
      </trkpt>
      <trkpt lat="47.777242" lon="-2.711255">
        <ele>79.279316</ele>
        <time>2025-06-26T07:42:28.154Z</time>
      </trkpt>
      <trkpt lat="47.776758" lon="-2.712289">
        <ele>77.731333</ele>
        <time>2025-06-26T07:42:36.920Z</time>
      </trkpt>
      <trkpt lat="47.776535" lon="-2.712982">
        <ele>77.581631</ele>
        <time>2025-06-26T07:42:42.488Z</time>
      </trkpt>
      <trkpt lat="47.776511" lon="-2.713064">
        <ele>77.564205</ele>
        <time>2025-06-26T07:42:43.192Z</time>
      </trkpt>
      <trkpt lat="47.776421" lon="-2.713382">
        <ele>77.496977</ele>
        <time>2025-06-26T07:42:46.085Z</time>
      </trkpt>
      <trkpt lat="47.776336" lon="-2.713573">
        <ele>77.452343</ele>
        <time>2025-06-26T07:42:48.287Z</time>
      </trkpt>
      <trkpt lat="47.776204" lon="-2.714276">
        <ele>77.310127</ele>
        <time>2025-06-26T07:42:57.233Z</time>
      </trkpt>
      <trkpt lat="47.776116" lon="-2.715100">
        <ele>77.522978</ele>
        <time>2025-06-26T07:43:09.737Z</time>
      </trkpt>
      <trkpt lat="47.776124" lon="-2.715549">
        <ele>77.927328</ele>
        <time>2025-06-26T07:43:16.584Z</time>
      </trkpt>
      <trkpt lat="47.776251" lon="-2.716431">
        <ele>78.739360</ele>
        <time>2025-06-26T07:43:29.340Z</time>
      </trkpt>
      <trkpt lat="47.776270" lon="-2.716772">
        <ele>79.047395</ele>
        <time>2025-06-26T07:43:33.826Z</time>
      </trkpt>
      <trkpt lat="47.776241" lon="-2.716978">
        <ele>79.236869</ele>
        <time>2025-06-26T07:43:36.476Z</time>
      </trkpt>
      <trkpt lat="47.776165" lon="-2.717173">
        <ele>79.439801</ele>
        <time>2025-06-26T07:43:39.258Z</time>
      </trkpt>
      <trkpt lat="47.775699" lon="-2.717874">
        <ele>80.046949</ele>
        <time>2025-06-26T07:43:50.709Z</time>
      </trkpt>
      <trkpt lat="47.775418" lon="-2.718617">
        <ele>80.508511</ele>
        <time>2025-06-26T07:44:00.340Z</time>
      </trkpt>
      <trkpt lat="47.774945" lon="-2.719422">
        <ele>81.097376</ele>
        <time>2025-06-26T07:44:13.675Z</time>
      </trkpt>
      <trkpt lat="47.774933" lon="-2.719438">
        <ele>81.119176</ele>
        <time>2025-06-26T07:44:13.982Z</time>
      </trkpt>
      <trkpt lat="47.772906" lon="-2.721516">
        <ele>84.392635</ele>
        <time>2025-06-26T07:45:04.587Z</time>
      </trkpt>
      <trkpt lat="47.772614" lon="-2.721949">
        <ele>84.916728</ele>
        <time>2025-06-26T07:45:12.743Z</time>
      </trkpt>
      <trkpt lat="47.772041" lon="-2.723023">
        <ele>86.072100</ele>
        <time>2025-06-26T07:45:30.196Z</time>
      </trkpt>
      <trkpt lat="47.771580" lon="-2.724154">
        <ele>87.140099</ele>
        <time>2025-06-26T07:45:48.673Z</time>
      </trkpt>
      <trkpt lat="47.771062" lon="-2.725465">
        <ele>87.365984</ele>
        <time>2025-06-26T07:46:08.903Z</time>
      </trkpt>
      <trkpt lat="47.770652" lon="-2.726484">
        <ele>86.005587</ele>
        <time>2025-06-26T07:46:18.561Z</time>
      </trkpt>
      <trkpt lat="47.770451" lon="-2.726870">
        <ele>85.446260</ele>
        <time>2025-06-26T07:46:21.827Z</time>
      </trkpt>
      <trkpt lat="47.770315" lon="-2.727129">
        <ele>85.069774</ele>
        <time>2025-06-26T07:46:23.952Z</time>
      </trkpt>
      <trkpt lat="47.769733" lon="-2.727950">
        <ele>82.673525</ele>
        <time>2025-06-26T07:46:31.559Z</time>
      </trkpt>
      <trkpt lat="47.769398" lon="-2.728364">
        <ele>81.286770</ele>
        <time>2025-06-26T07:46:35.791Z</time>
      </trkpt>
      <trkpt lat="47.769049" lon="-2.728758">
        <ele>79.891716</ele>
        <time>2025-06-26T07:46:40.431Z</time>
      </trkpt>
      <trkpt lat="47.768577" lon="-2.729203">
        <ele>79.446734</ele>
        <time>2025-06-26T07:46:47.748Z</time>
      </trkpt>
      <trkpt lat="47.766842" lon="-2.730974">
        <ele>81.303678</ele>
        <time>2025-06-26T07:47:31.417Z</time>
      </trkpt>
      <trkpt lat="47.766487" lon="-2.731344">
        <ele>81.700172</ele>
        <time>2025-06-26T07:47:39.721Z</time>
      </trkpt>
      <trkpt lat="47.766336" lon="-2.731625">
        <ele>81.921373</ele>
        <time>2025-06-26T07:47:44.006Z</time>
      </trkpt>
      <trkpt lat="47.766160" lon="-2.732097">
        <ele>82.253251</ele>
        <time>2025-06-26T07:47:49.998Z</time>
      </trkpt>
      <trkpt lat="47.765588" lon="-2.733519">
        <ele>82.385872</ele>
        <time>2025-06-26T07:48:06.347Z</time>
      </trkpt>
      <trkpt lat="47.765455" lon="-2.733730">
        <ele>82.389308</ele>
        <time>2025-06-26T07:48:09.176Z</time>
      </trkpt>
      <trkpt lat="47.765301" lon="-2.733840">
        <ele>82.392326</ele>
        <time>2025-06-26T07:48:11.689Z</time>
      </trkpt>
      <trkpt lat="47.764810" lon="-2.734043">
        <ele>82.394179</ele>
        <time>2025-06-26T07:48:19.345Z</time>
      </trkpt>
      <trkpt lat="47.764547" lon="-2.734264">
        <ele>82.365882</ele>
        <time>2025-06-26T07:48:23.896Z</time>
      </trkpt>
      <trkpt lat="47.764166" lon="-2.734881">
        <ele>82.313123</ele>
        <time>2025-06-26T07:48:32.180Z</time>
      </trkpt>
      <trkpt lat="47.763815" lon="-2.735603">
        <ele>82.257013</ele>
        <time>2025-06-26T07:48:40.557Z</time>
      </trkpt>
      <trkpt lat="47.763660" lon="-2.735764">
        <ele>82.239303</ele>
        <time>2025-06-26T07:48:43.205Z</time>
      </trkpt>
      <trkpt lat="47.763625" lon="-2.735943">
        <ele>82.230512</ele>
        <time>2025-06-26T07:48:44.957Z</time>
      </trkpt>
      <trkpt lat="47.763647" lon="-2.736063">
        <ele>82.228268</ele>
        <time>2025-06-26T07:48:46.134Z</time>
      </trkpt>
      <trkpt lat="47.763645" lon="-2.736238">
        <ele>82.225111</ele>
        <time>2025-06-26T07:48:47.794Z</time>
      </trkpt>
      <trkpt lat="47.763502" lon="-2.736547">
        <ele>82.218344</ele>
        <time>2025-06-26T07:48:51.409Z</time>
      </trkpt>
      <trkpt lat="47.762747" lon="-2.738983">
        <ele>82.276686</ele>
        <time>2025-06-26T07:49:18.243Z</time>
      </trkpt>
      <trkpt lat="47.762334" lon="-2.740273">
        <ele>82.455101</ele>
        <time>2025-06-26T07:49:33.968Z</time>
      </trkpt>
      <trkpt lat="47.762121" lon="-2.740924">
        <ele>82.392978</ele>
        <time>2025-06-26T07:49:41.506Z</time>
      </trkpt>
      <trkpt lat="47.762057" lon="-2.741411">
        <ele>82.117028</ele>
        <time>2025-06-26T07:49:46.550Z</time>
      </trkpt>
      <trkpt lat="47.762028" lon="-2.741678">
        <ele>81.966623</ele>
        <time>2025-06-26T07:49:49.239Z</time>
      </trkpt>
      <trkpt lat="47.761943" lon="-2.742563">
        <ele>81.469472</ele>
        <time>2025-06-26T07:49:56.826Z</time>
      </trkpt>
      <trkpt lat="47.761786" lon="-2.743345">
        <ele>80.999923</ele>
        <time>2025-06-26T07:50:02.814Z</time>
      </trkpt>
      <trkpt lat="47.761636" lon="-2.743997">
        <ele>80.185549</ele>
        <time>2025-06-26T07:50:07.871Z</time>
      </trkpt>
      <trkpt lat="47.761564" lon="-2.744504">
        <ele>79.573178</ele>
        <time>2025-06-26T07:50:11.730Z</time>
      </trkpt>
      <trkpt lat="47.761501" lon="-2.744967">
        <ele>79.014931</ele>
        <time>2025-06-26T07:50:15.256Z</time>
      </trkpt>
      <trkpt lat="47.761457" lon="-2.745949">
        <ele>77.861918</ele>
        <time>2025-06-26T07:50:22.782Z</time>
      </trkpt>
      <trkpt lat="47.761274" lon="-2.746936">
        <ele>77.426031</ele>
        <time>2025-06-26T07:50:31.134Z</time>
      </trkpt>
      <trkpt lat="47.761064" lon="-2.747912">
        <ele>76.989750</ele>
        <time>2025-06-26T07:50:40.257Z</time>
      </trkpt>
      <trkpt lat="47.760689" lon="-2.749718">
        <ele>76.609356</ele>
        <time>2025-06-26T07:50:59.148Z</time>
      </trkpt>
      <trkpt lat="47.760553" lon="-2.750626">
        <ele>76.522558</ele>
        <time>2025-06-26T07:51:07.615Z</time>
      </trkpt>
      <trkpt lat="47.760464" lon="-2.751101">
        <ele>76.490539</ele>
        <time>2025-06-26T07:51:12.033Z</time>
      </trkpt>
      <trkpt lat="47.760039" lon="-2.753116">
        <ele>77.515918</ele>
        <time>2025-06-26T07:51:35.458Z</time>
      </trkpt>
      <trkpt lat="47.759987" lon="-2.755065">
        <ele>80.013945</ele>
        <time>2025-06-26T07:52:05.987Z</time>
      </trkpt>
      <trkpt lat="47.759732" lon="-2.756731">
        <ele>82.691840</ele>
        <time>2025-06-26T07:52:36.047Z</time>
      </trkpt>
      <trkpt lat="47.759693" lon="-2.756881">
        <ele>82.935876</ele>
        <time>2025-06-26T07:52:38.834Z</time>
      </trkpt>
      <trkpt lat="47.759583" lon="-2.757018">
        <ele>83.259699</ele>
        <time>2025-06-26T07:52:42.461Z</time>
      </trkpt>
      <trkpt lat="47.759633" lon="-2.757320">
        <ele>83.731638</ele>
        <time>2025-06-26T07:52:47.604Z</time>
      </trkpt>
      <trkpt lat="47.759631" lon="-2.757475">
        <ele>83.966873</ele>
        <time>2025-06-26T07:52:50.151Z</time>
      </trkpt>
      <trkpt lat="47.759535" lon="-2.758143">
        <ele>85.003380</ele>
        <time>2025-06-26T07:53:00.917Z</time>
      </trkpt>
      <trkpt lat="47.759004" lon="-2.760391">
        <ele>87.800427</ele>
        <time>2025-06-26T07:53:35.353Z</time>
      </trkpt>
      <trkpt lat="47.758958" lon="-2.760698">
        <ele>88.123958</ele>
        <time>2025-06-26T07:53:39.776Z</time>
      </trkpt>
      <trkpt lat="47.758929" lon="-2.760883">
        <ele>88.319356</ele>
        <time>2025-06-26T07:53:42.460Z</time>
      </trkpt>
      <trkpt lat="47.758679" lon="-2.763013">
        <ele>89.438893</ele>
        <time>2025-06-26T07:54:10.359Z</time>
      </trkpt>
      <trkpt lat="47.758432" lon="-2.764355">
        <ele>89.406192</ele>
        <time>2025-06-26T07:54:23.520Z</time>
      </trkpt>
      <trkpt lat="47.758283" lon="-2.764980">
        <ele>88.707803</ele>
        <time>2025-06-26T07:54:28.794Z</time>
      </trkpt>
      <trkpt lat="47.758236" lon="-2.765328">
        <ele>88.333979</ele>
        <time>2025-06-26T07:54:31.535Z</time>
      </trkpt>
      <trkpt lat="47.758225" lon="-2.765713">
        <ele>87.928145</ele>
        <time>2025-06-26T07:54:34.463Z</time>
      </trkpt>
      <trkpt lat="47.758248" lon="-2.766132">
        <ele>87.485401</ele>
        <time>2025-06-26T07:54:37.564Z</time>
      </trkpt>
      <trkpt lat="47.758276" lon="-2.766371">
        <ele>87.229901</ele>
        <time>2025-06-26T07:54:39.324Z</time>
      </trkpt>
      <trkpt lat="47.758275" lon="-2.766400">
        <ele>87.199319</ele>
        <time>2025-06-26T07:54:39.532Z</time>
      </trkpt>
      <trkpt lat="47.758279" lon="-2.766755">
        <ele>86.622769</ele>
        <time>2025-06-26T07:54:42.071Z</time>
      </trkpt>
      <trkpt lat="47.758234" lon="-2.767417">
        <ele>85.060640</ele>
        <time>2025-06-26T07:54:46.573Z</time>
      </trkpt>
      <trkpt lat="47.758210" lon="-2.768356">
        <ele>82.854518</ele>
        <time>2025-06-26T07:54:52.660Z</time>
      </trkpt>
      <trkpt lat="47.758257" lon="-2.769285">
        <ele>80.701381</ele>
        <time>2025-06-26T07:54:58.792Z</time>
      </trkpt>
      <trkpt lat="47.758238" lon="-2.769562">
        <ele>80.584311</ele>
        <time>2025-06-26T07:55:00.693Z</time>
      </trkpt>
      <trkpt lat="47.758213" lon="-2.769805">
        <ele>80.480952</ele>
        <time>2025-06-26T07:55:02.421Z</time>
      </trkpt>
      <trkpt lat="47.758195" lon="-2.769919">
        <ele>80.431716</ele>
        <time>2025-06-26T07:55:03.263Z</time>
      </trkpt>
      <trkpt lat="47.758015" lon="-2.771261">
        <ele>79.856348</ele>
        <time>2025-06-26T07:55:15.752Z</time>
      </trkpt>
      <trkpt lat="47.757921" lon="-2.771967">
        <ele>79.589220</ele>
        <time>2025-06-26T07:55:26.675Z</time>
      </trkpt>
      <trkpt lat="47.757893" lon="-2.772497">
        <ele>79.628719</ele>
        <time>2025-06-26T07:55:34.132Z</time>
      </trkpt>
      <trkpt lat="47.757893" lon="-2.772931">
        <ele>79.660965</ele>
        <time>2025-06-26T07:55:39.603Z</time>
      </trkpt>
      <trkpt lat="47.757931" lon="-2.773569">
        <ele>79.708553</ele>
        <time>2025-06-26T07:55:46.952Z</time>
      </trkpt>
      <trkpt lat="47.758025" lon="-2.774212">
        <ele>79.757444</ele>
        <time>2025-06-26T07:55:52.832Z</time>
      </trkpt>
      <trkpt lat="47.758136" lon="-2.774691">
        <ele>79.551126</ele>
        <time>2025-06-26T07:55:56.615Z</time>
      </trkpt>
      <trkpt lat="47.758209" lon="-2.774695">
        <ele>79.400487</ele>
        <time>2025-06-26T07:55:57.397Z</time>
      </trkpt>
      <trkpt lat="47.758279" lon="-2.774816">
        <ele>79.179184</ele>
        <time>2025-06-26T07:55:58.535Z</time>
      </trkpt>
      <trkpt lat="47.758275" lon="-2.774911">
        <ele>79.047227</ele>
        <time>2025-06-26T07:55:59.207Z</time>
      </trkpt>
      <trkpt lat="47.758209" lon="-2.775011">
        <ele>78.852954</ele>
        <time>2025-06-26T07:56:00.197Z</time>
      </trkpt>
      <trkpt lat="47.758449" lon="-2.776012">
        <ele>77.379651</ele>
        <time>2025-06-26T07:56:07.752Z</time>
      </trkpt>
      <trkpt lat="47.758468" lon="-2.776087">
        <ele>77.268541</ele>
        <time>2025-06-26T07:56:08.330Z</time>
      </trkpt>
      <trkpt lat="47.758524" lon="-2.776322">
        <ele>76.922899</ele>
        <time>2025-06-26T07:56:10.115Z</time>
      </trkpt>
      <trkpt lat="47.758642" lon="-2.776851">
        <ele>76.150232</ele>
        <time>2025-06-26T07:56:14.136Z</time>
      </trkpt>
      <trkpt lat="47.758784" lon="-2.777794">
        <ele>75.553316</ele>
        <time>2025-06-26T07:56:21.903Z</time>
      </trkpt>
      <trkpt lat="47.758828" lon="-2.778221">
        <ele>75.306628</ele>
        <time>2025-06-26T07:56:25.395Z</time>
      </trkpt>
      <trkpt lat="47.758820" lon="-2.779163">
        <ele>74.768652</ele>
        <time>2025-06-26T07:56:34.222Z</time>
      </trkpt>
      <trkpt lat="47.758920" lon="-2.779238">
        <ele>74.673519</ele>
        <time>2025-06-26T07:56:35.776Z</time>
      </trkpt>
      <trkpt lat="47.758968" lon="-2.779387">
        <ele>74.579167</ele>
        <time>2025-06-26T07:56:37.286Z</time>
      </trkpt>
      <trkpt lat="47.758952" lon="-2.779529">
        <ele>74.580837</ele>
        <time>2025-06-26T07:56:38.650Z</time>
      </trkpt>
      <trkpt lat="47.758925" lon="-2.779588">
        <ele>74.610188</ele>
        <time>2025-06-26T07:56:39.240Z</time>
      </trkpt>
      <trkpt lat="47.758803" lon="-2.779673">
        <ele>74.692598</ele>
        <time>2025-06-26T07:56:41.019Z</time>
      </trkpt>
      <trkpt lat="47.758732" lon="-2.779810">
        <ele>74.763735</ele>
        <time>2025-06-26T07:56:42.618Z</time>
      </trkpt>
      <trkpt lat="47.758567" lon="-2.780474">
        <ele>75.054854</ele>
        <time>2025-06-26T07:56:49.718Z</time>
      </trkpt>
      <trkpt lat="47.758555" lon="-2.780643">
        <ele>75.124739</ele>
        <time>2025-06-26T07:56:51.511Z</time>
      </trkpt>
      <trkpt lat="47.758579" lon="-2.780835">
        <ele>75.205050</ele>
        <time>2025-06-26T07:56:53.933Z</time>
      </trkpt>
      <trkpt lat="47.758606" lon="-2.780998">
        <ele>75.274086</ele>
        <time>2025-06-26T07:56:56.255Z</time>
      </trkpt>
      <trkpt lat="47.758572" lon="-2.781136">
        <ele>75.334528</ele>
        <time>2025-06-26T07:56:58.238Z</time>
      </trkpt>
      <trkpt lat="47.758495" lon="-2.781227">
        <ele>75.394687</ele>
        <time>2025-06-26T07:57:00.116Z</time>
      </trkpt>
      <trkpt lat="47.758443" lon="-2.781246">
        <ele>75.427442</ele>
        <time>2025-06-26T07:57:01.139Z</time>
      </trkpt>
      <trkpt lat="47.758339" lon="-2.781215">
        <ele>75.492326</ele>
        <time>2025-06-26T07:57:03.090Z</time>
      </trkpt>
      <trkpt lat="47.758245" lon="-2.781336">
        <ele>75.568369</ele>
        <time>2025-06-26T07:57:05.368Z</time>
      </trkpt>
      <trkpt lat="47.758184" lon="-2.781519">
        <ele>75.670195</ele>
        <time>2025-06-26T07:57:07.956Z</time>
      </trkpt>
      <trkpt lat="47.757720" lon="-2.782905">
        <ele>78.086624</ele>
        <time>2025-06-26T07:57:34.116Z</time>
      </trkpt>
      <trkpt lat="47.757632" lon="-2.783369">
        <ele>78.839035</ele>
        <time>2025-06-26T07:57:42.503Z</time>
      </trkpt>
      <trkpt lat="47.757604" lon="-2.783652">
        <ele>79.285460</ele>
        <time>2025-06-26T07:57:47.459Z</time>
      </trkpt>
      <trkpt lat="47.757598" lon="-2.784093">
        <ele>79.879724</ele>
        <time>2025-06-26T07:57:54.798Z</time>
      </trkpt>
      <trkpt lat="47.757613" lon="-2.784730">
        <ele>80.259828</ele>
        <time>2025-06-26T07:58:04.587Z</time>
      </trkpt>
      <trkpt lat="47.757597" lon="-2.785176">
        <ele>80.526176</ele>
        <time>2025-06-26T07:58:09.937Z</time>
      </trkpt>
      <trkpt lat="47.757605" lon="-2.786261">
        <ele>81.173247</ele>
        <time>2025-06-26T07:58:20.479Z</time>
      </trkpt>
      <trkpt lat="47.757557" lon="-2.786414">
        <ele>81.273934</ele>
        <time>2025-06-26T07:58:22.179Z</time>
      </trkpt>
      <trkpt lat="47.757525" lon="-2.786529">
        <ele>81.348156</ele>
        <time>2025-06-26T07:58:23.522Z</time>
      </trkpt>
      <trkpt lat="47.757154" lon="-2.787026">
        <ele>81.941123</ele>
        <time>2025-06-26T07:58:32.192Z</time>
      </trkpt>
      <trkpt lat="47.757176" lon="-2.787097">
        <ele>82.006452</ele>
        <time>2025-06-26T07:58:33.144Z</time>
      </trkpt>
      <trkpt lat="47.757202" lon="-2.787179">
        <ele>82.082213</ele>
        <time>2025-06-26T07:58:34.323Z</time>
      </trkpt>
      <trkpt lat="47.757166" lon="-2.787203">
        <ele>82.131249</ele>
        <time>2025-06-26T07:58:35.091Z</time>
      </trkpt>
      <trkpt lat="47.757123" lon="-2.787233">
        <ele>82.190285</ele>
        <time>2025-06-26T07:58:35.999Z</time>
      </trkpt>
      <trkpt lat="47.757105" lon="-2.787246">
        <ele>82.215157</ele>
        <time>2025-06-26T07:58:36.382Z</time>
      </trkpt>
      <trkpt lat="47.757116" lon="-2.787749">
        <ele>82.635705</ele>
        <time>2025-06-26T07:58:43.265Z</time>
      </trkpt>
      <trkpt lat="47.757013" lon="-2.788025">
        <ele>82.899493</ele>
        <time>2025-06-26T07:58:47.846Z</time>
      </trkpt>
      <trkpt lat="47.756893" lon="-2.788373">
        <ele>83.226319</ele>
        <time>2025-06-26T07:58:53.573Z</time>
      </trkpt>
      <trkpt lat="47.756808" lon="-2.788653">
        <ele>83.483047</ele>
        <time>2025-06-26T07:58:58.217Z</time>
      </trkpt>
      <trkpt lat="47.756969" lon="-2.789863">
        <ele>85.005285</ele>
        <time>2025-06-26T07:59:16.287Z</time>
      </trkpt>
      <trkpt lat="47.756965" lon="-2.790223">
        <ele>85.477897</ele>
        <time>2025-06-26T07:59:21.376Z</time>
      </trkpt>
      <trkpt lat="47.756835" lon="-2.790920">
        <ele>86.427360</ele>
        <time>2025-06-26T07:59:32.060Z</time>
      </trkpt>
      <trkpt lat="47.756838" lon="-2.791152">
        <ele>86.731947</ele>
        <time>2025-06-26T07:59:35.675Z</time>
      </trkpt>
      <trkpt lat="47.756880" lon="-2.791533">
        <ele>87.275627</ele>
        <time>2025-06-26T07:59:41.992Z</time>
      </trkpt>
      <trkpt lat="47.757083" lon="-2.792740">
        <ele>89.721519</ele>
        <time>2025-06-26T08:00:04.217Z</time>
      </trkpt>
      <trkpt lat="47.757170" lon="-2.793419">
        <ele>91.080346</ele>
        <time>2025-06-26T08:00:17.100Z</time>
      </trkpt>
      <trkpt lat="47.757247" lon="-2.796045">
        <ele>95.493241</ele>
        <time>2025-06-26T08:01:05.161Z</time>
      </trkpt>
      <trkpt lat="47.757220" lon="-2.796306">
        <ele>95.909949</ele>
        <time>2025-06-26T08:01:08.975Z</time>
      </trkpt>
      <trkpt lat="47.757168" lon="-2.796540">
        <ele>96.298854</ele>
        <time>2025-06-26T08:01:12.213Z</time>
      </trkpt>
      <trkpt lat="47.756901" lon="-2.797416">
        <ele>96.065013</ele>
        <time>2025-06-26T08:01:21.992Z</time>
      </trkpt>
      <trkpt lat="47.756803" lon="-2.797909">
        <ele>95.662356</ele>
        <time>2025-06-26T08:01:26.076Z</time>
      </trkpt>
      <trkpt lat="47.756798" lon="-2.797974">
        <ele>95.611114</ele>
        <time>2025-06-26T08:01:26.570Z</time>
      </trkpt>
      <trkpt lat="47.756757" lon="-2.799690">
        <ele>93.933446</ele>
        <time>2025-06-26T08:01:39.139Z</time>
      </trkpt>
      <trkpt lat="47.756720" lon="-2.799928">
        <ele>93.518150</ele>
        <time>2025-06-26T08:01:40.879Z</time>
      </trkpt>
      <trkpt lat="47.756566" lon="-2.800562">
        <ele>92.372103</ele>
        <time>2025-06-26T08:01:45.643Z</time>
      </trkpt>
      <trkpt lat="47.756169" lon="-2.802767">
        <ele>88.413179</ele>
        <time>2025-06-26T08:02:01.693Z</time>
      </trkpt>
      <trkpt lat="47.756120" lon="-2.803250">
        <ele>87.539794</ele>
        <time>2025-06-26T08:02:05.143Z</time>
      </trkpt>
      <trkpt lat="47.756102" lon="-2.804091">
        <ele>86.035317</ele>
        <time>2025-06-26T08:02:11.105Z</time>
      </trkpt>
      <trkpt lat="47.756121" lon="-2.806361">
        <ele>82.643231</ele>
        <time>2025-06-26T08:02:26.893Z</time>
      </trkpt>
      <trkpt lat="47.756151" lon="-2.806681">
        <ele>82.184379</ele>
        <time>2025-06-26T08:02:29.239Z</time>
      </trkpt>
      <trkpt lat="47.756325" lon="-2.807588">
        <ele>82.363665</ele>
        <time>2025-06-26T08:02:37.310Z</time>
      </trkpt>
      <trkpt lat="47.756351" lon="-2.807906">
        <ele>83.112395</ele>
        <time>2025-06-26T08:02:41.208Z</time>
      </trkpt>
      <trkpt lat="47.756352" lon="-2.808249">
        <ele>83.914087</ele>
        <time>2025-06-26T08:02:46.098Z</time>
      </trkpt>
      <trkpt lat="47.756306" lon="-2.809106">
        <ele>85.923507</ele>
        <time>2025-06-26T08:03:03.285Z</time>
      </trkpt>
      <trkpt lat="47.756218" lon="-2.810222">
        <ele>89.276491</ele>
        <time>2025-06-26T08:03:38.157Z</time>
      </trkpt>
      <trkpt lat="47.756120" lon="-2.811217">
        <ele>93.572995</ele>
        <time>2025-06-26T08:04:08.643Z</time>
      </trkpt>
      <trkpt lat="47.756138" lon="-2.811491">
        <ele>94.749233</ele>
        <time>2025-06-26T08:04:16.342Z</time>
      </trkpt>
      <trkpt lat="47.756183" lon="-2.811754">
        <ele>95.908719</ele>
        <time>2025-06-26T08:04:23.786Z</time>
      </trkpt>
      <trkpt lat="47.756577" lon="-2.813045">
        <ele>100.485394</ele>
        <time>2025-06-26T08:04:55.428Z</time>
      </trkpt>
      <trkpt lat="47.756625" lon="-2.813317">
        <ele>101.065534</ele>
        <time>2025-06-26T08:04:59.999Z</time>
      </trkpt>
      <trkpt lat="47.756628" lon="-2.813967">
        <ele>102.406501</ele>
        <time>2025-06-26T08:05:10.710Z</time>
      </trkpt>
      <trkpt lat="47.756571" lon="-2.815359">
        <ele>104.885671</ele>
        <time>2025-06-26T08:05:34.214Z</time>
      </trkpt>
      <trkpt lat="47.756557" lon="-2.816484">
        <ele>105.810685</ele>
        <time>2025-06-26T08:05:50.409Z</time>
      </trkpt>
      <trkpt lat="47.756598" lon="-2.817187">
        <ele>106.390787</ele>
        <time>2025-06-26T08:05:59.650Z</time>
      </trkpt>
      <trkpt lat="47.756947" lon="-2.819760">
        <ele>105.641217</ele>
        <time>2025-06-26T08:06:23.555Z</time>
      </trkpt>
      <trkpt lat="47.757046" lon="-2.820211">
        <ele>105.374659</ele>
        <time>2025-06-26T08:06:27.056Z</time>
      </trkpt>
      <trkpt lat="47.757164" lon="-2.820239">
        <ele>105.202866</ele>
        <time>2025-06-26T08:06:28.320Z</time>
      </trkpt>
      <trkpt lat="47.757217" lon="-2.820331">
        <ele>105.022453</ele>
        <time>2025-06-26T08:06:29.177Z</time>
      </trkpt>
      <trkpt lat="47.757227" lon="-2.820429">
        <ele>104.874852</ele>
        <time>2025-06-26T08:06:29.877Z</time>
      </trkpt>
      <trkpt lat="47.757189" lon="-2.820565">
        <ele>104.655543</ele>
        <time>2025-06-26T08:06:30.915Z</time>
      </trkpt>
      <trkpt lat="47.757116" lon="-2.820626">
        <ele>104.470082</ele>
        <time>2025-06-26T08:06:31.807Z</time>
      </trkpt>
      <trkpt lat="47.757146" lon="-2.820905">
        <ele>104.049348</ele>
        <time>2025-06-26T08:06:33.744Z</time>
      </trkpt>
      <trkpt lat="47.757152" lon="-2.820972">
        <ele>103.948699</ele>
        <time>2025-06-26T08:06:34.200Z</time>
      </trkpt>
      <trkpt lat="47.757262" lon="-2.821945">
        <ele>102.479483</ele>
        <time>2025-06-26T08:06:41.065Z</time>
      </trkpt>
      <trkpt lat="47.757566" lon="-2.824126">
        <ele>101.908130</ele>
        <time>2025-06-26T08:06:58.455Z</time>
      </trkpt>
      <trkpt lat="47.758195" lon="-2.828495">
        <ele>108.564037</ele>
        <time>2025-06-26T08:08:19.664Z</time>
      </trkpt>
      <trkpt lat="47.758440" lon="-2.829877">
        <ele>110.469724</ele>
        <time>2025-06-26T08:08:43.619Z</time>
      </trkpt>
      <trkpt lat="47.758605" lon="-2.830626">
        <ele>111.189568</ele>
        <time>2025-06-26T08:08:53.214Z</time>
      </trkpt>
      <trkpt lat="47.758707" lon="-2.831051">
        <ele>110.518613</ele>
        <time>2025-06-26T08:08:57.068Z</time>
      </trkpt>
      <trkpt lat="47.758839" lon="-2.831472">
        <ele>109.827934</ele>
        <time>2025-06-26T08:09:00.570Z</time>
      </trkpt>
      <trkpt lat="47.759073" lon="-2.831970">
        <ele>108.924568</ele>
        <time>2025-06-26T08:09:04.715Z</time>
      </trkpt>
      <trkpt lat="47.759336" lon="-2.832351">
        <ele>108.112641</ele>
        <time>2025-06-26T08:09:08.225Z</time>
      </trkpt>
      <trkpt lat="47.760118" lon="-2.833276">
        <ele>108.321866</ele>
        <time>2025-06-26T08:09:18.553Z</time>
      </trkpt>
      <trkpt lat="47.760079" lon="-2.833366">
        <ele>108.422311</ele>
        <time>2025-06-26T08:09:19.743Z</time>
      </trkpt>
      <trkpt lat="47.759695" lon="-2.834271">
        <ele>109.426215</ele>
        <time>2025-06-26T08:09:37.699Z</time>
      </trkpt>
      <trkpt lat="47.759146" lon="-2.835441">
        <ele>114.049463</ele>
        <time>2025-06-26T08:10:18.952Z</time>
      </trkpt>
      <trkpt lat="47.758652" lon="-2.836482">
        <ele>119.764613</ele>
        <time>2025-06-26T08:10:57.019Z</time>
      </trkpt>
      <trkpt lat="47.758572" lon="-2.836708">
        <ele>120.910203</ele>
        <time>2025-06-26T08:11:04.237Z</time>
      </trkpt>
      <trkpt lat="47.758496" lon="-2.837159">
        <ele>122.395068</ele>
        <time>2025-06-26T08:11:16.625Z</time>
      </trkpt>
      <trkpt lat="47.758436" lon="-2.837625">
        <ele>123.360677</ele>
        <time>2025-06-26T08:11:27.710Z</time>
      </trkpt>
      <trkpt lat="47.758394" lon="-2.838191">
        <ele>124.519559</ele>
        <time>2025-06-26T08:11:38.754Z</time>
      </trkpt>
      <trkpt lat="47.758402" lon="-2.838398">
        <ele>124.941527</ele>
        <time>2025-06-26T08:11:42.270Z</time>
      </trkpt>
      <trkpt lat="47.758417" lon="-2.839076">
        <ele>126.322095</ele>
        <time>2025-06-26T08:11:52.373Z</time>
      </trkpt>
      <trkpt lat="47.758398" lon="-2.839461">
        <ele>127.107730</ele>
        <time>2025-06-26T08:11:57.064Z</time>
      </trkpt>
      <trkpt lat="47.758318" lon="-2.840616">
        <ele>127.087281</ele>
        <time>2025-06-26T08:12:07.675Z</time>
      </trkpt>
      <trkpt lat="47.758307" lon="-2.840765">
        <ele>127.050894</ele>
        <time>2025-06-26T08:12:08.952Z</time>
      </trkpt>
      <trkpt lat="47.758279" lon="-2.840993">
        <ele>126.994631</ele>
        <time>2025-06-26T08:12:10.925Z</time>
      </trkpt>
      <trkpt lat="47.758199" lon="-2.841538">
        <ele>126.859214</ele>
        <time>2025-06-26T08:12:15.772Z</time>
      </trkpt>
      <trkpt lat="47.758110" lon="-2.841952">
        <ele>126.753702</ele>
        <time>2025-06-26T08:12:19.575Z</time>
      </trkpt>
      <trkpt lat="47.758001" lon="-2.842643">
        <ele>126.492447</ele>
        <time>2025-06-26T08:12:25.873Z</time>
      </trkpt>
      <trkpt lat="47.757967" lon="-2.842887">
        <ele>126.383213</ele>
        <time>2025-06-26T08:12:28.068Z</time>
      </trkpt>
      <trkpt lat="47.757942" lon="-2.843025">
        <ele>126.320561</ele>
        <time>2025-06-26T08:12:29.341Z</time>
      </trkpt>
      <trkpt lat="47.757919" lon="-2.843204">
        <ele>126.240673</ele>
        <time>2025-06-26T08:12:30.948Z</time>
      </trkpt>
      <trkpt lat="47.757906" lon="-2.843421">
        <ele>126.145171</ele>
        <time>2025-06-26T08:12:32.912Z</time>
      </trkpt>
      <trkpt lat="47.758000" lon="-2.843688">
        <ele>126.013050</ele>
        <time>2025-06-26T08:12:35.708Z</time>
      </trkpt>
      <trkpt lat="47.758125" lon="-2.844050">
        <ele>125.834653</ele>
        <time>2025-06-26T08:12:39.337Z</time>
      </trkpt>
      <trkpt lat="47.758487" lon="-2.845026">
        <ele>125.160783</ele>
        <time>2025-06-26T08:12:48.567Z</time>
      </trkpt>
      <trkpt lat="47.758231" lon="-2.845269">
        <ele>124.750668</ele>
        <time>2025-06-26T08:12:52.115Z</time>
      </trkpt>
      <trkpt lat="47.757889" lon="-2.845381">
        <ele>124.277742</ele>
        <time>2025-06-26T08:12:56.167Z</time>
      </trkpt>
      <trkpt lat="47.757685" lon="-2.845508">
        <ele>123.979089</ele>
        <time>2025-06-26T08:12:58.715Z</time>
      </trkpt>
      <trkpt lat="47.757388" lon="-2.845702">
        <ele>123.541028</ele>
        <time>2025-06-26T08:13:02.423Z</time>
      </trkpt>
      <trkpt lat="47.757018" lon="-2.845976">
        <ele>122.979401</ele>
        <time>2025-06-26T08:13:07.131Z</time>
      </trkpt>
      <trkpt lat="47.756410" lon="-2.846453">
        <ele>122.021187</ele>
        <time>2025-06-26T08:13:15.132Z</time>
      </trkpt>
      <trkpt lat="47.756003" lon="-2.847027">
        <ele>121.239351</ele>
        <time>2025-06-26T08:13:21.758Z</time>
      </trkpt>
      <trkpt lat="47.755612" lon="-2.847708">
        <ele>120.333165</ele>
        <time>2025-06-26T08:13:28.688Z</time>
      </trkpt>
      <trkpt lat="47.755434" lon="-2.848026">
        <ele>119.803249</ele>
        <time>2025-06-26T08:13:31.925Z</time>
      </trkpt>
      <trkpt lat="47.755395" lon="-2.848101">
        <ele>119.681824</ele>
        <time>2025-06-26T08:13:32.658Z</time>
      </trkpt>
      <trkpt lat="47.755187" lon="-2.848419">
        <ele>119.113642</ele>
        <time>2025-06-26T08:13:36.111Z</time>
      </trkpt>
      <trkpt lat="47.755200" lon="-2.848487">
        <ele>119.023106</ele>
        <time>2025-06-26T08:13:36.667Z</time>
      </trkpt>
      <trkpt lat="47.755153" lon="-2.848546">
        <ele>118.905955</ele>
        <time>2025-06-26T08:13:37.361Z</time>
      </trkpt>
      <trkpt lat="47.755137" lon="-2.848542">
        <ele>118.875050</ele>
        <time>2025-06-26T08:13:37.542Z</time>
      </trkpt>
      <trkpt lat="47.754921" lon="-2.848953">
        <ele>118.206970</ele>
        <time>2025-06-26T08:13:41.428Z</time>
      </trkpt>
      <trkpt lat="47.754572" lon="-2.849529">
        <ele>117.213949</ele>
        <time>2025-06-26T08:13:47.060Z</time>
      </trkpt>
      <trkpt lat="47.753487" lon="-2.851058">
        <ele>112.558386</ele>
        <time>2025-06-26T08:14:02.421Z</time>
      </trkpt>
      <trkpt lat="47.753316" lon="-2.851333">
        <ele>111.767653</ele>
        <time>2025-06-26T08:14:04.908Z</time>
      </trkpt>
      <trkpt lat="47.751107" lon="-2.855561">
        <ele>95.495529</ele>
        <time>2025-06-26T08:14:39.455Z</time>
      </trkpt>
      <trkpt lat="47.750701" lon="-2.856330">
        <ele>91.231766</ele>
        <time>2025-06-26T08:14:45.435Z</time>
      </trkpt>
      <trkpt lat="47.750475" lon="-2.856822">
        <ele>88.538400</ele>
        <time>2025-06-26T08:14:49.036Z</time>
      </trkpt>
      <trkpt lat="47.750394" lon="-2.857150">
        <ele>86.958948</ele>
        <time>2025-06-26T08:14:51.129Z</time>
      </trkpt>
      <trkpt lat="47.750267" lon="-2.858000">
        <ele>83.023177</ele>
        <time>2025-06-26T08:14:56.364Z</time>
      </trkpt>
      <trkpt lat="47.750111" lon="-2.858520">
        <ele>80.648855</ele>
        <time>2025-06-26T08:14:59.794Z</time>
      </trkpt>
      <trkpt lat="47.749953" lon="-2.858884">
        <ele>78.842245</ele>
        <time>2025-06-26T08:15:02.400Z</time>
      </trkpt>
      <trkpt lat="47.749115" lon="-2.860257">
        <ele>71.518835</ele>
        <time>2025-06-26T08:15:13.811Z</time>
      </trkpt>
      <trkpt lat="47.747802" lon="-2.862364">
        <ele>66.562100</ele>
        <time>2025-06-26T08:15:34.381Z</time>
      </trkpt>
      <trkpt lat="47.747464" lon="-2.862937">
        <ele>66.251117</ele>
        <time>2025-06-26T08:15:41.019Z</time>
      </trkpt>
      <trkpt lat="47.747199" lon="-2.863501">
        <ele>65.970400</ele>
        <time>2025-06-26T08:15:47.611Z</time>
      </trkpt>
      <trkpt lat="47.743636" lon="-2.874215">
        <ele>66.374667</ele>
        <time>2025-06-26T08:17:53.232Z</time>
      </trkpt>
      <trkpt lat="47.743224" lon="-2.875477">
        <ele>64.895842</ele>
        <time>2025-06-26T08:18:03.606Z</time>
      </trkpt>
      <trkpt lat="47.743154" lon="-2.875772">
        <ele>64.566074</ele>
        <time>2025-06-26T08:18:05.805Z</time>
      </trkpt>
      <trkpt lat="47.743107" lon="-2.876193">
        <ele>64.116201</ele>
        <time>2025-06-26T08:18:08.827Z</time>
      </trkpt>
      <trkpt lat="47.743035" lon="-2.877503">
        <ele>64.271368</ele>
        <time>2025-06-26T08:18:19.031Z</time>
      </trkpt>
      <trkpt lat="47.742559" lon="-2.884948">
        <ele>66.613511</ele>
        <time>2025-06-26T08:19:52.821Z</time>
      </trkpt>
      <trkpt lat="47.742510" lon="-2.885668">
        <ele>66.273950</ele>
        <time>2025-06-26T08:19:59.581Z</time>
      </trkpt>
      <trkpt lat="47.742368" lon="-2.887918">
        <ele>64.030126</ele>
        <time>2025-06-26T08:20:16.497Z</time>
      </trkpt>
      <trkpt lat="47.742147" lon="-2.891382">
        <ele>58.003753</ele>
        <time>2025-06-26T08:20:40.513Z</time>
      </trkpt>
      <trkpt lat="47.741991" lon="-2.892473">
        <ele>56.124123</ele>
        <time>2025-06-26T08:20:48.751Z</time>
      </trkpt>
      <trkpt lat="47.741723" lon="-2.893946">
        <ele>54.031188</ele>
        <time>2025-06-26T08:21:00.153Z</time>
      </trkpt>
      <trkpt lat="47.741417" lon="-2.895606">
        <ele>51.762932</ele>
        <time>2025-06-26T08:21:12.642Z</time>
      </trkpt>
      <trkpt lat="47.741206" lon="-2.896762">
        <ele>50.263613</ele>
        <time>2025-06-26T08:21:21.639Z</time>
      </trkpt>
      <trkpt lat="47.741058" lon="-2.897929">
        <ele>48.829033</ele>
        <time>2025-06-26T08:21:30.822Z</time>
      </trkpt>
      <trkpt lat="47.741003" lon="-2.898507">
        <ele>48.161122</ele>
        <time>2025-06-26T08:21:35.252Z</time>
      </trkpt>
      <trkpt lat="47.740928" lon="-2.899220">
        <ele>47.335416</ele>
        <time>2025-06-26T08:21:40.659Z</time>
      </trkpt>
      <trkpt lat="47.740909" lon="-2.899881">
        <ele>46.578435</ele>
        <time>2025-06-26T08:21:45.596Z</time>
      </trkpt>
      <trkpt lat="47.740933" lon="-2.900320">
        <ele>46.078815</ele>
        <time>2025-06-26T08:21:48.897Z</time>
      </trkpt>
      <trkpt lat="47.741100" lon="-2.901608">
        <ele>44.604314</ele>
        <time>2025-06-26T08:21:59.092Z</time>
      </trkpt>
      <trkpt lat="47.741267" lon="-2.903147">
        <ele>42.795852</ele>
        <time>2025-06-26T08:22:10.865Z</time>
      </trkpt>
      <trkpt lat="47.741330" lon="-2.905045">
        <ele>40.400625</ele>
        <time>2025-06-26T08:22:24.636Z</time>
      </trkpt>
      <trkpt lat="47.741354" lon="-2.906478">
        <ele>39.837818</ele>
        <time>2025-06-26T08:22:36.530Z</time>
      </trkpt>
      <trkpt lat="47.741622" lon="-2.906538">
        <ele>39.798115</ele>
        <time>2025-06-26T08:22:42.223Z</time>
      </trkpt>
      <trkpt lat="47.741760" lon="-2.906621">
        <ele>39.776307</ele>
        <time>2025-06-26T08:22:45.459Z</time>
      </trkpt>
      <trkpt lat="47.741876" lon="-2.906733">
        <ele>39.756046</ele>
        <time>2025-06-26T08:22:48.484Z</time>
      </trkpt>
      <trkpt lat="47.741993" lon="-2.906908">
        <ele>39.731735</ele>
        <time>2025-06-26T08:22:52.174Z</time>
      </trkpt>
      <trkpt lat="47.742103" lon="-2.907277">
        <ele>39.691972</ele>
        <time>2025-06-26T08:22:58.348Z</time>
      </trkpt>
      <trkpt lat="47.742150" lon="-2.907649">
        <ele>39.885141</ele>
        <time>2025-06-26T08:23:04.360Z</time>
      </trkpt>
      <trkpt lat="47.742122" lon="-2.908190">
        <ele>40.322251</ele>
        <time>2025-06-26T08:23:13.190Z</time>
      </trkpt>
      <trkpt lat="47.742001" lon="-2.908894">
        <ele>40.907614</ele>
        <time>2025-06-26T08:23:25.400Z</time>
      </trkpt>
      <trkpt lat="47.741719" lon="-2.910407">
        <ele>42.360431</ele>
        <time>2025-06-26T08:23:52.810Z</time>
      </trkpt>
      <trkpt lat="47.741636" lon="-2.910842">
        <ele>42.927355</ele>
        <time>2025-06-26T08:24:01.048Z</time>
      </trkpt>
      <trkpt lat="47.741588" lon="-2.911103">
        <ele>43.266609</ele>
        <time>2025-06-26T08:24:06.057Z</time>
      </trkpt>
      <trkpt lat="47.741588" lon="-2.911230">
        <ele>43.425840</ele>
        <time>2025-06-26T08:24:08.419Z</time>
      </trkpt>
      <trkpt lat="47.741515" lon="-2.911639">
        <ele>43.956392</ele>
        <time>2025-06-26T08:24:16.373Z</time>
      </trkpt>
      <trkpt lat="47.741469" lon="-2.911742">
        <ele>44.111417</ele>
        <time>2025-06-26T08:24:18.737Z</time>
      </trkpt>
      <trkpt lat="47.741232" lon="-2.913067">
        <ele>46.034091</ele>
        <time>2025-06-26T08:24:45.307Z</time>
      </trkpt>
      <trkpt lat="47.741194" lon="-2.913618">
        <ele>46.948658</ele>
        <time>2025-06-26T08:24:56.496Z</time>
      </trkpt>
      <trkpt lat="47.741280" lon="-2.914197">
        <ele>47.927728</ele>
        <time>2025-06-26T08:25:08.628Z</time>
      </trkpt>
      <trkpt lat="47.741448" lon="-2.914920">
        <ele>49.190779</ele>
        <time>2025-06-26T08:25:23.965Z</time>
      </trkpt>
      <trkpt lat="47.741631" lon="-2.915672">
        <ele>50.449743</ele>
        <time>2025-06-26T08:25:40.698Z</time>
      </trkpt>
      <trkpt lat="47.741777" lon="-2.915941">
        <ele>50.981815</ele>
        <time>2025-06-26T08:25:48.299Z</time>
      </trkpt>
      <trkpt lat="47.741812" lon="-2.916133">
        <ele>51.288004</ele>
        <time>2025-06-26T08:25:52.724Z</time>
      </trkpt>
      <trkpt lat="47.741716" lon="-2.916134">
        <ele>51.507738</ele>
        <time>2025-06-26T08:25:55.253Z</time>
      </trkpt>
      <trkpt lat="47.741861" lon="-2.917063">
        <ele>52.975650</ele>
        <time>2025-06-26T08:26:14.347Z</time>
      </trkpt>
      <trkpt lat="47.741937" lon="-2.917564">
        <ele>53.694544</ele>
        <time>2025-06-26T08:26:23.698Z</time>
      </trkpt>
      <trkpt lat="47.741695" lon="-2.917822">
        <ele>53.294557</ele>
        <time>2025-06-26T08:26:29.223Z</time>
      </trkpt>
      <trkpt lat="47.741557" lon="-2.918038">
        <ele>53.025420</ele>
        <time>2025-06-26T08:26:32.189Z</time>
      </trkpt>
      <trkpt lat="47.741491" lon="-2.918239">
        <ele>52.823363</ele>
        <time>2025-06-26T08:26:34.116Z</time>
      </trkpt>
      <trkpt lat="47.741455" lon="-2.918442">
        <ele>52.633718</ele>
        <time>2025-06-26T08:26:35.786Z</time>
      </trkpt>
      <trkpt lat="47.741435" lon="-2.918550">
        <ele>52.532527</ele>
        <time>2025-06-26T08:26:36.646Z</time>
      </trkpt>
      <trkpt lat="47.741392" lon="-2.918798">
        <ele>52.301174</ele>
        <time>2025-06-26T08:26:38.528Z</time>
      </trkpt>
      <trkpt lat="47.741169" lon="-2.919945">
        <ele>51.171731</ele>
        <time>2025-06-26T08:26:46.774Z</time>
      </trkpt>
      <trkpt lat="47.740868" lon="-2.921517">
        <ele>48.782482</ele>
        <time>2025-06-26T08:26:57.822Z</time>
      </trkpt>
      <trkpt lat="47.740811" lon="-2.921663">
        <ele>48.535703</ele>
        <time>2025-06-26T08:26:59.059Z</time>
      </trkpt>
      <trkpt lat="47.740778" lon="-2.921975">
        <ele>48.074019</ele>
        <time>2025-06-26T08:27:01.422Z</time>
      </trkpt>
      <trkpt lat="47.740316" lon="-2.924398">
        <ele>48.835301</ele>
        <time>2025-06-26T08:27:31.392Z</time>
      </trkpt>
      <trkpt lat="47.740165" lon="-2.925319">
        <ele>49.542519</ele>
        <time>2025-06-26T08:27:47.595Z</time>
      </trkpt>
      <trkpt lat="47.740095" lon="-2.925836">
        <ele>49.980878</ele>
        <time>2025-06-26T08:27:56.450Z</time>
      </trkpt>
      <trkpt lat="47.739747" lon="-2.928163">
        <ele>51.239063</ele>
        <time>2025-06-26T08:28:24.961Z</time>
      </trkpt>
      <trkpt lat="47.739552" lon="-2.929479">
        <ele>50.631494</ele>
        <time>2025-06-26T08:28:36.186Z</time>
      </trkpt>
      <trkpt lat="47.739540" lon="-2.929558">
        <ele>50.594979</ele>
        <time>2025-06-26T08:28:36.836Z</time>
      </trkpt>
      <trkpt lat="47.739384" lon="-2.930364">
        <ele>50.054592</ele>
        <time>2025-06-26T08:28:43.411Z</time>
      </trkpt>
      <trkpt lat="47.739273" lon="-2.930543">
        <ele>49.693001</ele>
        <time>2025-06-26T08:28:45.271Z</time>
      </trkpt>
      <trkpt lat="47.738938" lon="-2.930936">
        <ele>48.750719</ele>
        <time>2025-06-26T08:28:50.041Z</time>
      </trkpt>
      <trkpt lat="47.737967" lon="-2.932054">
        <ele>45.954467</ele>
        <time>2025-06-26T08:29:02.986Z</time>
      </trkpt>
      <trkpt lat="47.736903" lon="-2.933270">
        <ele>42.088277</ele>
        <time>2025-06-26T08:29:16.650Z</time>
      </trkpt>
      <trkpt lat="47.736856" lon="-2.933324">
        <ele>41.917158</ele>
        <time>2025-06-26T08:29:17.267Z</time>
      </trkpt>
      <trkpt lat="47.736379" lon="-2.933941">
        <ele>40.509804</ele>
        <time>2025-06-26T08:29:23.931Z</time>
      </trkpt>
      <trkpt lat="47.736082" lon="-2.934385">
        <ele>39.780454</ele>
        <time>2025-06-26T08:29:28.555Z</time>
      </trkpt>
      <trkpt lat="47.735814" lon="-2.934842">
        <ele>39.074263</ele>
        <time>2025-06-26T08:29:33.196Z</time>
      </trkpt>
      <trkpt lat="47.735479" lon="-2.935554">
        <ele>38.062214</ele>
        <time>2025-06-26T08:29:40.163Z</time>
      </trkpt>
      <trkpt lat="47.735339" lon="-2.935926">
        <ele>37.930452</ele>
        <time>2025-06-26T08:29:43.764Z</time>
      </trkpt>
      <trkpt lat="47.735193" lon="-2.936339">
        <ele>37.824307</ele>
        <time>2025-06-26T08:29:47.872Z</time>
      </trkpt>
      <trkpt lat="47.734910" lon="-2.937430">
        <ele>37.558283</ele>
        <time>2025-06-26T08:29:58.876Z</time>
      </trkpt>
      <trkpt lat="47.734485" lon="-2.939661">
        <ele>37.820652</ele>
        <time>2025-06-26T08:30:23.170Z</time>
      </trkpt>
      <trkpt lat="47.734382" lon="-2.940021">
        <ele>37.916746</ele>
        <time>2025-06-26T08:30:27.634Z</time>
      </trkpt>
      <trkpt lat="47.733877" lon="-2.941453">
        <ele>38.581415</ele>
        <time>2025-06-26T08:30:46.656Z</time>
      </trkpt>
      <trkpt lat="47.733367" lon="-2.943261">
        <ele>39.668814</ele>
        <time>2025-06-26T08:31:10.345Z</time>
      </trkpt>
      <trkpt lat="47.732650" lon="-2.945627">
        <ele>41.672362</ele>
        <time>2025-06-26T08:31:45.946Z</time>
      </trkpt>
      <trkpt lat="47.731031" lon="-2.950417">
        <ele>43.847516</ele>
        <time>2025-06-26T08:32:47.193Z</time>
      </trkpt>
      <trkpt lat="47.730391" lon="-2.952366">
        <ele>44.363894</ele>
        <time>2025-06-26T08:33:11.387Z</time>
      </trkpt>
      <trkpt lat="47.730224" lon="-2.952734">
        <ele>44.380530</ele>
        <time>2025-06-26T08:33:16.132Z</time>
      </trkpt>
      <trkpt lat="47.730094" lon="-2.952839">
        <ele>44.311727</ele>
        <time>2025-06-26T08:33:18.446Z</time>
      </trkpt>
      <trkpt lat="47.729088" lon="-2.953435">
        <ele>43.808106</ele>
        <time>2025-06-26T08:33:32.592Z</time>
      </trkpt>
      <trkpt lat="47.728876" lon="-2.953557">
        <ele>43.702387</ele>
        <time>2025-06-26T08:33:35.345Z</time>
      </trkpt>
      <trkpt lat="47.728698" lon="-2.953715">
        <ele>43.605975</ele>
        <time>2025-06-26T08:33:37.889Z</time>
      </trkpt>
      <trkpt lat="47.728464" lon="-2.954132">
        <ele>43.463180</ele>
        <time>2025-06-26T08:33:42.369Z</time>
      </trkpt>
      <trkpt lat="47.726798" lon="-2.959376">
        <ele>42.547272</ele>
        <time>2025-06-26T08:34:37.151Z</time>
      </trkpt>
      <trkpt lat="47.726611" lon="-2.959939">
        <ele>42.551927</ele>
        <time>2025-06-26T08:34:44.045Z</time>
      </trkpt>
      <trkpt lat="47.726503" lon="-2.960165">
        <ele>42.553982</ele>
        <time>2025-06-26T08:34:47.104Z</time>
      </trkpt>
      <trkpt lat="47.726204" lon="-2.960600">
        <ele>42.558593</ele>
        <time>2025-06-26T08:34:53.756Z</time>
      </trkpt>
      <trkpt lat="47.725702" lon="-2.960923">
        <ele>41.992437</ele>
        <time>2025-06-26T08:35:01.477Z</time>
      </trkpt>
      <trkpt lat="47.725572" lon="-2.961022">
        <ele>41.795160</ele>
        <time>2025-06-26T08:35:03.387Z</time>
      </trkpt>
      <trkpt lat="47.725499" lon="-2.961117">
        <ele>41.664125</ele>
        <time>2025-06-26T08:35:04.615Z</time>
      </trkpt>
      <trkpt lat="47.725437" lon="-2.961221">
        <ele>41.537871</ele>
        <time>2025-06-26T08:35:05.780Z</time>
      </trkpt>
      <trkpt lat="47.724801" lon="-2.962920">
        <ele>39.568939</ele>
        <time>2025-06-26T08:35:20.051Z</time>
      </trkpt>
      <trkpt lat="47.724132" lon="-2.964758">
        <ele>36.600820</ele>
        <time>2025-06-26T08:35:34.928Z</time>
      </trkpt>
      <trkpt lat="47.723283" lon="-2.967100">
        <ele>35.463435</ele>
        <time>2025-06-26T08:35:58.100Z</time>
      </trkpt>
      <trkpt lat="47.722686" lon="-2.970774">
        <ele>37.667538</ele>
        <time>2025-06-26T08:36:45.734Z</time>
      </trkpt>
      <trkpt lat="47.722551" lon="-2.971097">
        <ele>37.983747</ele>
        <time>2025-06-26T08:36:51.066Z</time>
      </trkpt>
      <trkpt lat="47.722149" lon="-2.971588">
        <ele>38.626884</ele>
        <time>2025-06-26T08:37:02.263Z</time>
      </trkpt>
      <trkpt lat="47.721886" lon="-2.971999">
        <ele>39.098577</ele>
        <time>2025-06-26T08:37:09.990Z</time>
      </trkpt>
      <trkpt lat="47.721787" lon="-2.972273">
        <ele>39.123022</ele>
        <time>2025-06-26T08:37:14.133Z</time>
      </trkpt>
      <trkpt lat="47.721754" lon="-2.972536">
        <ele>39.106773</ele>
        <time>2025-06-26T08:37:17.626Z</time>
      </trkpt>
      <trkpt lat="47.721649" lon="-2.980148">
        <ele>38.042026</ele>
        <time>2025-06-26T08:38:28.646Z</time>
      </trkpt>
      <trkpt lat="47.721603" lon="-2.980657">
        <ele>37.530556</ele>
        <time>2025-06-26T08:38:32.832Z</time>
      </trkpt>
      <trkpt lat="47.721534" lon="-2.980930">
        <ele>37.240118</ele>
        <time>2025-06-26T08:38:35.153Z</time>
      </trkpt>
      <trkpt lat="47.720385" lon="-2.984426">
        <ele>32.943830</ele>
        <time>2025-06-26T08:39:04.238Z</time>
      </trkpt>
      <trkpt lat="47.720672" lon="-2.984618">
        <ele>32.386038</ele>
        <time>2025-06-26T08:39:07.873Z</time>
      </trkpt>
      <trkpt lat="47.720746" lon="-2.984695">
        <ele>32.228519</ele>
        <time>2025-06-26T08:39:08.919Z</time>
      </trkpt>
      <trkpt lat="47.720821" lon="-2.984906">
        <ele>31.952318</ele>
        <time>2025-06-26T08:39:10.795Z</time>
      </trkpt>
      <trkpt lat="47.720833" lon="-2.985043">
        <ele>31.792417</ele>
        <time>2025-06-26T08:39:11.886Z</time>
      </trkpt>
      <trkpt lat="47.720781" lon="-2.988060">
        <ele>28.296394</ele>
        <time>2025-06-26T08:39:34.659Z</time>
      </trkpt>
      <trkpt lat="47.720803" lon="-2.989691">
        <ele>26.402088</ele>
        <time>2025-06-26T08:39:46.222Z</time>
      </trkpt>
      <trkpt lat="47.720805" lon="-2.990338">
        <ele>27.089530</ele>
        <time>2025-06-26T08:39:52.580Z</time>
      </trkpt>
      <trkpt lat="47.720787" lon="-2.990506">
        <ele>27.504506</ele>
        <time>2025-06-26T08:39:54.874Z</time>
      </trkpt>
      <trkpt lat="47.720718" lon="-2.990724">
        <ele>28.092201</ele>
        <time>2025-06-26T08:39:58.496Z</time>
      </trkpt>
      <trkpt lat="47.720594" lon="-2.990946">
        <ele>28.796062</ele>
        <time>2025-06-26T08:40:03.465Z</time>
      </trkpt>
      <trkpt lat="47.720409" lon="-2.991184">
        <ele>29.683214</ele>
        <time>2025-06-26T08:40:10.809Z</time>
      </trkpt>
      <trkpt lat="47.719631" lon="-2.992129">
        <ele>33.768710</ele>
        <time>2025-06-26T08:40:51.466Z</time>
      </trkpt>
      <trkpt lat="47.719558" lon="-2.992257">
        <ele>34.440625</ele>
        <time>2025-06-26T08:40:56.213Z</time>
      </trkpt>
      <trkpt lat="47.719499" lon="-2.992407">
        <ele>35.136374</ele>
        <time>2025-06-26T08:41:00.997Z</time>
      </trkpt>
      <trkpt lat="47.719468" lon="-2.992575">
        <ele>35.833922</ele>
        <time>2025-06-26T08:41:05.763Z</time>
      </trkpt>
      <trkpt lat="47.719472" lon="-2.992847">
        <ele>36.923321</ele>
        <time>2025-06-26T08:41:13.303Z</time>
      </trkpt>
      <trkpt lat="47.719520" lon="-2.993059">
        <ele>37.818993</ele>
        <time>2025-06-26T08:41:19.531Z</time>
      </trkpt>
      <trkpt lat="47.719549" lon="-2.993123">
        <ele>38.127967</ele>
        <time>2025-06-26T08:41:21.712Z</time>
      </trkpt>
      <trkpt lat="47.719686" lon="-2.993351">
        <ele>39.352046</ele>
        <time>2025-06-26T08:41:30.095Z</time>
      </trkpt>
      <trkpt lat="47.719708" lon="-2.993390">
        <ele>39.555840</ele>
        <time>2025-06-26T08:41:31.455Z</time>
      </trkpt>
      <trkpt lat="47.719751" lon="-2.993467">
        <ele>39.956542</ele>
        <time>2025-06-26T08:41:34.150Z</time>
      </trkpt>
      <trkpt lat="47.719802" lon="-2.993559">
        <ele>40.433874</ele>
        <time>2025-06-26T08:41:37.263Z</time>
      </trkpt>
      <trkpt lat="47.719992" lon="-2.993846">
        <ele>42.046163</ele>
        <time>2025-06-26T08:41:47.531Z</time>
      </trkpt>
      <trkpt lat="47.720289" lon="-2.994353">
        <ele>43.915660</ele>
        <time>2025-06-26T08:42:02.544Z</time>
      </trkpt>
      <trkpt lat="47.720392" lon="-2.994650">
        <ele>44.465508</ele>
        <time>2025-06-26T08:42:08.832Z</time>
      </trkpt>
      <trkpt lat="47.720426" lon="-2.994899">
        <ele>44.883607</ele>
        <time>2025-06-26T08:42:13.396Z</time>
      </trkpt>
      <trkpt lat="47.720490" lon="-2.995242">
        <ele>45.469340</ele>
        <time>2025-06-26T08:42:19.733Z</time>
      </trkpt>
      <trkpt lat="47.720670" lon="-2.995458">
        <ele>46.035190</ele>
        <time>2025-06-26T08:42:25.608Z</time>
      </trkpt>
      <trkpt lat="47.720719" lon="-2.995582">
        <ele>46.271835</ele>
        <time>2025-06-26T08:42:27.843Z</time>
      </trkpt>
      <trkpt lat="47.720744" lon="-2.995687">
        <ele>46.455120</ele>
        <time>2025-06-26T08:42:29.513Z</time>
      </trkpt>
      <trkpt lat="47.720751" lon="-2.995798">
        <ele>46.638576</ele>
        <time>2025-06-26T08:42:31.081Z</time>
      </trkpt>
      <trkpt lat="47.720746" lon="-2.995902">
        <ele>46.810150</ele>
        <time>2025-06-26T08:42:32.491Z</time>
      </trkpt>
      <trkpt lat="47.720731" lon="-2.996141">
        <ele>47.205144</ele>
        <time>2025-06-26T08:42:35.571Z</time>
      </trkpt>
      <trkpt lat="47.720749" lon="-2.996404">
        <ele>47.640156</ele>
        <time>2025-06-26T08:42:38.596Z</time>
      </trkpt>
      <trkpt lat="47.720695" lon="-2.997001">
        <ele>47.264782</ele>
        <time>2025-06-26T08:42:44.078Z</time>
      </trkpt>
      <trkpt lat="47.720682" lon="-2.997136">
        <ele>47.144592</ele>
        <time>2025-06-26T08:42:45.201Z</time>
      </trkpt>
      <trkpt lat="47.720666" lon="-2.997317">
        <ele>46.983703</ele>
        <time>2025-06-26T08:42:46.674Z</time>
      </trkpt>
      <trkpt lat="47.720638" lon="-2.997667">
        <ele>46.673070</ele>
        <time>2025-06-26T08:42:49.392Z</time>
      </trkpt>
      <trkpt lat="47.720620" lon="-2.997899">
        <ele>46.467249</ele>
        <time>2025-06-26T08:42:51.139Z</time>
      </trkpt>
      <trkpt lat="47.720588" lon="-2.998340">
        <ele>46.076335</ele>
        <time>2025-06-26T08:42:54.367Z</time>
      </trkpt>
      <trkpt lat="47.720521" lon="-2.998834">
        <ele>45.632206</ele>
        <time>2025-06-26T08:42:57.986Z</time>
      </trkpt>
      <trkpt lat="47.720451" lon="-2.999074">
        <ele>45.401666</ele>
        <time>2025-06-26T08:42:59.889Z</time>
      </trkpt>
      <trkpt lat="47.720450" lon="-2.999296">
        <ele>45.334871</ele>
        <time>2025-06-26T08:43:01.529Z</time>
      </trkpt>
      <trkpt lat="47.720485" lon="-2.999413">
        <ele>45.303195</ele>
        <time>2025-06-26T08:43:02.484Z</time>
      </trkpt>
      <trkpt lat="47.720435" lon="-2.999520">
        <ele>45.270967</ele>
        <time>2025-06-26T08:43:03.461Z</time>
      </trkpt>
      <trkpt lat="47.720390" lon="-2.999527">
        <ele>45.254330</ele>
        <time>2025-06-26T08:43:03.974Z</time>
      </trkpt>
      <trkpt lat="47.720323" lon="-2.999459">
        <ele>45.224498</ele>
        <time>2025-06-26T08:43:04.917Z</time>
      </trkpt>
      <trkpt lat="47.720210" lon="-2.999626">
        <ele>45.165905</ele>
        <time>2025-06-26T08:43:06.859Z</time>
      </trkpt>
      <trkpt lat="47.719929" lon="-3.000172">
        <ele>44.995846</ele>
        <time>2025-06-26T08:43:13.116Z</time>
      </trkpt>
      <trkpt lat="47.719833" lon="-3.000410">
        <ele>44.927198</ele>
        <time>2025-06-26T08:43:16.063Z</time>
      </trkpt>
      <trkpt lat="47.719708" lon="-3.000740">
        <ele>44.833513</ele>
        <time>2025-06-26T08:43:20.553Z</time>
      </trkpt>
      <trkpt lat="47.719672" lon="-3.000834">
        <ele>44.806755</ele>
        <time>2025-06-26T08:43:21.900Z</time>
      </trkpt>
      <trkpt lat="47.719608" lon="-3.000998">
        <ele>44.759853</ele>
        <time>2025-06-26T08:43:24.415Z</time>
      </trkpt>
      <trkpt lat="47.719575" lon="-3.001079">
        <ele>44.736427</ele>
        <time>2025-06-26T08:43:25.713Z</time>
      </trkpt>
      <trkpt lat="47.719538" lon="-3.001172">
        <ele>44.763413</ele>
        <time>2025-06-26T08:43:27.168Z</time>
      </trkpt>
      <trkpt lat="47.719526" lon="-3.001203">
        <ele>44.788329</ele>
        <time>2025-06-26T08:43:27.621Z</time>
      </trkpt>
      <trkpt lat="47.719514" lon="-3.001231">
        <ele>44.811457</ele>
        <time>2025-06-26T08:43:28.031Z</time>
      </trkpt>
      <trkpt lat="47.719454" lon="-3.001382">
        <ele>44.933627</ele>
        <time>2025-06-26T08:43:30.330Z</time>
      </trkpt>
      <trkpt lat="47.719417" lon="-3.001474">
        <ele>45.008297</ele>
        <time>2025-06-26T08:43:31.682Z</time>
      </trkpt>
      <trkpt lat="47.719074" lon="-3.002417">
        <ele>45.755099</ele>
        <time>2025-06-26T08:43:45.768Z</time>
      </trkpt>
      <trkpt lat="47.719049" lon="-3.002543">
        <ele>45.846614</ele>
        <time>2025-06-26T08:43:47.519Z</time>
      </trkpt>
      <trkpt lat="47.719018" lon="-3.002705">
        <ele>45.963947</ele>
        <time>2025-06-26T08:43:49.670Z</time>
      </trkpt>
      <trkpt lat="47.718952" lon="-3.003205">
        <ele>46.318913</ele>
        <time>2025-06-26T08:43:56.447Z</time>
      </trkpt>
      <trkpt lat="47.718948" lon="-3.003254">
        <ele>46.353299</ele>
        <time>2025-06-26T08:43:57.060Z</time>
      </trkpt>
      <trkpt lat="47.718856" lon="-3.004634">
        <ele>47.261538</ele>
        <time>2025-06-26T08:44:13.161Z</time>
      </trkpt>
      <trkpt lat="47.718760" lon="-3.005125">
        <ele>47.589640</ele>
        <time>2025-06-26T08:44:19.549Z</time>
      </trkpt>
      <trkpt lat="47.718586" lon="-3.005691">
        <ele>47.988955</ele>
        <time>2025-06-26T08:44:27.363Z</time>
      </trkpt>
      <trkpt lat="47.718570" lon="-3.005745">
        <ele>48.026818</ele>
        <time>2025-06-26T08:44:28.122Z</time>
      </trkpt>
      <trkpt lat="47.718358" lon="-3.006436">
        <ele>48.652696</ele>
        <time>2025-06-26T08:44:38.367Z</time>
      </trkpt>
      <trkpt lat="47.718309" lon="-3.006562">
        <ele>48.807011</ele>
        <time>2025-06-26T08:44:40.427Z</time>
      </trkpt>
      <trkpt lat="47.718251" lon="-3.006751">
        <ele>49.027278</ele>
        <time>2025-06-26T08:44:43.451Z</time>
      </trkpt>
      <trkpt lat="47.717883" lon="-3.007919">
        <ele>50.394830</ele>
        <time>2025-06-26T08:45:02.550Z</time>
      </trkpt>
      <trkpt lat="47.717829" lon="-3.008086">
        <ele>50.591298</ele>
        <time>2025-06-26T08:45:05.136Z</time>
      </trkpt>
      <trkpt lat="47.717609" lon="-3.008770">
        <ele>51.376518</ele>
        <time>2025-06-26T08:45:15.918Z</time>
      </trkpt>
      <trkpt lat="47.717351" lon="-3.009619">
        <ele>52.293002</ele>
        <time>2025-06-26T08:45:28.790Z</time>
      </trkpt>
      <trkpt lat="47.717308" lon="-3.009752">
        <ele>52.438170</ele>
        <time>2025-06-26T08:45:30.737Z</time>
      </trkpt>
      <trkpt lat="47.717353" lon="-3.009825">
        <ele>52.535574</ele>
        <time>2025-06-26T08:45:32.049Z</time>
      </trkpt>
      <trkpt lat="47.717355" lon="-3.009925">
        <ele>52.633996</ele>
        <time>2025-06-26T08:45:33.387Z</time>
      </trkpt>
      <trkpt lat="47.717314" lon="-3.010002">
        <ele>52.730602</ele>
        <time>2025-06-26T08:45:34.704Z</time>
      </trkpt>
      <trkpt lat="47.717220" lon="-3.010007">
        <ele>52.868142</ele>
        <time>2025-06-26T08:45:36.580Z</time>
      </trkpt>
      <trkpt lat="47.717145" lon="-3.010384">
        <ele>53.254906</ele>
        <time>2025-06-26T08:45:41.857Z</time>
      </trkpt>
      <trkpt lat="47.717022" lon="-3.010999">
        <ele>53.847981</ele>
        <time>2025-06-26T08:45:50.997Z</time>
      </trkpt>
      <trkpt lat="47.716806" lon="-3.012019">
        <ele>54.564281</ele>
        <time>2025-06-26T08:46:06.309Z</time>
      </trkpt>
      <trkpt lat="47.716736" lon="-3.012382">
        <ele>54.817231</ele>
        <time>2025-06-26T08:46:11.499Z</time>
      </trkpt>
      <trkpt lat="47.716515" lon="-3.013483">
        <ele>55.516872</ele>
        <time>2025-06-26T08:46:25.009Z</time>
      </trkpt>
      <trkpt lat="47.716366" lon="-3.014182">
        <ele>54.840504</ele>
        <time>2025-06-26T08:46:31.498Z</time>
      </trkpt>
      <trkpt lat="47.715922" lon="-3.016358">
        <ele>52.552873</ele>
        <time>2025-06-26T08:46:48.379Z</time>
      </trkpt>
      <trkpt lat="47.715103" lon="-3.016644">
        <ele>50.769986</ele>
        <time>2025-06-26T08:46:57.595Z</time>
      </trkpt>
      <trkpt lat="47.714644" lon="-3.016821">
        <ele>49.765066</ele>
        <time>2025-06-26T08:47:02.725Z</time>
      </trkpt>
      <trkpt lat="47.714545" lon="-3.016861">
        <ele>49.547651</ele>
        <time>2025-06-26T08:47:03.817Z</time>
      </trkpt>
      <trkpt lat="47.714359" lon="-3.017019">
        <ele>49.045669</ele>
        <time>2025-06-26T08:47:06.101Z</time>
      </trkpt>
      <trkpt lat="47.714076" lon="-3.017308">
        <ele>48.130430</ele>
        <time>2025-06-26T08:47:09.725Z</time>
      </trkpt>
      <trkpt lat="47.713391" lon="-3.018057">
        <ele>45.863664</ele>
        <time>2025-06-26T08:47:18.535Z</time>
      </trkpt>
      <trkpt lat="47.712982" lon="-3.018466">
        <ele>44.549670</ele>
        <time>2025-06-26T08:47:23.608Z</time>
      </trkpt>
      <trkpt lat="47.711422" lon="-3.019558">
        <ele>39.982886</ele>
        <time>2025-06-26T08:47:41.756Z</time>
      </trkpt>
      <trkpt lat="47.711227" lon="-3.019712">
        <ele>39.333602</ele>
        <time>2025-06-26T08:47:44.085Z</time>
      </trkpt>
      <trkpt lat="47.710549" lon="-3.019724">
        <ele>37.180806</ele>
        <time>2025-06-26T08:47:51.097Z</time>
      </trkpt>
      <trkpt lat="47.708260" lon="-3.019688">
        <ele>29.889302</ele>
        <time>2025-06-26T08:48:13.920Z</time>
      </trkpt>
      <trkpt lat="47.707766" lon="-3.019752">
        <ele>28.305865</ele>
        <time>2025-06-26T08:48:19.044Z</time>
      </trkpt>
      <trkpt lat="47.707507" lon="-3.019838">
        <ele>27.938178</ele>
        <time>2025-06-26T08:48:21.892Z</time>
      </trkpt>
      <trkpt lat="47.707282" lon="-3.019962">
        <ele>27.625846</ele>
        <time>2025-06-26T08:48:24.538Z</time>
      </trkpt>
      <trkpt lat="47.705424" lon="-3.021314">
        <ele>25.160571</ele>
        <time>2025-06-26T08:48:50.580Z</time>
      </trkpt>
      <trkpt lat="47.704415" lon="-3.022085">
        <ele>23.857671</ele>
        <time>2025-06-26T08:49:04.603Z</time>
      </trkpt>
      <trkpt lat="47.703406" lon="-3.022857">
        <ele>20.852214</ele>
        <time>2025-06-26T08:49:16.761Z</time>
      </trkpt>
      <trkpt lat="47.702547" lon="-3.023485">
        <ele>18.190214</ele>
        <time>2025-06-26T08:49:26.157Z</time>
      </trkpt>
      <trkpt lat="47.702303" lon="-3.023626">
        <ele>17.412521</ele>
        <time>2025-06-26T08:49:28.694Z</time>
      </trkpt>
      <trkpt lat="47.702062" lon="-3.023696">
        <ele>16.683071</ele>
        <time>2025-06-26T08:49:31.100Z</time>
      </trkpt>
      <trkpt lat="47.701819" lon="-3.023613">
        <ele>15.942404</ele>
        <time>2025-06-26T08:49:33.598Z</time>
      </trkpt>
      <trkpt lat="47.700792" lon="-3.023027">
        <ele>14.441956</ele>
        <time>2025-06-26T08:49:45.951Z</time>
      </trkpt>
      <trkpt lat="47.700615" lon="-3.022966">
        <ele>14.613610</ele>
        <time>2025-06-26T08:49:48.649Z</time>
      </trkpt>
      <trkpt lat="47.700483" lon="-3.022970">
        <ele>14.738340</ele>
        <time>2025-06-26T08:49:50.845Z</time>
      </trkpt>
      <trkpt lat="47.700336" lon="-3.023023">
        <ele>14.881244</ele>
        <time>2025-06-26T08:49:53.623Z</time>
      </trkpt>
      <trkpt lat="47.700217" lon="-3.023104">
        <ele>15.004900</ele>
        <time>2025-06-26T08:49:56.241Z</time>
      </trkpt>
      <trkpt lat="47.699684" lon="-3.023688">
        <ele>15.630539</ele>
        <time>2025-06-26T08:50:12.681Z</time>
      </trkpt>
      <trkpt lat="47.698981" lon="-3.024167">
        <ele>17.346769</ele>
        <time>2025-06-26T08:50:36.412Z</time>
      </trkpt>
      <trkpt lat="47.698305" lon="-3.024812">
        <ele>19.262815</ele>
        <time>2025-06-26T08:50:57.138Z</time>
      </trkpt>
      <trkpt lat="47.698177" lon="-3.024899">
        <ele>19.598517</ele>
        <time>2025-06-26T08:50:59.947Z</time>
      </trkpt>
      <trkpt lat="47.696624" lon="-3.025620">
        <ele>19.838587</ele>
        <time>2025-06-26T08:51:20.900Z</time>
      </trkpt>
      <trkpt lat="47.694620" lon="-3.026469">
        <ele>21.129299</ele>
        <time>2025-06-26T08:51:56.816Z</time>
      </trkpt>
      <trkpt lat="47.694206" lon="-3.026616">
        <ele>22.483982</ele>
        <time>2025-06-26T08:52:05.936Z</time>
      </trkpt>
      <trkpt lat="47.694289" lon="-3.028018">
        <ele>25.849931</ele>
        <time>2025-06-26T08:52:39.529Z</time>
      </trkpt>
      <trkpt lat="47.694276" lon="-3.028380">
        <ele>26.716917</ele>
        <time>2025-06-26T08:52:49.371Z</time>
      </trkpt>
      <trkpt lat="47.694222" lon="-3.028806">
        <ele>27.799465</ele>
        <time>2025-06-26T08:53:01.427Z</time>
      </trkpt>
      <trkpt lat="47.694105" lon="-3.029335">
        <ele>29.451804</ele>
        <time>2025-06-26T08:53:17.313Z</time>
      </trkpt>
      <trkpt lat="47.693363" lon="-3.031977">
        <ele>36.610960</ele>
        <time>2025-06-26T08:54:28.380Z</time>
      </trkpt>
      <trkpt lat="47.692565" lon="-3.030903">
        <ele>38.773730</ele>
        <time>2025-06-26T08:54:49.818Z</time>
      </trkpt>
      <trkpt lat="47.692046" lon="-3.030159">
        <ele>39.286755</ele>
        <time>2025-06-26T08:55:01.077Z</time>
      </trkpt>
      <trkpt lat="47.690886" lon="-3.028547">
        <ele>39.693671</ele>
        <time>2025-06-26T08:55:26.459Z</time>
      </trkpt>
      <trkpt lat="47.689777" lon="-3.027001">
        <ele>39.656234</ele>
        <time>2025-06-26T08:55:48.922Z</time>
      </trkpt>
      <trkpt lat="47.689300" lon="-3.026368">
        <ele>39.216894</ele>
        <time>2025-06-26T08:55:57.356Z</time>
      </trkpt>
      <trkpt lat="47.689071" lon="-3.027340">
        <ele>38.740726</ele>
        <time>2025-06-26T08:56:05.719Z</time>
      </trkpt>
      <trkpt lat="47.688908" lon="-3.028198">
        <ele>38.300132</ele>
        <time>2025-06-26T08:56:13.399Z</time>
      </trkpt>
      <trkpt lat="47.688814" lon="-3.028700">
        <ele>38.009980</ele>
        <time>2025-06-26T08:56:17.878Z</time>
      </trkpt>
      <trkpt lat="47.688817" lon="-3.029292">
        <ele>37.680316</ele>
        <time>2025-06-26T08:56:22.792Z</time>
      </trkpt>
      <trkpt lat="47.688924" lon="-3.030549">
        <ele>36.973441</ele>
        <time>2025-06-26T08:56:33.570Z</time>
      </trkpt>
      <trkpt lat="47.688994" lon="-3.031369">
        <ele>36.382313</ele>
        <time>2025-06-26T08:56:40.432Z</time>
      </trkpt>
      <trkpt lat="47.688979" lon="-3.032142">
        <ele>35.829265</ele>
        <time>2025-06-26T08:56:46.701Z</time>
      </trkpt>
      <trkpt lat="47.688954" lon="-3.032828">
        <ele>35.337947</ele>
        <time>2025-06-26T08:56:52.245Z</time>
      </trkpt>
      <trkpt lat="47.688943" lon="-3.033079">
        <ele>35.158062</ele>
        <time>2025-06-26T08:56:54.254Z</time>
      </trkpt>
      <trkpt lat="47.688968" lon="-3.033445">
        <ele>34.861718</ele>
        <time>2025-06-26T08:56:57.190Z</time>
      </trkpt>
      <trkpt lat="47.689298" lon="-3.034851">
        <ele>33.592935</ele>
        <time>2025-06-26T08:57:09.009Z</time>
      </trkpt>
      <trkpt lat="47.689330" lon="-3.035101">
        <ele>33.376094</ele>
        <time>2025-06-26T08:57:11.010Z</time>
      </trkpt>
      <trkpt lat="47.689482" lon="-3.038731">
        <ele>30.756994</ele>
        <time>2025-06-26T08:57:39.915Z</time>
      </trkpt>
      <trkpt lat="47.689472" lon="-3.038970">
        <ele>30.817879</ele>
        <time>2025-06-26T08:57:42.339Z</time>
      </trkpt>
      <trkpt lat="47.689430" lon="-3.039222">
        <ele>30.883886</ele>
        <time>2025-06-26T08:57:45.128Z</time>
      </trkpt>
      <trkpt lat="47.688990" lon="-3.040594">
        <ele>31.270294</ele>
        <time>2025-06-26T08:58:03.630Z</time>
      </trkpt>
      <trkpt lat="47.688567" lon="-3.041991">
        <ele>32.047794</ele>
        <time>2025-06-26T08:58:22.648Z</time>
      </trkpt>
      <trkpt lat="47.687998" lon="-3.044936">
        <ele>34.043912</ele>
        <time>2025-06-26T08:59:00.418Z</time>
      </trkpt>
      <trkpt lat="47.687868" lon="-3.045290">
        <ele>34.331112</ele>
        <time>2025-06-26T08:59:05.969Z</time>
      </trkpt>
      <trkpt lat="47.687384" lon="-3.046357">
        <ele>35.192333</ele>
        <time>2025-06-26T08:59:23.327Z</time>
      </trkpt>
      <trkpt lat="47.686910" lon="-3.047456">
        <ele>35.995216</ele>
        <time>2025-06-26T08:59:40.098Z</time>
      </trkpt>
      <trkpt lat="47.686561" lon="-3.048102">
        <ele>36.489235</ele>
        <time>2025-06-26T08:59:49.405Z</time>
      </trkpt>
      <trkpt lat="47.685570" lon="-3.049583">
        <ele>36.680977</ele>
        <time>2025-06-26T09:00:11.181Z</time>
      </trkpt>
      <trkpt lat="47.685206" lon="-3.049718">
        <ele>36.732520</ele>
        <time>2025-06-26T09:00:18.557Z</time>
      </trkpt>
      <trkpt lat="47.685093" lon="-3.049799">
        <ele>36.770609</ele>
        <time>2025-06-26T09:00:21.027Z</time>
      </trkpt>
      <trkpt lat="47.685010" lon="-3.049925">
        <ele>36.806636</ele>
        <time>2025-06-26T09:00:23.360Z</time>
      </trkpt>
      <trkpt lat="47.684957" lon="-3.050253">
        <ele>36.875572</ele>
        <time>2025-06-26T09:00:27.939Z</time>
      </trkpt>
      <trkpt lat="47.684946" lon="-3.050618">
        <ele>36.950241</ele>
        <time>2025-06-26T09:00:32.973Z</time>
      </trkpt>
      <trkpt lat="47.684369" lon="-3.050571">
        <ele>37.125665</ele>
        <time>2025-06-26T09:00:45.388Z</time>
      </trkpt>
      <trkpt lat="47.684099" lon="-3.050623">
        <ele>37.208316</ele>
        <time>2025-06-26T09:00:51.550Z</time>
      </trkpt>
      <trkpt lat="47.683936" lon="-3.050739">
        <ele>37.263184</ele>
        <time>2025-06-26T09:00:55.730Z</time>
      </trkpt>
      <trkpt lat="47.682566" lon="-3.052148">
        <ele>38.151252</ele>
        <time>2025-06-26T09:01:34.791Z</time>
      </trkpt>
      <trkpt lat="47.682042" lon="-3.052484">
        <ele>37.871743</ele>
        <time>2025-06-26T09:01:45.674Z</time>
      </trkpt>
      <trkpt lat="47.680931" lon="-3.052849">
        <ele>36.771916</ele>
        <time>2025-06-26T09:02:04.781Z</time>
      </trkpt>
      <trkpt lat="47.680650" lon="-3.053003">
        <ele>36.480383</ele>
        <time>2025-06-26T09:02:09.650Z</time>
      </trkpt>
      <trkpt lat="47.679251" lon="-3.054141">
        <ele>34.826459</ele>
        <time>2025-06-26T09:02:36.710Z</time>
      </trkpt>
      <trkpt lat="47.678698" lon="-3.054536">
        <ele>34.670819</ele>
        <time>2025-06-26T09:02:48.692Z</time>
      </trkpt>
      <trkpt lat="47.677901" lon="-3.054923">
        <ele>34.719711</ele>
        <time>2025-06-26T09:03:06.417Z</time>
      </trkpt>
      <trkpt lat="47.677686" lon="-3.055051">
        <ele>34.733217</ele>
        <time>2025-06-26T09:03:11.215Z</time>
      </trkpt>
      <trkpt lat="47.677551" lon="-3.055210">
        <ele>34.743263</ele>
        <time>2025-06-26T09:03:14.842Z</time>
      </trkpt>
      <trkpt lat="47.677499" lon="-3.055378">
        <ele>34.755167</ele>
        <time>2025-06-26T09:03:17.507Z</time>
      </trkpt>
      <trkpt lat="47.677347" lon="-3.056335">
        <ele>35.224752</ele>
        <time>2025-06-26T09:03:32.359Z</time>
      </trkpt>
      <trkpt lat="47.677279" lon="-3.056431">
        <ele>35.291298</ele>
        <time>2025-06-26T09:03:34.473Z</time>
      </trkpt>
      <trkpt lat="47.677090" lon="-3.056441">
        <ele>35.425441</ele>
        <time>2025-06-26T09:03:38.719Z</time>
      </trkpt>
      <trkpt lat="47.676750" lon="-3.056390">
        <ele>35.667831</ele>
        <time>2025-06-26T09:03:44.590Z</time>
      </trkpt>
      <trkpt lat="47.676449" lon="-3.056266">
        <ele>35.889392</ele>
        <time>2025-06-26T09:03:50.385Z</time>
      </trkpt>
      <trkpt lat="47.676082" lon="-3.056044">
        <ele>36.248146</ele>
        <time>2025-06-26T09:03:58.412Z</time>
      </trkpt>
      <trkpt lat="47.675797" lon="-3.055852">
        <ele>36.589378</ele>
        <time>2025-06-26T09:04:04.917Z</time>
      </trkpt>
      <trkpt lat="47.674853" lon="-3.055364">
        <ele>37.679264</ele>
        <time>2025-06-26T09:04:24.283Z</time>
      </trkpt>
      <trkpt lat="47.674664" lon="-3.055229">
        <ele>37.907941</ele>
        <time>2025-06-26T09:04:28.204Z</time>
      </trkpt>
      <trkpt lat="47.674521" lon="-3.055020">
        <ele>38.005679</ele>
        <time>2025-06-26T09:04:31.867Z</time>
      </trkpt>
      <trkpt lat="47.674235" lon="-3.054350">
        <ele>38.083261</ele>
        <time>2025-06-26T09:04:41.050Z</time>
      </trkpt>
      <trkpt lat="47.674164" lon="-3.054231">
        <ele>38.098810</ele>
        <time>2025-06-26T09:04:42.785Z</time>
      </trkpt>
      <trkpt lat="47.674020" lon="-3.054104">
        <ele>38.123135</ele>
        <time>2025-06-26T09:04:45.420Z</time>
      </trkpt>
      <trkpt lat="47.673898" lon="-3.054058">
        <ele>38.141416</ele>
        <time>2025-06-26T09:04:47.287Z</time>
      </trkpt>
      <trkpt lat="47.673684" lon="-3.054065">
        <ele>38.172505</ele>
        <time>2025-06-26T09:04:50.328Z</time>
      </trkpt>
      <trkpt lat="47.673011" lon="-3.054360">
        <ele>38.044365</ele>
        <time>2025-06-26T09:04:59.842Z</time>
      </trkpt>
      <trkpt lat="47.672909" lon="-3.054383">
        <ele>37.927290</ele>
        <time>2025-06-26T09:05:01.190Z</time>
      </trkpt>
      <trkpt lat="47.671760" lon="-3.054363">
        <ele>36.623324</ele>
        <time>2025-06-26T09:05:15.092Z</time>
      </trkpt>
      <trkpt lat="47.670233" lon="-3.054410">
        <ele>33.799612</ele>
        <time>2025-06-26T09:05:31.937Z</time>
      </trkpt>
      <trkpt lat="47.668723" lon="-3.054591">
        <ele>30.798045</ele>
        <time>2025-06-26T09:05:48.063Z</time>
      </trkpt>
      <trkpt lat="47.667144" lon="-3.055018">
        <ele>28.397641</ele>
        <time>2025-06-26T09:06:06.556Z</time>
      </trkpt>
      <trkpt lat="47.666591" lon="-3.055157">
        <ele>27.875128</ele>
        <time>2025-06-26T09:06:17.015Z</time>
      </trkpt>
      <trkpt lat="47.665440" lon="-3.055284">
        <ele>26.849181</ele>
        <time>2025-06-26T09:06:38.165Z</time>
      </trkpt>
      <trkpt lat="47.665285" lon="-3.055346">
        <ele>26.712831</ele>
        <time>2025-06-26T09:06:40.958Z</time>
      </trkpt>
      <trkpt lat="47.665013" lon="-3.055454">
        <ele>26.473676</ele>
        <time>2025-06-26T09:06:45.853Z</time>
      </trkpt>
      <trkpt lat="47.664726" lon="-3.055570">
        <ele>26.221028</ele>
        <time>2025-06-26T09:06:50.984Z</time>
      </trkpt>
      <trkpt lat="47.664027" lon="-3.055892">
        <ele>25.628177</ele>
        <time>2025-06-26T09:07:03.517Z</time>
      </trkpt>
      <trkpt lat="47.662922" lon="-3.056572">
        <ele>24.738622</ele>
        <time>2025-06-26T09:07:25.097Z</time>
      </trkpt>
      <trkpt lat="47.662621" lon="-3.056730">
        <ele>24.501196</ele>
        <time>2025-06-26T09:07:31.056Z</time>
      </trkpt>
      <trkpt lat="47.662402" lon="-3.056811">
        <ele>24.333093</ele>
        <time>2025-06-26T09:07:35.348Z</time>
      </trkpt>
      <trkpt lat="47.661118" lon="-3.056943">
        <ele>23.374359</ele>
        <time>2025-06-26T09:07:58.909Z</time>
      </trkpt>
      <trkpt lat="47.661170" lon="-3.058708">
        <ele>21.918230</ele>
        <time>2025-06-26T09:08:18.444Z</time>
      </trkpt>
      <trkpt lat="47.661148" lon="-3.060353">
        <ele>20.578485</ele>
        <time>2025-06-26T09:08:36.785Z</time>
      </trkpt>
      <trkpt lat="47.661184" lon="-3.061132">
        <ele>20.351118</ele>
        <time>2025-06-26T09:08:46.161Z</time>
      </trkpt>
      <trkpt lat="47.661165" lon="-3.061267">
        <ele>20.310959</ele>
        <time>2025-06-26T09:08:47.898Z</time>
      </trkpt>
      <trkpt lat="47.660994" lon="-3.061482">
        <ele>20.214083</ele>
        <time>2025-06-26T09:08:52.170Z</time>
      </trkpt>
      <trkpt lat="47.660954" lon="-3.061610">
        <ele>20.172995</ele>
        <time>2025-06-26T09:08:54.002Z</time>
      </trkpt>
      <trkpt lat="47.660930" lon="-3.061845">
        <ele>20.103784</ele>
        <time>2025-06-26T09:08:57.154Z</time>
      </trkpt>
      <trkpt lat="47.660935" lon="-3.062116">
        <ele>20.024843</ele>
        <time>2025-06-26T09:09:00.853Z</time>
      </trkpt>
      <trkpt lat="47.661013" lon="-3.062650">
        <ele>19.931651</ele>
        <time>2025-06-26T09:09:08.649Z</time>
      </trkpt>
      <trkpt lat="47.661180" lon="-3.063260">
        <ele>20.295389</ele>
        <time>2025-06-26T09:09:18.637Z</time>
      </trkpt>
      <trkpt lat="47.661194" lon="-3.063309">
        <ele>20.324791</ele>
        <time>2025-06-26T09:09:19.472Z</time>
      </trkpt>
      <trkpt lat="47.659835" lon="-3.064237">
        <ele>21.616316</ele>
        <time>2025-06-26T09:09:55.766Z</time>
      </trkpt>
      <trkpt lat="47.659495" lon="-3.064625">
        <ele>22.089056</ele>
        <time>2025-06-26T09:10:06.278Z</time>
      </trkpt>
      <trkpt lat="47.658563" lon="-3.065550">
        <ele>23.324914</ele>
        <time>2025-06-26T09:10:33.808Z</time>
      </trkpt>
      <trkpt lat="47.658379" lon="-3.065870">
        <ele>23.822747</ele>
        <time>2025-06-26T09:10:41.095Z</time>
      </trkpt>
      <trkpt lat="47.658034" lon="-3.066158">
        <ele>24.537265</ele>
        <time>2025-06-26T09:10:51.932Z</time>
      </trkpt>
      <trkpt lat="47.657672" lon="-3.066329">
        <ele>25.223054</ele>
        <time>2025-06-26T09:11:02.822Z</time>
      </trkpt>
      <trkpt lat="47.657550" lon="-3.066581">
        <ele>25.600414</ele>
        <time>2025-06-26T09:11:08.864Z</time>
      </trkpt>
      <trkpt lat="47.657221" lon="-3.067079">
        <ele>26.448617</ele>
        <time>2025-06-26T09:11:22.296Z</time>
      </trkpt>
      <trkpt lat="47.656963" lon="-3.067471">
        <ele>26.884493</ele>
        <time>2025-06-26T09:11:32.401Z</time>
      </trkpt>
      <trkpt lat="47.656692" lon="-3.068307">
        <ele>27.513889</ele>
        <time>2025-06-26T09:11:47.879Z</time>
      </trkpt>
      <trkpt lat="47.656233" lon="-3.068940">
        <ele>28.144852</ele>
        <time>2025-06-26T09:12:01.731Z</time>
      </trkpt>
      <trkpt lat="47.656184" lon="-3.069007">
        <ele>28.211945</ele>
        <time>2025-06-26T09:12:03.175Z</time>
      </trkpt>
      <trkpt lat="47.655782" lon="-3.069292">
        <ele>28.566569</ele>
        <time>2025-06-26T09:12:13.003Z</time>
      </trkpt>
      <trkpt lat="47.655638" lon="-3.069569">
        <ele>28.716586</ele>
        <time>2025-06-26T09:12:18.307Z</time>
      </trkpt>
      <trkpt lat="47.655566" lon="-3.070380">
        <ele>29.067301</ele>
        <time>2025-06-26T09:12:31.141Z</time>
      </trkpt>
      <trkpt lat="47.654533" lon="-3.070624">
        <ele>29.625766</ele>
        <time>2025-06-26T09:12:55.383Z</time>
      </trkpt>
      <trkpt lat="47.654315" lon="-3.070716">
        <ele>29.685509</ele>
        <time>2025-06-26T09:13:00.376Z</time>
      </trkpt>
      <trkpt lat="47.654197" lon="-3.070729">
        <ele>29.716700</ele>
        <time>2025-06-26T09:13:02.936Z</time>
      </trkpt>
      <trkpt lat="47.653633" lon="-3.070786">
        <ele>29.865718</ele>
        <time>2025-06-26T09:13:14.883Z</time>
      </trkpt>
      <trkpt lat="47.653514" lon="-3.070883">
        <ele>29.901504</ele>
        <time>2025-06-26T09:13:17.643Z</time>
      </trkpt>
      <trkpt lat="47.653435" lon="-3.071036">
        <ele>29.935735</ele>
        <time>2025-06-26T09:13:20.265Z</time>
      </trkpt>
      <trkpt lat="47.653367" lon="-3.071388">
        <ele>30.000759</ele>
        <time>2025-06-26T09:13:25.134Z</time>
      </trkpt>
      <trkpt lat="47.653298" lon="-3.071609">
        <ele>30.026673</ele>
        <time>2025-06-26T09:13:28.335Z</time>
      </trkpt>
      <trkpt lat="47.653167" lon="-3.071768">
        <ele>30.032557</ele>
        <time>2025-06-26T09:13:31.635Z</time>
      </trkpt>
      <trkpt lat="47.652706" lon="-3.072200">
        <ele>30.051514</ele>
        <time>2025-06-26T09:13:42.451Z</time>
      </trkpt>
      <trkpt lat="47.652682" lon="-3.072322">
        <ele>30.054491</ele>
        <time>2025-06-26T09:13:44.168Z</time>
      </trkpt>
      <trkpt lat="47.652752" lon="-3.072571">
        <ele>30.060811</ele>
        <time>2025-06-26T09:13:47.834Z</time>
      </trkpt>
      <trkpt lat="47.652727" lon="-3.073043">
        <ele>30.071901</ele>
        <time>2025-06-26T09:13:52.658Z</time>
      </trkpt>
      <trkpt lat="47.652787" lon="-3.073355">
        <ele>30.079502</ele>
        <time>2025-06-26T09:13:56.060Z</time>
      </trkpt>
      <trkpt lat="47.653331" lon="-3.074559">
        <ele>30.339456</ele>
        <time>2025-06-26T09:14:11.800Z</time>
      </trkpt>
      <trkpt lat="47.653502" lon="-3.074845">
        <ele>30.423730</ele>
        <time>2025-06-26T09:14:15.932Z</time>
      </trkpt>
      <trkpt lat="47.653702" lon="-3.075055">
        <ele>30.503873</ele>
        <time>2025-06-26T09:14:19.767Z</time>
      </trkpt>
      <trkpt lat="47.654069" lon="-3.075361">
        <ele>30.641579</ele>
        <time>2025-06-26T09:14:26.537Z</time>
      </trkpt>
      <trkpt lat="47.653916" lon="-3.076217">
        <ele>30.824960</ele>
        <time>2025-06-26T09:14:39.740Z</time>
      </trkpt>
      <trkpt lat="47.653798" lon="-3.076732">
        <ele>30.936103</ele>
        <time>2025-06-26T09:14:54.121Z</time>
      </trkpt>
      <trkpt lat="47.653748" lon="-3.077124">
        <ele>31.017618</ele>
        <time>2025-06-26T09:15:04.565Z</time>
      </trkpt>
      <trkpt lat="47.653548" lon="-3.077673">
        <ele>31.145140</ele>
        <time>2025-06-26T09:15:20.648Z</time>
      </trkpt>
      <trkpt lat="47.653496" lon="-3.077883">
        <ele>31.190854</ele>
        <time>2025-06-26T09:15:26.348Z</time>
      </trkpt>
      <trkpt lat="47.653369" lon="-3.078396">
        <ele>31.095023</ele>
        <time>2025-06-26T09:15:39.896Z</time>
      </trkpt>
      <trkpt lat="47.653224" lon="-3.079363">
        <ele>30.784952</ele>
        <time>2025-06-26T09:16:03.438Z</time>
      </trkpt>
      <trkpt lat="47.652919" lon="-3.079681">
        <ele>30.611776</ele>
        <time>2025-06-26T09:16:16.194Z</time>
      </trkpt>
      <trkpt lat="47.652469" lon="-3.080092">
        <ele>30.389905</ele>
        <time>2025-06-26T09:16:34.307Z</time>
      </trkpt>
      <trkpt lat="47.652280" lon="-3.080364">
        <ele>30.423284</ele>
        <time>2025-06-26T09:16:43.506Z</time>
      </trkpt>
      <trkpt lat="47.651548" lon="-3.081166">
        <ele>30.538648</ele>
        <time>2025-06-26T09:17:17.291Z</time>
      </trkpt>
      <trkpt lat="47.651265" lon="-3.081579">
        <ele>30.588970</ele>
        <time>2025-06-26T09:17:32.864Z</time>
      </trkpt>
      <trkpt lat="47.650954" lon="-3.082126">
        <ele>30.958047</ele>
        <time>2025-06-26T09:17:52.564Z</time>
      </trkpt>
      <trkpt lat="47.650557" lon="-3.082809">
        <ele>31.673032</ele>
        <time>2025-06-26T09:18:18.511Z</time>
      </trkpt>
      <trkpt lat="47.650029" lon="-3.083794">
        <ele>32.670720</ele>
        <time>2025-06-26T09:18:54.788Z</time>
      </trkpt>
      <trkpt lat="47.649586" lon="-3.084770">
        <ele>32.788859</ele>
        <time>2025-06-26T09:19:13.528Z</time>
      </trkpt>
      <trkpt lat="47.649323" lon="-3.085120">
        <ele>32.817267</ele>
        <time>2025-06-26T09:19:20.376Z</time>
      </trkpt>
      <trkpt lat="47.648908" lon="-3.085566">
        <ele>32.858473</ele>
        <time>2025-06-26T09:19:29.476Z</time>
      </trkpt>
      <trkpt lat="47.647989" lon="-3.086086">
        <ele>33.186860</ele>
        <time>2025-06-26T09:19:47.133Z</time>
      </trkpt>
      <trkpt lat="47.647811" lon="-3.085365">
        <ele>33.390961</ele>
        <time>2025-06-26T09:19:59.261Z</time>
      </trkpt>
      <trkpt lat="47.647639" lon="-3.084627">
        <ele>33.583380</ele>
        <time>2025-06-26T09:20:13.458Z</time>
      </trkpt>
      <trkpt lat="47.647623" lon="-3.084505">
        <ele>33.583380</ele>
        <time>2025-06-26T09:20:15.830Z</time>
      </trkpt>
      <trkpt lat="47.647556" lon="-3.083982">
        <ele>33.583380</ele>
        <time>2025-06-26T09:20:25.767Z</time>
      </trkpt>
      <trkpt lat="47.647571" lon="-3.083612">
        <ele>33.583380</ele>
        <time>2025-06-26T09:20:32.330Z</time>
      </trkpt>
      <trkpt lat="47.647725" lon="-3.082115">
        <ele>33.583380</ele>
        <time>2025-06-26T09:20:53.551Z</time>
      </trkpt>
      <trkpt lat="47.647701" lon="-3.081980">
        <ele>33.583380</ele>
        <time>2025-06-26T09:20:55.205Z</time>
      </trkpt>
      <trkpt lat="47.647418" lon="-3.082286">
        <ele>33.583380</ele>
        <time>2025-06-26T09:20:59.664Z</time>
      </trkpt>
    </trkseg>
  </trk>
</gpx>